
Distance (Route):
Temperature : 28.0°C
Humidity : 32.7%
Pressure : 958.8hPa| Receiver | Frames | First received | Last received |
|---|---|---|---|
| DK7TD | 853 | 2026-09-04 10:47:02 | 2026-09-04 13:15:11 |
| DO3MHA-12 | 463 | 2026-09-04 11:20:30 | 2026-09-04 13:43:30 |
| DO3MHA-11 | 436 | 2026-09-04 11:20:29 | 2026-09-04 13:43:35 |
| DM0DOS-11 | 418 | 2026-09-04 11:20:24 | 2026-09-04 12:59:39 |
| HSKMA3-T | 218 | 2026-09-04 11:47:30 | 2026-09-04 12:33:52 |
| DL1XH-west | 164 | 2026-09-04 12:02:50 | 2026-09-04 12:33:26 |
| DF8AY | 113 | 2026-09-04 12:02:02 | 2026-09-04 12:33:18 |
| NBG1-10 | 104 | 2026-09-04 11:21:22 | 2026-09-04 13:40:46 |
| DL1XH1-15 | 96 | 2026-09-04 12:03:53 | 2026-09-04 12:32:10 |
| IW2NTF | 92 | 2026-09-04 11:43:31 | 2026-09-04 12:28:22 |
| DL6DJ-15 | 86 | 2026-09-04 11:13:45 | 2026-09-04 13:39:16 |
| DB0NH | 82 | 2026-09-04 11:22:24 | 2026-09-04 13:39:12 |
| DL9SK-14 | 78 | 2026-09-04 10:46:14 | 2026-09-04 13:28:48 |
| DF3TZ-5 | 72 | 2026-09-04 10:46:14 | 2026-09-04 13:30:48 |
| DF7PN | 58 | 2026-09-04 10:53:45 | 2026-09-04 13:18:12 |
| AZAK | 56 | 2026-09-04 10:45:31 | 2026-09-04 12:59:13 |
| OE5DRO-10 | 54 | 2026-09-04 11:30:05 | 2026-09-04 12:58:16 |
| DL1ZP-14 | 53 | 2026-09-04 10:55:44 | 2026-09-04 12:56:55 |
| DB0ND-19 | 53 | 2026-09-04 11:06:47 | 2026-09-04 13:28:30 |
| DM7RM-13 | 52 | 2026-09-04 11:21:38 | 2026-09-04 13:20:48 |
| DK5PH-5 | 51 | 2026-09-04 11:20:42 | 2026-09-04 13:23:37 |
| DG9SBQ-11 | 50 | 2026-09-04 11:55:47 | 2026-09-04 12:46:48 |
| OE5WHR-10 | 45 | 2026-09-04 11:38:44 | 2026-09-04 12:34:46 |
| DN1GJH-1 | 44 | 2026-09-04 11:05:36 | 2026-09-04 13:03:47 |
| OE5MMP-10 | 42 | 2026-09-04 12:01:27 | 2026-09-04 12:33:02 |
| DJ8HS-15 | 40 | 2026-09-04 11:22:10 | 2026-09-04 12:59:12 |
| DO9HM | 38 | 2026-09-04 11:36:09 | 2026-09-04 13:17:13 |
| DF1GD-15 | 35 | 2026-09-04 11:20:44 | 2026-09-04 13:06:43 |
| PG1ADW-2 | 34 | 2026-09-04 11:31:24 | 2026-09-04 12:55:55 |
| HARRO8 | 33 | 2026-09-04 11:22:18 | 2026-09-04 13:16:55 |
| DB0UT-7 | 29 | 2026-09-04 11:34:50 | 2026-09-04 13:26:28 |
| DF2AP-13 | 28 | 2026-09-04 11:21:32 | 2026-09-04 12:58:37 |
| SONCRA | 25 | 2026-09-04 11:44:14 | 2026-09-04 12:45:50 |
| OE3JTB-15 | 22 | 2026-09-04 11:23:26 | 2026-09-04 13:24:28 |
| OE5DXL-15 | 20 | 2026-09-04 11:23:25 | 2026-09-04 12:56:23 |
| DJ2DS-15 | 20 | 2026-09-04 12:02:36 | 2026-09-04 12:32:27 |
| BIOWL1-15 | 13 | 2026-09-04 11:23:46 | 2026-09-04 12:59:30 |
| DJTTGO | 13 | 2026-09-04 11:25:56 | 2026-09-04 12:51:40 |
| OE9MKV-15 | 13 | 2026-09-04 11:40:23 | 2026-09-04 12:47:59 |
| DG1MJG | 10 | 2026-09-04 11:22:07 | 2026-09-04 13:27:35 |
| BAUMI2-15 | 9 | 2026-09-04 12:18:16 | 2026-09-04 12:26:47 |
| DH7VM-15 | 7 | 2026-09-04 11:40:58 | 2026-09-04 13:17:15 |
| EDDB2-11 | 7 | 2026-09-04 12:22:08 | 2026-09-04 12:35:35 |
| DF9NV-10 | 5 | 2026-09-04 11:46:06 | 2026-09-04 13:24:27 |
| OM5KV | 5 | 2026-09-04 12:17:46 | 2026-09-04 12:25:35 |
| DL1NUX | 5 | 2026-09-04 12:26:28 | 2026-09-04 12:27:32 |
| SONDE2-11 | 4 | 2026-09-04 11:48:54 | 2026-09-04 12:25:08 |
| DL0LBS | 4 | 2026-09-04 13:19:53 | 2026-09-04 13:26:09 |
| DF8AY-15 | 3 | 2026-09-04 12:13:38 | 2026-09-04 12:21:37 |
| PETON7-10 | 2 | 2026-09-04 12:12:45 | 2026-09-04 12:18:25 |
| KANTATE | 1 | 2026-09-04 10:47:02 | 2026-09-04 10:47:02 |
| SO1NDE-10 | 1 | 2026-09-04 12:26:55 | 2026-09-04 12:26:55 |
| BIOWL9-15 | 1 | 2026-09-04 12:55:44 | 2026-09-04 12:55:44 |
| Receiver | Date | Latitude | Longitude | Direction | Speed | Altitude | Climb | Temperature | Humidity | Pressure | Voltage | Killtimer | Uptime | BKT | XDATA |
|---|---|---|---|---|---|---|---|---|---|---|---|---|---|---|---|
| DO3MHA-11 | 2026-09-04 13:43:35 | 48.57773 | 11.29110 | 87° | 40km/h | 522m | -2.9m/s | 28.0°C | 32.7% | 958.8hPa | 2.7V | 00:00:00 | 03:14:16 | 00:00:00 | |
| DO3MHA-11 | 2026-09-04 13:43:33 | 48.57771 | 11.29082 | 82° | 33km/h | 528m | -2.7m/s | 28.0°C | 32.7% | 958.3hPa | 2.7V | 00:00:00 | 03:14:14 | 00:00:00 | |
| DO3MHA-11 | 2026-09-04 13:43:31 | 48.57768 | 11.29058 | 74° | 27km/h | 534m | -2.7m/s | 28.0°C | 32.9% | 957.5hPa | 2.7V | 07:14:00 | 03:14:12 | 00:00:00 | |
| DO3MHA-12 | 2026-09-04 13:43:30 | 48.57766 | 11.29048 | 74° | 27km/h | 537m | -2.7m/s | 28.0°C | 32.9% | 957.3hPa | 2.7V | 07:14:00 | 03:14:11 | 00:00:00 | |
| DO3MHA-12 | 2026-09-04 13:43:28 | 48.57760 | 11.29028 | 62° | 29km/h | 542m | -2.0m/s | 27.9°C | 33.0% | 956.8hPa | 2.7V | 00:00:00 | 03:14:09 | 00:00:00 | |
| DO3MHA-11 | 2026-09-04 13:43:27 | 48.57756 | 11.29018 | 58° | 35km/h | 543m | -2.0m/s | 27.9°C | 32.9% | 956.6hPa | 2.7V | 00:00:00 | 03:14:08 | 00:00:00 | |
| DO3MHA-12 | 2026-09-04 13:43:26 | 48.57752 | 11.29007 | 58° | 40km/h | 546m | -1.9m/s | 27.9°C | 33.1% | 956.4hPa | 2.7V | 00:00:00 | 03:14:07 | 00:00:00 | |
| DO3MHA-11 | 2026-09-04 13:43:25 | 48.57747 | 11.28995 | 58° | 42km/h | 548m | -2.5m/s | 27.9°C | 33.2% | 956.3hPa | 2.7V | 00:00:00 | 03:14:06 | 00:00:00 | |
| DO3MHA-12 | 2026-09-04 13:43:24 | 48.57741 | 11.28980 | 62° | 46km/h | 550m | -2.1m/s | 27.8°C | 33.1% | 955.9hPa | 2.7V | 00:00:00 | 03:14:05 | 00:00:00 | |
| DO3MHA-11 | 2026-09-04 13:43:23 | 48.57736 | 11.28965 | 67° | 47km/h | 552m | -2.1m/s | 27.8°C | 33.2% | 955.8hPa | 2.7V | 00:00:00 | 03:14:04 | 00:00:00 | |
| DO3MHA-12 | 2026-09-04 13:43:22 | 48.57732 | 11.28948 | 73° | 47km/h | 555m | -2.8m/s | 27.7°C | 33.3% | 955.4hPa | 2.7V | 00:00:00 | 03:14:03 | 00:00:00 | |
| DO3MHA-11 | 2026-09-04 13:43:21 | 48.57729 | 11.28931 | 78° | 46km/h | 558m | -3.0m/s | 27.7°C | 33.2% | 955.3hPa | 2.7V | 00:00:00 | 03:14:02 | 00:00:00 | |
| DO3MHA-12 | 2026-09-04 13:43:20 | 48.57727 | 11.28914 | 83° | 44km/h | 561m | -2.9m/s | 27.7°C | 33.4% | 954.8hPa | 2.7V | 00:00:00 | 03:14:01 | 00:00:00 | |
| DO3MHA-11 | 2026-09-04 13:43:19 | 48.57726 | 11.28897 | 85° | 38km/h | 564m | -3.1m/s | 27.6°C | 33.4% | 954.4hPa | 2.7V | 00:00:00 | 03:14:00 | 00:00:00 | |
| DO3MHA-12 | 2026-09-04 13:43:18 | 48.57725 | 11.28882 | 84° | 35km/h | 567m | -3.3m/s | 27.6°C | 33.5% | 954.1hPa | 2.7V | 00:00:00 | 03:13:59 | 00:00:00 | |
| DO3MHA-11 | 2026-09-04 13:43:17 | 48.57723 | 11.28869 | 81° | 33km/h | 570m | -3.1m/s | 27.5°C | 33.6% | 953.7hPa | 2.7V | 00:00:00 | 03:13:58 | 00:00:00 | |
| DO3MHA-12 | 2026-09-04 13:43:16 | 48.57722 | 11.28857 | 78° | 31km/h | 573m | -3.1m/s | 27.5°C | 33.6% | 953.3hPa | 2.7V | 00:00:00 | 03:13:57 | 00:00:00 | |
| DO3MHA-11 | 2026-09-04 13:43:15 | 48.57720 | 11.28845 | 74° | 31km/h | 577m | -3.3m/s | 27.5°C | 33.6% | 953.2hPa | 2.7V | 07:14:00 | 03:13:56 | 00:00:00 | |
| DO3MHA-12 | 2026-09-04 13:43:14 | 48.57718 | 11.28834 | 74° | 31km/h | 580m | -3.0m/s | 27.5°C | 33.5% | 952.8hPa | 2.7V | 07:14:00 | 03:13:55 | 00:00:00 | |
| DO3MHA-11 | 2026-09-04 13:43:13 | 48.57716 | 11.28823 | 74° | 31km/h | 583m | -3.0m/s | 27.4°C | 33.5% | 952.6hPa | 2.7V | 00:00:00 | 03:13:54 | 00:00:00 | |
| DO3MHA-12 | 2026-09-04 13:43:12 | 48.57713 | 11.28812 | 73° | 29km/h | 586m | -3.0m/s | 27.4°C | 33.5% | 952.2hPa | 2.7V | 00:00:00 | 03:13:53 | 00:00:00 | |
| DO3MHA-11 | 2026-09-04 13:43:11 | 48.57711 | 11.28801 | 71° | 29km/h | 589m | -3.1m/s | 27.4°C | 33.4% | 951.7hPa | 2.7V | 00:00:00 | 03:13:52 | 00:00:00 | |
| DO3MHA-12 | 2026-09-04 13:43:10 | 48.57708 | 11.28790 | 65° | 29km/h | 592m | -3.1m/s | 27.4°C | 33.4% | 951.4hPa | 2.7V | 00:00:00 | 03:13:51 | 00:00:00 | |
| DO3MHA-11 | 2026-09-04 13:43:09 | 48.57705 | 11.28780 | 62° | 31km/h | 595m | -3.0m/s | 27.3°C | 33.5% | 951.0hPa | 2.7V | 00:00:00 | 03:13:50 | 00:00:00 | |
| DO3MHA-12 | 2026-09-04 13:43:08 | 48.57701 | 11.28770 | 59° | 31km/h | 598m | -3.1m/s | 27.3°C | 33.6% | 950.7hPa | 2.7V | 00:00:00 | 03:13:49 | 00:00:00 | |
| DO3MHA-11 | 2026-09-04 13:43:07 | 48.57696 | 11.28760 | 57° | 35km/h | 602m | -3.2m/s | 27.3°C | 33.8% | 950.4hPa | 2.7V | 00:00:00 | 03:13:48 | 00:00:00 | |
| DO3MHA-12 | 2026-09-04 13:43:06 | 48.57692 | 11.28749 | 58° | 37km/h | 605m | -3.2m/s | 27.2°C | 33.8% | 950.0hPa | 2.7V | 00:00:00 | 03:13:47 | 00:00:00 | |
| DO3MHA-11 | 2026-09-04 13:43:05 | 48.57687 | 11.28737 | 60° | 40km/h | 608m | -3.6m/s | 27.1°C | 33.9% | 949.7hPa | 2.7V | 00:00:00 | 03:13:46 | 00:00:00 | |
| DO3MHA-12 | 2026-09-04 13:43:04 | 48.57682 | 11.28724 | 63° | 42km/h | 612m | -3.9m/s | 27.1°C | 33.9% | 949.4hPa | 2.7V | 00:00:00 | 03:13:45 | 00:00:00 | |
| DO3MHA-11 | 2026-09-04 13:43:03 | 48.57677 | 11.28710 | 64° | 42km/h | 616m | -4.0m/s | 27.1°C | 33.9% | 948.9hPa | 2.7V | 00:00:00 | 03:13:44 | 00:00:00 | |
| DO3MHA-12 | 2026-09-04 13:43:02 | 48.57673 | 11.28695 | 65° | 44km/h | 620m | -3.7m/s | 27.0°C | 34.0% | 948.5hPa | 2.7V | 00:00:00 | 03:13:43 | 00:00:00 | |
| DO3MHA-11 | 2026-09-04 13:43:01 | 48.57668 | 11.28680 | 68° | 44km/h | 624m | -3.8m/s | 27.0°C | 34.0% | 948.1hPa | 2.7V | 00:00:00 | 03:13:42 | 00:00:00 | |
| DO3MHA-12 | 2026-09-04 13:43:00 | 48.57664 | 11.28664 | 71° | 44km/h | 628m | -3.7m/s | 27.0°C | 34.1% | 947.7hPa | 2.7V | 00:00:00 | 03:13:41 | 00:00:00 | |
| DO3MHA-11 | 2026-09-04 13:42:59 | 48.57661 | 11.28647 | 75° | 44km/h | 631m | -3.7m/s | 27.0°C | 34.1% | 947.2hPa | 2.7V | 07:14:00 | 03:13:40 | 00:00:00 | |
| DO3MHA-12 | 2026-09-04 13:42:58 | 48.57658 | 11.28631 | 79° | 44km/h | 635m | -3.8m/s | 26.9°C | 34.2% | 947.0hPa | 2.7V | 07:14:00 | 03:13:39 | 00:00:00 | |
| DO3MHA-11 | 2026-09-04 13:42:57 | 48.57656 | 11.28615 | 82° | 42km/h | 639m | -3.9m/s | 26.9°C | 34.2% | 946.5hPa | 2.7V | 00:00:00 | 03:13:38 | 00:00:00 | |
| DO3MHA-12 | 2026-09-04 13:42:56 | 48.57655 | 11.28599 | 84° | 40km/h | 643m | -3.9m/s | 26.9°C | 34.3% | 945.9hPa | 2.7V | 00:00:00 | 03:13:37 | 00:00:00 | |
| DO3MHA-11 | 2026-09-04 13:42:55 | 48.57654 | 11.28584 | 85° | 38km/h | 647m | -4.1m/s | 26.8°C | 34.2% | 945.5hPa | 2.7V | 00:00:00 | 03:13:36 | 00:00:00 | |
| DO3MHA-12 | 2026-09-04 13:42:54 | 48.57653 | 11.28569 | 85° | 35km/h | 651m | -4.2m/s | 26.8°C | 34.3% | 945.1hPa | 2.7V | 00:00:00 | 03:13:35 | 00:00:00 | |
| DO3MHA-11 | 2026-09-04 13:42:53 | 48.57652 | 11.28556 | 82° | 33km/h | 656m | -4.2m/s | 26.8°C | 34.3% | 944.5hPa | 2.7V | 00:00:00 | 03:13:34 | 00:00:00 | |
| DO3MHA-12 | 2026-09-04 13:42:52 | 48.57650 | 11.28543 | 78° | 31km/h | 660m | -3.9m/s | 26.8°C | 34.2% | 944.0hPa | 2.7V | 00:00:00 | 03:13:33 | 00:00:00 | |
| DO3MHA-11 | 2026-09-04 13:42:51 | 48.57648 | 11.28532 | 75° | 31km/h | 664m | -3.8m/s | 26.7°C | 34.5% | 943.9hPa | 2.7V | 00:00:00 | 03:13:32 | 00:00:00 | |
| DO3MHA-12 | 2026-09-04 13:42:50 | 48.57646 | 11.28520 | 70° | 31km/h | 668m | -4.2m/s | 26.7°C | 34.5% | 943.3hPa | 2.7V | 00:00:00 | 03:13:31 | 00:00:00 | |
| DO3MHA-11 | 2026-09-04 13:42:49 | 48.57643 | 11.28509 | 69° | 31km/h | 672m | -4.2m/s | 26.6°C | 34.6% | 942.9hPa | 2.7V | 00:00:00 | 03:13:30 | 00:00:00 | |
| DO3MHA-12 | 2026-09-04 13:42:48 | 48.57640 | 11.28498 | 67° | 31km/h | 676m | -4.0m/s | 26.6°C | 34.7% | 942.4hPa | 2.7V | 00:00:00 | 03:13:29 | 00:00:00 | |
| DO3MHA-11 | 2026-09-04 13:42:47 | 48.57637 | 11.28487 | 63° | 33km/h | 680m | -4.1m/s | 26.5°C | 34.8% | 941.9hPa | 2.7V | 00:00:00 | 03:13:28 | 00:00:00 | |
| DO3MHA-12 | 2026-09-04 13:42:46 | 48.57633 | 11.28476 | 62° | 33km/h | 685m | -4.4m/s | 26.5°C | 34.9% | 941.4hPa | 2.7V | 00:00:00 | 03:13:27 | 00:00:00 | |
| DO3MHA-11 | 2026-09-04 13:42:45 | 48.57629 | 11.28465 | 60° | 35km/h | 689m | -4.5m/s | 26.4°C | 34.9% | 940.9hPa | 2.7V | 00:00:00 | 03:13:26 | 00:00:00 | |
| DO3MHA-12 | 2026-09-04 13:42:44 | 48.57624 | 11.28454 | 58° | 37km/h | 694m | -4.6m/s | 26.4°C | 34.9% | 940.5hPa | 2.7V | 00:00:00 | 03:13:25 | 00:00:00 | |
| DO3MHA-11 | 2026-09-04 13:42:43 | 48.57619 | 11.28442 | 60° | 38km/h | 698m | -4.8m/s | 26.3°C | 35.0% | 939.9hPa | 2.7V | 07:14:00 | 03:13:24 | 00:00:00 | |
| DO3MHA-12 | 2026-09-04 13:42:42 | 48.57614 | 11.28429 | 61° | 42km/h | 703m | -4.8m/s | 26.3°C | 35.3% | 939.5hPa | 2.7V | 07:14:00 | 03:13:23 | 00:00:00 | |
| DO3MHA-11 | 2026-09-04 13:42:41 | 48.57609 | 11.28416 | 62° | 44km/h | 708m | -4.5m/s | 26.2°C | 35.6% | 938.9hPa | 2.7V | 00:00:00 | 03:13:22 | 00:00:00 | |
| DO3MHA-12 | 2026-09-04 13:42:40 | 48.57604 | 11.28401 | 64° | 44km/h | 713m | -4.8m/s | 26.1°C | 35.5% | 938.5hPa | 2.7V | 00:00:00 | 03:13:21 | 00:00:00 | |
| DO3MHA-11 | 2026-09-04 13:42:39 | 48.57600 | 11.28386 | 68° | 44km/h | 717m | -4.9m/s | 26.1°C | 35.7% | 938.1hPa | 2.7V | 00:00:00 | 03:13:20 | 00:00:00 | |
| DO3MHA-12 | 2026-09-04 13:42:38 | 48.57596 | 11.28371 | 71° | 42km/h | 722m | -4.5m/s | 26.1°C | 35.6% | 937.4hPa | 2.7V | 00:00:00 | 03:13:19 | 00:00:00 | |
| DO3MHA-11 | 2026-09-04 13:42:37 | 48.57592 | 11.28355 | 73° | 42km/h | 727m | -4.9m/s | 26.0°C | 35.7% | 936.9hPa | 2.7V | 00:00:00 | 03:13:18 | 00:00:00 | |
| DO3MHA-12 | 2026-09-04 13:42:36 | 48.57590 | 11.28339 | 74° | 44km/h | 732m | -4.7m/s | 26.0°C | 35.9% | 936.3hPa | 2.7V | 00:00:00 | 03:13:17 | 00:00:00 | |
| DO3MHA-11 | 2026-09-04 13:42:35 | 48.57586 | 11.28323 | 73° | 46km/h | 737m | -4.6m/s | 25.9°C | 35.9% | 935.8hPa | 2.7V | 00:00:00 | 03:13:16 | 00:00:00 | |
| DO3MHA-12 | 2026-09-04 13:42:34 | 48.57583 | 11.28307 | 73° | 47km/h | 741m | -4.7m/s | 25.9°C | 36.0% | 935.4hPa | 2.7V | 00:00:00 | 03:13:15 | 00:00:00 | |
| DO3MHA-11 | 2026-09-04 13:42:33 | 48.57579 | 11.28290 | 74° | 47km/h | 746m | -4.7m/s | 25.8°C | 36.2% | 935.0hPa | 2.7V | 00:00:00 | 03:13:14 | 00:00:00 | |
| DO3MHA-12 | 2026-09-04 13:42:32 | 48.57576 | 11.28273 | 77° | 46km/h | 751m | -4.9m/s | 25.8°C | 36.1% | 934.1hPa | 2.7V | 00:00:00 | 03:13:13 | 00:00:00 | |
| DO3MHA-11 | 2026-09-04 13:42:31 | 48.57574 | 11.28256 | 81° | 42km/h | 756m | -4.6m/s | 25.8°C | 36.0% | 933.7hPa | 2.7V | 00:00:00 | 03:13:12 | 00:00:00 | |
| DO3MHA-12 | 2026-09-04 13:42:30 | 48.57573 | 11.28240 | 84° | 37km/h | 760m | -4.3m/s | 25.8°C | 35.9% | 933.3hPa | 2.7V | 00:00:00 | 03:13:11 | 00:00:00 | |
| DO3MHA-11 | 2026-09-04 13:42:29 | 48.57571 | 11.28226 | 83° | 33km/h | 764m | -4.3m/s | 25.7°C | 36.0% | 932.9hPa | 2.7V | 00:00:00 | 03:13:10 | 00:00:00 | |
| DO3MHA-12 | 2026-09-04 13:42:28 | 48.57570 | 11.28214 | 81° | 29km/h | 769m | -4.5m/s | 25.7°C | 36.1% | 932.3hPa | 2.7V | 00:00:00 | 03:13:09 | 00:00:00 | |
| DO3MHA-11 | 2026-09-04 13:42:27 | 48.57569 | 11.28203 | 76° | 27km/h | 774m | -4.2m/s | 25.6°C | 36.2% | 931.9hPa | 2.7V | 07:15:00 | 03:13:08 | 00:00:00 | |
| DO3MHA-12 | 2026-09-04 13:42:26 | 48.57567 | 11.28193 | 69° | 29km/h | 778m | -4.6m/s | 25.6°C | 36.4% | 931.5hPa | 2.7V | 07:15:00 | 03:13:07 | 00:00:00 | |
| DO3MHA-11 | 2026-09-04 13:42:25 | 48.57564 | 11.28184 | 64° | 33km/h | 782m | -4.6m/s | 25.6°C | 36.2% | 931.0hPa | 2.7V | 00:00:00 | 03:13:06 | 00:00:00 | |
| DO3MHA-12 | 2026-09-04 13:42:24 | 48.57560 | 11.28173 | 61° | 35km/h | 787m | -4.5m/s | 25.5°C | 36.6% | 930.4hPa | 2.7V | 00:00:00 | 03:13:05 | 00:00:00 | |
| DO3MHA-11 | 2026-09-04 13:42:23 | 48.57555 | 11.28161 | 59° | 38km/h | 792m | -4.4m/s | 25.4°C | 36.8% | 930.0hPa | 2.7V | 00:00:00 | 03:13:04 | 00:00:00 | |
| DO3MHA-12 | 2026-09-04 13:42:22 | 48.57550 | 11.28148 | 59° | 42km/h | 796m | -4.7m/s | 25.4°C | 36.8% | 929.4hPa | 2.7V | 00:00:00 | 03:13:03 | 00:00:00 | |
| DO3MHA-11 | 2026-09-04 13:42:21 | 48.57545 | 11.28135 | 60° | 44km/h | 801m | -4.7m/s | 25.3°C | 36.9% | 929.0hPa | 2.7V | 00:00:00 | 03:13:02 | 00:00:00 | |
| DO3MHA-12 | 2026-09-04 13:42:20 | 48.57539 | 11.28120 | 63° | 46km/h | 806m | -4.8m/s | 25.2°C | 37.1% | 928.6hPa | 2.7V | 00:00:00 | 03:13:01 | 00:00:00 | |
| DO3MHA-11 | 2026-09-04 13:42:19 | 48.57534 | 11.28104 | 67° | 46km/h | 810m | -4.8m/s | 25.2°C | 37.3% | 928.0hPa | 2.7V | 00:00:00 | 03:13:00 | 00:00:00 | |
| DO3MHA-12 | 2026-09-04 13:42:18 | 48.57530 | 11.28088 | 73° | 46km/h | 815m | -4.8m/s | 25.2°C | 37.3% | 927.4hPa | 2.7V | 00:00:00 | 03:12:59 | 00:00:00 | |
| DO3MHA-11 | 2026-09-04 13:42:17 | 48.57527 | 11.28071 | 78° | 44km/h | 820m | -4.9m/s | 25.1°C | 37.2% | 927.0hPa | 2.7V | 00:00:00 | 03:12:58 | 00:00:00 | |
| DO3MHA-12 | 2026-09-04 13:42:16 | 48.57525 | 11.28054 | 84° | 40km/h | 825m | -4.9m/s | 25.1°C | 37.3% | 926.4hPa | 2.7V | 00:00:00 | 03:12:57 | 00:00:00 | |
| DO3MHA-11 | 2026-09-04 13:42:15 | 48.57525 | 11.28039 | 87° | 37km/h | 830m | -4.9m/s | 25.1°C | 37.3% | 926.0hPa | 2.7V | 00:00:00 | 03:12:56 | 00:00:00 | |
| DO3MHA-12 | 2026-09-04 13:42:14 | 48.57524 | 11.28025 | 87° | 31km/h | 835m | -4.7m/s | 25.0°C | 37.3% | 925.3hPa | 2.7V | 00:00:00 | 03:12:55 | 00:00:00 | |
| DO3MHA-11 | 2026-09-04 13:42:13 | 48.57523 | 11.28014 | 82° | 27km/h | 840m | -4.6m/s | 25.0°C | 37.4% | 924.9hPa | 2.7V | 00:00:00 | 03:12:54 | 00:00:00 | |
| DO3MHA-12 | 2026-09-04 13:42:12 | 48.57522 | 11.28003 | 74° | 27km/h | 844m | -4.6m/s | 25.0°C | 37.4% | 924.4hPa | 2.7V | 00:00:00 | 03:12:53 | 00:00:00 | |
| DO3MHA-11 | 2026-09-04 13:42:11 | 48.57519 | 11.27993 | 66° | 27km/h | 849m | -4.7m/s | 24.9°C | 37.6% | 923.8hPa | 2.7V | 07:15:00 | 03:12:52 | 00:00:00 | |
| DO3MHA-12 | 2026-09-04 13:42:10 | 48.57516 | 11.27984 | 59° | 27km/h | 854m | -4.7m/s | 24.9°C | 37.8% | 923.5hPa | 2.7V | 07:15:00 | 03:12:51 | 00:00:00 | |
| DO3MHA-11 | 2026-09-04 13:42:09 | 48.57512 | 11.27975 | 55° | 31km/h | 859m | -4.7m/s | 24.8°C | 37.8% | 922.8hPa | 2.7V | 00:00:00 | 03:12:50 | 00:00:00 | |
| DO3MHA-12 | 2026-09-04 13:42:08 | 48.57508 | 11.27966 | 54° | 35km/h | 863m | -4.9m/s | 24.7°C | 38.0% | 922.3hPa | 2.7V | 00:00:00 | 03:12:49 | 00:00:00 | |
| DO3MHA-11 | 2026-09-04 13:42:07 | 48.57503 | 11.27955 | 57° | 38km/h | 868m | -4.7m/s | 24.7°C | 38.1% | 921.9hPa | 2.7V | 00:00:00 | 03:12:48 | 00:00:00 | |
| DO3MHA-12 | 2026-09-04 13:42:06 | 48.57498 | 11.27943 | 61° | 42km/h | 873m | -4.7m/s | 24.6°C | 38.2% | 921.4hPa | 2.7V | 00:00:00 | 03:12:47 | 00:00:00 | |
| DO3MHA-11 | 2026-09-04 13:42:05 | 48.57493 | 11.27929 | 66° | 44km/h | 878m | -4.6m/s | 24.6°C | 38.4% | 921.0hPa | 2.7V | 00:00:00 | 03:12:46 | 00:00:00 | |
| DO3MHA-12 | 2026-09-04 13:42:04 | 48.57488 | 11.27913 | 68° | 46km/h | 882m | -4.9m/s | 24.5°C | 38.4% | 920.4hPa | 2.7V | 00:00:00 | 03:12:45 | 00:00:00 | |
| DO3MHA-11 | 2026-09-04 13:42:03 | 48.57484 | 11.27897 | 70° | 47km/h | 887m | -5.3m/s | 24.5°C | 38.5% | 919.8hPa | 2.7V | 00:00:00 | 03:12:44 | 00:00:00 | |
| DO3MHA-12 | 2026-09-04 13:42:02 | 48.57480 | 11.27880 | 73° | 46km/h | 893m | -5.2m/s | 24.4°C | 38.5% | 919.2hPa | 2.7V | 00:00:00 | 03:12:43 | 00:00:00 | |
| DO3MHA-11 | 2026-09-04 13:42:01 | 48.57477 | 11.27863 | 76° | 44km/h | 898m | -5.0m/s | 24.4°C | 38.5% | 918.8hPa | 2.7V | 00:00:00 | 03:12:42 | 00:00:00 | |
| DO3MHA-12 | 2026-09-04 13:42:00 | 48.57475 | 11.27847 | 80° | 40km/h | 903m | -5.2m/s | 24.4°C | 38.6% | 918.1hPa | 2.7V | 00:00:00 | 03:12:41 | 00:00:00 | |
| DO3MHA-11 | 2026-09-04 13:41:59 | 48.57473 | 11.27831 | 82° | 37km/h | 908m | -5.2m/s | 24.4°C | 38.7% | 917.8hPa | 2.7V | 00:00:00 | 03:12:40 | 00:00:00 | |
| DO3MHA-12 | 2026-09-04 13:41:58 | 48.57472 | 11.27818 | 82° | 33km/h | 913m | -5.2m/s | 24.3°C | 38.8% | 917.4hPa | 2.7V | 00:00:00 | 03:12:39 | 00:00:00 | |
| DO3MHA-11 | 2026-09-04 13:41:57 | 48.57470 | 11.27805 | 80° | 29km/h | 919m | -5.1m/s | 24.3°C | 38.9% | 916.8hPa | 2.7V | 00:00:00 | 03:12:38 | 00:00:00 | |
| DO3MHA-12 | 2026-09-04 13:41:56 | 48.57469 | 11.27794 | 75° | 29km/h | 924m | -5.1m/s | 24.2°C | 39.0% | 916.1hPa | 2.7V | 00:00:00 | 03:12:37 | 00:00:00 | |
| DO3MHA-11 | 2026-09-04 13:41:55 | 48.57466 | 11.27784 | 67° | 29km/h | 929m | -5.1m/s | 24.1°C | 39.1% | 915.5hPa | 2.7V | 07:15:00 | 03:12:36 | 00:00:00 | |
| DO3MHA-12 | 2026-09-04 13:41:54 | 48.57463 | 11.27775 | 59° | 31km/h | 934m | -5.2m/s | 24.1°C | 39.3% | 915.0hPa | 2.7V | 07:15:00 | 03:12:35 | 00:00:00 | |
| DO3MHA-11 | 2026-09-04 13:41:53 | 48.57459 | 11.27765 | 56° | 33km/h | 939m | -5.2m/s | 24.0°C | 39.4% | 914.4hPa | 2.7V | 00:00:00 | 03:12:34 | 00:00:00 | |
| DO3MHA-12 | 2026-09-04 13:41:52 | 48.57454 | 11.27754 | 55° | 37km/h | 945m | -5.1m/s | 24.0°C | 39.7% | 913.9hPa | 2.7V | 00:00:00 | 03:12:33 | 00:00:00 | |
| DO3MHA-11 | 2026-09-04 13:41:51 | 48.57449 | 11.27743 | 55° | 40km/h | 950m | -4.8m/s | 23.9°C | 39.8% | 913.5hPa | 2.7V | 00:00:00 | 03:12:32 | 00:00:00 | |
| DO3MHA-12 | 2026-09-04 13:41:50 | 48.57443 | 11.27730 | 57° | 44km/h | 955m | -4.8m/s | 23.8°C | 39.7% | 913.0hPa | 2.7V | 00:00:00 | 03:12:31 | 00:00:00 | |
| DO3MHA-11 | 2026-09-04 13:41:49 | 48.57437 | 11.27716 | 61° | 46km/h | 960m | -4.9m/s | 23.8°C | 39.7% | 912.6hPa | 2.7V | 00:00:00 | 03:12:30 | 00:00:00 | |
| DO3MHA-12 | 2026-09-04 13:41:48 | 48.57432 | 11.27701 | 65° | 47km/h | 964m | -4.7m/s | 23.7°C | 40.0% | 911.9hPa | 2.7V | 00:00:00 | 03:12:29 | 00:00:00 | |
| DO3MHA-11 | 2026-09-04 13:41:47 | 48.57427 | 11.27684 | 69° | 47km/h | 969m | -4.7m/s | 23.7°C | 40.0% | 911.4hPa | 2.7V | 00:00:00 | 03:12:28 | 00:00:00 | |
| DO3MHA-12 | 2026-09-04 13:41:46 | 48.57423 | 11.27667 | 73° | 46km/h | 974m | -4.8m/s | 23.7°C | 40.0% | 910.9hPa | 2.7V | 00:00:00 | 03:12:27 | 00:00:00 | |
| DO3MHA-11 | 2026-09-04 13:41:45 | 48.57420 | 11.27650 | 77° | 44km/h | 979m | -4.9m/s | 23.7°C | 39.8% | 910.3hPa | 2.7V | 00:00:00 | 03:12:26 | 00:00:00 | |
| DO3MHA-12 | 2026-09-04 13:41:44 | 48.57418 | 11.27634 | 81° | 42km/h | 984m | -4.7m/s | 23.7°C | 39.6% | 909.9hPa | 2.7V | 00:00:00 | 03:12:25 | 00:00:00 | |
| DO3MHA-11 | 2026-09-04 13:41:43 | 48.57416 | 11.27618 | 84° | 38km/h | 988m | -4.7m/s | 23.7°C | 39.7% | 909.4hPa | 2.7V | 00:00:00 | 03:12:24 | 00:00:00 | |
| DO3MHA-12 | 2026-09-04 13:41:42 | 48.57415 | 11.27603 | 84° | 33km/h | 993m | -4.7m/s | 23.7°C | 39.6% | 908.9hPa | 2.7V | 00:00:00 | 03:12:23 | 00:00:00 | |
| DO3MHA-11 | 2026-09-04 13:41:41 | 48.57414 | 11.27591 | 82° | 29km/h | 998m | -4.7m/s | 23.6°C | 39.6% | 908.4hPa | 2.7V | 00:00:00 | 03:12:22 | 00:00:00 | |
| DO3MHA-12 | 2026-09-04 13:41:40 | 48.57413 | 11.27580 | 78° | 27km/h | 1002m | -4.8m/s | 23.5°C | 40.0% | 907.8hPa | 2.7V | 00:00:00 | 03:12:21 | 00:00:00 | |
| DO3MHA-11 | 2026-09-04 13:41:39 | 48.57411 | 11.27570 | 72° | 27km/h | 1007m | -4.7m/s | 23.5°C | 40.1% | 907.4hPa | 2.7V | 07:15:00 | 03:12:20 | 00:00:00 | |
| DO3MHA-12 | 2026-09-04 13:41:38 | 48.57408 | 11.27560 | 66° | 27km/h | 1012m | -4.6m/s | 23.4°C | 40.3% | 906.9hPa | 2.7V | 07:15:00 | 03:12:19 | 00:00:00 | |
| DO3MHA-11 | 2026-09-04 13:41:37 | 48.57405 | 11.27551 | 58° | 31km/h | 1017m | -4.7m/s | 23.3°C | 40.6% | 906.4hPa | 2.7V | 00:00:00 | 03:12:18 | 00:00:00 | |
| DO3MHA-12 | 2026-09-04 13:41:36 | 48.57401 | 11.27541 | 54° | 37km/h | 1021m | -4.3m/s | 23.2°C | 41.0% | 905.9hPa | 2.7V | 00:00:00 | 03:12:17 | 00:00:00 | |
| DO3MHA-11 | 2026-09-04 13:41:35 | 48.57395 | 11.27529 | 56° | 42km/h | 1026m | -4.4m/s | 23.2°C | 41.1% | 905.5hPa | 2.7V | 00:00:00 | 03:12:16 | 00:00:00 | |
| DO3MHA-12 | 2026-09-04 13:41:34 | 48.57389 | 11.27516 | 60° | 44km/h | 1030m | -4.6m/s | 23.1°C | 41.4% | 905.0hPa | 2.7V | 00:00:00 | 03:12:15 | 00:00:00 | |
| DO3MHA-11 | 2026-09-04 13:41:33 | 48.57384 | 11.27501 | 64° | 44km/h | 1035m | -4.5m/s | 23.1°C | 41.1% | 904.5hPa | 2.7V | 00:00:00 | 03:12:14 | 00:00:00 | |
| DO3MHA-12 | 2026-09-04 13:41:32 | 48.57380 | 11.27486 | 68° | 44km/h | 1039m | -4.5m/s | 23.1°C | 41.1% | 904.0hPa | 2.7V | 00:00:00 | 03:12:13 | 00:00:00 | |
| DO3MHA-11 | 2026-09-04 13:41:31 | 48.57376 | 11.27470 | 73° | 42km/h | 1044m | -4.7m/s | 23.1°C | 40.9% | 903.7hPa | 2.7V | 00:00:00 | 03:12:12 | 00:00:00 | |
| DO3MHA-12 | 2026-09-04 13:41:30 | 48.57373 | 11.27454 | 77° | 42km/h | 1049m | -4.8m/s | 23.1°C | 40.8% | 903.2hPa | 2.7V | 00:00:00 | 03:12:11 | 00:00:00 | |
| DO3MHA-11 | 2026-09-04 13:41:29 | 48.57371 | 11.27438 | 80° | 42km/h | 1053m | -4.6m/s | 23.0°C | 40.9% | 902.5hPa | 2.7V | 00:00:00 | 03:12:10 | 00:00:00 | |
| DO3MHA-12 | 2026-09-04 13:41:28 | 48.57369 | 11.27423 | 83° | 40km/h | 1058m | -4.9m/s | 23.0°C | 40.8% | 902.1hPa | 2.7V | 00:00:00 | 03:12:09 | 00:00:00 | |
| DO3MHA-11 | 2026-09-04 13:41:27 | 48.57368 | 11.27408 | 85° | 37km/h | 1063m | -4.9m/s | 23.0°C | 40.9% | 901.7hPa | 2.7V | 00:00:00 | 03:12:08 | 00:00:00 | |
| DO3MHA-12 | 2026-09-04 13:41:26 | 48.57367 | 11.27394 | 85° | 33km/h | 1068m | -4.8m/s | 22.9°C | 41.0% | 901.0hPa | 2.7V | 00:00:00 | 03:12:07 | 00:00:00 | |
| DO3MHA-11 | 2026-09-04 13:41:25 | 48.57366 | 11.27381 | 84° | 31km/h | 1073m | -5.0m/s | 22.9°C | 41.1% | 900.6hPa | 2.7V | 00:00:00 | 03:12:06 | 00:00:00 | |
| DO3MHA-12 | 2026-09-04 13:41:24 | 48.57365 | 11.27370 | 82° | 27km/h | 1078m | -5.2m/s | 22.8°C | 41.4% | 900.0hPa | 2.7V | 00:00:00 | 03:12:05 | 00:00:00 | |
| DO3MHA-11 | 2026-09-04 13:41:23 | 48.57364 | 11.27360 | 75° | 27km/h | 1083m | -5.1m/s | 22.8°C | 41.5% | 899.4hPa | 2.7V | 07:16:00 | 03:12:04 | 00:00:00 | |
| DO3MHA-12 | 2026-09-04 13:41:22 | 48.57361 | 11.27350 | 66° | 27km/h | 1088m | -5.0m/s | 22.7°C | 41.7% | 898.8hPa | 2.7V | 07:16:00 | 03:12:03 | 00:00:00 | |
| DO3MHA-11 | 2026-09-04 13:41:21 | 48.57358 | 11.27340 | 59° | 31km/h | 1093m | -4.8m/s | 22.6°C | 41.8% | 898.6hPa | 2.7V | 00:00:00 | 03:12:02 | 00:00:00 | |
| DO3MHA-12 | 2026-09-04 13:41:20 | 48.57354 | 11.27330 | 56° | 37km/h | 1098m | -4.6m/s | 22.6°C | 42.2% | 898.0hPa | 2.7V | 00:00:00 | 03:12:01 | 00:00:00 | |
| DO3MHA-11 | 2026-09-04 13:41:19 | 48.57349 | 11.27319 | 57° | 42km/h | 1103m | -4.7m/s | 22.5°C | 42.4% | 897.4hPa | 2.7V | 00:00:00 | 03:12:00 | 00:00:00 | |
| DO3MHA-12 | 2026-09-04 13:41:18 | 48.57343 | 11.27306 | 60° | 44km/h | 1108m | -4.7m/s | 22.5°C | 42.2% | 897.0hPa | 2.7V | 00:00:00 | 03:11:59 | 00:00:00 | |
| DO3MHA-11 | 2026-09-04 13:41:17 | 48.57338 | 11.27291 | 64° | 46km/h | 1113m | -4.8m/s | 22.4°C | 42.3% | 896.3hPa | 2.7V | 00:00:00 | 03:11:58 | 00:00:00 | |
| DO3MHA-12 | 2026-09-04 13:41:16 | 48.57333 | 11.27275 | 68° | 47km/h | 1117m | -5.0m/s | 22.4°C | 42.2% | 896.0hPa | 2.7V | 00:00:00 | 03:11:57 | 00:00:00 | |
| DO3MHA-11 | 2026-09-04 13:41:15 | 48.57329 | 11.27258 | 72° | 47km/h | 1123m | -4.9m/s | 22.4°C | 42.3% | 895.3hPa | 2.7V | 00:00:00 | 03:11:56 | 00:00:00 | |
| DO3MHA-12 | 2026-09-04 13:41:14 | 48.57325 | 11.27240 | 78° | 44km/h | 1127m | -5.0m/s | 22.4°C | 42.2% | 894.8hPa | 2.7V | 00:00:00 | 03:11:55 | 00:00:00 | |
| DO3MHA-11 | 2026-09-04 13:41:13 | 48.57323 | 11.27224 | 83° | 42km/h | 1132m | -4.9m/s | 22.4°C | 42.2% | 894.2hPa | 2.7V | 00:00:00 | 03:11:54 | 00:00:00 | |
| DO3MHA-12 | 2026-09-04 13:41:12 | 48.57322 | 11.27208 | 87° | 38km/h | 1137m | -4.8m/s | 22.3°C | 42.1% | 893.9hPa | 2.7V | 00:00:00 | 03:11:53 | 00:00:00 | |
| DO3MHA-11 | 2026-09-04 13:41:11 | 48.57322 | 11.27194 | 88° | 35km/h | 1142m | -4.8m/s | 22.3°C | 42.2% | 893.4hPa | 2.7V | 00:00:00 | 03:11:52 | 00:00:00 | |
| DO3MHA-12 | 2026-09-04 13:41:10 | 48.57321 | 11.27180 | 88° | 33km/h | 1147m | -4.9m/s | 22.3°C | 42.1% | 893.0hPa | 2.7V | 00:00:00 | 03:11:51 | 00:00:00 | |
| DO3MHA-11 | 2026-09-04 13:41:09 | 48.57321 | 11.27168 | 84° | 31km/h | 1152m | -4.5m/s | 22.2°C | 42.3% | 892.5hPa | 2.7V | 00:00:00 | 03:11:50 | 00:00:00 | |
| DO3MHA-12 | 2026-09-04 13:41:08 | 48.57320 | 11.27156 | 78° | 29km/h | 1156m | -4.4m/s | 22.2°C | 42.3% | 891.7hPa | 2.7V | 00:00:00 | 03:11:49 | 00:00:00 | |
| DO3MHA-11 | 2026-09-04 13:41:07 | 48.57318 | 11.27146 | 71° | 29km/h | 1161m | -4.3m/s | 22.1°C | 42.5% | 891.4hPa | 2.7V | 07:16:00 | 03:11:48 | 00:00:00 | |
| DO3MHA-12 | 2026-09-04 13:41:06 | 48.57315 | 11.27135 | 65° | 31km/h | 1165m | -4.1m/s | 22.1°C | 42.7% | 891.1hPa | 2.7V | 07:16:00 | 03:11:47 | 00:00:00 | |
| DO3MHA-11 | 2026-09-04 13:41:05 | 48.57312 | 11.27125 | 63° | 33km/h | 1169m | -4.3m/s | 22.1°C | 42.7% | 890.7hPa | 2.7V | 00:00:00 | 03:11:46 | 00:00:00 | |
| DO3MHA-12 | 2026-09-04 13:41:04 | 48.57308 | 11.27114 | 62° | 35km/h | 1174m | -4.5m/s | 22.1°C | 42.6% | 890.2hPa | 2.7V | 00:00:00 | 03:11:45 | 00:00:00 | |
| DO3MHA-11 | 2026-09-04 13:41:03 | 48.57303 | 11.27102 | 61° | 37km/h | 1178m | -4.6m/s | 22.0°C | 42.7% | 889.8hPa | 2.7V | 00:00:00 | 03:11:44 | 00:00:00 | |
| DO3MHA-12 | 2026-09-04 13:41:02 | 48.57299 | 11.27090 | 62° | 38km/h | 1183m | -4.2m/s | 21.9°C | 43.0% | 889.1hPa | 2.7V | 00:00:00 | 03:11:43 | 00:00:00 | |
| DO3MHA-11 | 2026-09-04 13:41:01 | 48.57294 | 11.27077 | 65° | 40km/h | 1187m | -4.2m/s | 22.0°C | 42.9% | 888.9hPa | 2.7V | 00:00:00 | 03:11:42 | 00:00:00 | |
| DO3MHA-12 | 2026-09-04 13:41:00 | 48.57290 | 11.27063 | 67° | 42km/h | 1191m | -4.1m/s | 21.9°C | 43.0% | 888.4hPa | 2.7V | 00:00:00 | 03:11:41 | 00:00:00 | |
| DO3MHA-11 | 2026-09-04 13:40:59 | 48.57286 | 11.27048 | 71° | 42km/h | 1195m | -4.5m/s | 21.9°C | 43.2% | 888.1hPa | 2.7V | 00:00:00 | 03:11:40 | 00:00:00 | |
| DO3MHA-12 | 2026-09-04 13:40:58 | 48.57283 | 11.27033 | 74° | 42km/h | 1200m | -4.5m/s | 21.9°C | 43.2% | 887.6hPa | 2.7V | 00:00:00 | 03:11:39 | 00:00:00 | |
| DO3MHA-11 | 2026-09-04 13:40:57 | 48.57280 | 11.27017 | 75° | 44km/h | 1205m | -4.7m/s | 21.8°C | 43.4% | 887.1hPa | 2.7V | 00:00:00 | 03:11:38 | 00:00:00 | |
| DO3MHA-12 | 2026-09-04 13:40:56 | 48.57277 | 11.27001 | 71° | 44km/h | 1210m | -5.0m/s | 21.7°C | 43.6% | 886.5hPa | 2.7V | 00:00:00 | 03:11:37 | 00:00:00 | |
| DO3MHA-11 | 2026-09-04 13:40:55 | 48.57273 | 11.26986 | 67° | 46km/h | 1215m | -5.2m/s | 21.6°C | 43.7% | 886.1hPa | 2.7V | 00:00:00 | 03:11:36 | 00:00:00 | |
| DO3MHA-12 | 2026-09-04 13:40:54 | 48.57268 | 11.26970 | 68° | 47km/h | 1220m | -5.3m/s | 21.6°C | 43.8% | 885.5hPa | 2.7V | 00:00:00 | 03:11:35 | 00:00:00 | |
| DO3MHA-11 | 2026-09-04 13:40:53 | 48.57264 | 11.26953 | 73° | 47km/h | 1225m | -4.8m/s | 21.5°C | 44.1% | 884.9hPa | 2.7V | 00:00:00 | 03:11:34 | 00:00:00 | |
| DO3MHA-12 | 2026-09-04 13:40:52 | 48.57261 | 11.26936 | 79° | 46km/h | 1230m | -4.7m/s | 21.5°C | 44.2% | 884.5hPa | 2.7V | 00:00:00 | 03:11:33 | 00:00:00 | |
| DO3MHA-11 | 2026-09-04 13:40:51 | 48.57259 | 11.26918 | 86° | 42km/h | 1235m | -4.8m/s | 21.5°C | 44.2% | 884.0hPa | 2.7V | 07:16:00 | 03:11:32 | 00:00:00 | |
| DO3MHA-12 | 2026-09-04 13:40:50 | 48.57259 | 11.26902 | 90° | 38km/h | 1240m | -4.8m/s | 21.4°C | 44.2% | 883.7hPa | 2.7V | 07:16:00 | 03:11:31 | 00:00:00 | |
| DO3MHA-12 | 2026-09-04 13:40:48 | 48.57259 | 11.26875 | 91° | 33km/h | 1249m | -4.8m/s | 21.4°C | 44.2% | 882.5hPa | 2.7V | 00:00:00 | 03:11:29 | 00:00:00 | |
| DO3MHA-11 | 2026-09-04 13:40:47 | 48.57259 | 11.26862 | 89° | 31km/h | 1255m | -5.2m/s | 21.3°C | 44.2% | 881.8hPa | 2.7V | 00:00:00 | 03:11:28 | 00:00:00 | |
| NBG1-10 | 2026-09-04 13:40:46 | 48.57259 | 11.26851 | 88° | 29km/h | 1260m | -5.1m/s | 21.3°C | 44.2% | 881.3hPa | 2.7V | 07:16:00 | 03:11:27 | 00:00:00 | |
| DO3MHA-12 | 2026-09-04 13:40:46 | 48.57259 | 11.26851 | 88° | 29km/h | 1260m | -5.1m/s | 21.3°C | 44.2% | 881.3hPa | 2.7V | 00:00:00 | 03:11:27 | 00:00:00 | |
| DO3MHA-11 | 2026-09-04 13:40:45 | 48.57258 | 11.26840 | 87° | 29km/h | 1265m | -5.2m/s | 21.2°C | 44.4% | 880.8hPa | 2.7V | 00:00:00 | 03:11:26 | 00:00:00 | |
| DO3MHA-12 | 2026-09-04 13:40:44 | 48.57258 | 11.26828 | 84° | 29km/h | 1270m | -5.2m/s | 21.2°C | 44.7% | 880.2hPa | 2.7V | 00:00:00 | 03:11:25 | 00:00:00 | |
| DO3MHA-11 | 2026-09-04 13:40:43 | 48.57257 | 11.26817 | 83° | 27km/h | 1275m | -5.3m/s | 21.1°C | 44.7% | 879.8hPa | 2.7V | 00:00:00 | 03:11:24 | 00:00:00 | |
| DO3MHA-12 | 2026-09-04 13:40:42 | 48.57256 | 11.26807 | 80° | 27km/h | 1281m | -5.2m/s | 21.1°C | 44.7% | 879.3hPa | 2.7V | 00:00:00 | 03:11:23 | 00:00:00 | |
| DO3MHA-11 | 2026-09-04 13:40:41 | 48.57254 | 11.26797 | 74° | 27km/h | 1286m | -5.0m/s | 21.0°C | 44.8% | 878.8hPa | 2.7V | 00:00:00 | 03:11:22 | 00:00:00 | |
| DO3MHA-12 | 2026-09-04 13:40:40 | 48.57252 | 11.26786 | 68° | 31km/h | 1291m | -5.1m/s | 21.0°C | 45.1% | 878.3hPa | 2.7V | 00:00:00 | 03:11:21 | 00:00:00 | |
| DO3MHA-11 | 2026-09-04 13:40:39 | 48.57249 | 11.26776 | 65° | 35km/h | 1296m | -5.1m/s | 20.9°C | 45.3% | 877.8hPa | 2.7V | 00:00:00 | 03:11:20 | 00:00:00 | |
| NBG1-10 | 2026-09-04 13:40:38 | 48.57245 | 11.26764 | 66° | 44km/h | 1301m | -5.0m/s | 20.8°C | 45.7% | 877.3hPa | 2.7V | 00:00:00 | 03:11:19 | 00:00:00 | |
| DO3MHA-12 | 2026-09-04 13:40:38 | 48.57245 | 11.26764 | 66° | 40km/h | 1301m | -5.0m/s | 20.8°C | 45.7% | 877.3hPa | 2.7V | 00:00:00 | 03:11:19 | 00:00:00 | |
| DO3MHA-11 | 2026-09-04 13:40:37 | 48.57241 | 11.26750 | 68° | 44km/h | 1306m | -5.0m/s | 20.7°C | 45.7% | 876.6hPa | 2.7V | 00:00:00 | 03:11:18 | 00:00:00 | |
| DO3MHA-12 | 2026-09-04 13:40:36 | 48.57237 | 11.26735 | 72° | 46km/h | 1312m | -4.9m/s | 20.6°C | 45.7% | 876.0hPa | 2.7V | 00:00:00 | 03:11:17 | 00:00:00 | |
| DO3MHA-11 | 2026-09-04 13:40:35 | 48.57234 | 11.26718 | 76° | 47km/h | 1316m | -4.9m/s | 20.6°C | 45.9% | 875.6hPa | 2.7V | 07:17:00 | 03:11:16 | 00:00:00 | |
| DO3MHA-12 | 2026-09-04 13:40:34 | 48.57231 | 11.26700 | 80° | 47km/h | 1321m | -4.7m/s | 20.6°C | 45.9% | 875.2hPa | 2.7V | 07:17:00 | 03:11:15 | 00:00:00 | |
| DO3MHA-11 | 2026-09-04 13:40:33 | 48.57229 | 11.26682 | 83° | 46km/h | 1326m | -4.7m/s | 20.5°C | 45.8% | 874.6hPa | 2.7V | 00:00:00 | 03:11:14 | 00:00:00 | |
| DO3MHA-12 | 2026-09-04 13:40:32 | 48.57228 | 11.26664 | 87° | 44km/h | 1331m | -4.6m/s | 20.5°C | 45.9% | 874.2hPa | 2.7V | 00:00:00 | 03:11:13 | 00:00:00 | |
| NBG1-10 | 2026-09-04 13:40:31 | 48.57227 | 11.26647 | 89° | 33km/h | 1335m | -4.6m/s | 20.5°C | 46.0% | 873.6hPa | 2.7V | 00:00:00 | 03:11:12 | 00:00:00 | |
| DO3MHA-11 | 2026-09-04 13:40:31 | 48.57227 | 11.26647 | 89° | 42km/h | 1335m | -4.6m/s | 20.5°C | 46.0% | 873.6hPa | 2.7V | 00:00:00 | 03:11:12 | 00:00:00 | |
| DO3MHA-12 | 2026-09-04 13:40:30 | 48.57227 | 11.26631 | 91° | 40km/h | 1340m | -4.6m/s | 20.4°C | 46.1% | 873.2hPa | 2.7V | 00:00:00 | 03:11:11 | 00:00:00 | |
| DO3MHA-11 | 2026-09-04 13:40:29 | 48.57228 | 11.26616 | 92° | 37km/h | 1345m | -4.6m/s | 20.4°C | 46.3% | 872.7hPa | 2.7V | 00:00:00 | 03:11:10 | 00:00:00 | |
| DO3MHA-12 | 2026-09-04 13:40:28 | 48.57228 | 11.26602 | 91° | 33km/h | 1349m | -4.4m/s | 20.4°C | 46.4% | 872.3hPa | 2.7V | 00:00:00 | 03:11:09 | 00:00:00 | |
| DO3MHA-11 | 2026-09-04 13:40:27 | 48.57228 | 11.26590 | 89° | 31km/h | 1354m | -4.5m/s | 20.3°C | 46.5% | 871.9hPa | 2.7V | 00:00:00 | 03:11:08 | 00:00:00 | |
| DO3MHA-12 | 2026-09-04 13:40:26 | 48.57227 | 11.26578 | 87° | 29km/h | 1359m | -5.2m/s | 20.3°C | 46.6% | 871.4hPa | 2.7V | 00:00:00 | 03:11:07 | 00:00:00 | |
| DO3MHA-11 | 2026-09-04 13:40:25 | 48.57227 | 11.26567 | 82° | 29km/h | 1364m | -4.5m/s | 20.2°C | 46.7% | 870.9hPa | 2.7V | 00:00:00 | 03:11:06 | 00:00:00 | |
| DO3MHA-12 | 2026-09-04 13:40:24 | 48.57225 | 11.26556 | 76° | 29km/h | 1369m | -5.0m/s | 20.2°C | 46.7% | 870.4hPa | 2.7V | 00:00:00 | 03:11:05 | 00:00:00 | |
| NBG1-10 | 2026-09-04 13:40:23 | 48.57223 | 11.26545 | 72° | 38km/h | 1373m | -4.7m/s | 20.1°C | 46.8% | 869.8hPa | 2.7V | 00:00:00 | 03:11:04 | 00:00:00 | |
| DO3MHA-11 | 2026-09-04 13:40:23 | 48.57223 | 11.26545 | 72° | 31km/h | 1373m | -4.7m/s | 20.1°C | 46.8% | 869.8hPa | 2.7V | 00:00:00 | 03:11:04 | 00:00:00 | |
| DO3MHA-12 | 2026-09-04 13:40:22 | 48.57220 | 11.26534 | 67° | 35km/h | 1378m | -4.7m/s | 20.1°C | 46.5% | 869.4hPa | 2.7V | 00:00:00 | 03:11:03 | 00:00:00 | |
| DO3MHA-11 | 2026-09-04 13:40:21 | 48.57216 | 11.26522 | 64° | 37km/h | 1383m | -4.7m/s | 20.0°C | 46.9% | 868.9hPa | 2.7V | 00:00:00 | 03:11:02 | 00:00:00 | |
| DO3MHA-12 | 2026-09-04 13:40:20 | 48.57212 | 11.26510 | 65° | 38km/h | 1388m | -4.9m/s | 20.0°C | 46.8% | 868.3hPa | 2.7V | 00:00:00 | 03:11:01 | 00:00:00 | |
| DO3MHA-11 | 2026-09-04 13:40:19 | 48.57208 | 11.26496 | 69° | 42km/h | 1393m | -4.8m/s | 19.9°C | 46.8% | 868.0hPa | 2.7V | 07:17:00 | 03:11:00 | 00:00:00 | |
| DO3MHA-12 | 2026-09-04 13:40:18 | 48.57205 | 11.26481 | 75° | 44km/h | 1397m | -4.5m/s | 19.9°C | 46.5% | 867.5hPa | 2.7V | 07:17:00 | 03:10:59 | 00:00:00 | |
| DO3MHA-11 | 2026-09-04 13:40:17 | 48.57203 | 11.26464 | 82° | 46km/h | 1402m | -4.6m/s | 19.9°C | 46.7% | 867.0hPa | 2.7V | 00:00:00 | 03:10:58 | 00:00:00 | |
| NBG1-10 | 2026-09-04 13:40:16 | 48.57202 | 11.26447 | 89° | 31km/h | 1407m | -4.9m/s | 19.9°C | 46.7% | 866.5hPa | 2.7V | 00:00:00 | 03:10:57 | 00:00:00 | |
| DO3MHA-12 | 2026-09-04 13:40:16 | 48.57202 | 11.26447 | 89° | 44km/h | 1407m | -4.9m/s | 19.9°C | 46.7% | 866.5hPa | 2.7V | 00:00:00 | 03:10:57 | 00:00:00 | |
| DO3MHA-11 | 2026-09-04 13:40:15 | 48.57202 | 11.26430 | 94° | 42km/h | 1412m | -5.0m/s | 19.8°C | 46.6% | 866.0hPa | 2.7V | 00:00:00 | 03:10:56 | 00:00:00 | |
| DO3MHA-12 | 2026-09-04 13:40:14 | 48.57203 | 11.26415 | 99° | 38km/h | 1417m | -5.0m/s | 19.8°C | 46.8% | 865.5hPa | 2.7V | 00:00:00 | 03:10:55 | 00:00:00 | |
| DO3MHA-11 | 2026-09-04 13:40:13 | 48.57205 | 11.26400 | 101° | 35km/h | 1422m | -4.6m/s | 19.8°C | 47.8% | 865.0hPa | 2.7V | 00:00:00 | 03:10:54 | 00:00:00 | |
| DO3MHA-12 | 2026-09-04 13:40:12 | 48.57206 | 11.26388 | 101° | 29km/h | 1426m | -4.4m/s | 19.7°C | 48.0% | 864.6hPa | 2.7V | 00:00:00 | 03:10:53 | 00:00:00 | |
| DO3MHA-11 | 2026-09-04 13:40:11 | 48.57208 | 11.26377 | 99° | 26km/h | 1431m | -4.6m/s | 19.6°C | 48.7% | 863.9hPa | 2.7V | 00:00:00 | 03:10:52 | 00:00:00 | |
| DO3MHA-12 | 2026-09-04 13:40:10 | 48.57208 | 11.26367 | 93° | 24km/h | 1435m | -4.9m/s | 19.6°C | 48.7% | 863.5hPa | 2.7V | 00:00:00 | 03:10:51 | 00:00:00 | |
| DO3MHA-11 | 2026-09-04 13:40:09 | 48.57208 | 11.26358 | 85° | 22km/h | 1440m | -5.1m/s | 19.5°C | 48.9% | 863.2hPa | 2.7V | 00:00:00 | 03:10:50 | 00:00:00 | |
| NBG1-10 | 2026-09-04 13:40:08 | 48.57207 | 11.26350 | 76° | 33km/h | 1446m | -5.0m/s | 19.4°C | 49.2% | 862.6hPa | 2.7V | 00:00:00 | 03:10:49 | 00:00:00 | |
| DO3MHA-12 | 2026-09-04 13:40:08 | 48.57207 | 11.26350 | 76° | 24km/h | 1446m | -5.0m/s | 19.4°C | 49.2% | 862.6hPa | 2.7V | 00:00:00 | 03:10:49 | 00:00:00 | |
| DO3MHA-11 | 2026-09-04 13:40:07 | 48.57205 | 11.26341 | 69° | 26km/h | 1450m | -4.2m/s | 19.4°C | 49.1% | 862.1hPa | 2.7V | 00:00:00 | 03:10:48 | 00:00:00 | |
| DO3MHA-12 | 2026-09-04 13:40:06 | 48.57203 | 11.26332 | 66° | 31km/h | 1454m | -3.6m/s | 19.4°C | 49.0% | 861.9hPa | 2.7V | 00:00:00 | 03:10:47 | 00:00:00 | |
| DO3MHA-11 | 2026-09-04 13:40:05 | 48.57200 | 11.26322 | 68° | 35km/h | 1458m | -3.6m/s | 19.4°C | 49.2% | 861.5hPa | 2.7V | 00:00:00 | 03:10:46 | 00:00:00 | |
| DO3MHA-12 | 2026-09-04 13:40:04 | 48.57197 | 11.26309 | 76° | 37km/h | 1461m | -3.2m/s | 19.3°C | 49.4% | 861.2hPa | 2.7V | 00:00:00 | 03:10:45 | 00:00:00 | |
| DO3MHA-11 | 2026-09-04 13:40:03 | 48.57195 | 11.26295 | 85° | 38km/h | 1465m | -3.0m/s | 19.3°C | 49.3% | 860.7hPa | 2.7V | 07:17:00 | 03:10:44 | 00:00:00 | |
| DO3MHA-12 | 2026-09-04 13:40:02 | 48.57195 | 11.26281 | 91° | 38km/h | 1468m | -3.5m/s | 19.2°C | 49.4% | 860.6hPa | 2.7V | 07:17:00 | 03:10:43 | 00:00:00 | |
| DO3MHA-11 | 2026-09-04 13:40:01 | 48.57195 | 11.26266 | 94° | 40km/h | 1471m | -3.6m/s | 19.1°C | 49.8% | 860.2hPa | 2.7V | 00:00:00 | 03:10:42 | 00:00:00 | |
| NBG1-10 | 2026-09-04 13:40:01 | 48.57195 | 11.26266 | 94° | 37km/h | 1471m | -3.6m/s | 19.1°C | 49.8% | 860.2hPa | 2.7V | 00:00:00 | 03:10:42 | 00:00:00 | |
| DO3MHA-12 | 2026-09-04 13:40:00 | 48.57196 | 11.26251 | 96° | 40km/h | 1475m | -3.4m/s | 19.1°C | 49.8% | 859.8hPa | 2.7V | 00:00:00 | 03:10:41 | 00:00:00 | |
| DO3MHA-11 | 2026-09-04 13:39:58 | 48.57199 | 11.26221 | 100° | 38km/h | 1482m | -3.6m/s | 19.2°C | 49.3% | 858.9hPa | 2.7V | 00:00:00 | 03:10:39 | 00:00:00 | |
| DO3MHA-12 | 2026-09-04 13:39:58 | 48.57199 | 11.26221 | 100° | 38km/h | 1482m | -3.6m/s | 19.2°C | 49.3% | 858.9hPa | 2.7V | 00:00:00 | 03:10:39 | 00:00:00 | |
| DO3MHA-12 | 2026-09-04 13:39:56 | 48.57202 | 11.26195 | 102° | 29km/h | 1490m | -3.3m/s | 19.2°C | 49.1% | 858.0hPa | 2.7V | 00:00:00 | 03:10:37 | 00:00:00 | |
| DO3MHA-11 | 2026-09-04 13:39:56 | 48.57202 | 11.26195 | 102° | 29km/h | 1490m | -3.3m/s | 19.2°C | 49.1% | 858.0hPa | 2.7V | 00:00:00 | 03:10:37 | 00:00:00 | |
| DO3MHA-11 | 2026-09-04 13:39:54 | 48.57203 | 11.26174 | 82° | 26km/h | 1496m | -2.9m/s | 19.1°C | 49.1% | 857.6hPa | 2.7V | 00:00:00 | 03:10:35 | 00:00:00 | |
| DO3MHA-12 | 2026-09-04 13:39:54 | 48.57203 | 11.26174 | 82° | 26km/h | 1496m | -2.9m/s | 19.1°C | 49.1% | 857.6hPa | 2.7V | 00:00:00 | 03:10:35 | 00:00:00 | |
| NBG1-10 | 2026-09-04 13:39:54 | 48.57203 | 11.26174 | 82° | 35km/h | 1496m | -2.9m/s | 19.1°C | 49.1% | 857.6hPa | 2.7V | 00:00:00 | 03:10:35 | 00:00:00 | |
| DO3MHA-11 | 2026-09-04 13:39:52 | 48.57199 | 11.26153 | 71° | 38km/h | 1502m | -3.4m/s | 19.0°C | 49.0% | 856.9hPa | 2.7V | 00:00:00 | 03:10:33 | 00:00:00 | |
| DO3MHA-12 | 2026-09-04 13:39:52 | 48.57199 | 11.26153 | 71° | 38km/h | 1502m | -3.4m/s | 19.0°C | 49.0% | 856.9hPa | 2.7V | 00:00:00 | 03:10:33 | 00:00:00 | |
| NBG1-10 | 2026-09-04 13:39:47 | 48.57188 | 11.26080 | 86° | 35km/h | 1518m | -3.4m/s | 18.8°C | 48.8% | 855.3hPa | 2.7V | 07:17:00 | 03:10:28 | 00:00:00 | |
| DO3MHA-11 | 2026-09-04 13:39:47 | 48.57188 | 11.26080 | 86° | 40km/h | 1518m | -3.4m/s | 18.8°C | 48.8% | 855.3hPa | 2.7V | 00:00:00 | 03:10:28 | 00:00:00 | |
| DO3MHA-12 | 2026-09-04 13:39:47 | 48.57188 | 11.26080 | 86° | 40km/h | 1518m | -3.4m/s | 18.8°C | 48.8% | 855.3hPa | 2.7V | 00:00:00 | 03:10:28 | 00:00:00 | |
| DO3MHA-11 | 2026-09-04 13:39:37 | 48.57184 | 11.25950 | 78° | 31km/h | 1550m | -2.9m/s | 18.6°C | 49.8% | 852.1hPa | 2.7V | 07:18:00 | 03:10:18 | 00:00:00 | |
| DO3MHA-12 | 2026-09-04 13:39:37 | 48.57184 | 11.25950 | 78° | 31km/h | 1550m | -2.9m/s | 18.6°C | 49.8% | 852.1hPa | 2.7V | 07:18:00 | 03:10:18 | 00:00:00 | |
| DO3MHA-11 | 2026-09-04 13:39:32 | 48.57172 | 11.25893 | 70° | 38km/h | 1567m | -3.5m/s | 18.2°C | 51.2% | 850.5hPa | 2.7V | 00:00:00 | 03:10:13 | 00:00:00 | |
| DO3MHA-12 | 2026-09-04 13:39:32 | 48.57172 | 11.25893 | 70° | 38km/h | 1567m | -3.5m/s | 18.2°C | 51.2% | 850.5hPa | 2.7V | 00:00:00 | 03:10:13 | 00:00:00 | |
| DO3MHA-11 | 2026-09-04 13:39:27 | 48.57155 | 11.25825 | 68° | 44km/h | 1584m | -3.8m/s | 18.0°C | 52.4% | 848.9hPa | 2.7V | 00:00:00 | 03:10:08 | 00:00:00 | |
| DO3MHA-12 | 2026-09-04 13:39:27 | 48.57155 | 11.25825 | 68° | 44km/h | 1584m | -3.8m/s | 18.0°C | 52.4% | 848.9hPa | 2.7V | 00:00:00 | 03:10:08 | 00:00:00 | |
| NBG1-10 | 2026-09-04 13:39:25 | 48.57148 | 11.25795 | 73° | 38km/h | 1592m | -3.4m/s | 17.9°C | 53.1% | 848.0hPa | 2.7V | 00:00:00 | 03:10:06 | 00:00:00 | |
| DO3MHA-11 | 2026-09-04 13:39:22 | 48.57142 | 11.25744 | 86° | 42km/h | 1602m | -3.6m/s | 17.8°C | 53.0% | 846.9hPa | 2.7V | 00:00:00 | 03:10:03 | 00:00:00 | |
| DO3MHA-12 | 2026-09-04 13:39:22 | 48.57142 | 11.25744 | 86° | 42km/h | 1602m | -3.6m/s | 17.8°C | 53.0% | 846.9hPa | 2.7V | 00:00:00 | 03:10:03 | 00:00:00 | |
| DO3MHA-11 | 2026-09-04 13:39:17 | 48.57144 | 11.25667 | 93° | 31km/h | 1619m | -3.1m/s | 17.8°C | 52.9% | 845.3hPa | 2.7V | 00:00:00 | 03:09:58 | 00:00:00 | |
| DO3MHA-12 | 2026-09-04 13:39:17 | 48.57144 | 11.25667 | 93° | 31km/h | 1619m | -3.1m/s | 17.8°C | 52.9% | 845.3hPa | 2.7V | 00:00:00 | 03:09:58 | 00:00:00 | |
| DL6DJ-15 | 2026-09-04 13:39:16 | 48.57142 | 11.25645 | 74° | 27km/h | 1626m | -3.7m/s | 17.8°C | 52.3% | 844.7hPa | 2.7V | 00:00:00 | 00:00:00 | 00:00:00 | |
| DB0NH | 2026-09-04 13:39:12 | 48.57133 | 11.25608 | 70° | 37km/h | 1635m | -2.7m/s | 17.8°C | 51.1% | 843.7hPa | 2.7V | 00:00:00 | 03:09:53 | 00:00:00 | |
| DO3MHA-11 | 2026-09-04 13:39:12 | 48.57133 | 11.25608 | 70° | 40km/h | 1635m | -2.7m/s | 17.8°C | 51.1% | 843.7hPa | 2.7V | 00:00:00 | 03:09:53 | 00:00:00 | |
| DO3MHA-12 | 2026-09-04 13:39:12 | 48.57133 | 11.25608 | 70° | 40km/h | 1635m | -2.7m/s | 17.8°C | 51.1% | 843.7hPa | 2.7V | 00:00:00 | 03:09:53 | 00:00:00 | |
| DO3MHA-11 | 2026-09-04 13:39:07 | 48.57115 | 11.25537 | 69° | 33km/h | 1650m | -3.0m/s | 17.6°C | 51.5% | 842.1hPa | 2.7V | 00:00:00 | 03:09:48 | 00:00:00 | |
| DO3MHA-12 | 2026-09-04 13:39:07 | 48.57115 | 11.25537 | 69° | 33km/h | 1650m | -3.0m/s | 17.6°C | 51.5% | 842.1hPa | 2.7V | 00:00:00 | 03:09:48 | 00:00:00 | |
| NBG1-10 | 2026-09-04 13:39:03 | 48.57105 | 11.25490 | 80° | 40km/h | 1662m | -2.7m/s | 17.6°C | 51.6% | 841.1hPa | 2.7V | 00:00:00 | 03:09:44 | 00:00:00 | |
| DB0NH | 2026-09-04 13:39:02 | 48.57104 | 11.25478 | 86° | 44km/h | 1665m | -2.9m/s | 17.5°C | 52.4% | 840.8hPa | 2.7V | 07:18:00 | 03:09:43 | 00:00:00 | |
| DO3MHA-11 | 2026-09-04 13:39:02 | 48.57104 | 11.25478 | 86° | 40km/h | 1665m | -2.9m/s | 17.5°C | 52.4% | 840.8hPa | 2.7V | 00:00:00 | 03:09:43 | 00:00:00 | |
| DO3MHA-12 | 2026-09-04 13:39:02 | 48.57104 | 11.25478 | 86° | 40km/h | 1665m | -2.9m/s | 17.5°C | 52.4% | 840.8hPa | 2.7V | 00:00:00 | 03:09:43 | 00:00:00 | |
| DL6DJ-15 | 2026-09-04 13:38:44 | 48.57069 | 11.25205 | 90° | 38km/h | 1715m | -2.8m/s | 17.2°C | 51.6% | 835.9hPa | 2.7V | 00:00:00 | 00:00:00 | 00:00:00 | |
| DB0NH | 2026-09-04 13:38:42 | 48.57069 | 11.25173 | 89° | 47km/h | 1721m | -2.9m/s | 17.2°C | 50.9% | 835.4hPa | 2.7V | 00:00:00 | 03:09:23 | 00:00:00 | |
| DO3MHA-11 | 2026-09-04 13:38:42 | 48.57069 | 11.25173 | 89° | 49km/h | 1721m | -2.9m/s | 17.2°C | 50.9% | 835.4hPa | 2.7V | 00:00:00 | 03:09:23 | 00:00:00 | |
| DO3MHA-12 | 2026-09-04 13:38:42 | 48.57069 | 11.25173 | 89° | 49km/h | 1721m | -2.9m/s | 17.2°C | 50.9% | 835.4hPa | 2.7V | 00:00:00 | 03:09:23 | 00:00:00 | |
| DO3MHA-12 | 2026-09-04 13:38:37 | 48.57061 | 11.25079 | 76° | 46km/h | 1736m | -3.1m/s | 17.0°C | 50.3% | 833.7hPa | 2.7V | 00:00:00 | 03:09:18 | 00:00:00 | |
| DO3MHA-11 | 2026-09-04 13:38:37 | 48.57061 | 11.25079 | 76° | 46km/h | 1736m | -3.1m/s | 17.0°C | 50.3% | 833.7hPa | 2.7V | 00:00:00 | 03:09:18 | 00:00:00 | |
| DO3MHA-11 | 2026-09-04 13:38:32 | 48.57041 | 11.24999 | 71° | 35km/h | 1752m | -3.2m/s | 16.9°C | 50.1% | 832.2hPa | 2.7V | 00:00:00 | 03:09:13 | 00:00:00 | |
| DO3MHA-12 | 2026-09-04 13:38:32 | 48.57041 | 11.24999 | 71° | 35km/h | 1752m | -3.2m/s | 16.9°C | 50.1% | 832.2hPa | 2.7V | 00:00:00 | 03:09:13 | 00:00:00 | |
| DB0NH | 2026-09-04 13:38:32 | 48.57041 | 11.24999 | 71° | 37km/h | 1752m | -3.2m/s | 16.9°C | 50.1% | 832.2hPa | 2.7V | 00:00:00 | 03:09:13 | 00:00:00 | |
| DO3MHA-11 | 2026-09-04 13:38:27 | 48.57033 | 11.24936 | 88° | 40km/h | 1768m | -3.2m/s | 16.9°C | 49.8% | 830.6hPa | 2.7V | 00:00:00 | 03:09:08 | 00:00:00 | |
| DO3MHA-12 | 2026-09-04 13:38:27 | 48.57033 | 11.24936 | 88° | 40km/h | 1768m | -3.2m/s | 16.9°C | 49.8% | 830.6hPa | 2.7V | 00:00:00 | 03:09:08 | 00:00:00 | |
| DB0NH | 2026-09-04 13:38:22 | 48.57033 | 11.24858 | 85° | 40km/h | 1785m | -3.2m/s | 16.7°C | 50.3% | 829.2hPa | 2.7V | 00:00:00 | 03:09:03 | 00:00:00 | |
| DO3MHA-12 | 2026-09-04 13:38:22 | 48.57033 | 11.24858 | 85° | 47km/h | 1785m | -3.2m/s | 16.7°C | 50.3% | 829.2hPa | 2.7V | 00:00:00 | 03:09:03 | 00:00:00 | |
| DO3MHA-11 | 2026-09-04 13:38:22 | 48.57033 | 11.24858 | 85° | 47km/h | 1785m | -3.2m/s | 16.7°C | 50.3% | 829.2hPa | 2.7V | 00:00:00 | 03:09:03 | 00:00:00 | |
| NBG1-10 | 2026-09-04 13:38:19 | 48.57024 | 11.24804 | 68° | 40km/h | 1795m | -3.3m/s | 16.5°C | 50.6% | 828.2hPa | 2.7V | 00:00:00 | 03:09:00 | 00:00:00 | |
| DO3MHA-11 | 2026-09-04 13:38:17 | 48.57014 | 11.24774 | 63° | 35km/h | 1802m | -3.5m/s | 16.5°C | 51.1% | 827.5hPa | 2.7V | 07:19:00 | 03:08:58 | 00:00:00 | |
| DO3MHA-12 | 2026-09-04 13:38:17 | 48.57014 | 11.24774 | 63° | 35km/h | 1802m | -3.5m/s | 16.5°C | 51.1% | 827.5hPa | 2.7V | 07:19:00 | 03:08:58 | 00:00:00 | |
| DL6DJ-15 | 2026-09-04 13:38:13 | 48.57004 | 11.24725 | 88° | 31km/h | 1815m | -3.3m/s | 16.5°C | 50.1% | 826.1hPa | 2.7V | 00:00:00 | 00:00:00 | 00:00:00 | |
| DB0NH | 2026-09-04 13:38:12 | 48.57004 | 11.24712 | 92° | 46km/h | 1818m | -3.4m/s | 16.5°C | 50.8% | 825.8hPa | 2.7V | 00:00:00 | 03:08:53 | 00:00:00 | |
| DO3MHA-11 | 2026-09-04 13:38:12 | 48.57004 | 11.24712 | 92° | 44km/h | 1818m | -3.4m/s | 16.5°C | 50.8% | 825.8hPa | 2.7V | 00:00:00 | 03:08:53 | 00:00:00 | |
| DO3MHA-12 | 2026-09-04 13:38:12 | 48.57004 | 11.24712 | 92° | 44km/h | 1818m | -3.4m/s | 16.5°C | 50.8% | 825.8hPa | 2.7V | 00:00:00 | 03:08:53 | 00:00:00 | |
| DO3MHA-11 | 2026-09-04 13:38:07 | 48.57004 | 11.24627 | 82° | 49km/h | 1836m | -3.3m/s | 16.2°C | 51.5% | 824.1hPa | 2.7V | 00:00:00 | 03:08:48 | 00:00:00 | |
| DO3MHA-12 | 2026-09-04 13:38:07 | 48.57004 | 11.24627 | 82° | 49km/h | 1836m | -3.3m/s | 16.2°C | 51.5% | 824.1hPa | 2.7V | 00:00:00 | 03:08:48 | 00:00:00 | |
| DB0NH | 2026-09-04 13:38:02 | 48.56985 | 11.24543 | 71° | 42km/h | 1852m | -3.0m/s | 16.1°C | 51.6% | 822.5hPa | 2.7V | 00:00:00 | 03:08:43 | 00:00:00 | |
| DO3MHA-11 | 2026-09-04 13:38:02 | 48.56985 | 11.24543 | 71° | 35km/h | 1852m | -3.0m/s | 16.1°C | 51.6% | 822.5hPa | 2.7V | 00:00:00 | 03:08:43 | 00:00:00 | |
| DO3MHA-12 | 2026-09-04 13:38:02 | 48.56985 | 11.24543 | 71° | 35km/h | 1852m | -3.0m/s | 16.1°C | 51.6% | 822.5hPa | 2.7V | 00:00:00 | 03:08:43 | 00:00:00 | |
| DO3MHA-11 | 2026-09-04 13:37:57 | 48.56983 | 11.24477 | 94° | 49km/h | 1868m | -3.1m/s | 16.1°C | 50.4% | 821.0hPa | 2.7V | 00:00:00 | 03:08:38 | 00:00:00 | |
| DO3MHA-12 | 2026-09-04 13:37:57 | 48.56983 | 11.24477 | 94° | 49km/h | 1868m | -3.1m/s | 16.1°C | 50.4% | 821.0hPa | 2.7V | 00:00:00 | 03:08:38 | 00:00:00 | |
| NBG1-10 | 2026-09-04 13:37:57 | 48.56983 | 11.24477 | 94° | 49km/h | 1868m | -3.1m/s | 16.1°C | 50.4% | 821.0hPa | 2.7V | 00:00:00 | 03:08:38 | 00:00:00 | |
| DO3MHA-11 | 2026-09-04 13:37:52 | 48.56975 | 11.24385 | 76° | 47km/h | 1884m | -3.2m/s | 16.0°C | 50.3% | 819.6hPa | 2.7V | 00:00:00 | 03:08:33 | 00:00:00 | |
| DB0NH | 2026-09-04 13:37:52 | 48.56975 | 11.24385 | 76° | 46km/h | 1884m | -3.2m/s | 16.0°C | 50.3% | 819.6hPa | 2.7V | 00:00:00 | 03:08:33 | 00:00:00 | |
| DO3MHA-12 | 2026-09-04 13:37:52 | 48.56975 | 11.24385 | 76° | 47km/h | 1884m | -3.2m/s | 16.0°C | 50.3% | 819.6hPa | 2.7V | 00:00:00 | 03:08:33 | 00:00:00 | |
| DO3MHA-11 | 2026-09-04 13:37:47 | 48.56957 | 11.24300 | 72° | 44km/h | 1901m | -3.9m/s | 16.2°C | 48.3% | 817.9hPa | 2.7V | 00:00:00 | 03:08:28 | 00:00:00 | |
| DO3MHA-12 | 2026-09-04 13:37:47 | 48.56957 | 11.24300 | 72° | 44km/h | 1901m | -3.9m/s | 16.2°C | 48.3% | 817.9hPa | 2.7V | 00:00:00 | 03:08:28 | 00:00:00 | |
| DL6DJ-15 | 2026-09-04 13:37:42 | 48.56950 | 11.24217 | 91° | 47km/h | 1921m | -4.2m/s | 16.3°C | 46.8% | 816.0hPa | 2.7V | 00:00:00 | 00:00:00 | 00:00:00 | |
| DB0NH | 2026-09-04 13:37:42 | 48.56950 | 11.24217 | 92° | 57km/h | 1921m | -4.1m/s | 16.2°C | 47.2% | 815.9hPa | 2.7V | 07:19:00 | 03:08:23 | 00:00:00 | |
| DO3MHA-12 | 2026-09-04 13:37:42 | 48.56950 | 11.24217 | 92° | 53km/h | 1921m | -4.1m/s | 16.2°C | 47.2% | 815.9hPa | 2.7V | 00:00:00 | 03:08:23 | 00:00:00 | |
| DO3MHA-11 | 2026-09-04 13:37:42 | 48.56950 | 11.24217 | 92° | 53km/h | 1921m | -4.1m/s | 16.2°C | 47.2% | 815.9hPa | 2.7V | 00:00:00 | 03:08:23 | 00:00:00 | |
| DO3MHA-11 | 2026-09-04 13:37:37 | 48.56952 | 11.24115 | 91° | 62km/h | 1941m | -3.6m/s | 16.1°C | 47.1% | 813.9hPa | 2.7V | 07:20:00 | 03:08:18 | 00:00:00 | |
| DO3MHA-12 | 2026-09-04 13:37:37 | 48.56952 | 11.24115 | 91° | 62km/h | 1941m | -3.6m/s | 16.1°C | 47.1% | 813.9hPa | 2.7V | 07:20:00 | 03:08:18 | 00:00:00 | |
| NBG1-10 | 2026-09-04 13:37:35 | 48.56951 | 11.24068 | 86° | 57km/h | 1949m | -3.6m/s | 16.0°C | 47.2% | 813.1hPa | 2.7V | 00:00:00 | 03:08:16 | 00:00:00 | |
| DB0NH | 2026-09-04 13:37:32 | 48.56943 | 11.23998 | 76° | 55km/h | 1960m | -3.6m/s | 16.1°C | 46.3% | 812.1hPa | 2.7V | 00:00:00 | 03:08:13 | 00:00:00 | |
| DO3MHA-11 | 2026-09-04 13:37:32 | 48.56943 | 11.23998 | 76° | 53km/h | 1960m | -3.6m/s | 16.1°C | 46.3% | 812.1hPa | 2.7V | 00:00:00 | 03:08:13 | 00:00:00 | |
| DO3MHA-12 | 2026-09-04 13:37:32 | 48.56943 | 11.23998 | 76° | 53km/h | 1960m | -3.6m/s | 16.1°C | 46.3% | 812.1hPa | 2.7V | 00:00:00 | 03:08:13 | 00:00:00 | |
| DO3MHA-12 | 2026-09-04 13:37:27 | 48.56927 | 11.23903 | 86° | 55km/h | 1979m | -3.9m/s | 16.2°C | 45.0% | 810.4hPa | 2.7V | 00:00:00 | 03:08:08 | 00:00:00 | |
| DO3MHA-11 | 2026-09-04 13:37:27 | 48.56927 | 11.23903 | 86° | 55km/h | 1979m | -3.9m/s | 16.2°C | 45.0% | 810.4hPa | 2.7V | 00:00:00 | 03:08:08 | 00:00:00 | |
| DB0NH | 2026-09-04 13:37:22 | 48.56928 | 11.23794 | 89° | 57km/h | 1998m | -3.5m/s | 16.2°C | 44.4% | 808.6hPa | 2.7V | 00:00:00 | 03:08:03 | 00:00:00 | |
| DO3MHA-11 | 2026-09-04 13:37:22 | 48.56928 | 11.23794 | 89° | 66km/h | 1998m | -3.5m/s | 16.2°C | 44.4% | 808.6hPa | 2.7V | 00:00:00 | 03:08:03 | 00:00:00 | |
| DO3MHA-12 | 2026-09-04 13:37:22 | 48.56928 | 11.23794 | 89° | 64km/h | 1998m | -3.5m/s | 16.2°C | 44.4% | 808.6hPa | 2.7V | 00:00:00 | 03:08:03 | 00:00:00 | |
| DO3MHA-12 | 2026-09-04 13:37:17 | 48.56915 | 11.23677 | 77° | 53km/h | 2016m | -3.4m/s | 16.2°C | 43.6% | 807.0hPa | 2.7V | 00:00:00 | 03:07:58 | 00:00:00 | |
| NBG1-10 | 2026-09-04 13:37:13 | 48.56902 | 11.23598 | 78° | 60km/h | 2030m | -3.5m/s | 16.1°C | 44.0% | 805.6hPa | 2.7V | 00:00:00 | 03:07:54 | 00:00:00 | |
| DO3MHA-12 | 2026-09-04 13:37:12 | 48.56899 | 11.23579 | 81° | 53km/h | 2034m | -3.5m/s | 16.1°C | 43.9% | 805.2hPa | 2.7V | 00:00:00 | 03:07:53 | 00:00:00 | |
| DL6DJ-15 | 2026-09-04 13:37:11 | 48.56897 | 11.23560 | 83° | 49km/h | 2037m | -3.5m/s | 16.1°C | 43.6% | 804.9hPa | 2.7V | 00:00:00 | 00:00:00 | 00:00:00 | |
| DO3MHA-12 | 2026-09-04 13:37:07 | 48.56895 | 11.23479 | 91° | 62km/h | 2052m | -3.6m/s | 16.0°C | 43.6% | 803.5hPa | 2.7V | 00:00:00 | 03:07:48 | 00:00:00 | |
| DB0NH | 2026-09-04 13:37:03 | 48.56895 | 11.23384 | 88° | 64km/h | 2066m | -3.6m/s | 15.9°C | 43.9% | 802.1hPa | 2.7V | 00:00:00 | 03:07:44 | 00:00:00 | |
| DO3MHA-12 | 2026-09-04 13:37:02 | 48.56894 | 11.23359 | 86° | 69km/h | 2070m | -3.4m/s | 15.8°C | 44.0% | 801.6hPa | 2.7V | 00:00:00 | 03:07:43 | 00:00:00 | |
| DO3MHA-11 | 2026-09-04 13:36:57 | 48.56879 | 11.23228 | 75° | 62km/h | 2088m | -3.8m/s | 16.0°C | 41.8% | 800.0hPa | 2.7V | 07:20:00 | 03:07:38 | 00:00:00 | |
| DO3MHA-12 | 2026-09-04 13:36:56 | 48.56874 | 11.23203 | 74° | 58km/h | 2091m | -3.7m/s | 15.9°C | 42.2% | 799.7hPa | 2.7V | 07:20:00 | 03:07:37 | 00:00:00 | |
| DO3MHA-11 | 2026-09-04 13:36:52 | 48.56858 | 11.23118 | 79° | 58km/h | 2106m | -3.6m/s | 15.9°C | 42.1% | 798.3hPa | 2.7V | 00:00:00 | 03:07:33 | 00:00:00 | |
| DO3MHA-12 | 2026-09-04 13:36:51 | 48.56856 | 11.23098 | 83° | 58km/h | 2110m | -3.5m/s | 15.9°C | 42.2% | 797.9hPa | 2.7V | 00:00:00 | 03:07:32 | 00:00:00 | |
| DO3MHA-11 | 2026-09-04 13:36:47 | 48.56852 | 11.23006 | 89° | 68km/h | 2123m | -3.9m/s | 15.8°C | 42.1% | 796.6hPa | 2.7V | 00:00:00 | 03:07:28 | 00:00:00 | |
| DO3MHA-12 | 2026-09-04 13:36:46 | 48.56851 | 11.22981 | 88° | 69km/h | 2128m | -4.1m/s | 15.8°C | 42.1% | 796.4hPa | 2.7V | 00:00:00 | 03:07:27 | 00:00:00 | |
| DB0NH | 2026-09-04 13:36:43 | 48.56846 | 11.22903 | 81° | 66km/h | 2139m | -3.8m/s | 15.7°C | 42.1% | 795.1hPa | 2.7V | 00:00:00 | 03:07:24 | 00:00:00 | |
| DO3MHA-11 | 2026-09-04 13:36:42 | 48.56842 | 11.22876 | 79° | 71km/h | 2143m | -3.9m/s | 15.6°C | 42.1% | 794.8hPa | 2.7V | 00:00:00 | 03:07:23 | 00:00:00 | |
| DO3MHA-12 | 2026-09-04 13:36:41 | 48.56838 | 11.22849 | 77° | 69km/h | 2147m | -3.7m/s | 15.6°C | 42.1% | 794.5hPa | 2.7V | 00:00:00 | 03:07:22 | 00:00:00 | |
| DL6DJ-15 | 2026-09-04 13:36:40 | 48.56834 | 11.22823 | 74° | 71km/h | 2151m | -3.6m/s | 15.6°C | 41.7% | 794.2hPa | 2.7V | 00:00:00 | 00:00:00 | 00:00:00 | |
| DO3MHA-11 | 2026-09-04 13:36:37 | 48.56818 | 11.22747 | 70° | 58km/h | 2162m | -3.4m/s | 15.5°C | 42.3% | 793.0hPa | 2.7V | 00:00:00 | 03:07:18 | 00:00:00 | |
| DO3MHA-12 | 2026-09-04 13:36:36 | 48.56812 | 11.22725 | 69° | 57km/h | 2165m | -3.5m/s | 15.5°C | 42.1% | 792.8hPa | 2.7V | 00:00:00 | 03:07:17 | 00:00:00 | |
| DO3MHA-11 | 2026-09-04 13:36:32 | 48.56798 | 11.22642 | 86° | 64km/h | 2179m | -3.6m/s | 15.4°C | 42.2% | 791.5hPa | 2.7V | 00:00:00 | 03:07:13 | 00:00:00 | |
| DO3MHA-12 | 2026-09-04 13:36:31 | 48.56797 | 11.22620 | 88° | 68km/h | 2182m | -3.3m/s | 15.3°C | 42.8% | 791.2hPa | 2.7V | 00:00:00 | 03:07:12 | 00:00:00 | |
| NBG1-10 | 2026-09-04 13:36:29 | 48.56795 | 11.22571 | 85° | 64km/h | 2188m | -2.8m/s | 15.2°C | 43.0% | 790.7hPa | 2.7V | 00:00:00 | 03:07:10 | 00:00:00 | |
| DO3MHA-11 | 2026-09-04 13:36:27 | 48.56791 | 11.22517 | 82° | 71km/h | 2195m | -3.7m/s | 15.1°C | 43.3% | 790.1hPa | 2.7V | 00:00:00 | 03:07:08 | 00:00:00 | |
| DO3MHA-12 | 2026-09-04 13:36:26 | 48.56788 | 11.22489 | 81° | 69km/h | 2199m | -3.4m/s | 15.2°C | 42.8% | 789.6hPa | 2.7V | 00:00:00 | 03:07:07 | 00:00:00 | |
| DB0NH | 2026-09-04 13:36:23 | 48.56777 | 11.22410 | 75° | 62km/h | 2209m | -3.4m/s | 15.1°C | 43.1% | 788.9hPa | 2.7V | 00:00:00 | 03:07:04 | 00:00:00 | |
| DO3MHA-11 | 2026-09-04 13:36:22 | 48.56772 | 11.22385 | 75° | 66km/h | 2212m | -3.5m/s | 15.1°C | 43.1% | 788.4hPa | 2.7V | 00:00:00 | 03:07:03 | 00:00:00 | |
| DO3MHA-12 | 2026-09-04 13:36:21 | 48.56767 | 11.22360 | 73° | 66km/h | 2216m | -3.6m/s | 15.0°C | 43.3% | 788.2hPa | 2.7V | 00:00:00 | 03:07:02 | 00:00:00 | |
| DO3MHA-11 | 2026-09-04 13:36:17 | 48.56747 | 11.22265 | 73° | 57km/h | 2230m | -3.4m/s | 14.9°C | 43.5% | 786.8hPa | 2.7V | 07:21:00 | 03:06:58 | 00:00:00 | |
| DO3MHA-12 | 2026-09-04 13:36:16 | 48.56742 | 11.22244 | 74° | 57km/h | 2233m | -3.3m/s | 14.9°C | 43.7% | 786.4hPa | 2.7V | 07:21:00 | 03:06:57 | 00:00:00 | |
| DO3MHA-11 | 2026-09-04 13:36:12 | 48.56731 | 11.22160 | 84° | 58km/h | 2246m | -3.4m/s | 14.7°C | 44.1% | 785.2hPa | 2.7V | 00:00:00 | 03:06:53 | 00:00:00 | |
| DO3MHA-12 | 2026-09-04 13:36:11 | 48.56730 | 11.22138 | 85° | 60km/h | 2250m | -3.6m/s | 14.6°C | 44.4% | 785.1hPa | 2.7V | 00:00:00 | 03:06:52 | 00:00:00 | |
| DL6DJ-15 | 2026-09-04 13:36:09 | 48.56728 | 11.22094 | 86° | 58km/h | 2256m | -3.3m/s | 14.6°C | 44.1% | 784.3hPa | 2.7V | 00:00:00 | 00:00:00 | 00:00:00 | |
| NBG1-10 | 2026-09-04 13:36:07 | 48.56727 | 11.22048 | 90° | 68km/h | 2263m | -3.2m/s | 14.5°C | 44.7% | 783.7hPa | 2.7V | 00:00:00 | 03:06:48 | 00:00:00 | |
| DO3MHA-12 | 2026-09-04 13:36:06 | 48.56727 | 11.22023 | 90° | 69km/h | 2267m | -3.4m/s | 14.6°C | 44.4% | 783.4hPa | 2.7V | 00:00:00 | 03:06:47 | 00:00:00 | |
| DB0NH | 2026-09-04 13:36:03 | 48.56726 | 11.21945 | 88° | 68km/h | 2277m | -3.5m/s | 14.4°C | 45.0% | 782.3hPa | 2.7V | 00:00:00 | 03:06:44 | 00:00:00 | |
| DO3MHA-11 | 2026-09-04 13:36:02 | 48.56725 | 11.21918 | 87° | 73km/h | 2280m | -3.5m/s | 14.4°C | 44.6% | 782.1hPa | 2.7V | 00:00:00 | 03:06:43 | 00:00:00 | |
| DO3MHA-12 | 2026-09-04 13:36:01 | 48.56723 | 11.21890 | 84° | 73km/h | 2284m | -3.3m/s | 14.4°C | 44.7% | 781.8hPa | 2.7V | 00:00:00 | 03:06:42 | 00:00:00 | |
| DO3MHA-11 | 2026-09-04 13:35:57 | 48.56712 | 11.21781 | 80° | 69km/h | 2297m | -3.3m/s | 14.3°C | 44.5% | 780.6hPa | 2.7V | 00:00:00 | 03:06:38 | 00:00:00 | |
| DO3MHA-12 | 2026-09-04 13:35:56 | 48.56708 | 11.21754 | 80° | 69km/h | 2300m | -3.4m/s | 14.3°C | 44.5% | 780.3hPa | 2.7V | 00:00:00 | 03:06:37 | 00:00:00 | |
| DO3MHA-11 | 2026-09-04 13:35:52 | 48.56694 | 11.21651 | 77° | 64km/h | 2313m | -3.3m/s | 14.2°C | 43.8% | 779.1hPa | 2.7V | 00:00:00 | 03:06:33 | 00:00:00 | |
| DO3MHA-12 | 2026-09-04 13:35:51 | 48.56690 | 11.21626 | 76° | 64km/h | 2316m | -3.2m/s | 14.2°C | 43.7% | 778.8hPa | 2.7V | 00:00:00 | 03:06:32 | 00:00:00 | |
| DO3MHA-11 | 2026-09-04 13:35:47 | 48.56677 | 11.21532 | 83° | 60km/h | 2330m | -3.1m/s | 14.3°C | 43.3% | 777.5hPa | 2.7V | 00:00:00 | 03:06:28 | 00:00:00 | |
| DO3MHA-12 | 2026-09-04 13:35:46 | 48.56675 | 11.21509 | 86° | 62km/h | 2333m | -3.1m/s | 14.3°C | 43.2% | 777.2hPa | 2.7V | 00:00:00 | 03:06:27 | 00:00:00 | |
| NBG1-10 | 2026-09-04 13:35:45 | 48.56674 | 11.21486 | 87° | 69km/h | 2336m | -3.2m/s | 14.3°C | 43.8% | 777.0hPa | 2.7V | 00:00:00 | 03:06:26 | 00:00:00 | |
| DB0NH | 2026-09-04 13:35:43 | 48.56672 | 11.21439 | 88° | 71km/h | 2342m | -3.1m/s | 14.2°C | 44.4% | 776.3hPa | 2.7V | 00:00:00 | 03:06:24 | 00:00:00 | |
| DO3MHA-11 | 2026-09-04 13:35:42 | 48.56671 | 11.21415 | 88° | 64km/h | 2346m | -3.1m/s | 14.2°C | 44.5% | 776.0hPa | 2.7V | 00:00:00 | 03:06:23 | 00:00:00 | |
| DO3MHA-12 | 2026-09-04 13:35:41 | 48.56671 | 11.21391 | 89° | 66km/h | 2349m | -3.0m/s | 14.2°C | 44.8% | 775.8hPa | 2.7V | 00:00:00 | 03:06:22 | 00:00:00 | |
| DL6DJ-15 | 2026-09-04 13:35:38 | 48.56670 | 11.21317 | 90° | 64km/h | 2358m | -3.3m/s | 14.2°C | 44.7% | 774.9hPa | 2.7V | 00:00:00 | 00:00:00 | 00:00:00 | |
| DO3MHA-11 | 2026-09-04 13:35:37 | 48.56671 | 11.21292 | 91° | 69km/h | 2362m | -3.1m/s | 14.2°C | 45.0% | 774.7hPa | 2.7V | 07:22:00 | 03:06:18 | 00:00:00 | |
| DO3MHA-12 | 2026-09-04 13:35:36 | 48.56671 | 11.21266 | 92° | 69km/h | 2365m | -3.0m/s | 14.2°C | 44.7% | 774.5hPa | 2.7V | 07:22:00 | 03:06:17 | 00:00:00 | |
| DO3MHA-11 | 2026-09-04 13:35:32 | 48.56672 | 11.21160 | 90° | 75km/h | 2377m | -3.0m/s | 14.0°C | 45.0% | 773.3hPa | 2.7V | 00:00:00 | 03:06:13 | 00:00:00 | |
| DO3MHA-12 | 2026-09-04 13:35:31 | 48.56672 | 11.21131 | 89° | 77km/h | 2380m | -2.9m/s | 14.0°C | 44.9% | 773.1hPa | 2.7V | 00:00:00 | 03:06:12 | 00:00:00 | |
| DO3MHA-11 | 2026-09-04 13:35:27 | 48.56668 | 11.21015 | 85° | 77km/h | 2391m | -3.0m/s | 14.0°C | 45.4% | 771.8hPa | 2.7V | 00:00:00 | 03:06:08 | 00:00:00 | |
| DO3MHA-12 | 2026-09-04 13:35:26 | 48.56665 | 11.20985 | 83° | 75km/h | 2395m | -3.0m/s | 14.0°C | 45.8% | 771.7hPa | 2.7V | 00:00:00 | 03:06:07 | 00:00:00 | |
| NBG1-10 | 2026-09-04 13:35:23 | 48.56655 | 11.20899 | 78° | 69km/h | 2404m | -2.9m/s | 13.9°C | 47.3% | 770.8hPa | 2.7V | 00:00:00 | 03:06:04 | 00:00:00 | |
| DO3MHA-11 | 2026-09-04 13:35:22 | 48.56651 | 11.20872 | 78° | 64km/h | 2406m | -2.9m/s | 13.9°C | 47.2% | 770.6hPa | 2.7V | 00:00:00 | 03:06:03 | 00:00:00 | |
| DO3MHA-12 | 2026-09-04 13:35:21 | 48.56647 | 11.20847 | 78° | 62km/h | 2409m | -2.9m/s | 13.9°C | 47.0% | 770.4hPa | 2.7V | 00:00:00 | 03:06:02 | 00:00:00 | |
| DO3MHA-11 | 2026-09-04 13:35:17 | 48.56639 | 11.20754 | 88° | 66km/h | 2421m | -2.7m/s | 13.9°C | 46.9% | 769.2hPa | 2.7V | 00:00:00 | 03:05:58 | 00:00:00 | |
| DO3MHA-12 | 2026-09-04 13:35:16 | 48.56638 | 11.20731 | 90° | 69km/h | 2424m | -2.7m/s | 13.9°C | 46.5% | 769.0hPa | 2.7V | 00:00:00 | 03:05:57 | 00:00:00 | |
| DO3MHA-11 | 2026-09-04 13:35:12 | 48.56638 | 11.20625 | 91° | 75km/h | 2435m | -2.8m/s | 13.9°C | 44.7% | 768.1hPa | 2.7V | 00:00:00 | 03:05:53 | 00:00:00 | |
| DO3MHA-12 | 2026-09-04 13:35:11 | 48.56638 | 11.20598 | 90° | 77km/h | 2438m | -2.7m/s | 13.8°C | 44.7% | 767.7hPa | 2.7V | 00:00:00 | 03:05:52 | 00:00:00 | |
| DO3MHA-11 | 2026-09-04 13:35:07 | 48.56635 | 11.20482 | 85° | 75km/h | 2449m | -2.8m/s | 13.8°C | 44.1% | 766.7hPa | 2.7V | 00:00:00 | 03:05:48 | 00:00:00 | |
| DO3MHA-12 | 2026-09-04 13:35:06 | 48.56633 | 11.20453 | 84° | 75km/h | 2452m | -2.7m/s | 13.7°C | 43.9% | 766.5hPa | 2.7V | 00:00:00 | 03:05:47 | 00:00:00 | |
| DB0NH | 2026-09-04 13:35:03 | 48.56624 | 11.20367 | 79° | 68km/h | 2460m | -2.5m/s | 13.6°C | 44.0% | 765.7hPa | 2.7V | 00:00:00 | 03:05:44 | 00:00:00 | |
| DO3MHA-11 | 2026-09-04 13:35:02 | 48.56620 | 11.20340 | 78° | 66km/h | 2463m | -2.6m/s | 13.6°C | 44.0% | 765.4hPa | 2.7V | 00:00:00 | 03:05:43 | 00:00:00 | |
| NBG1-10 | 2026-09-04 13:35:01 | 48.56616 | 11.20315 | 77° | 69km/h | 2466m | -2.7m/s | 13.6°C | 43.9% | 765.1hPa | 2.7V | 00:00:00 | 03:05:42 | 00:00:00 | |
| DO3MHA-11 | 2026-09-04 13:34:57 | 48.56602 | 11.20220 | 82° | 62km/h | 2477m | -2.6m/s | 13.6°C | 43.8% | 764.1hPa | 2.7V | 07:22:00 | 03:05:38 | 00:00:00 | |
| DO3MHA-12 | 2026-09-04 13:34:56 | 48.56600 | 11.20197 | 86° | 64km/h | 2479m | -2.4m/s | 13.6°C | 43.8% | 763.9hPa | 2.7V | 07:22:00 | 03:05:37 | 00:00:00 | |
| DO3MHA-11 | 2026-09-04 13:34:52 | 48.56600 | 11.20099 | 92° | 69km/h | 2489m | -2.3m/s | 13.6°C | 42.8% | 763.0hPa | 2.7V | 00:00:00 | 03:05:33 | 00:00:00 | |
| DO3MHA-12 | 2026-09-04 13:34:51 | 48.56601 | 11.20073 | 93° | 69km/h | 2491m | -2.4m/s | 13.6°C | 41.9% | 762.8hPa | 2.7V | 00:00:00 | 03:05:32 | 00:00:00 | |
| DO3MHA-11 | 2026-09-04 13:34:47 | 48.56604 | 11.19966 | 92° | 75km/h | 2501m | -2.4m/s | 13.6°C | 39.6% | 761.9hPa | 2.7V | 00:00:00 | 03:05:28 | 00:00:00 | |
| DB0NH | 2026-09-04 13:34:43 | 48.56602 | 11.19851 | 86° | 69km/h | 2512m | -2.7m/s | 13.5°C | 39.2% | 761.1hPa | 2.7V | 00:00:00 | 03:05:24 | 00:00:00 | |
| DO3MHA-11 | 2026-09-04 13:34:42 | 48.56600 | 11.19822 | 85° | 75km/h | 2515m | -2.5m/s | 13.5°C | 39.1% | 760.9hPa | 2.7V | 00:00:00 | 03:05:23 | 00:00:00 | |
| DO3MHA-12 | 2026-09-04 13:34:41 | 48.56598 | 11.19793 | 83° | 73km/h | 2517m | -2.6m/s | 13.4°C | 39.1% | 760.6hPa | 2.7V | 00:00:00 | 03:05:22 | 00:00:00 | |
| NBG1-10 | 2026-09-04 13:34:39 | 48.56592 | 11.19736 | 79° | 69km/h | 2523m | -2.5m/s | 13.4°C | 38.5% | 760.0hPa | 2.7V | 00:00:00 | 03:05:20 | 00:00:00 | |
| DO3MHA-11 | 2026-09-04 13:34:37 | 48.56584 | 11.19684 | 78° | 62km/h | 2528m | -2.8m/s | 13.4°C | 38.8% | 759.6hPa | 2.7V | 00:00:00 | 03:05:18 | 00:00:00 | |
| DO3MHA-12 | 2026-09-04 13:34:36 | 48.56581 | 11.19660 | 79° | 60km/h | 2531m | -2.6m/s | 13.4°C | 38.9% | 759.3hPa | 2.7V | 00:00:00 | 03:05:17 | 00:00:00 | |
| DO3MHA-12 | 2026-09-04 13:34:31 | 48.56574 | 11.19544 | 92° | 68km/h | 2544m | -2.6m/s | 13.3°C | 37.9% | 758.1hPa | 2.7V | 00:00:00 | 03:05:12 | 00:00:00 | |
| DO3MHA-11 | 2026-09-04 13:34:30 | 48.56575 | 11.19520 | 93° | 69km/h | 2546m | -2.5m/s | 13.3°C | 37.5% | 758.0hPa | 2.7V | 00:00:00 | 03:05:11 | 00:00:00 | |
| DO3MHA-12 | 2026-09-04 13:34:26 | 48.56577 | 11.19414 | 91° | 73km/h | 2557m | -2.5m/s | 13.2°C | 37.5% | 757.0hPa | 2.7V | 00:00:00 | 03:05:07 | 00:00:00 | |
| DO3MHA-11 | 2026-09-04 13:34:25 | 48.56577 | 11.19386 | 91° | 73km/h | 2559m | -2.5m/s | 13.2°C | 37.7% | 756.8hPa | 2.7V | 00:00:00 | 03:05:06 | 00:00:00 | |
| DB0NH | 2026-09-04 13:34:23 | 48.56578 | 11.19331 | 93° | 69km/h | 2564m | -2.4m/s | 13.2°C | 37.1% | 756.4hPa | 2.7V | 00:00:00 | 03:05:04 | 00:00:00 | |
| DO3MHA-12 | 2026-09-04 13:34:21 | 48.56580 | 11.19275 | 93° | 77km/h | 2569m | -2.5m/s | 13.2°C | 37.6% | 755.8hPa | 2.7V | 00:00:00 | 03:05:02 | 00:00:00 | |
| DO3MHA-11 | 2026-09-04 13:34:20 | 48.56580 | 11.19246 | 93° | 77km/h | 2571m | -2.5m/s | 13.2°C | 38.0% | 755.6hPa | 2.7V | 00:00:00 | 03:05:01 | 00:00:00 | |
| NBG1-10 | 2026-09-04 13:34:17 | 48.56580 | 11.19158 | 87° | 68km/h | 2579m | -2.5m/s | 13.1°C | 37.2% | 755.0hPa | 2.7V | 00:00:00 | 03:04:58 | 00:00:00 | |
| DO3MHA-12 | 2026-09-04 13:34:16 | 48.56579 | 11.19129 | 85° | 71km/h | 2581m | -2.3m/s | 13.0°C | 37.4% | 754.7hPa | 2.7V | 07:23:00 | 03:04:57 | 00:00:00 | |
| DO3MHA-11 | 2026-09-04 13:34:15 | 48.56577 | 11.19101 | 84° | 69km/h | 2584m | -2.4m/s | 13.1°C | 36.3% | 754.5hPa | 2.7V | 07:23:00 | 03:04:56 | 00:00:00 | |
| DO3MHA-12 | 2026-09-04 13:34:11 | 48.56567 | 11.18997 | 81° | 64km/h | 2594m | -2.4m/s | 13.1°C | 34.6% | 753.7hPa | 2.7V | 00:00:00 | 03:04:52 | 00:00:00 | |
| DO3MHA-11 | 2026-09-04 13:34:10 | 48.56564 | 11.18972 | 82° | 62km/h | 2596m | -2.3m/s | 13.1°C | 33.5% | 753.6hPa | 2.7V | 00:00:00 | 03:04:51 | 00:00:00 | |
| DO3MHA-12 | 2026-09-04 13:34:06 | 48.56559 | 11.18878 | 90° | 62km/h | 2605m | -2.3m/s | 13.1°C | 32.7% | 752.7hPa | 2.7V | 00:00:00 | 03:04:47 | 00:00:00 | |
| DO3MHA-11 | 2026-09-04 13:34:05 | 48.56559 | 11.18855 | 91° | 62km/h | 2608m | -2.3m/s | 13.1°C | 32.2% | 752.5hPa | 2.7V | 00:00:00 | 03:04:46 | 00:00:00 | |
| DB0NH | 2026-09-04 13:34:03 | 48.56560 | 11.18808 | 93° | 69km/h | 2612m | -2.4m/s | 13.0°C | 31.5% | 752.0hPa | 2.7V | 00:00:00 | 03:04:44 | 00:00:00 | |
| DO3MHA-12 | 2026-09-04 13:34:01 | 48.56562 | 11.18759 | 95° | 68km/h | 2618m | -2.6m/s | 13.0°C | 31.3% | 751.6hPa | 2.7V | 00:00:00 | 03:04:42 | 00:00:00 | |
| DO3MHA-11 | 2026-09-04 13:34:00 | 48.56564 | 11.18734 | 95° | 71km/h | 2620m | -2.4m/s | 13.0°C | 31.2% | 751.2hPa | 2.7V | 00:00:00 | 03:04:41 | 00:00:00 | |
| DO3MHA-12 | 2026-09-04 13:33:56 | 48.56569 | 11.18627 | 95° | 75km/h | 2630m | -2.6m/s | 13.0°C | 30.0% | 750.5hPa | 2.7V | 00:00:00 | 03:04:37 | 00:00:00 | |
| NBG1-10 | 2026-09-04 13:33:55 | 48.56570 | 11.18599 | 93° | 68km/h | 2633m | -2.6m/s | 13.0°C | 30.1% | 750.2hPa | 2.7V | 07:23:00 | 03:04:36 | 00:00:00 | |
| DO3MHA-12 | 2026-09-04 13:33:51 | 48.56568 | 11.18484 | 85° | 71km/h | 2643m | -2.5m/s | 12.8°C | 30.3% | 749.3hPa | 2.7V | 00:00:00 | 03:04:32 | 00:00:00 | |
| DO3MHA-11 | 2026-09-04 13:33:50 | 48.56566 | 11.18456 | 84° | 69km/h | 2645m | -2.5m/s | 12.8°C | 30.4% | 749.0hPa | 2.7V | 00:00:00 | 03:04:31 | 00:00:00 | |
| DO3MHA-12 | 2026-09-04 13:33:46 | 48.56556 | 11.18352 | 81° | 62km/h | 2655m | -2.6m/s | 12.7°C | 29.9% | 748.2hPa | 2.7V | 00:00:00 | 03:04:27 | 00:00:00 | |
| DO3MHA-11 | 2026-09-04 13:33:45 | 48.56554 | 11.18327 | 81° | 60km/h | 2658m | -2.7m/s | 12.7°C | 29.8% | 748.0hPa | 2.7V | 00:00:00 | 03:04:26 | 00:00:00 | |
| DB0NH | 2026-09-04 13:33:43 | 48.56549 | 11.18280 | 83° | 68km/h | 2664m | -2.7m/s | 12.7°C | 29.8% | 747.4hPa | 2.7V | 00:00:00 | 03:04:24 | 00:00:00 | |
| DO3MHA-12 | 2026-09-04 13:33:41 | 48.56547 | 11.18236 | 90° | 60km/h | 2669m | -2.5m/s | 12.7°C | 29.8% | 747.0hPa | 2.7V | 00:00:00 | 03:04:22 | 00:00:00 | |
| DO3MHA-11 | 2026-09-04 13:33:40 | 48.56547 | 11.18213 | 92° | 62km/h | 2671m | -2.5m/s | 12.7°C | 29.2% | 746.8hPa | 2.7V | 00:00:00 | 03:04:21 | 00:00:00 | |
| DO3MHA-12 | 2026-09-04 13:33:36 | 48.56553 | 11.18118 | 97° | 69km/h | 2681m | -2.7m/s | 12.7°C | 29.2% | 745.9hPa | 2.7V | 07:24:00 | 03:04:17 | 00:00:00 | |
| DO3MHA-11 | 2026-09-04 13:33:35 | 48.56555 | 11.18092 | 97° | 71km/h | 2684m | -2.6m/s | 12.6°C | 29.4% | 745.7hPa | 2.7V | 07:24:00 | 03:04:16 | 00:00:00 | |
| DL6DJ-15 | 2026-09-04 13:33:34 | 48.56558 | 11.18039 | 93° | 71km/h | 2689m | -2.8m/s | 12.6°C | 29.3% | 745.2hPa | 2.7V | 00:00:00 | 00:00:00 | 00:00:00 | |
| NBG1-10 | 2026-09-04 13:33:33 | 48.56558 | 11.18039 | 94° | 66km/h | 2690m | -2.8m/s | 12.6°C | 29.6% | 745.1hPa | 2.7V | 00:00:00 | 03:04:14 | 00:00:00 | |
| DO3MHA-12 | 2026-09-04 13:33:31 | 48.56559 | 11.17983 | 91° | 73km/h | 2695m | -2.7m/s | 12.5°C | 30.1% | 744.7hPa | 2.7V | 00:00:00 | 03:04:12 | 00:00:00 | |
| DO3MHA-12 | 2026-09-04 13:33:26 | 48.56553 | 11.17845 | 83° | 68km/h | 2708m | -2.8m/s | 12.4°C | 30.8% | 743.6hPa | 2.7V | 00:00:00 | 03:04:07 | 00:00:00 | |
| DO3MHA-11 | 2026-09-04 13:33:25 | 48.56551 | 11.17819 | 83° | 66km/h | 2711m | -2.5m/s | 12.4°C | 30.8% | 743.3hPa | 2.7V | 00:00:00 | 03:04:06 | 00:00:00 | |
| DB0NH | 2026-09-04 13:33:23 | 48.56547 | 11.17768 | 83° | 64km/h | 2716m | -2.8m/s | 12.4°C | 30.7% | 742.8hPa | 2.7V | 00:00:00 | 03:04:04 | 00:00:00 | |
| DO3MHA-12 | 2026-09-04 13:33:21 | 48.56542 | 11.17719 | 83° | 60km/h | 2722m | -2.6m/s | 12.4°C | 30.6% | 742.4hPa | 2.7V | 00:00:00 | 03:04:02 | 00:00:00 | |
| DO3MHA-11 | 2026-09-04 13:33:20 | 48.56541 | 11.17696 | 83° | 58km/h | 2724m | -2.4m/s | 12.3°C | 30.5% | 742.2hPa | 2.7V | 00:00:00 | 03:04:01 | 00:00:00 | |
| DO3MHA-12 | 2026-09-04 13:33:16 | 48.56534 | 11.17608 | 87° | 58km/h | 2735m | -2.7m/s | 12.3°C | 30.7% | 741.2hPa | 2.7V | 00:00:00 | 03:03:57 | 00:00:00 | |
| DO3MHA-11 | 2026-09-04 13:33:15 | 48.56534 | 11.17586 | 91° | 60km/h | 2737m | -2.4m/s | 12.3°C | 30.6% | 741.1hPa | 2.7V | 00:00:00 | 03:03:56 | 00:00:00 | |
| DO3MHA-12 | 2026-09-04 13:33:11 | 48.56538 | 11.17494 | 97° | 69km/h | 2748m | -2.6m/s | 12.2°C | 30.8% | 740.0hPa | 2.7V | 00:00:00 | 03:03:52 | 00:00:00 | |
| DO3MHA-11 | 2026-09-04 13:33:10 | 48.56540 | 11.17470 | 97° | 71km/h | 2751m | -2.7m/s | 12.2°C | 30.8% | 739.9hPa | 2.7V | 00:00:00 | 03:03:51 | 00:00:00 | |
| DO3MHA-12 | 2026-09-04 13:33:06 | 48.56545 | 11.17361 | 91° | 73km/h | 2762m | -2.6m/s | 12.1°C | 30.6% | 738.8hPa | 2.7V | 00:00:00 | 03:03:47 | 00:00:00 | |
| DO3MHA-11 | 2026-09-04 13:33:05 | 48.56544 | 11.17332 | 89° | 71km/h | 2764m | -2.5m/s | 12.1°C | 30.5% | 738.7hPa | 2.7V | 00:00:00 | 03:03:46 | 00:00:00 | |
| DL6DJ-15 | 2026-09-04 13:33:03 | 48.56541 | 11.17251 | 84° | 68km/h | 2772m | -2.6m/s | 12.0°C | 29.3% | 738.0hPa | 2.7V | 00:00:00 | 00:00:00 | 00:00:00 | |
| DO3MHA-12 | 2026-09-04 13:33:01 | 48.56539 | 11.17225 | 84° | 66km/h | 2775m | -2.4m/s | 12.0°C | 30.0% | 737.8hPa | 2.7V | 00:00:00 | 03:03:42 | 00:00:00 | |
| DO3MHA-11 | 2026-09-04 13:33:00 | 48.56537 | 11.17199 | 83° | 62km/h | 2777m | -2.7m/s | 12.0°C | 29.9% | 737.4hPa | 2.7V | 00:00:00 | 03:03:41 | 00:00:00 | |
| DO3MHA-12 | 2026-09-04 13:32:56 | 48.56528 | 11.17102 | 83° | 57km/h | 2789m | -2.8m/s | 11.9°C | 29.6% | 736.5hPa | 2.7V | 07:24:00 | 03:03:37 | 00:00:00 | |
| DO3MHA-11 | 2026-09-04 13:32:54 | 48.56525 | 11.17058 | 87° | 58km/h | 2794m | -2.8m/s | 11.9°C | 29.3% | 736.0hPa | 2.7V | 07:24:00 | 03:03:35 | 00:00:00 | |
| DO3MHA-12 | 2026-09-04 13:32:51 | 48.56525 | 11.16994 | 94° | 60km/h | 2803m | -2.9m/s | 11.8°C | 29.2% | 735.2hPa | 2.7V | 00:00:00 | 03:03:32 | 00:00:00 | |
| NBG1-10 | 2026-09-04 13:32:49 | 48.56529 | 11.16950 | 99° | 64km/h | 2809m | -2.9m/s | 11.8°C | 29.6% | 734.7hPa | 2.7V | 00:00:00 | 03:03:30 | 00:00:00 | |
| DO3MHA-11 | 2026-09-04 13:32:47 | 48.56533 | 11.16903 | 99° | 69km/h | 2815m | -2.9m/s | 11.7°C | 29.6% | 734.2hPa | 2.7V | 00:00:00 | 03:03:28 | 00:00:00 | |
| DO3MHA-12 | 2026-09-04 13:32:46 | 48.56536 | 11.16879 | 99° | 71km/h | 2817m | -2.7m/s | 11.7°C | 29.8% | 734.0hPa | 2.7V | 00:00:00 | 03:03:27 | 00:00:00 | |
| DB0NH | 2026-09-04 13:32:43 | 48.56541 | 11.16798 | 94° | 64km/h | 2825m | -2.7m/s | 11.7°C | 28.7% | 733.1hPa | 2.7V | 07:24:00 | 03:03:24 | 00:00:00 | |
| DO3MHA-11 | 2026-09-04 13:32:42 | 48.56542 | 11.16770 | 92° | 71km/h | 2828m | -2.7m/s | 11.6°C | 28.7% | 732.9hPa | 2.7V | 00:00:00 | 03:03:23 | 00:00:00 | |
| DO3MHA-12 | 2026-09-04 13:32:41 | 48.56542 | 11.16741 | 90° | 71km/h | 2831m | -2.8m/s | 11.6°C | 28.5% | 732.7hPa | 2.7V | 00:00:00 | 03:03:22 | 00:00:00 | |
| DO3MHA-11 | 2026-09-04 13:32:37 | 48.56538 | 11.16633 | 85° | 64km/h | 2843m | -2.7m/s | 11.5°C | 28.2% | 731.8hPa | 2.7V | 00:00:00 | 03:03:18 | 00:00:00 | |
| DO3MHA-12 | 2026-09-04 13:32:36 | 48.56536 | 11.16608 | 84° | 60km/h | 2845m | -2.5m/s | 11.5°C | 28.5% | 731.3hPa | 2.7V | 00:00:00 | 03:03:17 | 00:00:00 | |
| DL6DJ-15 | 2026-09-04 13:32:32 | 48.56528 | 11.16496 | 86° | 55km/h | 2859m | -2.8m/s | 11.5°C | 28.5% | 730.2hPa | 2.7V | 00:00:00 | 00:00:00 | 00:00:00 | |
| DO3MHA-12 | 2026-09-04 13:32:31 | 48.56528 | 11.16495 | 87° | 57km/h | 2860m | -2.8m/s | 11.4°C | 28.9% | 730.2hPa | 2.7V | 00:00:00 | 03:03:12 | 00:00:00 | |
| NBG1-10 | 2026-09-04 13:32:27 | 48.56530 | 11.16409 | 96° | 64km/h | 2871m | -2.7m/s | 11.3°C | 29.8% | 729.2hPa | 2.7V | 00:00:00 | 03:03:08 | 00:00:00 | |
| DO3MHA-12 | 2026-09-04 13:32:26 | 48.56532 | 11.16386 | 97° | 60km/h | 2873m | -2.7m/s | 11.3°C | 29.9% | 729.0hPa | 2.7V | 00:00:00 | 03:03:07 | 00:00:00 | |
| DB0NH | 2026-09-04 13:32:23 | 48.56537 | 11.16317 | 97° | 64km/h | 2882m | -2.8m/s | 11.3°C | 30.3% | 728.3hPa | 2.7V | 00:00:00 | 03:03:04 | 00:00:00 | |
| DO3MHA-11 | 2026-09-04 13:32:22 | 48.56539 | 11.16294 | 98° | 66km/h | 2884m | -2.9m/s | 11.2°C | 30.3% | 728.0hPa | 2.7V | 00:00:00 | 03:03:03 | 00:00:00 | |
| DO3MHA-12 | 2026-09-04 13:32:21 | 48.56541 | 11.16271 | 99° | 66km/h | 2887m | -2.8m/s | 11.2°C | 30.4% | 727.8hPa | 2.7V | 00:00:00 | 03:03:02 | 00:00:00 | |
| DO3MHA-11 | 2026-09-04 13:32:17 | 48.56549 | 11.16170 | 93° | 69km/h | 2899m | -2.8m/s | 11.1°C | 30.9% | 726.8hPa | 2.7V | 00:00:00 | 03:02:58 | 00:00:00 | |
| DO3MHA-12 | 2026-09-04 13:32:16 | 48.56550 | 11.16143 | 91° | 69km/h | 2902m | -2.6m/s | 11.0°C | 31.4% | 726.6hPa | 2.7V | 07:25:00 | 03:02:57 | 00:00:00 | |
| DO3MHA-11 | 2026-09-04 13:32:12 | 48.56546 | 11.16038 | 84° | 64km/h | 2913m | -2.8m/s | 10.9°C | 31.9% | 725.5hPa | 2.7V | 07:25:00 | 03:02:53 | 00:00:00 | |
| DO3MHA-12 | 2026-09-04 13:32:11 | 48.56543 | 11.16013 | 83° | 62km/h | 2916m | -2.8m/s | 10.9°C | 31.8% | 725.3hPa | 2.7V | 00:00:00 | 03:02:52 | 00:00:00 | |
| DO3MHA-11 | 2026-09-04 13:32:07 | 48.56535 | 11.15919 | 83° | 55km/h | 2927m | -2.7m/s | 10.9°C | 31.8% | 724.4hPa | 2.7V | 00:00:00 | 03:02:48 | 00:00:00 | |
| DO3MHA-12 | 2026-09-04 13:32:06 | 48.56533 | 11.15897 | 85° | 55km/h | 2930m | -2.4m/s | 10.9°C | 31.8% | 724.1hPa | 2.7V | 00:00:00 | 03:02:47 | 00:00:00 | |
| NBG1-10 | 2026-09-04 13:32:05 | 48.56532 | 11.15877 | 88° | 62km/h | 2932m | -2.7m/s | 10.8°C | 31.7% | 723.9hPa | 2.7V | 00:00:00 | 03:02:46 | 00:00:00 | |
| DB0NH | 2026-09-04 13:32:03 | 48.56532 | 11.15836 | 91° | 64km/h | 2938m | -2.8m/s | 10.8°C | 31.8% | 723.4hPa | 2.7V | 00:00:00 | 03:02:44 | 00:00:00 | |
| DO3MHA-11 | 2026-09-04 13:32:02 | 48.56532 | 11.15815 | 93° | 57km/h | 2941m | -3.1m/s | 10.8°C | 31.7% | 723.2hPa | 2.7V | 00:00:00 | 03:02:43 | 00:00:00 | |
| DL6DJ-15 | 2026-09-04 13:32:01 | 48.56534 | 11.15773 | 95° | 55km/h | 2947m | -2.6m/s | 10.8°C | 31.3% | 722.7hPa | 2.7V | 00:00:00 | 00:00:00 | 00:00:00 | |
| DO3MHA-11 | 2026-09-04 13:31:57 | 48.56540 | 11.15708 | 100° | 64km/h | 2955m | -2.9m/s | 10.7°C | 30.9% | 721.9hPa | 2.7V | 00:00:00 | 03:02:38 | 00:00:00 | |
| DO3MHA-12 | 2026-09-04 13:31:56 | 48.56542 | 11.15685 | 100° | 66km/h | 2958m | -3.1m/s | 10.7°C | 30.8% | 721.7hPa | 2.7V | 00:00:00 | 03:02:37 | 00:00:00 | |
| DO3MHA-11 | 2026-09-04 13:31:52 | 48.56552 | 11.15586 | 97° | 69km/h | 2970m | -2.8m/s | 10.6°C | 31.1% | 720.6hPa | 2.7V | 00:00:00 | 03:02:33 | 00:00:00 | |
| DO3MHA-12 | 2026-09-04 13:31:51 | 48.56553 | 11.15560 | 94° | 69km/h | 2973m | -3.0m/s | 10.5°C | 31.2% | 720.3hPa | 2.7V | 00:00:00 | 03:02:32 | 00:00:00 | |
| DO3MHA-11 | 2026-09-04 13:31:47 | 48.56553 | 11.15455 | 87° | 66km/h | 2985m | -2.9m/s | 10.3°C | 31.6% | 719.3hPa | 2.7V | 00:00:00 | 03:02:28 | 00:00:00 | |
| DO3MHA-12 | 2026-09-04 13:31:46 | 48.56552 | 11.15429 | 86° | 64km/h | 2988m | -3.1m/s | 10.3°C | 31.5% | 718.9hPa | 2.7V | 00:00:00 | 03:02:27 | 00:00:00 | |
| DO3MHA-11 | 2026-09-04 13:31:42 | 48.56546 | 11.15332 | 85° | 55km/h | 3001m | -2.9m/s | 10.2°C | 31.1% | 717.8hPa | 2.7V | 00:00:00 | 03:02:23 | 00:00:00 | |
| DO3MHA-12 | 2026-09-04 13:31:41 | 48.56545 | 11.15310 | 88° | 53km/h | 3004m | -2.9m/s | 10.3°C | 31.1% | 717.7hPa | 2.7V | 00:00:00 | 03:02:22 | 00:00:00 | |
| DO3MHA-11 | 2026-09-04 13:31:37 | 48.56546 | 11.15229 | 96° | 57km/h | 3016m | -3.0m/s | 10.2°C | 30.9% | 716.6hPa | 2.7V | 00:00:00 | 03:02:18 | 00:00:00 | |
| DO3MHA-12 | 2026-09-04 13:31:36 | 48.56547 | 11.15208 | 98° | 60km/h | 3019m | -3.0m/s | 10.2°C | 31.0% | 716.4hPa | 2.7V | 07:26:00 | 03:02:17 | 00:00:00 | |
| DO3MHA-11 | 2026-09-04 13:31:32 | 48.56557 | 11.15119 | 100° | 68km/h | 3031m | -3.1m/s | 10.0°C | 31.4% | 715.4hPa | 2.7V | 07:26:00 | 03:02:13 | 00:00:00 | |
| DO3MHA-12 | 2026-09-04 13:31:31 | 48.56560 | 11.15094 | 99° | 69km/h | 3034m | -3.3m/s | 10.0°C | 31.3% | 715.2hPa | 2.7V | 00:00:00 | 03:02:12 | 00:00:00 | |
| DL6DJ-15 | 2026-09-04 13:31:30 | 48.56564 | 11.15042 | 94° | 68km/h | 3040m | -3.0m/s | 9.9°C | 31.1% | 714.7hPa | 2.7V | 00:00:00 | 00:00:00 | 00:00:00 | |
| DO3MHA-11 | 2026-09-04 13:31:27 | 48.56566 | 11.14989 | 93° | 69km/h | 3046m | -2.7m/s | 9.8°C | 31.8% | 714.1hPa | 2.7V | 00:00:00 | 03:02:08 | 00:00:00 | |
| DO3MHA-12 | 2026-09-04 13:31:26 | 48.56567 | 11.14963 | 92° | 69km/h | 3049m | -2.9m/s | 9.8°C | 31.7% | 713.7hPa | 2.7V | 00:00:00 | 03:02:07 | 00:00:00 | |
| DO3MHA-11 | 2026-09-04 13:31:22 | 48.56567 | 11.14857 | 89° | 68km/h | 3061m | -2.9m/s | 9.6°C | 31.6% | 712.7hPa | 2.7V | 00:00:00 | 03:02:03 | 00:00:00 | |
| DO3MHA-12 | 2026-09-04 13:31:21 | 48.56566 | 11.14831 | 89° | 66km/h | 3064m | -3.0m/s | 9.6°C | 31.7% | 712.5hPa | 2.7V | 00:00:00 | 03:02:02 | 00:00:00 | |
| DO3MHA-11 | 2026-09-04 13:31:17 | 48.56561 | 11.14730 | 85° | 58km/h | 3076m | -2.9m/s | 9.5°C | 31.6% | 711.5hPa | 2.7V | 00:00:00 | 03:01:58 | 00:00:00 | |
| DO3MHA-12 | 2026-09-04 13:31:16 | 48.56560 | 11.14707 | 86° | 57km/h | 3079m | -3.0m/s | 9.5°C | 31.6% | 711.2hPa | 2.7V | 00:00:00 | 03:01:57 | 00:00:00 | |
| DO3MHA-11 | 2026-09-04 13:31:12 | 48.56557 | 11.14620 | 90° | 53km/h | 3091m | -2.9m/s | 9.5°C | 31.7% | 710.2hPa | 2.7V | 00:00:00 | 03:01:53 | 00:00:00 | |
| DO3MHA-12 | 2026-09-04 13:31:11 | 48.56556 | 11.14599 | 90° | 53km/h | 3094m | -2.9m/s | 9.4°C | 31.7% | 710.0hPa | 2.7V | 00:00:00 | 03:01:52 | 00:00:00 | |
| DO3MHA-11 | 2026-09-04 13:31:07 | 48.56557 | 11.14519 | 96° | 57km/h | 3107m | -3.0m/s | 9.3°C | 32.2% | 708.9hPa | 2.7V | 00:00:00 | 03:01:48 | 00:00:00 | |
| DO3MHA-12 | 2026-09-04 13:31:06 | 48.56559 | 11.14499 | 98° | 58km/h | 3110m | -2.9m/s | 9.3°C | 32.3% | 708.6hPa | 2.7V | 00:00:00 | 03:01:47 | 00:00:00 | |
| DO3MHA-11 | 2026-09-04 13:31:02 | 48.56570 | 11.14412 | 103° | 64km/h | 3122m | -3.2m/s | 9.2°C | 32.2% | 707.6hPa | 2.7V | 00:00:00 | 03:01:43 | 00:00:00 | |
| DL6DJ-15 | 2026-09-04 13:30:58 | 48.56582 | 11.14315 | 97° | 66km/h | 3134m | -3.1m/s | 9.1°C | 31.5% | 706.5hPa | 2.7V | 00:00:00 | 00:00:00 | 00:00:00 | |
| DF3TZ-5 | 2026-09-04 13:30:48 | 48.56586 | 11.14037 | 87° | 60km/h | 3169m | -3.1m/s | 8.7°C | 31.5% | 703.7hPa | 2.7V | 00:00:00 | 00:00:00 | 00:00:00 | |
| DO3MHA-11 | 2026-09-04 13:30:47 | 48.56586 | 11.14037 | 88° | 58km/h | 3169m | -3.1m/s | 8.7°C | 32.0% | 703.6hPa | 2.7V | 00:00:00 | 03:01:28 | 00:00:00 | |
| DO3MHA-12 | 2026-09-04 13:30:46 | 48.56585 | 11.14013 | 88° | 58km/h | 3172m | -3.1m/s | 8.7°C | 31.8% | 703.3hPa | 2.7V | 00:00:00 | 03:01:27 | 00:00:00 | |
| DO3MHA-11 | 2026-09-04 13:30:42 | 48.56583 | 11.13925 | 91° | 55km/h | 3185m | -3.1m/s | 8.7°C | 33.8% | 702.2hPa | 2.7V | 00:00:00 | 03:01:23 | 00:00:00 | |
| DO3MHA-12 | 2026-09-04 13:30:41 | 48.56583 | 11.13904 | 93° | 55km/h | 3188m | -3.1m/s | 8.8°C | 35.1% | 701.9hPa | 2.7V | 00:00:00 | 03:01:22 | 00:00:00 | |
| NBG1-10 | 2026-09-04 13:30:37 | 48.56590 | 11.13822 | 101° | 62km/h | 3200m | -3.1m/s | 8.7°C | 37.6% | 700.9hPa | 2.7V | 00:00:00 | 03:01:18 | 00:00:00 | |
| DO3MHA-12 | 2026-09-04 13:30:36 | 48.56592 | 11.13801 | 102° | 57km/h | 3203m | -2.9m/s | 8.7°C | 37.9% | 700.7hPa | 2.7V | 00:00:00 | 03:01:17 | 00:00:00 | |
| DO3MHA-11 | 2026-09-04 13:30:32 | 48.56606 | 11.13717 | 106° | 66km/h | 3216m | -3.2m/s | 8.6°C | 38.7% | 699.6hPa | 2.7V | 00:00:00 | 03:01:13 | 00:00:00 | |
| DO3MHA-12 | 2026-09-04 13:30:31 | 48.56610 | 11.13693 | 105° | 69km/h | 3219m | -3.1m/s | 8.6°C | 39.0% | 699.3hPa | 2.7V | 00:00:00 | 03:01:12 | 00:00:00 | |
| DL6DJ-15 | 2026-09-04 13:30:28 | 48.56624 | 11.13591 | 98° | 71km/h | 3231m | -3.2m/s | 8.5°C | 39.2% | 698.2hPa | 2.7V | 00:00:00 | 00:00:00 | 00:00:00 | |
| DO3MHA-11 | 2026-09-04 13:30:27 | 48.56624 | 11.13591 | 99° | 71km/h | 3231m | -3.2m/s | 8.5°C | 39.9% | 698.2hPa | 2.7V | 00:00:00 | 03:01:08 | 00:00:00 | |
| DO3MHA-12 | 2026-09-04 13:30:26 | 48.56627 | 11.13564 | 97° | 69km/h | 3235m | -3.1m/s | 8.4°C | 39.9% | 697.9hPa | 2.7V | 00:00:00 | 03:01:07 | 00:00:00 | |
| DO3MHA-11 | 2026-09-04 13:30:22 | 48.56632 | 11.13457 | 92° | 62km/h | 3247m | -3.0m/s | 8.3°C | 40.1% | 696.8hPa | 2.7V | 00:00:00 | 03:01:03 | 00:00:00 | |
| DB0NH | 2026-09-04 13:30:21 | 48.56632 | 11.13432 | 92° | 64km/h | 3250m | -3.1m/s | 8.3°C | 40.1% | 696.6hPa | 2.7V | 00:00:00 | 03:01:02 | 00:00:00 | |
| DF3TZ-5 | 2026-09-04 13:30:17 | 48.56633 | 11.13316 | 90° | 58km/h | 3266m | -3.1m/s | 8.3°C | 38.0% | 695.4hPa | 2.7V | 00:00:00 | 00:00:00 | 00:00:00 | |
| DO3MHA-12 | 2026-09-04 13:30:16 | 48.56633 | 11.13316 | 91° | 58km/h | 3266m | -3.1m/s | 8.3°C | 38.7% | 695.4hPa | 2.7V | 07:27:00 | 03:00:57 | 00:00:00 | |
| DO3MHA-11 | 2026-09-04 13:30:12 | 48.56636 | 11.13227 | 96° | 55km/h | 3279m | -3.0m/s | 8.3°C | 38.4% | 694.3hPa | 2.7V | 07:27:00 | 03:00:53 | 00:00:00 | |
| DO3MHA-12 | 2026-09-04 13:30:11 | 48.56638 | 11.13206 | 99° | 57km/h | 3282m | -3.1m/s | 8.3°C | 38.3% | 694.1hPa | 2.7V | 00:00:00 | 03:00:52 | 00:00:00 | |
| DO3MHA-11 | 2026-09-04 13:30:07 | 48.56649 | 11.13123 | 105° | 66km/h | 3295m | -3.3m/s | 8.2°C | 37.9% | 692.9hPa | 2.7V | 00:00:00 | 03:00:48 | 00:00:00 | |
| DO3MHA-12 | 2026-09-04 13:30:06 | 48.56653 | 11.13101 | 106° | 69km/h | 3298m | -3.3m/s | 8.2°C | 36.7% | 692.5hPa | 2.7V | 00:00:00 | 03:00:47 | 00:00:00 | |
| NBG1-10 | 2026-09-04 13:30:04 | 48.56662 | 11.13051 | 105° | 68km/h | 3304m | -3.0m/s | 8.2°C | 36.8% | 692.0hPa | 2.7V | 00:00:00 | 03:00:45 | 00:00:00 | |
| DO3MHA-11 | 2026-09-04 13:30:02 | 48.56670 | 11.12998 | 101° | 71km/h | 3311m | -3.2m/s | 8.1°C | 36.8% | 691.5hPa | 2.7V | 00:00:00 | 03:00:43 | 00:00:00 | |
| DL6DJ-15 | 2026-09-04 13:29:56 | 48.56677 | 11.12836 | 89° | 68km/h | 3330m | -3.3m/s | 7.9°C | 39.4% | 690.0hPa | 2.7V | 00:00:00 | 00:00:00 | 00:00:00 | |
| DF3TZ-5 | 2026-09-04 13:29:46 | 48.56693 | 11.12586 | 103° | 57km/h | 3365m | -3.4m/s | 7.8°C | 36.6% | 687.1hPa | 2.7V | 00:00:00 | 00:00:00 | 00:00:00 | |
| DO3MHA-11 | 2026-09-04 13:29:42 | 48.56706 | 11.12516 | 105° | 71km/h | 3375m | -3.4m/s | 7.7°C | 37.4% | 686.1hPa | 2.7V | 00:00:00 | 03:00:23 | 00:00:00 | |
| DO3MHA-12 | 2026-09-04 13:29:41 | 48.56710 | 11.12490 | 103° | 73km/h | 3378m | -3.1m/s | 7.6°C | 37.4% | 686.0hPa | 2.7V | 00:00:00 | 03:00:22 | 00:00:00 | |
| DO3MHA-11 | 2026-09-04 13:29:37 | 48.56721 | 11.12380 | 97° | 73km/h | 3392m | -3.2m/s | 7.5°C | 37.7% | 684.7hPa | 2.7V | 00:00:00 | 03:00:18 | 00:00:00 | |
| DO3MHA-12 | 2026-09-04 13:29:36 | 48.56723 | 11.12351 | 96° | 71km/h | 3395m | -3.2m/s | 7.5°C | 37.8% | 684.6hPa | 2.7V | 07:28:00 | 03:00:17 | 00:00:00 | |
| DO3MHA-11 | 2026-09-04 13:29:32 | 48.56726 | 11.12242 | 90° | 62km/h | 3408m | -3.2m/s | 7.3°C | 38.3% | 683.5hPa | 2.7V | 07:28:00 | 03:00:13 | 00:00:00 | |
| DO3MHA-12 | 2026-09-04 13:29:31 | 48.56726 | 11.12217 | 90° | 60km/h | 3411m | -3.3m/s | 7.3°C | 38.2% | 683.3hPa | 2.7V | 00:00:00 | 03:00:12 | 00:00:00 | |
| DO3MHA-11 | 2026-09-04 13:29:27 | 48.56728 | 11.12124 | 96° | 58km/h | 3424m | -3.2m/s | 7.3°C | 38.5% | 682.1hPa | 2.7V | 00:00:00 | 03:00:08 | 00:00:00 | |
| DO3MHA-12 | 2026-09-04 13:29:26 | 48.56730 | 11.12102 | 98° | 58km/h | 3427m | -3.2m/s | 7.3°C | 38.9% | 682.0hPa | 2.7V | 00:00:00 | 03:00:07 | 00:00:00 | |
| DL6DJ-15 | 2026-09-04 13:29:25 | 48.56732 | 11.12081 | 98° | 57km/h | 3430m | -3.1m/s | 7.3°C | 38.0% | 681.6hPa | 2.7V | 00:00:00 | 00:00:00 | 00:00:00 | |
| DO3MHA-11 | 2026-09-04 13:29:22 | 48.56740 | 11.12014 | 104° | 66km/h | 3439m | -3.0m/s | 7.2°C | 37.4% | 680.8hPa | 2.7V | 00:00:00 | 03:00:03 | 00:00:00 | |
| DO3MHA-12 | 2026-09-04 13:29:21 | 48.56745 | 11.11992 | 106° | 69km/h | 3442m | -3.2m/s | 7.2°C | 37.7% | 680.5hPa | 2.7V | 00:00:00 | 03:00:02 | 00:00:00 | |
| DO3MHA-11 | 2026-09-04 13:29:18 | 48.56763 | 11.11890 | 103° | 73km/h | 3456m | -3.2m/s | 7.0°C | 38.7% | 679.4hPa | 2.7V | 00:00:00 | 02:59:58 | 00:00:00 | |
| DO3MHA-12 | 2026-09-04 13:29:16 | 48.56766 | 11.11863 | 100° | 73km/h | 3459m | -3.2m/s | 7.0°C | 37.7% | 679.1hPa | 2.7V | 00:00:00 | 02:59:57 | 00:00:00 | |
| DF3TZ-5 | 2026-09-04 13:29:14 | 48.56770 | 11.11807 | 93° | 71km/h | 3466m | -3.1m/s | 6.9°C | 39.2% | 678.8hPa | 2.7V | 00:00:00 | 00:00:00 | 00:00:00 | |
| DO3MHA-11 | 2026-09-04 13:29:12 | 48.56771 | 11.11752 | 91° | 68km/h | 3472m | -3.2m/s | 6.8°C | 39.4% | 678.2hPa | 2.7V | 00:00:00 | 02:59:53 | 00:00:00 | |
| DO3MHA-12 | 2026-09-04 13:29:11 | 48.56771 | 11.11725 | 90° | 66km/h | 3475m | -3.4m/s | 6.8°C | 39.1% | 677.9hPa | 2.7V | 00:00:00 | 02:59:52 | 00:00:00 | |
| DO3MHA-11 | 2026-09-04 13:29:07 | 48.56770 | 11.11625 | 91° | 58km/h | 3489m | -3.3m/s | 6.7°C | 38.8% | 676.7hPa | 2.7V | 00:00:00 | 02:59:48 | 00:00:00 | |
| DO3MHA-12 | 2026-09-04 13:29:06 | 48.56771 | 11.11603 | 94° | 58km/h | 3492m | -3.2m/s | 6.7°C | 38.9% | 676.4hPa | 2.7V | 00:00:00 | 02:59:47 | 00:00:00 | |
| DO3MHA-11 | 2026-09-04 13:29:02 | 48.56780 | 11.11514 | 102° | 64km/h | 3506m | -3.3m/s | 6.7°C | 38.8% | 675.4hPa | 2.7V | 00:00:00 | 02:59:43 | 00:00:00 | |
| DL6DJ-15 | 2026-09-04 13:28:54 | 48.56810 | 11.11312 | 99° | 73km/h | 3532m | -3.4m/s | 6.5°C | 39.3% | 673.3hPa | 2.7V | 00:00:00 | 00:00:00 | 00:00:00 | |
| DL9SK-14 | 2026-09-04 13:28:48 | 48.56822 | 11.11113 | 89° | 71km/h | 3556m | -3.4m/s | 6.3°C | 39.2% | 671.3hPa | 2.7V | 00:00:00 | 00:00:00 | 00:00:00 | |
| DO3MHA-11 | 2026-09-04 13:28:47 | 48.56822 | 11.11113 | 90° | 66km/h | 3556m | -3.4m/s | 6.2°C | 40.0% | 671.2hPa | 2.7V | 00:00:00 | 02:59:28 | 00:00:00 | |
| DO3MHA-12 | 2026-09-04 13:28:46 | 48.56821 | 11.11086 | 89° | 64km/h | 3560m | -3.5m/s | 6.2°C | 40.0% | 671.0hPa | 2.7V | 00:00:00 | 02:59:27 | 00:00:00 | |
| DF3TZ-5 | 2026-09-04 13:28:44 | 48.56821 | 11.11013 | 92° | 60km/h | 3570m | -3.3m/s | 6.3°C | 37.1% | 670.2hPa | 2.7V | 00:00:00 | 00:00:00 | 00:00:00 | |
| DO3MHA-11 | 2026-09-04 13:28:42 | 48.56822 | 11.10990 | 96° | 58km/h | 3573m | -3.2m/s | 6.2°C | 37.2% | 669.8hPa | 2.7V | 00:00:00 | 02:59:23 | 00:00:00 | |
| DO3MHA-12 | 2026-09-04 13:28:41 | 48.56824 | 11.10968 | 98° | 58km/h | 3577m | -3.2m/s | 6.2°C | 35.5% | 669.6hPa | 2.7V | 00:00:00 | 02:59:22 | 00:00:00 | |
| DO3MHA-11 | 2026-09-04 13:28:37 | 48.56834 | 11.10880 | 103° | 64km/h | 3590m | -3.3m/s | 6.2°C | 34.8% | 668.6hPa | 2.7V | 00:00:00 | 02:59:18 | 00:00:00 | |
| DO3MHA-12 | 2026-09-04 13:28:36 | 48.56837 | 11.10857 | 105° | 66km/h | 3593m | -3.4m/s | 6.2°C | 34.5% | 668.3hPa | 2.7V | 00:00:00 | 02:59:17 | 00:00:00 | |
| DO3MHA-11 | 2026-09-04 13:28:32 | 48.56855 | 11.10759 | 104° | 75km/h | 3607m | -3.3m/s | 6.1°C | 32.7% | 667.1hPa | 2.7V | 00:00:00 | 02:59:13 | 00:00:00 | |
| DO3MHA-12 | 2026-09-04 13:28:31 | 48.56859 | 11.10732 | 102° | 75km/h | 3610m | -3.2m/s | 6.0°C | 32.8% | 666.8hPa | 2.7V | 00:00:00 | 02:59:12 | 00:00:00 | |
| DB0ND-19 | 2026-09-04 13:28:30 | 48.56863 | 11.10704 | 99° | 73km/h | 3613m | -3.3m/s | 0°C | -1.0% | -1.0hPa | 2.7V | 00:00:00 | 00:00:00 | 00:00:00 | |
| DO3MHA-11 | 2026-09-04 13:28:27 | 48.56869 | 11.10619 | 96° | 75km/h | 3623m | -3.4m/s | 5.9°C | 33.2% | 665.8hPa | 2.7V | 00:00:00 | 02:59:08 | 00:00:00 | |
| DO3MHA-12 | 2026-09-04 13:28:26 | 48.56871 | 11.10590 | 95° | 73km/h | 3627m | -3.3m/s | 5.9°C | 33.2% | 665.6hPa | 2.7V | 00:00:00 | 02:59:07 | 00:00:00 | |
| NBG1-10 | 2026-09-04 13:28:25 | 48.56873 | 11.10562 | 94° | 68km/h | 3630m | -3.2m/s | 5.8°C | 33.1% | 665.2hPa | 2.7V | 00:00:00 | 02:59:06 | 00:00:00 | |
| DL6DJ-15 | 2026-09-04 13:28:23 | 48.56874 | 11.10506 | 92° | 73km/h | 3637m | -3.4m/s | 5.8°C | 31.9% | 664.8hPa | 2.7V | 00:00:00 | 00:00:00 | 00:00:00 | |
| DO3MHA-11 | 2026-09-04 13:28:22 | 48.56875 | 11.10478 | 92° | 68km/h | 3640m | -3.4m/s | 5.8°C | 32.6% | 664.5hPa | 2.7V | 00:00:00 | 02:59:03 | 00:00:00 | |
| DB0NH | 2026-09-04 13:28:21 | 48.56875 | 11.10451 | 92° | 71km/h | 3644m | -3.3m/s | 5.7°C | 32.9% | 664.0hPa | 2.7V | 00:00:00 | 02:59:02 | 00:00:00 | |
| DO3MHA-11 | 2026-09-04 13:28:17 | 48.56877 | 11.10349 | 93° | 60km/h | 3657m | -3.4m/s | 5.7°C | 33.8% | 663.0hPa | 2.7V | 00:00:00 | 02:58:58 | 00:00:00 | |
| DO3MHA-12 | 2026-09-04 13:28:16 | 48.56878 | 11.10326 | 94° | 60km/h | 3660m | -3.3m/s | 5.7°C | 34.2% | 662.7hPa | 2.7V | 07:29:00 | 02:58:57 | 00:00:00 | |
| DO3MHA-11 | 2026-09-04 13:28:12 | 48.56886 | 11.10236 | 104° | 68km/h | 3673m | -3.2m/s | 5.7°C | 33.8% | 661.5hPa | 2.7V | 07:29:00 | 02:58:53 | 00:00:00 | |
| DO3MHA-12 | 2026-09-04 13:28:11 | 48.56890 | 11.10213 | 106° | 71km/h | 3677m | -3.3m/s | 5.6°C | 33.8% | 661.4hPa | 2.7V | 00:00:00 | 02:58:52 | 00:00:00 | |
| DO3MHA-11 | 2026-09-04 13:28:07 | 48.56909 | 11.10108 | 104° | 78km/h | 3691m | -3.4m/s | 5.5°C | 35.1% | 660.3hPa | 2.7V | 00:00:00 | 02:58:48 | 00:00:00 | |
| DO3MHA-12 | 2026-09-04 13:28:06 | 48.56914 | 11.10080 | 102° | 78km/h | 3694m | -3.3m/s | 5.5°C | 35.5% | 660.0hPa | 2.7V | 00:00:00 | 02:58:47 | 00:00:00 | |
| DO3MHA-11 | 2026-09-04 13:28:02 | 48.56925 | 11.09961 | 96° | 73km/h | 3707m | -3.4m/s | 5.3°C | 34.9% | 658.9hPa | 2.7V | 00:00:00 | 02:58:43 | 00:00:00 | |
| DB0ND-19 | 2026-09-04 13:27:59 | 48.56929 | 11.09877 | 92° | 68km/h | 3717m | -3.3m/s | 0°C | -1.0% | -1.0hPa | 2.7V | 00:00:00 | 00:00:00 | 00:00:00 | |
| DL6DJ-15 | 2026-09-04 13:27:52 | 48.56943 | 11.09713 | 104° | 60km/h | 3741m | -3.6m/s | 5.2°C | 36.2% | 656.1hPa | 2.7V | 00:00:00 | 00:00:00 | 00:00:00 | |
| DL9SK-14 | 2026-09-04 13:27:45 | 48.56976 | 11.09535 | 101° | 75km/h | 3764m | -3.3m/s | 4.9°C | 38.1% | 654.3hPa | 2.7V | 00:00:00 | 00:00:00 | 00:00:00 | |
| DO3MHA-11 | 2026-09-04 13:27:42 | 48.56987 | 11.09448 | 100° | 78km/h | 3775m | -3.4m/s | 4.8°C | 40.0% | 653.6hPa | 2.7V | 00:00:00 | 02:58:23 | 00:00:00 | |
| DO3MHA-12 | 2026-09-04 13:27:41 | 48.56990 | 11.09418 | 99° | 77km/h | 3778m | -3.6m/s | 4.8°C | 40.2% | 653.2hPa | 2.7V | 00:00:00 | 02:58:22 | 00:00:00 | |
| DO3MHA-11 | 2026-09-04 13:27:37 | 48.56998 | 11.09300 | 95° | 69km/h | 3792m | -3.3m/s | 4.6°C | 41.3% | 652.0hPa | 2.7V | 00:00:00 | 02:58:18 | 00:00:00 | |
| DO3MHA-12 | 2026-09-04 13:27:36 | 48.57000 | 11.09273 | 96° | 68km/h | 3796m | -3.2m/s | 4.6°C | 41.1% | 651.9hPa | 2.7V | 07:30:00 | 02:58:17 | 00:00:00 | |
| DG1MJG | 2026-09-04 13:27:35 | 48.57000 | 11.09272 | 96° | 69km/h | 3796m | -3.3m/s | 0°C | 0% | 0hPa | 2.7V | 00:00:00 | 00:00:00 | 00:00:00 | |
| DO3MHA-11 | 2026-09-04 13:27:32 | 48.57008 | 11.09171 | 98° | 66km/h | 3809m | -3.3m/s | 4.6°C | 41.7% | 650.6hPa | 2.7V | 07:30:00 | 02:58:13 | 00:00:00 | |
| DO3MHA-12 | 2026-09-04 13:27:31 | 48.57010 | 11.09147 | 99° | 66km/h | 3812m | -3.3m/s | 4.6°C | 42.1% | 650.5hPa | 2.6V | 00:00:00 | 02:58:12 | 00:00:00 | |
| DO3MHA-11 | 2026-09-04 13:27:27 | 48.57023 | 11.09049 | 105° | 69km/h | 3826m | -3.3m/s | 4.5°C | 43.0% | 649.4hPa | 2.6V | 00:00:00 | 02:58:08 | 00:00:00 | |
| DO3MHA-12 | 2026-09-04 13:27:26 | 48.57027 | 11.09025 | 106° | 71km/h | 3829m | -3.3m/s | 4.5°C | 42.8% | 649.2hPa | 2.6V | 00:00:00 | 02:58:07 | 00:00:00 | |
| DO3MHA-11 | 2026-09-04 13:27:22 | 48.57048 | 11.08920 | 108° | 80km/h | 3843m | -3.3m/s | 4.5°C | 42.7% | 648.2hPa | 2.6V | 00:00:00 | 02:58:03 | 00:00:00 | |
| DO3MHA-12 | 2026-09-04 13:27:21 | 48.57054 | 11.08892 | 107° | 82km/h | 3846m | -3.3m/s | 4.4°C | 43.0% | 647.8hPa | 2.6V | 00:00:00 | 02:58:02 | 00:00:00 | |
| NBG1-10 | 2026-09-04 13:27:19 | 48.57066 | 11.08832 | 107° | 77km/h | 3853m | -3.4m/s | 4.4°C | 43.9% | 647.3hPa | 2.7V | 00:00:00 | 02:58:00 | 00:00:00 | |
| DO3MHA-11 | 2026-09-04 13:27:17 | 48.57076 | 11.08770 | 102° | 84km/h | 3860m | -3.3m/s | 4.3°C | 45.3% | 646.7hPa | 2.7V | 00:00:00 | 02:57:58 | 00:00:00 | |
| DL9SK-14 | 2026-09-04 13:27:14 | 48.57085 | 11.08675 | 96° | 82km/h | 3870m | -3.5m/s | 4.2°C | 46.1% | 645.9hPa | 2.7V | 00:00:00 | 00:00:00 | 00:00:00 | |
| DO3MHA-11 | 2026-09-04 13:27:12 | 48.57090 | 11.08613 | 96° | 82km/h | 3876m | -3.2m/s | 4.2°C | 47.6% | 645.3hPa | 2.7V | 00:00:00 | 02:57:53 | 00:00:00 | |
| DO3MHA-12 | 2026-09-04 13:27:11 | 48.57092 | 11.08581 | 96° | 80km/h | 3880m | -3.2m/s | 4.1°C | 47.8% | 645.1hPa | 2.7V | 00:00:00 | 02:57:52 | 00:00:00 | |
| DF3TZ-5 | 2026-09-04 13:27:10 | 48.57093 | 11.08550 | 94° | 82km/h | 3883m | -3.4m/s | 4.2°C | 47.6% | 644.9hPa | 2.7V | 00:00:00 | 00:00:00 | 00:00:00 | |
| DO3MHA-11 | 2026-09-04 13:27:07 | 48.57097 | 11.08458 | 94° | 75km/h | 3894m | -3.4m/s | 4.1°C | 50.5% | 644.0hPa | 2.7V | 00:00:00 | 02:57:48 | 00:00:00 | |
| DO3MHA-12 | 2026-09-04 13:27:06 | 48.57098 | 11.08428 | 94° | 73km/h | 3897m | -3.5m/s | 4.0°C | 50.9% | 643.7hPa | 2.7V | 00:00:00 | 02:57:47 | 00:00:00 | |
| DG1MJG | 2026-09-04 13:27:04 | 48.57099 | 11.08400 | 94° | 73km/h | 3901m | -3.3m/s | 0°C | 0% | 643.6hPa | 2.7V | 07:30:00 | 00:00:00 | 00:00:00 | |
| DO3MHA-11 | 2026-09-04 13:27:02 | 48.57103 | 11.08317 | 94° | 69km/h | 3910m | -3.3m/s | 4.0°C | 52.0% | 642.8hPa | 2.7V | 00:00:00 | 02:57:43 | 00:00:00 | |
| DL6DJ-15 | 2026-09-04 13:26:50 | 48.57139 | 11.07975 | 104° | 75km/h | 3954m | -3.2m/s | 3.7°C | 51.4% | 639.3hPa | 2.7V | 00:00:00 | 00:00:00 | 00:00:00 | |
| DO3MHA-12 | 2026-09-04 13:26:46 | 48.57153 | 11.07887 | 101° | 84km/h | 3963m | -3.3m/s | 3.6°C | 52.0% | 638.4hPa | 2.7V | 00:00:00 | 02:57:27 | 00:00:00 | |
| DL9SK-14 | 2026-09-04 13:26:43 | 48.57163 | 11.07791 | 97° | 86km/h | 3973m | -3.1m/s | 3.6°C | 50.7% | 637.7hPa | 2.7V | 00:00:00 | 00:00:00 | 00:00:00 | |
| DO3MHA-12 | 2026-09-04 13:26:41 | 48.57167 | 11.07726 | 95° | 86km/h | 3980m | -3.4m/s | 3.6°C | 50.7% | 637.1hPa | 2.7V | 00:00:00 | 02:57:22 | 00:00:00 | |
| DF3TZ-5 | 2026-09-04 13:26:39 | 48.57170 | 11.07659 | 92° | 88km/h | 3987m | -3.6m/s | 3.6°C | 48.5% | 636.7hPa | 2.7V | 00:00:00 | 00:00:00 | 00:00:00 | |
| DO3MHA-12 | 2026-09-04 13:26:36 | 48.57171 | 11.07562 | 90° | 75km/h | 3997m | -3.2m/s | 3.4°C | 48.9% | 635.8hPa | 2.7V | 00:00:00 | 02:57:17 | 00:00:00 | |
| DG1MJG | 2026-09-04 13:26:33 | 48.57171 | 11.07503 | 91° | 75km/h | 4004m | -3.2m/s | 0°C | 0% | 0hPa | 2.7V | 00:00:00 | 00:00:00 | 00:00:00 | |
| DO3MHA-12 | 2026-09-04 13:26:31 | 48.57172 | 11.07420 | 93° | 71km/h | 4014m | -3.4m/s | 3.4°C | 46.8% | 634.5hPa | 2.7V | 00:00:00 | 02:57:12 | 00:00:00 | |
| DB0UT-7 | 2026-09-04 13:26:28 | 48.57176 | 11.07339 | 97° | 73km/h | 4024m | -3.4m/s | 3.4°C | 47.2% | 633.7hPa | 2.7V | 07:31:00 | 02:57:09 | 00:00:00 | |
| DO3MHA-11 | 2026-09-04 13:26:26 | 48.57181 | 11.07285 | 99° | 75km/h | 4031m | -3.4m/s | 3.4°C | 51.2% | 633.1hPa | 2.7V | 00:00:00 | 02:57:07 | 00:00:00 | |
| DO3MHA-11 | 2026-09-04 13:26:21 | 48.57199 | 11.07141 | 100° | 86km/h | 4048m | -3.6m/s | 3.2°C | 53.1% | 631.8hPa | 2.7V | 00:00:00 | 02:57:02 | 00:00:00 | |
| DL6DJ-15 | 2026-09-04 13:26:19 | 48.57207 | 11.07044 | 94° | 86km/h | 4058m | -3.4m/s | 3.1°C | 53.1% | 631.0hPa | 2.7V | 00:00:00 | 00:00:00 | 00:00:00 | |
| DO3MHA-11 | 2026-09-04 13:26:16 | 48.57210 | 11.06978 | 92° | 86km/h | 4065m | -3.1m/s | 3.0°C | 54.9% | 630.5hPa | 2.7V | 00:00:00 | 02:56:57 | 00:00:00 | |
| NBG1-10 | 2026-09-04 13:26:13 | 48.57210 | 11.06880 | 89° | 78km/h | 4075m | -3.4m/s | 2.9°C | 55.9% | 629.8hPa | 2.6V | 00:00:00 | 02:56:54 | 00:00:00 | |
| DL9SK-14 | 2026-09-04 13:26:12 | 48.57209 | 11.06848 | 87° | 82km/h | 4078m | -3.5m/s | 2.9°C | 54.7% | 629.5hPa | 2.6V | 00:00:00 | 00:00:00 | 00:00:00 | |
| DO3MHA-12 | 2026-09-04 13:26:11 | 48.57209 | 11.06817 | 89° | 73km/h | 4082m | -3.3m/s | 2.8°C | 56.5% | 629.3hPa | 2.6V | 00:00:00 | 02:56:52 | 00:00:00 | |
| DL0LBS | 2026-09-04 13:26:09 | 48.57208 | 11.06732 | 92° | 71km/h | 4092m | -3.5m/s | 0°C | 0% | 628.6hPa | 2.6V | 00:00:00 | 00:00:00 | 00:00:00 | |
| DF3TZ-5 | 2026-09-04 13:26:08 | 48.57208 | 11.06732 | 90° | 71km/h | 4091m | -3.5m/s | 2.8°C | 58.2% | 628.6hPa | 2.6V | 00:00:00 | 00:00:00 | 00:00:00 | |
| DO3MHA-12 | 2026-09-04 13:26:06 | 48.57209 | 11.06678 | 92° | 69km/h | 4098m | -3.3m/s | 2.7°C | 63.4% | 627.9hPa | 2.6V | 00:00:00 | 02:56:47 | 00:00:00 | |
| DB0ND-19 | 2026-09-04 13:25:55 | 48.57238 | 11.06322 | 99° | 80km/h | 4143m | -3.6m/s | 0°C | -1.0% | -1.0hPa | 2.6V | 00:00:00 | 00:00:00 | 00:00:00 | |
| DL6DJ-15 | 2026-09-04 13:25:48 | 48.57257 | 11.06132 | 96° | 86km/h | 4164m | -3.6m/s | 2.1°C | 75.3% | 622.8hPa | 2.6V | 00:00:00 | 00:00:00 | 00:00:00 | |
| DL0LBS | 2026-09-04 13:25:47 | 48.57259 | 11.06099 | 96° | 86km/h | 4168m | -3.4m/s | 0°C | 0% | 622.6hPa | 2.6V | 00:00:00 | 00:00:00 | 00:00:00 | |
| DO3MHA-11 | 2026-09-04 13:25:46 | 48.57259 | 11.06099 | 95° | 86km/h | 4168m | -3.3m/s | 2.0°C | 77.2% | 622.6hPa | 2.6V | 00:00:00 | 02:56:27 | 00:00:00 | |
| DO3MHA-11 | 2026-09-04 13:25:41 | 48.57262 | 11.05937 | 91° | 82km/h | 4185m | -3.7m/s | 1.8°C | 78.0% | 621.2hPa | 2.6V | 00:00:00 | 02:56:22 | 00:00:00 | |
| DF3TZ-5 | 2026-09-04 13:25:38 | 48.57262 | 11.05810 | 89° | 80km/h | 4199m | -3.7m/s | 1.7°C | 76.4% | 620.2hPa | 2.6V | 00:00:00 | 00:00:00 | 00:00:00 | |
| DO3MHA-11 | 2026-09-04 13:25:36 | 48.57261 | 11.05780 | 89° | 78km/h | 4203m | -3.4m/s | 1.7°C | 77.6% | 619.9hPa | 2.6V | 00:00:00 | 02:56:17 | 00:00:00 | |
| DO3MHA-12 | 2026-09-04 13:25:31 | 48.57258 | 11.05632 | 90° | 71km/h | 4220m | -3.4m/s | 1.6°C | 76.4% | 618.5hPa | 2.6V | 00:00:00 | 02:56:12 | 00:00:00 | |
| DO3MHA-12 | 2026-09-04 13:25:26 | 48.57264 | 11.05497 | 94° | 71km/h | 4237m | -3.4m/s | 1.5°C | 76.6% | 617.3hPa | 2.6V | 00:00:00 | 02:56:07 | 00:00:00 | |
| DB0UT-7 | 2026-09-04 13:25:22 | 48.57266 | 11.05387 | 92° | 80km/h | 4250m | -3.2m/s | 1.3°C | 76.5% | 616.3hPa | 2.6V | 00:00:00 | 02:56:03 | 00:00:00 | |
| DO3MHA-12 | 2026-09-04 13:25:21 | 48.57267 | 11.05360 | 93° | 69km/h | 4254m | -3.4m/s | 1.3°C | 76.4% | 616.0hPa | 2.6V | 00:00:00 | 02:56:02 | 00:00:00 | |
| DL6DJ-15 | 2026-09-04 13:25:17 | 48.57275 | 11.05226 | 98° | 73km/h | 4271m | -3.5m/s | 1.3°C | 74.0% | 614.6hPa | 2.7V | 00:00:00 | 00:00:00 | 00:00:00 | |
| DO3MHA-12 | 2026-09-04 13:25:16 | 48.57275 | 11.05226 | 99° | 78km/h | 4271m | -3.4m/s | 1.2°C | 76.0% | 614.5hPa | 2.7V | 00:00:00 | 02:55:57 | 00:00:00 | |
| DO3MHA-12 | 2026-09-04 13:25:11 | 48.57290 | 11.05076 | 100° | 84km/h | 4288m | -3.4m/s | 1.1°C | 76.6% | 613.4hPa | 2.7V | 00:00:00 | 02:55:52 | 00:00:00 | |
| DL9SK-14 | 2026-09-04 13:25:10 | 48.57294 | 11.05045 | 99° | 82km/h | 4291m | -3.6m/s | 1.1°C | 74.5% | 613.3hPa | 2.7V | 00:00:00 | 00:00:00 | 00:00:00 | |
| NBG1-10 | 2026-09-04 13:25:07 | 48.57303 | 11.04949 | 98° | 78km/h | 4302m | -3.2m/s | 1.0°C | 75.8% | 612.3hPa | 2.7V | 00:00:00 | 02:55:48 | 00:00:00 | |
| DO3MHA-11 | 2026-09-04 13:25:06 | 48.57306 | 11.04916 | 97° | 88km/h | 4305m | -3.5m/s | 0.9°C | 76.0% | 612.2hPa | 2.7V | 00:00:00 | 02:55:47 | 00:00:00 | |
| DL6DJ-15 | 2026-09-04 13:24:46 | 48.57306 | 11.04271 | 95° | 73km/h | 4379m | -3.7m/s | 0.6°C | 72.0% | 606.5hPa | 2.7V | 00:00:00 | 00:00:00 | 00:00:00 | |
| DO3MHA-12 | 2026-09-04 13:24:41 | 48.57315 | 11.04156 | 98° | 75km/h | 4394m | -3.5m/s | 0.5°C | 74.7% | 605.3hPa | 2.7V | 00:00:00 | 02:55:22 | 00:00:00 | |
| DL9SK-14 | 2026-09-04 13:24:39 | 48.57320 | 11.04100 | 97° | 73km/h | 4401m | -3.8m/s | 0.5°C | 70.4% | 604.8hPa | 2.7V | 00:00:00 | 00:00:00 | 00:00:00 | |
| DO3MHA-12 | 2026-09-04 13:24:36 | 48.57328 | 11.04014 | 98° | 80km/h | 4412m | -3.6m/s | 0.4°C | 68.6% | 604.0hPa | 2.7V | 00:00:00 | 02:55:17 | 00:00:00 | |
| DF3TZ-5 | 2026-09-04 13:24:35 | 48.57331 | 11.03985 | 97° | 78km/h | 4416m | -3.7m/s | 0.4°C | 65.2% | 603.8hPa | 2.7V | 00:00:00 | 00:00:00 | 00:00:00 | |
| DO3MHA-12 | 2026-09-04 13:24:31 | 48.57342 | 11.03862 | 98° | 86km/h | 4431m | -3.6m/s | 0.3°C | 62.7% | 602.6hPa | 2.7V | 00:00:00 | 02:55:12 | 00:00:00 | |
| OE3JTB-15 | 2026-09-04 13:24:28 | 48.57350 | 11.03766 | 96° | 78km/h | 4442m | -3.8m/s | 0.3°C | 58.8% | 601.8hPa | 2.7V | 00:00:00 | 02:55:09 | 00:00:00 | |
| DF9NV-10 | 2026-09-04 13:24:27 | 48.57350 | 11.03766 | 97° | 86km/h | 4442m | -3.8m/s | 0°C | 0% | 0hPa | 2.7V | 00:00:00 | 00:00:00 | 00:00:00 | |
| DO3MHA-11 | 2026-09-04 13:24:26 | 48.57353 | 11.03700 | 93° | 86km/h | 4450m | -3.4m/s | 0.2°C | 58.7% | 601.3hPa | 2.7V | 00:00:00 | 02:55:07 | 00:00:00 | |
| DB0UT-7 | 2026-09-04 13:24:20 | 48.57353 | 11.03506 | 89° | 77km/h | 4472m | -3.8m/s | 0.1°C | 56.8% | 599.5hPa | 2.7V | 00:00:00 | 02:55:01 | 00:00:00 | |
| DO3MHA-12 | 2026-09-04 13:24:16 | 48.57350 | 11.03380 | 87° | 75km/h | 4487m | -3.8m/s | 0.0°C | 55.0% | 598.5hPa | 2.7V | 07:33:00 | 02:54:57 | 00:00:00 | |
| DL6DJ-15 | 2026-09-04 13:24:15 | 48.57347 | 11.03322 | 86° | 75km/h | 4494m | -3.8m/s | 0.1°C | 54.7% | 597.9hPa | 2.7V | 00:00:00 | 00:00:00 | 00:00:00 | |
| DO3MHA-12 | 2026-09-04 13:24:11 | 48.57345 | 11.03237 | 90° | 69km/h | 4506m | -3.7m/s | -0.0°C | 56.1% | 597.0hPa | 2.7V | 00:00:00 | 02:54:52 | 00:00:00 | |
| DL9SK-14 | 2026-09-04 13:24:08 | 48.57347 | 11.03157 | 91° | 68km/h | 4517m | -4.1m/s | -0.1°C | 55.3% | 596.1hPa | 2.7V | 00:00:00 | 00:00:00 | 00:00:00 | |
| DO3MHA-12 | 2026-09-04 13:24:06 | 48.57348 | 11.03104 | 94° | 73km/h | 4525m | -3.8m/s | -0.1°C | 57.4% | 595.6hPa | 2.7V | 00:00:00 | 02:54:47 | 00:00:00 | |
| DF9NV-10 | 2026-09-04 13:24:05 | 48.57348 | 11.03104 | 95° | 69km/h | 4525m | -3.9m/s | 0°C | 0% | 0hPa | 2.6V | 00:00:00 | 00:00:00 | 00:00:00 | |
| DF3TZ-5 | 2026-09-04 13:24:04 | 48.57352 | 11.03050 | 97° | 73km/h | 4533m | -3.9m/s | -0.2°C | 55.9% | 595.0hPa | 2.6V | 00:00:00 | 00:00:00 | 00:00:00 | |
| NBG1-10 | 2026-09-04 13:24:01 | 48.57360 | 11.02965 | 100° | 82km/h | 4545m | -3.8m/s | -0.2°C | 57.2% | 594.2hPa | 2.6V | 00:00:00 | 02:54:42 | 00:00:00 | |
| OE3JTB-15 | 2026-09-04 13:23:59 | 48.57366 | 11.02909 | 100° | 73km/h | 4552m | -3.8m/s | -0.3°C | 57.8% | 593.4hPa | 2.7V | 07:33:00 | 00:00:00 | 00:00:00 | |
| DO3MHA-12 | 2026-09-04 13:23:51 | 48.57389 | 11.02662 | 97° | 84km/h | 4584m | -3.9m/s | -0.6°C | 58.5% | 591.3hPa | 2.7V | 00:00:00 | 02:54:32 | 00:00:00 | |
| DB0UT-7 | 2026-09-04 13:23:50 | 48.57392 | 11.02630 | 98° | 78km/h | 4588m | -3.7m/s | -0.6°C | 59.0% | 590.9hPa | 2.6V | 00:00:00 | 00:00:00 | 00:00:00 | |
| DO3MHA-11 | 2026-09-04 13:23:46 | 48.57404 | 11.02504 | 100° | 78km/h | 4604m | -3.6m/s | -0.7°C | 59.4% | 589.7hPa | 2.6V | 00:00:00 | 02:54:27 | 00:00:00 | |
| DL6DJ-15 | 2026-09-04 13:23:44 | 48.57414 | 11.02417 | 99° | 78km/h | 4615m | -4.0m/s | -0.8°C | 56.4% | 589.0hPa | 2.7V | 00:00:00 | 00:00:00 | 00:00:00 | |
| DF9NV-10 | 2026-09-04 13:23:42 | 48.57414 | 11.02417 | 100° | 78km/h | 4615m | -4.0m/s | 0°C | 0% | 0hPa | 2.7V | 00:00:00 | 00:00:00 | 00:00:00 | |
| DO3MHA-11 | 2026-09-04 13:23:41 | 48.57420 | 11.02356 | 99° | 84km/h | 4623m | -4.0m/s | -0.8°C | 56.1% | 588.4hPa | 2.7V | 00:00:00 | 02:54:22 | 00:00:00 | |
| DK5PH-5 | 2026-09-04 13:23:37 | 48.57430 | 11.02227 | 94° | 78km/h | 4640m | -4.0m/s | -1.0°C | 53.5% | 587.2hPa | 2.7V | 00:00:00 | 02:54:18 | 00:00:00 | |
| DO3MHA-11 | 2026-09-04 13:23:36 | 48.57431 | 11.02194 | 92° | 84km/h | 4644m | -3.8m/s | -1.0°C | 53.4% | 586.9hPa | 2.7V | 00:00:00 | 02:54:17 | 00:00:00 | |
| DF3TZ-5 | 2026-09-04 13:23:33 | 48.57430 | 11.02099 | 87° | 80km/h | 4655m | -3.9m/s | -1.2°C | 58.4% | 586.1hPa | 2.7V | 00:00:00 | 00:00:00 | 00:00:00 | |
| DO3MHA-12 | 2026-09-04 13:23:31 | 48.57428 | 11.02037 | 87° | 77km/h | 4663m | -4.1m/s | -1.2°C | 60.5% | 585.4hPa | 2.7V | 00:00:00 | 02:54:12 | 00:00:00 | |
| NBG1-10 | 2026-09-04 13:23:28 | 48.57424 | 11.01947 | 87° | 73km/h | 4676m | -3.9m/s | -1.2°C | 59.1% | 584.6hPa | 2.7V | 00:00:00 | 02:54:09 | 00:00:00 | |
| DO3MHA-12 | 2026-09-04 13:23:26 | 48.57422 | 11.01891 | 87° | 69km/h | 4684m | -4.0m/s | -1.3°C | 58.6% | 583.9hPa | 2.7V | 00:00:00 | 02:54:07 | 00:00:00 | |
| DO3MHA-12 | 2026-09-04 13:23:21 | 48.57419 | 11.01760 | 92° | 68km/h | 4704m | -4.0m/s | -1.4°C | 59.2% | 582.3hPa | 2.7V | 00:00:00 | 02:54:02 | 00:00:00 | |
| DB0UT-7 | 2026-09-04 13:23:20 | 48.57420 | 11.01734 | 94° | 73km/h | 4708m | -3.9m/s | -1.4°C | 59.3% | 582.2hPa | 2.7V | 00:00:00 | 02:54:01 | 00:00:00 | |
| DO3MHA-12 | 2026-09-04 13:23:16 | 48.57425 | 11.01632 | 94° | 68km/h | 4724m | -4.0m/s | -1.6°C | 59.8% | 580.9hPa | 2.7V | 00:00:00 | 02:53:57 | 00:00:00 | |
| DL6DJ-15 | 2026-09-04 13:23:12 | 48.57433 | 11.01530 | 98° | 68km/h | 4740m | -4.1m/s | -1.7°C | 58.4% | 579.8hPa | 2.7V | 00:00:00 | 00:00:00 | 00:00:00 | |
| DO3MHA-12 | 2026-09-04 13:23:11 | 48.57436 | 11.01504 | 100° | 71km/h | 4744m | -4.1m/s | -1.7°C | 60.5% | 579.5hPa | 2.7V | 00:00:00 | 02:53:52 | 00:00:00 | |
| OE3JTB-15 | 2026-09-04 13:23:07 | 48.57448 | 11.01397 | 100° | 75km/h | 4761m | -4.0m/s | -1.9°C | 60.5% | 578.3hPa | 2.7V | 00:00:00 | 00:00:00 | 00:00:00 | |
| DO3MHA-12 | 2026-09-04 13:23:06 | 48.57451 | 11.01369 | 99° | 78km/h | 4765m | -4.3m/s | -1.9°C | 60.5% | 577.9hPa | 2.7V | 00:00:00 | 02:53:47 | 00:00:00 | |
| DF3TZ-5 | 2026-09-04 13:23:02 | 48.57461 | 11.01250 | 95° | 78km/h | 4781m | -4.1m/s | -2.2°C | 59.1% | 576.8hPa | 2.7V | 00:00:00 | 00:00:00 | 00:00:00 | |
| DO3MHA-11 | 2026-09-04 13:23:01 | 48.57462 | 11.01219 | 95° | 80km/h | 4785m | -4.1m/s | -2.1°C | 60.8% | 576.4hPa | 2.7V | 00:00:00 | 02:53:42 | 00:00:00 | |
| DO3MHA-11 | 2026-09-04 13:22:56 | 48.57467 | 11.01067 | 91° | 77km/h | 4806m | -4.2m/s | -2.4°C | 61.0% | 575.0hPa | 2.7V | 00:00:00 | 02:53:37 | 00:00:00 | |
| NBG1-10 | 2026-09-04 13:22:55 | 48.57467 | 11.01037 | 90° | 73km/h | 4810m | -4.1m/s | -2.4°C | 61.0% | 574.7hPa | 2.7V | 00:00:00 | 02:53:36 | 00:00:00 | |
| DO3MHA-12 | 2026-09-04 13:22:51 | 48.57464 | 11.00923 | 88° | 68km/h | 4827m | -4.1m/s | -2.5°C | 59.9% | 573.5hPa | 2.7V | 00:00:00 | 02:53:32 | 00:00:00 | |
| DB0UT-7 | 2026-09-04 13:22:50 | 48.57463 | 11.00897 | 88° | 73km/h | 4831m | -4.0m/s | -2.5°C | 58.7% | 573.3hPa | 2.6V | 00:00:00 | 00:00:00 | 00:00:00 | |
| DO3MHA-12 | 2026-09-04 13:22:46 | 48.57463 | 11.00795 | 93° | 66km/h | 4848m | -4.3m/s | -2.6°C | 57.5% | 572.0hPa | 2.6V | 00:00:00 | 02:53:27 | 00:00:00 | |
| DO3MHA-12 | 2026-09-04 13:22:41 | 48.57473 | 11.00670 | 100° | 71km/h | 4869m | -4.2m/s | -2.7°C | 65.6% | 570.5hPa | 2.6V | 00:00:00 | 02:53:22 | 00:00:00 | |
| DO3MHA-12 | 2026-09-04 13:22:37 | 48.57489 | 11.00534 | 100° | 78km/h | 4890m | -4.2m/s | -2.9°C | 70.7% | 568.9hPa | 2.6V | 00:00:00 | 02:53:17 | 00:00:00 | |
| DL9SK-14 | 2026-09-04 13:22:36 | 48.57495 | 11.00475 | 98° | 78km/h | 4899m | -4.3m/s | -3.1°C | 70.9% | 568.3hPa | 2.6V | 00:00:00 | 00:00:00 | 00:00:00 | |
| DO3MHA-12 | 2026-09-04 13:22:31 | 48.57503 | 11.00384 | 97° | 78km/h | 4912m | -4.1m/s | -3.2°C | 79.1% | 567.4hPa | 2.6V | 00:00:00 | 02:53:12 | 00:00:00 | |
| DO3MHA-12 | 2026-09-04 13:22:26 | 48.57508 | 11.00233 | 90° | 78km/h | 4933m | -4.2m/s | -3.4°C | 79.8% | 565.9hPa | 2.6V | 00:00:00 | 02:53:07 | 00:00:00 | |
| NBG1-10 | 2026-09-04 13:22:22 | 48.57508 | 11.00113 | 91° | 75km/h | 4950m | -4.3m/s | -3.5°C | 80.2% | 564.6hPa | 2.6V | 07:35:00 | 02:53:03 | 00:00:00 | |
| DO3MHA-11 | 2026-09-04 13:22:21 | 48.57508 | 11.00084 | 90° | 75km/h | 4955m | -4.3m/s | -3.6°C | 80.0% | 564.2hPa | 2.6V | 00:00:00 | 02:53:02 | 00:00:00 | |
| DB0UT-7 | 2026-09-04 13:22:20 | 48.57508 | 11.00055 | 89° | 75km/h | 4959m | -4.0m/s | -3.6°C | 79.7% | 564.0hPa | 2.6V | 07:35:00 | 02:53:01 | 00:00:00 | |
| DO3MHA-11 | 2026-09-04 13:22:16 | 48.57506 | 10.99941 | 90° | 69km/h | 4976m | -4.4m/s | -3.7°C | 76.4% | 562.7hPa | 2.6V | 00:00:00 | 02:52:57 | 00:00:00 | |
| DL0LBS | 2026-09-04 13:22:15 | 48.57505 | 10.99914 | 91° | 69km/h | 4980m | -4.3m/s | 0°C | 0% | 562.5hPa | 2.7V | 07:35:00 | 00:00:00 | 00:00:00 | |
| OE3JTB-15 | 2026-09-04 13:22:12 | 48.57507 | 10.99836 | 94° | 77km/h | 4993m | -4.1m/s | -3.8°C | 73.9% | 561.5hPa | 2.7V | 00:00:00 | 02:52:53 | 00:00:00 | |
| DO3MHA-12 | 2026-09-04 13:22:11 | 48.57508 | 10.99811 | 95° | 68km/h | 4998m | -4.3m/s | -3.9°C | 73.1% | 561.2hPa | 2.7V | 00:00:00 | 02:52:52 | 00:00:00 | |
| DL6DJ-15 | 2026-09-04 13:22:10 | 48.57510 | 10.99786 | 95° | 64km/h | 5002m | -4.2m/s | -3.9°C | 70.2% | 560.8hPa | 2.7V | 00:00:00 | 00:00:00 | 00:00:00 | |
| DO3MHA-11 | 2026-09-04 13:22:06 | 48.57519 | 10.99685 | 101° | 77km/h | 5019m | -4.3m/s | -4.0°C | 70.9% | 559.7hPa | 2.7V | 00:00:00 | 02:52:47 | 00:00:00 | |
| DO3MHA-12 | 2026-09-04 13:22:05 | 48.57523 | 10.99659 | 102° | 78km/h | 5024m | -4.4m/s | -4.0°C | 71.0% | 559.3hPa | 2.7V | 00:00:00 | 02:52:46 | 00:00:00 | |
| DL9SK-14 | 2026-09-04 13:22:04 | 48.57530 | 10.99605 | 101° | 75km/h | 5032m | -4.3m/s | -4.1°C | 67.8% | 558.7hPa | 2.6V | 00:00:00 | 00:00:00 | 00:00:00 | |
| DF3TZ-5 | 2026-09-04 13:22:00 | 48.57542 | 10.99518 | 100° | 78km/h | 5045m | -4.5m/s | -4.3°C | 67.8% | 557.9hPa | 2.6V | 00:00:00 | 00:00:00 | 00:00:00 | |
| DB0NH | 2026-09-04 13:21:56 | 48.57557 | 10.99396 | 100° | 77km/h | 5062m | -4.5m/s | -4.3°C | 71.6% | 556.7hPa | 2.6V | 00:00:00 | 02:52:37 | 00:00:00 | |
| DO3MHA-12 | 2026-09-04 13:21:55 | 48.57560 | 10.99365 | 100° | 82km/h | 5067m | -4.3m/s | -4.4°C | 71.7% | 556.2hPa | 2.7V | 00:00:00 | 02:52:36 | 00:00:00 | |
| DB0UT-7 | 2026-09-04 13:21:50 | 48.57572 | 10.99207 | 95° | 77km/h | 5089m | -4.4m/s | -4.6°C | 73.1% | 554.8hPa | 2.7V | 00:00:00 | 00:00:00 | 00:00:00 | |
| NBG1-10 | 2026-09-04 13:21:49 | 48.57573 | 10.99175 | 95° | 78km/h | 5093m | -4.3m/s | -4.7°C | 73.5% | 554.5hPa | 2.6V | 00:00:00 | 02:52:30 | 00:00:00 | |
| DO3MHA-11 | 2026-09-04 13:21:46 | 48.57577 | 10.99082 | 93° | 77km/h | 5106m | -4.4m/s | -4.8°C | 74.1% | 553.6hPa | 2.6V | 00:00:00 | 02:52:27 | 00:00:00 | |
| DO3MHA-12 | 2026-09-04 13:21:45 | 48.57578 | 10.99051 | 93° | 75km/h | 5110m | -4.2m/s | -4.8°C | 74.2% | 553.1hPa | 2.6V | 00:00:00 | 02:52:26 | 00:00:00 | |
| OE3JTB-15 | 2026-09-04 13:21:43 | 48.57580 | 10.98991 | 92° | 77km/h | 5119m | -4.5m/s | -4.9°C | 74.4% | 552.7hPa | 2.6V | 00:00:00 | 00:00:00 | 00:00:00 | |
| DL6DJ-15 | 2026-09-04 13:21:39 | 48.57582 | 10.98873 | 92° | 73km/h | 5137m | -4.5m/s | -5.1°C | 72.0% | 551.5hPa | 2.6V | 00:00:00 | 00:00:00 | 00:00:00 | |
| DO3MHA-11 | 2026-09-04 13:21:36 | 48.57585 | 10.98792 | 96° | 71km/h | 5150m | -4.3m/s | -5.1°C | 75.0% | 550.6hPa | 2.6V | 00:00:00 | 02:52:17 | 00:00:00 | |
| DO3MHA-12 | 2026-09-04 13:21:35 | 48.57587 | 10.98766 | 96° | 73km/h | 5154m | -4.3m/s | -5.1°C | 75.9% | 550.1hPa | 2.6V | 00:00:00 | 02:52:16 | 00:00:00 | |
| DF3TZ-5 | 2026-09-04 13:21:29 | 48.57610 | 10.98578 | 103° | 75km/h | 5185m | -4.2m/s | -5.4°C | 76.2% | 548.1hPa | 2.7V | 00:00:00 | 00:00:00 | 00:00:00 | |
| DB0NH | 2026-09-04 13:21:26 | 48.57619 | 10.98520 | 104° | 77km/h | 5193m | -4.2m/s | -5.5°C | 81.1% | 547.4hPa | 2.7V | 00:00:00 | 02:52:07 | 00:00:00 | |
| DO3MHA-12 | 2026-09-04 13:21:25 | 48.57624 | 10.98490 | 104° | 84km/h | 5198m | -4.3m/s | -5.5°C | 81.5% | 547.2hPa | 2.7V | 00:00:00 | 02:52:06 | 00:00:00 | |
| DB0UT-7 | 2026-09-04 13:21:20 | 48.57643 | 10.98332 | 96° | 78km/h | 5219m | -4.3m/s | -5.7°C | 82.0% | 545.6hPa | 2.7V | 00:00:00 | 02:52:01 | 00:00:00 | |
| NBG1-10 | 2026-09-04 13:21:16 | 48.57648 | 10.98204 | 92° | 78km/h | 5236m | -4.3m/s | -5.9°C | 81.1% | 544.5hPa | 2.7V | 00:00:00 | 02:51:57 | 00:00:00 | |
| DO3MHA-12 | 2026-09-04 13:21:15 | 48.57649 | 10.98175 | 92° | 73km/h | 5241m | -4.0m/s | -5.9°C | 81.4% | 544.1hPa | 2.7V | 00:00:00 | 02:51:56 | 00:00:00 | |
| OE3JTB-15 | 2026-09-04 13:21:14 | 48.57650 | 10.98146 | 93° | 78km/h | 5245m | -4.3m/s | -6.0°C | 81.5% | 543.8hPa | 2.7V | 00:00:00 | 00:00:00 | 00:00:00 | |
| DL6DJ-15 | 2026-09-04 13:21:08 | 48.57656 | 10.97980 | 95° | 69km/h | 5271m | -4.4m/s | -6.2°C | 79.0% | 542.0hPa | 2.7V | 00:00:00 | 00:00:00 | 00:00:00 | |
| DO3MHA-11 | 2026-09-04 13:21:06 | 48.57660 | 10.97927 | 98° | 75km/h | 5279m | -4.4m/s | -6.2°C | 82.1% | 541.4hPa | 2.7V | 00:00:00 | 02:51:47 | 00:00:00 | |
| DO3MHA-12 | 2026-09-04 13:21:05 | 48.57662 | 10.97900 | 100° | 77km/h | 5284m | -4.3m/s | -6.2°C | 82.3% | 541.0hPa | 2.7V | 07:36:00 | 02:51:46 | 00:00:00 | |
| DL9SK-14 | 2026-09-04 13:21:02 | 48.57677 | 10.97791 | 102° | 75km/h | 5301m | -4.3m/s | -6.4°C | 80.3% | 539.9hPa | 2.7V | 00:00:00 | 00:00:00 | 00:00:00 | |
| DF3TZ-5 | 2026-09-04 13:20:58 | 48.57690 | 10.97703 | 101° | 80km/h | 5314m | -4.3m/s | -6.5°C | 80.7% | 539.1hPa | 2.7V | 00:00:00 | 00:00:00 | 00:00:00 | |
| DO3MHA-11 | 2026-09-04 13:20:56 | 48.57698 | 10.97642 | 102° | 86km/h | 5323m | -4.2m/s | -6.6°C | 83.8% | 538.3hPa | 2.7V | 07:36:00 | 02:51:37 | 00:00:00 | |
| DO3MHA-12 | 2026-09-04 13:20:55 | 48.57702 | 10.97611 | 102° | 86km/h | 5327m | -4.4m/s | -6.6°C | 83.7% | 538.1hPa | 2.7V | 00:00:00 | 02:51:36 | 00:00:00 | |
| DB0UT-7 | 2026-09-04 13:20:50 | 48.57718 | 10.97449 | 96° | 77km/h | 5348m | -4.4m/s | -6.8°C | 78.7% | 536.7hPa | 2.7V | 00:00:00 | 00:00:00 | 00:00:00 | |
| DM7RM-13 | 2026-09-04 13:20:48 | 48.57720 | 10.97416 | 96° | 88km/h | 5353m | -4.3m/s | -6.9°C | 75.1% | 536.4hPa | 2.7V | 00:00:00 | 00:00:00 | 00:00:00 | |
| DO3MHA-11 | 2026-09-04 13:20:46 | 48.57724 | 10.97319 | 92° | 77km/h | 5365m | -4.3m/s | -6.9°C | 78.4% | 535.5hPa | 2.7V | 00:00:00 | 02:51:27 | 00:00:00 | |
| NBG1-10 | 2026-09-04 13:20:43 | 48.57725 | 10.97229 | 92° | 77km/h | 5378m | -4.3m/s | -7.0°C | 80.0% | 534.6hPa | 2.7V | 00:00:00 | 02:51:24 | 00:00:00 | |
| DL6DJ-15 | 2026-09-04 13:20:37 | 48.57729 | 10.97059 | 93° | 71km/h | 5403m | -4.4m/s | -7.3°C | 77.2% | 532.8hPa | 2.7V | 00:00:00 | 00:00:00 | 00:00:00 | |
| DO3MHA-11 | 2026-09-04 13:20:36 | 48.57730 | 10.97031 | 94° | 73km/h | 5408m | -4.3m/s | -7.2°C | 80.1% | 532.5hPa | 2.7V | 00:00:00 | 02:51:17 | 00:00:00 | |
| DO3MHA-12 | 2026-09-04 13:20:35 | 48.57731 | 10.97004 | 94° | 75km/h | 5413m | -4.2m/s | -7.3°C | 80.0% | 532.2hPa | 2.7V | 00:00:00 | 02:51:16 | 00:00:00 | |
| DK5PH-5 | 2026-09-04 13:20:30 | 48.57742 | 10.96870 | 101° | 80km/h | 5434m | -4.2m/s | -7.4°C | 79.9% | 530.8hPa | 2.6V | 00:00:00 | 02:51:11 | 00:00:00 | |
| DF3TZ-5 | 2026-09-04 13:20:27 | 48.57758 | 10.96756 | 101° | 78km/h | 5450m | -4.3m/s | -7.6°C | 77.0% | 529.6hPa | 2.6V | 00:00:00 | 00:00:00 | 00:00:00 | |
| DB0NH | 2026-09-04 13:20:26 | 48.57758 | 10.96756 | 102° | 78km/h | 5450m | -4.2m/s | -7.5°C | 80.0% | 529.6hPa | 2.6V | 07:37:00 | 02:51:07 | 00:00:00 | |
| DO3MHA-12 | 2026-09-04 13:20:24 | 48.57766 | 10.96696 | 101° | 84km/h | 5459m | -4.3m/s | -7.6°C | 80.5% | 529.1hPa | 2.6V | 00:00:00 | 02:51:05 | 00:00:00 | |
| DB0UT-7 | 2026-09-04 13:20:20 | 48.57779 | 10.96569 | 97° | 80km/h | 5476m | -4.3m/s | -7.7°C | 82.6% | 528.0hPa | 2.6V | 00:00:00 | 02:51:01 | 00:00:00 | |
| DO3MHA-11 | 2026-09-04 13:20:16 | 48.57786 | 10.96439 | 93° | 77km/h | 5494m | -4.1m/s | -7.8°C | 82.6% | 526.7hPa | 2.7V | 00:00:00 | 02:50:57 | 00:00:00 | |
| DO3MHA-12 | 2026-09-04 13:20:14 | 48.57787 | 10.96377 | 91° | 75km/h | 5503m | -4.2m/s | -7.9°C | 82.7% | 526.3hPa | 2.7V | 00:00:00 | 02:50:55 | 00:00:00 | |
| NBG1-10 | 2026-09-04 13:20:10 | 48.57790 | 10.96262 | 97° | 80km/h | 5520m | -4.2m/s | -8.0°C | 81.2% | 525.0hPa | 2.7V | 00:00:00 | 02:50:51 | 00:00:00 | |
| DO3MHA-11 | 2026-09-04 13:20:06 | 48.57800 | 10.96153 | 100° | 78km/h | 5537m | -4.3m/s | -8.1°C | 80.1% | 523.9hPa | 2.7V | 00:00:00 | 02:50:47 | 00:00:00 | |
| DO3MHA-12 | 2026-09-04 13:20:04 | 48.57807 | 10.96098 | 103° | 82km/h | 5546m | -4.2m/s | -8.2°C | 79.4% | 523.3hPa | 2.7V | 00:00:00 | 02:50:45 | 00:00:00 | |
| DL9SK-14 | 2026-09-04 13:19:59 | 48.57831 | 10.95953 | 103° | 82km/h | 5567m | -4.0m/s | -8.4°C | 75.9% | 522.0hPa | 2.6V | 00:00:00 | 00:00:00 | 00:00:00 | |
| DO3MHA-11 | 2026-09-04 13:19:56 | 48.57846 | 10.95860 | 105° | 88km/h | 5579m | -4.0m/s | -8.4°C | 79.3% | 521.1hPa | 2.6V | 00:00:00 | 02:50:37 | 00:00:00 | |
| DO3MHA-12 | 2026-09-04 13:19:54 | 48.57856 | 10.95795 | 103° | 86km/h | 5588m | -4.3m/s | -8.5°C | 80.3% | 520.5hPa | 2.7V | 00:00:00 | 02:50:35 | 00:00:00 | |
| DL0LBS | 2026-09-04 13:19:53 | 48.57870 | 10.95663 | 97° | 86km/h | 5604m | -4.2m/s | 0°C | 0% | 519.4hPa | 2.7V | 00:00:00 | 00:00:00 | 00:00:00 | |
| DB0UT-7 | 2026-09-04 13:19:50 | 48.57870 | 10.95663 | 96° | 80km/h | 5604m | -4.2m/s | -8.6°C | 82.6% | 519.3hPa | 2.7V | 00:00:00 | 00:00:00 | 00:00:00 | |
| DO3MHA-11 | 2026-09-04 13:19:46 | 48.57877 | 10.95533 | 95° | 77km/h | 5621m | -4.1m/s | -8.7°C | 82.9% | 518.3hPa | 2.7V | 00:00:00 | 02:50:27 | 00:00:00 | |
| DO3MHA-12 | 2026-09-04 13:19:44 | 48.57881 | 10.95472 | 95° | 75km/h | 5630m | -4.1m/s | -8.9°C | 84.2% | 517.7hPa | 2.7V | 07:37:00 | 02:50:25 | 00:00:00 | |
| OE3JTB-15 | 2026-09-04 13:19:41 | 48.57886 | 10.95384 | 96° | 75km/h | 5642m | -4.2m/s | -8.9°C | 82.0% | 516.9hPa | 2.7V | 00:00:00 | 00:00:00 | 00:00:00 | |
| NBG1-10 | 2026-09-04 13:19:37 | 48.57896 | 10.95273 | 102° | 78km/h | 5659m | -4.1m/s | -8.9°C | 78.9% | 515.7hPa | 2.7V | 00:00:00 | 02:50:18 | 00:00:00 | |
| DO3MHA-11 | 2026-09-04 13:19:36 | 48.57900 | 10.95245 | 104° | 82km/h | 5663m | -4.1m/s | -8.9°C | 77.8% | 515.5hPa | 2.7V | 07:38:00 | 02:50:17 | 00:00:00 | |
| DL6DJ-15 | 2026-09-04 13:19:35 | 48.57909 | 10.95191 | 106° | 75km/h | 5671m | -4.1m/s | -9.0°C | 72.9% | 515.0hPa | 2.7V | 00:00:00 | 00:00:00 | 00:00:00 | |
| DO3MHA-12 | 2026-09-04 13:19:34 | 48.57909 | 10.95190 | 107° | 84km/h | 5671m | -4.1m/s | -8.9°C | 75.9% | 515.0hPa | 2.7V | 00:00:00 | 02:50:15 | 00:00:00 | |
| DM7RM-13 | 2026-09-04 13:19:31 | 48.57921 | 10.95133 | 108° | 82km/h | 5679m | -4.2m/s | -9.0°C | 71.4% | 514.5hPa | 2.6V | 00:00:00 | 00:00:00 | 00:00:00 | |
| DL9SK-14 | 2026-09-04 13:19:28 | 48.57944 | 10.95006 | 102° | 88km/h | 5696m | -4.1m/s | -9.2°C | 69.6% | 513.4hPa | 2.6V | 00:00:00 | 00:00:00 | 00:00:00 | |
| DO3MHA-11 | 2026-09-04 13:19:26 | 48.57951 | 10.94940 | 99° | 80km/h | 5704m | -4.0m/s | -9.2°C | 72.7% | 512.7hPa | 2.6V | 00:00:00 | 02:50:07 | 00:00:00 | |
| DF3TZ-5 | 2026-09-04 13:19:25 | 48.57957 | 10.94876 | 95° | 84km/h | 5712m | -4.1m/s | -9.3°C | 68.5% | 512.2hPa | 2.7V | 00:00:00 | 00:00:00 | 00:00:00 | |
| DO3MHA-12 | 2026-09-04 13:19:24 | 48.57957 | 10.94876 | 96° | 77km/h | 5712m | -4.1m/s | -9.2°C | 71.4% | 512.2hPa | 2.7V | 00:00:00 | 02:50:05 | 00:00:00 | |
| DB0UT-7 | 2026-09-04 13:19:20 | 48.57963 | 10.94752 | 95° | 78km/h | 5728m | -4.1m/s | -9.3°C | 68.5% | 511.1hPa | 2.7V | 00:00:00 | 02:50:01 | 00:00:00 | |
| DO3MHA-11 | 2026-09-04 13:19:16 | 48.57973 | 10.94642 | 102° | 73km/h | 5744m | -3.8m/s | -9.2°C | 64.9% | 510.1hPa | 2.7V | 00:00:00 | 02:49:57 | 00:00:00 | |
| DO3MHA-12 | 2026-09-04 13:19:14 | 48.57980 | 10.94590 | 104° | 75km/h | 5752m | -4.0m/s | -9.3°C | 63.8% | 509.5hPa | 2.7V | 00:00:00 | 02:49:55 | 00:00:00 | |
| DM7RM-13 | 2026-09-04 13:19:08 | 48.58003 | 10.94456 | 107° | 75km/h | 5773m | -4.0m/s | -9.4°C | 63.3% | 508.2hPa | 2.7V | 07:39:00 | 00:00:00 | 00:00:00 | |
| DO3MHA-11 | 2026-09-04 13:19:06 | 48.58021 | 10.94370 | 107° | 84km/h | 5784m | -3.9m/s | -9.5°C | 66.4% | 507.5hPa | 2.7V | 00:00:00 | 02:49:47 | 00:00:00 | |
| DO3MHA-12 | 2026-09-04 13:19:04 | 48.58032 | 10.94310 | 106° | 84km/h | 5792m | -3.9m/s | -9.5°C | 66.6% | 506.9hPa | 2.7V | 00:00:00 | 02:49:45 | 00:00:00 | |
| DL9SK-14 | 2026-09-04 13:18:57 | 48.58064 | 10.94089 | 98° | 84km/h | 5820m | -3.9m/s | -9.8°C | 63.5% | 505.1hPa | 2.6V | 00:00:00 | 00:00:00 | 00:00:00 | |
| DB0NH | 2026-09-04 13:18:56 | 48.58067 | 10.94058 | 98° | 78km/h | 5824m | -3.9m/s | -9.8°C | 66.4% | 504.8hPa | 2.6V | 00:00:00 | 02:49:37 | 00:00:00 | |
| DO3MHA-12 | 2026-09-04 13:18:54 | 48.58072 | 10.93995 | 97° | 75km/h | 5832m | -4.0m/s | -9.8°C | 66.5% | 504.3hPa | 2.6V | 00:00:00 | 02:49:35 | 00:00:00 | |
| OE3JTB-15 | 2026-09-04 13:18:50 | 48.58079 | 10.93876 | 96° | 78km/h | 5849m | -4.0m/s | -10.0°C | 68.0% | 503.2hPa | 2.6V | 00:00:00 | 00:00:00 | 00:00:00 | |
| DO3MHA-11 | 2026-09-04 13:18:46 | 48.58090 | 10.93767 | 103° | 73km/h | 5864m | -3.8m/s | -10.0°C | 68.4% | 502.3hPa | 2.6V | 00:00:00 | 02:49:27 | 00:00:00 | |
| DO3MHA-12 | 2026-09-04 13:18:44 | 48.58098 | 10.93714 | 104° | 75km/h | 5872m | -3.9m/s | -10.0°C | 68.8% | 501.7hPa | 2.6V | 00:00:00 | 02:49:25 | 00:00:00 | |
| DO3MHA-11 | 2026-09-04 13:18:36 | 48.58141 | 10.93500 | 109° | 86km/h | 5904m | -4.1m/s | -10.2°C | 69.0% | 499.7hPa | 2.6V | 00:00:00 | 02:49:17 | 00:00:00 | |
| DO3MHA-12 | 2026-09-04 13:18:34 | 48.58154 | 10.93440 | 108° | 86km/h | 5912m | -3.9m/s | -10.3°C | 69.7% | 499.2hPa | 2.6V | 00:00:00 | 02:49:15 | 00:00:00 | |
| DL6DJ-15 | 2026-09-04 13:18:33 | 48.58167 | 10.93379 | 106° | 84km/h | 5920m | -4.1m/s | -10.4°C | 66.4% | 498.7hPa | 2.7V | 00:00:00 | 00:00:00 | 00:00:00 | |
| NBG1-10 | 2026-09-04 13:18:31 | 48.58173 | 10.93347 | 106° | 82km/h | 5924m | -3.9m/s | -10.3°C | 68.9% | 498.4hPa | 2.7V | 00:00:00 | 02:49:12 | 00:00:00 | |
| DM7RM-13 | 2026-09-04 13:18:30 | 48.58173 | 10.93347 | 107° | 86km/h | 5924m | -3.9m/s | -10.4°C | 66.0% | 498.5hPa | 2.7V | 07:39:00 | 00:00:00 | 00:00:00 | |
| DO3MHA-11 | 2026-09-04 13:18:26 | 48.58198 | 10.93184 | 101° | 82km/h | 5944m | -3.9m/s | -10.5°C | 64.3% | 497.1hPa | 2.7V | 00:00:00 | 02:49:07 | 00:00:00 | |
| DO3MHA-12 | 2026-09-04 13:18:24 | 48.58205 | 10.93119 | 99° | 78km/h | 5951m | -3.8m/s | -10.5°C | 62.7% | 496.7hPa | 2.6V | 07:39:00 | 02:49:05 | 00:00:00 | |
| DB0UT-7 | 2026-09-04 13:18:20 | 48.58214 | 10.92995 | 96° | 82km/h | 5966m | -3.8m/s | -10.6°C | 62.5% | 495.6hPa | 2.6V | 07:39:00 | 02:49:01 | 00:00:00 | |
| DF9NV-10 | 2026-09-04 13:18:19 | 48.58214 | 10.92994 | 96° | 78km/h | 5966m | -3.9m/s | 0°C | 0% | 0hPa | 2.6V | 00:00:00 | 00:00:00 | 00:00:00 | |
| DO3MHA-11 | 2026-09-04 13:18:16 | 48.58223 | 10.92878 | 99° | 77km/h | 5982m | -3.6m/s | -10.7°C | 61.9% | 494.6hPa | 2.6V | 07:39:00 | 02:48:57 | 00:00:00 | |
| DO3MHA-12 | 2026-09-04 13:18:14 | 48.58229 | 10.92823 | 102° | 80km/h | 5989m | -3.6m/s | -10.6°C | 60.7% | 494.3hPa | 2.6V | 00:00:00 | 02:48:55 | 00:00:00 | |
| DF7PN | 2026-09-04 13:18:12 | 48.58237 | 10.92768 | 103° | 73km/h | 5996m | -3.8m/s | -10.7°C | 54.8% | 493.8hPa | 2.6V | 00:00:00 | 00:00:00 | 00:00:00 | |
| DM7RM-13 | 2026-09-04 13:18:10 | 48.58242 | 10.92741 | 106° | 75km/h | 6000m | -3.8m/s | -10.7°C | 50.8% | 493.6hPa | 2.6V | 07:40:00 | 00:00:00 | 00:00:00 | |
| DB0ND-19 | 2026-09-04 13:18:09 | 48.58252 | 10.92684 | 105° | 78km/h | 6008m | -3.9m/s | -10.7°C | 43.6% | 493.1hPa | 2.6V | 00:00:00 | 00:00:00 | 00:00:00 | |
| DO3MHA-11 | 2026-09-04 13:18:06 | 48.58269 | 10.92591 | 105° | 89km/h | 6019m | -3.6m/s | -10.7°C | 43.8% | 492.4hPa | 2.6V | 00:00:00 | 02:48:47 | 00:00:00 | |
| DO3MHA-12 | 2026-09-04 13:18:04 | 48.58280 | 10.92527 | 106° | 89km/h | 6027m | -3.8m/s | -10.7°C | 44.0% | 491.8hPa | 2.6V | 00:00:00 | 02:48:45 | 00:00:00 | |
| DL6DJ-15 | 2026-09-04 13:18:02 | 48.58299 | 10.92429 | 105° | 88km/h | 6037m | -3.9m/s | -10.8°C | 40.2% | 491.2hPa | 2.7V | 00:00:00 | 00:00:00 | 00:00:00 | |
| DL9SK-14 | 2026-09-04 13:17:55 | 48.58323 | 10.92225 | 95° | 88km/h | 6059m | -3.8m/s | -11.0°C | 40.1% | 489.8hPa | 2.7V | 00:00:00 | 00:00:00 | 00:00:00 | |
| DF3TZ-5 | 2026-09-04 13:17:52 | 48.58331 | 10.92096 | 95° | 80km/h | 6074m | -3.6m/s | -11.0°C | 37.8% | 488.9hPa | 2.7V | 00:00:00 | 00:00:00 | 00:00:00 | |
| OE3JTB-15 | 2026-09-04 13:17:51 | 48.58331 | 10.92096 | 96° | 88km/h | 6074m | -3.5m/s | -10.9°C | 39.6% | 488.8hPa | 2.7V | 00:00:00 | 00:00:00 | 00:00:00 | |
| DB0UT-7 | 2026-09-04 13:17:50 | 48.58332 | 10.92065 | 96° | 86km/h | 6078m | -3.6m/s | -10.9°C | 40.4% | 488.5hPa | 2.7V | 00:00:00 | 00:00:00 | 00:00:00 | |
| DO3MHA-11 | 2026-09-04 13:17:46 | 48.58342 | 10.91947 | 100° | 78km/h | 6092m | -3.4m/s | -10.9°C | 40.8% | 487.6hPa | 2.7V | 00:00:00 | 02:48:27 | 00:00:00 | |
| DO3MHA-12 | 2026-09-04 13:17:44 | 48.58349 | 10.91889 | 101° | 80km/h | 6099m | -3.5m/s | -11.0°C | 40.3% | 487.1hPa | 2.7V | 00:00:00 | 02:48:25 | 00:00:00 | |
| DF7PN | 2026-09-04 13:17:41 | 48.58361 | 10.91802 | 103° | 78km/h | 6110m | -3.7m/s | -11.1°C | 39.0% | 486.5hPa | 2.7V | 00:00:00 | 00:00:00 | 00:00:00 | |
| DO3MHA-11 | 2026-09-04 13:17:36 | 48.58389 | 10.91651 | 106° | 91km/h | 6129m | -3.6m/s | -11.2°C | 41.3% | 485.3hPa | 2.7V | 00:00:00 | 02:48:17 | 00:00:00 | |
| DO3MHA-12 | 2026-09-04 13:17:34 | 48.58400 | 10.91586 | 104° | 91km/h | 6136m | -3.5m/s | -11.3°C | 41.9% | 484.9hPa | 2.7V | 00:00:00 | 02:48:15 | 00:00:00 | |
| DL6DJ-15 | 2026-09-04 13:17:30 | 48.58420 | 10.91449 | 100° | 93km/h | 6150m | -3.5m/s | -11.5°C | 41.5% | 484.0hPa | 2.6V | 00:00:00 | 00:00:00 | 00:00:00 | |
| DM7RM-13 | 2026-09-04 13:17:29 | 48.58420 | 10.91449 | 101° | 93km/h | 6150m | -3.5m/s | -11.5°C | 41.5% | 484.0hPa | 2.6V | 07:40:00 | 00:00:00 | 00:00:00 | |
| DO3MHA-11 | 2026-09-04 13:17:26 | 48.58433 | 10.91309 | 97° | 88km/h | 6164m | -3.5m/s | -11.6°C | 47.4% | 483.1hPa | 2.6V | 00:00:00 | 02:48:07 | 00:00:00 | |
| NBG1-10 | 2026-09-04 13:17:25 | 48.58436 | 10.91274 | 97° | 86km/h | 6167m | -3.5m/s | -11.6°C | 49.7% | 482.9hPa | 2.7V | 00:00:00 | 02:48:06 | 00:00:00 | |
| DO3MHA-12 | 2026-09-04 13:17:24 | 48.58438 | 10.91240 | 97° | 84km/h | 6171m | -3.5m/s | -11.6°C | 48.7% | 482.7hPa | 2.6V | 00:00:00 | 02:48:05 | 00:00:00 | |
| DF3TZ-5 | 2026-09-04 13:17:21 | 48.58447 | 10.91106 | 94° | 84km/h | 6185m | -3.4m/s | -11.8°C | 45.3% | 481.8hPa | 2.6V | 00:00:00 | 00:00:00 | 00:00:00 | |
| DK5PH-5 | 2026-09-04 13:17:20 | 48.58447 | 10.91106 | 95° | 86km/h | 6185m | -3.3m/s | -11.7°C | 47.6% | 481.8hPa | 2.6V | 00:00:00 | 02:48:01 | 00:00:00 | |
| DO3MHA-11 | 2026-09-04 13:17:16 | 48.58455 | 10.90982 | 99° | 82km/h | 6198m | -3.3m/s | -11.7°C | 47.3% | 481.0hPa | 2.6V | 00:00:00 | 02:47:57 | 00:00:00 | |
| DH7VM-15 | 2026-09-04 13:17:15 | 48.58455 | 10.90982 | 99° | 78km/h | 6198m | -3.4m/s | -11.8°C | 45.0% | 481.0hPa | 2.6V | 00:00:00 | 00:00:00 | 00:00:00 | |
| DO3MHA-12 | 2026-09-04 13:17:14 | 48.58462 | 10.90923 | 103° | 86km/h | 6205m | -3.3m/s | -11.8°C | 47.9% | 480.5hPa | 2.6V | 00:00:00 | 02:47:55 | 00:00:00 | |
| DO9HM | 2026-09-04 13:17:13 | 48.58462 | 10.90923 | 103° | 77km/h | 6205m | -3.4m/s | -11.8°C | 45.6% | 480.6hPa | 2.6V | 00:00:00 | 00:00:00 | 00:00:00 | |
| DF7PN | 2026-09-04 13:17:10 | 48.58484 | 10.90804 | 107° | 86km/h | 6219m | -3.7m/s | -11.9°C | 46.2% | 479.8hPa | 2.6V | 00:00:00 | 00:00:00 | 00:00:00 | |
| DM7RM-13 | 2026-09-04 13:17:08 | 48.58491 | 10.90773 | 108° | 88km/h | 6222m | -3.4m/s | -11.9°C | 46.4% | 479.5hPa | 2.6V | 07:40:00 | 00:00:00 | 00:00:00 | |
| DB0ND-19 | 2026-09-04 13:17:07 | 48.58504 | 10.90708 | 106° | 89km/h | 6229m | -3.5m/s | -11.9°C | 46.4% | 479.1hPa | 2.6V | 00:00:00 | 00:00:00 | 00:00:00 | |
| DO3MHA-11 | 2026-09-04 13:17:06 | 48.58510 | 10.90675 | 106° | 93km/h | 6233m | -3.1m/s | -11.9°C | 48.6% | 478.8hPa | 2.6V | 00:00:00 | 02:47:47 | 00:00:00 | |
| DO3MHA-12 | 2026-09-04 13:17:04 | 48.58523 | 10.90607 | 105° | 91km/h | 6239m | -3.1m/s | -11.9°C | 48.8% | 478.4hPa | 2.6V | 07:40:00 | 02:47:45 | 00:00:00 | |
| DL6DJ-15 | 2026-09-04 13:16:59 | 48.58548 | 10.90433 | 99° | 91km/h | 6255m | -3.3m/s | -12.1°C | 44.7% | 477.5hPa | 2.7V | 00:00:00 | 00:00:00 | 00:00:00 | |
| HARRO8 | 2026-09-04 13:16:55 | 48.58561 | 10.90299 | 97° | 84km/h | 6269m | -3.3m/s | -12.2°C | 44.9% | 476.6hPa | 2.7V | 00:00:00 | 00:00:00 | 00:00:00 | |
| DL9SK-14 | 2026-09-04 13:16:53 | 48.58567 | 10.90237 | 99° | 80km/h | 6275m | -3.4m/s | -12.2°C | 44.7% | 476.2hPa | 2.7V | 00:00:00 | 00:00:00 | 00:00:00 | |
| DF3TZ-5 | 2026-09-04 13:16:49 | 48.58584 | 10.90119 | 105° | 78km/h | 6288m | -3.2m/s | -12.3°C | 44.1% | 475.3hPa | 2.7V | 00:00:00 | 00:00:00 | 00:00:00 | |
| DM7RM-13 | 2026-09-04 13:16:47 | 48.58590 | 10.90090 | 108° | 80km/h | 6292m | -3.4m/s | -12.3°C | 44.4% | 475.2hPa | 2.7V | 07:40:00 | 00:00:00 | 00:00:00 | |
| DO3MHA-11 | 2026-09-04 13:16:46 | 48.58602 | 10.90031 | 109° | 89km/h | 6299m | -3.3m/s | -12.3°C | 48.5% | 474.7hPa | 2.7V | 00:00:00 | 02:47:27 | 00:00:00 | |
| DO3MHA-12 | 2026-09-04 13:16:44 | 48.58616 | 10.89969 | 109° | 93km/h | 6305m | -3.3m/s | -12.4°C | 48.4% | 474.2hPa | 2.7V | 00:00:00 | 02:47:25 | 00:00:00 | |
| DO3MHA-11 | 2026-09-04 13:16:36 | 48.58671 | 10.89700 | 103° | 89km/h | 6332m | -3.1m/s | -12.6°C | 47.1% | 472.6hPa | 2.7V | 00:00:00 | 02:47:17 | 00:00:00 | |
| DO3MHA-12 | 2026-09-04 13:16:34 | 48.58680 | 10.89629 | 101° | 86km/h | 6339m | -3.2m/s | -12.7°C | 46.9% | 472.2hPa | 2.7V | 00:00:00 | 02:47:15 | 00:00:00 | |
| DL6DJ-15 | 2026-09-04 13:16:28 | 48.58702 | 10.89429 | 100° | 80km/h | 6358m | -3.4m/s | -12.8°C | 43.4% | 471.0hPa | 2.7V | 00:00:00 | 00:00:00 | 00:00:00 | |
| DB0NH | 2026-09-04 13:16:26 | 48.58711 | 10.89369 | 105° | 88km/h | 6365m | -3.2m/s | -12.8°C | 45.0% | 470.5hPa | 2.7V | 07:41:00 | 02:47:07 | 00:00:00 | |
| OE3JTB-15 | 2026-09-04 13:16:24 | 48.58722 | 10.89311 | 108° | 88km/h | 6372m | -3.2m/s | -12.8°C | 44.7% | 470.1hPa | 2.7V | 00:00:00 | 00:00:00 | 00:00:00 | |
| DL9SK-14 | 2026-09-04 13:16:22 | 48.58736 | 10.89252 | 109° | 84km/h | 6378m | -3.5m/s | -12.9°C | 45.8% | 469.8hPa | 2.7V | 00:00:00 | 00:00:00 | 00:00:00 | |
| DB0UT-7 | 2026-09-04 13:16:20 | 48.58751 | 10.89189 | 111° | 89km/h | 6385m | -3.1m/s | -12.9°C | 47.9% | 469.3hPa | 2.7V | 00:00:00 | 02:47:01 | 00:00:00 | |
| NBG1-10 | 2026-09-04 13:16:19 | 48.58759 | 10.89157 | 110° | 89km/h | 6388m | -3.2m/s | -12.9°C | 48.2% | 469.1hPa | 2.7V | 00:00:00 | 02:47:00 | 00:00:00 | |
| DF3TZ-5 | 2026-09-04 13:16:18 | 48.58767 | 10.89123 | 109° | 93km/h | 6392m | -3.3m/s | -13.0°C | 46.2% | 468.9hPa | 2.7V | 00:00:00 | 00:00:00 | 00:00:00 | |
| DO3MHA-11 | 2026-09-04 13:16:16 | 48.58782 | 10.89054 | 107° | 91km/h | 6398m | -3.3m/s | -13.0°C | 47.7% | 468.6hPa | 2.7V | 00:00:00 | 02:46:57 | 00:00:00 | |
| DO9HM | 2026-09-04 13:16:15 | 48.58782 | 10.89054 | 108° | 97km/h | 6398m | -3.3m/s | -13.1°C | 45.3% | 468.6hPa | 2.7V | 00:00:00 | 00:00:00 | 00:00:00 | |
| DO3MHA-12 | 2026-09-04 13:16:14 | 48.58795 | 10.88982 | 104° | 88km/h | 6405m | -3.5m/s | -13.2°C | 48.6% | 468.1hPa | 2.7V | 00:00:00 | 02:46:55 | 00:00:00 | |
| DH7VM-15 | 2026-09-04 13:16:10 | 48.58810 | 10.88876 | 101° | 93km/h | 6415m | -3.2m/s | -13.3°C | 47.3% | 467.5hPa | 2.7V | 00:00:00 | 00:00:00 | 00:00:00 | |
| DF7PN | 2026-09-04 13:16:08 | 48.58827 | 10.88746 | 103° | 80km/h | 6427m | -3.2m/s | -13.3°C | 46.6% | 466.7hPa | 2.7V | 00:00:00 | 00:00:00 | 00:00:00 | |
| DO3MHA-11 | 2026-09-04 13:16:06 | 48.58832 | 10.88716 | 106° | 84km/h | 6431m | -3.3m/s | -13.3°C | 48.7% | 466.5hPa | 2.7V | 00:00:00 | 02:46:47 | 00:00:00 | |
| DB0ND-19 | 2026-09-04 13:16:05 | 48.58844 | 10.88657 | 108° | 80km/h | 6437m | -3.3m/s | -13.3°C | 45.9% | 466.2hPa | 2.7V | 00:00:00 | 00:00:00 | 00:00:00 | |
| DO3MHA-12 | 2026-09-04 13:16:04 | 48.58844 | 10.88656 | 109° | 86km/h | 6437m | -3.3m/s | -13.3°C | 48.3% | 466.1hPa | 2.7V | 00:00:00 | 02:46:45 | 00:00:00 | |
| DL6DJ-15 | 2026-09-04 13:15:57 | 48.58898 | 10.88446 | 112° | 88km/h | 6460m | -3.4m/s | -13.5°C | 45.7% | 464.6hPa | 2.7V | 00:00:00 | 00:00:00 | 00:00:00 | |
| DL9SK-14 | 2026-09-04 13:15:51 | 48.58946 | 10.88241 | 104° | 95km/h | 6481m | -3.4m/s | -13.7°C | 45.2% | 463.4hPa | 2.7V | 00:00:00 | 00:00:00 | 00:00:00 | |
| DF3TZ-5 | 2026-09-04 13:15:47 | 48.58967 | 10.88108 | 103° | 82km/h | 6494m | -3.4m/s | -13.7°C | 40.3% | 462.6hPa | 2.7V | 00:00:00 | 00:00:00 | 00:00:00 | |
| NBG1-10 | 2026-09-04 13:15:46 | 48.58971 | 10.88077 | 105° | 88km/h | 6498m | -3.5m/s | -13.6°C | 42.1% | 462.4hPa | 2.7V | 00:00:00 | 02:46:27 | 00:00:00 | |
| DM7RM-13 | 2026-09-04 13:15:45 | 48.58972 | 10.88077 | 106° | 82km/h | 6498m | -3.5m/s | -13.6°C | 39.9% | 462.4hPa | 2.6V | 07:42:00 | 00:00:00 | 00:00:00 | |
| DO3MHA-12 | 2026-09-04 13:15:44 | 48.58983 | 10.88019 | 110° | 89km/h | 6504m | -3.2m/s | -13.6°C | 41.4% | 462.0hPa | 2.6V | 07:41:00 | 02:46:25 | 00:00:00 | |
| DF7PN | 2026-09-04 13:15:37 | 48.59043 | 10.87804 | 113° | 93km/h | 6527m | -3.2m/s | -13.7°C | 37.0% | 460.7hPa | 2.6V | 00:00:00 | 00:00:00 | 00:00:00 | |
| DO3MHA-11 | 2026-09-04 13:15:36 | 48.59052 | 10.87771 | 113° | 95km/h | 6531m | -3.3m/s | -13.7°C | 38.8% | 460.4hPa | 2.6V | 07:42:00 | 02:46:17 | 00:00:00 | |
| DO3MHA-12 | 2026-09-04 13:15:34 | 48.59070 | 10.87704 | 112° | 93km/h | 6537m | -3.1m/s | -13.8°C | 38.6% | 459.9hPa | 2.6V | 00:00:00 | 02:46:15 | 00:00:00 | |
| DK7TD | 2026-09-04 13:15:11 | 48.59241 | 10.86962 | 113° | 97km/h | 6615m | -3.2m/s | -14.3°C | 37.2% | 455.5hPa | 2.6V | 07:42:33 | 02:45:52 | 00:00:00 | |
| DK7TD | 2026-09-04 13:14:59 | 48.59326 | 10.86569 | 113° | 84km/h | 6656m | -3.3m/s | -14.5°C | 36.5% | 452.9hPa | 2.6V | 07:44:15 | 02:45:40 | 00:00:00 | |
| DK7TD | 2026-09-04 13:14:49 | 48.59421 | 10.86254 | 111° | 97km/h | 6691m | -3.5m/s | -14.8°C | 36.2% | 450.9hPa | 2.5V | 07:44:15 | 02:45:30 | 00:00:00 | |
| DF3TZ-5 | 2026-09-04 13:14:45 | 48.59454 | 10.86114 | 107° | 95km/h | 6705m | -3.5m/s | -14.9°C | 31.4% | 449.9hPa | 2.6V | 00:00:00 | 00:00:00 | 00:00:00 | |
| DK7TD | 2026-09-04 13:14:37 | 48.59507 | 10.85859 | 114° | 82km/h | 6735m | -3.6m/s | -15°C | 34.2% | 448.2hPa | 2.6V | 07:44:15 | 02:45:18 | 00:00:00 | |
| DK7TD | 2026-09-04 13:14:27 | 48.59607 | 10.85547 | 114° | 97km/h | 6772m | -3.8m/s | -15.3°C | 33% | 446hPa | 2.5V | 07:44:15 | 02:45:08 | 00:00:00 | |
| DK7TD | 2026-09-04 13:14:16 | 48.59685 | 10.85180 | 107° | 78km/h | 6814m | -4m/s | -15.6°C | 32.6% | 443.5hPa | 2.6V | 07:44:15 | 02:44:57 | 00:00:00 | |
| DK7TD | 2026-09-04 13:14:05 | 48.59782 | 10.84836 | 108° | 97km/h | 6858m | -4.1m/s | -16°C | 30.3% | 441hPa | 2.6V | 07:44:15 | 02:44:46 | 00:00:00 | |
| DK7TD | 2026-09-04 13:13:55 | 48.59846 | 10.84523 | 111° | 78km/h | 6899m | -4m/s | -16.1°C | 31.6% | 438.6hPa | 2.6V | 07:44:15 | 02:44:36 | 00:00:00 | |
| DK7TD | 2026-09-04 13:13:44 | 48.59948 | 10.84182 | 109° | 97km/h | 6945m | -4.2m/s | -16.6°C | 32.2% | 435.9hPa | 2.6V | 07:44:15 | 02:44:25 | 00:00:00 | |
| DK7TD | 2026-09-04 13:13:33 | 48.60027 | 10.83839 | 115° | 84km/h | 6992m | -4.5m/s | -16.8°C | 32% | 433.1hPa | 2.6V | 07:44:15 | 02:44:14 | 00:00:00 | |
| DK7TD | 2026-09-04 13:13:22 | 48.60134 | 10.83476 | 108° | 97km/h | 7041m | -4.5m/s | -17.2°C | 33.7% | 430.4hPa | 2.5V | 07:44:15 | 02:44:03 | 00:00:00 | |
| DK7TD | 2026-09-04 13:13:12 | 48.60203 | 10.83160 | 115° | 84km/h | 7086m | -4.6m/s | -17.4°C | 30.6% | 427.7hPa | 2.6V | 07:45:06 | 02:43:53 | 00:00:00 | |
| DK7TD | 2026-09-04 13:13:01 | 48.60307 | 10.82796 | 106° | 91km/h | 7138m | -4.7m/s | -17.9°C | 31.5% | 424.8hPa | 2.5V | 07:45:06 | 02:43:42 | 00:00:00 | |
| DK7TD | 2026-09-04 13:12:51 | 48.60383 | 10.82495 | 117° | 91km/h | 7186m | -4.9m/s | -18.1°C | 29.2% | 422hPa | 2.6V | 07:45:06 | 02:43:32 | 00:00:00 | |
| DL9SK-14 | 2026-09-04 13:12:45 | 48.60446 | 10.82255 | 106° | 95km/h | 7220m | -5.0m/s | -18.5°C | 24.1% | 420.1hPa | 2.6V | 00:00:00 | 00:00:00 | 00:00:00 | |
| DK7TD | 2026-09-04 13:12:41 | 48.60464 | 10.82151 | 104° | 93km/h | 7235m | -4.9m/s | -18.6°C | 27.1% | 419.3hPa | 2.6V | 07:45:06 | 02:43:22 | 00:00:00 | |
| DK7TD | 2026-09-04 13:12:31 | 48.60525 | 10.81841 | 113° | 88km/h | 7284m | -4.8m/s | -18.8°C | 23.8% | 416.5hPa | 2.5V | 07:45:06 | 02:43:12 | 00:00:00 | |
| DK7TD | 2026-09-04 13:12:20 | 48.60598 | 10.81458 | 99° | 89km/h | 7339m | -5.1m/s | -19.2°C | 22.1% | 413.4hPa | 2.5V | 07:45:57 | 02:43:01 | 00:00:00 | |
| DK7TD | 2026-09-04 13:12:10 | 48.60658 | 10.81146 | 111° | 93km/h | 7388m | -5m/s | -19.3°C | 20.9% | 410.8hPa | 2.6V | 07:45:57 | 02:42:51 | 00:00:00 | |
| DK7TD | 2026-09-04 13:11:59 | 48.60742 | 10.80754 | 102° | 99km/h | 7443m | -5.2m/s | -19.8°C | 20.5% | 407.7hPa | 2.6V | 07:45:57 | 02:42:40 | 00:00:00 | |
| DK7TD | 2026-09-04 13:11:48 | 48.60801 | 10.80397 | 111° | 88km/h | 7497m | -5.1m/s | -20°C | 19.9% | 404.6hPa | 2.6V | 07:45:57 | 02:42:29 | 00:00:00 | |
| HARRO8 | 2026-09-04 13:11:45 | 48.60835 | 10.80267 | 111° | 97km/h | 7518m | -5.2m/s | -20.2°C | 17.3% | 403.6hPa | 2.5V | 00:00:00 | 00:00:00 | 00:00:00 | |
| DK7TD | 2026-09-04 13:11:38 | 48.60875 | 10.80046 | 99° | 95km/h | 7548m | -5.2m/s | -20.5°C | 20% | 401.9hPa | 2.5V | 07:47:39 | 02:42:19 | 00:00:00 | |
| DK7TD | 2026-09-04 13:11:27 | 48.60944 | 10.79697 | 111° | 99km/h | 7603m | -5m/s | -20.8°C | 19.9% | 398.9hPa | 2.5V | 07:47:39 | 02:42:08 | 00:00:00 | |
| DK7TD | 2026-09-04 13:11:17 | 48.61003 | 10.79343 | 101° | 89km/h | 7652m | -5m/s | -21.1°C | 20% | 396.1hPa | 2.6V | 07:47:39 | 02:41:58 | 00:00:00 | |
| DK7TD | 2026-09-04 13:11:06 | 48.61075 | 10.79002 | 113° | 95km/h | 7707m | -5.1m/s | -21.4°C | 19.4% | 393.2hPa | 2.6V | 07:47:39 | 02:41:47 | 00:00:00 | |
| DK7TD | 2026-09-04 13:10:56 | 48.61148 | 10.78644 | 102° | 91km/h | 7756m | -5m/s | -21.8°C | 22.3% | 390.6hPa | 2.5V | 07:47:39 | 02:41:37 | 00:00:00 | |
| DK7TD | 2026-09-04 13:10:44 | 48.61240 | 10.78268 | 114° | 95km/h | 7814m | -4.8m/s | -22.3°C | 26.1% | 387.6hPa | 2.6V | 07:47:39 | 02:41:25 | 00:00:00 | |
| DO3MHA-12 | 2026-09-04 13:10:44 | 48.61240 | 10.78268 | 115° | 99km/h | 7814m | -4.8m/s | -22.3°C | 24.5% | 387.5hPa | 2.5V | 00:00:00 | 02:41:25 | 00:00:00 | |
| HARRO8 | 2026-09-04 13:10:43 | 48.61259 | 10.78198 | 112° | 100km/h | 7824m | -5.0m/s | -22.4°C | 23.5% | 387.0hPa | 2.5V | 00:00:00 | 00:00:00 | 00:00:00 | |
| DO3MHA-11 | 2026-09-04 13:10:42 | 48.61259 | 10.78198 | 113° | 97km/h | 7824m | -5.0m/s | -22.3°C | 25.6% | 387.0hPa | 2.5V | 00:00:00 | 02:41:23 | 00:00:00 | |
| DL9SK-14 | 2026-09-04 13:10:41 | 48.61277 | 10.78126 | 109° | 99km/h | 7834m | -5.0m/s | -22.5°C | 24.0% | 386.6hPa | 2.5V | 00:00:00 | 00:00:00 | 00:00:00 | |
| OE3JTB-15 | 2026-09-04 13:10:38 | 48.61292 | 10.78053 | 106° | 89km/h | 7844m | -5.0m/s | -22.5°C | 26.0% | 385.9hPa | 2.5V | 00:00:00 | 02:41:19 | 00:00:00 | |
| DF3TZ-5 | 2026-09-04 13:10:37 | 48.61304 | 10.77982 | 104° | 93km/h | 7854m | -4.6m/s | -22.6°C | 23.7% | 385.6hPa | 2.5V | 00:00:00 | 00:00:00 | 00:00:00 | |
| DK7TD | 2026-09-04 13:10:18 | 48.61430 | 10.77392 | 102° | 95km/h | 7938m | -4.6m/s | -23.1°C | 21.3% | 381.1hPa | 2.5V | 07:47:39 | 02:40:59 | 00:00:00 | |
| DK7TD | 2026-09-04 13:10:08 | 48.61476 | 10.77079 | 110° | 80km/h | 7985m | -4.2m/s | -23.5°C | 21% | 378.8hPa | 2.6V | 07:47:39 | 02:40:49 | 00:00:00 | |
| DK7TD | 2026-09-04 13:09:58 | 48.61547 | 10.76752 | 101° | 93km/h | 8030m | -4.5m/s | -23.7°C | 20.1% | 376.5hPa | 2.5V | 07:47:39 | 02:40:39 | 00:00:00 | |
| DK7TD | 2026-09-04 13:09:47 | 48.61592 | 10.76420 | 108° | 78km/h | 8077m | -4.3m/s | -24°C | 20.7% | 374.2hPa | 2.5V | 07:49:21 | 02:40:28 | 00:00:00 | |
| DL6DJ-15 | 2026-09-04 13:09:45 | 48.61613 | 10.76332 | 109° | 82km/h | 8090m | -4.4m/s | -24.0°C | 17.5% | 373.6hPa | 2.5V | 00:00:00 | 00:00:00 | 00:00:00 | |
| DK7TD | 2026-09-04 13:09:36 | 48.61658 | 10.76063 | 97° | 86km/h | 8125m | -4.1m/s | -24.2°C | 20.6% | 371.8hPa | 2.5V | 07:49:21 | 02:40:17 | 00:00:00 | |
| DK7TD | 2026-09-04 13:09:26 | 48.61699 | 10.75773 | 110° | 77km/h | 8165m | -4.2m/s | -24.4°C | 19.4% | 369.6hPa | 2.5V | 07:49:21 | 02:40:07 | 00:00:00 | |
| DK7TD | 2026-09-04 13:09:15 | 48.61760 | 10.75416 | 97° | 86km/h | 8210m | -3.7m/s | -24.6°C | 19.3% | 367.4hPa | 2.5V | 07:49:21 | 02:39:56 | 00:00:00 | |
| DO3MHA-12 | 2026-09-04 13:09:14 | 48.61762 | 10.75384 | 97° | 78km/h | 8214m | -3.8m/s | -24.5°C | 17.7% | 367.2hPa | 2.6V | 00:00:00 | 02:39:55 | 00:00:00 | |
| DL6DJ-15 | 2026-09-04 13:09:13 | 48.61765 | 10.75353 | 96° | 80km/h | 8218m | -4.2m/s | -24.6°C | 16.0% | 367.0hPa | 2.6V | 00:00:00 | 00:00:00 | 00:00:00 | |
| DK7TD | 2026-09-04 13:08:55 | 48.61849 | 10.74778 | 95° | 88km/h | 8288m | -3.9m/s | -25.2°C | 20.6% | 363.4hPa | 2.6V | 07:49:21 | 02:39:36 | 00:00:00 | |
| DK7TD | 2026-09-04 13:08:45 | 48.61896 | 10.74471 | 106° | 93km/h | 8327m | -4m/s | -25.5°C | 19.6% | 361.5hPa | 2.5V | 07:49:21 | 02:39:26 | 00:00:00 | |
| DK7TD | 2026-09-04 13:08:34 | 48.61930 | 10.74087 | 98° | 80km/h | 8367m | -3.9m/s | -25.8°C | 19.8% | 359.4hPa | 2.5V | 07:49:21 | 02:39:15 | 00:00:00 | |
| DK7TD | 2026-09-04 13:08:23 | 48.61986 | 10.73718 | 95° | 97km/h | 8406m | -3.5m/s | -26.1°C | 20.1% | 357.4hPa | 2.6V | 07:49:21 | 02:39:04 | 00:00:00 | |
| DK7TD | 2026-09-04 13:08:10 | 48.62035 | 10.73293 | 100° | 100km/h | 8453m | -3.9m/s | -26.6°C | 20.8% | 355hPa | 2.5V | 07:50:12 | 02:38:51 | 00:00:00 | |
| DK7TD | 2026-09-04 13:07:59 | 48.62063 | 10.72930 | 105° | 82km/h | 8492m | -3.6m/s | -26.9°C | 21.1% | 353hPa | 2.6V | 07:50:12 | 02:38:40 | 00:00:00 | |
| DK7TD | 2026-09-04 13:07:49 | 48.62105 | 10.72578 | 92° | 89km/h | 8527m | -3.6m/s | -27.3°C | 21.6% | 351.3hPa | 2.6V | 07:50:12 | 02:38:30 | 00:00:00 | |
| DB0ND-19 | 2026-09-04 13:07:49 | 48.62105 | 10.72578 | 91° | 89km/h | 8527m | -3.6m/s | -27.3°C | 17.7% | 351.3hPa | 2.6V | 00:00:00 | 00:00:00 | 00:00:00 | |
| DK7TD | 2026-09-04 13:07:39 | 48.62141 | 10.72266 | 104° | 89km/h | 8562m | -3.6m/s | -27.6°C | 22% | 349.6hPa | 2.6V | 07:50:12 | 02:38:20 | 00:00:00 | |
| DK7TD | 2026-09-04 13:07:29 | 48.62178 | 10.71908 | 92° | 89km/h | 8597m | -3.5m/s | -27.9°C | 22.3% | 347.9hPa | 2.5V | 07:50:12 | 02:38:10 | 00:00:00 | |
| DK7TD | 2026-09-04 13:07:19 | 48.62214 | 10.71600 | 106° | 89km/h | 8633m | -3.7m/s | -28.2°C | 21.6% | 346.1hPa | 2.5V | 07:51:54 | 02:38:00 | 00:00:00 | |
| DK7TD | 2026-09-04 13:07:08 | 48.62251 | 10.71219 | 94° | 80km/h | 8672m | -3.4m/s | -28.5°C | 20.8% | 344.3hPa | 2.6V | 07:51:54 | 02:37:49 | 00:00:00 | |
| DK7TD | 2026-09-04 13:06:53 | 48.62315 | 10.70759 | 95° | 91km/h | 8727m | -3.8m/s | -28.9°C | 21.3% | 341.7hPa | 2.5V | 07:51:54 | 02:37:34 | 00:00:00 | |
| DF7PN | 2026-09-04 13:06:49 | 48.62321 | 10.70632 | 95° | 77km/h | 8742m | -3.5m/s | -28.9°C | 17.3% | 341.0hPa | 2.6V | 00:00:00 | 00:00:00 | 00:00:00 | |
| DO3MHA-12 | 2026-09-04 13:06:44 | 48.62332 | 10.70491 | 99° | 82km/h | 8761m | -4.1m/s | -29.0°C | 19.2% | 340.2hPa | 2.6V | 00:00:00 | 02:37:25 | 00:00:00 | |
| DF1GD-15 | 2026-09-04 13:06:43 | 48.62332 | 10.70491 | 99° | 73km/h | 8761m | -4.1m/s | -29.0°C | 17.0% | 340.2hPa | 2.6V | 00:00:00 | 00:00:00 | 00:00:00 | |
| DO3MHA-11 | 2026-09-04 13:06:41 | 48.62344 | 10.70411 | 106° | 88km/h | 8773m | -3.6m/s | -29.0°C | 18.6% | 339.6hPa | 2.6V | 00:00:00 | 02:37:22 | 00:00:00 | |
| DL6DJ-15 | 2026-09-04 13:06:38 | 48.62362 | 10.70323 | 107° | 86km/h | 8783m | -3.5m/s | -29.1°C | 17.1% | 339.1hPa | 2.6V | 00:00:00 | 00:00:00 | 00:00:00 | |
| DK7TD | 2026-09-04 13:06:20 | 48.62446 | 10.69732 | 104° | 95km/h | 8853m | -3.7m/s | -29.4°C | 18.9% | 335.9hPa | 2.6V | 07:51:54 | 02:37:00 | 00:00:00 | |
| DK7TD | 2026-09-04 13:06:09 | 48.62484 | 10.69427 | 105° | 71km/h | 8888m | -3.6m/s | -29.5°C | 17.1% | 334.2hPa | 2.6V | 07:51:54 | 02:36:50 | 00:00:00 | |
| DK7TD | 2026-09-04 13:05:56 | 48.62571 | 10.69035 | 101° | 89km/h | 8934m | -3.8m/s | -29.8°C | 16.9% | 332.1hPa | 2.5V | 07:51:54 | 02:36:37 | 00:00:00 | |
| DF7PN | 2026-09-04 13:05:47 | 48.62609 | 10.68784 | 112° | 69km/h | 8966m | -3.7m/s | -30.0°C | 13.2% | 330.6hPa | 2.5V | 00:00:00 | 00:00:00 | 00:00:00 | |
| DB0ND-19 | 2026-09-04 13:05:45 | 48.62632 | 10.68707 | 114° | 78km/h | 8977m | -3.7m/s | -30.0°C | 13.0% | 330.1hPa | 2.5V | 00:00:00 | 00:00:00 | 00:00:00 | |
| DK7TD | 2026-09-04 13:05:42 | 48.62649 | 10.68649 | 113° | 88km/h | 8984m | -3.3m/s | -30°C | 16% | 329.8hPa | 2.5V | 07:52:45 | 02:36:23 | 00:00:00 | |
| DK7TD | 2026-09-04 13:05:31 | 48.62705 | 10.68304 | 101° | 71km/h | 9024m | -3.6m/s | -30.3°C | 15.7% | 327.9hPa | 2.5V | 07:52:45 | 02:36:12 | 00:00:00 | |
| DK7TD | 2026-09-04 13:05:20 | 48.62777 | 10.67990 | 104° | 91km/h | 9065m | -3.9m/s | -30.6°C | 15.4% | 326.1hPa | 2.5V | 07:52:45 | 02:36:01 | 00:00:00 | |
| DK7TD | 2026-09-04 13:05:10 | 48.62814 | 10.67700 | 111° | 71km/h | 9103m | -3.8m/s | -30.8°C | 14.4% | 324.3hPa | 2.6V | 07:52:45 | 02:35:51 | 00:00:00 | |
| DK7TD | 2026-09-04 13:05:00 | 48.62879 | 10.67389 | 100° | 89km/h | 9142m | -4.1m/s | -31.2°C | 15.4% | 322.6hPa | 2.5V | 07:52:45 | 02:35:41 | 00:00:00 | |
| DK7TD | 2026-09-04 13:04:50 | 48.62918 | 10.67104 | 112° | 78km/h | 9181m | -3.9m/s | -31.4°C | 15% | 320.8hPa | 2.5V | 07:53:36 | 02:35:31 | 00:00:00 | |
| DF7PN | 2026-09-04 13:04:45 | 48.62959 | 10.66909 | 101° | 93km/h | 9205m | -4.1m/s | -31.6°C | 12.2% | 319.7hPa | 2.5V | 00:00:00 | 00:00:00 | 00:00:00 | |
| DK7TD | 2026-09-04 13:04:39 | 48.62973 | 10.66747 | 95° | 77km/h | 9225m | -3.9m/s | -31.7°C | 15% | 318.9hPa | 2.5V | 07:53:36 | 02:35:20 | 00:00:00 | |
| DK7TD | 2026-09-04 13:04:28 | 48.63035 | 10.66410 | 101° | 97km/h | 9268m | -3.9m/s | -32°C | 15.5% | 316.9hPa | 2.6V | 07:53:36 | 02:35:09 | 00:00:00 | |
| DK7TD | 2026-09-04 13:04:16 | 48.63077 | 10.66033 | 110° | 80km/h | 9317m | -4.3m/s | -32.2°C | 15.2% | 314.7hPa | 2.6V | 07:53:36 | 02:34:57 | 00:00:00 | |
| DK7TD | 2026-09-04 13:04:04 | 48.63132 | 10.65608 | 104° | 73km/h | 9371m | -4.1m/s | -32.6°C | 15.1% | 312.3hPa | 2.6V | 07:53:36 | 02:34:44 | 00:00:00 | |
| HARRO8 | 2026-09-04 13:03:59 | 48.63157 | 10.65491 | 109° | 88km/h | 9388m | -4.3m/s | -32.8°C | 12.5% | 311.5hPa | 2.6V | 00:00:00 | 00:00:00 | 00:00:00 | |
| DF3TZ-5 | 2026-09-04 13:03:53 | 48.63191 | 10.65278 | 97° | 95km/h | 9413m | -4.2m/s | -33.2°C | 12.4% | 310.3hPa | 2.6V | 00:00:00 | 00:00:00 | 00:00:00 | |
| DK7TD | 2026-09-04 13:03:53 | 48.63191 | 10.65278 | 98° | 95km/h | 9413m | -4.2m/s | -33.2°C | 16.1% | 310.3hPa | 2.5V | 07:54:27 | 02:34:34 | 00:00:00 | |
| DK5PH-5 | 2026-09-04 13:03:50 | 48.63198 | 10.65175 | 95° | 89km/h | 9426m | -4.2m/s | -33.2°C | 14.4% | 309.8hPa | 2.6V | 07:53:00 | 02:34:31 | 00:00:00 | |
| DO3MHA-11 | 2026-09-04 13:03:49 | 48.63199 | 10.65144 | 95° | 86km/h | 9431m | -4.3m/s | -33.2°C | 14.4% | 309.6hPa | 2.6V | 00:00:00 | 02:34:30 | 00:00:00 | |
| DN1GJH-1 | 2026-09-04 13:03:47 | 48.63201 | 10.65114 | 96° | 77km/h | 9435m | -4.5m/s | -33.2°C | 12.2% | 309.3hPa | 2.6V | 07:54:00 | 00:00:00 | 00:00:00 | |
| DO3MHA-12 | 2026-09-04 13:03:44 | 48.63219 | 10.64999 | 110° | 95km/h | 9452m | -4.2m/s | -33.3°C | 14.9% | 308.6hPa | 2.6V | 07:53:00 | 02:34:25 | 00:00:00 | |
| DF7PN | 2026-09-04 13:03:43 | 48.63234 | 10.64935 | 109° | 93km/h | 9461m | -4.5m/s | -33.4°C | 12.5% | 308.2hPa | 2.6V | 00:00:00 | 00:00:00 | 00:00:00 | |
| DB0ND-19 | 2026-09-04 13:03:41 | 48.63248 | 10.64863 | 103° | 100km/h | 9470m | -4.6m/s | -33.5°C | 12.4% | 307.8hPa | 2.6V | 00:00:00 | 00:00:00 | 00:00:00 | |
| DO3MHA-11 | 2026-09-04 13:03:40 | 48.63254 | 10.64825 | 101° | 88km/h | 9474m | -4.3m/s | -33.5°C | 14.6% | 307.6hPa | 2.6V | 00:00:00 | 02:34:20 | 00:00:00 | |
| DF1GD-15 | 2026-09-04 13:03:36 | 48.63260 | 10.64750 | 96° | 95km/h | 9483m | -4.3m/s | -33.7°C | 12.4% | 307.2hPa | 2.6V | 07:54:00 | 00:00:00 | 00:00:00 | |
| DO3MHA-12 | 2026-09-04 13:03:34 | 48.63264 | 10.64648 | 96° | 86km/h | 9497m | -4.4m/s | -33.7°C | 14.6% | 306.6hPa | 2.6V | 00:00:00 | 02:34:15 | 00:00:00 | |
| DL6DJ-15 | 2026-09-04 13:03:32 | 48.63273 | 10.64559 | 102° | 77km/h | 9510m | -4.7m/s | -33.8°C | 12.4% | 306.1hPa | 2.5V | 00:00:00 | 00:00:00 | 00:00:00 | |
| DH7VM-15 | 2026-09-04 13:03:30 | 48.63273 | 10.64559 | 104° | 78km/h | 9510m | -4.7m/s | -33.8°C | 12.4% | 306.1hPa | 2.5V | 00:00:00 | 00:00:00 | 00:00:00 | |
| DO3MHA-11 | 2026-09-04 13:03:29 | 48.63284 | 10.64499 | 109° | 97km/h | 9519m | -4.5m/s | -33.8°C | 14.7% | 305.7hPa | 2.5V | 07:54:00 | 02:34:10 | 00:00:00 | |
| HARRO8 | 2026-09-04 13:03:28 | 48.63291 | 10.64468 | 109° | 88km/h | 9523m | -4.4m/s | -33.8°C | 12.5% | 305.6hPa | 2.5V | 00:00:00 | 00:00:00 | 00:00:00 | |
| DB0NH | 2026-09-04 13:03:26 | 48.63306 | 10.64400 | 108° | 89km/h | 9533m | -4.7m/s | -33.8°C | 14.6% | 305.1hPa | 2.5V | 00:00:00 | 02:34:07 | 00:00:00 | |
| DL9SK-14 | 2026-09-04 13:03:25 | 48.63314 | 10.64364 | 105° | 100km/h | 9537m | -4.6m/s | -34.0°C | 12.3% | 304.9hPa | 2.5V | 00:00:00 | 00:00:00 | 00:00:00 | |
| DO3MHA-12 | 2026-09-04 13:03:24 | 48.63320 | 10.64326 | 103° | 91km/h | 9542m | -4.5m/s | -34.0°C | 14.3% | 304.7hPa | 2.5V | 00:00:00 | 02:34:05 | 00:00:00 | |
| DO9HM | 2026-09-04 13:03:23 | 48.63320 | 10.64326 | 103° | 104km/h | 9542m | -4.5m/s | -34.0°C | 12.1% | 304.8hPa | 2.5V | 07:54:00 | 00:00:00 | 00:00:00 | |
| DK7TD | 2026-09-04 13:03:06 | 48.63399 | 10.63702 | 96° | 99km/h | 9623m | -4.6m/s | -34.7°C | 15.2% | 301.1hPa | 2.5V | 07:55:18 | 02:33:47 | 00:00:00 | |
| DK7TD | 2026-09-04 13:02:53 | 48.63452 | 10.63293 | 107° | 93km/h | 9686m | -5m/s | -35°C | 14.1% | 298.4hPa | 2.6V | 07:55:18 | 02:33:34 | 00:00:00 | |
| DF3TZ-5 | 2026-09-04 13:02:51 | 48.63465 | 10.63223 | 102° | 97km/h | 9696m | -4.9m/s | -35.1°C | 11.0% | 298.1hPa | 2.5V | 00:00:00 | 00:00:00 | 00:00:00 | |
| DK7TD | 2026-09-04 13:02:43 | 48.63486 | 10.62939 | 92° | 84km/h | 9735m | -4.8m/s | -35.5°C | 13.8% | 296.4hPa | 2.5V | 07:55:18 | 02:33:24 | 00:00:00 | |
| DK7TD | 2026-09-04 13:02:32 | 48.63540 | 10.62596 | 99° | 99km/h | 9789m | -5m/s | -36°C | 14.5% | 294.1hPa | 2.6V | 07:55:18 | 02:33:13 | 00:00:00 | |
| DK7TD | 2026-09-04 13:02:21 | 48.63579 | 10.62259 | 109° | 91km/h | 9843m | -5.1m/s | -36.4°C | 14.9% | 291.8hPa | 2.6V | 07:55:18 | 02:33:02 | 00:00:00 | |
| DK7TD | 2026-09-04 13:02:11 | 48.63606 | 10.61925 | 98° | 73km/h | 9894m | -5.4m/s | -36.8°C | 14.3% | 289.6hPa | 2.6V | 07:56:09 | 02:32:52 | 00:00:00 | |
| DK7TD | 2026-09-04 13:01:57 | 48.63673 | 10.61464 | 93° | 88km/h | 9967m | -5.3m/s | -37.5°C | 13.7% | 286.5hPa | 2.6V | 07:56:09 | 02:32:38 | 00:00:00 | |
| DK7TD | 2026-09-04 13:01:46 | 48.63728 | 10.61122 | 101° | 102km/h | 10023m | -5.1m/s | -37.6°C | 12.7% | 284.2hPa | 2.6V | 07:56:09 | 02:32:27 | 00:00:00 | |
| DK7TD | 2026-09-04 13:01:34 | 48.63781 | 10.60738 | 105° | 100km/h | 10086m | -5.5m/s | -38.1°C | 13% | 281.7hPa | 2.6V | 07:56:09 | 02:32:15 | 00:00:00 | |
| DK7TD | 2026-09-04 13:01:23 | 48.63822 | 10.60393 | 110° | 82km/h | 10143m | -5.2m/s | -38.7°C | 13.3% | 279.4hPa | 2.6V | 07:57:00 | 02:32:04 | 00:00:00 | |
| DK7TD | 2026-09-04 13:01:12 | 48.63873 | 10.60017 | 97° | 77km/h | 10201m | -5.4m/s | -39.2°C | 13.7% | 277hPa | 2.5V | 07:57:00 | 02:31:53 | 00:00:00 | |
| DK7TD | 2026-09-04 13:01:01 | 48.63934 | 10.59658 | 94° | 93km/h | 10259m | -5.3m/s | -39.9°C | 14.4% | 274.7hPa | 2.6V | 07:57:00 | 02:31:42 | 00:00:00 | |
| DK7TD | 2026-09-04 13:00:49 | 48.63991 | 10.59272 | 96° | 95km/h | 10323m | -5m/s | -40.4°C | 15.3% | 272hPa | 2.5V | 07:57:00 | 02:31:30 | 00:00:00 | |
| DK7TD | 2026-09-04 13:00:38 | 48.64041 | 10.58928 | 106° | 100km/h | 10382m | -5.3m/s | -40.8°C | 16% | 269.7hPa | 2.5V | 07:57:00 | 02:31:19 | 00:00:00 | |
| DK7TD | 2026-09-04 13:00:28 | 48.64076 | 10.58597 | 109° | 78km/h | 10436m | -5.3m/s | -41.2°C | 16.3% | 267.5hPa | 2.5V | 07:58:42 | 02:31:09 | 00:00:00 | |
| DO3MHA-11 | 2026-09-04 13:00:28 | 48.64075 | 10.58597 | 109° | 95km/h | 10436m | -5.3m/s | -41.2°C | 15.9% | 267.5hPa | 2.5V | 00:00:00 | 02:31:09 | 00:00:00 | |
| DB0NH | 2026-09-04 13:00:26 | 48.64090 | 10.58536 | 111° | 91km/h | 10447m | -5.3m/s | -41.3°C | 16.2% | 267.1hPa | 2.5V | 07:57:00 | 02:31:07 | 00:00:00 | |
| DL6DJ-15 | 2026-09-04 13:00:25 | 48.64098 | 10.58503 | 108° | 95km/h | 10452m | -5.4m/s | -41.4°C | 13.0% | 267.0hPa | 2.5V | 00:00:00 | 00:00:00 | 00:00:00 | |
| DO3MHA-12 | 2026-09-04 13:00:24 | 48.64106 | 10.58467 | 107° | 93km/h | 10458m | -5.3m/s | -41.4°C | 16.0% | 266.7hPa | 2.5V | 00:00:00 | 02:31:05 | 00:00:00 | |
| DK7TD | 2026-09-04 13:00:05 | 48.64204 | 10.57810 | 100° | 106km/h | 10561m | -5.6m/s | -42.2°C | 16.3% | 262.7hPa | 2.5V | 07:58:42 | 02:30:46 | 00:00:00 | |
| DK7TD | 2026-09-04 12:59:54 | 48.64256 | 10.57439 | 110° | 102km/h | 10621m | -5.4m/s | -42.6°C | 16.8% | 260.3hPa | 2.5V | 07:58:42 | 02:30:35 | 00:00:00 | |
| HARRO8 | 2026-09-04 12:59:51 | 48.64286 | 10.57281 | 100° | 110km/h | 10643m | -5.7m/s | -42.8°C | 12.8% | 259.6hPa | 2.5V | 00:00:00 | 00:00:00 | 00:00:00 | |
| DL9SK-14 | 2026-09-04 12:59:48 | 48.64293 | 10.57201 | 95° | 99km/h | 10655m | -5.8m/s | -43.0°C | 12.9% | 259.1hPa | 2.5V | 00:00:00 | 00:00:00 | 00:00:00 | |
| DK7TD | 2026-09-04 12:59:42 | 48.64320 | 10.57012 | 114° | 88km/h | 10688m | -5.7m/s | -43.1°C | 18% | 257.7hPa | 2.5V | 07:58:42 | 02:30:23 | 00:00:00 | |
| DM0DOS-11 | 2026-09-04 12:59:39 | 48.64375 | 10.56709 | 94° | 95km/h | 10731m | -5.5m/s | -43.6°C | 17.1% | 256.1hPa | 2.5V | 07:58:03 | 02:30:15 | 00:00:00 | |
| DK7TD | 2026-09-04 12:59:32 | 48.64380 | 10.56643 | 99° | 82km/h | 10743m | -5.7m/s | -43.6°C | 18.5% | 255.7hPa | 2.5V | 07:58:42 | 02:30:13 | 00:00:00 | |
| BIOWL1-15 | 2026-09-04 12:59:30 | 48.64407 | 10.56521 | 114° | 95km/h | 10765m | -5.5m/s | 0°C | 0% | 0hPa | 2.5V | 18:12:15 | 02:30:09 | 00:00:00 | |
| BIOWL1-15 | 2026-09-04 12:59:17 | 48.64469 | 10.56121 | 109° | 80km/h | 10827m | -5.7m/s | 0°C | 0% | 0hPa | 2.5V | 18:12:15 | 02:29:58 | 00:00:00 | |
| DO9HM | 2026-09-04 12:59:17 | 48.64469 | 10.56121 | 110° | 80km/h | 10828m | -5.7m/s | -44.3°C | 15.4% | 252.4hPa | 2.5V | 07:58:00 | 00:00:00 | 00:00:00 | |
| NBG1-10 | 2026-09-04 12:59:16 | 48.64477 | 10.56092 | 114° | 97km/h | 10833m | -5.7m/s | -44.2°C | 19.4% | 252.2hPa | 2.5V | 00:00:00 | 02:29:57 | 00:00:00 | |
| DO3MHA-12 | 2026-09-04 12:59:14 | 48.64496 | 10.56025 | 113° | 100km/h | 10844m | -5.3m/s | -44.3°C | 19.5% | 251.8hPa | 2.5V | 00:00:00 | 02:29:55 | 00:00:00 | |
| AZAK | 2026-09-04 12:59:13 | 48.64496 | 10.56025 | 114° | 104km/h | 10844m | -5.3m/s | -44.4°C | 15.8% | 251.8hPa | 2.5V | 07:58:00 | 00:00:00 | 00:00:00 | |
| DJ8HS-15 | 2026-09-04 12:59:12 | 48.64514 | 10.55947 | 107° | 93km/h | 10855m | -5.5m/s | -44.5°C | 19.1% | 251.4hPa | 2.5V | 00:00:00 | 02:29:53 | 00:00:00 | |
| DO3MHA-11 | 2026-09-04 12:59:08 | 48.64533 | 10.55786 | 95° | 93km/h | 10877m | -5.5m/s | -44.8°C | 18.6% | 250.5hPa | 2.5V | 00:00:00 | 02:29:49 | 00:00:00 | |
| DO3MHA-12 | 2026-09-04 12:59:04 | 48.64547 | 10.55660 | 110° | 99km/h | 10900m | -5.7m/s | -44.8°C | 19.3% | 249.6hPa | 2.5V | 00:00:00 | 02:29:45 | 00:00:00 | |
| DF7PN | 2026-09-04 12:59:03 | 48.64555 | 10.55630 | 112° | 86km/h | 10905m | -5.7m/s | -44.9°C | 15.7% | 249.5hPa | 2.5V | 00:00:00 | 00:00:00 | 00:00:00 | |
| DB0ND-19 | 2026-09-04 12:59:01 | 48.64574 | 10.55564 | 112° | 102km/h | 10916m | -5.5m/s | 0°C | -1.0% | -1.0hPa | 2.5V | 00:00:00 | 00:00:00 | 00:00:00 | |
| DL6DJ-15 | 2026-09-04 12:58:52 | 48.64616 | 10.55240 | 106° | 75km/h | 10969m | -5.6m/s | -45.4°C | 13.7% | 247.1hPa | 2.5V | 00:00:00 | 00:00:00 | 00:00:00 | |
| DM0DOS-11 | 2026-09-04 12:58:51 | 48.64648 | 10.55115 | 110° | 102km/h | 10992m | -5.9m/s | -45.4°C | 16.2% | 246.3hPa | 2.5V | 07:58:49 | 02:29:29 | 00:00:00 | |
| DK7TD | 2026-09-04 12:58:49 | 48.64639 | 10.55150 | 113° | 95km/h | 10986m | -5.9m/s | -45.4°C | 16.9% | 246.5hPa | 2.5V | 07:59:33 | 02:29:30 | 00:00:00 | |
| DO3MHA-11 | 2026-09-04 12:58:48 | 48.64648 | 10.55115 | 111° | 89km/h | 10992m | -5.8m/s | -45.4°C | 16.2% | 246.3hPa | 2.5V | 00:00:00 | 02:29:29 | 00:00:00 | |
| DF1GD-15 | 2026-09-04 12:58:47 | 48.64648 | 10.55115 | 111° | 102km/h | 10992m | -5.9m/s | -45.4°C | 12.7% | 246.3hPa | 2.5V | 07:59:00 | 00:00:00 | 00:00:00 | |
| DO3MHA-12 | 2026-09-04 12:58:44 | 48.64669 | 10.54960 | 93° | 88km/h | 11015m | -5.7m/s | -45.6°C | 15.6% | 245.4hPa | 2.5V | 00:00:00 | 02:29:25 | 00:00:00 | |
| DF3TZ-5 | 2026-09-04 12:58:43 | 48.64679 | 10.54841 | 109° | 71km/h | 11037m | -5.5m/s | -45.7°C | 12.4% | 244.6hPa | 2.5V | 00:00:00 | 00:00:00 | 00:00:00 | |
| DM0DOS-11 | 2026-09-04 12:58:41 | 48.64694 | 10.54785 | 114° | 88km/h | 11048m | -5.4m/s | -45.8°C | 15.9% | 244.2hPa | 2.5V | 07:58:59 | 02:29:19 | 00:00:00 | |
| DK7TD | 2026-09-04 12:58:38 | 48.64694 | 10.54785 | 114° | 88km/h | 11048m | -5.4m/s | -45.8°C | 16.4% | 244.2hPa | 2.5V | 07:59:33 | 02:29:19 | 00:00:00 | |
| DO3MHA-11 | 2026-09-04 12:58:38 | 48.64694 | 10.54785 | 115° | 91km/h | 11048m | -5.4m/s | -45.7°C | 15.9% | 244.2hPa | 2.6V | 00:00:00 | 02:29:19 | 00:00:00 | |
| DF2AP-13 | 2026-09-04 12:58:37 | 48.64704 | 10.54752 | 113° | 88km/h | 11054m | -5.4m/s | -45.8°C | 15.7% | 244.0hPa | 2.6V | 00:00:00 | 02:29:18 | 00:00:00 | |
| DO9HM | 2026-09-04 12:58:35 | 48.64720 | 10.54678 | 105° | 104km/h | 11065m | -5.7m/s | -46.0°C | 11.9% | 243.7hPa | 2.6V | 07:59:00 | 00:00:00 | 00:00:00 | |
| DO3MHA-12 | 2026-09-04 12:58:34 | 48.64725 | 10.54639 | 99° | 84km/h | 11070m | -5.6m/s | -46.1°C | 15.1% | 243.4hPa | 2.6V | 00:00:00 | 02:29:15 | 00:00:00 | |
| DF7PN | 2026-09-04 12:58:32 | 48.64729 | 10.54566 | 92° | 88km/h | 11082m | -5.7m/s | -46.2°C | 11.8% | 242.9hPa | 2.5V | 00:00:00 | 00:00:00 | 00:00:00 | |
| DM0DOS-11 | 2026-09-04 12:58:31 | 48.64750 | 10.54426 | 114° | 78km/h | 11109m | -5.8m/s | -46.2°C | 16.6% | 242hPa | 2.5V | 07:59:10 | 02:29:08 | 00:00:00 | |
| DK7TD | 2026-09-04 12:58:28 | 48.64742 | 10.54453 | 111° | 73km/h | 11103m | -5.5m/s | -46.2°C | 16.9% | 242.3hPa | 2.6V | 07:59:33 | 02:29:09 | 00:00:00 | |
| DB0NH | 2026-09-04 12:58:26 | 48.64758 | 10.54397 | 116° | 89km/h | 11115m | -5.5m/s | -46.2°C | 16.8% | 241.8hPa | 2.6V | 00:00:00 | 02:29:07 | 00:00:00 | |
| DO3MHA-12 | 2026-09-04 12:58:24 | 48.64777 | 10.54332 | 111° | 86km/h | 11126m | -5.6m/s | -46.3°C | 16.8% | 241.3hPa | 2.6V | 07:59:00 | 02:29:05 | 00:00:00 | |
| DL6DJ-15 | 2026-09-04 12:58:21 | 48.64795 | 10.54221 | 97° | 95km/h | 11143m | -5.4m/s | -46.7°C | 13.4% | 240.8hPa | 2.6V | 00:00:00 | 00:00:00 | 00:00:00 | |
| DB0UT-7 | 2026-09-04 12:58:20 | 48.64798 | 10.54186 | 96° | 88km/h | 11148m | -5.4m/s | -46.7°C | 17.4% | 240.5hPa | 2.6V | 07:59:00 | 02:29:01 | 00:00:00 | |
| DN1GJH-1 | 2026-09-04 12:58:19 | 48.64797 | 10.54186 | 97° | 88km/h | 11148m | -5.4m/s | -46.8°C | 13.6% | 240.6hPa | 2.6V | 07:59:00 | 00:00:00 | 00:00:00 | |
| DM0DOS-11 | 2026-09-04 12:58:17 | 48.64805 | 10.54096 | 102° | 73km/h | 11165m | -5.4m/s | -46.8°C | 18.3% | 240hPa | 2.6V | 07:59:20 | 02:28:58 | 00:00:00 | |
| DK7TD | 2026-09-04 12:58:17 | 48.64805 | 10.54096 | 102° | 73km/h | 11165m | -5.4m/s | -46.8°C | 19% | 240hPa | 2.6V | 07:59:33 | 02:28:58 | 00:00:00 | |
| OE5DRO-10 | 2026-09-04 12:58:16 | 48.64810 | 10.54069 | 108° | 88km/h | 11170m | -5.2m/s | -46.8°C | 18.9% | 239.7hPa | 2.5V | 00:00:00 | 00:00:00 | 00:00:00 | |
| DL9SK-14 | 2026-09-04 12:58:15 | 48.64825 | 10.54014 | 116° | 82km/h | 11181m | -5.6m/s | -46.9°C | 15.5% | 239.4hPa | 2.5V | 00:00:00 | 00:00:00 | 00:00:00 | |
| DO9HM | 2026-09-04 12:58:14 | 48.64825 | 10.54014 | 117° | 82km/h | 11181m | -5.6m/s | -46.9°C | 15.5% | 239.4hPa | 2.5V | 07:59:00 | 00:00:00 | 00:00:00 | |
| DM0DOS-11 | 2026-09-04 12:58:12 | 48.64880 | 10.53773 | 96° | 89km/h | 11220m | -5.8m/s | -47.4°C | 19.8% | 238hPa | 2.5V | 07:59:30 | 02:28:48 | 00:00:00 | |
| DK7TD | 2026-09-04 12:58:06 | 48.64883 | 10.53740 | 97° | 82km/h | 11226m | -5.8m/s | -47.4°C | 21.4% | 237.7hPa | 2.6V | 07:59:33 | 02:28:47 | 00:00:00 | |
| DF1GD-15 | 2026-09-04 12:58:05 | 48.64882 | 10.53740 | 98° | 82km/h | 11226m | -5.8m/s | -47.4°C | 16.0% | 237.7hPa | 2.5V | 07:59:00 | 00:00:00 | 00:00:00 | |
| DO3MHA-12 | 2026-09-04 12:58:04 | 48.64890 | 10.53683 | 107° | 91km/h | 11238m | -5.7m/s | -47.4°C | 20.9% | 237.3hPa | 2.5V | 00:00:00 | 02:28:45 | 00:00:00 | |
| DM0DOS-11 | 2026-09-04 12:58:02 | 48.64952 | 10.53465 | 105° | 104km/h | 11278m | -5.7m/s | -47.8°C | 21.2% | 235.9hPa | 2.5V | 07:59:40 | 02:28:38 | 00:00:00 | |
| DK7TD | 2026-09-04 12:57:56 | 48.64958 | 10.53427 | 101° | 100km/h | 11283m | -5.8m/s | -47.9°C | 22.8% | 235.7hPa | 2.5V | 08:00:24 | 02:28:37 | 00:00:00 | |
| DB0NH | 2026-09-04 12:57:56 | 48.64958 | 10.53427 | 102° | 91km/h | 11284m | -5.7m/s | -47.9°C | 21.2% | 235.7hPa | 2.5V | 00:00:00 | 02:28:37 | 00:00:00 | |
| DO3MHA-12 | 2026-09-04 12:57:54 | 48.64966 | 10.53356 | 98° | 86km/h | 11295m | -5.8m/s | -48.0°C | 21.5% | 235.3hPa | 2.5V | 00:00:00 | 02:28:35 | 00:00:00 | |
| DO9HM | 2026-09-04 12:57:53 | 48.64966 | 10.53356 | 99° | 88km/h | 11295m | -5.8m/s | -48.1°C | 17.1% | 235.4hPa | 2.5V | 08:00:00 | 00:00:00 | 00:00:00 | |
| DM0DOS-11 | 2026-09-04 12:57:52 | 48.65015 | 10.53156 | 116° | 99km/h | 11335m | -5.6m/s | -48.3°C | 22.8% | 233.9hPa | 2.5V | 07:59:50 | 02:28:28 | 00:00:00 | |
| AZAK | 2026-09-04 12:57:51 | 48.64978 | 10.53269 | 110° | 71km/h | 11312m | -5.9m/s | -48.1°C | 17.7% | 234.7hPa | 2.6V | 08:00:00 | 00:00:00 | 00:00:00 | |
| DH7VM-15 | 2026-09-04 12:57:50 | 48.64985 | 10.53243 | 116° | 75km/h | 11318m | -5.7m/s | -48.1°C | 18.0% | 234.5hPa | 2.6V | 00:00:00 | 00:00:00 | 00:00:00 | |
| DF1GD-15 | 2026-09-04 12:57:45 | 48.65026 | 10.53121 | 113° | 104km/h | 11341m | -5.4m/s | -48.3°C | 18.0% | 233.7hPa | 2.6V | 08:00:00 | 00:00:00 | 00:00:00 | |
| DK7TD | 2026-09-04 12:57:45 | 48.65035 | 10.53084 | 108° | 104km/h | 11346m | -5.6m/s | -48.4°C | 23.9% | 0hPa | 2.5V | 08:00:24 | 02:28:26 | 00:00:00 | |
| DO3MHA-12 | 2026-09-04 12:57:44 | 48.65042 | 10.53045 | 105° | 86km/h | 11352m | -5.5m/s | -48.5°C | 22.2% | 233.3hPa | 2.6V | 00:00:00 | 02:28:25 | 00:00:00 | |
| DM0DOS-11 | 2026-09-04 12:57:39 | 48.65080 | 10.52821 | 113° | 78km/h | 11391m | -5.5m/s | -48.8°C | 23.9% | 231.9hPa | 2.6V | 08:00:00 | 02:28:18 | 00:00:00 | |
| DK7TD | 2026-09-04 12:57:35 | 48.65098 | 10.52766 | 119° | 88km/h | 11402m | -5.7m/s | -48.8°C | 24.7% | 0hPa | 2.5V | 08:00:24 | 02:28:16 | 00:00:00 | |
| DO9HM | 2026-09-04 12:57:34 | 48.65110 | 10.52736 | 120° | 93km/h | 11408m | -5.8m/s | -48.9°C | 19.7% | 231.3hPa | 2.5V | 08:00:00 | 00:00:00 | 00:00:00 | |
| DJ8HS-15 | 2026-09-04 12:57:30 | 48.65154 | 10.52594 | 110° | 95km/h | 11432m | -5.9m/s | -49.1°C | 23.4% | 230.4hPa | 2.5V | 00:00:00 | 02:28:11 | 00:00:00 | |
| AZAK | 2026-09-04 12:57:29 | 48.65154 | 10.52594 | 111° | 108km/h | 11432m | -6.0m/s | -49.1°C | 18.6% | 230.4hPa | 2.5V | 08:00:00 | 00:00:00 | 00:00:00 | |
| DM0DOS-11 | 2026-09-04 12:57:28 | 48.65174 | 10.52479 | 100° | 95km/h | 11450m | -6m/s | -49.4°C | 23.3% | 229.8hPa | 2.5V | 08:00:10 | 02:28:08 | 00:00:00 | |
| DK7TD | 2026-09-04 12:57:25 | 48.65183 | 10.52414 | 104° | 80km/h | 11461m | -6m/s | -49.5°C | 25.1% | 0hPa | 2.6V | 08:00:24 | 02:28:06 | 00:00:00 | |
| DO3MHA-12 | 2026-09-04 12:57:24 | 48.65188 | 10.52385 | 110° | 97km/h | 11467m | -6.0m/s | -49.4°C | 24.4% | 229.1hPa | 2.5V | 00:00:00 | 02:28:05 | 00:00:00 | |
| DM0DOS-11 | 2026-09-04 12:57:21 | 48.65266 | 10.52163 | 110° | 110km/h | 11509m | -5.8m/s | -49.8°C | 24.9% | 227.7hPa | 2.5V | 08:00:20 | 02:27:58 | 00:00:00 | |
| DK7TD | 2026-09-04 12:57:12 | 48.65296 | 10.51983 | 105° | 80km/h | 11539m | -6m/s | -50.1°C | 26.2% | 0hPa | 2.5V | 08:02:06 | 02:27:53 | 00:00:00 | |
| DM0DOS-11 | 2026-09-04 12:57:11 | 48.65347 | 10.51840 | 121° | 102km/h | 11568m | -5.8m/s | -50.3°C | 26.4% | 225.7hPa | 2.6V | 08:00:30 | 02:27:48 | 00:00:00 | |
| DK7TD | 2026-09-04 12:57:02 | 48.65397 | 10.51652 | 103° | 99km/h | 11597m | -5.7m/s | -50.7°C | 27.2% | 0hPa | 2.6V | 08:02:06 | 02:27:43 | 00:00:00 | |
| DM0DOS-11 | 2026-09-04 12:57:00 | 48.65428 | 10.51501 | 119° | 78km/h | 11627m | -5.8m/s | -50.8°C | 27.3% | 223.6hPa | 2.6V | 08:00:40 | 02:27:38 | 00:00:00 | |
| DF7PN | 2026-09-04 12:56:59 | 48.65419 | 10.51527 | 112° | 75km/h | 11621m | -5.8m/s | -50.8°C | 21.3% | 223.9hPa | 2.5V | 00:00:00 | 00:00:00 | 00:00:00 | |
| DL1ZP-14 | 2026-09-04 12:56:55 | 48.65451 | 10.51446 | 124° | 93km/h | 11638m | -5.9m/s | -50.9°C | 22.1% | 223.2hPa | 2.5V | 00:00:00 | 00:00:00 | 00:00:00 | |
| DO3MHA-12 | 2026-09-04 12:56:54 | 48.65465 | 10.51414 | 123° | 95km/h | 11644m | -5.8m/s | -50.9°C | 27.9% | 223.0hPa | 2.5V | 00:00:00 | 02:27:35 | 00:00:00 | |
| DO9HM | 2026-09-04 12:56:52 | 48.65479 | 10.51378 | 118° | 111km/h | 11650m | -5.8m/s | -51.0°C | 22.0% | 222.8hPa | 2.5V | 08:01:00 | 00:00:00 | 00:00:00 | |
| DJ8HS-15 | 2026-09-04 12:56:50 | 48.65506 | 10.51261 | 103° | 91km/h | 11667m | -6.1m/s | -51.2°C | 27.2% | 222.2hPa | 2.5V | 00:00:00 | 02:27:31 | 00:00:00 | |
| DM0DOS-11 | 2026-09-04 12:56:49 | 48.65520 | 10.51162 | 107° | 77km/h | 11685m | -6m/s | -51.3°C | 28.1% | 221.6hPa | 2.5V | 08:00:50 | 02:27:28 | 00:00:00 | |
| HARRO8 | 2026-09-04 12:56:45 | 48.65550 | 10.51081 | 124° | 91km/h | 11703m | -5.9m/s | -51.4°C | 22.8% | 221.0hPa | 2.5V | 00:00:00 | 00:00:00 | 00:00:00 | |
| DO3MHA-12 | 2026-09-04 12:56:44 | 48.65550 | 10.51081 | 125° | 99km/h | 11703m | -5.9m/s | -51.3°C | 28.7% | 221.0hPa | 2.5V | 00:00:00 | 02:27:25 | 00:00:00 | |
| DM0DOS-11 | 2026-09-04 12:56:43 | 48.65620 | 10.50828 | 104° | 88km/h | 11744m | -5.8m/s | -51.8°C | 29.5% | 219.6hPa | 2.5V | 08:01:00 | 02:27:18 | 00:00:00 | |
| DK7TD | 2026-09-04 12:56:37 | 48.65621 | 10.50827 | 104° | 88km/h | 11744m | -5.8m/s | -51.8°C | 30.3% | 0hPa | 2.5V | 08:02:06 | 02:27:18 | 00:00:00 | |
| DN1GJH-1 | 2026-09-04 12:56:36 | 48.65620 | 10.50827 | 105° | 88km/h | 11744m | -5.8m/s | -51.8°C | 23.5% | 219.6hPa | 2.5V | 08:01:00 | 00:00:00 | 00:00:00 | |
| DO3MHA-12 | 2026-09-04 12:56:34 | 48.65642 | 10.50740 | 119° | 99km/h | 11761m | -5.8m/s | -51.8°C | 31.0% | 219.0hPa | 2.5V | 00:00:00 | 02:27:15 | 00:00:00 | |
| DM0DOS-11 | 2026-09-04 12:56:32 | 48.65737 | 10.50473 | 106° | 104km/h | 11809m | -5.7m/s | -52.3°C | 31.3% | 217.5hPa | 2.6V | 08:01:11 | 02:27:07 | 00:00:00 | |
| DK7TD | 2026-09-04 12:56:27 | 48.65728 | 10.50511 | 110° | 108km/h | 11803m | -5.6m/s | 0°C | 0% | 0hPa | 2.6V | 08:02:06 | 02:27:08 | 00:00:00 | |
| DB0NH | 2026-09-04 12:56:26 | 48.65737 | 10.50473 | 107° | 99km/h | 11809m | -5.6m/s | -52.3°C | 31.3% | 217.4hPa | 2.6V | 08:01:00 | 02:27:07 | 00:00:00 | |
| DO3MHA-12 | 2026-09-04 12:56:24 | 48.65749 | 10.50400 | 104° | 93km/h | 11820m | -5.8m/s | -52.4°C | 31.3% | 217.0hPa | 2.5V | 00:00:00 | 02:27:05 | 00:00:00 | |
| OE5DXL-15 | 2026-09-04 12:56:23 | 48.65755 | 10.50367 | 105° | 97km/h | 11826m | -6.0m/s | -52.4°C | 31.9% | 216.8hPa | 2.5V | 00:00:00 | 00:00:00 | 00:00:00 | |
| OE5DRO-10 | 2026-09-04 12:56:22 | 48.65761 | 10.50337 | 109° | 97km/h | 11832m | -5.9m/s | -52.4°C | 32.6% | 216.6hPa | 2.5V | 00:00:00 | 00:00:00 | 00:00:00 | |
| DM0DOS-11 | 2026-09-04 12:56:21 | 48.65829 | 10.50156 | 118° | 111km/h | 11868m | -5.6m/s | -52.8°C | 35.2% | 215.5hPa | 2.5V | 08:01:21 | 02:26:57 | 00:00:00 | |
| DK7TD | 2026-09-04 12:56:14 | 48.65854 | 10.50077 | 112° | 115km/h | 11880m | -5.9m/s | 0°C | 0% | 0hPa | 2.6V | 08:02:06 | 02:26:55 | 00:00:00 | |
| DO3MHA-12 | 2026-09-04 12:56:14 | 48.65854 | 10.50077 | 112° | 97km/h | 11880m | -5.9m/s | -52.9°C | 34.2% | 215.0hPa | 2.5V | 00:00:00 | 02:26:55 | 00:00:00 | |
| HARRO8 | 2026-09-04 12:56:13 | 48.65864 | 10.50036 | 108° | 113km/h | 11886m | -6.1m/s | -53.0°C | 27.3% | 214.8hPa | 2.5V | 00:00:00 | 00:00:00 | 00:00:00 | |
| DM0DOS-11 | 2026-09-04 12:56:11 | 48.65917 | 10.49806 | 123° | 91km/h | 11928m | -6m/s | -53.3°C | 37.5% | 213.4hPa | 2.5V | 08:01:31 | 02:26:47 | 00:00:00 | |
| DK7TD | 2026-09-04 12:56:03 | 48.65959 | 10.49704 | 117° | 115km/h | 11946m | -6m/s | 0°C | 0% | 0hPa | 2.6V | 08:02:06 | 02:26:44 | 00:00:00 | |
| DF1GD-15 | 2026-09-04 12:56:01 | 48.65971 | 10.49664 | 114° | 117km/h | 11952m | -6.2m/s | -53.6°C | 29.5% | 212.7hPa | 2.5V | 08:02:00 | 00:00:00 | 00:00:00 | |
| DF2AP-13 | 2026-09-04 12:55:59 | 48.65995 | 10.49542 | 103° | 97km/h | 11970m | -5.7m/s | -53.8°C | 36.8% | 212.0hPa | 2.5V | 08:01:00 | 02:26:40 | 00:00:00 | |
| NBG1-10 | 2026-09-04 12:55:58 | 48.66001 | 10.49506 | 103° | 100km/h | 11976m | -5.9m/s | -53.8°C | 37.6% | 211.8hPa | 2.5V | 08:01:00 | 02:26:39 | 00:00:00 | |
| DM0DOS-11 | 2026-09-04 12:55:57 | 48.66014 | 10.49444 | 113° | 82km/h | 11987m | -5.8m/s | -53.9°C | 38.9% | 211.5hPa | 2.6V | 08:01:41 | 02:26:37 | 00:00:00 | |
| DB0NH | 2026-09-04 12:55:56 | 48.66014 | 10.49444 | 114° | 100km/h | 11987m | -5.8m/s | -53.9°C | 38.9% | 211.4hPa | 2.5V | 00:00:00 | 02:26:37 | 00:00:00 | |
| PG1ADW-2 | 2026-09-04 12:55:55 | 48.66023 | 10.49416 | 120° | 93km/h | 11993m | -5.7m/s | -53.9°C | 39.4% | 211.2hPa | 2.5V | 00:00:00 | 00:00:00 | 00:00:00 | |
| DO3MHA-12 | 2026-09-04 12:55:54 | 48.66035 | 10.49388 | 124° | 106km/h | 11999m | -5.9m/s | -53.9°C | 39.9% | 211.0hPa | 2.5V | 00:00:00 | 02:26:35 | 00:00:00 | |
| OE5DXL-15 | 2026-09-04 12:55:53 | 48.66049 | 10.49357 | 125° | 104km/h | 12005m | -6.0m/s | -53.9°C | 40.0% | 210.8hPa | 2.5V | 00:00:00 | 00:00:00 | 00:00:00 | |
| DM0DOS-11 | 2026-09-04 12:55:51 | 48.66122 | 10.49087 | 103° | 99km/h | 12045m | -6m/s | -54.5°C | 39.8% | 209.5hPa | 2.5V | 08:01:51 | 02:26:27 | 00:00:00 | |
| DK7TD | 2026-09-04 12:55:51 | 48.66077 | 10.49287 | 118° | 113km/h | 12017m | -5.9m/s | 0°C | 0% | 0hPa | 2.6V | 08:02:06 | 02:26:32 | 00:00:00 | |
| DL6DJ-15 | 2026-09-04 12:55:46 | 48.66128 | 10.49052 | 105° | 88km/h | 12051m | -5.9m/s | -54.6°C | 32.4% | 209.3hPa | 2.5V | 00:00:00 | 00:00:00 | 00:00:00 | |
| BIOWL9-15 | 2026-09-04 12:55:44 | 48.66152 | 10.48963 | 120° | 86km/h | 12069m | -6.0m/s | 0°C | -1.0% | 208.8hPa | 2.5V | 00:00:00 | 00:00:00 | 00:00:00 | |
| HARRO8 | 2026-09-04 12:55:42 | 48.66152 | 10.48963 | 120° | 86km/h | 12069m | -6.0m/s | -54.6°C | 33.8% | 208.8hPa | 2.5V | 00:00:00 | 00:00:00 | 00:00:00 | |
| DM0DOS-11 | 2026-09-04 12:55:41 | 48.66229 | 10.48747 | 107° | 115km/h | 12105m | -5.9m/s | -55.1°C | 42.7% | 207.6hPa | 2.5V | 08:02:01 | 02:26:17 | 00:00:00 | |
| DL9SK-14 | 2026-09-04 12:55:40 | 48.66193 | 10.48868 | 121° | 111km/h | 12087m | -6.0m/s | -54.8°C | 34.6% | 208.2hPa | 2.5V | 00:00:00 | 00:00:00 | 00:00:00 | |
| DO3MHA-11 | 2026-09-04 12:55:38 | 48.66207 | 10.48830 | 118° | 100km/h | 12093m | -5.9m/s | -54.8°C | 42.8% | 207.9hPa | 2.5V | 00:00:00 | 02:26:19 | 00:00:00 | |
| DF3TZ-5 | 2026-09-04 12:55:36 | 48.66229 | 10.48747 | 107° | 113km/h | 12105m | -5.9m/s | -55.1°C | 34.4% | 207.6hPa | 2.5V | 00:00:00 | 00:00:00 | 00:00:00 | |
| DO3MHA-12 | 2026-09-04 12:55:34 | 48.66243 | 10.48669 | 104° | 102km/h | 12117m | -5.7m/s | -55.2°C | 43.6% | 207.2hPa | 2.5V | 00:00:00 | 02:26:15 | 00:00:00 | |
| DM0DOS-11 | 2026-09-04 12:55:31 | 48.66333 | 10.48404 | 113° | 122km/h | 12165m | -6.1m/s | -55.5°C | 43.4% | 205.6hPa | 2.6V | 08:02:11 | 02:26:07 | 00:00:00 | |
| DK7TD | 2026-09-04 12:55:28 | 48.66305 | 10.48483 | 124° | 111km/h | 12152m | -6.1m/s | 0°C | 0% | 0hPa | 2.5V | 08:05:30 | 02:26:09 | 00:00:00 | |
| DK7TD | 2026-09-04 12:55:17 | 48.66420 | 10.48091 | 122° | 111km/h | 12217m | -6m/s | 0°C | 0% | 0hPa | 2.5V | 08:05:30 | 02:25:58 | 00:00:00 | |
| DL6DJ-15 | 2026-09-04 12:55:15 | 48.66461 | 10.47971 | 110° | 120km/h | 12235m | -5.9m/s | -56.1°C | 37.0% | 203.4hPa | 2.5V | 00:00:00 | 00:00:00 | 00:00:00 | |
| DO3MHA-12 | 2026-09-04 12:55:14 | 48.66461 | 10.47971 | 111° | 100km/h | 12235m | -5.9m/s | -56.1°C | 45.9% | 203.3hPa | 2.5V | 00:00:00 | 02:25:55 | 00:00:00 | |
| HARRO8 | 2026-09-04 12:55:11 | 48.66490 | 10.47814 | 106° | 88km/h | 12259m | -5.9m/s | -56.4°C | 38.2% | 202.6hPa | 2.5V | 00:00:00 | 00:00:00 | 00:00:00 | |
| DJ8HS-15 | 2026-09-04 12:55:10 | 48.66490 | 10.47814 | 107° | 104km/h | 12259m | -5.9m/s | -56.3°C | 47.4% | 202.6hPa | 2.5V | 08:02:00 | 02:25:51 | 00:00:00 | |
| DL9SK-14 | 2026-09-04 12:55:09 | 48.66506 | 10.47753 | 117° | 84km/h | 12271m | -6.2m/s | -56.4°C | 39.4% | 202.2hPa | 2.5V | 00:00:00 | 00:00:00 | 00:00:00 | |
| DO3MHA-11 | 2026-09-04 12:55:08 | 48.66506 | 10.47753 | 118° | 106km/h | 12271m | -6.1m/s | -56.4°C | 48.8% | 202.2hPa | 2.5V | 00:00:00 | 02:25:49 | 00:00:00 | |
| DO9HM | 2026-09-04 12:55:07 | 48.66517 | 10.47724 | 123° | 91km/h | 12277m | -6.1m/s | -56.4°C | 39.8% | 202.0hPa | 2.5V | 08:02:00 | 00:00:00 | 00:00:00 | |
| DK7TD | 2026-09-04 12:54:49 | 48.66719 | 10.47050 | 103° | 113km/h | 12386m | -6.1m/s | 0°C | 0% | 0hPa | 2.5V | 08:05:30 | 02:25:30 | 00:00:00 | |
| DK7TD | 2026-09-04 12:54:39 | 48.66826 | 10.46695 | 109° | 122km/h | 12448m | -6.1m/s | 0°C | 0% | 0hPa | 2.6V | 08:05:30 | 02:25:20 | 00:00:00 | |
| DK7TD | 2026-09-04 12:54:29 | 48.66928 | 10.46339 | 118° | 122km/h | 12509m | -6.6m/s | 0°C | 0% | 0hPa | 2.5V | 08:05:30 | 02:25:10 | 00:00:00 | |
| DK7TD | 2026-09-04 12:54:18 | 48.67041 | 10.45933 | 117° | 124km/h | 12578m | -6.2m/s | 0°C | 0% | 0hPa | 2.5V | 08:05:30 | 02:24:59 | 00:00:00 | |
| DK7TD | 2026-09-04 12:54:07 | 48.67148 | 10.45518 | 117° | 124km/h | 12646m | -6.3m/s | 0°C | 0% | 0hPa | 2.5V | 08:05:30 | 02:24:48 | 00:00:00 | |
| DK7TD | 2026-09-04 12:53:57 | 48.67239 | 10.45139 | 122° | 113km/h | 12710m | -6.2m/s | 0°C | 0% | 0hPa | 2.6V | 08:05:30 | 02:24:38 | 00:00:00 | |
| DF7PN | 2026-09-04 12:53:52 | 48.67292 | 10.44922 | 100° | 106km/h | 12741m | -6.2m/s | -60.3°C | 46.2% | 187.6hPa | 2.5V | 00:00:00 | 00:00:00 | 00:00:00 | |
| DL1ZP-14 | 2026-09-04 12:53:49 | 48.67322 | 10.44789 | 121° | 95km/h | 12766m | -6.2m/s | -60.4°C | 47.8% | 186.9hPa | 2.5V | 00:00:00 | 00:00:00 | 00:00:00 | |
| DK7TD | 2026-09-04 12:53:34 | 48.67470 | 10.44276 | 121° | 115km/h | 12854m | -6.4m/s | 0°C | 0% | 0hPa | 2.5V | 08:05:30 | 02:24:15 | 00:00:00 | |
| DO3MHA-12 | 2026-09-04 12:53:34 | 48.67470 | 10.44276 | 121° | 106km/h | 12854m | -6.3m/s | -61.1°C | 61.2% | 184.2hPa | 2.5V | 00:00:00 | 02:24:15 | 00:00:00 | |
| DF3TZ-5 | 2026-09-04 12:53:32 | 48.67497 | 10.44192 | 111° | 126km/h | 12866m | -6.3m/s | -61.3°C | 46.6% | 183.9hPa | 2.5V | 00:00:00 | 00:00:00 | 00:00:00 | |
| DN1GJH-1 | 2026-09-04 12:53:31 | 48.67497 | 10.44192 | 112° | 126km/h | 12867m | -6.3m/s | -61.3°C | 46.7% | 183.9hPa | 2.5V | 08:04:00 | 00:00:00 | 00:00:00 | |
| DJ8HS-15 | 2026-09-04 12:53:30 | 48.67515 | 10.44103 | 103° | 104km/h | 12879m | -6.3m/s | -61.4°C | 57.4% | 183.4hPa | 2.5V | 00:00:00 | 02:24:11 | 00:00:00 | |
| OE5DRO-10 | 2026-09-04 12:53:29 | 48.67521 | 10.44062 | 101° | 104km/h | 12885m | -6.3m/s | -61.5°C | 57.7% | 183.3hPa | 2.5V | 00:00:00 | 00:00:00 | 00:00:00 | |
| DO3MHA-11 | 2026-09-04 12:53:28 | 48.67525 | 10.44025 | 102° | 108km/h | 12892m | -6.2m/s | -61.5°C | 58.2% | 183.1hPa | 2.6V | 00:00:00 | 02:24:09 | 00:00:00 | |
| DB0NH | 2026-09-04 12:53:26 | 48.67539 | 10.43962 | 116° | 108km/h | 12905m | -6.2m/s | -61.5°C | 60.0% | 182.7hPa | 2.6V | 00:00:00 | 02:24:07 | 00:00:00 | |
| DO3MHA-12 | 2026-09-04 12:53:24 | 48.67564 | 10.43900 | 123° | 108km/h | 12917m | -5.9m/s | -61.6°C | 61.5% | 182.3hPa | 2.5V | 00:00:00 | 02:24:05 | 00:00:00 | |
| PG1ADW-2 | 2026-09-04 12:53:23 | 48.67578 | 10.43863 | 121° | 108km/h | 12923m | -6.2m/s | -61.7°C | 60.8% | 182.2hPa | 2.5V | 00:00:00 | 02:24:04 | 00:00:00 | |
| DF7PN | 2026-09-04 12:53:21 | 48.67605 | 10.43779 | 111° | 126km/h | 12935m | -6.5m/s | -61.8°C | 46.4% | 181.8hPa | 2.5V | 00:00:00 | 00:00:00 | 00:00:00 | |
| DF2AP-13 | 2026-09-04 12:53:20 | 48.67615 | 10.43734 | 107° | 102km/h | 12942m | -6.3m/s | -61.8°C | 57.9% | 181.6hPa | 2.5V | 00:00:00 | 02:24:01 | 00:00:00 | |
| DK7TD | 2026-09-04 12:53:00 | 48.67811 | 10.43003 | 118° | 122km/h | 13069m | -6.5m/s | 0°C | 0% | 0hPa | 2.5V | 08:05:30 | 02:23:41 | 00:00:00 | |
| DF7PN | 2026-09-04 12:52:50 | 48.67904 | 10.42635 | 121° | 110km/h | 13134m | -6.5m/s | -63.0°C | 46.4% | 176.0hPa | 2.6V | 00:00:00 | 00:00:00 | 00:00:00 | |
| DL1ZP-14 | 2026-09-04 12:52:47 | 48.67948 | 10.42466 | 100° | 113km/h | 13160m | -6.4m/s | -63.3°C | 43.5% | 175.2hPa | 2.6V | 00:00:00 | 00:00:00 | 00:00:00 | |
| DO3MHA-12 | 2026-09-04 12:52:44 | 48.67956 | 10.42390 | 100° | 102km/h | 13173m | -6.3m/s | -63.3°C | 56.6% | 174.9hPa | 2.6V | 00:00:00 | 02:23:25 | 00:00:00 | |
| PG1ADW-2 | 2026-09-04 12:52:43 | 48.67961 | 10.42358 | 107° | 102km/h | 13179m | -6.4m/s | -63.3°C | 57.5% | 174.7hPa | 2.6V | 00:00:00 | 00:00:00 | 00:00:00 | |
| AZAK | 2026-09-04 12:52:42 | 48.67961 | 10.42358 | 107° | 80km/h | 13179m | -6.4m/s | -63.4°C | 44.9% | 174.7hPa | 2.6V | 08:05:00 | 00:00:00 | 00:00:00 | |
| NBG1-10 | 2026-09-04 12:52:40 | 48.67991 | 10.42269 | 123° | 102km/h | 13198m | -6.2m/s | -63.4°C | 59.8% | 174.1hPa | 2.6V | 00:00:00 | 02:23:21 | 00:00:00 | |
| DL6DJ-15 | 2026-09-04 12:52:39 | 48.68005 | 10.42235 | 120° | 110km/h | 13204m | -6.4m/s | -63.5°C | 46.4% | 174.0hPa | 2.6V | 00:00:00 | 00:00:00 | 00:00:00 | |
| HARRO8 | 2026-09-04 12:52:37 | 48.68049 | 10.42068 | 101° | 113km/h | 13230m | -6.6m/s | -63.9°C | 44.0% | 173.3hPa | 2.6V | 00:00:00 | 00:00:00 | 00:00:00 | |
| DK7TD | 2026-09-04 12:52:17 | 48.68209 | 10.41443 | 119° | 119km/h | 13349m | -6.3m/s | 0°C | 0% | 0hPa | 2.6V | 08:05:30 | 02:22:58 | 00:00:00 | |
| DO3MHA-11 | 2026-09-04 12:52:17 | 48.68209 | 10.41443 | 119° | 102km/h | 13349m | -6.2m/s | -64.6°C | 55.4% | 169.9hPa | 2.6V | 00:00:00 | 02:22:58 | 00:00:00 | |
| DL1ZP-14 | 2026-09-04 12:52:16 | 48.68233 | 10.41356 | 106° | 122km/h | 13362m | -6.5m/s | -64.8°C | 41.1% | 169.6hPa | 2.5V | 00:00:00 | 00:00:00 | 00:00:00 | |
| DO3MHA-12 | 2026-09-04 12:52:14 | 48.68240 | 10.41312 | 102° | 100km/h | 13368m | -6.6m/s | -64.8°C | 53.4% | 169.3hPa | 2.6V | 00:00:00 | 02:22:55 | 00:00:00 | |
| DF1GD-15 | 2026-09-04 12:52:13 | 48.68241 | 10.41312 | 103° | 115km/h | 13368m | -6.6m/s | -64.9°C | 40.9% | 169.4hPa | 2.6V | 08:05:00 | 00:00:00 | 00:00:00 | |
| DO9HM | 2026-09-04 12:52:11 | 48.68254 | 10.41203 | 106° | 80km/h | 13388m | -6.6m/s | -65.0°C | 41.5% | 168.8hPa | 2.6V | 08:05:00 | 00:00:00 | 00:00:00 | |
| DJ8HS-15 | 2026-09-04 12:52:10 | 48.68261 | 10.41174 | 115° | 102km/h | 13395m | -6.7m/s | -65.0°C | 55.1% | 168.6hPa | 2.6V | 08:05:00 | 02:22:51 | 00:00:00 | |
| DM0DOS-11 | 2026-09-04 12:52:09 | 48.68298 | 10.41081 | 120° | 111km/h | 13415m | -6.4m/s | -65.2°C | 56.2% | 168.2hPa | 2.5V | 08:05:30 | 02:22:48 | 00:00:00 | |
| DK7TD | 2026-09-04 12:52:06 | 48.68311 | 10.41042 | 116° | 120km/h | 13421m | -6.6m/s | 0°C | 0% | 0hPa | 2.5V | 18:12:15 | 02:22:47 | 00:00:00 | |
| DO3MHA-12 | 2026-09-04 12:52:04 | 48.68333 | 10.40956 | 106° | 99km/h | 13434m | -6.3m/s | -65.2°C | 52.2% | 167.5hPa | 2.6V | 00:00:00 | 02:22:45 | 00:00:00 | |
| PG1ADW-2 | 2026-09-04 12:52:03 | 48.68339 | 10.40913 | 100° | 100km/h | 13441m | -6.5m/s | -65.3°C | 52.1% | 167.3hPa | 2.5V | 00:00:00 | 02:22:44 | 00:00:00 | |
| DL9SK-14 | 2026-09-04 12:52:02 | 48.68343 | 10.40874 | 96° | 97km/h | 13447m | -6.8m/s | -65.4°C | 39.7% | 167.3hPa | 2.5V | 00:00:00 | 00:00:00 | 00:00:00 | |
| AZAK | 2026-09-04 12:52:01 | 48.68346 | 10.40839 | 99° | 86km/h | 13454m | -6.7m/s | -65.4°C | 39.6% | 167.0hPa | 2.5V | 08:06:00 | 00:00:00 | 00:00:00 | |
| DM0DOS-11 | 2026-09-04 12:51:59 | 48.68406 | 10.40648 | 113° | 119km/h | 13493m | -6.2m/s | -65.5°C | 50.9% | 166hPa | 2.5V | 08:05:42 | 02:22:36 | 00:00:00 | |
| DF3TZ-5 | 2026-09-04 12:51:59 | 48.68357 | 10.40781 | 114° | 77km/h | 13468m | -6.5m/s | -65.5°C | 40.3% | 166.7hPa | 2.5V | 00:00:00 | 00:00:00 | 00:00:00 | |
| DO3MHA-11 | 2026-09-04 12:51:57 | 48.68379 | 10.40723 | 123° | 102km/h | 13480m | -6.5m/s | -65.4°C | 52.8% | 166.3hPa | 2.5V | 00:00:00 | 02:22:38 | 00:00:00 | |
| DB0NH | 2026-09-04 12:51:56 | 48.68393 | 10.40688 | 120° | 102km/h | 13487m | -6.5m/s | -65.4°C | 52.2% | 166.1hPa | 2.5V | 08:05:00 | 02:22:37 | 00:00:00 | |
| DO3MHA-12 | 2026-09-04 12:51:54 | 48.68417 | 10.40605 | 108° | 100km/h | 13500m | -6.2m/s | -65.4°C | 49.1% | 165.7hPa | 2.6V | 00:00:00 | 02:22:35 | 00:00:00 | |
| OE5DXL-15 | 2026-09-04 12:51:53 | 48.68424 | 10.40561 | 102° | 99km/h | 13506m | -6.4m/s | -65.4°C | 47.9% | 165.6hPa | 2.6V | 00:00:00 | 02:22:34 | 00:00:00 | |
| DF1GD-15 | 2026-09-04 12:51:52 | 48.68425 | 10.40561 | 103° | 115km/h | 13506m | -6.5m/s | -65.4°C | 36.0% | 165.6hPa | 2.5V | 08:06:00 | 00:00:00 | 00:00:00 | |
| DJ8HS-15 | 2026-09-04 12:51:50 | 48.68436 | 10.40448 | 102° | 102km/h | 13526m | -6.5m/s | -65.4°C | 48.3% | 165.0hPa | 2.5V | 00:00:00 | 02:22:31 | 00:00:00 | |
| DM0DOS-11 | 2026-09-04 12:51:49 | 48.68489 | 10.40292 | 119° | 115km/h | 13558m | -6.7m/s | -65.6°C | 48.3% | 164.2hPa | 2.5V | 08:05:52 | 02:22:26 | 00:00:00 | |
| BIOWL1-15 | 2026-09-04 12:51:48 | 48.68450 | 10.40390 | 119° | 84km/h | 13539m | -6.5m/s | 0°C | 0% | 0hPa | 2.6V | 18:12:15 | 02:22:29 | 00:00:00 | |
| DO3MHA-11 | 2026-09-04 12:51:47 | 48.68461 | 10.40360 | 123° | 104km/h | 13545m | -6.4m/s | -65.5°C | 49.3% | 164.5hPa | 2.6V | 00:00:00 | 02:22:28 | 00:00:00 | |
| DO3MHA-12 | 2026-09-04 12:51:44 | 48.68502 | 10.40252 | 115° | 102km/h | 13565m | -6.8m/s | -65.6°C | 47.1% | 163.9hPa | 2.5V | 00:00:00 | 02:22:25 | 00:00:00 | |
| PG1ADW-2 | 2026-09-04 12:51:43 | 48.68514 | 10.40209 | 110° | 99km/h | 13572m | -6.6m/s | -65.7°C | 46.5% | 163.8hPa | 2.5V | 00:00:00 | 00:00:00 | 00:00:00 | |
| DN1GJH-1 | 2026-09-04 12:51:42 | 48.68514 | 10.40209 | 110° | 122km/h | 13572m | -6.6m/s | -65.8°C | 34.6% | 163.8hPa | 2.5V | 08:06:00 | 00:00:00 | 00:00:00 | |
| DJTTGO | 2026-09-04 12:51:40 | 48.68528 | 10.40122 | 100° | 110km/h | 13585m | -6.5m/s | -66.0°C | 34.2% | 163.4hPa | 2.5V | 00:00:00 | 00:00:00 | 00:00:00 | |
| DM0DOS-11 | 2026-09-04 12:51:39 | 48.68576 | 10.39930 | 123° | 104km/h | 13623m | -6.9m/s | -66°C | 46.7% | 162.4hPa | 2.5V | 08:06:02 | 02:22:16 | 00:00:00 | |
| DO3MHA-11 | 2026-09-04 12:51:37 | 48.68550 | 10.39990 | 120° | 102km/h | 13611m | -6.1m/s | -65.9°C | 47.6% | 162.7hPa | 2.5V | 00:00:00 | 02:22:18 | 00:00:00 | |
| OE5DRO-10 | 2026-09-04 12:51:35 | 48.68576 | 10.39930 | 124° | 100km/h | 13624m | -6.8m/s | -65.9°C | 46.7% | 162.4hPa | 2.5V | 00:00:00 | 00:00:00 | 00:00:00 | |
| DO3MHA-12 | 2026-09-04 12:51:34 | 48.68590 | 10.39894 | 121° | 99km/h | 13630m | -6.8m/s | -66.0°C | 46.5% | 162.2hPa | 2.5V | 08:06:00 | 02:22:15 | 00:00:00 | |
| DL9SK-14 | 2026-09-04 12:51:32 | 48.68625 | 10.39769 | 103° | 113km/h | 13650m | -6.5m/s | -66.1°C | 32.0% | 161.7hPa | 2.6V | 00:00:00 | 00:00:00 | 00:00:00 | |
| DJ8HS-15 | 2026-09-04 12:51:30 | 48.68630 | 10.39729 | 100° | 93km/h | 13657m | -6.6m/s | -66.0°C | 43.4% | 161.4hPa | 2.6V | 00:00:00 | 02:22:11 | 00:00:00 | |
| DM0DOS-11 | 2026-09-04 12:51:29 | 48.68663 | 10.39581 | 124° | 89km/h | 13690m | -6.5m/s | -65.8°C | 44.3% | 160.6hPa | 2.6V | 08:06:12 | 02:22:06 | 00:00:00 | |
| DF3TZ-5 | 2026-09-04 12:51:28 | 48.68638 | 10.39661 | 102° | 77km/h | 13670m | -6.8m/s | -66.0°C | 31.7% | 161.1hPa | 2.5V | 00:00:00 | 00:00:00 | 00:00:00 | |
| DO3MHA-11 | 2026-09-04 12:51:27 | 48.68643 | 10.39633 | 112° | 97km/h | 13677m | -6.9m/s | -65.9°C | 44.0% | 160.9hPa | 2.5V | 00:00:00 | 02:22:08 | 00:00:00 | |
| DB0NH | 2026-09-04 12:51:26 | 48.68651 | 10.39608 | 121° | 95km/h | 13684m | -6.7m/s | -65.8°C | 44.4% | 160.7hPa | 2.5V | 00:00:00 | 02:22:07 | 00:00:00 | |
| DO3MHA-12 | 2026-09-04 12:51:24 | 48.68677 | 10.39550 | 124° | 93km/h | 13697m | -6.4m/s | -65.7°C | 43.6% | 160.4hPa | 2.5V | 00:00:00 | 02:22:05 | 00:00:00 | |
| OE5DXL-15 | 2026-09-04 12:51:23 | 48.68690 | 10.39515 | 119° | 95km/h | 13704m | -6.7m/s | -65.7°C | 42.7% | 160.2hPa | 2.5V | 00:00:00 | 00:00:00 | 00:00:00 | |
| DN1GJH-1 | 2026-09-04 12:51:22 | 48.68690 | 10.39515 | 119° | 113km/h | 13704m | -6.7m/s | -65.7°C | 31.2% | 160.3hPa | 2.5V | 08:06:00 | 00:00:00 | 00:00:00 | |
| AZAK | 2026-09-04 12:51:20 | 48.68717 | 10.39393 | 99° | 106km/h | 13724m | -6.6m/s | -65.7°C | 29.1% | 159.7hPa | 2.5V | 08:06:00 | 00:00:00 | 00:00:00 | |
| DO3MHA-11 | 2026-09-04 12:51:17 | 48.68723 | 10.39295 | 101° | 93km/h | 13743m | -7.0m/s | -65.5°C | 40.6% | 159.1hPa | 2.5V | 08:06:00 | 02:21:58 | 00:00:00 | |
| DM0DOS-11 | 2026-09-04 12:51:16 | 48.68770 | 10.39149 | 111° | 111km/h | 13777m | -6.8m/s | -65.5°C | 38.5% | 158.3hPa | 2.5V | 08:06:25 | 02:21:53 | 00:00:00 | |
| OE5DRO-10 | 2026-09-04 12:51:16 | 48.68728 | 10.39270 | 112° | 100km/h | 13750m | -6.8m/s | -65.4°C | 40.5% | 159.0hPa | 2.6V | 00:00:00 | 00:00:00 | 00:00:00 | |
| DO3MHA-12 | 2026-09-04 12:51:14 | 48.68747 | 10.39219 | 122° | 93km/h | 13764m | -6.4m/s | -65.4°C | 39.8% | 158.6hPa | 2.6V | 00:00:00 | 02:21:55 | 00:00:00 | |
| DL1ZP-14 | 2026-09-04 12:51:13 | 48.68759 | 10.39186 | 117° | 104km/h | 13770m | -6.5m/s | -65.5°C | 28.6% | 158.5hPa | 2.6V | 00:00:00 | 00:00:00 | 00:00:00 | |
| DF1GD-15 | 2026-09-04 12:51:11 | 48.68770 | 10.39149 | 112° | 111km/h | 13777m | -6.8m/s | -65.5°C | 27.8% | 158.3hPa | 2.5V | 08:07:00 | 00:00:00 | 00:00:00 | |
| DJ8HS-15 | 2026-09-04 12:51:10 | 48.68783 | 10.39065 | 97° | 95km/h | 13790m | -6.7m/s | -65.4°C | 37.5% | 157.9hPa | 2.5V | 00:00:00 | 02:21:51 | 00:00:00 | |
| DO3MHA-11 | 2026-09-04 12:51:07 | 48.68786 | 10.38960 | 94° | 97km/h | 13810m | -6.6m/s | -65.3°C | 37.3% | 157.4hPa | 2.5V | 00:00:00 | 02:21:48 | 00:00:00 | |
| DL6DJ-15 | 2026-09-04 12:51:06 | 48.68788 | 10.38934 | 104° | 66km/h | 13817m | -6.5m/s | -65.3°C | 26.9% | 157.2hPa | 2.5V | 00:00:00 | 00:00:00 | 00:00:00 | |
| PG1ADW-2 | 2026-09-04 12:51:04 | 48.68815 | 10.38849 | 117° | 97km/h | 13837m | -6.4m/s | -65.4°C | 37.0% | 156.7hPa | 2.5V | 00:00:00 | 00:00:00 | 00:00:00 | |
| DN1GJH-1 | 2026-09-04 12:51:01 | 48.68826 | 10.38811 | 112° | 113km/h | 13843m | -6.5m/s | -65.5°C | 25.8% | 156.6hPa | 2.5V | 08:07:00 | 00:00:00 | 00:00:00 | |
| DL9SK-14 | 2026-09-04 12:51:00 | 48.68841 | 10.38726 | 98° | 115km/h | 13856m | -6.8m/s | -65.7°C | 24.8% | 156.2hPa | 2.5V | 00:00:00 | 00:00:00 | 00:00:00 | |
| DJTTGO | 2026-09-04 12:50:59 | 48.68841 | 10.38726 | 100° | 117km/h | 13857m | -6.8m/s | -65.7°C | 24.8% | 156.2hPa | 2.5V | 00:00:00 | 00:00:00 | 00:00:00 | |
| DO3MHA-11 | 2026-09-04 12:50:57 | 48.68845 | 10.38608 | 91° | 97km/h | 13877m | -6.7m/s | -65.7°C | 34.5% | 155.7hPa | 2.5V | 00:00:00 | 02:21:38 | 00:00:00 | |
| DB0NH | 2026-09-04 12:50:56 | 48.68846 | 10.38578 | 98° | 93km/h | 13884m | -6.9m/s | -65.7°C | 34.4% | 155.5hPa | 2.5V | 00:00:00 | 02:21:37 | 00:00:00 | |
| DO3MHA-12 | 2026-09-04 12:50:54 | 48.68859 | 10.38523 | 119° | 97km/h | 13897m | -6.4m/s | -65.7°C | 34.7% | 155.2hPa | 2.5V | 00:00:00 | 02:21:35 | 00:00:00 | |
| DM0DOS-11 | 2026-09-04 12:50:53 | 48.68909 | 10.38329 | 96° | 111km/h | 13931m | -6.4m/s | -65.8°C | 32% | 154.4hPa | 2.5V | 08:06:48 | 02:21:30 | 00:00:00 | |
| DF7PN | 2026-09-04 12:50:46 | 48.68913 | 10.38227 | 100° | 69km/h | 13951m | -6.8m/s | -65.6°C | 21.9% | 153.9hPa | 2.5V | 00:00:00 | 00:00:00 | 00:00:00 | |
| DM0DOS-11 | 2026-09-04 12:50:44 | 48.68974 | 10.37992 | 96° | 110km/h | 13997m | -6.7m/s | -65.8°C | 28.5% | 152.7hPa | 2.5V | 08:06:58 | 02:21:20 | 00:00:00 | |
| DO3MHA-12 | 2026-09-04 12:50:44 | 48.68926 | 10.38175 | 120° | 93km/h | 13964m | -6.5m/s | -65.6°C | 31.7% | 153.4hPa | 2.5V | 00:00:00 | 02:21:25 | 00:00:00 | |
| PG1ADW-2 | 2026-09-04 12:50:43 | 48.68937 | 10.38146 | 121° | 91km/h | 13971m | -6.6m/s | -65.6°C | 31.3% | 153.3hPa | 2.5V | 00:00:00 | 02:21:24 | 00:00:00 | |
| DL1ZP-14 | 2026-09-04 12:50:42 | 48.68949 | 10.38113 | 116° | 104km/h | 13977m | -6.9m/s | -65.7°C | 21.3% | 153.2hPa | 2.5V | 00:00:00 | 00:00:00 | 00:00:00 | |
| DN1GJH-1 | 2026-09-04 12:50:41 | 48.68949 | 10.38113 | 118° | 106km/h | 13978m | -6.9m/s | -65.7°C | 21.4% | 153.2hPa | 2.6V | 08:07:00 | 00:00:00 | 00:00:00 | |
| AZAK | 2026-09-04 12:50:39 | 48.68973 | 10.37992 | 98° | 110km/h | 13998m | -6.7m/s | -65.8°C | 19.4% | 152.7hPa | 2.6V | 08:07:00 | 00:00:00 | 00:00:00 | |
| DJTTGO | 2026-09-04 12:50:38 | 48.68973 | 10.37992 | 98° | 110km/h | 13998m | -6.7m/s | -65.8°C | 19.4% | 152.7hPa | 2.6V | 00:00:00 | 00:00:00 | 00:00:00 | |
| DO3MHA-11 | 2026-09-04 12:50:37 | 48.68976 | 10.37918 | 91° | 91km/h | 14011m | -7.0m/s | -65.8°C | 28.3% | 152.3hPa | 2.6V | 00:00:00 | 02:21:18 | 00:00:00 | |
| DL6DJ-15 | 2026-09-04 12:50:35 | 48.68980 | 10.37862 | 105° | 66km/h | 14025m | -6.9m/s | -65.6°C | 18.5% | 152.0hPa | 2.6V | 00:00:00 | 00:00:00 | 00:00:00 | |
| DM0DOS-11 | 2026-09-04 12:50:33 | 48.69038 | 10.37669 | 102° | 110km/h | 14064m | -6.5m/s | -65.5°C | 24.6% | 151hPa | 2.6V | 08:07:08 | 02:21:10 | 00:00:00 | |
| DL9SK-14 | 2026-09-04 12:50:30 | 48.69038 | 10.37669 | 102° | 108km/h | 14065m | -6.5m/s | -65.5°C | 16.2% | 151.0hPa | 2.5V | 00:00:00 | 00:00:00 | 00:00:00 | |
| NBG1-10 | 2026-09-04 12:50:28 | 48.69042 | 10.37629 | 97° | 91km/h | 14071m | -6.2m/s | -65.5°C | 24.4% | 150.7hPa | 2.5V | 00:00:00 | 02:21:09 | 00:00:00 | |
| DO9HM | 2026-09-04 12:50:27 | 48.69044 | 10.37594 | 94° | 86km/h | 14077m | -6.4m/s | -65.6°C | 15.9% | 150.7hPa | 2.5V | 00:00:00 | 00:00:00 | 00:00:00 | |
| DB0NH | 2026-09-04 12:50:26 | 48.69046 | 10.37563 | 95° | 91km/h | 14084m | -6.9m/s | -65.4°C | 24.0% | 150.5hPa | 2.5V | 00:00:00 | 02:21:07 | 00:00:00 | |
| DM0DOS-11 | 2026-09-04 12:50:24 | 48.69105 | 10.37357 | 106° | 113km/h | 14131m | -6.7m/s | -65.3°C | 22% | 149.3hPa | 2.6V | 08:07:18 | 02:21:00 | 00:00:00 | |
| DO3MHA-12 | 2026-09-04 12:50:24 | 48.69053 | 10.37512 | 113° | 93km/h | 14098m | -6.6m/s | -65.4°C | 24.3% | 150.1hPa | 2.6V | 00:00:00 | 02:21:05 | 00:00:00 | |
| PG1ADW-2 | 2026-09-04 12:50:23 | 48.69061 | 10.37489 | 121° | 89km/h | 14104m | -6.5m/s | -65.4°C | 24.4% | 149.9hPa | 2.6V | 00:00:00 | 00:00:00 | 00:00:00 | |
| DN1GJH-1 | 2026-09-04 12:50:21 | 48.69072 | 10.37462 | 124° | 86km/h | 14111m | -6.9m/s | -65.4°C | 15.6% | 149.9hPa | 2.5V | 00:00:00 | 00:00:00 | 00:00:00 | |
| DB0UT-7 | 2026-09-04 12:50:20 | 48.69096 | 10.37397 | 114° | 91km/h | 14125m | -6.5m/s | -65.3°C | 22.8% | 149.4hPa | 2.5V | 00:00:00 | 02:21:01 | 00:00:00 | |
| OE5DRO-10 | 2026-09-04 12:50:18 | 48.69112 | 10.37316 | 100° | 93km/h | 14138m | -6.8m/s | -65.3°C | 21.6% | 149.1hPa | 2.5V | 00:00:00 | 00:00:00 | 00:00:00 | |
| DO3MHA-11 | 2026-09-04 12:50:17 | 48.69115 | 10.37275 | 95° | 91km/h | 14145m | -6.8m/s | -65.4°C | 21.6% | 148.9hPa | 2.5V | 00:00:00 | 02:20:58 | 00:00:00 | |
| DF7PN | 2026-09-04 12:50:15 | 48.69119 | 10.37178 | 100° | 68km/h | 14165m | -6.7m/s | -65.1°C | 13.2% | 148.5hPa | 2.5V | 00:00:00 | 00:00:00 | 00:00:00 | |
| DO3MHA-12 | 2026-09-04 12:50:14 | 48.69119 | 10.37177 | 101° | 93km/h | 14165m | -6.6m/s | -65.1°C | 21.1% | 148.4hPa | 2.5V | 00:00:00 | 02:20:55 | 00:00:00 | |
| DH7VM-15 | 2026-09-04 12:50:13 | 48.69118 | 10.37177 | 101° | 68km/h | 14165m | -6.7m/s | -65.1°C | 13.2% | 148.5hPa | 2.5V | 00:00:00 | 00:00:00 | 00:00:00 | |
| DL1ZP-14 | 2026-09-04 12:50:11 | 48.69143 | 10.37098 | 120° | 93km/h | 14185m | -6.9m/s | -64.5°C | 12.1% | 148.0hPa | 2.5V | 00:00:00 | 00:00:00 | 00:00:00 | |
| DJ8HS-15 | 2026-09-04 12:50:10 | 48.69155 | 10.37065 | 118° | 91km/h | 14193m | -7.0m/s | -64.4°C | 18.9% | 147.8hPa | 2.5V | 00:00:00 | 02:20:51 | 00:00:00 | |
| DF1GD-15 | 2026-09-04 12:50:09 | 48.69155 | 10.37065 | 118° | 106km/h | 14193m | -7.1m/s | -64.4°C | 11.7% | 147.8hPa | 2.5V | 08:08:00 | 00:00:00 | 00:00:00 | |
| DO3MHA-11 | 2026-09-04 12:50:07 | 48.69179 | 10.36942 | 96° | 91km/h | 14214m | -7.0m/s | -64.1°C | 17.2% | 147.3hPa | 2.5V | 00:00:00 | 02:20:48 | 00:00:00 | |
| DO3MHA-12 | 2026-09-04 12:50:04 | 48.69180 | 10.36840 | 95° | 91km/h | 14234m | -7.0m/s | -64.0°C | 16.9% | 146.8hPa | 2.5V | 08:07:00 | 02:20:45 | 00:00:00 | |
| HARRO8 | 2026-09-04 12:50:01 | 48.69213 | 10.36734 | 117° | 102km/h | 14262m | -6.7m/s | -63.9°C | 9.8% | 146.1hPa | 2.5V | 00:00:00 | 00:00:00 | 00:00:00 | |
| DL9SK-14 | 2026-09-04 12:49:58 | 48.69237 | 10.36611 | 95° | 110km/h | 14282m | -7.0m/s | -64.1°C | 9.2% | 145.6hPa | 2.5V | 00:00:00 | 00:00:00 | 00:00:00 | |
| DO3MHA-11 | 2026-09-04 12:49:57 | 48.69237 | 10.36611 | 96° | 89km/h | 14282m | -7.0m/s | -64.1°C | 15.6% | 145.6hPa | 2.5V | 00:00:00 | 02:20:38 | 00:00:00 | |
| DB0NH | 2026-09-04 12:49:56 | 48.69238 | 10.36571 | 90° | 91km/h | 14289m | -6.9m/s | -64.1°C | 15.8% | 145.4hPa | 2.5V | 00:00:00 | 02:20:37 | 00:00:00 | |
| NBG1-10 | 2026-09-04 12:49:55 | 48.69238 | 10.36536 | 89° | 89km/h | 14296m | -6.6m/s | -64.0°C | 15.8% | 145.3hPa | 2.5V | 00:00:00 | 02:20:36 | 00:00:00 | |
| DO3MHA-12 | 2026-09-04 12:49:54 | 48.69238 | 10.36507 | 95° | 89km/h | 14303m | -6.7m/s | -64.0°C | 15.8% | 145.1hPa | 2.5V | 00:00:00 | 02:20:35 | 00:00:00 | |
| DM0DOS-11 | 2026-09-04 12:49:53 | 48.69279 | 10.36365 | 110° | 110km/h | 14336m | -6.6m/s | -63.9°C | 15% | 144.4hPa | 2.5V | 08:07:48 | 02:20:30 | 00:00:00 | |
| OE5DXL-15 | 2026-09-04 12:49:53 | 48.69241 | 10.36483 | 108° | 91km/h | 14309m | -6.6m/s | -63.9°C | 15.9% | 145.0hPa | 2.5V | 00:00:00 | 00:00:00 | 00:00:00 | |
| DB0UT-7 | 2026-09-04 12:49:50 | 48.69269 | 10.36402 | 118° | 91km/h | 14330m | -6.7m/s | -63.9°C | 15.3% | 144.5hPa | 2.5V | 00:00:00 | 00:00:00 | 00:00:00 | |
| DJTTGO | 2026-09-04 12:49:49 | 48.69269 | 10.36402 | 118° | 100km/h | 14330m | -6.7m/s | -63.9°C | 8.9% | 144.5hPa | 2.5V | 00:00:00 | 00:00:00 | 00:00:00 | |
| DF1GD-15 | 2026-09-04 12:49:48 | 48.69279 | 10.36365 | 112° | 110km/h | 14336m | -6.6m/s | -63.9°C | 8.7% | 144.4hPa | 2.5V | 08:08:00 | 00:00:00 | 00:00:00 | |
| DO3MHA-11 | 2026-09-04 12:49:47 | 48.69293 | 10.36284 | 97° | 88km/h | 14350m | -7.0m/s | -63.9°C | 14.3% | 144.0hPa | 2.5V | 08:07:00 | 02:20:28 | 00:00:00 | |
| DO3MHA-12 | 2026-09-04 12:49:44 | 48.69293 | 10.36179 | 89° | 91km/h | 14370m | -7.2m/s | -63.7°C | 13.7% | 143.5hPa | 2.6V | 00:00:00 | 02:20:25 | 00:00:00 | |
| PG1ADW-2 | 2026-09-04 12:49:43 | 48.69295 | 10.36153 | 98° | 86km/h | 14377m | -7.0m/s | -63.6°C | 13.7% | 143.3hPa | 2.6V | 00:00:00 | 00:00:00 | 00:00:00 | |
| DM7RM-13 | 2026-09-04 12:49:41 | 48.69299 | 10.36130 | 112° | 66km/h | 14384m | -6.7m/s | -63.5°C | 7.7% | 143.3hPa | 2.6V | 08:08:00 | 00:00:00 | 00:00:00 | |
| OE5DRO-10 | 2026-09-04 12:49:40 | 48.69316 | 10.36077 | 119° | 93km/h | 14398m | -7.1m/s | -63.2°C | 13.2% | 142.8hPa | 2.6V | 08:07:00 | 00:00:00 | 00:00:00 | |
| DN1GJH-1 | 2026-09-04 12:49:39 | 48.69316 | 10.36077 | 120° | 91km/h | 14398m | -7.1m/s | -63.3°C | 7.4% | 142.9hPa | 2.5V | 00:00:00 | 00:00:00 | 00:00:00 | |
| DM0DOS-11 | 2026-09-04 12:49:38 | 48.69346 | 10.35816 | 93° | 68km/h | 14447m | -7.1m/s | -63°C | 12.3% | 141.8hPa | 2.5V | 08:08:04 | 02:20:14 | 00:00:00 | |
| AZAK | 2026-09-04 12:49:38 | 48.69338 | 10.36004 | 109° | 115km/h | 14412m | -7.1m/s | -63.2°C | 7.0% | 142.6hPa | 2.6V | 08:08:00 | 00:00:00 | 00:00:00 | |
| DO3MHA-11 | 2026-09-04 12:49:37 | 48.69345 | 10.35961 | 100° | 93km/h | 14419m | -6.9m/s | -63.1°C | 12.5% | 142.3hPa | 2.6V | 00:00:00 | 02:20:18 | 00:00:00 | |
| DO3MHA-12 | 2026-09-04 12:49:34 | 48.69346 | 10.35845 | 87° | 93km/h | 14440m | -7.0m/s | -63.1°C | 12.2% | 141.8hPa | 2.6V | 00:00:00 | 02:20:15 | 00:00:00 | |
| DL6DJ-15 | 2026-09-04 12:49:33 | 48.69349 | 10.35791 | 108° | 66km/h | 14454m | -7.1m/s | -63.0°C | 6.8% | 141.6hPa | 2.5V | 00:00:00 | 00:00:00 | 00:00:00 | |
| DJ8HS-15 | 2026-09-04 12:49:30 | 48.69367 | 10.35736 | 119° | 91km/h | 14468m | -7.0m/s | -62.9°C | 12.3% | 141.2hPa | 2.5V | 00:00:00 | 02:20:11 | 00:00:00 | |
| DF1GD-15 | 2026-09-04 12:49:28 | 48.69378 | 10.35701 | 114° | 110km/h | 14475m | -6.7m/s | -63.0°C | 6.6% | 141.1hPa | 2.5V | 08:08:00 | 00:00:00 | 00:00:00 | |
| DO3MHA-11 | 2026-09-04 12:49:27 | 48.69393 | 10.35618 | 98° | 89km/h | 14488m | -7.0m/s | -63.0°C | 11.7% | 140.8hPa | 2.5V | 00:00:00 | 02:20:08 | 00:00:00 | |
| DB0NH | 2026-09-04 12:49:26 | 48.69395 | 10.35575 | 91° | 89km/h | 14495m | -7.3m/s | -63.1°C | 11.8% | 140.6hPa | 2.5V | 00:00:00 | 02:20:07 | 00:00:00 | |
| DO3MHA-12 | 2026-09-04 12:49:24 | 48.69392 | 10.35504 | 86° | 89km/h | 14510m | -7.0m/s | -63.1°C | 11.9% | 140.3hPa | 2.5V | 00:00:00 | 02:20:05 | 00:00:00 | |
| DM0DOS-11 | 2026-09-04 12:49:23 | 48.69395 | 10.35453 | 108° | 64km/h | 14523m | -6.8m/s | -63.1°C | 11.9% | 140hPa | 2.5V | 08:08:15 | 02:20:03 | 00:00:00 | |
| OE5DXL-15 | 2026-09-04 12:49:23 | 48.69392 | 10.35477 | 95° | 89km/h | 14517m | -6.6m/s | -63.1°C | 11.9% | 140.1hPa | 2.5V | 00:00:00 | 00:00:00 | 00:00:00 | |
| NBG1-10 | 2026-09-04 12:49:22 | 48.69395 | 10.35453 | 109° | 89km/h | 14523m | -6.8m/s | -63.0°C | 11.9% | 140.0hPa | 2.5V | 00:00:00 | 02:20:03 | 00:00:00 | |
| OE5DRO-10 | 2026-09-04 12:49:21 | 48.69402 | 10.35429 | 118° | 93km/h | 14530m | -7.2m/s | -63.0°C | 11.9% | 139.8hPa | 2.6V | 00:00:00 | 00:00:00 | 00:00:00 | |
| DB0UT-7 | 2026-09-04 12:49:20 | 48.69412 | 10.35401 | 119° | 89km/h | 14538m | -7.1m/s | -62.9°C | 11.6% | 139.6hPa | 2.6V | 00:00:00 | 02:20:01 | 00:00:00 | |
| DN1GJH-1 | 2026-09-04 12:49:19 | 48.69423 | 10.35368 | 115° | 102km/h | 14545m | -7.1m/s | -62.8°C | 6.0% | 139.5hPa | 2.6V | 00:00:00 | 00:00:00 | 00:00:00 | |
| DM0DOS-11 | 2026-09-04 12:49:18 | 48.69439 | 10.35124 | 103° | 60km/h | 14594m | -7m/s | -62.5°C | 10.6% | 138.4hPa | 2.6V | 08:08:25 | 02:19:53 | 00:00:00 | |
| DO3MHA-11 | 2026-09-04 12:49:17 | 48.69438 | 10.35288 | 100° | 91km/h | 14559m | -6.8m/s | -62.8°C | 10.9% | 139.1hPa | 2.5V | 00:00:00 | 02:19:58 | 00:00:00 | |
| AZAK | 2026-09-04 12:49:16 | 48.69438 | 10.35288 | 100° | 113km/h | 14559m | -6.9m/s | -62.8°C | 5.7% | 139.2hPa | 2.5V | 08:08:00 | 00:00:00 | 00:00:00 | |
| DO3MHA-12 | 2026-09-04 12:49:14 | 48.69438 | 10.35175 | 84° | 89km/h | 14580m | -6.9m/s | -62.6°C | 10.7% | 138.7hPa | 2.5V | 00:00:00 | 02:19:55 | 00:00:00 | |
| DF7PN | 2026-09-04 12:49:13 | 48.69438 | 10.35124 | 103° | 58km/h | 14594m | -7.0m/s | -62.5°C | 5.5% | 138.4hPa | 2.5V | 00:00:00 | 00:00:00 | 00:00:00 | |
| DJ8HS-15 | 2026-09-04 12:49:10 | 48.69453 | 10.35075 | 121° | 91km/h | 14608m | -7.0m/s | -62.3°C | 10.7% | 138.1hPa | 2.5V | 08:08:00 | 02:19:51 | 00:00:00 | |
| DL1ZP-14 | 2026-09-04 12:49:09 | 48.69465 | 10.35044 | 116° | 100km/h | 14615m | -7.0m/s | -62.4°C | 5.5% | 137.9hPa | 2.5V | 00:00:00 | 00:00:00 | 00:00:00 | |
| DF1GD-15 | 2026-09-04 12:49:08 | 48.69465 | 10.35044 | 118° | 102km/h | 14615m | -7.0m/s | -62.4°C | 5.6% | 137.9hPa | 2.6V | 08:08:00 | 00:00:00 | 00:00:00 | |
| DM0DOS-11 | 2026-09-04 12:49:07 | 48.69492 | 10.34798 | 110° | 62km/h | 14665m | -7.2m/s | -62.6°C | 10.5% | 136.9hPa | 2.6V | 08:08:35 | 02:19:43 | 00:00:00 | |
| DK7TD | 2026-09-04 12:48:58 | 48.69536 | 10.34678 | 111° | 115km/h | 14693m | -6.8m/s | -62.8°C | 6.5% | 136.2hPa | 2.5V | 08:08:54 | 02:19:39 | 00:00:00 | |
| DL9SK-14 | 2026-09-04 12:48:56 | 48.69550 | 10.34555 | 89° | 93km/h | 14714m | -7.3m/s | -63.0°C | 5.2% | 135.7hPa | 2.6V | 00:00:00 | 00:00:00 | 00:00:00 | |
| DF3TZ-5 | 2026-09-04 12:48:53 | 48.69556 | 10.34473 | 115° | 64km/h | 14736m | -7.1m/s | -62.8°C | 5.1% | 135.2hPa | 2.6V | 00:00:00 | 00:00:00 | 00:00:00 | |
| DM0DOS-11 | 2026-09-04 12:48:52 | 48.69556 | 10.34473 | 115° | 64km/h | 14736m | -7.1m/s | -62.8°C | 10.3% | 135.2hPa | 2.6V | 08:08:45 | 02:19:33 | 00:00:00 | |
| DK7TD | 2026-09-04 12:48:48 | 48.69603 | 10.34347 | 109° | 119km/h | 14765m | -7.4m/s | -62.7°C | 5.8% | 134.6hPa | 2.5V | 08:08:54 | 02:19:29 | 00:00:00 | |
| DO3MHA-11 | 2026-09-04 12:48:47 | 48.69610 | 10.34304 | 101° | 93km/h | 14772m | -7.5m/s | -62.7°C | 9.9% | 134.4hPa | 2.6V | 00:00:00 | 02:19:28 | 00:00:00 | |
| DO3MHA-12 | 2026-09-04 12:48:44 | 48.69614 | 10.34193 | 90° | 91km/h | 14794m | -7.2m/s | -62.6°C | 9.9% | 133.9hPa | 2.5V | 00:00:00 | 02:19:25 | 00:00:00 | |
| PG1ADW-2 | 2026-09-04 12:48:43 | 48.69615 | 10.34168 | 103° | 88km/h | 14801m | -7.2m/s | -62.5°C | 9.9% | 133.7hPa | 2.5V | 00:00:00 | 00:00:00 | 00:00:00 | |
| DF7PN | 2026-09-04 12:48:42 | 48.69631 | 10.34122 | 124° | 82km/h | 14816m | -7.3m/s | -62.5°C | 4.8% | 133.5hPa | 2.5V | 00:00:00 | 00:00:00 | 00:00:00 | |
| DM7RM-13 | 2026-09-04 12:48:39 | 48.69643 | 10.34092 | 122° | 100km/h | 14823m | -7.1m/s | -62.5°C | 4.7% | 133.3hPa | 2.5V | 08:09:00 | 00:00:00 | 00:00:00 | |
| DM0DOS-11 | 2026-09-04 12:48:38 | 48.69678 | 10.33823 | 118° | 68km/h | 14880m | -7.3m/s | -62°C | 9.4% | 132.1hPa | 2.5V | 08:09:05 | 02:19:13 | 00:00:00 | |
| DK7TD | 2026-09-04 12:48:38 | 48.69670 | 10.33971 | 95° | 111km/h | 14844m | -7.4m/s | -62.5°C | 5.2% | 132.8hPa | 2.5V | 08:09:45 | 02:19:18 | 00:00:00 | |
| DK7TD | 2026-09-04 12:48:26 | 48.69722 | 10.33610 | 87° | 95km/h | 14925m | -7.5m/s | -62.1°C | 4.6% | 131.2hPa | 2.5V | 08:09:45 | 02:19:07 | 00:00:00 | |
| DB0NH | 2026-09-04 12:48:26 | 48.69722 | 10.33610 | 87° | 80km/h | 14925m | -7.5m/s | -62.0°C | 8.9% | 131.1hPa | 2.5V | 00:00:00 | 02:19:07 | 00:00:00 | |
| DL9SK-14 | 2026-09-04 12:48:25 | 48.69719 | 10.33551 | 90° | 60km/h | 14940m | -7.4m/s | -61.8°C | 3.9% | 130.8hPa | 2.5V | 00:00:00 | 00:00:00 | 00:00:00 | |
| DM0DOS-11 | 2026-09-04 12:48:24 | 48.69728 | 10.33508 | 120° | 66km/h | 14954m | -7.4m/s | -61.7°C | 8.8% | 130.5hPa | 2.5V | 08:09:15 | 02:19:03 | 00:00:00 | |
| DO3MHA-12 | 2026-09-04 12:48:24 | 48.69719 | 10.33551 | 91° | 84km/h | 14940m | -7.4m/s | -61.7°C | 8.7% | 130.7hPa | 2.5V | 00:00:00 | 02:19:05 | 00:00:00 | |
| OE5DRO-10 | 2026-09-04 12:48:23 | 48.69721 | 10.33529 | 108° | 84km/h | 14947m | -7.3m/s | -61.7°C | 8.8% | 130.6hPa | 2.5V | 00:00:00 | 00:00:00 | 00:00:00 | |
| DF3TZ-5 | 2026-09-04 12:48:22 | 48.69738 | 10.33484 | 123° | 82km/h | 14962m | -7.5m/s | -61.7°C | 4.0% | 130.4hPa | 2.5V | 00:00:00 | 00:00:00 | 00:00:00 | |
| DM7RM-13 | 2026-09-04 12:48:20 | 48.69750 | 10.33454 | 120° | 99km/h | 14969m | -7.4m/s | -61.7°C | 3.9% | 130.2hPa | 2.5V | 08:09:00 | 00:00:00 | 00:00:00 | |
| DM0DOS-11 | 2026-09-04 12:48:19 | 48.69773 | 10.33209 | 119° | 62km/h | 15028m | -7.4m/s | -60.5°C | 8% | 129hPa | 2.5V | 08:09:25 | 02:18:53 | 00:00:00 | |
| DO3MHA-11 | 2026-09-04 12:48:16 | 48.69770 | 10.33301 | 84° | 78km/h | 14999m | -7.2m/s | -61.4°C | 8.6% | 129.5hPa | 2.5V | 08:09:00 | 02:18:57 | 00:00:00 | |
| AZAK | 2026-09-04 12:48:15 | 48.69770 | 10.33301 | 85° | 88km/h | 14999m | -7.3m/s | -61.4°C | 3.8% | 129.5hPa | 2.5V | 08:09:00 | 00:00:00 | 00:00:00 | |
| DO3MHA-12 | 2026-09-04 12:48:14 | 48.69766 | 10.33248 | 89° | 78km/h | 15013m | -6.9m/s | -60.8°C | 8.2% | 129.3hPa | 2.5V | 00:00:00 | 02:18:55 | 00:00:00 | |
| DO9HM | 2026-09-04 12:48:13 | 48.69767 | 10.33229 | 108° | 51km/h | 15020m | -7.3m/s | -60.6°C | 3.6% | 129.1hPa | 2.5V | 00:00:00 | 00:00:00 | 00:00:00 | |
| DF7PN | 2026-09-04 12:48:11 | 48.69791 | 10.33156 | 112° | 91km/h | 15042m | -7.2m/s | -60.5°C | 3.4% | 128.7hPa | 2.5V | 00:00:00 | 00:00:00 | 00:00:00 | |
| DJ8HS-15 | 2026-09-04 12:48:10 | 48.69791 | 10.33156 | 113° | 77km/h | 15042m | -7.1m/s | -60.4°C | 7.9% | 128.7hPa | 2.5V | 00:00:00 | 02:18:51 | 00:00:00 | |
| DL1ZP-14 | 2026-09-04 12:48:07 | 48.69801 | 10.33045 | 83° | 93km/h | 15064m | -7.5m/s | -60.1°C | 3.2% | 128.2hPa | 2.5V | 00:00:00 | 00:00:00 | 00:00:00 | |
| DM0DOS-11 | 2026-09-04 12:48:06 | 48.69812 | 10.32873 | 110° | 95km/h | 15116m | -7.3m/s | -59.5°C | 7.2% | 127.2hPa | 2.5V | 08:09:37 | 02:18:41 | 00:00:00 | |
| DK7TD | 2026-09-04 12:48:02 | 48.69795 | 10.32927 | 118° | 62km/h | 15102m | -7.4m/s | -59.5°C | 3.4% | 127.5hPa | 2.6V | 08:09:45 | 02:18:43 | 00:00:00 | |
| DL6DJ-15 | 2026-09-04 12:48:00 | 48.69819 | 10.32836 | 101° | 102km/h | 15124m | -7.5m/s | -59.6°C | 3.0% | 127.0hPa | 2.6V | 00:00:00 | 00:00:00 | 00:00:00 | |
| OE9MKV-15 | 2026-09-04 12:47:59 | 48.69819 | 10.32836 | 102° | 89km/h | 15124m | -7.4m/s | -59.5°C | 7.2% | 127.0hPa | 2.6V | 00:00:00 | 02:18:40 | 00:00:00 | |
| DM7RM-13 | 2026-09-04 12:47:58 | 48.69819 | 10.32836 | 103° | 102km/h | 15124m | -7.5m/s | -59.6°C | 3.1% | 127.0hPa | 2.6V | 08:09:00 | 00:00:00 | 00:00:00 | |
| DB0NH | 2026-09-04 12:47:56 | 48.69818 | 10.32729 | 79° | 71km/h | 15147m | -7.8m/s | -59.3°C | 7.0% | 126.5hPa | 2.6V | 00:00:00 | 02:18:37 | 00:00:00 | |
| DM0DOS-11 | 2026-09-04 12:47:55 | 48.69850 | 10.32595 | 115° | 97km/h | 15191m | -7m/s | -58.9°C | 6.8% | 125.6hPa | 2.6V | 08:09:47 | 02:18:31 | 00:00:00 | |
| DK7TD | 2026-09-04 12:47:51 | 48.69839 | 10.32625 | 124° | 84km/h | 15184m | -7.3m/s | -58.9°C | 3.1% | 125.8hPa | 2.5V | 08:10:36 | 02:18:32 | 00:00:00 | |
| DF3TZ-5 | 2026-09-04 12:47:51 | 48.69850 | 10.32595 | 115° | 95km/h | 15191m | -7.0m/s | -58.9°C | 2.9% | 125.7hPa | 2.5V | 00:00:00 | 00:00:00 | 00:00:00 | |
| DK7TD | 2026-09-04 12:47:40 | 48.69902 | 10.32348 | 116° | 93km/h | 15266m | -7.3m/s | -58.3°C | 2.9% | 124.1hPa | 2.5V | 08:10:36 | 02:18:21 | 00:00:00 | |
| DB0ND-19 | 2026-09-04 12:47:39 | 48.69914 | 10.32280 | 94° | 88km/h | 15281m | -7.6m/s | -58.5°C | 2.6% | 123.8hPa | 2.5V | 00:00:00 | 00:00:00 | 00:00:00 | |
| DM0DOS-11 | 2026-09-04 12:47:38 | 48.69913 | 10.32223 | 84° | 60km/h | 15295m | -7.1m/s | -58.5°C | 6.3% | 123.6hPa | 2.5V | 08:10:01 | 02:18:17 | 00:00:00 | |
| DK7TD | 2026-09-04 12:47:29 | 48.69962 | 10.32074 | 107° | 95km/h | 15348m | -7.4m/s | -58.2°C | 2.7% | 122.5hPa | 2.5V | 08:10:36 | 02:18:10 | 00:00:00 | |
| DL6DJ-15 | 2026-09-04 12:47:29 | 48.69967 | 10.32039 | 96° | 89km/h | 15356m | -7.5m/s | -58.3°C | 2.6% | 122.4hPa | 2.6V | 00:00:00 | 00:00:00 | 00:00:00 | |
| DM0DOS-11 | 2026-09-04 12:47:28 | 48.69967 | 10.31979 | 83° | 66km/h | 15370m | -7.5m/s | -58.3°C | 6.3% | 122.1hPa | 2.6V | 08:10:11 | 02:18:07 | 00:00:00 | |
| DB0NH | 2026-09-04 12:47:26 | 48.69966 | 10.31979 | 84° | 71km/h | 15371m | -7.5m/s | -58.3°C | 6.3% | 122.0hPa | 2.6V | 08:10:00 | 02:18:07 | 00:00:00 | |
| HARRO8 | 2026-09-04 12:47:25 | 48.69965 | 10.31958 | 86° | 47km/h | 15378m | -7.5m/s | -58.4°C | 2.6% | 122.0hPa | 2.6V | 00:00:00 | 00:00:00 | 00:00:00 | |
| DO3MHA-12 | 2026-09-04 12:47:24 | 48.69966 | 10.31941 | 106° | 69km/h | 15386m | -7.3m/s | -58.3°C | 6.3% | 121.8hPa | 2.6V | 00:00:00 | 02:18:05 | 00:00:00 | |
| DL9SK-14 | 2026-09-04 12:47:23 | 48.69979 | 10.31911 | 131° | 60km/h | 15401m | -7.7m/s | -58.4°C | 2.6% | 121.5hPa | 2.6V | 00:00:00 | 00:00:00 | 00:00:00 | |
| DM0DOS-11 | 2026-09-04 12:47:20 | 48.70013 | 10.31735 | 79° | 62km/h | 15447m | -7.4m/s | -58.7°C | 6.3% | 120.6hPa | 2.6V | 08:10:21 | 02:17:57 | 00:00:00 | |
| DK7TD | 2026-09-04 12:47:19 | 48.70011 | 10.31830 | 107° | 97km/h | 15424m | -7.8m/s | -58.6°C | 2.7% | 121hPa | 2.5V | 08:10:36 | 02:18:00 | 00:00:00 | |
| DK7TD | 2026-09-04 12:47:08 | 48.70065 | 10.31546 | 94° | 89km/h | 15508m | -7.6m/s | -58.8°C | 2.7% | 119.5hPa | 2.6V | 08:10:36 | 02:17:49 | 00:00:00 | |
| DM0DOS-11 | 2026-09-04 12:47:08 | 48.70064 | 10.31490 | 85° | 55km/h | 15523m | -7.3m/s | -58.8°C | 6.4% | 119.2hPa | 2.5V | 08:10:31 | 02:17:47 | 00:00:00 | |
| DO3MHA-11 | 2026-09-04 12:47:06 | 48.70064 | 10.31490 | 86° | 71km/h | 15524m | -7.3m/s | -58.8°C | 6.4% | 119.1hPa | 2.6V | 00:00:00 | 02:17:47 | 00:00:00 | |
| DL1ZP-14 | 2026-09-04 12:47:05 | 48.70065 | 10.31472 | 102° | 40km/h | 15531m | -7.6m/s | -58.8°C | 2.6% | 119.1hPa | 2.6V | 00:00:00 | 00:00:00 | 00:00:00 | |
| PG1ADW-2 | 2026-09-04 12:47:04 | 48.70078 | 10.31442 | 136° | 62km/h | 15546m | -7.7m/s | -58.7°C | 6.4% | 118.7hPa | 2.6V | 00:00:00 | 00:00:00 | 00:00:00 | |
| DN1GJH-1 | 2026-09-04 12:47:02 | 48.70078 | 10.31442 | 136° | 62km/h | 15546m | -7.7m/s | -58.8°C | 2.7% | 118.7hPa | 2.6V | 08:10:00 | 00:00:00 | 00:00:00 | |
| DM0DOS-11 | 2026-09-04 12:47:00 | 48.70119 | 10.31244 | 85° | 47km/h | 15599m | -7.2m/s | -58.9°C | 6.3% | 117.7hPa | 2.6V | 08:10:41 | 02:17:37 | 00:00:00 | |
| DK7TD | 2026-09-04 12:46:57 | 48.70120 | 10.31266 | 82° | 66km/h | 15592m | -7.6m/s | -58.9°C | 2.7% | 117.9hPa | 2.6V | 08:11:27 | 02:17:38 | 00:00:00 | |
| DL9SK-14 | 2026-09-04 12:46:52 | 48.70161 | 10.31148 | 116° | 95km/h | 15637m | -7.8m/s | -59.0°C | 2.5% | 117.1hPa | 2.6V | 00:00:00 | 00:00:00 | 00:00:00 | |
| DJ8HS-15 | 2026-09-04 12:46:50 | 48.70169 | 10.31114 | 105° | 69km/h | 15644m | -7.4m/s | -59.0°C | 6.3% | 116.8hPa | 2.6V | 00:00:00 | 02:17:31 | 00:00:00 | |
| DG9SBQ-11 | 2026-09-04 12:46:48 | 48.70173 | 10.31080 | 93° | 86km/h | 15652m | -6.9m/s | -59.1°C | 2.6% | 116.8hPa | 2.6V | 00:00:00 | 00:00:00 | 00:00:00 | |
| DM0DOS-11 | 2026-09-04 12:46:47 | 48.70169 | 10.31014 | 97° | 33km/h | 15673m | -7.2m/s | -59°C | 6.5% | 116.3hPa | 2.6V | 08:10:51 | 02:17:27 | 00:00:00 | |
| DK7TD | 2026-09-04 12:46:46 | 48.70169 | 10.31014 | 98° | 33km/h | 15673m | -7.2m/s | -59°C | 2.7% | 116.3hPa | 2.6V | 08:11:27 | 02:17:27 | 00:00:00 | |
| DF1GD-15 | 2026-09-04 12:46:45 | 48.70169 | 10.31014 | 99° | 33km/h | 15673m | -7.2m/s | -59.0°C | 2.6% | 116.3hPa | 2.6V | 08:11:00 | 00:00:00 | 00:00:00 | |
| DO3MHA-12 | 2026-09-04 12:46:44 | 48.70180 | 10.30987 | 134° | 68km/h | 15688m | -7.0m/s | -58.8°C | 6.4% | 116.0hPa | 2.6V | 00:00:00 | 02:17:25 | 00:00:00 | |
| DN1GJH-1 | 2026-09-04 12:46:41 | 48.70203 | 10.30938 | 117° | 91km/h | 15702m | -7.4m/s | -59.0°C | 2.6% | 115.8hPa | 2.6V | 08:11:00 | 00:00:00 | 00:00:00 | |
| OE5DRO-10 | 2026-09-04 12:46:40 | 48.70214 | 10.30870 | 93° | 62km/h | 15717m | -7.5m/s | -59.1°C | 6.3% | 115.5hPa | 2.6V | 08:10:00 | 00:00:00 | 00:00:00 | |
| DG9SBQ-11 | 2026-09-04 12:46:39 | 48.70214 | 10.30870 | 94° | 89km/h | 15717m | -7.5m/s | -59.2°C | 2.5% | 115.5hPa | 2.5V | 00:00:00 | 00:00:00 | 00:00:00 | |
| PG1ADW-2 | 2026-09-04 12:46:38 | 48.70212 | 10.30814 | 80° | 58km/h | 15732m | -7.2m/s | -59.1°C | 6.4% | 115.2hPa | 2.5V | 00:00:00 | 02:17:19 | 00:00:00 | |
| DM0DOS-11 | 2026-09-04 12:46:37 | 48.70213 | 10.30783 | 120° | 37km/h | 15746m | -7.4m/s | -59.2°C | 6.5% | 115hPa | 2.5V | 08:11:01 | 02:17:17 | 00:00:00 | |
| DK7TD | 2026-09-04 12:46:36 | 48.70213 | 10.30783 | 121° | 37km/h | 15746m | -7.4m/s | -59.2°C | 2.8% | 115hPa | 2.5V | 08:11:27 | 02:17:17 | 00:00:00 | |
| DO3MHA-11 | 2026-09-04 12:46:36 | 48.70213 | 10.30783 | 121° | 62km/h | 15746m | -7.4m/s | -59.2°C | 6.5% | 114.9hPa | 2.6V | 00:00:00 | 02:17:17 | 00:00:00 | |
| DO3MHA-12 | 2026-09-04 12:46:34 | 48.70231 | 10.30754 | 137° | 64km/h | 15761m | -7.2m/s | -59.2°C | 6.6% | 114.6hPa | 2.6V | 00:00:00 | 02:17:15 | 00:00:00 | |
| AZAK | 2026-09-04 12:46:32 | 48.70256 | 10.30703 | 117° | 93km/h | 15776m | -7.6m/s | -59.3°C | 2.6% | 114.5hPa | 2.6V | 08:11:00 | 00:00:00 | 00:00:00 | |
| DM0DOS-11 | 2026-09-04 12:46:30 | 48.70271 | 10.30576 | 149° | 38km/h | 15820m | -7.6m/s | -59.3°C | 6.5% | 113.6hPa | 2.6V | 08:11:11 | 02:17:07 | 00:00:00 | |
| DK7TD | 2026-09-04 12:46:24 | 48.70295 | 10.30550 | 137° | 77km/h | 15835m | -7.2m/s | -59.3°C | 2.8% | 113.4hPa | 2.6V | 08:11:27 | 02:17:05 | 00:00:00 | |
| DO3MHA-12 | 2026-09-04 12:46:24 | 48.70295 | 10.30550 | 137° | 58km/h | 15835m | -7.1m/s | -59.3°C | 6.6% | 113.3hPa | 2.6V | 00:00:00 | 02:17:05 | 00:00:00 | |
| OE5DXL-15 | 2026-09-04 12:46:23 | 48.70307 | 10.30526 | 123° | 57km/h | 15842m | -7.4m/s | -59.3°C | 6.6% | 113.2hPa | 2.6V | 00:00:00 | 00:00:00 | 00:00:00 | |
| OE5DRO-10 | 2026-09-04 12:46:21 | 48.70321 | 10.30467 | 95° | 55km/h | 15857m | -7.3m/s | -59.5°C | 6.6% | 112.9hPa | 2.6V | 00:00:00 | 00:00:00 | 00:00:00 | |
| DM0DOS-11 | 2026-09-04 12:46:20 | 48.70329 | 10.30395 | 147° | 51km/h | 15893m | -7.3m/s | -59.5°C | 6.6% | 112.3hPa | 2.6V | 08:11:21 | 02:16:57 | 00:00:00 | |
| DK7TD | 2026-09-04 12:46:13 | 48.70360 | 10.30332 | 106° | 80km/h | 15915m | -7.4m/s | -59.7°C | 2.8% | 111.9hPa | 2.6V | 08:11:27 | 02:16:54 | 00:00:00 | |
| OE9MKV-15 | 2026-09-04 12:46:13 | 48.70360 | 10.30332 | 107° | 78km/h | 15915m | -7.3m/s | -59.6°C | 6.4% | 111.9hPa | 2.7V | 00:00:00 | 02:16:54 | 00:00:00 | |
| AZAK | 2026-09-04 12:46:11 | 48.70363 | 10.30302 | 92° | 75km/h | 15922m | -7.3m/s | -59.7°C | 2.5% | 111.8hPa | 2.7V | 08:11:00 | 00:00:00 | 00:00:00 | |
| DJ8HS-15 | 2026-09-04 12:46:10 | 48.70357 | 10.30258 | 65° | 51km/h | 15937m | -7.0m/s | -59.6°C | 6.5% | 111.5hPa | 2.7V | 08:11:00 | 02:16:51 | 00:00:00 | |
| DF2AP-13 | 2026-09-04 12:46:08 | 48.70355 | 10.30240 | 138° | 47km/h | 15951m | -7.2m/s | -59.6°C | 6.5% | 111.2hPa | 2.6V | 00:00:00 | 02:16:49 | 00:00:00 | |
| DM0DOS-11 | 2026-09-04 12:46:07 | 48.70371 | 10.30223 | 139° | 60km/h | 15965m | -7.4m/s | -59.5°C | 6.5% | 111hPa | 2.6V | 08:11:31 | 02:16:47 | 00:00:00 | |
| DK7TD | 2026-09-04 12:46:02 | 48.70393 | 10.30124 | 77° | 64km/h | 15995m | -7.4m/s | -60°C | 2.8% | 110.5hPa | 2.6V | 08:12:18 | 02:16:43 | 00:00:00 | |
| OE5DRO-10 | 2026-09-04 12:46:02 | 48.70393 | 10.30124 | 78° | 55km/h | 15995m | -7.4m/s | -59.9°C | 6.7% | 110.4hPa | 2.6V | 00:00:00 | 00:00:00 | 00:00:00 | |
| DM0DOS-11 | 2026-09-04 12:46:01 | 48.70415 | 10.30046 | 124° | 77km/h | 16039m | -7.5m/s | -60.2°C | 6.9% | 109.7hPa | 2.6V | 08:11:41 | 02:16:37 | 00:00:00 | |
| DK7TD | 2026-09-04 12:45:52 | 48.70418 | 10.29933 | 67° | 22km/h | 16075m | -7.4m/s | -60.4°C | 2.9% | 109hPa | 2.6V | 08:12:18 | 02:16:32 | 00:00:00 | |
| SONCRA | 2026-09-04 12:45:50 | 48.70424 | 10.29921 | 146° | 38km/h | 16090m | -7.4m/s | -60.3°C | 2.7% | 108.8hPa | 2.6V | 00:00:00 | 00:00:00 | 00:00:00 | |
| DL9SK-14 | 2026-09-04 12:45:49 | 48.70424 | 10.29921 | 146° | 38km/h | 16090m | -7.4m/s | -60.3°C | 2.7% | 108.8hPa | 2.6V | 00:00:00 | 00:00:00 | 00:00:00 | |
| DO3MHA-11 | 2026-09-04 12:45:46 | 48.70451 | 10.29861 | 105° | 53km/h | 16113m | -7.9m/s | -60.0°C | 6.7% | 108.4hPa | 2.6V | 00:00:00 | 02:16:27 | 00:00:00 | |
| DO3MHA-12 | 2026-09-04 12:45:44 | 48.70451 | 10.29806 | 74° | 51km/h | 16128m | -7.5m/s | -60.1°C | 6.8% | 108.1hPa | 2.5V | 00:00:00 | 02:16:25 | 00:00:00 | |
| OE5DRO-10 | 2026-09-04 12:45:43 | 48.70445 | 10.29786 | 59° | 51km/h | 16136m | -7.5m/s | -60.0°C | 6.8% | 108.0hPa | 2.5V | 00:00:00 | 00:00:00 | 00:00:00 | |
| DM0DOS-11 | 2026-09-04 12:45:41 | 48.70467 | 10.29682 | 85° | 77km/h | 16188m | -7.5m/s | -59.8°C | 6.4% | 107.1hPa | 2.6V | 08:12:01 | 02:16:17 | 00:00:00 | |
| DK7TD | 2026-09-04 12:45:41 | 48.70439 | 10.29769 | 109° | 11km/h | 16150m | -7.6m/s | -59.9°C | 2.7% | 107.8hPa | 2.6V | 08:12:18 | 02:16:22 | 00:00:00 | |
| DK7TD | 2026-09-04 12:45:30 | 48.70448 | 10.29602 | 131° | 42km/h | 16235m | -7.9m/s | -59.4°C | 2.5% | 106.3hPa | 2.7V | 08:12:18 | 02:16:11 | 00:00:00 | |
| DM0DOS-11 | 2026-09-04 12:45:27 | 48.70434 | 10.29472 | 36° | 40km/h | 16282m | -8m/s | -59.5°C | 6.3% | 105.5hPa | 2.6V | 08:12:13 | 02:16:05 | 00:00:00 | |
| DK7TD | 2026-09-04 12:45:19 | 48.70443 | 10.29405 | 98° | 77km/h | 16320m | -8m/s | -59.7°C | 2.5% | 104.9hPa | 2.6V | 08:12:18 | 02:16:00 | 00:00:00 | |
| DK7TD | 2026-09-04 12:45:09 | 48.70415 | 10.29221 | 73° | 80km/h | 16398m | -8.1m/s | -59.7°C | 2.4% | 103.6hPa | 2.6V | 08:13:09 | 02:15:50 | 00:00:00 | |
| DK7TD | 2026-09-04 12:44:58 | 48.70354 | 10.29027 | 39° | 62km/h | 16486m | -8.4m/s | -59.9°C | 2.4% | 102.1hPa | 2.6V | 08:13:09 | 02:15:39 | 00:00:00 | |
| DK7TD | 2026-09-04 12:44:48 | 48.70317 | 10.28847 | 35° | 35km/h | 16566m | -7.7m/s | -60°C | 2.3% | 100.8hPa | 2.6V | 08:13:09 | 02:15:29 | 00:00:00 | |
| DM0DOS-11 | 2026-09-04 12:44:48 | 48.70324 | 10.28788 | 98° | 78km/h | 16598m | -7.8m/s | -60°C | 6.4% | 100.3hPa | 2.6V | 08:12:53 | 02:15:25 | 00:00:00 | |
| DL9SK-14 | 2026-09-04 12:44:47 | 48.70313 | 10.28840 | 78° | 16km/h | 16574m | -8.2m/s | -59.9°C | 2.3% | 100.7hPa | 2.6V | 00:00:00 | 00:00:00 | 00:00:00 | |
| DK7TD | 2026-09-04 12:44:38 | 48.70290 | 10.28656 | 109° | 24km/h | 16648m | -8.3m/s | -59.4°C | 2% | 99.5hPa | 2.6V | 08:13:09 | 02:15:19 | 00:00:00 | |
| DM0DOS-11 | 2026-09-04 12:44:37 | 48.70310 | 10.28563 | 87° | 93km/h | 16680m | -8.4m/s | -59.5°C | 5.8% | 99hPa | 2.6V | 08:13:03 | 02:15:15 | 00:00:00 | |
| DK7TD | 2026-09-04 12:44:27 | 48.70304 | 10.28426 | 117° | 80km/h | 16738m | -8.4m/s | -59.4°C | 1.9% | 98.1hPa | 2.6V | 08:14:00 | 02:15:08 | 00:00:00 | |
| DN1GJH-1 | 2026-09-04 12:44:27 | 48.70304 | 10.28426 | 118° | 80km/h | 16738m | -8.4m/s | -59.4°C | 2.1% | 98.1hPa | 2.7V | 00:00:00 | 00:00:00 | 00:00:00 | |
| DO3MHA-11 | 2026-09-04 12:44:26 | 48.70311 | 10.28395 | 104° | 71km/h | 16746m | -8.5m/s | -59.4°C | 5.9% | 97.8hPa | 2.7V | 00:00:00 | 02:15:07 | 00:00:00 | |
| NBG1-10 | 2026-09-04 12:44:25 | 48.70314 | 10.28360 | 89° | 62km/h | 16755m | -8.3m/s | -59.5°C | 5.9% | 97.8hPa | 2.7V | 00:00:00 | 02:15:06 | 00:00:00 | |
| DO3MHA-12 | 2026-09-04 12:44:24 | 48.70310 | 10.28326 | 75° | 68km/h | 16763m | -8.4m/s | -59.5°C | 6.0% | 97.6hPa | 2.6V | 00:00:00 | 02:15:05 | 00:00:00 | |
| OE5DXL-15 | 2026-09-04 12:44:23 | 48.70304 | 10.28300 | 63° | 51km/h | 16772m | -8.7m/s | -59.4°C | 6.0% | 97.5hPa | 2.6V | 08:13:00 | 00:00:00 | 00:00:00 | |
| DM0DOS-11 | 2026-09-04 12:44:22 | 48.70298 | 10.28273 | 112° | 26km/h | 16789m | -8.7m/s | -59.4°C | 5.9% | 97.2hPa | 2.6V | 08:13:16 | 02:15:02 | 00:00:00 | |
| DK7TD | 2026-09-04 12:44:17 | 48.70334 | 10.28186 | 103° | 97km/h | 16823m | -8.4m/s | -59.5°C | 1.8% | 96.7hPa | 2.6V | 08:14:00 | 02:14:58 | 00:00:00 | |
| DK7TD | 2026-09-04 12:44:06 | 48.70370 | 10.27941 | 72° | 58km/h | 16919m | -8.8m/s | -59.1°C | 1.6% | 95.2hPa | 2.6V | 08:14:00 | 02:14:47 | 00:00:00 | |
| DK7TD | 2026-09-04 12:43:55 | 48.70402 | 10.27737 | 145° | 26km/h | 17013m | -9m/s | -59°C | 1.4% | 93.9hPa | 2.6V | 08:14:00 | 02:14:36 | 00:00:00 | |
| DO3MHA-12 | 2026-09-04 12:43:54 | 48.70410 | 10.27729 | 148° | 64km/h | 17022m | -8.9m/s | -58.9°C | 5.5% | 93.6hPa | 2.7V | 00:00:00 | 02:14:35 | 00:00:00 | |
| OE5DXL-15 | 2026-09-04 12:43:53 | 48.70422 | 10.27713 | 135° | 51km/h | 17031m | -8.6m/s | -59.0°C | 5.5% | 93.5hPa | 2.7V | 00:00:00 | 00:00:00 | 00:00:00 | |
| NBG1-10 | 2026-09-04 12:43:52 | 48.70434 | 10.27688 | 118° | 62km/h | 17040m | -8.3m/s | -59.0°C | 5.6% | 93.4hPa | 2.7V | 00:00:00 | 02:14:33 | 00:00:00 | |
| DM0DOS-11 | 2026-09-04 12:43:51 | 48.70433 | 10.27563 | 106° | 22km/h | 17083m | -8.8m/s | -59.1°C | 5.6% | 92.8hPa | 2.7V | 08:13:50 | 02:14:28 | 00:00:00 | |
| DK7TD | 2026-09-04 12:43:45 | 48.70448 | 10.27542 | 141° | 66km/h | 17100m | -8.6m/s | -59.1°C | 1.4% | 92.5hPa | 2.6V | 08:14:00 | 02:14:26 | 00:00:00 | |
| DM0DOS-11 | 2026-09-04 12:43:42 | 48.70482 | 10.27382 | 150° | 49km/h | 17171m | -9m/s | -58.8°C | 5.4% | 91.5hPa | 2.7V | 08:14:00 | 02:14:18 | 00:00:00 | |
| DK7TD | 2026-09-04 12:43:34 | 48.70516 | 10.27314 | 106° | 91km/h | 17198m | -8.9m/s | -58.8°C | 1.3% | 91.1hPa | 2.6V | 08:14:51 | 02:14:15 | 00:00:00 | |
| DO3MHA-12 | 2026-09-04 12:43:34 | 48.70516 | 10.27314 | 106° | 66km/h | 17199m | -8.9m/s | -58.7°C | 5.3% | 91.0hPa | 2.6V | 00:00:00 | 02:14:15 | 00:00:00 | |
| DG9SBQ-11 | 2026-09-04 12:43:33 | 48.70519 | 10.27281 | 90° | 86km/h | 17207m | -8.9m/s | -58.9°C | 1.7% | 91.0hPa | 2.6V | 00:00:00 | 00:00:00 | 00:00:00 | |
| DM7RM-13 | 2026-09-04 12:43:32 | 48.70519 | 10.27281 | 90° | 86km/h | 17207m | -8.9m/s | -58.9°C | 1.7% | 91.0hPa | 2.6V | 00:00:00 | 00:00:00 | 00:00:00 | |
| DF7PN | 2026-09-04 12:43:31 | 48.70511 | 10.27232 | 62° | 46km/h | 17225m | -9.0m/s | -58.9°C | 1.7% | 90.7hPa | 2.6V | 00:00:00 | 00:00:00 | 00:00:00 | |
| DM0DOS-11 | 2026-09-04 12:43:30 | 48.70528 | 10.27185 | 129° | 75km/h | 17262m | -9.5m/s | -59°C | 5.5% | 90.2hPa | 2.6V | 08:14:10 | 02:14:08 | 00:00:00 | |
| DK7TD | 2026-09-04 12:43:23 | 48.70538 | 10.27062 | 64° | 71km/h | 17298m | -9m/s | -59.3°C | 1.4% | 89.7hPa | 2.6V | 08:14:51 | 02:14:04 | 00:00:00 | |
| DG9SBQ-11 | 2026-09-04 12:43:21 | 48.70531 | 10.27042 | 55° | 46km/h | 17307m | -9.2m/s | -59.2°C | 1.7% | 89.5hPa | 2.7V | 00:00:00 | 00:00:00 | 00:00:00 | |
| DK5PH-5 | 2026-09-04 12:43:20 | 48.70529 | 10.27023 | 137° | 60km/h | 17326m | -9.1m/s | -58.9°C | 5.5% | 89.2hPa | 2.7V | 00:00:00 | 02:14:01 | 00:00:00 | |
| DM0DOS-11 | 2026-09-04 12:43:19 | 48.70557 | 10.26958 | 104° | 93km/h | 17352m | -8.9m/s | -58.6°C | 5.3% | 88.9hPa | 2.6V | 08:14:20 | 02:13:58 | 00:00:00 | |
| DK7TD | 2026-09-04 12:43:14 | 48.70545 | 10.26859 | 67° | 22km/h | 17389m | -9m/s | -58.5°C | 1.3% | 88.4hPa | 2.7V | 08:14:51 | 02:13:54 | 00:00:00 | |
| DM0DOS-11 | 2026-09-04 12:43:12 | 48.70589 | 10.26741 | 86° | 77km/h | 17442m | -9.4m/s | -58.5°C | 5.4% | 87.6hPa | 2.7V | 08:14:30 | 02:13:48 | 00:00:00 | |
| DK7TD | 2026-09-04 12:43:03 | 48.70590 | 10.26690 | 164° | 40km/h | 17480m | -9.3m/s | -58.1°C | 1.2% | 87.1hPa | 2.6V | 08:14:51 | 02:13:44 | 00:00:00 | |
| DM0DOS-11 | 2026-09-04 12:43:02 | 48.70631 | 10.26561 | 65° | 38km/h | 17535m | -9m/s | -58.1°C | 5% | 86.3hPa | 2.6V | 08:14:40 | 02:13:38 | 00:00:00 | |
| DK7TD | 2026-09-04 12:42:53 | 48.70658 | 10.26536 | 148° | 77km/h | 17572m | -9m/s | -58°C | 1.1% | 85.8hPa | 2.6V | 08:14:51 | 02:13:34 | 00:00:00 | |
| DM0DOS-11 | 2026-09-04 12:42:52 | 48.70686 | 10.26425 | 176° | 20km/h | 17627m | -9m/s | -58.3°C | 5.2% | 85hPa | 2.6V | 08:14:50 | 02:13:28 | 00:00:00 | |
| DL6DJ-15 | 2026-09-04 12:42:49 | 48.70685 | 10.26439 | 75° | 42km/h | 17609m | -9.2m/s | -58.3°C | 1.5% | 85.3hPa | 2.7V | 00:00:00 | 00:00:00 | 00:00:00 | |
| HARRO8 | 2026-09-04 12:42:46 | 48.70694 | 10.26423 | 172° | 46km/h | 17636m | -9.4m/s | -58.3°C | 1.5% | 85.0hPa | 2.7V | 00:00:00 | 00:00:00 | 00:00:00 | |
| DK7TD | 2026-09-04 12:42:42 | 48.70744 | 10.26351 | 102° | 77km/h | 17674m | -9.4m/s | -58.4°C | 1.1% | 84.4hPa | 2.7V | 08:15:42 | 02:13:23 | 00:00:00 | |
| DK7TD | 2026-09-04 12:42:32 | 48.70797 | 10.26193 | 68° | 46km/h | 17767m | -9.2m/s | -58.4°C | 1.2% | 83.2hPa | 2.6V | 08:15:42 | 02:13:13 | 00:00:00 | |
| BIOWL1-15 | 2026-09-04 12:42:30 | 48.70824 | 10.26165 | 136° | 73km/h | 17815m | -9.4m/s | 0°C | 0% | 0hPa | 2.6V | 18:12:15 | 02:13:08 | 00:00:00 | |
| DK7TD | 2026-09-04 12:42:21 | 48.70828 | 10.26071 | 190° | 24km/h | 17872m | -9.5m/s | -57.5°C | 1% | 81.8hPa | 2.6V | 08:15:42 | 02:13:02 | 00:00:00 | |
| DM0DOS-11 | 2026-09-04 12:42:20 | 48.70868 | 10.26011 | 97° | 77km/h | 17909m | -9.3m/s | -57.5°C | 5% | 81.3hPa | 2.7V | 08:15:20 | 02:12:58 | 00:00:00 | |
| DK5PH-5 | 2026-09-04 12:42:20 | 48.70837 | 10.26070 | 166° | 40km/h | 17881m | -9.1m/s | -57.3°C | 5.0% | 81.7hPa | 2.7V | 00:00:00 | 02:13:01 | 00:00:00 | |
| DL6DJ-15 | 2026-09-04 12:42:18 | 48.70868 | 10.26011 | 97° | 75km/h | 17909m | -9.3m/s | -57.5°C | 1.4% | 81.3hPa | 2.7V | 00:00:00 | 00:00:00 | 00:00:00 | |
| DO3MHA-11 | 2026-09-04 12:42:16 | 48.70867 | 10.25985 | 76° | 49km/h | 17919m | -9.7m/s | -57.5°C | 5.0% | 81.2hPa | 2.7V | 08:15:00 | 02:12:57 | 00:00:00 | |
| DG9SBQ-11 | 2026-09-04 12:42:15 | 48.70862 | 10.25966 | 55° | 46km/h | 17929m | -9.9m/s | -57.4°C | 1.4% | 81.1hPa | 2.6V | 00:00:00 | 00:00:00 | 00:00:00 | |
| DO3MHA-12 | 2026-09-04 12:42:14 | 48.70856 | 10.25957 | 29° | 42km/h | 17938m | -9.7m/s | -57.3°C | 5.0% | 80.9hPa | 2.6V | 00:00:00 | 02:12:55 | 00:00:00 | |
| NBG1-10 | 2026-09-04 12:42:13 | 48.70855 | 10.25956 | 215° | 47km/h | 17948m | -9.3m/s | -57.3°C | 4.9% | 80.8hPa | 2.6V | 00:00:00 | 02:12:54 | 00:00:00 | |
| DM0DOS-11 | 2026-09-04 12:42:12 | 48.70887 | 10.25864 | 56° | 51km/h | 18004m | -9.5m/s | -57°C | 4.7% | 80.1hPa | 2.6V | 08:15:30 | 02:12:48 | 00:00:00 | |
| DK7TD | 2026-09-04 12:42:11 | 48.70871 | 10.25951 | 152° | 57km/h | 17967m | -9.7m/s | -57.3°C | 1% | 80.6hPa | 2.7V | 08:15:42 | 02:12:52 | 00:00:00 | |
| DJ8HS-15 | 2026-09-04 12:42:10 | 48.70883 | 10.25936 | 129° | 49km/h | 17977m | -9.5m/s | -57.2°C | 4.9% | 80.4hPa | 2.7V | 00:00:00 | 02:12:51 | 00:00:00 | |
| DF3TZ-5 | 2026-09-04 12:42:09 | 48.70891 | 10.25912 | 104° | 73km/h | 17986m | -9.2m/s | -57.3°C | 1.4% | 80.3hPa | 2.7V | 00:00:00 | 00:00:00 | 00:00:00 | |
| DG9SBQ-11 | 2026-09-04 12:42:08 | 48.70892 | 10.25885 | 83° | 68km/h | 17995m | -9.0m/s | -57.2°C | 1.4% | 80.2hPa | 2.7V | 00:00:00 | 00:00:00 | 00:00:00 | |
| DN1GJH-1 | 2026-09-04 12:42:07 | 48.70892 | 10.25885 | 83° | 68km/h | 17995m | -9.0m/s | -57.2°C | 1.4% | 80.2hPa | 2.7V | 08:15:00 | 00:00:00 | 00:00:00 | |
| DO3MHA-11 | 2026-09-04 12:42:06 | 48.70880 | 10.25853 | 31° | 44km/h | 18014m | -9.9m/s | -56.8°C | 4.7% | 79.9hPa | 2.7V | 00:00:00 | 02:12:47 | 00:00:00 | |
| AZAK | 2026-09-04 12:42:04 | 48.70878 | 10.25852 | 190° | 24km/h | 18033m | -9.3m/s | -56.8°C | 1.3% | 79.8hPa | 2.7V | 08:15:00 | 00:00:00 | 00:00:00 | |
| DM0DOS-11 | 2026-09-04 12:42:02 | 48.70889 | 10.25754 | 344° | 22km/h | 18100m | -9.4m/s | -56.8°C | 4.6% | 78.9hPa | 2.7V | 08:15:40 | 02:12:38 | 00:00:00 | |
| DK7TD | 2026-09-04 12:42:00 | 48.70910 | 10.25792 | 86° | 69km/h | 18072m | -9.1m/s | -56.9°C | 0.8% | 79.2hPa | 2.6V | 08:15:42 | 02:12:41 | 00:00:00 | |
| DG9SBQ-11 | 2026-09-04 12:41:59 | 48.70910 | 10.25792 | 87° | 69km/h | 18072m | -9.1m/s | -56.9°C | 1.3% | 79.2hPa | 2.7V | 00:00:00 | 00:00:00 | 00:00:00 | |
| DF1GD-15 | 2026-09-04 12:41:58 | 48.70897 | 10.25757 | 27° | 42km/h | 18091m | -9.5m/s | -56.8°C | 1.4% | 79.0hPa | 2.7V | 08:15:00 | 00:00:00 | 00:00:00 | |
| DF2AP-13 | 2026-09-04 12:41:57 | 48.70889 | 10.25754 | 345° | 24km/h | 18100m | -9.4m/s | -56.8°C | 4.6% | 78.8hPa | 2.7V | 00:00:00 | 02:12:38 | 00:00:00 | |
| DB0NH | 2026-09-04 12:41:56 | 48.70887 | 10.25758 | 237° | 49km/h | 18110m | -9.8m/s | -56.8°C | 4.6% | 78.7hPa | 2.6V | 00:00:00 | 02:12:37 | 00:00:00 | |
| DO3MHA-12 | 2026-09-04 12:41:54 | 48.70902 | 10.25752 | 140° | 49km/h | 18130m | -9.6m/s | -56.8°C | 4.6% | 78.5hPa | 2.6V | 00:00:00 | 02:12:35 | 00:00:00 | |
| DM0DOS-11 | 2026-09-04 12:41:52 | 48.70890 | 10.25666 | 164° | 31km/h | 18195m | -9.8m/s | -57.1°C | 4.8% | 77.7hPa | 2.6V | 08:15:50 | 02:12:28 | 00:00:00 | |
| DK7TD | 2026-09-04 12:41:50 | 48.70897 | 10.25669 | 30° | 49km/h | 18166m | -9.4m/s | -57.1°C | 0.9% | 78.1hPa | 2.7V | 08:16:33 | 02:12:31 | 00:00:00 | |
| DL6DJ-15 | 2026-09-04 12:41:47 | 48.70898 | 10.25658 | 135° | 53km/h | 18205m | -9.8m/s | -57.3°C | 1.4% | 77.6hPa | 2.6V | 00:00:00 | 00:00:00 | 00:00:00 | |
| DO3MHA-11 | 2026-09-04 12:41:46 | 48.70898 | 10.25658 | 136° | 51km/h | 18205m | -9.7m/s | -57.2°C | 4.8% | 77.5hPa | 2.6V | 00:00:00 | 02:12:27 | 00:00:00 | |
| OE5DXL-15 | 2026-09-04 12:41:45 | 48.70906 | 10.25638 | 111° | 49km/h | 18215m | -9.6m/s | -57.3°C | 4.9% | 77.4hPa | 2.6V | 00:00:00 | 00:00:00 | 00:00:00 | |
| AZAK | 2026-09-04 12:41:44 | 48.70909 | 10.25612 | 87° | 75km/h | 18224m | -9.5m/s | -57.5°C | 1.4% | 77.3hPa | 2.6V | 08:16:00 | 00:00:00 | 00:00:00 | |
| DG9SBQ-11 | 2026-09-04 12:41:43 | 48.70909 | 10.25612 | 87° | 75km/h | 18224m | -9.5m/s | -57.5°C | 1.4% | 77.3hPa | 2.6V | 08:16:00 | 00:00:00 | 00:00:00 | |
| DM0DOS-11 | 2026-09-04 12:41:42 | 48.70902 | 10.25529 | 115° | 73km/h | 18293m | -9.3m/s | -57.6°C | 5% | 76.5hPa | 2.6V | 08:16:00 | 02:12:18 | 00:00:00 | |
| DK7TD | 2026-09-04 12:41:40 | 48.70881 | 10.25559 | 298° | 4km/h | 18263m | -10m/s | -57.6°C | 0.9% | 76.9hPa | 2.6V | 08:16:33 | 02:12:21 | 00:00:00 | |
| NBG1-10 | 2026-09-04 12:41:40 | 48.70881 | 10.25559 | 298° | 53km/h | 18263m | -10.0m/s | -57.5°C | 4.9% | 76.8hPa | 2.7V | 00:00:00 | 02:12:21 | 00:00:00 | |
| DM7RM-13 | 2026-09-04 12:41:38 | 48.70893 | 10.25549 | 138° | 55km/h | 18283m | -9.9m/s | -57.5°C | 1.4% | 76.6hPa | 2.7V | 08:16:00 | 00:00:00 | 00:00:00 | |
| DO3MHA-11 | 2026-09-04 12:41:36 | 48.70906 | 10.25500 | 94° | 58km/h | 18302m | -9.3m/s | -57.5°C | 5.0% | 76.4hPa | 2.7V | 00:00:00 | 02:12:17 | 00:00:00 | |
| DO3MHA-12 | 2026-09-04 12:41:34 | 48.70897 | 10.25447 | 53° | 53km/h | 18321m | -10.1m/s | -57.4°C | 5.0% | 76.1hPa | 2.7V | 00:00:00 | 02:12:15 | 00:00:00 | |
| DM0DOS-11 | 2026-09-04 12:41:32 | 48.70917 | 10.25340 | 85° | 78km/h | 18391m | -10.5m/s | -57.5°C | 5% | 75.3hPa | 2.7V | 08:16:10 | 02:12:08 | 00:00:00 | |
| DK7TD | 2026-09-04 12:41:30 | 48.70896 | 10.25417 | 143° | 57km/h | 18360m | -9.7m/s | -57.2°C | 0.9% | 75.7hPa | 2.6V | 08:16:33 | 02:12:11 | 00:00:00 | |
| DJ8HS-15 | 2026-09-04 12:41:30 | 48.70896 | 10.25417 | 143° | 58km/h | 18361m | -9.6m/s | -57.2°C | 5.0% | 75.6hPa | 2.6V | 00:00:00 | 02:12:11 | 00:00:00 | |
| DF7PN | 2026-09-04 12:41:27 | 48.70913 | 10.25314 | 65° | 62km/h | 18401m | -10.0m/s | -57.4°C | 1.4% | 75.2hPa | 2.6V | 00:00:00 | 00:00:00 | 00:00:00 | |
| DB0NH | 2026-09-04 12:41:26 | 48.70913 | 10.25314 | 66° | 53km/h | 18402m | -10.0m/s | -57.4°C | 5.1% | 75.2hPa | 2.6V | 00:00:00 | 02:12:07 | 00:00:00 | |
| DN1GJH-1 | 2026-09-04 12:41:25 | 48.70913 | 10.25314 | 66° | 64km/h | 18402m | -10.0m/s | -57.4°C | 1.4% | 75.2hPa | 2.6V | 08:16:00 | 00:00:00 | 00:00:00 | |
| AZAK | 2026-09-04 12:41:24 | 48.70901 | 10.25292 | 24° | 9km/h | 18422m | -10.3m/s | -57.3°C | 1.4% | 75.0hPa | 2.6V | 08:16:00 | 00:00:00 | 00:00:00 | |
| DF2AP-13 | 2026-09-04 12:41:23 | 48.70903 | 10.25291 | 177° | 42km/h | 18432m | -10.3m/s | -57.1°C | 5.0% | 74.8hPa | 2.6V | 00:00:00 | 02:12:04 | 00:00:00 | |
| DM0DOS-11 | 2026-09-04 12:41:22 | 48.70930 | 10.25166 | 51° | 49km/h | 18492m | -10.1m/s | -56.8°C | 4.9% | 74.1hPa | 2.6V | 08:16:20 | 02:11:58 | 00:00:00 | |
| DK7TD | 2026-09-04 12:41:19 | 48.70940 | 10.25217 | 93° | 86km/h | 18472m | -10.2m/s | -57°C | 0.9% | 74.4hPa | 2.6V | 08:16:33 | 02:12:00 | 00:00:00 | |
| DF1GD-15 | 2026-09-04 12:41:18 | 48.70937 | 10.25187 | 73° | 73km/h | 18482m | -10.0m/s | -56.9°C | 1.4% | 74.2hPa | 2.6V | 08:16:00 | 00:00:00 | 00:00:00 | |
| DM7RM-13 | 2026-09-04 12:41:17 | 48.70937 | 10.25187 | 73° | 73km/h | 18482m | -10.0m/s | -56.9°C | 1.4% | 74.2hPa | 2.6V | 08:16:00 | 00:00:00 | 00:00:00 | |
| DL6DJ-15 | 2026-09-04 12:41:16 | 48.70925 | 10.25154 | 169° | 18km/h | 18513m | -10.3m/s | -56.5°C | 1.3% | 73.9hPa | 2.6V | 00:00:00 | 00:00:00 | 00:00:00 | |
| DO3MHA-12 | 2026-09-04 12:41:14 | 48.70933 | 10.25149 | 156° | 58km/h | 18523m | -10.0m/s | -56.3°C | 4.7% | 73.7hPa | 2.6V | 00:00:00 | 02:11:55 | 00:00:00 | |
| OE5DXL-15 | 2026-09-04 12:41:13 | 48.70946 | 10.25136 | 136° | 51km/h | 18533m | -9.9m/s | -56.5°C | 4.7% | 73.6hPa | 2.6V | 00:00:00 | 00:00:00 | 00:00:00 | |
| DM0DOS-11 | 2026-09-04 12:41:12 | 48.70961 | 10.25012 | 163° | 53km/h | 18605m | -9.9m/s | -56.3°C | 4.8% | 72.8hPa | 2.7V | 08:16:31 | 02:11:47 | 00:00:00 | |
| DK7TD | 2026-09-04 12:41:08 | 48.70951 | 10.25017 | 50° | 16km/h | 18585m | -10.4m/s | -56.6°C | 0.9% | 73.1hPa | 2.6V | 08:16:33 | 02:11:49 | 00:00:00 | |
| NBG1-10 | 2026-09-04 12:41:07 | 48.70952 | 10.25015 | 176° | 49km/h | 18596m | -10.1m/s | -56.5°C | 4.8% | 72.9hPa | 2.6V | 08:16:00 | 02:11:48 | 00:00:00 | |
| DO3MHA-11 | 2026-09-04 12:41:06 | 48.70961 | 10.25012 | 164° | 57km/h | 18606m | -9.8m/s | -56.3°C | 4.8% | 72.8hPa | 2.7V | 00:00:00 | 02:11:47 | 00:00:00 | |
| AZAK | 2026-09-04 12:41:04 | 48.70990 | 10.24978 | 125° | 88km/h | 18626m | -10.7m/s | -56.1°C | 1.3% | 72.6hPa | 2.7V | 08:16:00 | 00:00:00 | 00:00:00 | |
| DN1GJH-1 | 2026-09-04 12:41:03 | 48.70990 | 10.24978 | 125° | 88km/h | 18626m | -10.7m/s | -56.1°C | 1.3% | 72.6hPa | 2.7V | 08:16:00 | 00:00:00 | 00:00:00 | |
| DG9SBQ-11 | 2026-09-04 12:41:00 | 48.70996 | 10.24903 | 59° | 38km/h | 18658m | -10.4m/s | -55.8°C | 1.2% | 72.2hPa | 2.7V | 00:00:00 | 00:00:00 | 00:00:00 | |
| DM0DOS-11 | 2026-09-04 12:40:59 | 48.71020 | 10.24893 | 155° | 73km/h | 18699m | -10.6m/s | -55.5°C | 4.4% | 71.7hPa | 2.7V | 08:16:40 | 02:11:38 | 00:00:00 | |
| DK7TD | 2026-09-04 12:40:57 | 48.71020 | 10.24893 | 155° | 73km/h | 18699m | -10.6m/s | -55.5°C | 0.7% | 71.7hPa | 2.7V | 08:17:24 | 02:11:38 | 00:00:00 | |
| DF7PN | 2026-09-04 12:40:56 | 48.71045 | 10.24851 | 108° | 73km/h | 18721m | -11.2m/s | -55.7°C | 1.2% | 71.5hPa | 2.6V | 00:00:00 | 00:00:00 | 00:00:00 | |
| DB0ND-19 | 2026-09-04 12:40:55 | 48.71045 | 10.24851 | 108° | 73km/h | 18721m | -11.2m/s | -55.7°C | 1.2% | 71.5hPa | 2.6V | 00:00:00 | 00:00:00 | 00:00:00 | |
| DO3MHA-12 | 2026-09-04 12:40:54 | 48.71047 | 10.24827 | 84° | 46km/h | 18732m | -10.5m/s | -55.6°C | 4.5% | 71.4hPa | 2.6V | 00:00:00 | 02:11:35 | 00:00:00 | |
| DM7RM-13 | 2026-09-04 12:40:53 | 48.71047 | 10.24827 | 84° | 58km/h | 18732m | -10.5m/s | -55.7°C | 1.3% | 71.4hPa | 2.6V | 00:00:00 | 00:00:00 | 00:00:00 | |
| DM0DOS-11 | 2026-09-04 12:40:52 | 48.71085 | 10.24786 | 106° | 62km/h | 18804m | -10.6m/s | -55.5°C | 4.4% | 70.6hPa | 2.6V | 08:16:50 | 02:11:28 | 00:00:00 | |
| DK7TD | 2026-09-04 12:40:46 | 48.71085 | 10.24765 | 75° | 49km/h | 18815m | -10.8m/s | -55.6°C | 0.7% | 70.5hPa | 2.6V | 08:17:24 | 02:11:27 | 00:00:00 | |
| DL6DJ-15 | 2026-09-04 12:40:45 | 48.71076 | 10.24752 | 319° | 18km/h | 18835m | -10.0m/s | -55.6°C | 1.2% | 70.2hPa | 2.7V | 00:00:00 | 00:00:00 | 00:00:00 | |
| DO3MHA-12 | 2026-09-04 12:40:44 | 48.71075 | 10.24752 | 320° | 42km/h | 18835m | -10.0m/s | -55.5°C | 4.4% | 70.2hPa | 2.7V | 00:00:00 | 02:11:25 | 00:00:00 | |
| OE5DXL-15 | 2026-09-04 12:40:43 | 48.71075 | 10.24759 | 244° | 44km/h | 18845m | -10.1m/s | -55.5°C | 4.4% | 70.0hPa | 2.7V | 00:00:00 | 00:00:00 | 00:00:00 | |
| HARRO8 | 2026-09-04 12:40:42 | 48.71094 | 10.24768 | 166° | 53km/h | 18867m | -10.7m/s | -55.5°C | 1.2% | 69.9hPa | 2.7V | 00:00:00 | 00:00:00 | 00:00:00 | |
| DM0DOS-11 | 2026-09-04 12:40:41 | 48.71104 | 10.24706 | 28° | 40km/h | 18909m | -10.1m/s | -55.7°C | 4.4% | 69.4hPa | 2.7V | 08:17:00 | 02:11:18 | 00:00:00 | |
| DK7TD | 2026-09-04 12:40:35 | 48.71092 | 10.24713 | 274° | 31km/h | 18929m | -10m/s | -55.7°C | 0.7% | 69.2hPa | 2.6V | 08:17:24 | 02:11:16 | 00:00:00 | |
| NBG1-10 | 2026-09-04 12:40:34 | 48.71095 | 10.24723 | 216° | 44km/h | 18939m | -10.5m/s | -55.5°C | 4.4% | 69.0hPa | 2.7V | 00:00:00 | 02:11:15 | 00:00:00 | |
| DM0DOS-11 | 2026-09-04 12:40:31 | 48.71095 | 10.24685 | 274° | 35km/h | 19012m | -10.6m/s | -55.6°C | 4.4% | 68.3hPa | 2.7V | 08:17:10 | 02:11:08 | 00:00:00 | |
| DK7TD | 2026-09-04 12:40:24 | 48.71117 | 10.24689 | 126° | 49km/h | 19044m | -10.3m/s | -55.6°C | 0.7% | 67.9hPa | 2.6V | 08:17:24 | 02:11:05 | 00:00:00 | |
| DO3MHA-12 | 2026-09-04 12:40:24 | 48.71117 | 10.24689 | 127° | 46km/h | 19044m | -10.3m/s | -55.6°C | 4.4% | 67.9hPa | 2.7V | 00:00:00 | 02:11:05 | 00:00:00 | |
| DM0DOS-11 | 2026-09-04 12:40:21 | 48.71100 | 10.24660 | 153° | 40km/h | 19117m | -10.4m/s | -55.6°C | 4.3% | 67.2hPa | 2.7V | 08:17:20 | 02:10:58 | 00:00:00 | |
| DK7TD | 2026-09-04 12:40:13 | 48.71091 | 10.24597 | 14° | 53km/h | 19160m | -10.4m/s | -55.8°C | 0.7% | 66.7hPa | 2.7V | 08:17:24 | 02:10:54 | 00:00:00 | |
| OE5DXL-15 | 2026-09-04 12:40:13 | 48.71091 | 10.24597 | 14° | 47km/h | 19160m | -10.3m/s | -55.8°C | 4.4% | 66.6hPa | 2.6V | 00:00:00 | 00:00:00 | 00:00:00 | |
| DM0DOS-11 | 2026-09-04 12:40:11 | 48.71096 | 10.24576 | 85° | 64km/h | 19225m | -10.8m/s | -56.3°C | 4.6% | 66.1hPa | 2.6V | 08:17:30 | 02:10:48 | 00:00:00 | |
| DK7TD | 2026-09-04 12:40:03 | 48.71065 | 10.24543 | 285° | 20km/h | 19267m | -11.1m/s | -56.2°C | 0.8% | 65.6hPa | 2.6V | 08:18:15 | 02:10:44 | 00:00:00 | |
| AZAK | 2026-09-04 12:40:02 | 48.71068 | 10.24547 | 194° | 26km/h | 19279m | -11.4m/s | -56.2°C | 1.3% | 65.5hPa | 2.7V | 08:18:00 | 00:00:00 | 00:00:00 | |
| NBG1-10 | 2026-09-04 12:40:01 | 48.71075 | 10.24543 | 145° | 49km/h | 19290m | -11.3m/s | -56.2°C | 4.7% | 65.3hPa | 2.7V | 00:00:00 | 02:10:42 | 00:00:00 | |
| DM0DOS-11 | 2026-09-04 12:39:58 | 48.71062 | 10.24447 | 132° | 55km/h | 19376m | -10.4m/s | -56°C | 4.6% | 64.5hPa | 2.7V | 08:17:44 | 02:10:34 | 00:00:00 | |
| DK7TD | 2026-09-04 12:39:53 | 48.71063 | 10.24447 | 133° | 55km/h | 19376m | -10.4m/s | -56°C | 0.8% | 64.5hPa | 2.7V | 08:18:15 | 02:10:34 | 00:00:00 | |
| DB0ND-19 | 2026-09-04 12:39:53 | 48.71063 | 10.24447 | 132° | 55km/h | 19376m | -10.4m/s | -56.0°C | 1.2% | 64.5hPa | 2.6V | 00:00:00 | 00:00:00 | 00:00:00 | |
| DN1GJH-1 | 2026-09-04 12:39:51 | 48.71070 | 10.24426 | 108° | 73km/h | 19386m | -10.8m/s | -56.1°C | 1.2% | 64.4hPa | 2.6V | 08:18:00 | 00:00:00 | 00:00:00 | |
| DB0UT-7 | 2026-09-04 12:39:50 | 48.71065 | 10.24370 | 58° | 47km/h | 19409m | -11.4m/s | -56.1°C | 4.6% | 64.1hPa | 2.6V | 00:00:00 | 00:00:00 | 00:00:00 | |
| DG9SBQ-11 | 2026-09-04 12:39:49 | 48.71054 | 10.24353 | 32° | 55km/h | 19420m | -11.0m/s | -56.1°C | 1.2% | 64.1hPa | 2.7V | 08:18:00 | 00:00:00 | 00:00:00 | |
| DO3MHA-11 | 2026-09-04 12:39:46 | 48.71046 | 10.24354 | 176° | 47km/h | 19452m | -10.7m/s | -56.0°C | 4.6% | 63.7hPa | 2.7V | 00:00:00 | 02:10:27 | 00:00:00 | |
| DM0DOS-11 | 2026-09-04 12:39:44 | 48.71067 | 10.24304 | 84° | 68km/h | 19484m | -10.8m/s | -56.2°C | 4.7% | 63.4hPa | 2.6V | 08:17:54 | 02:10:24 | 00:00:00 | |
| DK7TD | 2026-09-04 12:39:43 | 48.71067 | 10.24304 | 84° | 68km/h | 19484m | -10.9m/s | -56.3°C | 0.8% | 63.4hPa | 2.6V | 08:18:15 | 02:10:24 | 00:00:00 | |
| DK7TD | 2026-09-04 12:39:33 | 48.71055 | 10.24198 | 13° | 44km/h | 19592m | -11m/s | -56.1°C | 0.8% | 62.3hPa | 2.6V | 08:18:15 | 02:10:14 | 00:00:00 | |
| OE5DRO-10 | 2026-09-04 12:39:33 | 48.71055 | 10.24198 | 13° | 46km/h | 19592m | -11.0m/s | -56.0°C | 4.6% | 62.3hPa | 2.7V | 00:00:00 | 00:00:00 | 00:00:00 | |
| DM0DOS-11 | 2026-09-04 12:39:32 | 48.71053 | 10.24210 | 173° | 40km/h | 19625m | -11m/s | -55.9°C | 4.6% | 62hPa | 2.7V | 08:18:07 | 02:10:11 | 00:00:00 | |
| DJ8HS-15 | 2026-09-04 12:39:30 | 48.71053 | 10.24210 | 174° | 51km/h | 19625m | -10.9m/s | -55.9°C | 4.6% | 61.9hPa | 2.7V | 00:00:00 | 02:10:11 | 00:00:00 | |
| NBG1-10 | 2026-09-04 12:39:28 | 48.71070 | 10.24181 | 105° | 49km/h | 19646m | -10.7m/s | -55.9°C | 4.7% | 61.7hPa | 2.7V | 00:00:00 | 02:10:09 | 00:00:00 | |
| DB0NH | 2026-09-04 12:39:26 | 48.71062 | 10.24135 | 45° | 47km/h | 19668m | -10.9m/s | -55.7°C | 4.7% | 61.5hPa | 2.6V | 00:00:00 | 02:10:07 | 00:00:00 | |
| DG9SBQ-11 | 2026-09-04 12:39:25 | 48.71062 | 10.24135 | 46° | 58km/h | 19668m | -10.9m/s | -55.8°C | 1.3% | 61.6hPa | 2.6V | 08:18:00 | 00:00:00 | 00:00:00 | |
| DM0DOS-11 | 2026-09-04 12:39:24 | 48.71066 | 10.24070 | 66° | 69km/h | 19744m | -11.1m/s | -55.1°C | 4.4% | 60.8hPa | 2.6V | 08:18:18 | 02:10:00 | 00:00:00 | |
| DK7TD | 2026-09-04 12:39:23 | 48.71046 | 10.24132 | 210° | 24km/h | 19700m | -11.2m/s | -55.5°C | 0.8% | 61.3hPa | 2.7V | 08:18:15 | 02:10:04 | 00:00:00 | |
| AZAK | 2026-09-04 12:39:22 | 48.71064 | 10.24119 | 127° | 62km/h | 19723m | -10.7m/s | -55.3°C | 1.2% | 61.1hPa | 2.7V | 08:19:00 | 00:00:00 | 00:00:00 | |
| DK5PH-5 | 2026-09-04 12:39:20 | 48.71069 | 10.24095 | 97° | 47km/h | 19733m | -10.6m/s | -55.1°C | 4.4% | 60.9hPa | 2.7V | 00:00:00 | 02:10:01 | 00:00:00 | |
| DG9SBQ-11 | 2026-09-04 12:39:19 | 48.71066 | 10.24070 | 67° | 69km/h | 19744m | -11.1m/s | -55.1°C | 1.2% | 60.8hPa | 2.7V | 08:19:00 | 00:00:00 | 00:00:00 | |
| DO3MHA-11 | 2026-09-04 12:39:16 | 48.71042 | 10.24050 | 275° | 46km/h | 19778m | -11.0m/s | -55.0°C | 4.3% | 60.5hPa | 2.7V | 08:18:00 | 02:09:57 | 00:00:00 | |
| DO3MHA-12 | 2026-09-04 12:39:14 | 48.71057 | 10.24048 | 148° | 55km/h | 19800m | -10.9m/s | -55.1°C | 4.3% | 60.3hPa | 2.6V | 00:00:00 | 02:09:55 | 00:00:00 | |
| DM0DOS-11 | 2026-09-04 12:39:13 | 48.71051 | 10.23964 | 224° | 22km/h | 19866m | -11.1m/s | -55.1°C | 4.4% | 59.7hPa | 2.6V | 08:18:29 | 02:09:49 | 00:00:00 | |
| DK7TD | 2026-09-04 12:39:12 | 48.71072 | 10.24003 | 90° | 77km/h | 19823m | -11.4m/s | -55.4°C | 0.7% | 60.1hPa | 2.7V | 08:19:06 | 02:09:53 | 00:00:00 | |
| DG9SBQ-11 | 2026-09-04 12:39:12 | 48.71072 | 10.24003 | 91° | 77km/h | 19823m | -11.4m/s | -55.4°C | 1.2% | 60.1hPa | 2.7V | 08:19:00 | 00:00:00 | 00:00:00 | |
| OE5DRO-10 | 2026-09-04 12:39:11 | 48.71068 | 10.23977 | 61° | 49km/h | 19834m | -11.0m/s | -55.4°C | 4.5% | 59.9hPa | 2.7V | 08:18:00 | 00:00:00 | 00:00:00 | |
| DJ8HS-15 | 2026-09-04 12:39:10 | 48.71059 | 10.23962 | 29° | 44km/h | 19845m | -10.7m/s | -55.3°C | 4.5% | 59.8hPa | 2.7V | 00:00:00 | 02:09:51 | 00:00:00 | |
| HARRO8 | 2026-09-04 12:39:09 | 48.71051 | 10.23964 | 224° | 22km/h | 19867m | -11.1m/s | -55.1°C | 1.1% | 59.7hPa | 2.6V | 00:00:00 | 00:00:00 | 00:00:00 | |
| DO3MHA-11 | 2026-09-04 12:39:06 | 48.71070 | 10.23958 | 141° | 51km/h | 19889m | -11.0m/s | -54.9°C | 4.3% | 59.4hPa | 2.6V | 00:00:00 | 02:09:47 | 00:00:00 | |
| DO3MHA-12 | 2026-09-04 12:39:04 | 48.71081 | 10.23913 | 81° | 49km/h | 19911m | -11.2m/s | -55.0°C | 4.4% | 59.2hPa | 2.6V | 00:00:00 | 02:09:45 | 00:00:00 | |
| DM7RM-13 | 2026-09-04 12:39:03 | 48.71075 | 10.23893 | 49° | 55km/h | 19923m | -11.1m/s | -55.1°C | 1.2% | 59.2hPa | 2.6V | 00:00:00 | 00:00:00 | 00:00:00 | |
| DM0DOS-11 | 2026-09-04 12:39:02 | 48.71080 | 10.23893 | 147° | 58km/h | 19978m | -10.7m/s | -55.1°C | 4.4% | 58.7hPa | 2.6V | 08:18:39 | 02:09:39 | 00:00:00 | |
| DK7TD | 2026-09-04 12:39:01 | 48.71059 | 10.23887 | 305° | 24km/h | 19944m | -11.1m/s | -55°C | 0.6% | 59hPa | 2.7V | 08:19:06 | 02:09:42 | 00:00:00 | |
| DO3MHA-11 | 2026-09-04 12:38:56 | 48.71093 | 10.23853 | 88° | 47km/h | 20000m | -11.8m/s | -55.3°C | 4.4% | 58.4hPa | 2.7V | 00:00:00 | 02:09:37 | 00:00:00 | |
| NBG1-10 | 2026-09-04 12:38:55 | 48.71090 | 10.23834 | 57° | 46km/h | 20012m | -11.3m/s | -55.3°C | 4.5% | 58.3hPa | 2.7V | 00:00:00 | 02:09:36 | 00:00:00 | |
| DO3MHA-12 | 2026-09-04 12:38:54 | 48.71083 | 10.23825 | 10° | 44km/h | 20023m | -10.9m/s | -55.2°C | 4.4% | 58.1hPa | 2.7V | 00:00:00 | 02:09:35 | 00:00:00 | |
| DM0DOS-11 | 2026-09-04 12:38:52 | 48.71113 | 10.23802 | 76° | 55km/h | 20092m | -11.4m/s | -55°C | 4.4% | 57.6hPa | 2.7V | 08:18:49 | 02:09:29 | 00:00:00 | |
| DK7TD | 2026-09-04 12:38:50 | 48.71103 | 10.23839 | 149° | 58km/h | 20068m | -11.8m/s | -54.9°C | 0.6% | 57.8hPa | 2.6V | 08:19:06 | 02:09:31 | 00:00:00 | |
| DL1ZP-14 | 2026-09-04 12:38:48 | 48.71106 | 10.23787 | 34° | 47km/h | 20103m | -10.9m/s | -55.0°C | 1.1% | 57.5hPa | 2.7V | 00:00:00 | 00:00:00 | 00:00:00 | |
| DK7TD | 2026-09-04 12:38:39 | 48.71097 | 10.23763 | 5° | 53km/h | 20195m | -11.6m/s | -55°C | 0.7% | 56.7hPa | 2.6V | 08:19:06 | 02:09:20 | 00:00:00 | |
| HARRO8 | 2026-09-04 12:38:38 | 48.71080 | 10.23782 | 276° | 42km/h | 20218m | -11.7m/s | -54.9°C | 1.1% | 56.5hPa | 2.6V | 00:00:00 | 00:00:00 | 00:00:00 | |
| DO3MHA-11 | 2026-09-04 12:38:36 | 48.71083 | 10.23795 | 224° | 44km/h | 20230m | -11.8m/s | -54.8°C | 4.3% | 56.3hPa | 2.6V | 00:00:00 | 02:09:17 | 00:00:00 | |
| DL9SK-14 | 2026-09-04 12:38:35 | 48.71098 | 10.23789 | 114° | 44km/h | 20253m | -11.2m/s | -55.0°C | 1.1% | 56.2hPa | 2.6V | 00:00:00 | 00:00:00 | 00:00:00 | |
| DO3MHA-12 | 2026-09-04 12:38:34 | 48.71098 | 10.23789 | 115° | 47km/h | 20253m | -11.1m/s | -54.9°C | 4.4% | 56.1hPa | 2.6V | 00:00:00 | 02:09:15 | 00:00:00 | |
| DJTTGO | 2026-09-04 12:38:33 | 48.71098 | 10.23772 | 72° | 51km/h | 20264m | -11.1m/s | -55.1°C | 1.1% | 56.1hPa | 2.7V | 08:19:00 | 00:00:00 | 00:00:00 | |
| DF1GD-15 | 2026-09-04 12:38:32 | 48.71090 | 10.23757 | 34° | 55km/h | 20276m | -11.6m/s | -55.1°C | 1.2% | 56.0hPa | 2.7V | 08:19:00 | 00:00:00 | 00:00:00 | |
| DM0DOS-11 | 2026-09-04 12:38:30 | 48.71085 | 10.23741 | 71° | 58km/h | 20357m | -11.5m/s | -55.1°C | 4.6% | 55.3hPa | 2.7V | 08:19:12 | 02:09:06 | 00:00:00 | |
| DK7TD | 2026-09-04 12:38:29 | 48.71065 | 10.23771 | 261° | 35km/h | 20311m | -11.6m/s | -55.2°C | 0.8% | 55.6hPa | 2.6V | 08:19:57 | 02:09:10 | 00:00:00 | |
| DK7TD | 2026-09-04 12:38:19 | 48.71082 | 10.23727 | 137° | 62km/h | 20428m | -11.6m/s | -54.5°C | 0.7% | 54.6hPa | 2.7V | 08:19:57 | 02:09:00 | 00:00:00 | |
| DL1ZP-14 | 2026-09-04 12:38:17 | 48.71085 | 10.23666 | 39° | 44km/h | 20464m | -12.3m/s | -54.2°C | 1.1% | 54.3hPa | 2.6V | 00:00:00 | 00:00:00 | 00:00:00 | |
| DO3MHA-11 | 2026-09-04 12:38:16 | 48.71084 | 10.23666 | 40° | 49km/h | 20464m | -12.2m/s | -54.2°C | 4.3% | 54.3hPa | 2.6V | 00:00:00 | 02:08:57 | 00:00:00 | |
| DG9SBQ-11 | 2026-09-04 12:38:15 | 48.71077 | 10.23662 | 344° | 26km/h | 20476m | -12.5m/s | -54.1°C | 1.1% | 54.2hPa | 2.7V | 08:19:00 | 00:00:00 | 00:00:00 | |
| DO3MHA-12 | 2026-09-04 12:38:14 | 48.71075 | 10.23669 | 256° | 47km/h | 20488m | -11.8m/s | -54.1°C | 4.2% | 54.1hPa | 2.7V | 00:00:00 | 02:08:55 | 00:00:00 | |
| DM0DOS-11 | 2026-09-04 12:38:12 | 48.71113 | 10.23618 | 63° | 49km/h | 20549m | -11.7m/s | -54.3°C | 4.3% | 53.6hPa | 2.7V | 08:19:28 | 02:08:50 | 00:00:00 | |
| DK7TD | 2026-09-04 12:38:08 | 48.71107 | 10.23608 | 11° | 31km/h | 20560m | -11.5m/s | -54.1°C | 0.7% | 53.5hPa | 2.7V | 08:19:57 | 02:08:49 | 00:00:00 | |
| DO3MHA-11 | 2026-09-04 12:38:06 | 48.71105 | 10.23623 | 225° | 49km/h | 20585m | -12.6m/s | -53.9°C | 4.2% | 53.2hPa | 2.7V | 00:00:00 | 02:08:47 | 00:00:00 | |
| SONCRA | 2026-09-04 12:38:04 | 48.71141 | 10.23608 | 115° | 64km/h | 20620m | -11.6m/s | -53.9°C | 1.1% | 53.0hPa | 2.7V | 00:00:00 | 00:00:00 | 00:00:00 | |
| DL9SK-14 | 2026-09-04 12:38:03 | 48.71141 | 10.23608 | 115° | 64km/h | 20620m | -11.6m/s | -53.9°C | 1.1% | 53.0hPa | 2.7V | 00:00:00 | 00:00:00 | 00:00:00 | |
| DM0DOS-11 | 2026-09-04 12:38:01 | 48.71170 | 10.23581 | 141° | 69km/h | 20706m | -13m/s | -53.8°C | 4.2% | 52.3hPa | 2.7V | 08:19:41 | 02:08:37 | 00:00:00 | |
| DK7TD | 2026-09-04 12:37:58 | 48.71139 | 10.23588 | 207° | 55km/h | 20681m | -11.7m/s | -53.7°C | 0.6% | 52.5hPa | 2.6V | 08:19:57 | 02:08:39 | 00:00:00 | |
| DO3MHA-11 | 2026-09-04 12:37:56 | 48.71169 | 10.23581 | 142° | 51km/h | 20706m | -12.9m/s | -53.7°C | 4.2% | 52.2hPa | 2.6V | 00:00:00 | 02:08:37 | 00:00:00 | |
| DB0NH | 2026-09-04 12:37:55 | 48.71179 | 10.23562 | 109° | 49km/h | 20719m | -12.6m/s | -53.7°C | 4.2% | 52.1hPa | 2.6V | 00:00:00 | 02:08:36 | 00:00:00 | |
| DG9SBQ-11 | 2026-09-04 12:37:54 | 48.71180 | 10.23543 | 69° | 44km/h | 20731m | -12.3m/s | -53.6°C | 1.1% | 52.1hPa | 2.6V | 08:19:00 | 00:00:00 | 00:00:00 | |
| DM7RM-13 | 2026-09-04 12:37:53 | 48.71180 | 10.23543 | 69° | 44km/h | 20731m | -12.3m/s | -53.6°C | 1.1% | 52.1hPa | 2.6V | 08:19:00 | 00:00:00 | 00:00:00 | |
| DJ8HS-15 | 2026-09-04 12:37:50 | 48.71181 | 10.23569 | 201° | 49km/h | 20780m | -12.0m/s | -53.4°C | 4.1% | 51.6hPa | 2.6V | 00:00:00 | 02:08:31 | 00:00:00 | |
| NBG1-10 | 2026-09-04 12:37:49 | 48.71196 | 10.23570 | 165° | 49km/h | 20792m | -12.9m/s | -53.4°C | 4.2% | 51.6hPa | 2.6V | 00:00:00 | 02:08:30 | 00:00:00 | |
| DM0DOS-11 | 2026-09-04 12:37:48 | 48.71202 | 10.23566 | 226° | 55km/h | 20866m | -13.3m/s | -53.6°C | 4.2% | 51hPa | 2.6V | 08:19:54 | 02:08:24 | 00:00:00 | |
| DK7TD | 2026-09-04 12:37:47 | 48.71211 | 10.23542 | 83° | 42km/h | 20817m | -11.7m/s | -53.7°C | 0.6% | 51.4hPa | 2.7V | 08:19:57 | 02:08:28 | 00:00:00 | |
| DL1ZP-14 | 2026-09-04 12:37:46 | 48.71200 | 10.23535 | 314° | 37km/h | 20840m | -12.2m/s | -53.7°C | 1.1% | 51.2hPa | 2.6V | 00:00:00 | 00:00:00 | 00:00:00 | |
| DK7TD | 2026-09-04 12:37:36 | 48.71211 | 10.23561 | 245° | 47km/h | 20954m | -12m/s | -53.1°C | 0.5% | 50.3hPa | 2.6V | 08:20:48 | 02:08:17 | 00:00:00 | |
| DK7TD | 2026-09-04 12:37:26 | 48.71264 | 10.23574 | 139° | 51km/h | 21080m | -13.1m/s | -52.6°C | 0.4% | 49.4hPa | 2.7V | 08:20:48 | 02:08:07 | 00:00:00 | |
| DK7TD | 2026-09-04 12:37:16 | 48.71260 | 10.23565 | 346° | 53km/h | 21206m | -12m/s | -53°C | 0.5% | 48.3hPa | 2.6V | 08:20:48 | 02:07:57 | 00:00:00 | |
| NBG1-10 | 2026-09-04 12:37:16 | 48.71260 | 10.23565 | 346° | 49km/h | 21206m | -11.9m/s | -53.0°C | 3.9% | 48.3hPa | 2.7V | 00:00:00 | 02:07:57 | 00:00:00 | |
| DL1ZP-14 | 2026-09-04 12:37:15 | 48.71248 | 10.23595 | 256° | 49km/h | 21231m | -13.4m/s | -53.0°C | 1.0% | 48.2hPa | 2.7V | 00:00:00 | 00:00:00 | 00:00:00 | |
| DO3MHA-12 | 2026-09-04 12:37:14 | 48.71247 | 10.23595 | 257° | 47km/h | 21231m | -13.3m/s | -52.9°C | 3.8% | 48.1hPa | 2.6V | 00:00:00 | 02:07:55 | 00:00:00 | |
| DO9HM | 2026-09-04 12:37:13 | 48.71247 | 10.23595 | 257° | 51km/h | 21231m | -13.4m/s | -53.0°C | 1.0% | 48.2hPa | 2.6V | 00:00:00 | 00:00:00 | 00:00:00 | |
| DM0DOS-11 | 2026-09-04 12:37:11 | 48.71262 | 10.23580 | 39° | 53km/h | 21282m | -12.2m/s | -53.3°C | 4% | 47.8hPa | 2.6V | 08:20:27 | 02:07:51 | 00:00:00 | |
| DK7TD | 2026-09-04 12:37:06 | 48.71236 | 10.23611 | 216° | 40km/h | 21334m | -12.3m/s | -53.4°C | 0.6% | 47.4hPa | 2.6V | 08:20:48 | 02:07:47 | 00:00:00 | |
| DO3MHA-11 | 2026-09-04 12:37:06 | 48.71236 | 10.23611 | 216° | 49km/h | 21334m | -12.3m/s | -53.3°C | 4.0% | 47.4hPa | 2.7V | 00:00:00 | 02:07:47 | 00:00:00 | |
| DO3MHA-12 | 2026-09-04 12:37:04 | 48.71251 | 10.23599 | 100° | 51km/h | 21358m | -12.0m/s | -53.5°C | 4.0% | 47.2hPa | 2.7V | 00:00:00 | 02:07:45 | 00:00:00 | |
| DM0DOS-11 | 2026-09-04 12:37:02 | 48.71220 | 10.23591 | 220° | 38km/h | 21421m | -12.3m/s | -53.6°C | 4.1% | 46.8hPa | 2.7V | 08:20:38 | 02:07:40 | 00:00:00 | |
| DK7TD | 2026-09-04 12:36:55 | 48.71230 | 10.23542 | 36° | 58km/h | 21470m | -12.8m/s | -53.7°C | 0.6% | 46.5hPa | 2.6V | 08:20:48 | 02:07:36 | 00:00:00 | |
| DG9SBQ-11 | 2026-09-04 12:36:55 | 48.71230 | 10.23542 | 37° | 58km/h | 21471m | -12.8m/s | -53.7°C | 1.1% | 46.5hPa | 2.6V | 08:20:00 | 00:00:00 | 00:00:00 | |
| DO3MHA-12 | 2026-09-04 12:36:54 | 48.71219 | 10.23536 | 354° | 47km/h | 21484m | -13.0m/s | -53.6°C | 4.1% | 46.3hPa | 2.6V | 00:00:00 | 02:07:35 | 00:00:00 | |
| DO9HM | 2026-09-04 12:36:52 | 48.71210 | 10.23543 | 303° | 37km/h | 21496m | -12.6m/s | -53.6°C | 1.1% | 46.2hPa | 2.6V | 00:00:00 | 00:00:00 | 00:00:00 | |
| DM0DOS-11 | 2026-09-04 12:36:50 | 48.71207 | 10.23526 | 253° | 42km/h | 21596m | -12.1m/s | -53.5°C | 4% | 45.5hPa | 2.6V | 08:20:52 | 02:07:26 | 00:00:00 | |
| DK7TD | 2026-09-04 12:36:44 | 48.71214 | 10.23536 | 197° | 46km/h | 21608m | -12.2m/s | -53.6°C | 0.5% | 45.4hPa | 2.6V | 08:21:39 | 02:07:25 | 00:00:00 | |
| DO3MHA-12 | 2026-09-04 12:36:44 | 48.71214 | 10.23536 | 198° | 49km/h | 21609m | -12.2m/s | -53.5°C | 4.0% | 45.4hPa | 2.6V | 00:00:00 | 02:07:25 | 00:00:00 | |
| NBG1-10 | 2026-09-04 12:36:43 | 48.71225 | 10.23533 | 149° | 49km/h | 21622m | -13.5m/s | -53.7°C | 4.1% | 45.3hPa | 2.6V | 00:00:00 | 02:07:24 | 00:00:00 | |
| OE5DXL-15 | 2026-09-04 12:36:40 | 48.71221 | 10.23489 | 10° | 49km/h | 21660m | -11.8m/s | -54.0°C | 4.2% | 45.0hPa | 2.6V | 00:00:00 | 00:00:00 | 00:00:00 | |
| DF2AP-13 | 2026-09-04 12:36:38 | 48.71207 | 10.23508 | 261° | 51km/h | 21685m | -13.0m/s | -54.0°C | 4.2% | 44.8hPa | 2.7V | 00:00:00 | 02:07:19 | 00:00:00 | |
| DG1MJG | 2026-09-04 12:36:37 | 48.71213 | 10.23520 | 206° | 46km/h | 21698m | -13.0m/s | -54.0°C | 0% | 0hPa | 2.7V | 08:21:00 | 00:00:00 | 00:00:00 | |
| DO3MHA-11 | 2026-09-04 12:36:36 | 48.71224 | 10.23519 | 154° | 51km/h | 21711m | -12.6m/s | -54.1°C | 4.2% | 44.6hPa | 2.7V | 00:00:00 | 02:07:17 | 00:00:00 | |
| DM0DOS-11 | 2026-09-04 12:36:35 | 48.71230 | 10.23485 | 61° | 57km/h | 21736m | -12.7m/s | -54.4°C | 4.4% | 44.6hPa | 2.7V | 08:21:03 | 02:07:15 | 00:00:00 | |
| DK7TD | 2026-09-04 12:36:34 | 48.71230 | 10.23485 | 62° | 57km/h | 21736m | -12.7m/s | -54.4°C | 0.7% | 44.6hPa | 2.7V | 08:21:39 | 02:07:15 | 00:00:00 | |
| DK7TD | 2026-09-04 12:36:24 | 48.71215 | 10.23465 | 268° | 44km/h | 21867m | -12.7m/s | -54°C | 0.7% | 43.6hPa | 2.7V | 08:21:39 | 02:07:05 | 00:00:00 | |
| DO9HM | 2026-09-04 12:36:24 | 48.71215 | 10.23464 | 269° | 44km/h | 21868m | -12.7m/s | -54.0°C | 1.1% | 43.6hPa | 2.6V | 00:00:00 | 00:00:00 | 00:00:00 | |
| DG9SBQ-11 | 2026-09-04 12:36:21 | 48.71234 | 10.23485 | 178° | 62km/h | 21893m | -12.8m/s | -53.9°C | 1.1% | 43.4hPa | 2.6V | 08:21:00 | 00:00:00 | 00:00:00 | |
| DK5PH-5 | 2026-09-04 12:36:20 | 48.71253 | 10.23459 | 95° | 49km/h | 21920m | -13.8m/s | -53.9°C | 4.2% | 43.2hPa | 2.6V | 00:00:00 | 02:07:01 | 00:00:00 | |
| DM0DOS-11 | 2026-09-04 12:36:15 | 48.71251 | 10.23490 | 197° | 58km/h | 21985m | -13.6m/s | -53.6°C | 4.1% | 42.8hPa | 2.6V | 08:21:22 | 02:06:56 | 00:00:00 | |
| DK7TD | 2026-09-04 12:36:13 | 48.71269 | 10.23478 | 95° | 40km/h | 22011m | -12.8m/s | -53.7°C | 0.5% | 42.7hPa | 2.7V | 08:21:39 | 02:06:54 | 00:00:00 | |
| DL1ZP-14 | 2026-09-04 12:36:13 | 48.71265 | 10.23466 | 31° | 40km/h | 22024m | -12.7m/s | -53.7°C | 1.0% | 42.5hPa | 2.7V | 00:00:00 | 00:00:00 | 00:00:00 | |
| DG9SBQ-11 | 2026-09-04 12:36:10 | 48.71246 | 10.23479 | 296° | 57km/h | 22050m | -13.1m/s | -53.5°C | 1.1% | 42.4hPa | 2.6V | 08:21:00 | 00:00:00 | 00:00:00 | |
| OE5DRO-10 | 2026-09-04 12:36:09 | 48.71245 | 10.23499 | 255° | 53km/h | 22064m | -13.8m/s | -53.4°C | 4.0% | 42.3hPa | 2.6V | 00:00:00 | 00:00:00 | 00:00:00 | |
| DJTTGO | 2026-09-04 12:36:07 | 48.71252 | 10.23514 | 210° | 49km/h | 22078m | -14.1m/s | -53.4°C | 1.0% | 42.2hPa | 2.6V | 00:00:00 | 00:00:00 | 00:00:00 | |
| DO3MHA-11 | 2026-09-04 12:36:06 | 48.71268 | 10.23504 | 95° | 49km/h | 22105m | -13.0m/s | -53.6°C | 4.1% | 42.0hPa | 2.6V | 00:00:00 | 02:06:47 | 00:00:00 | |
| DM7RM-13 | 2026-09-04 12:36:05 | 48.71264 | 10.23490 | 44° | 49km/h | 22118m | -12.5m/s | -53.8°C | 1.1% | 41.9hPa | 2.6V | 08:21:00 | 00:00:00 | 00:00:00 | |
| DM0DOS-11 | 2026-09-04 12:36:04 | 48.71251 | 10.23512 | 103° | 46km/h | 22196m | -13.1m/s | -54.3°C | 4.3% | 41.4hPa | 2.6V | 08:21:38 | 02:06:40 | 00:00:00 | |
| DK7TD | 2026-09-04 12:36:03 | 48.71239 | 10.23491 | 320° | 57km/h | 22144m | -14m/s | -53.9°C | 0.6% | 41.8hPa | 2.6V | 08:21:39 | 02:06:44 | 00:00:00 | |
| DK7TD | 2026-09-04 12:35:52 | 48.71235 | 10.23502 | 110° | 53km/h | 22291m | -13m/s | -54.4°C | 0.8% | 40.8hPa | 2.6V | 08:22:30 | 02:06:33 | 00:00:00 | |
| DB0UT-7 | 2026-09-04 12:35:50 | 48.71224 | 10.23465 | 27° | 53km/h | 22318m | -13.9m/s | -54.3°C | 4.6% | 40.6hPa | 2.6V | 00:00:00 | 00:00:00 | 00:00:00 | |
| OE5DRO-10 | 2026-09-04 12:35:48 | 48.71204 | 10.23473 | 283° | 53km/h | 22346m | -13.9m/s | -54.1°C | 4.5% | 40.4hPa | 2.6V | 08:21:00 | 00:00:00 | 00:00:00 | |
| DM0DOS-11 | 2026-09-04 12:35:46 | 48.71229 | 10.23444 | 77° | 66km/h | 22402m | -15.4m/s | -53.9°C | 4.5% | 40.1hPa | 2.6V | 08:21:53 | 02:06:25 | 00:00:00 | |
| DB0ND-19 | 2026-09-04 12:35:45 | 48.71229 | 10.23444 | 77° | 66km/h | 22402m | -15.4m/s | -53.9°C | 1.1% | 40.1hPa | 2.7V | 00:00:00 | 00:00:00 | 00:00:00 | |
| DK7TD | 2026-09-04 12:35:41 | 48.71206 | 10.23429 | 278° | 38km/h | 22444m | -12.8m/s | -53.3°C | 0.6% | 39.9hPa | 2.7V | 08:22:30 | 02:06:22 | 00:00:00 | |
| PG1ADW-2 | 2026-09-04 12:35:40 | 48.71210 | 10.23441 | 215° | 47km/h | 22458m | -13.8m/s | -53.1°C | 4.1% | 39.7hPa | 2.7V | 00:00:00 | 00:00:00 | 00:00:00 | |
| NBG1-10 | 2026-09-04 12:35:37 | 48.71236 | 10.23410 | 79° | 51km/h | 22502m | -13.6m/s | -52.8°C | 4.0% | 39.4hPa | 2.6V | 00:00:00 | 02:06:18 | 00:00:00 | |
| DO3MHA-11 | 2026-09-04 12:35:36 | 48.71229 | 10.23394 | 29° | 51km/h | 22515m | -12.6m/s | -52.5°C | 3.9% | 39.4hPa | 2.6V | 00:00:00 | 02:06:17 | 00:00:00 | |
| EDDB2-11 | 2026-09-04 12:35:35 | 48.71210 | 10.23406 | 281° | 46km/h | 22542m | -14.2m/s | -52.4°C | 1.0% | 39.2hPa | 2.6V | 00:00:00 | 00:00:00 | 00:00:00 | |
| DM0DOS-11 | 2026-09-04 12:35:34 | 48.71222 | 10.23423 | 160° | 44km/h | 22570m | -14.2m/s | -52.4°C | 3.8% | 39hPa | 2.6V | 08:22:05 | 02:06:13 | 00:00:00 | |
| DK7TD | 2026-09-04 12:35:30 | 48.71227 | 10.23390 | 63° | 62km/h | 22598m | -13.6m/s | -52.6°C | 0.4% | 38.9hPa | 2.6V | 08:22:30 | 02:06:11 | 00:00:00 | |
| DK7TD | 2026-09-04 12:35:20 | 48.71169 | 10.23352 | 297° | 44km/h | 22739m | -14.3m/s | -52.6°C | 0.4% | 38.1hPa | 2.7V | 08:22:30 | 02:06:01 | 00:00:00 | |
| PG1ADW-2 | 2026-09-04 12:35:20 | 48.71169 | 10.23365 | 232° | 51km/h | 22754m | -14.3m/s | -52.6°C | 3.9% | 37.9hPa | 2.6V | 00:00:00 | 00:00:00 | 00:00:00 | |
| DO3MHA-11 | 2026-09-04 12:35:16 | 48.71184 | 10.23334 | 67° | 53km/h | 22797m | -14.5m/s | -53.0°C | 4.0% | 37.7hPa | 2.6V | 00:00:00 | 02:05:57 | 00:00:00 | |
| DG9SBQ-11 | 2026-09-04 12:35:15 | 48.71173 | 10.23318 | 27° | 66km/h | 22811m | -14.6m/s | -53.0°C | 1.0% | 37.7hPa | 2.7V | 00:00:00 | 00:00:00 | 00:00:00 | |
| AZAK | 2026-09-04 12:35:14 | 48.71158 | 10.23316 | 346° | 60km/h | 22826m | -14.9m/s | -53.0°C | 1.0% | 37.6hPa | 2.7V | 08:22:00 | 00:00:00 | 00:00:00 | |
| DM0DOS-11 | 2026-09-04 12:35:10 | 48.71152 | 10.23306 | 23° | 58km/h | 22913m | -15.1m/s | -53.3°C | 4.1% | 37.1hPa | 2.7V | 08:22:29 | 02:05:49 | 00:00:00 | |
| DK7TD | 2026-09-04 12:35:09 | 48.71161 | 10.23321 | 68° | 57km/h | 22897m | -15.2m/s | -53.2°C | 0.6% | 37.2hPa | 2.6V | 08:22:30 | 02:05:50 | 00:00:00 | |
| OE5DRO-10 | 2026-09-04 12:35:08 | 48.71152 | 10.23306 | 24° | 57km/h | 22913m | -15.1m/s | -53.2°C | 4.1% | 37.0hPa | 2.7V | 00:00:00 | 00:00:00 | 00:00:00 | |
| DG9SBQ-11 | 2026-09-04 12:35:07 | 48.71152 | 10.23306 | 25° | 58km/h | 22913m | -15.1m/s | -53.3°C | 1.0% | 37.1hPa | 2.7V | 00:00:00 | 00:00:00 | 00:00:00 | |
| DO3MHA-11 | 2026-09-04 12:35:06 | 48.71129 | 10.23319 | 292° | 51km/h | 22942m | -14.1m/s | -53.2°C | 4.1% | 36.8hPa | 2.7V | 00:00:00 | 02:05:47 | 00:00:00 | |
| EDDB2-11 | 2026-09-04 12:35:04 | 48.71148 | 10.23342 | 131° | 44km/h | 22986m | -15.3m/s | -53.4°C | 1.0% | 36.6hPa | 2.7V | 00:00:00 | 00:00:00 | 00:00:00 | |
| DL6DJ-15 | 2026-09-04 12:35:03 | 48.71150 | 10.23327 | 75° | 46km/h | 23001m | -14.7m/s | -53.4°C | 1.1% | 36.5hPa | 2.7V | 00:00:00 | 00:00:00 | 00:00:00 | |
| DG1MJG | 2026-09-04 12:35:01 | 48.71150 | 10.23327 | 76° | 46km/h | 23001m | -14.7m/s | 0°C | 0% | 0hPa | 2.7V | 00:00:00 | 00:00:00 | 00:00:00 | |
| HARRO8 | 2026-09-04 12:35:00 | 48.71121 | 10.23352 | 247° | 53km/h | 23058m | -14.8m/s | -53.0°C | 1.0% | 36.2hPa | 2.7V | 00:00:00 | 00:00:00 | 00:00:00 | |
| DM0DOS-11 | 2026-09-04 12:34:58 | 48.71121 | 10.23352 | 247° | 53km/h | 23058m | -14.8m/s | -53°C | 4% | 36.2hPa | 2.7V | 08:22:39 | 02:05:39 | 00:00:00 | |
| DK7TD | 2026-09-04 12:34:58 | 48.71121 | 10.23352 | 247° | 53km/h | 23058m | -14.8m/s | -53°C | 0.6% | 36.2hPa | 2.7V | 08:23:21 | 02:05:39 | 00:00:00 | |
| DL9SK-14 | 2026-09-04 12:34:57 | 48.71129 | 10.23363 | 193° | 42km/h | 23073m | -14.9m/s | -53.0°C | 1.0% | 36.1hPa | 2.7V | 00:00:00 | 00:00:00 | 00:00:00 | |
| DO3MHA-11 | 2026-09-04 12:34:56 | 48.71137 | 10.23359 | 125° | 53km/h | 23087m | -14.4m/s | -53.1°C | 4.1% | 36.0hPa | 2.7V | 00:00:00 | 02:05:37 | 00:00:00 | |
| DB0NH | 2026-09-04 12:34:55 | 48.71137 | 10.23345 | 64° | 55km/h | 23101m | -13.6m/s | -53.2°C | 4.2% | 36.0hPa | 2.7V | 00:00:00 | 02:05:36 | 00:00:00 | |
| DO3MHA-12 | 2026-09-04 12:34:54 | 48.71127 | 10.23333 | 17° | 57km/h | 23115m | -13.6m/s | -53.2°C | 4.2% | 35.9hPa | 2.7V | 00:00:00 | 02:05:35 | 00:00:00 | |
| DM0DOS-11 | 2026-09-04 12:34:53 | 48.71110 | 10.23349 | 63° | 62km/h | 23205m | -14.6m/s | -53.1°C | 4.1% | 35.4hPa | 2.7V | 08:22:49 | 02:05:29 | 00:00:00 | |
| DK7TD | 2026-09-04 12:34:48 | 48.71110 | 10.23349 | 63° | 62km/h | 23205m | -14.6m/s | -53.1°C | 0.6% | 35.4hPa | 2.7V | 08:23:21 | 02:05:29 | 00:00:00 | |
| OE5DRO-10 | 2026-09-04 12:34:47 | 48.71098 | 10.23333 | 26° | 66km/h | 23220m | -14.3m/s | -53.0°C | 4.0% | 35.3hPa | 2.7V | 00:00:00 | 00:00:00 | 00:00:00 | |
| OE5WHR-10 | 2026-09-04 12:34:46 | 48.71083 | 10.23330 | 346° | 64km/h | 23234m | -14.5m/s | -52.8°C | 4.0% | 35.2hPa | 2.6V | 00:00:00 | 00:00:00 | 00:00:00 | |
| DG9SBQ-11 | 2026-09-04 12:34:45 | 48.71083 | 10.23330 | 347° | 64km/h | 23234m | -14.5m/s | -52.9°C | 1.0% | 35.2hPa | 2.7V | 00:00:00 | 00:00:00 | 00:00:00 | |
| DO3MHA-12 | 2026-09-04 12:34:44 | 48.71071 | 10.23354 | 236° | 51km/h | 23264m | -14.6m/s | -52.8°C | 3.9% | 35.0hPa | 2.7V | 00:00:00 | 02:05:25 | 00:00:00 | |
| DM0DOS-11 | 2026-09-04 12:34:43 | 48.71042 | 10.23315 | 205° | 27km/h | 23364m | -15m/s | -52.9°C | 4% | 34.5hPa | 2.7V | 08:23:00 | 02:05:18 | 00:00:00 | |
| DK7TD | 2026-09-04 12:34:37 | 48.71042 | 10.23315 | 206° | 27km/h | 23365m | -15m/s | -52.9°C | 0.6% | 34.5hPa | 2.7V | 08:23:21 | 02:05:18 | 00:00:00 | |
| DO3MHA-11 | 2026-09-04 12:34:36 | 48.71049 | 10.23311 | 138° | 57km/h | 23380m | -14.6m/s | -52.8°C | 4.0% | 34.4hPa | 2.6V | 00:00:00 | 02:05:17 | 00:00:00 | |
| DO3MHA-12 | 2026-09-04 12:34:34 | 48.71051 | 10.23267 | 62° | 57km/h | 23409m | -15.1m/s | -52.9°C | 4.0% | 34.2hPa | 2.6V | 00:00:00 | 02:05:15 | 00:00:00 | |
| EDDB2-11 | 2026-09-04 12:34:33 | 48.71019 | 10.23264 | 204° | 37km/h | 23471m | -14.8m/s | -52.9°C | 1.0% | 33.9hPa | 2.7V | 00:00:00 | 00:00:00 | 00:00:00 | |
| DM0DOS-11 | 2026-09-04 12:34:32 | 48.71033 | 10.23219 | 60° | 69km/h | 23516m | -15m/s | -53°C | 4.1% | 33.7hPa | 2.7V | 08:23:10 | 02:05:08 | 00:00:00 | |
| DK7TD | 2026-09-04 12:34:27 | 48.71033 | 10.23219 | 60° | 69km/h | 23516m | -15m/s | -53°C | 0.6% | 33.7hPa | 2.7V | 08:23:21 | 02:05:08 | 00:00:00 | |
| DL9SK-14 | 2026-09-04 12:34:26 | 48.71021 | 10.23205 | 15° | 60km/h | 23531m | -15.6m/s | -53.0°C | 1.0% | 33.6hPa | 2.7V | 00:00:00 | 00:00:00 | 00:00:00 | |
| DB0NH | 2026-09-04 12:34:25 | 48.71009 | 10.23207 | 325° | 49km/h | 23547m | -15.1m/s | -53.0°C | 4.1% | 33.5hPa | 2.7V | 00:00:00 | 02:05:06 | 00:00:00 | |
| DO3MHA-12 | 2026-09-04 12:34:24 | 48.71005 | 10.23220 | 261° | 51km/h | 23562m | -14.9m/s | -53.1°C | 4.1% | 33.4hPa | 2.7V | 00:00:00 | 02:05:05 | 00:00:00 | |
| DM0DOS-11 | 2026-09-04 12:34:23 | 48.71000 | 10.23203 | 238° | 46km/h | 23668m | -15.7m/s | -53.3°C | 4.2% | 32.9hPa | 2.7V | 08:23:20 | 02:04:58 | 00:00:00 | |
| DK7TD | 2026-09-04 12:34:17 | 48.70999 | 10.23203 | 239° | 46km/h | 23668m | -15.7m/s | -53.3°C | 0.7% | 32.9hPa | 2.7V | 08:23:21 | 02:04:58 | 00:00:00 | |
| DO3MHA-11 | 2026-09-04 12:34:16 | 48.71008 | 10.23210 | 177° | 53km/h | 23684m | -16.0m/s | -53.2°C | 4.3% | 32.8hPa | 2.7V | 00:00:00 | 02:04:57 | 00:00:00 | |
| DO3MHA-12 | 2026-09-04 12:34:14 | 48.71021 | 10.23180 | 79° | 53km/h | 23716m | -14.8m/s | -53.0°C | 4.3% | 32.6hPa | 2.7V | 00:00:00 | 02:04:55 | 00:00:00 | |
| DG9SBQ-11 | 2026-09-04 12:34:13 | 48.71013 | 10.23162 | 36° | 62km/h | 23731m | -15.0m/s | -52.9°C | 1.1% | 32.6hPa | 2.7V | 00:00:00 | 00:00:00 | 00:00:00 | |
| DB0ND-19 | 2026-09-04 12:34:12 | 48.71000 | 10.23181 | 164° | 44km/h | 23793m | -15.9m/s | -52.6°C | 1.1% | 32.3hPa | 2.7V | 00:00:00 | 00:00:00 | 00:00:00 | |
| DM0DOS-11 | 2026-09-04 12:34:11 | 48.71003 | 10.23127 | 40° | 62km/h | 23837m | -15.1m/s | -52.5°C | 4.2% | 32.1hPa | 2.7V | 08:23:31 | 02:04:47 | 00:00:00 | |
| DK7TD | 2026-09-04 12:34:06 | 48.71003 | 10.23127 | 40° | 62km/h | 23837m | -15.1m/s | -52.5°C | 0.7% | 32.1hPa | 2.7V | 08:24:12 | 02:04:47 | 00:00:00 | |
| DK7TD | 2026-09-04 12:33:56 | 48.70984 | 10.23038 | 291° | 9km/h | 23993m | -14.4m/s | -51.1°C | 0.5% | 31.3hPa | 2.6V | 08:24:12 | 02:04:37 | 00:00:00 | |
| HSKMA3-T | 2026-09-04 12:33:52 | 48.71018 | 10.23010 | 123° | 62km/h | 24051m | -15.9m/s | -50.7°C | 0.4% | 31.1hPa | 2.6V | 08:24:12 | 02:04:33 | 00:00:00 | |
| DM0DOS-11 | 2026-09-04 12:33:50 | 48.71021 | 10.22949 | 309° | 5km/h | 24151m | -14.4m/s | -51.1°C | 3.9% | 30.6hPa | 2.7V | 08:23:52 | 02:04:26 | 00:00:00 | |
| DK7TD | 2026-09-04 12:33:46 | 48.71021 | 10.22947 | 244° | 5km/h | 24137m | -13.9m/s | -51.1°C | 0.5% | 30.7hPa | 2.7V | 08:24:12 | 02:04:27 | 00:00:00 | |
| HSKMA3-T | 2026-09-04 12:33:39 | 48.71002 | 10.22903 | 114° | 51km/h | 24243m | -16m/s | -50°C | 0.3% | 30.2hPa | 2.6V | 08:24:12 | 02:04:20 | 00:00:00 | |
| PG1ADW-2 | 2026-09-04 12:33:39 | 48.71002 | 10.22903 | 114° | 42km/h | 24243m | -15.9m/s | -49.9°C | 3.6% | 30.1hPa | 2.6V | 00:00:00 | 02:04:20 | 00:00:00 | |
| DL1ZP-14 | 2026-09-04 12:33:37 | 48.71021 | 10.22879 | 167° | 47km/h | 24274m | -15.6m/s | -49.7°C | 0.9% | 30.0hPa | 2.7V | 00:00:00 | 00:00:00 | 00:00:00 | |
| DM0DOS-11 | 2026-09-04 12:33:36 | 48.71039 | 10.22887 | 232° | 31km/h | 24306m | -15.8m/s | -49.8°C | 3.6% | 29.8hPa | 2.6V | 08:24:02 | 02:04:16 | 00:00:00 | |
| DK7TD | 2026-09-04 12:33:35 | 48.71039 | 10.22887 | 233° | 31km/h | 24306m | -15.8m/s | -49.8°C | 0.3% | 29.8hPa | 2.6V | 08:24:12 | 02:04:16 | 00:00:00 | |
| OE5WHR-10 | 2026-09-04 12:33:35 | 48.71039 | 10.22887 | 233° | 31km/h | 24306m | -15.7m/s | -49.8°C | 3.6% | 29.8hPa | 2.6V | 00:00:00 | 02:04:16 | 00:00:00 | |
| DO3MHA-12 | 2026-09-04 12:33:34 | 48.71040 | 10.22896 | 281° | 42km/h | 24322m | -15.7m/s | -49.8°C | 3.6% | 29.7hPa | 2.6V | 08:24:00 | 02:04:15 | 00:00:00 | |
| AZAK | 2026-09-04 12:33:31 | 48.71031 | 10.22901 | 31° | 31km/h | 24354m | -16.2m/s | -49.9°C | 0.9% | 29.6hPa | 2.7V | 08:24:00 | 00:00:00 | 00:00:00 | |
| DM0DOS-11 | 2026-09-04 12:33:30 | 48.71077 | 10.22853 | 235° | 44km/h | 24469m | -16.5m/s | -49.3°C | 3.5% | 29.1hPa | 2.7V | 08:24:12 | 02:04:06 | 00:00:00 | |
| HSKMA3-T | 2026-09-04 12:33:28 | 48.71041 | 10.22846 | 151° | 57km/h | 24418m | -16.6m/s | -49.3°C | 0.2% | 29.4hPa | 2.6V | 08:24:12 | 02:04:09 | 00:00:00 | |
| DL1XH-west | 2026-09-04 12:33:26 | 48.71068 | 10.22842 | 200° | 53km/h | 24452m | -16.7m/s | -49.2°C | 0.2% | 29.2hPa | 2.7V | 08:25:03 | 02:04:07 | 00:00:00 | |
| DK7TD | 2026-09-04 12:33:24 | 48.71080 | 10.22866 | 281° | 35km/h | 24485m | -16.3m/s | -49.5°C | 0.3% | 29.1hPa | 2.6V | 08:25:03 | 02:04:05 | 00:00:00 | |
| DF8AY | 2026-09-04 12:33:18 | 48.71088 | 10.22832 | 188° | 49km/h | 24581m | -15.8m/s | -49.2°C | 0.3% | 28.6hPa | 2.6V | 08:27:36 | 02:03:59 | 00:00:00 | |
| DM0DOS-11 | 2026-09-04 12:33:18 | 48.71101 | 10.22865 | 305° | 31km/h | 24628m | -14.9m/s | -49°C | 3.4% | 28.4hPa | 2.7V | 08:24:22 | 02:03:56 | 00:00:00 | |
| HSKMA3-T | 2026-09-04 12:33:17 | 48.71098 | 10.22840 | 224° | 46km/h | 24597m | -15.8m/s | -49.2°C | 0.3% | 28.5hPa | 2.6V | 08:25:03 | 02:03:58 | 00:00:00 | |
| DK7TD | 2026-09-04 12:33:13 | 48.71087 | 10.22870 | 23° | 31km/h | 24659m | -16.3m/s | -49°C | 0.1% | 28.3hPa | 2.7V | 08:25:03 | 02:03:54 | 00:00:00 | |
| DF8AY | 2026-09-04 12:33:07 | 48.71108 | 10.22841 | 218° | 42km/h | 24757m | -16.7m/s | -48.5°C | 0.2% | 27.9hPa | 2.7V | 08:27:36 | 02:03:48 | 00:00:00 | |
| DL1XH-west | 2026-09-04 12:33:07 | 48.71115 | 10.22853 | 245° | 42km/h | 24774m | -16.9m/s | -48.4°C | 0.2% | 27.8hPa | 2.6V | 08:25:03 | 02:03:47 | 00:00:00 | |
| DM0DOS-11 | 2026-09-04 12:33:06 | 48.71117 | 10.22868 | 272° | 40km/h | 24790m | -16.7m/s | -48.5°C | 3.4% | 27.7hPa | 2.6V | 08:24:32 | 02:03:46 | 00:00:00 | |
| HSKMA3-T | 2026-09-04 12:33:04 | 48.71114 | 10.22882 | 302° | 40km/h | 24807m | -16.3m/s | -48.5°C | 0.2% | 27.7hPa | 2.6V | 08:25:03 | 02:03:45 | 00:00:00 | |
| DK7TD | 2026-09-04 12:33:03 | 48.71107 | 10.22892 | 333° | 40km/h | 24823m | -16.3m/s | -48.6°C | 0.1% | 27.6hPa | 2.7V | 08:25:03 | 02:03:44 | 00:00:00 | |
| OE5MMP-10 | 2026-09-04 12:33:02 | 48.71097 | 10.22896 | 2° | 37km/h | 24840m | -16.5m/s | -48.4°C | 3.3% | 27.5hPa | 2.7V | 00:00:00 | 02:03:43 | 00:00:00 | |
| DL6DJ-15 | 2026-09-04 12:32:59 | 48.71083 | 10.22853 | 129° | 37km/h | 24905m | -17.1m/s | -48.1°C | 0.8% | 27.2hPa | 2.7V | 00:00:00 | 00:00:00 | 00:00:00 | |
| DM0DOS-11 | 2026-09-04 12:32:58 | 48.71100 | 10.22856 | 257° | 31km/h | 24956m | -16.3m/s | -47.9°C | 3.1% | 27hPa | 2.7V | 08:24:42 | 02:03:36 | 00:00:00 | |
| DF8AY | 2026-09-04 12:32:56 | 48.71096 | 10.22848 | 211° | 29km/h | 24939m | -16.9m/s | -47.9°C | 0% | 27.1hPa | 2.7V | 08:27:36 | 02:03:37 | 00:00:00 | |
| DL1XH-west | 2026-09-04 12:32:56 | 48.71100 | 10.22856 | 257° | 31km/h | 24956m | -16.3m/s | -47.9°C | 0% | 27hPa | 2.7V | 08:25:03 | 02:03:36 | 00:00:00 | |
| DK7TD | 2026-09-04 12:32:53 | 48.71092 | 10.22879 | 330° | 46km/h | 24990m | -17.2m/s | -48.1°C | 0% | 26.9hPa | 2.6V | 08:25:03 | 02:03:34 | 00:00:00 | |
| HSKMA3-T | 2026-09-04 12:32:52 | 48.71080 | 10.22884 | 359° | 49km/h | 25007m | -17.3m/s | -48.2°C | 0% | 26.8hPa | 2.6V | 08:25:03 | 02:03:33 | 00:00:00 | |
| DF3TZ-5 | 2026-09-04 12:32:50 | 48.71060 | 10.22867 | 58° | 46km/h | 25041m | -16.7m/s | -48.2°C | 0.7% | 26.7hPa | 2.6V | 00:00:00 | 00:00:00 | 00:00:00 | |
| DL1XH-west | 2026-09-04 12:32:42 | 48.71077 | 10.22862 | 330° | 31km/h | 25172m | -15.9m/s | -48.7°C | 0.2% | 26.1hPa | 2.6V | 08:25:03 | 02:03:23 | 00:00:00 | |
| HSKMA3-T | 2026-09-04 12:32:40 | 48.71060 | 10.22864 | 15° | 35km/h | 25204m | -16.6m/s | -48.6°C | 0.2% | 26.1hPa | 2.6V | 08:25:03 | 02:03:21 | 00:00:00 | |
| DL1XH-west | 2026-09-04 12:32:32 | 48.71041 | 10.22774 | 81° | 40km/h | 25330m | -16.8m/s | -48.5°C | 0.2% | 25.5hPa | 2.7V | 08:25:54 | 02:03:13 | 00:00:00 | |
| DK7TD | 2026-09-04 12:32:31 | 48.71038 | 10.22759 | 64° | 42km/h | 25347m | -17.4m/s | -48.4°C | 0.2% | 25.5hPa | 2.7V | 08:25:54 | 02:03:12 | 00:00:00 | |
| HSKMA3-T | 2026-09-04 12:32:29 | 48.71023 | 10.22738 | 18° | 38km/h | 25383m | -17.7m/s | -48.1°C | 0.1% | 25.3hPa | 2.6V | 08:25:54 | 02:03:10 | 00:00:00 | |
| DL6DJ-15 | 2026-09-04 12:32:28 | 48.71008 | 10.22743 | 310° | 29km/h | 25418m | -17.4m/s | -48.0°C | 0.8% | 25.2hPa | 2.7V | 00:00:00 | 00:00:00 | 00:00:00 | |
| DJ2DS-15 | 2026-09-04 12:32:27 | 48.71008 | 10.22743 | 311° | 40km/h | 25418m | -17.3m/s | -47.9°C | 3.2% | 25.1hPa | 2.7V | 00:00:00 | 02:03:08 | 00:00:00 | |
| DM0DOS-11 | 2026-09-04 12:32:26 | 48.71008 | 10.22766 | 231° | 38km/h | 25453m | -17.1m/s | -47.8°C | 3.1% | 25hPa | 2.7V | 08:25:12 | 02:03:06 | 00:00:00 | |
| DL1XH-west | 2026-09-04 12:32:21 | 48.71040 | 10.22754 | 95° | 44km/h | 25525m | -17.8m/s | -47.9°C | 0% | 24.7hPa | 2.7V | 08:25:54 | 02:03:02 | 00:00:00 | |
| DK7TD | 2026-09-04 12:32:20 | 48.71037 | 10.22739 | 51° | 46km/h | 25543m | -18.4m/s | -48°C | 0% | 24.7hPa | 2.7V | 08:25:54 | 02:03:01 | 00:00:00 | |
| HSKMA3-T | 2026-09-04 12:32:19 | 48.71028 | 10.22731 | 9° | 47km/h | 25562m | -18.5m/s | -48°C | 0.1% | 24.6hPa | 2.7V | 08:25:54 | 02:03:00 | 00:00:00 | |
| NBG1-10 | 2026-09-04 12:32:19 | 48.71028 | 10.22731 | 9° | 37km/h | 25562m | -18.4m/s | -47.9°C | 3.2% | 24.5hPa | 2.6V | 00:00:00 | 02:03:00 | 00:00:00 | |
| DF1GD-15 | 2026-09-04 12:32:18 | 48.71028 | 10.22731 | 10° | 47km/h | 25562m | -18.5m/s | -48.0°C | 0.8% | 24.6hPa | 2.6V | 08:25:00 | 00:00:00 | 00:00:00 | |
| DM0DOS-11 | 2026-09-04 12:32:18 | 48.71021 | 10.22778 | 197° | 46km/h | 25632m | -17m/s | -48.1°C | 3.2% | 24.4hPa | 2.7V | 08:25:22 | 02:02:56 | 00:00:00 | |
| OE5MMP-10 | 2026-09-04 12:32:17 | 48.71010 | 10.22749 | 283° | 37km/h | 25598m | -17.1m/s | -48.0°C | 3.2% | 24.4hPa | 2.6V | 00:00:00 | 02:02:58 | 00:00:00 | |
| DO3MHA-11 | 2026-09-04 12:32:16 | 48.71012 | 10.22767 | 240° | 35km/h | 25615m | -17.2m/s | -48.0°C | 3.2% | 24.4hPa | 2.6V | 00:00:00 | 02:02:57 | 00:00:00 | |
| DG9SBQ-11 | 2026-09-04 12:32:14 | 48.71031 | 10.22777 | 159° | 42km/h | 25650m | -16.6m/s | -48.2°C | 0.8% | 24.3hPa | 2.6V | 08:25:00 | 00:00:00 | 00:00:00 | |
| DN1GJH-1 | 2026-09-04 12:32:12 | 48.71038 | 10.22768 | 119° | 40km/h | 25666m | -16.1m/s | -48.2°C | 0.8% | 24.2hPa | 2.6V | 08:25:00 | 00:00:00 | 00:00:00 | |
| DK5PH-5 | 2026-09-04 12:32:11 | 48.71036 | 10.22742 | 44° | 35km/h | 25699m | -16.6m/s | -48.5°C | 3.3% | 24.1hPa | 2.6V | 00:00:00 | 02:02:52 | 00:00:00 | |
| DL1XH1-15 | 2026-09-04 12:32:10 | 48.71021 | 10.22765 | 265° | 27km/h | 25777m | -16m/s | -49°C | 3.5% | 23.9hPa | 2.6V | 08:25:31 | 02:02:47 | 00:00:00 | |
| DL1XH-west | 2026-09-04 12:32:10 | 48.71030 | 10.22737 | 5° | 27km/h | 25715m | -16.4m/s | -48.7°C | 0.2% | 24hPa | 2.6V | 08:25:54 | 02:02:51 | 00:00:00 | |
| HSKMA3-T | 2026-09-04 12:32:09 | 48.71021 | 10.22746 | 285° | 24km/h | 25746m | -14.7m/s | -49.2°C | 0.4% | 24hPa | 2.7V | 08:25:54 | 02:02:49 | 00:00:00 | |
| DF8AY | 2026-09-04 12:32:02 | 48.71009 | 10.22805 | 337° | 31km/h | 25845m | -17.6m/s | -48.6°C | 0.2% | 23.6hPa | 2.7V | 08:27:36 | 02:02:43 | 00:00:00 | |
| DL1XH-west | 2026-09-04 12:32:00 | 48.70996 | 10.22798 | 55° | 33km/h | 25881m | -17.9m/s | -48.3°C | 0.1% | 23.5hPa | 2.6V | 08:25:54 | 02:02:41 | 00:00:00 | |
| HSKMA3-T | 2026-09-04 12:31:58 | 48.70997 | 10.22774 | 133° | 42km/h | 25917m | -18.5m/s | -48.1°C | 0.1% | 23.3hPa | 2.6V | 08:25:54 | 02:02:39 | 00:00:00 | |
| DF8AY | 2026-09-04 12:31:52 | 48.71004 | 10.22823 | 25° | 31km/h | 26040m | -17m/s | -48.3°C | 0.2% | 22.9hPa | 2.7V | 08:27:36 | 02:02:32 | 00:00:00 | |
| DL9SK-14 | 2026-09-04 12:31:51 | 48.70999 | 10.22815 | 71° | 27km/h | 26057m | -16.4m/s | -48.5°C | 0.8% | 22.8hPa | 2.6V | 00:00:00 | 00:00:00 | 00:00:00 | |
| DL1XH1-15 | 2026-09-04 12:31:50 | 48.71019 | 10.22793 | 216° | 29km/h | 26129m | -19m/s | -48°C | 3.3% | 22.5hPa | 2.6V | 08:25:51 | 02:02:27 | 00:00:00 | |
| DL1XH-west | 2026-09-04 12:31:49 | 48.71000 | 10.22804 | 112° | 31km/h | 26074m | -16.8m/s | -48.4°C | 0.3% | 22.8hPa | 2.7V | 08:25:54 | 02:02:30 | 00:00:00 | |
| HSKMA3-T | 2026-09-04 12:31:48 | 48.71005 | 10.22795 | 143° | 35km/h | 26091m | -18.4m/s | -48.2°C | 0.2% | 22.7hPa | 2.6V | 08:25:54 | 02:02:29 | 00:00:00 | |
| DJ2DS-15 | 2026-09-04 12:31:47 | 48.71012 | 10.22790 | 176° | 33km/h | 26110m | -19.3m/s | -48.0°C | 3.3% | 22.6hPa | 2.7V | 00:00:00 | 02:02:28 | 00:00:00 | |
| DM0DOS-11 | 2026-09-04 12:31:46 | 48.71023 | 10.22802 | 260° | 31km/h | 26148m | -17.4m/s | -48.2°C | 3.4% | 22.5hPa | 2.7V | 08:25:52 | 02:02:26 | 00:00:00 | |
| DF8AY | 2026-09-04 12:31:40 | 48.70980 | 10.22822 | 40° | 44km/h | 26235m | -18.2m/s | -48.1°C | 0.2% | 22.2hPa | 2.6V | 08:27:36 | 02:02:21 | 00:00:00 | |
| DL1XH-west | 2026-09-04 12:31:39 | 48.70975 | 10.22810 | 71° | 37km/h | 26253m | -17.8m/s | -48.1°C | 0.2% | 22.1hPa | 2.7V | 08:26:45 | 02:02:20 | 00:00:00 | |
| OE5MMP-10 | 2026-09-04 12:31:39 | 48.70975 | 10.22810 | 71° | 37km/h | 26253m | -17.8m/s | -48.0°C | 3.3% | 22.1hPa | 2.6V | 00:00:00 | 02:02:20 | 00:00:00 | |
| DM0DOS-11 | 2026-09-04 12:31:38 | 48.70987 | 10.22800 | 260° | 31km/h | 26326m | -18m/s | -47.8°C | 3.3% | 21.9hPa | 2.6V | 08:26:02 | 02:02:16 | 00:00:00 | |
| HSKMA3-T | 2026-09-04 12:31:38 | 48.70974 | 10.22798 | 109° | 29km/h | 26271m | -18.2m/s | -48°C | 0.2% | 22.1hPa | 2.7V | 08:26:45 | 02:02:19 | 00:00:00 | |
| DL1XH1-15 | 2026-09-04 12:31:37 | 48.70984 | 10.22792 | 211° | 24km/h | 26308m | -18.1m/s | -47.8°C | 3.4% | 21.9hPa | 2.6V | 08:26:01 | 02:02:17 | 00:00:00 | |
| OE5DRO-10 | 2026-09-04 12:31:37 | 48.70978 | 10.22791 | 157° | 38km/h | 26290m | -18.3m/s | -47.9°C | 3.3% | 21.9hPa | 2.7V | 00:00:00 | 00:00:00 | 00:00:00 | |
| DO9HM | 2026-09-04 12:31:36 | 48.70984 | 10.22792 | 212° | 24km/h | 26308m | -18.1m/s | -47.8°C | 0.8% | 21.9hPa | 2.7V | 08:26:00 | 00:00:00 | 00:00:00 | |
| DM7RM-13 | 2026-09-04 12:31:34 | 48.70984 | 10.22812 | 303° | 38km/h | 26344m | -18.7m/s | -47.8°C | 0.8% | 21.8hPa | 2.7V | 08:26:00 | 00:00:00 | 00:00:00 | |
| DL1ZP-14 | 2026-09-04 12:31:33 | 48.70966 | 10.22824 | 6° | 46km/h | 26382m | -18.7m/s | -47.5°C | 0.8% | 21.7hPa | 2.7V | 00:00:00 | 00:00:00 | 00:00:00 | |
| DN1GJH-1 | 2026-09-04 12:31:31 | 48.70966 | 10.22824 | 7° | 47km/h | 26382m | -18.7m/s | -47.5°C | 0.8% | 21.7hPa | 2.7V | 08:26:00 | 00:00:00 | 00:00:00 | |
| DL1XH1-15 | 2026-09-04 12:31:30 | 48.70973 | 10.22786 | 242° | 37km/h | 26494m | -19.5m/s | -47.2°C | 3.1% | 21.3hPa | 2.7V | 08:26:11 | 02:02:07 | 00:00:00 | |
| DL1XH-west | 2026-09-04 12:31:28 | 48.70958 | 10.22778 | 159° | 38km/h | 26455m | -19m/s | -47.2°C | 0% | 21.5hPa | 2.6V | 08:26:45 | 02:02:09 | 00:00:00 | |
| HSKMA3-T | 2026-09-04 12:31:27 | 48.70966 | 10.22778 | 199° | 35km/h | 26475m | -19.6m/s | -47.2°C | 0% | 21.4hPa | 2.7V | 08:26:45 | 02:02:08 | 00:00:00 | |
| DM0DOS-11 | 2026-09-04 12:31:27 | 48.70974 | 10.22799 | 283° | 38km/h | 26513m | -18.6m/s | -47.2°C | 3.1% | 21.2hPa | 2.7V | 08:26:12 | 02:02:06 | 00:00:00 | |
| DK7TD | 2026-09-04 12:31:23 | 48.70958 | 10.22817 | 358° | 46km/h | 26551m | -19m/s | -47.5°C | 0% | 21.2hPa | 2.6V | 08:26:45 | 02:02:04 | 00:00:00 | |
| HARRO8 | 2026-09-04 12:31:23 | 48.70948 | 10.22813 | 30° | 46km/h | 26570m | -19.4m/s | -47.5°C | 0.7% | 21.1hPa | 2.6V | 00:00:00 | 00:00:00 | 00:00:00 | |
| DL1XH1-15 | 2026-09-04 12:31:20 | 48.70963 | 10.22794 | 268° | 47km/h | 26683m | -18.5m/s | -47.4°C | 3.1% | 20.7hPa | 2.6V | 08:26:21 | 02:01:57 | 00:00:00 | |
| DL1XH-west | 2026-09-04 12:31:18 | 48.70960 | 10.22778 | 234° | 42km/h | 26665m | -17.6m/s | -47.3°C | 0% | 20.8hPa | 2.6V | 08:26:45 | 02:01:58 | 00:00:00 | |
| DF3TZ-5 | 2026-09-04 12:31:17 | 48.70960 | 10.22778 | 234° | 40km/h | 26665m | -17.6m/s | -47.3°C | 0.7% | 20.8hPa | 2.7V | 00:00:00 | 00:00:00 | 00:00:00 | |
| DM0DOS-11 | 2026-09-04 12:31:16 | 48.70961 | 10.22811 | 297° | 49km/h | 26703m | -19.9m/s | -47.5°C | 3.1% | 20.7hPa | 2.7V | 08:26:22 | 02:01:56 | 00:00:00 | |
| HSKMA3-T | 2026-09-04 12:31:16 | 48.70963 | 10.22794 | 268° | 49km/h | 26683m | -18.5m/s | -47.4°C | 0% | 20.7hPa | 2.6V | 08:26:45 | 02:01:57 | 00:00:00 | |
| DK7TD | 2026-09-04 12:31:13 | 48.70944 | 10.22827 | 11° | 33km/h | 26743m | -19.2m/s | -47.9°C | 0.2% | 20.5hPa | 2.7V | 08:26:45 | 02:01:54 | 00:00:00 | |
| DF8AY | 2026-09-04 12:31:12 | 48.70939 | 10.22810 | 115° | 31km/h | 26779m | -18.1m/s | -48.1°C | 0.3% | 20.4hPa | 2.6V | 08:27:36 | 02:01:52 | 00:00:00 | |
| DJ8HS-15 | 2026-09-04 12:31:10 | 48.70945 | 10.22801 | 150° | 40km/h | 26798m | -18.9m/s | -47.8°C | 3.3% | 20.4hPa | 2.6V | 08:26:00 | 02:01:51 | 00:00:00 | |
| OE5MMP-10 | 2026-09-04 12:31:09 | 48.70955 | 10.22797 | 180° | 37km/h | 26818m | -20.3m/s | -47.7°C | 3.3% | 20.3hPa | 2.6V | 00:00:00 | 02:01:50 | 00:00:00 | |
| DM0DOS-11 | 2026-09-04 12:31:08 | 48.70967 | 10.22838 | 321° | 38km/h | 26895m | -18.9m/s | -48°C | 3.3% | 20.1hPa | 2.6V | 08:26:32 | 02:01:46 | 00:00:00 | |
| DL1XH-west | 2026-09-04 12:31:07 | 48.70971 | 10.22812 | 248° | 40km/h | 26858m | -19.5m/s | -47.8°C | 0.2% | 20.1hPa | 2.7V | 08:26:45 | 02:01:48 | 00:00:00 | |
| HSKMA3-T | 2026-09-04 12:31:06 | 48.70972 | 10.22826 | 286° | 38km/h | 26877m | -18.3m/s | -48°C | 0.2% | 20.1hPa | 2.6V | 08:26:45 | 02:01:47 | 00:00:00 | |
| DK7TD | 2026-09-04 12:31:02 | 48.70943 | 10.22833 | 60° | 33km/h | 26953m | -18.7m/s | -47.6°C | 0.1% | 19.9hPa | 2.7V | 08:26:45 | 02:01:43 | 00:00:00 | |
| DF8AY | 2026-09-04 12:31:01 | 48.70942 | 10.22822 | 103° | 31km/h | 26972m | -19m/s | -47.6°C | 0.2% | 19.8hPa | 2.7V | 08:27:36 | 02:01:42 | 00:00:00 | |
| DJ2DS-15 | 2026-09-04 12:31:01 | 48.70942 | 10.22822 | 104° | 40km/h | 26973m | -18.9m/s | -47.6°C | 3.3% | 19.8hPa | 2.7V | 00:00:00 | 02:01:42 | 00:00:00 | |
| DL1XH1-15 | 2026-09-04 12:31:00 | 48.70967 | 10.22844 | 274° | 44km/h | 27068m | -19m/s | -47.8°C | 3.4% | 19.6hPa | 2.7V | 08:26:41 | 02:01:37 | 00:00:00 | |
| DL1XH-west | 2026-09-04 12:30:57 | 48.70966 | 10.22828 | 249° | 42km/h | 27049m | -19.2m/s | -47.7°C | 0.3% | 19.6hPa | 2.7V | 08:26:45 | 02:01:38 | 00:00:00 | |
| HSKMA3-T | 2026-09-04 12:30:56 | 48.70968 | 10.22844 | 274° | 44km/h | 27068m | -19m/s | -47.8°C | 0.2% | 19.6hPa | 2.7V | 08:26:45 | 02:01:37 | 00:00:00 | |
| EDDB2-11 | 2026-09-04 12:30:55 | 48.70965 | 10.22860 | 296° | 46km/h | 27087m | -18.6m/s | -48.0°C | 0.8% | 19.5hPa | 2.6V | 00:00:00 | 00:00:00 | 00:00:00 | |
| DL6DJ-15 | 2026-09-04 12:30:54 | 48.70958 | 10.22875 | 314° | 47km/h | 27106m | -18.3m/s | -48.0°C | 0.9% | 19.4hPa | 2.6V | 00:00:00 | 00:00:00 | 00:00:00 | |
| HARRO8 | 2026-09-04 12:30:52 | 48.70884 | 10.22870 | 43° | 44km/h | 27231m | -17.3m/s | -47.2°C | 0.8% | 19.1hPa | 2.6V | 00:00:00 | 00:00:00 | 00:00:00 | |
| DO9HM | 2026-09-04 12:30:51 | 48.70936 | 10.22893 | 345° | 49km/h | 27142m | -18.0m/s | -47.7°C | 0.9% | 19.4hPa | 2.6V | 08:26:00 | 00:00:00 | 00:00:00 | |
| DL1XH1-15 | 2026-09-04 12:30:50 | 48.70876 | 10.22858 | 47° | 44km/h | 27248m | -17.8m/s | -47°C | 3.3% | 19hPa | 2.6V | 08:26:51 | 02:01:27 | 00:00:00 | |
| DK7TD | 2026-09-04 12:30:50 | 48.70912 | 10.22894 | 12° | 46km/h | 27178m | -17.7m/s | -47.5°C | 0.3% | 19.2hPa | 2.6V | 08:27:36 | 02:01:31 | 00:00:00 | |
| DL1XH-west | 2026-09-04 12:30:46 | 48.70876 | 10.22858 | 48° | 44km/h | 27248m | -17.8m/s | -47°C | 0.1% | 19hPa | 2.6V | 08:27:36 | 02:01:27 | 00:00:00 | |
| HSKMA3-T | 2026-09-04 12:30:46 | 48.70869 | 10.22846 | 50° | 42km/h | 27266m | -17.9m/s | -47°C | 0.2% | 19hPa | 2.6V | 08:27:36 | 02:01:26 | 00:00:00 | |
| DO3MHA-12 | 2026-09-04 12:30:44 | 48.70862 | 10.22834 | 54° | 47km/h | 27284m | -17.9m/s | -46.8°C | 3.2% | 18.9hPa | 2.7V | 00:00:00 | 02:01:25 | 00:00:00 | |
| OE5WHR-10 | 2026-09-04 12:30:42 | 48.70852 | 10.22808 | 63° | 40km/h | 27321m | -18.6m/s | -46.6°C | 3.1% | 18.8hPa | 2.7V | 00:00:00 | 00:00:00 | 00:00:00 | |
| DJ2DS-15 | 2026-09-04 12:30:41 | 48.70847 | 10.22793 | 61° | 47km/h | 27340m | -19.0m/s | -46.5°C | 3.1% | 18.7hPa | 2.7V | 00:00:00 | 02:01:22 | 00:00:00 | |
| DL1XH1-15 | 2026-09-04 12:30:40 | 48.70794 | 10.22740 | 359° | 57km/h | 27439m | -21.3m/s | -45.9°C | 2.9% | 18.5hPa | 2.7V | 08:27:01 | 02:01:17 | 00:00:00 | |
| DK7TD | 2026-09-04 12:30:39 | 48.70832 | 10.22764 | 45° | 51km/h | 27378m | -19.7m/s | -46.5°C | 0% | 18.7hPa | 2.7V | 08:27:36 | 02:01:20 | 00:00:00 | |
| DM0DOS-11 | 2026-09-04 12:30:39 | 48.70781 | 10.22743 | 344° | 44km/h | 27460m | -21.4m/s | -45.9°C | 2.9% | 18.4hPa | 2.7V | 08:27:02 | 02:01:16 | 00:00:00 | |
| DF8AY | 2026-09-04 12:30:37 | 48.70776 | 10.22764 | 182° | 18km/h | 27536m | -19.2m/s | -46°C | 0% | 18.2hPa | 2.7V | 08:27:36 | 02:01:12 | 00:00:00 | |
| DL1XH-west | 2026-09-04 12:30:36 | 48.70781 | 10.22743 | 344° | 44km/h | 27460m | -21.4m/s | -45.9°C | 0% | 18.4hPa | 2.7V | 08:27:36 | 02:01:16 | 00:00:00 | |
| HSKMA3-T | 2026-09-04 12:30:35 | 48.70773 | 10.22748 | 322° | 29km/h | 27480m | -19.2m/s | -46°C | 0% | 18.3hPa | 2.6V | 08:27:36 | 02:01:15 | 00:00:00 | |
| DO3MHA-12 | 2026-09-04 12:30:34 | 48.70773 | 10.22748 | 322° | 26km/h | 27481m | -19.1m/s | -45.9°C | 3.0% | 18.3hPa | 2.6V | 08:27:00 | 02:01:15 | 00:00:00 | |
| DK5PH-5 | 2026-09-04 12:30:33 | 48.70770 | 10.22756 | 276° | 37km/h | 27499m | -17.6m/s | -46.0°C | 3.0% | 18.3hPa | 2.7V | 00:00:00 | 02:01:14 | 00:00:00 | |
| DM7RM-13 | 2026-09-04 12:30:32 | 48.70770 | 10.22756 | 277° | 20km/h | 27499m | -17.6m/s | -46.1°C | 0.8% | 18.3hPa | 2.7V | 08:27:00 | 00:00:00 | 00:00:00 | |
| DL1XH1-15 | 2026-09-04 12:30:30 | 48.70796 | 10.22730 | 134° | 33km/h | 27631m | -20.1m/s | -46.2°C | 3.2% | 18hPa | 2.7V | 08:27:11 | 02:01:07 | 00:00:00 | |
| DK7TD | 2026-09-04 12:30:29 | 48.70784 | 10.22757 | 126° | 22km/h | 27573m | -17.7m/s | -46.3°C | 0.1% | 18.1hPa | 2.6V | 08:27:36 | 02:01:10 | 00:00:00 | |
| OE5MMP-10 | 2026-09-04 12:30:29 | 48.70784 | 10.22757 | 127° | 29km/h | 27574m | -17.7m/s | -46.3°C | 3.1% | 18.0hPa | 2.6V | 00:00:00 | 02:01:10 | 00:00:00 | |
| DM0DOS-11 | 2026-09-04 12:30:28 | 48.70802 | 10.22723 | 150° | 33km/h | 27651m | -21.4m/s | -46.2°C | 3.2% | 17.9hPa | 2.6V | 08:27:12 | 02:01:06 | 00:00:00 | |
| DL1XH-west | 2026-09-04 12:30:24 | 48.70810 | 10.22719 | 174° | 29km/h | 27673m | -21.4m/s | -46.1°C | 0.1% | 17.8hPa | 2.6V | 08:27:36 | 02:01:05 | 00:00:00 | |
| DK7TD | 2026-09-04 12:30:18 | 48.70784 | 10.22735 | 48° | 55km/h | 27802m | -22.6m/s | -46.2°C | 0.1% | 17.4hPa | 2.6V | 08:27:36 | 02:00:59 | 00:00:00 | |
| DG9SBQ-11 | 2026-09-04 12:30:18 | 48.70784 | 10.22735 | 49° | 55km/h | 27803m | -22.6m/s | -46.2°C | 0.7% | 17.4hPa | 2.7V | 08:27:00 | 00:00:00 | 00:00:00 | |
| DM0DOS-11 | 2026-09-04 12:30:16 | 48.70791 | 10.22692 | 175° | 46km/h | 27867m | -20.6m/s | -45.9°C | 3.1% | 17.3hPa | 2.7V | 08:27:22 | 02:00:56 | 00:00:00 | |
| HSKMA3-T | 2026-09-04 12:30:14 | 48.70801 | 10.22698 | 229° | 44km/h | 27888m | -21.1m/s | -45.6°C | 0% | 17.3hPa | 2.7V | 08:27:36 | 02:00:55 | 00:00:00 | |
| DL1XH-west | 2026-09-04 12:30:13 | 48.70803 | 10.22713 | 279° | 46km/h | 27910m | -21.9m/s | -45.6°C | 0% | 17.1hPa | 2.6V | 08:27:36 | 02:00:54 | 00:00:00 | |
| DK7TD | 2026-09-04 12:30:07 | 48.70788 | 10.22671 | 156° | 46km/h | 28039m | -21.7m/s | -45.4°C | 0.1% | 16.9hPa | 2.6V | 08:27:36 | 02:00:48 | 00:00:00 | |
| DF8AY | 2026-09-04 12:30:02 | 48.70786 | 10.22697 | 28° | 33km/h | 28167m | -22.2m/s | -45°C | 0% | 16.6hPa | 2.6V | 08:27:36 | 02:00:42 | 00:00:00 | |
| DL1XH-west | 2026-09-04 12:30:02 | 48.70794 | 10.22699 | 354° | 35km/h | 28144m | -22.4m/s | -45.1°C | 0% | 16.6hPa | 2.7V | 08:27:36 | 02:00:43 | 00:00:00 | |
| HSKMA3-T | 2026-09-04 12:30:00 | 48.70780 | 10.22687 | 67° | 38km/h | 28189m | -21.4m/s | -44.8°C | 0% | 16.5hPa | 2.6V | 08:28:27 | 02:00:41 | 00:00:00 | |
| OE5WHR-10 | 2026-09-04 12:29:59 | 48.70779 | 10.22672 | 102° | 46km/h | 28211m | -21.0m/s | -44.6°C | 2.9% | 16.4hPa | 2.6V | 00:00:00 | 00:00:00 | 00:00:00 | |
| DM0DOS-11 | 2026-09-04 12:29:56 | 48.70819 | 10.22645 | 224° | 42km/h | 28299m | -21.1m/s | -44.5°C | 2.8% | 16.2hPa | 2.6V | 08:27:42 | 02:00:36 | 00:00:00 | |
| DK7TD | 2026-09-04 12:29:56 | 48.70809 | 10.22638 | 185° | 55km/h | 28277m | -22.4m/s | -44.6°C | 0% | 16.3hPa | 2.7V | 08:28:27 | 02:00:37 | 00:00:00 | |
| DF8AY | 2026-09-04 12:29:51 | 48.70805 | 10.22620 | 118° | 49km/h | 28408m | -23.6m/s | -44.5°C | 0% | 15.9hPa | 2.7V | 08:28:27 | 02:00:31 | 00:00:00 | |
| DL1XH-west | 2026-09-04 12:29:51 | 48.70803 | 10.22638 | 79° | 51km/h | 28384m | -23.8m/s | -44.5°C | 0% | 16hPa | 2.7V | 08:28:27 | 02:00:32 | 00:00:00 | |
| HSKMA3-T | 2026-09-04 12:29:49 | 48.70813 | 10.22609 | 161° | 46km/h | 28431m | -22.2m/s | -44.6°C | 0% | 15.8hPa | 2.6V | 08:28:27 | 02:00:30 | 00:00:00 | |
| SONCRA | 2026-09-04 12:29:47 | 48.70829 | 10.22643 | 293° | 53km/h | 28494m | -21.8m/s | -44.6°C | 0.7% | 15.7hPa | 2.7V | 00:00:00 | 00:00:00 | 00:00:00 | |
| DO3MHA-11 | 2026-09-04 12:29:46 | 48.70829 | 10.22643 | 294° | 40km/h | 28494m | -21.7m/s | -44.6°C | 2.9% | 15.7hPa | 2.7V | 00:00:00 | 02:00:27 | 00:00:00 | |
| AZAK | 2026-09-04 12:29:45 | 48.70821 | 10.22657 | 328° | 49km/h | 28517m | -23.1m/s | -44.6°C | 0.7% | 15.7hPa | 2.6V | 08:28:00 | 00:00:00 | 00:00:00 | |
| DG9SBQ-11 | 2026-09-04 12:29:44 | 48.70821 | 10.22657 | 328° | 49km/h | 28517m | -23.1m/s | -44.6°C | 0.7% | 15.7hPa | 2.6V | 08:28:00 | 00:00:00 | 00:00:00 | |
| DL1XH1-15 | 2026-09-04 12:29:43 | 48.70803 | 10.22658 | 46° | 33km/h | 28560m | -21.1m/s | -44.5°C | 2.9% | 15.6hPa | 2.6V | 08:27:54 | 02:00:24 | 00:00:00 | |
| DK7TD | 2026-09-04 12:29:43 | 48.70803 | 10.22658 | 47° | 33km/h | 28560m | -21.1m/s | -44.5°C | 0% | 15.6hPa | 2.6V | 08:28:27 | 02:00:24 | 00:00:00 | |
| DL1XH-west | 2026-09-04 12:29:40 | 48.70816 | 10.22637 | 187° | 42km/h | 28624m | -23m/s | -44.4°C | 0% | 15.4hPa | 2.7V | 08:28:27 | 02:00:21 | 00:00:00 | |
| PG1ADW-2 | 2026-09-04 12:29:39 | 48.70824 | 10.22643 | 228° | 38km/h | 28648m | -24.5m/s | -44.2°C | 2.9% | 15.3hPa | 2.7V | 00:00:00 | 02:00:20 | 00:00:00 | |
| DM0DOS-11 | 2026-09-04 12:29:38 | 48.70792 | 10.22637 | 85° | 64km/h | 28766m | -22.9m/s | -43.7°C | 2.7% | 15.1hPa | 2.7V | 08:28:03 | 02:00:15 | 00:00:00 | |
| DL1XH1-15 | 2026-09-04 12:29:38 | 48.70796 | 10.22616 | 127° | 58km/h | 28787m | -21m/s | -43.7°C | 2.7% | 15hPa | 2.7V | 08:28:04 | 02:00:14 | 00:00:00 | |
| HSKMA3-T | 2026-09-04 12:29:38 | 48.70827 | 10.22655 | 280° | 37km/h | 28672m | -23.2m/s | -44.2°C | 0% | 15.3hPa | 2.7V | 08:28:27 | 02:00:19 | 00:00:00 | |
| DK7TD | 2026-09-04 12:29:33 | 48.70796 | 10.22617 | 127° | 58km/h | 28787m | -21m/s | -43.7°C | 0% | 15hPa | 2.7V | 08:28:27 | 02:00:14 | 00:00:00 | |
| DL1XH-west | 2026-09-04 12:29:29 | 48.70814 | 10.22636 | 337° | 37km/h | 28875m | -22.8m/s | -43.8°C | 0% | 14.8hPa | 2.6V | 08:28:27 | 02:00:10 | 00:00:00 | |
| HSKMA3-T | 2026-09-04 12:29:25 | 48.70808 | 10.22588 | 139° | 53km/h | 28966m | -24.1m/s | -43.9°C | 0% | 14.6hPa | 2.6V | 08:28:27 | 02:00:06 | 00:00:00 | |
| DB0NH | 2026-09-04 12:29:25 | 48.70808 | 10.22588 | 139° | 44km/h | 28966m | -24.0m/s | -43.9°C | 2.6% | 14.6hPa | 2.6V | 08:28:00 | 02:00:06 | 00:00:00 | |
| DL1XH1-15 | 2026-09-04 12:29:23 | 48.70830 | 10.22584 | 211° | 42km/h | 29013m | -22.7m/s | -44°C | 2.7% | 14.5hPa | 2.6V | 08:28:14 | 02:00:04 | 00:00:00 | |
| DF8AY | 2026-09-04 12:29:23 | 48.70830 | 10.22584 | 212° | 42km/h | 29013m | -22.7m/s | -44°C | 0% | 14.5hPa | 2.6V | 08:28:27 | 02:00:04 | 00:00:00 | |
| DK7TD | 2026-09-04 12:29:20 | 48.70823 | 10.22620 | 349° | 49km/h | 29081m | -25.3m/s | -44°C | 0% | 14.3hPa | 2.7V | 08:28:27 | 02:00:01 | 00:00:00 | |
| DL1XH-west | 2026-09-04 12:29:19 | 48.70812 | 10.22617 | 29° | 49km/h | 29106m | -25.3m/s | -44°C | 0% | 14.3hPa | 2.6V | 08:28:27 | 02:00:00 | 00:00:00 | |
| HSKMA3-T | 2026-09-04 12:29:15 | 48.70828 | 10.22583 | 217° | 49km/h | 29200m | -23m/s | -44.1°C | 0% | 14.1hPa | 2.6V | 08:28:27 | 01:59:56 | 00:00:00 | |
| DO3MHA-12 | 2026-09-04 12:29:14 | 48.70834 | 10.22597 | 263° | 38km/h | 29224m | -24.2m/s | -44.1°C | 2.7% | 14.0hPa | 2.6V | 00:00:00 | 01:59:55 | 00:00:00 | |
| OE5WHR-10 | 2026-09-04 12:29:13 | 48.70831 | 10.22612 | 314° | 38km/h | 29248m | -24.3m/s | -44.1°C | 2.7% | 14.0hPa | 2.6V | 00:00:00 | 01:59:54 | 00:00:00 | |
| DL1XH1-15 | 2026-09-04 12:29:11 | 48.70823 | 10.22561 | 214° | 22km/h | 29406m | -22.6m/s | -44.6°C | 2.8% | 13.7hPa | 2.6V | 08:28:31 | 01:59:47 | 00:00:00 | |
| DK7TD | 2026-09-04 12:29:10 | 48.70805 | 10.22597 | 75° | 51km/h | 29314m | -22.2m/s | -44.5°C | 0% | 13.9hPa | 2.6V | 08:28:27 | 01:59:51 | 00:00:00 | |
| DL1XH-west | 2026-09-04 12:29:08 | 48.70810 | 10.22566 | 136° | 38km/h | 29359m | -23.4m/s | -44.6°C | 0% | 13.8hPa | 2.7V | 08:29:18 | 01:59:49 | 00:00:00 | |
| HSKMA3-T | 2026-09-04 12:29:03 | 48.70817 | 10.22588 | 326° | 40km/h | 29475m | -24.7m/s | -44.6°C | 0% | 13.6hPa | 2.6V | 08:29:18 | 01:59:44 | 00:00:00 | |
| DK7TD | 2026-09-04 12:28:59 | 48.70780 | 10.22564 | 88° | 47km/h | 29575m | -25.5m/s | -44.8°C | 0% | 13.3hPa | 2.6V | 08:29:18 | 01:59:40 | 00:00:00 | |
| DL1XH-west | 2026-09-04 12:28:58 | 48.70784 | 10.22549 | 133° | 42km/h | 29600m | -25.3m/s | -44.9°C | 0% | 13.3hPa | 2.6V | 08:29:18 | 01:59:39 | 00:00:00 | |
| DL1ZP-14 | 2026-09-04 12:28:57 | 48.70793 | 10.22544 | 184° | 40km/h | 29624m | -23.9m/s | -44.8°C | 0.7% | 13.2hPa | 2.7V | 00:00:00 | 00:00:00 | 00:00:00 | |
| DL1XH1-15 | 2026-09-04 12:28:56 | 48.70800 | 10.22552 | 241° | 47km/h | 29648m | -23.9m/s | -44.7°C | 2.9% | 13.2hPa | 2.7V | 08:28:41 | 01:59:37 | 00:00:00 | |
| DM0DOS-11 | 2026-09-04 12:28:56 | 48.70792 | 10.22583 | 334° | 53km/h | 29696m | -24.5m/s | -44.8°C | 2.8% | 13.1hPa | 2.6V | 08:28:43 | 01:59:35 | 00:00:00 | |
| HSKMA3-T | 2026-09-04 12:28:53 | 48.70780 | 10.22584 | 18° | 53km/h | 29720m | -23.9m/s | -44.9°C | 0% | 13hPa | 2.6V | 08:29:18 | 01:59:34 | 00:00:00 | |
| EDDB2-11 | 2026-09-04 12:28:51 | 48.70769 | 10.22558 | 102° | 40km/h | 29768m | -24.4m/s | -44.9°C | 0.7% | 12.9hPa | 2.6V | 00:00:00 | 00:00:00 | 00:00:00 | |
| DL1XH1-15 | 2026-09-04 12:28:50 | 48.70778 | 10.22581 | 331° | 55km/h | 29892m | -25m/s | -45°C | 2.9% | 12.7hPa | 2.6V | 08:28:51 | 01:59:27 | 00:00:00 | |
| DF8AY | 2026-09-04 12:28:48 | 48.70787 | 10.22554 | 252° | 37km/h | 29842m | -25.1m/s | -45°C | 0% | 12.8hPa | 2.6V | 08:29:18 | 01:59:29 | 00:00:00 | |
| DL1XH-west | 2026-09-04 12:28:47 | 48.70786 | 10.22569 | 296° | 46km/h | 29867m | -25.1m/s | -44.9°C | 0% | 12.8hPa | 2.6V | 08:29:18 | 01:59:28 | 00:00:00 | |
| OE5WHR-10 | 2026-09-04 12:28:47 | 48.70786 | 10.22569 | 297° | 37km/h | 29867m | -25.0m/s | -44.8°C | 2.9% | 12.7hPa | 2.6V | 08:28:00 | 00:00:00 | 00:00:00 | |
| OE5DRO-10 | 2026-09-04 12:28:46 | 48.70777 | 10.22581 | 332° | 38km/h | 29892m | -25.0m/s | -44.9°C | 2.9% | 12.6hPa | 2.7V | 00:00:00 | 00:00:00 | 00:00:00 | |
| DM0DOS-11 | 2026-09-04 12:28:45 | 48.70751 | 10.22578 | 37° | 58km/h | 29942m | -26.1m/s | -45.1°C | 2.9% | 12.6hPa | 2.7V | 08:28:53 | 01:59:25 | 00:00:00 | |
| DK7TD | 2026-09-04 12:28:44 | 48.70751 | 10.22578 | 37° | 58km/h | 29942m | -26.1m/s | -45.2°C | 0% | 12.6hPa | 2.7V | 08:29:18 | 01:59:25 | 00:00:00 | |
| HSKMA3-T | 2026-09-04 12:28:43 | 48.70743 | 10.22562 | 74° | 51km/h | 29968m | -25.9m/s | -45.2°C | 0% | 12.5hPa | 2.7V | 08:29:18 | 01:59:24 | 00:00:00 | |
| AZAK | 2026-09-04 12:28:43 | 48.70743 | 10.22562 | 75° | 51km/h | 29969m | -25.9m/s | -45.2°C | 0.7% | 12.5hPa | 2.6V | 08:29:00 | 00:00:00 | 00:00:00 | |
| DF3TZ-5 | 2026-09-04 12:28:42 | 48.70751 | 10.22536 | 165° | 40km/h | 30018m | -24.0m/s | -45.1°C | 0.7% | 12.4hPa | 2.6V | 00:00:00 | 00:00:00 | 00:00:00 | |
| DJ2DS-15 | 2026-09-04 12:28:40 | 48.70760 | 10.22539 | 221° | 27km/h | 30042m | -24.4m/s | -45.1°C | 3.0% | 12.4hPa | 2.6V | 00:00:00 | 01:59:21 | 00:00:00 | |
| DM0DOS-11 | 2026-09-04 12:28:39 | 48.70726 | 10.22542 | 85° | 42km/h | 30186m | -23.7m/s | -44.8°C | 2.9% | 12.2hPa | 2.6V | 08:29:03 | 01:59:15 | 00:00:00 | |
| DL1XH-west | 2026-09-04 12:28:37 | 48.70750 | 10.22575 | 354° | 49km/h | 30115m | -23.9m/s | -44.9°C | 0% | 12.3hPa | 2.7V | 08:29:18 | 01:59:18 | 00:00:00 | |
| DL1XH1-15 | 2026-09-04 12:28:37 | 48.70729 | 10.22558 | 59° | 47km/h | 30162m | -23.8m/s | -44.8°C | 2.9% | 12.2hPa | 2.6V | 08:29:02 | 01:59:16 | 00:00:00 | |
| DK7TD | 2026-09-04 12:28:34 | 48.70726 | 10.22542 | 85° | 42km/h | 30186m | -23.7m/s | -44.8°C | 0% | 12.2hPa | 2.6V | 08:29:18 | 01:59:15 | 00:00:00 | |
| HSKMA3-T | 2026-09-04 12:28:32 | 48.70732 | 10.22518 | 142° | 31km/h | 30233m | -23.8m/s | -44.9°C | 0% | 12.1hPa | 2.7V | 08:29:18 | 01:59:13 | 00:00:00 | |
| DL1XH1-15 | 2026-09-04 12:28:30 | 48.70752 | 10.22540 | 228° | 18km/h | 30391m | -24.3m/s | -44.8°C | 3.1% | 11.7hPa | 2.7V | 08:29:12 | 01:59:06 | 00:00:00 | |
| DF8AY | 2026-09-04 12:28:27 | 48.70749 | 10.22528 | 267° | 16km/h | 30345m | -23.1m/s | -44.9°C | 0.1% | 11.9hPa | 2.7V | 08:29:18 | 01:59:08 | 00:00:00 | |
| DM0DOS-11 | 2026-09-04 12:28:27 | 48.70756 | 10.22544 | 207° | 20km/h | 30415m | -24.6m/s | -44.8°C | 3.1% | 11.8hPa | 2.6V | 08:29:13 | 01:59:05 | 00:00:00 | |
| DL1XH-west | 2026-09-04 12:28:27 | 48.70750 | 10.22534 | 251° | 16km/h | 30368m | -23.7m/s | -44.8°C | 0.1% | 11.8hPa | 2.7V | 08:29:18 | 01:59:07 | 00:00:00 | |
| DK7TD | 2026-09-04 12:28:23 | 48.70761 | 10.22546 | 177° | 22km/h | 30440m | -25.1m/s | -44.9°C | 0.1% | 11.7hPa | 2.6V | 08:29:18 | 01:59:04 | 00:00:00 | |
| IW2NTF | 2026-09-04 12:28:22 | 48.70770 | 10.22535 | 116° | 29km/h | 30490m | -24.9m/s | -45°C | 3.2% | 11.6hPa | 2.7V | 08:30:00 | 01:59:02 | 00:00:00 | |
| HSKMA3-T | 2026-09-04 12:28:21 | 48.70770 | 10.22535 | 116° | 29km/h | 30490m | -24.9m/s | -45°C | 0.2% | 11.6hPa | 2.7V | 08:29:18 | 01:59:02 | 00:00:00 | |
| DL1XH1-15 | 2026-09-04 12:28:20 | 48.70741 | 10.22445 | 10° | 46km/h | 30644m | -28.2m/s | -44.4°C | 3.1% | 11.3hPa | 2.7V | 08:30:00 | 01:58:56 | 00:00:00 | |
| DF8AY | 2026-09-04 12:28:17 | 48.70763 | 10.22468 | 52° | 60km/h | 30589m | -27.1m/s | -44.7°C | 0.1% | 11.4hPa | 2.6V | 18:12:15 | 01:58:58 | 00:00:00 | |
| DM0DOS-11 | 2026-09-04 12:28:17 | 48.70732 | 10.22446 | 335° | 31km/h | 30671m | -25.9m/s | -44.3°C | 3.1% | 11.3hPa | 2.7V | 08:30:00 | 01:58:55 | 00:00:00 | |
| DL1XH-west | 2026-09-04 12:28:15 | 48.70741 | 10.22445 | 10° | 46km/h | 30644m | -28.2m/s | -44.4°C | 0.1% | 11.3hPa | 2.7V | 18:12:15 | 01:58:56 | 00:00:00 | |
| DK7TD | 2026-09-04 12:28:13 | 48.70728 | 10.22454 | 273° | 26km/h | 30697m | -25.5m/s | -44.1°C | 0% | 11.2hPa | 2.7V | 18:12:15 | 01:58:54 | 00:00:00 | |
| HSKMA3-T | 2026-09-04 12:28:11 | 48.70739 | 10.22467 | 178° | 40km/h | 30749m | -27.7m/s | -43.3°C | 0% | 11.2hPa | 2.6V | 18:12:15 | 01:58:52 | 00:00:00 | |
| DF8AY | 2026-09-04 12:28:06 | 48.70734 | 10.22407 | 7° | 49km/h | 30881m | -26.9m/s | -42.5°C | 0% | 10.9hPa | 2.6V | 18:12:15 | 01:58:47 | 00:00:00 | |
| DM0DOS-11 | 2026-09-04 12:28:05 | 48.70722 | 10.22417 | 248° | 22km/h | 30936m | -27.3m/s | -42.4°C | 2.7% | 10.8hPa | 2.6V | 08:30:00 | 01:58:45 | 00:00:00 | |
| DL1XH-west | 2026-09-04 12:28:05 | 48.70722 | 10.22417 | 248° | 22km/h | 30936m | -27.3m/s | -42.4°C | 0% | 10.8hPa | 2.6V | 18:12:15 | 01:58:45 | 00:00:00 | |
| DK7TD | 2026-09-04 12:28:02 | 48.70736 | 10.22416 | 146° | 47km/h | 30989m | -27.5m/s | -42.2°C | 0% | 10.7hPa | 2.7V | 18:12:15 | 01:58:43 | 00:00:00 | |
| HSKMA3-T | 2026-09-04 12:28:01 | 48.70744 | 10.22401 | 115° | 60km/h | 31017m | -29.2m/s | -42.2°C | 0% | 10.7hPa | 2.7V | 18:12:15 | 01:58:42 | 00:00:00 | |
| DL1XH1-15 | 2026-09-04 12:28:00 | 48.70719 | 10.22381 | 184° | 33km/h | 31185m | -29.5m/s | -41.6°C | 2.6% | 10.4hPa | 2.7V | 08:30:00 | 01:58:36 | 00:00:00 | |
| DK5PH-5 | 2026-09-04 12:28:00 | 48.70745 | 10.22379 | 78° | 33km/h | 31047m | -30.7m/s | -42.1°C | 2.6% | 10.6hPa | 2.6V | 00:00:00 | 01:58:41 | 00:00:00 | |
| DM0DOS-11 | 2026-09-04 12:27:59 | 48.70726 | 10.22375 | 124° | 46km/h | 31213m | -28m/s | -41.5°C | 2.5% | 10.3hPa | 2.6V | 08:30:00 | 01:58:35 | 00:00:00 | |
| DF8AY | 2026-09-04 12:27:55 | 48.70719 | 10.22381 | 184° | 33km/h | 31185m | -29.5m/s | -41.6°C | 0% | 10.4hPa | 2.7V | 18:12:15 | 01:58:36 | 00:00:00 | |
| DL1XH-west | 2026-09-04 12:27:54 | 48.70726 | 10.22375 | 124° | 46km/h | 31213m | -28m/s | -41.5°C | 0% | 10.3hPa | 2.6V | 18:12:15 | 01:58:35 | 00:00:00 | |
| DK7TD | 2026-09-04 12:27:51 | 48.70706 | 10.22327 | 9° | 62km/h | 31292m | -29.3m/s | -41.5°C | 0% | 10.2hPa | 2.7V | 18:12:15 | 01:58:32 | 00:00:00 | |
| HSKMA3-T | 2026-09-04 12:27:49 | 48.70687 | 10.22334 | 297° | 18km/h | 31352m | -27.9m/s | -41.7°C | 0% | 10.2hPa | 2.7V | 18:12:15 | 01:58:30 | 00:00:00 | |
| EDDB2-11 | 2026-09-04 12:27:49 | 48.70687 | 10.22334 | 296° | 16km/h | 31352m | -27.9m/s | -41.7°C | 0% | 10.2hPa | 2.6V | 00:00:00 | 00:00:00 | 00:00:00 | |
| DF1GD-15 | 2026-09-04 12:27:48 | 48.70687 | 10.22334 | 298° | 18km/h | 31353m | -27.9m/s | -41.7°C | 0.7% | 10.2hPa | 2.6V | 00:00:00 | 00:00:00 | 00:00:00 | |
| DM0DOS-11 | 2026-09-04 12:27:47 | 48.70695 | 10.22282 | 1° | 22km/h | 31535m | -30.2m/s | -41.6°C | 2.7% | 9.9hPa | 2.6V | 08:30:00 | 01:58:23 | 00:00:00 | |
| DL1XH-west | 2026-09-04 12:27:44 | 48.70708 | 10.22295 | 71° | 38km/h | 31482m | -25.3m/s | -41.6°C | 0% | 9.9hPa | 2.7V | 18:12:15 | 01:58:25 | 00:00:00 | |
| DF8AY | 2026-09-04 12:27:43 | 48.70686 | 10.22250 | 75° | 27km/h | 31733m | -46.8m/s | -41.2°C | 0% | 9.7hPa | 2.7V | 18:12:15 | 01:58:18 | 00:00:00 | |
| DK7TD | 2026-09-04 12:27:41 | 48.70691 | 10.22281 | 19° | 9km/h | 31567m | -32.7m/s | -41.5°C | 0% | 9.9hPa | 2.6V | 18:12:15 | 01:58:22 | 00:00:00 | |
| IW2NTF | 2026-09-04 12:27:40 | 48.70687 | 10.22260 | 79° | 27km/h | 31687m | -46.1m/s | -41.1°C | 2.6% | 9.8hPa | 2.7V | 08:30:00 | 01:58:19 | 00:00:00 | |
| HSKMA3-T | 2026-09-04 12:27:36 | 48.70685 | 10.22241 | 76° | 24km/h | 31780m | -46.9m/s | -41.2°C | 0% | 9.6hPa | 2.6V | 18:12:15 | 01:58:17 | 00:00:00 | |
| DL1XH-west | 2026-09-04 12:27:34 | 48.70683 | 10.22221 | 99° | 18km/h | 31919m | -46.9m/s | -41°C | 0% | 9.4hPa | 2.7V | 18:12:15 | 01:58:14 | 00:00:00 | |
| IW2NTF | 2026-09-04 12:27:33 | 48.70686 | 10.22182 | 114° | 20km/h | 32129m | -35.4m/s | -39.8°C | 2.5% | 9.1hPa | 2.6V | 08:30:00 | 01:58:09 | 00:00:00 | |
| DG9SBQ-11 | 2026-09-04 12:27:33 | 48.70683 | 10.22227 | 86° | 15km/h | 31872m | -46.7m/s | -41.0°C | 0.6% | 9.5hPa | 2.7V | 00:00:00 | 00:00:00 | 00:00:00 | |
| DL1NUX | 2026-09-04 12:27:32 | 48.70684 | 10.22214 | 95° | 22km/h | 31965m | -45.7m/s | 0°C | 0% | 0hPa | 2.7V | 00:00:00 | 01:58:13 | 00:00:00 | |
| DK7TD | 2026-09-04 12:27:30 | 48.70684 | 10.22197 | 92° | 22km/h | 32052m | -41.9m/s | -40.1°C | 0% | 9.2hPa | 2.6V | 18:12:15 | 01:58:11 | 00:00:00 | |
| DF8AY | 2026-09-04 12:27:28 | 48.70686 | 10.22182 | 115° | 20km/h | 32129m | -35.4m/s | -39.8°C | 0% | 9.1hPa | 2.6V | 18:12:15 | 01:58:09 | 00:00:00 | |
| HSKMA3-T | 2026-09-04 12:27:25 | 48.70699 | 10.22167 | 150° | 26km/h | 32233m | -36.4m/s | -39.2°C | 0% | 9hPa | 2.7V | 18:12:15 | 01:58:06 | 00:00:00 | |
| DL1XH-west | 2026-09-04 12:27:23 | 48.70706 | 10.22152 | 104° | 26km/h | 32306m | -35.1m/s | -39.2°C | 0% | 8.8hPa | 2.6V | 18:12:15 | 01:58:04 | 00:00:00 | |
| DG9SBQ-11 | 2026-09-04 12:27:23 | 48.70706 | 10.22152 | 105° | 26km/h | 32306m | -35.1m/s | -39.2°C | 0.5% | 8.8hPa | 2.6V | 00:00:00 | 00:00:00 | 00:00:00 | |
| NBG1-10 | 2026-09-04 12:27:22 | 48.70706 | 10.22142 | 88° | 22km/h | 32341m | -35.0m/s | -39.1°C | 2.4% | 8.8hPa | 2.6V | 00:00:00 | 01:58:03 | 00:00:00 | |
| IW2NTF | 2026-09-04 12:27:21 | 48.70708 | 10.22124 | 27° | 31km/h | 32578m | -48.5m/s | -38.1°C | 2.1% | 8.5hPa | 2.6V | 08:30:00 | 01:57:57 | 00:00:00 | |
| DK7TD | 2026-09-04 12:27:19 | 48.70708 | 10.22127 | 171° | 11km/h | 32453m | -37.1m/s | -38.8°C | 0% | 8.7hPa | 2.7V | 18:12:15 | 01:58:00 | 00:00:00 | |
| DF8AY | 2026-09-04 12:27:17 | 48.70712 | 10.22128 | 26° | 7km/h | 32532m | -44m/s | -38.4°C | 0% | 8.6hPa | 2.6V | 18:12:15 | 01:57:58 | 00:00:00 | |
| DL1XH1-15 | 2026-09-04 12:27:15 | 48.70681 | 10.22105 | 14° | 7km/h | 32760m | -39.5m/s | -37.9°C | 2.1% | 8.2hPa | 2.6V | 08:30:00 | 01:57:53 | 00:00:00 | |
| HSKMA3-T | 2026-09-04 12:27:15 | 48.70700 | 10.22118 | 24° | 40km/h | 32626m | -48.4m/s | -37.9°C | 0% | 8.5hPa | 2.7V | 18:12:15 | 01:57:56 | 00:00:00 | |
| DL1XH-west | 2026-09-04 12:27:13 | 48.70684 | 10.22107 | 25° | 26km/h | 32719m | -42.8m/s | -37.9°C | 0% | 8.3hPa | 2.7V | 18:12:15 | 01:57:54 | 00:00:00 | |
| DL1NUX | 2026-09-04 12:27:12 | 48.70681 | 10.22105 | 206° | 2km/h | 32853m | -5m/s | 0°C | 0% | 0hPa | 2.7V | 00:00:00 | 01:57:49 | 00:00:00 | |
| DK7TD | 2026-09-04 12:27:08 | 48.70681 | 10.22105 | 206° | 2km/h | 32853m | -5m/s | -38°C | 0% | 8.1hPa | 2.7V | 18:12:15 | 01:57:49 | 00:00:00 | |
| DF8AY | 2026-09-04 12:27:06 | 48.70681 | 10.22105 | 33° | 11km/h | 32848m | 5.6m/s | -38.1°C | 0% | 8.1hPa | 2.6V | 18:12:15 | 01:57:47 | 00:00:00 | |
| HSKMA3-T | 2026-09-04 12:27:05 | 48.70677 | 10.22102 | 32° | 24km/h | 32842m | 6.6m/s | -38.2°C | 0% | 8.1hPa | 2.6V | 18:12:15 | 01:57:46 | 00:00:00 | |
| DO3MHA-11 | 2026-09-04 12:27:05 | 48.70677 | 10.22101 | 33° | 35km/h | 32843m | 6.6m/s | -38.1°C | 2.2% | 8.1hPa | 2.7V | 00:00:00 | 01:57:46 | 00:00:00 | |
| IW2NTF | 2026-09-04 12:27:04 | 48.70643 | 10.22067 | 36° | 49km/h | 32814m | 6.1m/s | -38.2°C | 2.2% | 8.1hPa | 2.7V | 08:30:00 | 01:57:42 | 00:00:00 | |
| DL1XH1-15 | 2026-09-04 12:27:04 | 48.70653 | 10.22078 | 33° | 47km/h | 32820m | 7m/s | -38.3°C | 2.2% | 8.1hPa | 2.7V | 08:30:00 | 01:57:43 | 00:00:00 | |
| DL1XH-west | 2026-09-04 12:27:02 | 48.70653 | 10.22078 | 34° | 47km/h | 32820m | 7m/s | -38.3°C | 0% | 8.1hPa | 2.7V | 18:12:15 | 01:57:43 | 00:00:00 | |
| OE5WHR-10 | 2026-09-04 12:27:02 | 48.70653 | 10.22078 | 34° | 27km/h | 32821m | 6.9m/s | -38.2°C | 2.2% | 8.1hPa | 2.7V | 00:00:00 | 01:57:43 | 00:00:00 | |
| AZAK | 2026-09-04 12:27:01 | 48.70643 | 10.22067 | 37° | 49km/h | 32814m | 6.1m/s | -38.3°C | 0.5% | 8.1hPa | 2.7V | 00:00:00 | 00:00:00 | 00:00:00 | |
| DL1NUX | 2026-09-04 12:27:00 | 48.70607 | 10.22013 | 46° | 11km/h | 32780m | 5.4m/s | 0°C | 0% | 0hPa | 2.7V | 00:00:00 | 01:57:36 | 00:00:00 | |
| DK7TD | 2026-09-04 12:26:58 | 48.70618 | 10.22035 | 48° | 35km/h | 32797m | 6m/s | -38.3°C | 0% | 8.2hPa | 2.6V | 18:12:15 | 01:57:39 | 00:00:00 | |
| HSKMA3-T | 2026-09-04 12:26:55 | 48.70607 | 10.22013 | 47° | 11km/h | 32780m | 5.4m/s | -38.2°C | 0% | 8.2hPa | 2.7V | 18:12:15 | 01:57:36 | 00:00:00 | |
| SO1NDE-10 | 2026-09-04 12:26:55 | 48.70607 | 10.22013 | 47° | 20km/h | 32780m | 5.4m/s | 0°C | 0% | 0hPa | 2.7V | 00:00:00 | 01:57:36 | 00:00:00 | |
| IW2NTF | 2026-09-04 12:26:54 | 48.70594 | 10.22020 | 337° | 26km/h | 32756m | 5.3m/s | -38°C | 2.1% | 8.2hPa | 2.7V | 08:30:00 | 01:57:32 | 00:00:00 | |
| DL1ZP-14 | 2026-09-04 12:26:53 | 48.70603 | 10.22013 | 328° | 13km/h | 32768m | 6.5m/s | -38.0°C | 0.5% | 8.2hPa | 2.6V | 00:00:00 | 00:00:00 | 00:00:00 | |
| DM0DOS-11 | 2026-09-04 12:26:52 | 48.70599 | 10.22017 | 326° | 20km/h | 32761m | 6.6m/s | -38°C | 2.1% | 8.2hPa | 2.6V | 08:30:00 | 01:57:33 | 00:00:00 | |
| DL1XH-west | 2026-09-04 12:26:51 | 48.70595 | 10.22020 | 337° | 26km/h | 32756m | 5.3m/s | -38°C | 0% | 8.2hPa | 2.7V | 18:12:15 | 01:57:32 | 00:00:00 | |
| DJ2DS-15 | 2026-09-04 12:26:51 | 48.70595 | 10.22020 | 338° | 22km/h | 32756m | 5.3m/s | -37.9°C | 2.1% | 8.2hPa | 2.7V | 00:00:00 | 01:57:32 | 00:00:00 | |
| DB0UT-7 | 2026-09-04 12:26:50 | 48.70588 | 10.22023 | 354° | 20km/h | 32751m | 4.3m/s | -38.0°C | 2.1% | 8.2hPa | 2.7V | 00:00:00 | 00:00:00 | 00:00:00 | |
| DL1NUX | 2026-09-04 12:26:49 | 48.70564 | 10.21977 | 92° | 26km/h | 32714m | 5.1m/s | 0°C | 0% | 0hPa | 2.7V | 00:00:00 | 01:57:25 | 00:00:00 | |
| DK7TD | 2026-09-04 12:26:48 | 48.70574 | 10.22018 | 33° | 29km/h | 32740m | 6.6m/s | -38.1°C | 0% | 8.2hPa | 2.6V | 18:12:15 | 01:57:29 | 00:00:00 | |
| OE5MMP-10 | 2026-09-04 12:26:48 | 48.70574 | 10.22018 | 33° | 24km/h | 32741m | 6.5m/s | -38.1°C | 2.1% | 8.2hPa | 2.6V | 00:00:00 | 01:57:29 | 08:30:00 | |
| BAUMI2-15 | 2026-09-04 12:26:47 | 48.70569 | 10.22010 | 54° | 27km/h | 32734m | 7.3m/s | -37.9°C | 2.1% | 8.2hPa | 2.6V | 00:00:00 | 01:57:28 | 00:00:00 | |
| IW2NTF | 2026-09-04 12:26:46 | 48.70561 | 10.21961 | 11° | 11km/h | 32697m | 6.2m/s | -38.1°C | 2.1% | 8.3hPa | 2.6V | 08:30:00 | 01:57:22 | 00:00:00 | |
| HSKMA3-T | 2026-09-04 12:26:44 | 48.70563 | 10.21977 | 92° | 26km/h | 32714m | 5.1m/s | -37.8°C | 0% | 8.3hPa | 2.7V | 18:12:15 | 01:57:25 | 00:00:00 | |
| DO3MHA-12 | 2026-09-04 12:26:44 | 48.70563 | 10.21977 | 93° | 20km/h | 32715m | 5.1m/s | -37.7°C | 2.1% | 8.2hPa | 2.6V | 00:00:00 | 01:57:25 | 00:00:00 | |
| DM0DOS-11 | 2026-09-04 12:26:43 | 48.70563 | 10.21963 | 63° | 11km/h | 32704m | 6m/s | -38°C | 2.1% | 8.3hPa | 2.6V | 08:30:00 | 01:57:23 | 00:00:00 | |
| DL1XH-west | 2026-09-04 12:26:41 | 48.70561 | 10.21961 | 12° | 11km/h | 32697m | 6.2m/s | -38.1°C | 0% | 8.3hPa | 2.6V | 18:12:15 | 01:57:22 | 00:00:00 | |
| DK7TD | 2026-09-04 12:26:37 | 48.70541 | 10.21964 | 359° | 24km/h | 32671m | 6.4m/s | -38.7°C | 0% | 8.3hPa | 2.7V | 18:12:15 | 01:57:18 | 00:00:00 | |
| HSKMA3-T | 2026-09-04 12:26:34 | 48.70525 | 10.21960 | 18° | 20km/h | 32654m | 6.4m/s | -38.8°C | 0% | 8.4hPa | 2.6V | 18:12:15 | 01:57:15 | 00:00:00 | |
| IW2NTF | 2026-09-04 12:26:34 | 48.70512 | 10.21951 | 33° | 18km/h | 32636m | 5.3m/s | -38.9°C | 2.2% | 8.4hPa | 2.7V | 08:30:00 | 01:57:12 | 00:00:00 | |
| DF8AY | 2026-09-04 12:26:32 | 48.70516 | 10.21955 | 25° | 18km/h | 32641m | 5.8m/s | -38.8°C | 0% | 8.3hPa | 2.7V | 18:12:15 | 01:57:13 | 00:00:00 | |
| DL1XH-west | 2026-09-04 12:26:31 | 48.70512 | 10.21951 | 33° | 18km/h | 32636m | 5.3m/s | -38.9°C | 0% | 8.4hPa | 2.7V | 18:12:15 | 01:57:12 | 00:00:00 | |
| DJ2DS-15 | 2026-09-04 12:26:31 | 48.70512 | 10.21951 | 34° | 16km/h | 32636m | 5.3m/s | -38.8°C | 2.2% | 8.3hPa | 2.7V | 00:00:00 | 01:57:12 | 00:00:00 | |
| DJ8HS-15 | 2026-09-04 12:26:30 | 48.70509 | 10.21947 | 46° | 15km/h | 32631m | 5.4m/s | -38.8°C | 2.2% | 8.3hPa | 2.6V | 00:00:00 | 01:57:11 | 00:00:00 | |
| DK5PH-5 | 2026-09-04 12:26:29 | 48.70506 | 10.21941 | 58° | 13km/h | 32624m | 7.0m/s | -38.7°C | 2.2% | 8.3hPa | 2.6V | 00:00:00 | 01:57:10 | 08:30:00 | |
| DL1NUX | 2026-09-04 12:26:28 | 48.70494 | 10.21912 | 323° | 11km/h | 32586m | 6.7m/s | 0°C | 0% | 0hPa | 2.6V | 00:00:00 | 01:57:04 | 00:00:00 | |
| DK7TD | 2026-09-04 12:26:27 | 48.70501 | 10.21926 | 71° | 22km/h | 32611m | 5.5m/s | -38.7°C | 0% | 8.4hPa | 2.7V | 18:12:15 | 01:57:08 | 00:00:00 | |
| DF7PN | 2026-09-04 12:26:26 | 48.70498 | 10.21914 | 52° | 11km/h | 32600m | 5.8m/s | -38.8°C | 0.5% | 8.4hPa | 2.6V | 00:00:00 | 00:00:00 | 00:00:00 | |
| DO3MHA-12 | 2026-09-04 12:26:24 | 48.70496 | 10.21912 | 12° | 13km/h | 32594m | 7.7m/s | -38.9°C | 2.2% | 8.4hPa | 2.6V | 00:00:00 | 01:57:05 | 00:00:00 | |
| DM0DOS-11 | 2026-09-04 12:26:23 | 48.70491 | 10.21916 | 312° | 13km/h | 32580m | 5.3m/s | -39.1°C | 2.3% | 8.4hPa | 2.6V | 08:30:00 | 01:57:03 | 00:00:00 | |
| HSKMA3-T | 2026-09-04 12:26:23 | 48.70494 | 10.21912 | 324° | 11km/h | 32586m | 6.7m/s | -39.1°C | 0% | 8.4hPa | 2.6V | 18:12:15 | 01:57:04 | 00:00:00 | |
| DF8AY | 2026-09-04 12:26:22 | 48.70491 | 10.21916 | 313° | 13km/h | 32580m | 5.3m/s | -39.2°C | 0% | 8.4hPa | 2.6V | 18:12:15 | 01:57:03 | 00:00:00 | |
| DL1XH-west | 2026-09-04 12:26:20 | 48.70488 | 10.21920 | 348° | 5km/h | 32569m | 6.2m/s | -39.1°C | 0% | 8.4hPa | 2.7V | 18:12:15 | 01:57:01 | 00:00:00 | |
| DK7TD | 2026-09-04 12:26:16 | 48.70484 | 10.21900 | 80° | 22km/h | 32545m | 6.5m/s | -39.3°C | 0% | 8.5hPa | 2.6V | 18:12:15 | 01:56:57 | 00:00:00 | |
| HSKMA3-T | 2026-09-04 12:26:13 | 48.70480 | 10.21879 | 67° | 15km/h | 32526m | 5.7m/s | -39.3°C | 0% | 8.5hPa | 2.7V | 18:12:15 | 01:56:54 | 00:00:00 | |
| DM0DOS-11 | 2026-09-04 12:26:12 | 48.70479 | 10.21874 | 70° | 13km/h | 32520m | 5.9m/s | -39.3°C | 2.3% | 8.5hPa | 2.6V | 08:30:00 | 01:56:53 | 00:00:00 | |
| DF8AY | 2026-09-04 12:26:11 | 48.70478 | 10.21870 | 77° | 11km/h | 32514m | 6.3m/s | -39.4°C | 0% | 8.5hPa | 2.6V | 18:12:15 | 01:56:52 | 00:00:00 | |
| DL1XH-west | 2026-09-04 12:26:09 | 48.70478 | 10.21862 | 94° | 11km/h | 32502m | 5.5m/s | -39.4°C | 0% | 8.5hPa | 2.7V | 18:12:15 | 01:56:50 | 00:00:00 | |
| DK7TD | 2026-09-04 12:26:05 | 48.70476 | 10.21852 | 21° | 4km/h | 32478m | 6.1m/s | -39.2°C | 0% | 8.6hPa | 2.6V | 18:12:15 | 01:56:46 | 00:00:00 | |
| DO3MHA-12 | 2026-09-04 12:26:04 | 48.70475 | 10.21851 | 43° | 16km/h | 32473m | 4.9m/s | -39.2°C | 2.2% | 8.5hPa | 2.6V | 00:00:00 | 01:56:45 | 08:30:00 | |
| DM0DOS-11 | 2026-09-04 12:26:02 | 48.70475 | 10.21845 | 104° | 13km/h | 32461m | 7.1m/s | -39.2°C | 2.3% | 8.6hPa | 2.7V | 08:30:00 | 01:56:43 | 00:00:00 | |
| HSKMA3-T | 2026-09-04 12:26:02 | 48.70475 | 10.21845 | 105° | 13km/h | 32461m | 7.1m/s | -39.2°C | 0% | 8.6hPa | 2.7V | 18:12:15 | 01:56:43 | 00:00:00 | |
| DF8AY | 2026-09-04 12:26:00 | 48.70479 | 10.21831 | 120° | 27km/h | 32448m | 5.3m/s | -39.2°C | 0% | 8.6hPa | 2.6V | 18:12:15 | 01:56:41 | 00:00:00 | |
| DL1XH-west | 2026-09-04 12:25:58 | 48.70487 | 10.21814 | 130° | 26km/h | 32438m | 5.9m/s | -39.3°C | 0% | 8.7hPa | 2.6V | 18:12:15 | 01:56:39 | 00:00:00 | |
| DK7TD | 2026-09-04 12:25:55 | 48.70497 | 10.21802 | 159° | 9km/h | 32419m | 5.5m/s | -39.4°C | 0% | 8.7hPa | 2.7V | 18:12:15 | 01:56:36 | 00:00:00 | |
| DF7PN | 2026-09-04 12:25:55 | 48.70499 | 10.21800 | 163° | 9km/h | 32415m | 4.9m/s | -39.5°C | 0.5% | 8.6hPa | 2.7V | 00:00:00 | 00:00:00 | 00:00:00 | |
| IW2NTF | 2026-09-04 12:25:54 | 48.70508 | 10.21792 | 139° | 22km/h | 32396m | 6.2m/s | -39.3°C | 2.2% | 8.7hPa | 2.7V | 08:30:00 | 01:56:32 | 00:00:00 | |
| HSKMA3-T | 2026-09-04 12:25:51 | 48.70508 | 10.21792 | 140° | 22km/h | 32396m | 6.2m/s | -39.3°C | 0% | 8.7hPa | 2.7V | 18:12:15 | 01:56:32 | 00:00:00 | |
| DF8AY | 2026-09-04 12:25:49 | 48.70517 | 10.21780 | 134° | 26km/h | 32384m | 6.3m/s | -39.5°C | 0% | 8.7hPa | 2.7V | 18:12:15 | 01:56:30 | 00:00:00 | |
| DL1XH-west | 2026-09-04 12:25:47 | 48.70525 | 10.21766 | 135° | 24km/h | 32371m | 5.6m/s | -39.4°C | 0% | 8.7hPa | 2.6V | 18:12:15 | 01:56:28 | 00:00:00 | |
| DG9SBQ-11 | 2026-09-04 12:25:47 | 48.70521 | 10.21773 | 134° | 24km/h | 32378m | 6.7m/s | -39.5°C | 0.5% | 8.7hPa | 2.6V | 00:00:00 | 00:00:00 | 00:00:00 | |
| IW2NTF | 2026-09-04 12:25:46 | 48.70559 | 10.21720 | 141° | 31km/h | 32336m | 6m/s | -39.4°C | 2.3% | 8.7hPa | 2.6V | 08:30:00 | 01:56:22 | 00:00:00 | |
| DK7TD | 2026-09-04 12:25:45 | 48.70534 | 10.21753 | 137° | 29km/h | 32360m | 5.8m/s | -39.5°C | 0% | 8.7hPa | 2.7V | 18:12:15 | 01:56:26 | 00:00:00 | |
| HSKMA3-T | 2026-09-04 12:25:41 | 48.70559 | 10.21720 | 141° | 31km/h | 32336m | 6m/s | -39.4°C | 0% | 8.7hPa | 2.6V | 18:12:15 | 01:56:22 | 00:00:00 | |
| DF8AY | 2026-09-04 12:25:38 | 48.70573 | 10.21702 | 129° | 18km/h | 32316m | 5.5m/s | -39.3°C | 0% | 8.8hPa | 2.7V | 18:12:15 | 01:56:19 | 00:00:00 | |
| DL1XH-west | 2026-09-04 12:25:36 | 48.70579 | 10.21689 | 123° | 24km/h | 32305m | 7m/s | -39.4°C | 0% | 8.8hPa | 2.6V | 18:12:15 | 01:56:17 | 00:00:00 | |
| OM5KV | 2026-09-04 12:25:35 | 48.70579 | 10.21689 | 124° | 24km/h | 32305m | 7.0m/s | -39.4°C | 0.5% | 8.8hPa | 2.7V | 00:00:00 | 00:00:00 | 00:00:00 | |
| DL1XH1-15 | 2026-09-04 12:25:34 | 48.70594 | 10.21650 | 117° | 29km/h | 32280m | 6.8m/s | -39.7°C | 2.3% | 8.8hPa | 2.7V | 08:30:00 | 01:56:13 | 00:00:00 | |
| DK7TD | 2026-09-04 12:25:34 | 48.70586 | 10.21670 | 120° | 31km/h | 32292m | 5.8m/s | -39.6°C | 0% | 8.8hPa | 2.6V | 18:12:15 | 01:56:15 | 00:00:00 | |
| HSKMA3-T | 2026-09-04 12:25:30 | 48.70600 | 10.21633 | 125° | 24km/h | 32268m | 4.8m/s | -39.7°C | 0% | 8.8hPa | 2.6V | 18:12:15 | 01:56:11 | 00:00:00 | |
| DF8AY | 2026-09-04 12:25:28 | 48.70609 | 10.21618 | 138° | 27km/h | 32257m | 6.6m/s | -39.6°C | 0% | 8.8hPa | 2.6V | 18:12:15 | 01:56:09 | 00:00:00 | |
| DL1XH-west | 2026-09-04 12:25:26 | 48.70621 | 10.21603 | 143° | 35km/h | 32244m | 5.7m/s | -39.6°C | 0% | 8.9hPa | 2.7V | 18:12:15 | 01:56:07 | 00:00:00 | |
| IW2NTF | 2026-09-04 12:25:26 | 48.70640 | 10.21571 | 72° | 15km/h | 32215m | 6.7m/s | -39.7°C | 2.2% | 8.9hPa | 2.7V | 08:30:00 | 01:56:02 | 00:00:00 | |
| OE9MKV-15 | 2026-09-04 12:25:26 | 48.70621 | 10.21603 | 144° | 24km/h | 32244m | 5.6m/s | -39.5°C | 2.3% | 8.8hPa | 2.6V | 00:00:00 | 01:56:07 | 00:00:00 | |
| OM5KV | 2026-09-04 12:25:25 | 48.70621 | 10.21603 | 144° | 35km/h | 32244m | 5.7m/s | -39.6°C | 0.5% | 8.9hPa | 2.6V | 00:00:00 | 00:00:00 | 00:00:00 | |
| DM0DOS-11 | 2026-09-04 12:25:24 | 48.70640 | 10.21576 | 110° | 15km/h | 32222m | 7.6m/s | -39.7°C | 2.3% | 8.9hPa | 2.6V | 08:30:00 | 01:56:03 | 00:00:00 | |
| DK7TD | 2026-09-04 12:25:23 | 48.70638 | 10.21582 | 129° | 22km/h | 32229m | 5.8m/s | -39.7°C | 0% | 8.9hPa | 2.6V | 18:12:15 | 01:56:04 | 00:00:00 | |
| HSKMA3-T | 2026-09-04 12:25:19 | 48.70637 | 10.21559 | 67° | 20km/h | 32205m | 4.3m/s | -39.6°C | 0% | 8.9hPa | 2.7V | 18:12:15 | 01:56:00 | 00:00:00 | |
| DF8AY | 2026-09-04 12:25:18 | 48.70635 | 10.21552 | 84° | 22km/h | 32199m | 6m/s | -39.7°C | 0% | 8.9hPa | 2.6V | 18:12:15 | 01:55:59 | 00:00:00 | |
| OE5MMP-10 | 2026-09-04 12:25:18 | 48.70635 | 10.21552 | 84° | 26km/h | 32200m | 5.9m/s | -39.6°C | 2.2% | 8.9hPa | 2.6V | 00:00:00 | 01:55:59 | 08:30:00 | |
| OE5WHR-10 | 2026-09-04 12:25:17 | 48.70636 | 10.21542 | 104° | 24km/h | 32193m | 6.7m/s | -39.7°C | 2.2% | 8.9hPa | 2.6V | 00:00:00 | 00:00:00 | 00:00:00 | |
| IW2NTF | 2026-09-04 12:25:16 | 48.70664 | 10.21486 | 127° | 16km/h | 32156m | 5.8m/s | -40.3°C | 2.3% | 9hPa | 2.6V | 08:30:00 | 01:55:52 | 00:00:00 | |
| DL1XH-west | 2026-09-04 12:25:15 | 48.70643 | 10.21520 | 127° | 37km/h | 32180m | 5.8m/s | -39.9°C | 0% | 9hPa | 2.7V | 18:12:15 | 01:55:56 | 00:00:00 | |
| DK7TD | 2026-09-04 12:25:12 | 48.70660 | 10.21492 | 134° | 26km/h | 32162m | 6m/s | -40.2°C | 0% | 9hPa | 2.6V | 18:12:15 | 01:55:53 | 00:00:00 | |
| DF8AY | 2026-09-04 12:25:08 | 48.70666 | 10.21472 | 75° | 13km/h | 32138m | 6.6m/s | -40.5°C | 0% | 9hPa | 2.7V | 18:12:15 | 01:55:49 | 00:00:00 | |
| SONDE2-11 | 2026-09-04 12:25:08 | 48.70664 | 10.21467 | 66° | 15km/h | 32132m | 6.1m/s | -40.5°C | 0.6% | 9.0hPa | 2.7V | 00:00:00 | 00:00:00 | 00:00:00 | |
| SONCRA | 2026-09-04 12:25:07 | 48.70664 | 10.21467 | 66° | 15km/h | 32132m | 6.1m/s | -40.5°C | 0.6% | 9.0hPa | 2.7V | 00:00:00 | 00:00:00 | 00:00:00 | |
| OM5KV | 2026-09-04 12:25:06 | 48.70664 | 10.21467 | 68° | 15km/h | 32132m | 6.1m/s | -40.5°C | 0.6% | 9.0hPa | 2.7V | 00:00:00 | 00:00:00 | 00:00:00 | |
| DM7RM-13 | 2026-09-04 12:25:05 | 48.70663 | 10.21462 | 61° | 16km/h | 32126m | 5.6m/s | -40.4°C | 0.6% | 9.0hPa | 2.7V | 00:00:00 | 00:00:00 | 00:00:00 | |
| IW2NTF | 2026-09-04 12:25:04 | 48.70655 | 10.21427 | 95° | 27km/h | 32096m | 7.5m/s | -40.4°C | 2.3% | 9.1hPa | 2.7V | 08:30:00 | 01:55:42 | 00:00:00 | |
| DL1XH-west | 2026-09-04 12:25:04 | 48.70658 | 10.21451 | 57° | 18km/h | 32113m | 6.2m/s | -40.3°C | 0% | 9hPa | 2.6V | 18:12:15 | 01:55:45 | 00:00:00 | |
| DK7TD | 2026-09-04 12:25:02 | 48.70655 | 10.21436 | 85° | 24km/h | 32102m | 5.4m/s | -40.4°C | 0% | 9.1hPa | 2.7V | 18:12:15 | 01:55:43 | 00:00:00 | |
| HSKMA3-T | 2026-09-04 12:24:57 | 48.70662 | 10.21381 | 100° | 24km/h | 32075m | 6m/s | -40.7°C | 0% | 9.1hPa | 2.7V | 18:12:15 | 01:55:38 | 00:00:00 | |
| DF8AY | 2026-09-04 12:24:56 | 48.70662 | 10.21373 | 82° | 16km/h | 32068m | 7.4m/s | -40.8°C | 0% | 9.1hPa | 2.7V | 18:12:15 | 01:55:37 | 00:00:00 | |
| DL1XH-west | 2026-09-04 12:24:53 | 48.70635 | 10.21346 | 68° | 20km/h | 32016m | 7m/s | -41.2°C | 0% | 9.2hPa | 2.6V | 18:12:15 | 01:55:29 | 00:00:00 | |
| IW2NTF | 2026-09-04 12:24:53 | 48.70635 | 10.21346 | 67° | 20km/h | 32016m | 7m/s | -41.2°C | 2.4% | 9.2hPa | 2.6V | 08:30:00 | 01:55:29 | 00:00:00 | |
| DK7TD | 2026-09-04 12:24:51 | 48.70644 | 10.21363 | 28° | 18km/h | 32034m | 6.1m/s | -41.1°C | 0% | 9.2hPa | 2.7V | 18:12:15 | 01:55:32 | 00:00:00 | |
| HSKMA3-T | 2026-09-04 12:24:47 | 48.70633 | 10.21339 | 74° | 22km/h | 32010m | 6.3m/s | -41.2°C | 0% | 9.2hPa | 2.6V | 18:12:15 | 01:55:28 | 00:00:00 | |
| DF8AY | 2026-09-04 12:24:46 | 48.70632 | 10.21330 | 84° | 22km/h | 32004m | 5.7m/s | -41.3°C | 0% | 9.2hPa | 2.6V | 18:12:15 | 01:55:27 | 00:00:00 | |
| IW2NTF | 2026-09-04 12:24:43 | 48.70617 | 10.21265 | 15° | 27km/h | 31955m | 5.8m/s | -41.7°C | 2.5% | 9.3hPa | 2.7V | 08:30:00 | 01:55:19 | 00:00:00 | |
| DK7TD | 2026-09-04 12:24:40 | 48.70628 | 10.21274 | 50° | 22km/h | 31969m | 7.4m/s | -41.6°C | 0% | 9.2hPa | 2.6V | 18:12:15 | 01:55:21 | 00:00:00 | |
| DL1XH-west | 2026-09-04 12:24:39 | 48.70623 | 10.21269 | 27° | 24km/h | 31962m | 7.3m/s | -41.6°C | 0% | 9.3hPa | 2.7V | 18:12:15 | 01:55:20 | 00:00:00 | |
| AZAK | 2026-09-04 12:24:38 | 48.70617 | 10.21265 | 16° | 29km/h | 31956m | 5.8m/s | -41.7°C | 0.6% | 9.3hPa | 2.6V | 00:00:00 | 00:00:00 | 00:00:00 | |
| SONCRA | 2026-09-04 12:24:37 | 48.70603 | 10.21259 | 21° | 27km/h | 31945m | 6.0m/s | -41.7°C | 0.6% | 9.3hPa | 2.6V | 00:00:00 | 00:00:00 | 00:00:00 | |
| DL9SK-14 | 2026-09-04 12:24:36 | 48.70598 | 10.21254 | 35° | 24km/h | 31938m | 6.7m/s | -41.7°C | 0.6% | 9.3hPa | 2.6V | 00:00:00 | 00:00:00 | 00:00:00 | |
| HSKMA3-T | 2026-09-04 12:24:36 | 48.70603 | 10.21259 | 21° | 27km/h | 31945m | 6m/s | -41.7°C | 0% | 9.3hPa | 2.6V | 18:12:15 | 01:55:17 | 00:00:00 | |
| OE5WHR-10 | 2026-09-04 12:24:35 | 48.70597 | 10.21254 | 36° | 27km/h | 31938m | 6.7m/s | -41.6°C | 2.5% | 9.2hPa | 2.6V | 00:00:00 | 00:00:00 | 00:00:00 | |
| OM5KV | 2026-09-04 12:24:34 | 48.70597 | 10.21254 | 37° | 24km/h | 31938m | 6.7m/s | -41.7°C | 0.6% | 9.3hPa | 2.6V | 00:00:00 | 00:00:00 | 00:00:00 | |
| IW2NTF | 2026-09-04 12:24:33 | 48.70589 | 10.21201 | 88° | 24km/h | 31894m | 6.9m/s | -41.5°C | 2.5% | 9.4hPa | 2.6V | 08:30:00 | 01:55:09 | 00:00:00 | |
| DM0DOS-11 | 2026-09-04 12:24:33 | 48.70590 | 10.21233 | 80° | 22km/h | 31919m | 6.9m/s | -41.5°C | 2.5% | 9.3hPa | 2.7V | 08:30:00 | 01:55:13 | 00:00:00 | |
| DK7TD | 2026-09-04 12:24:30 | 48.70589 | 10.21217 | 89° | 20km/h | 31906m | 5.7m/s | -41.4°C | 0% | 9.4hPa | 2.6V | 18:12:15 | 01:55:11 | 00:00:00 | |
| DL1XH-west | 2026-09-04 12:24:29 | 48.70589 | 10.21209 | 89° | 22km/h | 31900m | 5.6m/s | -41.5°C | 0% | 9.3hPa | 2.6V | 18:12:15 | 01:55:10 | 00:00:00 | |
| HSKMA3-T | 2026-09-04 12:24:26 | 48.70587 | 10.21182 | 69° | 26km/h | 31881m | 5.3m/s | -41.7°C | 0% | 9.4hPa | 2.7V | 18:12:15 | 01:55:07 | 00:00:00 | |
| DF8AY | 2026-09-04 12:24:25 | 48.70584 | 10.21173 | 55° | 27km/h | 31876m | 5.7m/s | -41.7°C | 0% | 9.4hPa | 2.7V | 18:12:15 | 01:55:06 | 00:00:00 | |
| DB0NH | 2026-09-04 12:24:24 | 48.70579 | 10.21165 | 41° | 29km/h | 31870m | 7.3m/s | -41.6°C | 2.5% | 9.4hPa | 2.6V | 00:00:00 | 01:55:05 | 00:00:00 | |
| DM0DOS-11 | 2026-09-04 12:24:23 | 48.70566 | 10.21153 | 28° | 31km/h | 31857m | 4.6m/s | -42°C | 2.6% | 9.4hPa | 2.6V | 08:30:00 | 01:55:03 | 00:00:00 | |
| IW2NTF | 2026-09-04 12:24:22 | 48.70550 | 10.21103 | 98° | 35km/h | 31826m | 6.5m/s | -41.8°C | 2.6% | 9.5hPa | 2.6V | 08:30:00 | 01:54:58 | 00:00:00 | |
| DL1XH-west | 2026-09-04 12:24:19 | 48.70551 | 10.21128 | 72° | 31km/h | 31840m | 7.2m/s | -42°C | 0% | 9.4hPa | 2.7V | 18:12:15 | 01:55:00 | 00:00:00 | |
| HSKMA3-T | 2026-09-04 12:24:15 | 48.70554 | 10.21077 | 106° | 33km/h | 31813m | 6m/s | -41.7°C | 0% | 9.5hPa | 2.7V | 18:12:15 | 01:54:56 | 00:00:00 | |
| DF8AY | 2026-09-04 12:24:14 | 48.70556 | 10.21065 | 106° | 31km/h | 31807m | 5.4m/s | -41.7°C | 0% | 9.5hPa | 2.7V | 18:12:15 | 01:54:55 | 00:00:00 | |
| OE5WHR-10 | 2026-09-04 12:24:14 | 48.70556 | 10.21065 | 106° | 27km/h | 31808m | 5.3m/s | -41.6°C | 2.5% | 9.4hPa | 2.6V | 00:00:00 | 00:00:00 | 00:00:00 | |
| DM0DOS-11 | 2026-09-04 12:24:13 | 48.70559 | 10.21042 | 97° | 31km/h | 31795m | 7m/s | -41.7°C | 2.6% | 9.5hPa | 2.6V | 08:30:00 | 01:54:53 | 00:00:00 | |
| DK7TD | 2026-09-04 12:24:08 | 48.70553 | 10.20999 | 56° | 27km/h | 31772m | 6.5m/s | -41.6°C | 0% | 9.6hPa | 2.7V | 18:12:15 | 01:54:49 | 00:00:00 | |
| HSKMA3-T | 2026-09-04 12:24:04 | 48.70536 | 10.20973 | 56° | 22km/h | 31748m | 4.5m/s | -41.4°C | 0% | 9.6hPa | 2.6V | 18:12:15 | 01:54:45 | 00:00:00 | |
| NBG1-10 | 2026-09-04 12:24:04 | 48.70536 | 10.20973 | 56° | 24km/h | 31749m | 4.4m/s | -41.3°C | 2.5% | 9.5hPa | 2.7V | 00:00:00 | 01:54:45 | 00:00:00 | |
| DM0DOS-11 | 2026-09-04 12:24:03 | 48.70532 | 10.20955 | 89° | 31km/h | 31735m | 7.3m/s | -41.4°C | 2.4% | 9.6hPa | 2.7V | 08:30:00 | 01:54:43 | 00:00:00 | |
| OE5DRO-10 | 2026-09-04 12:24:03 | 48.70533 | 10.20966 | 74° | 26km/h | 31743m | 7.0m/s | -41.3°C | 2.4% | 9.5hPa | 2.7V | 00:00:00 | 00:00:00 | 00:00:00 | |
| IW2NTF | 2026-09-04 12:24:02 | 48.70538 | 10.20893 | 81° | 20km/h | 31707m | 6.8m/s | -41.5°C | 2.5% | 9.6hPa | 2.7V | 08:30:00 | 01:54:38 | 00:00:00 | |
| DL1XH-west | 2026-09-04 12:23:58 | 48.70538 | 10.20902 | 97° | 27km/h | 31714m | 6.1m/s | -41.6°C | 0% | 9.6hPa | 2.6V | 18:12:15 | 01:54:39 | 00:00:00 | |
| HSKMA3-T | 2026-09-04 12:23:54 | 48.70528 | 10.20881 | 19° | 22km/h | 31688m | 5.5m/s | -41.6°C | 0% | 9.7hPa | 2.6V | 18:12:15 | 01:54:35 | 00:00:00 | |
| DF8AY | 2026-09-04 12:23:51 | 48.70512 | 10.20865 | 51° | 29km/h | 31669m | 6m/s | -41.9°C | 0% | 9.7hPa | 2.7V | 18:12:15 | 01:54:32 | 00:00:00 | |
| DJ2DS-15 | 2026-09-04 12:23:51 | 48.70512 | 10.20865 | 51° | 24km/h | 31670m | 6.0m/s | -41.9°C | 2.5% | 9.6hPa | 2.6V | 00:00:00 | 01:54:32 | 00:00:00 | |
| DO3MHA-12 | 2026-09-04 12:23:50 | 48.70508 | 10.20856 | 60° | 24km/h | 31664m | 5.5m/s | -41.9°C | 2.5% | 9.6hPa | 2.6V | 00:00:00 | 01:54:31 | 00:00:00 | |
| OE5MMP-10 | 2026-09-04 12:23:48 | 48.70501 | 10.20836 | 68° | 20km/h | 31651m | 6.8m/s | -41.8°C | 2.5% | 9.7hPa | 2.6V | 00:00:00 | 01:54:29 | 08:30:00 | |
| IW2NTF | 2026-09-04 12:23:47 | 48.70495 | 10.20811 | 72° | 20km/h | 31633m | 5.7m/s | -41.7°C | 2.5% | 9.7hPa | 2.7V | 08:30:00 | 01:54:26 | 00:00:00 | |
| DK7TD | 2026-09-04 12:23:47 | 48.70499 | 10.20827 | 68° | 24km/h | 31644m | 6.2m/s | -41.8°C | 0% | 9.7hPa | 2.6V | 18:12:15 | 01:54:28 | 00:00:00 | |
| DL1ZP-14 | 2026-09-04 12:23:47 | 48.70497 | 10.20819 | 70° | 20km/h | 31639m | 5.8m/s | -41.8°C | 0.6% | 9.7hPa | 2.6V | 00:00:00 | 00:00:00 | 00:00:00 | |
| HSKMA3-T | 2026-09-04 12:23:43 | 48.70492 | 10.20795 | 77° | 22km/h | 31620m | 6.3m/s | -41.7°C | 0% | 9.8hPa | 2.7V | 18:12:15 | 01:54:24 | 00:00:00 | |
| DF8AY | 2026-09-04 12:23:40 | 48.70486 | 10.20775 | 46° | 16km/h | 31602m | 7.5m/s | -41.7°C | 0% | 9.8hPa | 2.6V | 18:12:15 | 01:54:21 | 00:00:00 | |
| DK7TD | 2026-09-04 12:23:37 | 48.70475 | 10.20769 | 13° | 20km/h | 31583m | 5.4m/s | -41.8°C | 0% | 9.8hPa | 2.7V | 18:12:15 | 01:54:18 | 00:00:00 | |
| DL1XH-west | 2026-09-04 12:23:36 | 48.70469 | 10.20766 | 21° | 24km/h | 31577m | 7m/s | -41.8°C | 0% | 9.8hPa | 2.6V | 18:12:15 | 01:54:17 | 00:00:00 | |
| HSKMA3-T | 2026-09-04 12:23:32 | 48.70448 | 10.20743 | 43° | 22km/h | 31552m | 7.1m/s | -41.6°C | 0% | 9.9hPa | 2.7V | 18:12:15 | 01:54:13 | 00:00:00 | |
| DF8AY | 2026-09-04 12:23:30 | 48.70442 | 10.20733 | 54° | 16km/h | 31539m | 5.8m/s | -41.7°C | 0% | 9.9hPa | 2.6V | 18:12:15 | 01:54:11 | 00:00:00 | |
| DJ8HS-15 | 2026-09-04 12:23:30 | 48.70442 | 10.20733 | 55° | 20km/h | 31539m | 5.7m/s | -41.7°C | 2.5% | 9.8hPa | 2.6V | 00:00:00 | 01:54:11 | 00:00:00 | |
| DK5PH-5 | 2026-09-04 12:23:29 | 48.70440 | 10.20728 | 64° | 22km/h | 31533m | 6.4m/s | -41.7°C | 2.5% | 9.8hPa | 2.6V | 00:00:00 | 01:54:10 | 00:00:00 | |
| OE5MMP-10 | 2026-09-04 12:23:28 | 48.70438 | 10.20722 | 71° | 18km/h | 31526m | 7.2m/s | -41.7°C | 2.5% | 9.8hPa | 2.7V | 00:00:00 | 01:54:09 | 00:00:00 | |
| IW2NTF | 2026-09-04 12:23:27 | 48.70433 | 10.20704 | 50° | 16km/h | 31508m | 6.3m/s | -41.8°C | 2.5% | 9.9hPa | 2.7V | 08:30:00 | 01:54:06 | 00:00:00 | |
| DK7TD | 2026-09-04 12:23:27 | 48.70437 | 10.20715 | 71° | 18km/h | 31519m | 5.6m/s | -41.7°C | 0% | 9.9hPa | 2.7V | 18:12:15 | 01:54:08 | 00:00:00 | |
| DL1XH-west | 2026-09-04 12:23:26 | 48.70435 | 10.20709 | 63° | 16km/h | 31514m | 5.2m/s | -41.7°C | 0% | 9.9hPa | 2.7V | 18:12:15 | 01:54:07 | 00:00:00 | |
| HSKMA3-T | 2026-09-04 12:23:21 | 48.70418 | 10.20696 | 18° | 20km/h | 31484m | 4.7m/s | -41.9°C | 0% | 10hPa | 2.7V | 18:12:15 | 01:54:02 | 00:00:00 | |
| DF8AY | 2026-09-04 12:23:19 | 48.70408 | 10.20687 | 47° | 27km/h | 31471m | 7.6m/s | -42°C | 0% | 10hPa | 2.6V | 18:12:15 | 01:54:00 | 00:00:00 | |
| DL1XH-west | 2026-09-04 12:23:16 | 48.70398 | 10.20655 | 74° | 31km/h | 31452m | 6.6m/s | -42°C | 0% | 10hPa | 2.7V | 18:12:15 | 01:53:57 | 00:00:00 | |
| BAUMI2-15 | 2026-09-04 12:23:16 | 48.70398 | 10.20655 | 75° | 22km/h | 31452m | 6.6m/s | -42.0°C | 2.6% | 9.9hPa | 2.7V | 00:00:00 | 01:53:57 | 00:00:00 | |
| DG9SBQ-11 | 2026-09-04 12:23:15 | 48.70398 | 10.20655 | 75° | 31km/h | 31452m | 6.6m/s | -42.0°C | 0.6% | 10.0hPa | 2.7V | 00:00:00 | 00:00:00 | 00:00:00 | |
| DL1XH1-15 | 2026-09-04 12:23:13 | 48.70393 | 10.20624 | 63° | 15km/h | 31425m | 6.9m/s | -41.9°C | 2.6% | 10.1hPa | 2.7V | 08:30:00 | 01:53:53 | 00:00:00 | |
| HSKMA3-T | 2026-09-04 12:23:10 | 48.70387 | 10.20615 | 28° | 18km/h | 31413m | 5.5m/s | -42°C | 0% | 10.1hPa | 2.6V | 18:12:15 | 01:53:51 | 00:00:00 | |
| DF8AY | 2026-09-04 12:23:08 | 48.70344 | 10.20538 | 64° | 15km/h | 31331m | 7.2m/s | -41.6°C | 0% | 10.2hPa | 2.6V | 18:12:15 | 01:53:38 | 00:00:00 | |
| OE5MMP-10 | 2026-09-04 12:23:08 | 48.70377 | 10.20611 | 5° | 26km/h | 31401m | 7.6m/s | -41.8°C | 2.6% | 10.0hPa | 2.7V | 00:00:00 | 01:53:49 | 00:00:00 | |
| DL1XH1-15 | 2026-09-04 12:23:08 | 48.70349 | 10.20581 | 73° | 33km/h | 31363m | 5.4m/s | -41.7°C | 2.5% | 10.2hPa | 2.6V | 08:30:00 | 01:53:43 | 00:00:00 | |
| DM0DOS-11 | 2026-09-04 12:23:06 | 48.70347 | 10.20569 | 79° | 31km/h | 31357m | 6.9m/s | -41.6°C | 2.5% | 10.1hPa | 2.7V | 08:30:00 | 01:53:42 | 00:00:00 | |
| DK7TD | 2026-09-04 12:23:06 | 48.70366 | 10.20610 | 12° | 22km/h | 31388m | 5.2m/s | -41.8°C | 0% | 10.1hPa | 2.6V | 18:12:15 | 01:53:47 | 00:00:00 | |
| DL1XH-west | 2026-09-04 12:23:05 | 48.70361 | 10.20607 | 30° | 24km/h | 31382m | 6m/s | -41.9°C | 0% | 10.1hPa | 2.7V | 18:12:15 | 01:53:46 | 00:00:00 | |
| HSKMA3-T | 2026-09-04 12:22:59 | 48.70346 | 10.20550 | 88° | 20km/h | 31343m | 6.1m/s | -41.7°C | 0% | 10.2hPa | 2.6V | 18:12:15 | 01:53:40 | 00:00:00 | |
| DK5PH-5 | 2026-09-04 12:22:59 | 48.70346 | 10.20550 | 88° | 22km/h | 31344m | 6.1m/s | -41.6°C | 2.5% | 10.1hPa | 2.6V | 00:00:00 | 01:53:40 | 00:00:00 | |
| NBG1-10 | 2026-09-04 12:22:58 | 48.70345 | 10.20543 | 79° | 22km/h | 31338m | 5.7m/s | -41.6°C | 2.5% | 10.1hPa | 2.6V | 00:00:00 | 01:53:39 | 00:00:00 | |
| DM0DOS-11 | 2026-09-04 12:22:56 | 48.70318 | 10.20528 | 11° | 20km/h | 31293m | 4.4m/s | -41.4°C | 2.5% | 10.2hPa | 2.6V | 08:30:00 | 01:53:32 | 00:00:00 | |
| DK7TD | 2026-09-04 12:22:55 | 48.70338 | 10.20531 | 22° | 18km/h | 31318m | 5.9m/s | -41.5°C | 0% | 10.2hPa | 2.7V | 18:12:15 | 01:53:36 | 00:00:00 | |
| DL1XH1-15 | 2026-09-04 12:22:54 | 48.70323 | 10.20528 | 358° | 22km/h | 31298m | 5.7m/s | -41.5°C | 2.5% | 10.2hPa | 2.6V | 08:30:00 | 01:53:33 | 00:00:00 | |
| HSKMA3-T | 2026-09-04 12:22:48 | 48.70304 | 10.20510 | 60° | 33km/h | 31275m | 7.3m/s | -41.4°C | 0% | 10.3hPa | 2.7V | 18:12:15 | 01:53:29 | 00:00:00 | |
| OE5MMP-10 | 2026-09-04 12:22:48 | 48.70304 | 10.20510 | 61° | 24km/h | 31275m | 7.3m/s | -41.4°C | 2.5% | 10.2hPa | 2.7V | 00:00:00 | 01:53:29 | 00:00:00 | |
| BAUMI2-15 | 2026-09-04 12:22:46 | 48.70297 | 10.20484 | 74° | 26km/h | 31264m | 4.3m/s | -41.6°C | 2.4% | 10.2hPa | 2.6V | 00:00:00 | 01:53:27 | 00:00:00 | |
| DM0DOS-11 | 2026-09-04 12:22:45 | 48.70287 | 10.20455 | 341° | 15km/h | 31234m | 6.4m/s | -41.9°C | 2.5% | 10.3hPa | 2.6V | 08:30:00 | 01:53:22 | 00:00:00 | |
| DK7TD | 2026-09-04 12:22:44 | 48.70294 | 10.20462 | 76° | 22km/h | 31253m | 6.4m/s | -41.8°C | 0% | 10.3hPa | 2.7V | 18:12:15 | 01:53:25 | 00:00:00 | |
| HSKMA3-T | 2026-09-04 12:22:37 | 48.70263 | 10.20455 | 21° | 29km/h | 31210m | 4.7m/s | -42.1°C | 0% | 10.4hPa | 2.7V | 18:12:15 | 01:53:18 | 00:00:00 | |
| DG9SBQ-11 | 2026-09-04 12:22:37 | 48.70263 | 10.20455 | 22° | 29km/h | 31211m | 4.7m/s | -42.1°C | 0.6% | 10.4hPa | 2.7V | 00:00:00 | 00:00:00 | 00:00:00 | |
| BAUMI2-15 | 2026-09-04 12:22:36 | 48.70257 | 10.20450 | 35° | 22km/h | 31206m | 5.1m/s | -42.0°C | 2.6% | 10.3hPa | 2.7V | 00:00:00 | 01:53:17 | 08:30:00 | |
| DM7RM-13 | 2026-09-04 12:22:35 | 48.70257 | 10.20450 | 36° | 27km/h | 31206m | 5.1m/s | -42.0°C | 0.7% | 10.4hPa | 2.7V | 00:00:00 | 00:00:00 | 00:00:00 | |
| DL1XH1-15 | 2026-09-04 12:22:34 | 48.70249 | 10.20422 | 100° | 20km/h | 31180m | 5.2m/s | -42.1°C | 2.5% | 10.4hPa | 2.7V | 08:30:00 | 01:53:13 | 00:00:00 | |
| DK7TD | 2026-09-04 12:22:34 | 48.70249 | 10.20437 | 70° | 20km/h | 31192m | 7.2m/s | -42.1°C | 0% | 10.4hPa | 2.6V | 18:12:15 | 01:53:15 | 00:00:00 | |
| DL1XH-west | 2026-09-04 12:22:33 | 48.70248 | 10.20429 | 91° | 20km/h | 31185m | 6.1m/s | -42.1°C | 0% | 10.4hPa | 2.6V | 18:12:15 | 01:53:14 | 00:00:00 | |
| DL9SK-14 | 2026-09-04 12:22:32 | 48.70249 | 10.20415 | 96° | 18km/h | 31175m | 4.8m/s | -42.2°C | 0.6% | 10.5hPa | 2.7V | 00:00:00 | 00:00:00 | 00:00:00 | |
| BAUMI2-15 | 2026-09-04 12:22:31 | 48.70249 | 10.20414 | 97° | 20km/h | 31175m | 4.8m/s | -42.2°C | 2.6% | 10.4hPa | 2.7V | 00:00:00 | 01:53:12 | 00:00:00 | |
| DO3MHA-12 | 2026-09-04 12:22:30 | 48.70249 | 10.20408 | 79° | 22km/h | 31169m | 6.3m/s | -42.2°C | 2.6% | 10.4hPa | 2.7V | 00:00:00 | 01:53:11 | 00:00:00 | |
| OE5WHR-10 | 2026-09-04 12:22:29 | 48.70247 | 10.20402 | 52° | 20km/h | 31163m | 6.4m/s | -42.3°C | 2.6% | 10.4hPa | 2.6V | 00:00:00 | 00:00:00 | 08:30:00 | |
| OE5MMP-10 | 2026-09-04 12:22:28 | 48.70243 | 10.20397 | 28° | 24km/h | 31156m | 6.7m/s | -42.4°C | 2.7% | 10.4hPa | 2.6V | 00:00:00 | 01:53:09 | 00:00:00 | |
| DM0DOS-11 | 2026-09-04 12:22:26 | 48.70207 | 10.20383 | 54° | 26km/h | 31113m | 6.5m/s | -42.4°C | 2.6% | 10.5hPa | 2.6V | 08:30:00 | 01:53:02 | 00:00:00 | |
| HSKMA3-T | 2026-09-04 12:22:26 | 48.70232 | 10.20394 | 0° | 24km/h | 31143m | 7.1m/s | -42.3°C | 0% | 10.5hPa | 2.7V | 18:12:15 | 01:53:07 | 00:00:00 | |
| DL1XH1-15 | 2026-09-04 12:22:24 | 48.70211 | 10.20390 | 36° | 22km/h | 31120m | 6.9m/s | -42.4°C | 2.6% | 10.5hPa | 2.6V | 08:30:00 | 01:53:03 | 00:00:00 | |
| DK7TD | 2026-09-04 12:22:24 | 48.70221 | 10.20394 | 1° | 20km/h | 31131m | 4.9m/s | -42.3°C | 0% | 10.5hPa | 2.7V | 18:12:15 | 01:53:05 | 00:00:00 | |
| DL1XH-west | 2026-09-04 12:22:22 | 48.70211 | 10.20390 | 36° | 22km/h | 31120m | 6.9m/s | -42.4°C | 0% | 10.5hPa | 2.6V | 18:12:15 | 01:53:03 | 00:00:00 | |
| BAUMI2-15 | 2026-09-04 12:22:21 | 48.70207 | 10.20383 | 55° | 29km/h | 31113m | 6.4m/s | -42.3°C | 2.6% | 10.5hPa | 2.6V | 00:00:00 | 01:53:02 | 00:00:00 | |
| DO3MHA-11 | 2026-09-04 12:22:20 | 48.70204 | 10.20374 | 69° | 24km/h | 31107m | 5.6m/s | -42.1°C | 2.6% | 10.5hPa | 2.7V | 00:00:00 | 01:53:01 | 00:00:00 | |
| OE5MMP-10 | 2026-09-04 12:22:18 | 48.70201 | 10.20351 | 87° | 18km/h | 31095m | 7.1m/s | -42.1°C | 2.5% | 10.5hPa | 2.7V | 00:00:00 | 01:52:59 | 08:30:00 | |
| DF7PN | 2026-09-04 12:22:17 | 48.70201 | 10.20341 | 92° | 26km/h | 31088m | 6.3m/s | -42.2°C | 0.6% | 10.6hPa | 2.6V | 00:00:00 | 00:00:00 | 00:00:00 | |
| DM0DOS-11 | 2026-09-04 12:22:16 | 48.70189 | 10.20307 | 2° | 15km/h | 31051m | 7.3m/s | -42.2°C | 2.6% | 10.6hPa | 2.6V | 08:30:00 | 01:52:52 | 00:00:00 | |
| HSKMA3-T | 2026-09-04 12:22:15 | 48.70200 | 10.20323 | 80° | 20km/h | 31076m | 6.6m/s | -42.2°C | 0% | 10.6hPa | 2.6V | 18:12:15 | 01:52:56 | 00:00:00 | |
| DL1XH1-15 | 2026-09-04 12:22:14 | 48.70192 | 10.20308 | 18° | 16km/h | 31057m | 5.6m/s | -42.1°C | 2.6% | 10.6hPa | 2.6V | 08:30:00 | 01:52:53 | 00:00:00 | |
| DK7TD | 2026-09-04 12:22:13 | 48.70196 | 10.20311 | 39° | 18km/h | 31063m | 5.5m/s | -42.1°C | 0% | 10.6hPa | 2.7V | 18:12:15 | 01:52:54 | 00:00:00 | |
| DL1XH-west | 2026-09-04 12:22:12 | 48.70192 | 10.20308 | 19° | 16km/h | 31057m | 5.6m/s | -42.2°C | 0% | 10.7hPa | 2.6V | 18:12:15 | 01:52:53 | 00:00:00 | |
| OE5DRO-10 | 2026-09-04 12:22:11 | 48.70188 | 10.20307 | 3° | 15km/h | 31051m | 7.3m/s | -42.2°C | 2.6% | 10.6hPa | 2.7V | 00:00:00 | 00:00:00 | 00:00:00 | |
| DJ2DS-15 | 2026-09-04 12:22:10 | 48.70185 | 10.20307 | 350° | 15km/h | 31044m | 6.6m/s | -42.2°C | 2.6% | 10.6hPa | 2.7V | 00:00:00 | 01:52:51 | 00:00:00 | |
| DG9SBQ-11 | 2026-09-04 12:22:09 | 48.70185 | 10.20307 | 350° | 13km/h | 31044m | 6.7m/s | -42.3°C | 0.6% | 10.6hPa | 2.7V | 00:00:00 | 00:00:00 | 00:00:00 | |
| EDDB2-11 | 2026-09-04 12:22:08 | 48.70176 | 10.20305 | 41° | 15km/h | 31026m | 6.9m/s | 0°C | -1.0% | -1.0hPa | 2.7V | 00:00:00 | 00:00:00 | 00:00:00 | |
| DM0DOS-11 | 2026-09-04 12:22:06 | 48.70171 | 10.20262 | 106° | 15km/h | 30990m | 4.9m/s | -42.1°C | 2.5% | 10.7hPa | 2.7V | 08:30:00 | 01:52:42 | 00:00:00 | |
| DL1XH1-15 | 2026-09-04 12:22:04 | 48.70170 | 10.20268 | 102° | 18km/h | 30995m | 5.8m/s | -42.1°C | 2.6% | 10.7hPa | 2.7V | 08:30:00 | 01:52:43 | 00:00:00 | |
| HSKMA3-T | 2026-09-04 12:22:04 | 48.70170 | 10.20284 | 81° | 24km/h | 31008m | 5.8m/s | -42.2°C | 0% | 10.7hPa | 2.6V | 18:12:15 | 01:52:45 | 00:00:00 | |
| DF8AY | 2026-09-04 12:22:03 | 48.70169 | 10.20275 | 92° | 22km/h | 31002m | 7.2m/s | -42.2°C | 0% | 10.7hPa | 2.6V | 18:12:15 | 01:52:44 | 00:00:00 | |
| DK7TD | 2026-09-04 12:22:02 | 48.70170 | 10.20268 | 102° | 18km/h | 30995m | 5.9m/s | -42.2°C | 0% | 10.7hPa | 2.7V | 18:12:15 | 01:52:43 | 00:00:00 | |
| DL1XH-west | 2026-09-04 12:22:01 | 48.70171 | 10.20262 | 107° | 15km/h | 30990m | 4.9m/s | -42.1°C | 0% | 10.7hPa | 2.7V | 18:12:15 | 01:52:42 | 00:00:00 | |
| DL9SK-14 | 2026-09-04 12:22:01 | 48.70172 | 10.20257 | 98° | 11km/h | 30985m | 5.0m/s | -42.2°C | 0.6% | 10.7hPa | 2.6V | 00:00:00 | 00:00:00 | 00:00:00 | |
| DO3MHA-12 | 2026-09-04 12:22:00 | 48.70172 | 10.20257 | 99° | 13km/h | 30985m | 5.0m/s | -42.1°C | 2.5% | 10.7hPa | 2.6V | 00:00:00 | 01:52:41 | 00:00:00 | |
| DO3MHA-11 | 2026-09-04 12:21:59 | 48.70171 | 10.20253 | 75° | 13km/h | 30980m | 6.4m/s | -42.2°C | 2.5% | 10.7hPa | 2.7V | 00:00:00 | 01:52:40 | 00:00:00 | |
| OE5MMP-10 | 2026-09-04 12:21:58 | 48.70170 | 10.20248 | 51° | 13km/h | 30973m | 6.8m/s | -42.3°C | 2.5% | 10.7hPa | 2.7V | 00:00:00 | 01:52:39 | 00:00:00 | |
| DN1GJH-1 | 2026-09-04 12:21:57 | 48.70170 | 10.20248 | 51° | 15km/h | 30973m | 6.8m/s | -42.3°C | 0.6% | 10.8hPa | 2.7V | 00:00:00 | 00:00:00 | 00:00:00 | |
| OE9MKV-15 | 2026-09-04 12:21:56 | 48.70163 | 10.20240 | 34° | 11km/h | 30960m | 5.4m/s | -42.2°C | 2.5% | 10.8hPa | 2.7V | 00:00:00 | 01:52:37 | 00:00:00 | |
| DM0DOS-11 | 2026-09-04 12:21:55 | 48.70154 | 10.20225 | 76° | 9km/h | 30929m | 6.9m/s | -42.5°C | 2.6% | 10.8hPa | 2.7V | 08:30:00 | 01:52:32 | 00:00:00 | |
| DL1XH1-15 | 2026-09-04 12:21:54 | 48.70154 | 10.20228 | 75° | 7km/h | 30935m | 5.7m/s | -42.4°C | 2.6% | 10.8hPa | 2.6V | 08:30:00 | 01:52:33 | 00:00:00 | |
| HSKMA3-T | 2026-09-04 12:21:54 | 48.70157 | 10.20233 | 37° | 11km/h | 30948m | 7m/s | -42.3°C | 0% | 10.8hPa | 2.6V | 18:12:15 | 01:52:35 | 00:00:00 | |
| DK7TD | 2026-09-04 12:21:52 | 48.70154 | 10.20228 | 76° | 7km/h | 30935m | 5.7m/s | -42.4°C | 0% | 10.8hPa | 2.6V | 18:12:15 | 01:52:33 | 00:00:00 | |
| DL1XH-west | 2026-09-04 12:21:51 | 48.70154 | 10.20225 | 77° | 9km/h | 30929m | 6.9m/s | -42.5°C | 0% | 10.8hPa | 2.7V | 18:12:15 | 01:52:32 | 00:00:00 | |
| DJ2DS-15 | 2026-09-04 12:21:48 | 48.70152 | 10.20212 | 88° | 11km/h | 30911m | 5.6m/s | -42.3°C | 0.6% | 10.9hPa | 2.6V | 00:00:00 | 00:00:00 | 00:00:00 | |
| DB0ND-19 | 2026-09-04 12:21:47 | 48.70152 | 10.20208 | 99° | 11km/h | 30905m | 7.2m/s | -42.4°C | 0.6% | 10.9hPa | 2.6V | 00:00:00 | 00:00:00 | 00:00:00 | |
| DF7PN | 2026-09-04 12:21:46 | 48.70153 | 10.20204 | 109° | 9km/h | 30898m | 6.3m/s | -42.5°C | 0.6% | 10.9hPa | 2.6V | 00:00:00 | 00:00:00 | 00:00:00 | |
| DM0DOS-11 | 2026-09-04 12:21:45 | 48.70147 | 10.20185 | 43° | 15km/h | 30868m | 4.7m/s | -42.8°C | 2.5% | 10.9hPa | 2.6V | 08:30:00 | 01:52:22 | 00:00:00 | |
| DL1XH1-15 | 2026-09-04 12:21:44 | 48.70150 | 10.20189 | 44° | 15km/h | 30873m | 4.8m/s | -42.7°C | 2.5% | 10.9hPa | 2.6V | 08:30:00 | 01:52:23 | 00:00:00 | |
| HSKMA3-T | 2026-09-04 12:21:43 | 48.70152 | 10.20193 | 56° | 13km/h | 30879m | 6.6m/s | -42.7°C | 0% | 10.9hPa | 2.7V | 18:12:15 | 01:52:24 | 00:00:00 | |
| IW2NTF | 2026-09-04 12:21:43 | 48.70143 | 10.20176 | 93° | 7km/h | 30850m | 5.9m/s | -43°C | 2.6% | 11hPa | 2.7V | 08:30:00 | 01:52:19 | 00:00:00 | |
| DF8AY | 2026-09-04 12:21:42 | 48.70150 | 10.20189 | 44° | 15km/h | 30873m | 4.8m/s | -42.7°C | 0% | 10.9hPa | 2.6V | 18:12:15 | 01:52:23 | 00:00:00 | |
| DK7TD | 2026-09-04 12:21:41 | 48.70147 | 10.20185 | 43° | 15km/h | 30868m | 4.7m/s | -42.8°C | 0% | 10.9hPa | 2.6V | 18:12:15 | 01:52:22 | 00:00:00 | |
| DL1XH-west | 2026-09-04 12:21:40 | 48.70145 | 10.20182 | 48° | 11km/h | 30863m | 6.5m/s | -42.9°C | 0% | 10.9hPa | 2.6V | 18:12:15 | 01:52:21 | 00:00:00 | |
| DO3MHA-12 | 2026-09-04 12:21:40 | 48.70145 | 10.20182 | 48° | 9km/h | 30863m | 6.5m/s | -42.8°C | 2.5% | 10.9hPa | 2.6V | 00:00:00 | 01:52:21 | 00:00:00 | |
| OE5MMP-10 | 2026-09-04 12:21:38 | 48.70143 | 10.20176 | 94° | 9km/h | 30850m | 5.9m/s | -42.9°C | 2.6% | 10.9hPa | 2.6V | 00:00:00 | 01:52:19 | 00:00:00 | |
| DF8AY-15 | 2026-09-04 12:21:37 | 48.70143 | 10.20173 | 107° | 15km/h | 30845m | 5.3m/s | 0°C | 0% | 0hPa | 2.6V | 00:00:00 | 01:52:18 | 00:00:00 | |
| DF1GD-15 | 2026-09-04 12:21:36 | 48.70143 | 10.20173 | 107° | 7km/h | 30845m | 5.3m/s | -42.9°C | 0.7% | 11.0hPa | 2.6V | 00:00:00 | 00:00:00 | 00:00:00 | |
| DM0DOS-11 | 2026-09-04 12:21:35 | 48.70142 | 10.20150 | 103° | 7km/h | 30808m | 6.7m/s | -42.9°C | 2.6% | 11hPa | 2.6V | 08:30:00 | 01:52:12 | 00:00:00 | |
| DL1XH1-15 | 2026-09-04 12:21:34 | 48.70142 | 10.20154 | 84° | 9km/h | 30815m | 6.7m/s | -42.9°C | 2.6% | 11hPa | 2.7V | 08:30:00 | 01:52:13 | 00:00:00 | |
| HSKMA3-T | 2026-09-04 12:21:32 | 48.70142 | 10.20154 | 84° | 9km/h | 30815m | 6.7m/s | -42.9°C | 0% | 11hPa | 2.7V | 18:12:15 | 01:52:13 | 00:00:00 | |
| DK7TD | 2026-09-04 12:21:31 | 48.70142 | 10.20150 | 104° | 7km/h | 30808m | 6.7m/s | -42.9°C | 0% | 11hPa | 2.6V | 18:12:15 | 01:52:12 | 00:00:00 | |
| DL1XH-west | 2026-09-04 12:21:30 | 48.70143 | 10.20146 | 99° | 5km/h | 30797m | 5.1m/s | -43°C | 0% | 11hPa | 2.7V | 18:12:15 | 01:52:10 | 00:00:00 | |
| DK5PH-5 | 2026-09-04 12:21:29 | 48.70143 | 10.20146 | 99° | 22km/h | 30797m | 5.0m/s | -42.9°C | 2.6% | 11.0hPa | 2.6V | 00:00:00 | 01:52:10 | 00:00:00 | |
| OE5MMP-10 | 2026-09-04 12:21:28 | 48.70143 | 10.20143 | 72° | 18km/h | 30791m | 6.8m/s | -43.0°C | 2.6% | 11.0hPa | 2.6V | 00:00:00 | 01:52:09 | 00:00:00 | |
| DF3TZ-5 | 2026-09-04 12:21:27 | 48.70142 | 10.20140 | 60° | 11km/h | 30784m | 6.7m/s | -43.1°C | 0.6% | 11.1hPa | 2.6V | 00:00:00 | 00:00:00 | 00:00:00 | |
| OE5WHR-10 | 2026-09-04 12:21:26 | 48.70140 | 10.20135 | 61° | 22km/h | 30778m | 5.4m/s | -43.2°C | 2.6% | 11.0hPa | 2.6V | 00:00:00 | 00:00:00 | 00:00:00 | |
| DM0DOS-11 | 2026-09-04 12:21:25 | 48.70139 | 10.20099 | 95° | 24km/h | 30748m | 6.5m/s | -43.2°C | 2.6% | 11.2hPa | 2.7V | 08:30:00 | 01:52:02 | 00:00:00 | |
| DL1XH1-15 | 2026-09-04 12:21:24 | 48.70138 | 10.20107 | 98° | 22km/h | 30754m | 5.6m/s | -43.2°C | 2.6% | 11.1hPa | 2.6V | 08:30:00 | 01:52:03 | 00:00:00 | |
| HSKMA3-T | 2026-09-04 12:21:21 | 48.70138 | 10.20099 | 96° | 24km/h | 30748m | 6.5m/s | -43.2°C | 0% | 11.2hPa | 2.7V | 18:12:15 | 01:52:02 | 00:00:00 | |
| DK7TD | 2026-09-04 12:21:20 | 48.70139 | 10.20089 | 91° | 26km/h | 30741m | 7.1m/s | -43.3°C | 0% | 11.2hPa | 2.7V | 18:12:15 | 01:52:01 | 00:00:00 | |
| DF8AY | 2026-09-04 12:21:19 | 48.70140 | 10.20041 | 114° | 11km/h | 30706m | 5m/s | -43.9°C | 0% | 11.2hPa | 2.7V | 18:12:15 | 01:51:55 | 00:00:00 | |
| DL1XH-west | 2026-09-04 12:21:18 | 48.70138 | 10.20069 | 86° | 26km/h | 30729m | 5.1m/s | -43.6°C | 0% | 11.2hPa | 2.6V | 18:12:15 | 01:51:59 | 00:00:00 | |
| OE5MMP-10 | 2026-09-04 12:21:18 | 48.70138 | 10.20069 | 86° | 18km/h | 30729m | 5.0m/s | -43.5°C | 2.7% | 11.1hPa | 2.6V | 00:00:00 | 01:51:59 | 00:00:00 | |
| DB0ND-19 | 2026-09-04 12:21:16 | 48.70140 | 10.20041 | 114° | 9km/h | 30706m | 5.0m/s | -43.9°C | 0.7% | 11.2hPa | 2.6V | 00:00:00 | 00:00:00 | 00:00:00 | |
| DM0DOS-11 | 2026-09-04 12:21:15 | 48.70138 | 10.20029 | 50° | 18km/h | 30688m | 6.9m/s | -44.2°C | 2.8% | 11.2hPa | 2.6V | 08:30:00 | 01:51:52 | 00:00:00 | |
| HSKMA3-T | 2026-09-04 12:21:10 | 48.70134 | 10.20023 | 47° | 26km/h | 30682m | 6.1m/s | -44.3°C | 0% | 11.2hPa | 2.7V | 18:12:15 | 01:51:51 | 00:00:00 | |
| DK7TD | 2026-09-04 12:21:09 | 48.70130 | 10.20015 | 50° | 29km/h | 30676m | 5.3m/s | -44.3°C | 0% | 11.2hPa | 2.7V | 18:12:15 | 01:51:50 | 00:00:00 | |
| DF8AY | 2026-09-04 12:21:08 | 48.70125 | 10.20006 | 56° | 29km/h | 30671m | 5.5m/s | -44.2°C | 0% | 11.2hPa | 2.7V | 18:12:15 | 01:51:49 | 00:00:00 | |
| DL1XH-west | 2026-09-04 12:21:08 | 48.70121 | 10.19996 | 64° | 29km/h | 30665m | 6.7m/s | -44.1°C | 0% | 11.3hPa | 2.6V | 18:12:15 | 01:51:48 | 00:00:00 | |
| HSKMA3-T | 2026-09-04 12:20:59 | 48.70108 | 10.19916 | 65° | 22km/h | 30618m | 7.2m/s | -44.1°C | 0% | 11.3hPa | 2.6V | 18:12:15 | 01:51:40 | 00:00:00 | |
| DK7TD | 2026-09-04 12:20:59 | 48.70106 | 10.19909 | 64° | 18km/h | 30611m | 6.3m/s | -44.2°C | 0% | 11.3hPa | 2.7V | 18:12:15 | 01:51:39 | 00:00:00 | |
| DF8AY | 2026-09-04 12:20:58 | 48.70104 | 10.19903 | 64° | 18km/h | 30606m | 5.8m/s | -44.3°C | 0% | 11.4hPa | 2.7V | 18:12:15 | 01:51:38 | 00:00:00 | |
| DL1XH-west | 2026-09-04 12:20:57 | 48.70102 | 10.19896 | 63° | 22km/h | 30599m | 6.5m/s | -44.3°C | 0% | 11.4hPa | 2.7V | 18:12:15 | 01:51:37 | 00:00:00 | |
| DM0DOS-11 | 2026-09-04 12:20:56 | 48.70092 | 10.19848 | 94° | 24km/h | 30568m | 6.7m/s | -44.4°C | 2.9% | 11.4hPa | 2.7V | 08:30:00 | 01:51:32 | 00:00:00 | |
| HSKMA3-T | 2026-09-04 12:20:49 | 48.70094 | 10.19831 | 100° | 22km/h | 30557m | 5.7m/s | -44.5°C | 0% | 11.4hPa | 2.6V | 18:12:15 | 01:51:30 | 00:00:00 | |
| DK7TD | 2026-09-04 12:20:48 | 48.70095 | 10.19823 | 91° | 20km/h | 30551m | 6.7m/s | -44.5°C | 0% | 11.5hPa | 2.7V | 18:12:15 | 01:51:29 | 00:00:00 | |
| OE5MMP-10 | 2026-09-04 12:20:48 | 48.70095 | 10.19823 | 92° | 22km/h | 30551m | 6.7m/s | -44.4°C | 2.9% | 11.4hPa | 2.7V | 00:00:00 | 01:51:29 | 08:30:00 | |
| DL1XH1-15 | 2026-09-04 12:20:47 | 48.70082 | 10.19792 | 39° | 22km/h | 30514m | 6.1m/s | -44.6°C | 2.9% | 11.5hPa | 2.6V | 08:30:00 | 01:51:23 | 00:00:00 | |
| DF8AY | 2026-09-04 12:20:46 | 48.70093 | 10.19810 | 65° | 16km/h | 30539m | 5.2m/s | -44.5°C | 0% | 11.5hPa | 2.6V | 18:12:15 | 01:51:27 | 00:00:00 | |
| DL1XH-west | 2026-09-04 12:20:45 | 48.70091 | 10.19804 | 56° | 15km/h | 30533m | 7.1m/s | -44.5°C | 0% | 11.5hPa | 2.6V | 18:12:15 | 01:51:26 | 00:00:00 | |
| DB0ND-19 | 2026-09-04 12:20:45 | 48.70091 | 10.19804 | 56° | 15km/h | 30533m | 7.1m/s | -44.5°C | 0.7% | 11.5hPa | 2.7V | 00:00:00 | 00:00:00 | 00:00:00 | |
| DK7TD | 2026-09-04 12:20:38 | 48.70062 | 10.19759 | 59° | 27km/h | 30492m | 6m/s | -44.5°C | 0% | 11.6hPa | 2.7V | 18:12:15 | 01:51:19 | 00:00:00 | |
| DF8AY | 2026-09-04 12:20:36 | 48.70058 | 10.19744 | 78° | 15km/h | 30478m | 6.5m/s | -44.4°C | 0% | 11.6hPa | 2.6V | 18:12:15 | 01:51:17 | 00:00:00 | |
| DL1XH-west | 2026-09-04 12:20:34 | 48.70058 | 10.19736 | 104° | 7km/h | 30466m | 5.8m/s | -44.5°C | 0% | 11.6hPa | 2.6V | 18:12:15 | 01:51:15 | 00:00:00 | |
| DL1XH1-15 | 2026-09-04 12:20:34 | 48.70058 | 10.19731 | 53° | 9km/h | 30454m | 5.8m/s | -44.5°C | 2.9% | 11.7hPa | 2.7V | 08:30:00 | 01:51:13 | 00:00:00 | |
| HSKMA3-T | 2026-09-04 12:20:28 | 48.70048 | 10.19722 | 25° | 11km/h | 30431m | 6m/s | -44.3°C | 0% | 11.7hPa | 2.6V | 18:12:15 | 01:51:09 | 00:00:00 | |
| DL1XH1-15 | 2026-09-04 12:20:28 | 48.70031 | 10.19688 | 60° | 24km/h | 30395m | 5.1m/s | -44.1°C | 2.9% | 11.8hPa | 2.6V | 08:30:00 | 01:51:03 | 00:00:00 | |
| DK7TD | 2026-09-04 12:20:27 | 48.70045 | 10.19720 | 35° | 11km/h | 30425m | 5.3m/s | -44.3°C | 0% | 11.7hPa | 2.7V | 18:12:15 | 01:51:08 | 00:00:00 | |
| DF8AY | 2026-09-04 12:20:25 | 48.70040 | 10.19712 | 53° | 20km/h | 30413m | 7m/s | -44.3°C | 0% | 11.7hPa | 2.7V | 18:12:15 | 01:51:06 | 00:00:00 | |
| DL1XH-west | 2026-09-04 12:20:23 | 48.70034 | 10.19697 | 60° | 27km/h | 30400m | 5.3m/s | -44.2°C | 0% | 11.7hPa | 2.6V | 18:12:15 | 01:51:04 | 00:00:00 | |
| DK7TD | 2026-09-04 12:20:17 | 48.70016 | 10.19668 | 19° | 16km/h | 30364m | 6.9m/s | -44.1°C | 0% | 11.8hPa | 2.6V | 18:12:15 | 01:50:58 | 00:00:00 | |
| DF8AY | 2026-09-04 12:20:15 | 48.70007 | 10.19664 | 16° | 20km/h | 30353m | 5.3m/s | -44.2°C | 0% | 11.8hPa | 2.7V | 18:12:15 | 01:50:56 | 00:00:00 | |
| DL1XH-west | 2026-09-04 12:20:12 | 48.69993 | 10.19657 | 28° | 18km/h | 30334m | 4.8m/s | -44.1°C | 0% | 11.9hPa | 2.6V | 18:12:15 | 01:50:53 | 00:00:00 | |
| DM0DOS-11 | 2026-09-04 12:20:12 | 48.69989 | 10.19653 | 39° | 22km/h | 30329m | 5.2m/s | -44.2°C | 2.8% | 11.9hPa | 2.7V | 08:30:00 | 01:50:52 | 00:00:00 | |
| DK7TD | 2026-09-04 12:20:07 | 48.69972 | 10.19620 | 61° | 27km/h | 30305m | 4.9m/s | -44.1°C | 0% | 11.9hPa | 2.7V | 18:12:15 | 01:50:48 | 00:00:00 | |
| DM0DOS-11 | 2026-09-04 12:20:06 | 48.69956 | 10.19598 | 13° | 18km/h | 30269m | 6.5m/s | -44.1°C | 2.8% | 12hPa | 2.7V | 08:30:00 | 01:50:42 | 00:00:00 | |
| DF8AY | 2026-09-04 12:20:05 | 48.69967 | 10.19605 | 60° | 15km/h | 30293m | 6.3m/s | -44.2°C | 0% | 11.9hPa | 2.6V | 18:12:15 | 01:50:46 | 00:00:00 | |
| DL1XH-west | 2026-09-04 12:20:01 | 48.69956 | 10.19598 | 13° | 18km/h | 30269m | 6.5m/s | -44.1°C | 0% | 12hPa | 2.7V | 18:12:15 | 01:50:42 | 00:00:00 | |
| HSKMA3-T | 2026-09-04 12:19:57 | 48.69936 | 10.19585 | 32° | 20km/h | 30244m | 6.7m/s | -44.3°C | 0% | 12hPa | 2.6V | 18:12:15 | 01:50:38 | 00:00:00 | |
| DK7TD | 2026-09-04 12:19:56 | 48.69932 | 10.19580 | 37° | 18km/h | 30238m | 6m/s | -44.4°C | 0% | 12.1hPa | 2.7V | 18:12:15 | 01:50:37 | 00:00:00 | |
| OE9MKV-15 | 2026-09-04 12:19:56 | 48.69932 | 10.19580 | 37° | 16km/h | 30238m | 5.9m/s | -44.3°C | 2.9% | 12.0hPa | 2.6V | 00:00:00 | 01:50:37 | 00:00:00 | |
| DM0DOS-11 | 2026-09-04 12:19:55 | 48.69912 | 10.19561 | 22° | 16km/h | 30207m | 6.2m/s | -44.1°C | 2.8% | 12.1hPa | 2.6V | 08:30:00 | 01:50:32 | 00:00:00 | |
| DF8AY | 2026-09-04 12:19:54 | 48.69924 | 10.19572 | 36° | 20km/h | 30225m | 7.2m/s | -44.2°C | 0% | 12.1hPa | 2.7V | 18:12:15 | 01:50:35 | 00:00:00 | |
| DL1XH-west | 2026-09-04 12:19:50 | 48.69908 | 10.19559 | 19° | 11km/h | 30201m | 7m/s | -44.1°C | 0% | 12.1hPa | 2.7V | 18:12:15 | 01:50:31 | 00:00:00 | |
| DK7TD | 2026-09-04 12:19:46 | 48.69895 | 10.19553 | 23° | 22km/h | 30176m | 6.9m/s | -44.3°C | 0% | 12.2hPa | 2.6V | 18:12:15 | 01:50:27 | 00:00:00 | |
| DF8AY | 2026-09-04 12:19:43 | 48.69878 | 10.19540 | 31° | 24km/h | 30158m | 6.1m/s | -44.1°C | 0% | 12.2hPa | 2.7V | 18:12:15 | 01:50:24 | 00:00:00 | |
| DL1XH-west | 2026-09-04 12:19:40 | 48.69868 | 10.19529 | 32° | 11km/h | 30140m | 5.1m/s | -44.3°C | 0% | 12.2hPa | 2.7V | 18:12:15 | 01:50:21 | 00:00:00 | |
| DK7TD | 2026-09-04 12:19:36 | 48.69856 | 10.19524 | 6° | 18km/h | 30116m | 5.5m/s | -44.3°C | 0% | 12.3hPa | 2.7V | 18:12:15 | 01:50:17 | 00:00:00 | |
| DF8AY | 2026-09-04 12:19:33 | 48.69844 | 10.19523 | 4° | 11km/h | 30098m | 7m/s | -44.4°C | 0% | 12.3hPa | 2.6V | 18:12:15 | 01:50:14 | 00:00:00 | |
| DM0DOS-11 | 2026-09-04 12:19:32 | 48.69840 | 10.19521 | 35° | 5km/h | 30085m | 6m/s | -44.4°C | 2.8% | 12.3hPa | 2.7V | 08:30:00 | 01:50:12 | 00:00:00 | |
| DL1XH-west | 2026-09-04 12:19:30 | 48.69839 | 10.19519 | 44° | 9km/h | 30079m | 6.6m/s | -44.4°C | 0% | 12.3hPa | 2.7V | 18:12:15 | 01:50:11 | 00:00:00 | |
| DO3MHA-12 | 2026-09-04 12:19:30 | 48.69839 | 10.19519 | 44° | 9km/h | 30079m | 6.5m/s | -44.4°C | 2.8% | 12.3hPa | 2.7V | 00:00:00 | 01:50:11 | 00:00:00 | |
| DG9SBQ-11 | 2026-09-04 12:19:29 | 48.69837 | 10.19517 | 43° | 13km/h | 30073m | 7.1m/s | -44.4°C | 0.7% | 12.4hPa | 2.6V | 00:00:00 | 00:00:00 | 00:00:00 | |
| OE5MMP-10 | 2026-09-04 12:19:28 | 48.69834 | 10.19514 | 37° | 7km/h | 30066m | 5.4m/s | -44.4°C | 2.9% | 12.3hPa | 2.6V | 00:00:00 | 01:50:09 | 00:00:00 | |
| DL1XH1-15 | 2026-09-04 12:19:27 | 48.69830 | 10.19515 | 240° | 7km/h | 30030m | 6.1m/s | -44.6°C | 3% | 12.4hPa | 2.6V | 08:30:00 | 01:50:03 | 00:00:00 | |
| HSKMA3-T | 2026-09-04 12:19:26 | 48.69829 | 10.19509 | 22° | 7km/h | 30055m | 6.6m/s | -44.6°C | 0% | 12.4hPa | 2.6V | 18:12:15 | 01:50:07 | 00:00:00 | |
| DK7TD | 2026-09-04 12:19:25 | 48.69828 | 10.19509 | 329° | 4km/h | 30048m | 7.2m/s | -44.6°C | 0% | 12.4hPa | 2.7V | 18:12:15 | 01:50:06 | 00:00:00 | |
| DF8AY | 2026-09-04 12:19:23 | 48.69829 | 10.19512 | 234° | 9km/h | 30036m | 5.5m/s | -44.7°C | 0% | 12.4hPa | 2.7V | 18:12:15 | 01:50:04 | 00:00:00 | |
| DL1XH-west | 2026-09-04 12:19:20 | 48.69830 | 10.19517 | 3° | 2km/h | 30017m | 6m/s | -44.6°C | 0% | 12.5hPa | 2.6V | 18:12:15 | 01:50:01 | 00:00:00 | |
| HSKMA3-T | 2026-09-04 12:19:16 | 48.69827 | 10.19512 | 30° | 5km/h | 29993m | 5.5m/s | -44.7°C | 0% | 12.5hPa | 2.6V | 18:12:15 | 01:49:57 | 00:00:00 | |
| DK7TD | 2026-09-04 12:19:14 | 48.69822 | 10.19510 | 12° | 13km/h | 29983m | 5.6m/s | -44.7°C | 0% | 12.5hPa | 2.6V | 18:12:15 | 01:49:55 | 00:00:00 | |
| DF8AY | 2026-09-04 12:19:12 | 48.69813 | 10.19506 | 18° | 22km/h | 29969m | 6.9m/s | -44.8°C | 0% | 12.6hPa | 2.7V | 18:12:15 | 01:49:53 | 00:00:00 | |
| DL1XH1-15 | 2026-09-04 12:19:12 | 48.69814 | 10.19506 | 17° | 22km/h | 29969m | 6.9m/s | -44.8°C | 2.9% | 12.6hPa | 2.7V | 08:30:00 | 01:49:53 | 00:00:00 | |
| DL1XH-west | 2026-09-04 12:19:10 | 48.69803 | 10.19500 | 26° | 20km/h | 29957m | 5.1m/s | -44.6°C | 0% | 12.6hPa | 2.6V | 18:12:15 | 01:49:51 | 00:00:00 | |
| DJ8HS-15 | 2026-09-04 12:19:10 | 48.69803 | 10.19500 | 26° | 15km/h | 29958m | 5.1m/s | -44.6°C | 2.9% | 12.5hPa | 2.6V | 00:00:00 | 01:49:51 | 08:30:00 | |
| BAUMI2-15 | 2026-09-04 12:19:09 | 48.69799 | 10.19497 | 28° | 5km/h | 29952m | 6.3m/s | -44.5°C | 2.9% | 12.5hPa | 2.6V | 00:00:00 | 01:49:50 | 00:00:00 | |
| OE5MMP-10 | 2026-09-04 12:19:08 | 48.69797 | 10.19495 | 30° | 11km/h | 29945m | 7.2m/s | -44.6°C | 2.9% | 12.5hPa | 2.6V | 00:00:00 | 01:49:49 | 00:00:00 | |
| DL1XH1-15 | 2026-09-04 12:19:07 | 48.69792 | 10.19488 | 34° | 18km/h | 29909m | 5.5m/s | -44.7°C | 3% | 12.7hPa | 2.6V | 08:30:00 | 01:49:43 | 00:00:00 | |
| NBG1-10 | 2026-09-04 12:19:07 | 48.69797 | 10.19495 | 178° | 15km/h | 29939m | 5.6m/s | -44.5°C | 2.9% | 12.6hPa | 2.6V | 00:00:00 | 01:49:48 | 00:00:00 | |
| DG9SBQ-11 | 2026-09-04 12:19:06 | 48.69797 | 10.19495 | 0° | 0km/h | 29939m | 5.6m/s | -44.6°C | 0.7% | 12.6hPa | 2.6V | 00:00:00 | 00:00:00 | 00:00:00 | |
| DM0DOS-11 | 2026-09-04 12:19:05 | 48.69788 | 10.19484 | 34° | 20km/h | 29902m | 6.6m/s | -44.6°C | 2.9% | 12.7hPa | 2.6V | 08:30:00 | 01:49:42 | 00:00:00 | |
| HSKMA3-T | 2026-09-04 12:19:05 | 48.69797 | 10.19495 | 103° | 2km/h | 29927m | 6.4m/s | -44.6°C | 0% | 12.7hPa | 2.7V | 18:12:15 | 01:49:46 | 00:00:00 | |
| DK7TD | 2026-09-04 12:19:03 | 48.69795 | 10.19492 | 37° | 13km/h | 29914m | 5.9m/s | -44.7°C | 0% | 12.6hPa | 2.6V | 18:12:15 | 01:49:44 | 00:00:00 | |
| DF8AY | 2026-09-04 12:19:02 | 48.69792 | 10.19488 | 35° | 18km/h | 29909m | 5.5m/s | -44.7°C | 0% | 12.7hPa | 2.6V | 18:12:15 | 01:49:43 | 00:00:00 | |
| DL1XH-west | 2026-09-04 12:18:59 | 48.69779 | 10.19476 | 31° | 20km/h | 29889m | 6.5m/s | -44.5°C | 0% | 12.7hPa | 2.7V | 18:12:15 | 01:49:40 | 00:00:00 | |
| HARRO8 | 2026-09-04 12:18:58 | 48.69744 | 10.19467 | 302° | 9km/h | 29839m | 6.4m/s | -44.6°C | 0.8% | 12.8hPa | 2.7V | 00:00:00 | 00:00:00 | 00:00:00 | |
| DL1XH1-15 | 2026-09-04 12:18:57 | 48.69746 | 10.19464 | 334° | 13km/h | 29846m | 7.5m/s | -44.6°C | 2.9% | 12.8hPa | 2.7V | 08:30:00 | 01:49:33 | 00:00:00 | |
| DO9HM | 2026-09-04 12:18:56 | 48.69770 | 10.19469 | 22° | 20km/h | 29877m | 5.9m/s | -44.6°C | 0.7% | 12.7hPa | 2.6V | 00:00:00 | 00:00:00 | 00:00:00 | |
| DM0DOS-11 | 2026-09-04 12:18:55 | 48.69744 | 10.19467 | 302° | 11km/h | 29839m | 6.4m/s | -44.6°C | 3% | 12.8hPa | 2.6V | 08:30:00 | 01:49:32 | 00:00:00 | |
| HSKMA3-T | 2026-09-04 12:18:55 | 48.69760 | 10.19464 | 14° | 24km/h | 29864m | 6.2m/s | -44.5°C | 0% | 12.7hPa | 2.6V | 18:12:15 | 01:49:36 | 00:00:00 | |
| DK7TD | 2026-09-04 12:18:53 | 48.69750 | 10.19463 | 354° | 16km/h | 29853m | 5.9m/s | -44.6°C | 0% | 12.7hPa | 2.7V | 18:12:15 | 01:49:34 | 00:00:00 | |
| DF8AY | 2026-09-04 12:18:51 | 48.69744 | 10.19467 | 302° | 11km/h | 29839m | 6.4m/s | -44.6°C | 0% | 12.8hPa | 2.6V | 18:12:15 | 01:49:32 | 00:00:00 | |
| DL1XH-west | 2026-09-04 12:18:49 | 48.69740 | 10.19477 | 324° | 13km/h | 29822m | 6.9m/s | -44.5°C | 0% | 12.8hPa | 2.7V | 18:12:15 | 01:49:29 | 00:00:00 | |
| OE5MMP-10 | 2026-09-04 12:18:48 | 48.69740 | 10.19477 | 325° | 16km/h | 29822m | 6.8m/s | -44.4°C | 2.9% | 12.8hPa | 2.7V | 00:00:00 | 01:49:29 | 00:00:00 | |
| DL1XH1-15 | 2026-09-04 12:18:47 | 48.69712 | 10.19488 | 343° | 16km/h | 29784m | 5.7m/s | -44.4°C | 2.9% | 12.9hPa | 2.7V | 08:30:00 | 01:49:23 | 00:00:00 | |
| DF8AY | 2026-09-04 12:18:45 | 48.69704 | 10.19490 | 358° | 13km/h | 29773m | 7m/s | -44.5°C | 0% | 12.9hPa | 2.6V | 18:12:15 | 01:49:21 | 00:00:00 | |
| HSKMA3-T | 2026-09-04 12:18:44 | 48.69721 | 10.19484 | 348° | 20km/h | 29797m | 6.9m/s | -44.6°C | 0% | 12.9hPa | 2.6V | 18:12:15 | 01:49:25 | 00:00:00 | |
| DK7TD | 2026-09-04 12:18:43 | 48.69716 | 10.19486 | 344° | 18km/h | 29791m | 6.3m/s | -44.5°C | 0% | 12.9hPa | 2.6V | 18:12:15 | 01:49:24 | 00:00:00 | |
| DM0DOS-11 | 2026-09-04 12:18:42 | 48.69708 | 10.19489 | 348° | 15km/h | 29779m | 5.6m/s | -44.4°C | 2.9% | 12.9hPa | 2.7V | 08:30:00 | 01:49:22 | 00:00:00 | |
| DL1XH-west | 2026-09-04 12:18:38 | 48.69698 | 10.19489 | 8° | 11km/h | 29760m | 5.4m/s | -44.4°C | 0% | 13hPa | 2.7V | 18:12:15 | 01:49:19 | 00:00:00 | |
| OE5MMP-10 | 2026-09-04 12:18:38 | 48.69698 | 10.19489 | 9° | 9km/h | 29760m | 5.4m/s | -44.3°C | 2.9% | 12.9hPa | 2.7V | 00:00:00 | 01:49:19 | 00:00:00 | |
| DL1XH1-15 | 2026-09-04 12:18:37 | 48.69692 | 10.19499 | 348° | 5km/h | 29723m | 7.3m/s | -44.3°C | 2.9% | 13hPa | 2.7V | 08:30:00 | 01:49:13 | 00:00:00 | |
| BAUMI2-15 | 2026-09-04 12:18:36 | 48.69694 | 10.19490 | 317° | 7km/h | 29748m | 7.3m/s | -44.3°C | 2.9% | 12.9hPa | 2.7V | 00:00:00 | 01:49:17 | 00:00:00 | |
| DM0DOS-11 | 2026-09-04 12:18:35 | 48.69690 | 10.19498 | 23° | 11km/h | 29716m | 6.6m/s | -44.3°C | 2.9% | 13hPa | 2.7V | 08:30:00 | 01:49:12 | 00:00:00 | |
| HSKMA3-T | 2026-09-04 12:18:33 | 48.69693 | 10.19497 | 297° | 5km/h | 29730m | 5.4m/s | -44.3°C | 0% | 13hPa | 2.7V | 18:12:15 | 01:49:14 | 00:00:00 | |
| DK7TD | 2026-09-04 12:18:32 | 48.69692 | 10.19499 | 348° | 5km/h | 29723m | 7.3m/s | -44.3°C | 0% | 13hPa | 2.7V | 18:12:15 | 01:49:13 | 00:00:00 | |
| DF8AY | 2026-09-04 12:18:30 | 48.69687 | 10.19496 | 30° | 16km/h | 29710m | 5.8m/s | -44.4°C | 0% | 13.1hPa | 2.6V | 18:12:15 | 01:49:11 | 00:00:00 | |
| DO3MHA-12 | 2026-09-04 12:18:30 | 48.69686 | 10.19496 | 31° | 9km/h | 29710m | 5.8m/s | -44.3°C | 2.9% | 13.0hPa | 2.6V | 00:00:00 | 01:49:11 | 08:30:00 | |
| DK5PH-5 | 2026-09-04 12:18:29 | 48.69683 | 10.19492 | 32° | 13km/h | 29705m | 5.9m/s | -44.3°C | 2.9% | 13.0hPa | 2.6V | 00:00:00 | 01:49:10 | 00:00:00 | |
| DO3MHA-11 | 2026-09-04 12:18:28 | 48.69680 | 10.19490 | 27° | 7km/h | 29698m | 7.2m/s | -44.1°C | 2.9% | 13.0hPa | 2.6V | 00:00:00 | 01:49:09 | 00:00:00 | |
| DL1XH1-15 | 2026-09-04 12:18:27 | 48.69668 | 10.19486 | 14° | 7km/h | 29659m | 5.3m/s | -44°C | 2.9% | 13.1hPa | 2.6V | 08:30:00 | 01:49:03 | 00:00:00 | |
| DL1XH-west | 2026-09-04 12:18:27 | 48.69677 | 10.19488 | 16° | 11km/h | 29691m | 6.4m/s | -44.2°C | 0% | 13.1hPa | 2.7V | 18:12:15 | 01:49:08 | 00:00:00 | |
| HARRO8 | 2026-09-04 12:18:27 | 48.69674 | 10.19487 | 1° | 7km/h | 29685m | 6.2m/s | -44.2°C | 0.7% | 13.1hPa | 2.7V | 00:00:00 | 00:00:00 | 00:00:00 | |
| DG9SBQ-11 | 2026-09-04 12:18:26 | 48.69674 | 10.19487 | 3° | 7km/h | 29685m | 6.2m/s | -44.2°C | 0.7% | 13.1hPa | 2.7V | 00:00:00 | 00:00:00 | 00:00:00 | |
| PETON7-10 | 2026-09-04 12:18:25 | 48.69673 | 10.19487 | 359° | 11km/h | 29679m | 5.4m/s | -44.2°C | 2.9% | 13.1hPa | 2.7V | 00:00:00 | 01:49:06 | 00:00:00 | |
| OE5DRO-10 | 2026-09-04 12:18:24 | 48.69669 | 10.19486 | 22° | 11km/h | 29666m | 6.7m/s | -44.0°C | 2.9% | 13.1hPa | 2.7V | 00:00:00 | 00:00:00 | 00:00:00 | |
| DM0DOS-11 | 2026-09-04 12:18:23 | 48.69666 | 10.19485 | 356° | 5km/h | 29653m | 6.3m/s | -44.1°C | 2.9% | 13.1hPa | 2.7V | 08:30:00 | 01:49:02 | 00:00:00 | |
| DK7TD | 2026-09-04 12:18:22 | 48.69668 | 10.19486 | 15° | 7km/h | 29659m | 5.3m/s | -44.1°C | 0% | 13.1hPa | 2.6V | 18:12:15 | 01:49:03 | 00:00:00 | |
| DF8AY | 2026-09-04 12:18:19 | 48.69663 | 10.19487 | 323° | 7km/h | 29640m | 6.1m/s | -44°C | 0% | 13.2hPa | 2.7V | 18:12:15 | 01:49:00 | 00:00:00 | |
| DL1XH-west | 2026-09-04 12:18:17 | 48.69658 | 10.19490 | 359° | 13km/h | 29627m | 7.5m/s | -43.9°C | 0% | 13.2hPa | 2.6V | 18:12:15 | 01:48:58 | 00:00:00 | |
| OE5WHR-10 | 2026-09-04 12:18:17 | 48.69658 | 10.19490 | 359° | 15km/h | 29627m | 7.5m/s | -43.8°C | 2.8% | 13.1hPa | 2.6V | 00:00:00 | 00:00:00 | 00:00:00 | |
| BAUMI2-15 | 2026-09-04 12:18:16 | 48.69655 | 10.19489 | 12° | 16km/h | 29620m | 6.5m/s | -43.9°C | 2.8% | 13.2hPa | 2.6V | 00:00:00 | 01:48:57 | 08:30:00 | |
| DM0DOS-11 | 2026-09-04 12:18:15 | 48.69636 | 10.19486 | 337° | 11km/h | 29588m | 5.6m/s | -43.9°C | 2.8% | 13.3hPa | 2.7V | 08:30:00 | 01:48:52 | 00:00:00 | |
| DK7TD | 2026-09-04 12:18:12 | 48.69639 | 10.19485 | 350° | 13km/h | 29595m | 6.4m/s | -43.9°C | 0% | 13.3hPa | 2.6V | 18:12:15 | 01:48:53 | 00:00:00 | |
| HSKMA3-T | 2026-09-04 12:18:11 | 48.69636 | 10.19486 | 338° | 11km/h | 29588m | 5.6m/s | -43.9°C | 0% | 13.3hPa | 2.7V | 18:12:15 | 01:48:52 | 00:00:00 | |
| DF8AY | 2026-09-04 12:18:09 | 48.69631 | 10.19489 | 353° | 11km/h | 29576m | 7.2m/s | -44°C | 0% | 13.3hPa | 2.6V | 18:12:15 | 01:48:50 | 00:00:00 | |
| DL1XH-west | 2026-09-04 12:18:07 | 48.69625 | 10.19488 | 6° | 13km/h | 29564m | 5.3m/s | -43.8°C | 0% | 13.3hPa | 2.6V | 18:12:15 | 01:48:48 | 00:00:00 | |
| AZAK | 2026-09-04 12:18:06 | 48.69625 | 10.19488 | 6° | 13km/h | 29564m | 5.3m/s | -43.8°C | 0.7% | 13.4hPa | 2.7V | 00:00:00 | 00:00:00 | 00:00:00 | |
| DL1ZP-14 | 2026-09-04 12:18:05 | 48.69620 | 10.19489 | 338° | 9km/h | 29551m | 7.2m/s | -43.8°C | 0.7% | 13.4hPa | 2.7V | 00:00:00 | 00:00:00 | 00:00:00 | |
| OE5DRO-10 | 2026-09-04 12:18:04 | 48.69617 | 10.19491 | 329° | 16km/h | 29545m | 6.0m/s | -43.8°C | 2.8% | 13.3hPa | 2.7V | 00:00:00 | 00:00:00 | 08:30:00 | |
| DM0DOS-11 | 2026-09-04 12:18:02 | 48.69605 | 10.19497 | 354° | 22km/h | 29525m | 7.2m/s | -44°C | 2.8% | 13.4hPa | 2.6V | 08:30:00 | 01:48:42 | 00:00:00 | |
| HSKMA3-T | 2026-09-04 12:18:01 | 48.69605 | 10.19497 | 355° | 22km/h | 29526m | 7.2m/s | -44°C | 0% | 13.4hPa | 2.6V | 18:12:15 | 01:48:42 | 00:00:00 | |
| DF8AY | 2026-09-04 12:17:58 | 48.69588 | 10.19497 | 358° | 22km/h | 29506m | 7.4m/s | -43.9°C | 0% | 13.5hPa | 2.7V | 18:12:15 | 01:48:39 | 00:00:00 | |
| DL1XH-west | 2026-09-04 12:17:57 | 48.69579 | 10.19499 | 346° | 13km/h | 29493m | 5.6m/s | -43.9°C | 0% | 13.5hPa | 2.6V | 18:12:15 | 01:48:37 | 00:00:00 | |
| HARRO8 | 2026-09-04 12:17:56 | 48.69576 | 10.19500 | 352° | 9km/h | 29488m | 5.7m/s | -43.9°C | 0.7% | 13.5hPa | 2.6V | 00:00:00 | 00:00:00 | 00:00:00 | |
| DM0DOS-11 | 2026-09-04 12:17:55 | 48.69564 | 10.19495 | 14° | 15km/h | 29462m | 6.2m/s | -44°C | 2.9% | 13.6hPa | 2.6V | 08:30:00 | 01:48:32 | 00:00:00 | |
| HSKMA3-T | 2026-09-04 12:17:51 | 48.69564 | 10.19495 | 14° | 15km/h | 29462m | 6.2m/s | -44°C | 0% | 13.6hPa | 2.6V | 18:12:15 | 01:48:32 | 00:00:00 | |
| DL1XH-west | 2026-09-04 12:17:46 | 48.69544 | 10.19499 | 0° | 20km/h | 29428m | 6.9m/s | -43.6°C | 0% | 13.6hPa | 2.7V | 18:12:15 | 01:48:27 | 00:00:00 | |
| OM5KV | 2026-09-04 12:17:46 | 48.69549 | 10.19498 | 352° | 18km/h | 29436m | 7.3m/s | -43.7°C | 0.7% | 13.6hPa | 2.7V | 00:00:00 | 00:00:00 | 00:00:00 | |
| OE5DRO-10 | 2026-09-04 12:17:45 | 48.69540 | 10.19498 | 6° | 15km/h | 29423m | 5.6m/s | -43.5°C | 2.8% | 13.6hPa | 2.7V | 00:00:00 | 00:00:00 | 00:00:00 | |
| DM0DOS-11 | 2026-09-04 12:17:42 | 48.69529 | 10.19497 | 27° | 4km/h | 29396m | 6.2m/s | -43.3°C | 2.8% | 13.7hPa | 2.7V | 08:30:00 | 01:48:22 | 00:00:00 | |
| DK7TD | 2026-09-04 12:17:41 | 48.69528 | 10.19497 | 28° | 4km/h | 29396m | 6.2m/s | -43.3°C | 0% | 13.7hPa | 2.7V | 18:12:15 | 01:48:22 | 00:00:00 | |
| HSKMA3-T | 2026-09-04 12:17:40 | 48.69528 | 10.19496 | 58° | 5km/h | 29390m | 7.2m/s | -43.3°C | 0% | 13.8hPa | 2.7V | 18:12:15 | 01:48:21 | 00:00:00 | |
| DO3MHA-12 | 2026-09-04 12:17:40 | 48.69528 | 10.19496 | 58° | 15km/h | 29390m | 7.1m/s | -43.2°C | 2.8% | 13.7hPa | 2.6V | 00:00:00 | 01:48:21 | 00:00:00 | |
| DB0ND-19 | 2026-09-04 12:17:39 | 48.69525 | 10.19491 | 45° | 11km/h | 29377m | 5.2m/s | -43.3°C | 0.7% | 13.7hPa | 2.6V | 00:00:00 | 00:00:00 | 00:00:00 | |
| OE5MMP-10 | 2026-09-04 12:17:38 | 48.69525 | 10.19491 | 46° | 16km/h | 29377m | 5.2m/s | -43.2°C | 2.7% | 13.7hPa | 2.6V | 00:00:00 | 01:48:19 | 00:00:00 | |
| DL1XH1-15 | 2026-09-04 12:17:37 | 48.69503 | 10.19490 | 359° | 22km/h | 29338m | 7.3m/s | -43.1°C | 2.7% | 13.8hPa | 2.6V | 08:30:00 | 01:48:13 | 00:00:00 | |
| DL1XH-west | 2026-09-04 12:17:36 | 48.69520 | 10.19486 | 14° | 11km/h | 29364m | 7.6m/s | -43.4°C | 0% | 13.8hPa | 2.6V | 18:12:15 | 01:48:17 | 00:00:00 | |
| DF8AY | 2026-09-04 12:17:35 | 48.69513 | 10.19487 | 345° | 16km/h | 29351m | 6m/s | -43.2°C | 0% | 13.8hPa | 2.7V | 18:12:15 | 01:48:15 | 00:00:00 | |
| HSKMA3-T | 2026-09-04 12:17:30 | 48.69492 | 10.19487 | 19° | 22km/h | 29325m | 5.1m/s | -43.3°C | 0% | 13.8hPa | 2.6V | 18:12:15 | 01:48:11 | 00:00:00 | |
| DJ2DS-15 | 2026-09-04 12:17:30 | 48.69492 | 10.19487 | 19° | 13km/h | 29326m | 5.0m/s | -43.2°C | 2.8% | 13.8hPa | 2.6V | 00:00:00 | 01:48:11 | 00:00:00 | |
| DK5PH-5 | 2026-09-04 12:17:29 | 48.69487 | 10.19484 | 22° | 11km/h | 29320m | 5.9m/s | -43.1°C | 2.8% | 13.8hPa | 2.7V | 00:00:00 | 01:48:10 | 08:30:00 | |
| NBG1-10 | 2026-09-04 12:17:28 | 48.69484 | 10.19482 | 21° | 11km/h | 29314m | 7.1m/s | -43.0°C | 2.8% | 13.8hPa | 2.6V | 00:00:00 | 01:48:09 | 00:00:00 | |
| DL1XH1-15 | 2026-09-04 12:17:27 | 48.69472 | 10.19472 | 22° | 11km/h | 29275m | 5.5m/s | -43.3°C | 2.8% | 13.9hPa | 2.6V | 08:30:00 | 01:48:03 | 00:00:00 | |
| DL1XH-west | 2026-09-04 12:17:26 | 48.69479 | 10.19480 | 20° | 7km/h | 29300m | 5.9m/s | -43.2°C | 0% | 13.9hPa | 2.6V | 18:12:15 | 01:48:07 | 00:00:00 | |
| DF8AY | 2026-09-04 12:17:24 | 48.69476 | 10.19477 | 44° | 9km/h | 29287m | 7m/s | -43.4°C | 0% | 13.9hPa | 2.7V | 18:12:15 | 01:48:05 | 00:00:00 | |
| HSKMA3-T | 2026-09-04 12:17:19 | 48.69464 | 10.19474 | 338° | 15km/h | 29255m | 5.5m/s | -43.1°C | 0% | 14hPa | 2.7V | 18:12:15 | 01:48:00 | 00:00:00 | |
| OE5MMP-10 | 2026-09-04 12:17:18 | 48.69460 | 10.19475 | 347° | 13km/h | 29250m | 5.6m/s | -43.0°C | 2.7% | 14.0hPa | 2.7V | 00:00:00 | 01:47:59 | 00:00:00 | |
| DL1XH1-15 | 2026-09-04 12:17:17 | 48.69439 | 10.19465 | 39° | 7km/h | 29210m | 5.7m/s | -43°C | 2.8% | 14.1hPa | 2.7V | 08:30:00 | 01:47:53 | 00:00:00 | |
| DL1XH-west | 2026-09-04 12:17:16 | 48.69448 | 10.19473 | 26° | 18km/h | 29230m | 6.1m/s | -43°C | 0% | 14hPa | 2.6V | 18:12:15 | 01:47:56 | 00:00:00 | |
| DF8AY | 2026-09-04 12:17:12 | 48.69439 | 10.19465 | 40° | 7km/h | 29210m | 5.7m/s | -43°C | 0% | 14.1hPa | 2.7V | 18:12:15 | 01:47:53 | 00:00:00 | |
| DK7TD | 2026-09-04 12:17:09 | 48.69436 | 10.19458 | 57° | 11km/h | 29191m | 6.5m/s | -43.1°C | 0% | 14.2hPa | 2.6V | 18:12:15 | 01:47:50 | 00:00:00 | |
| DF8AY-15 | 2026-09-04 12:17:09 | 48.69436 | 10.19458 | 57° | 13km/h | 29191m | 6.5m/s | 0°C | 0% | 0hPa | 2.7V | 00:00:00 | 01:47:50 | 00:00:00 | |
| DB0ND-19 | 2026-09-04 12:17:08 | 48.69432 | 10.19452 | 21° | 11km/h | 29179m | 6.0m/s | -43.1°C | 0.7% | 14.1hPa | 2.7V | 00:00:00 | 00:00:00 | 00:00:00 | |
| OE5DRO-10 | 2026-09-04 12:17:07 | 48.69432 | 10.19452 | 22° | 11km/h | 29180m | 5.9m/s | -43.1°C | 2.8% | 14.1hPa | 2.7V | 00:00:00 | 00:00:00 | 00:00:00 | |
| DL1XH1-15 | 2026-09-04 12:17:06 | 48.69417 | 10.19457 | 8° | 11km/h | 29148m | 7.2m/s | -42.9°C | 2.7% | 14.2hPa | 2.6V | 08:30:00 | 01:47:43 | 00:00:00 | |
| DL1XH-west | 2026-09-04 12:17:05 | 48.69426 | 10.19453 | 339° | 13km/h | 29165m | 6.3m/s | -42.9°C | 0% | 14.2hPa | 2.6V | 18:12:15 | 01:47:46 | 00:00:00 | |
| DG9SBQ-11 | 2026-09-04 12:17:05 | 48.69429 | 10.19451 | 1° | 11km/h | 29173m | 7.7m/s | -43.0°C | 0.7% | 14.2hPa | 2.6V | 00:00:00 | 00:00:00 | 00:00:00 | |
| DM0DOS-11 | 2026-09-04 12:17:02 | 48.69415 | 10.19455 | 42° | 11km/h | 29141m | 6.6m/s | -42.9°C | 2.7% | 14.2hPa | 2.6V | 08:30:00 | 01:47:42 | 00:00:00 | |
| DF8AY | 2026-09-04 12:17:02 | 48.69417 | 10.19457 | 9° | 11km/h | 29148m | 7.2m/s | -42.9°C | 0% | 14.2hPa | 2.6V | 18:12:15 | 01:47:43 | 00:00:00 | |
| DK7TD | 2026-09-04 12:16:59 | 48.69412 | 10.19446 | 93° | 13km/h | 29129m | 6.4m/s | -42.9°C | 0% | 14.2hPa | 2.7V | 18:12:15 | 01:47:40 | 00:00:00 | |
| HSKMA3-T | 2026-09-04 12:16:58 | 48.69413 | 10.19442 | 110° | 11km/h | 29122m | 7.3m/s | -42.7°C | 0% | 14.3hPa | 2.7V | 18:12:15 | 01:47:39 | 00:00:00 | |
| DL1XH-west | 2026-09-04 12:16:55 | 48.69416 | 10.19433 | 110° | 5km/h | 29104m | 6.4m/s | -42.5°C | 0% | 14.3hPa | 2.6V | 18:12:15 | 01:47:36 | 00:00:00 | |
| DM0DOS-11 | 2026-09-04 12:16:55 | 48.69410 | 10.19427 | 0° | 11km/h | 29081m | 5.5m/s | -42.6°C | 2.7% | 14.3hPa | 2.7V | 08:30:00 | 01:47:32 | 00:00:00 | |
| DF8AY | 2026-09-04 12:16:50 | 48.69407 | 10.19427 | 338° | 9km/h | 29075m | 6.7m/s | -42.7°C | 0% | 14.4hPa | 2.6V | 18:12:15 | 01:47:31 | 00:00:00 | |
| DK7TD | 2026-09-04 12:16:49 | 48.69406 | 10.19429 | 297° | 5km/h | 29068m | 6.5m/s | -42.8°C | 0% | 14.4hPa | 2.6V | 18:12:15 | 01:47:30 | 00:00:00 | |
| HSKMA3-T | 2026-09-04 12:16:47 | 48.69407 | 10.19431 | 175° | 4km/h | 29056m | 6m/s | -42.6°C | 0% | 14.4hPa | 2.7V | 18:12:15 | 01:47:28 | 00:00:00 | |
| DL1XH-west | 2026-09-04 12:16:44 | 48.69409 | 10.19425 | 81° | 7km/h | 29038m | 5.7m/s | -42.5°C | 0% | 14.5hPa | 2.6V | 18:12:15 | 01:47:25 | 00:00:00 | |
| DG9SBQ-11 | 2026-09-04 12:16:43 | 48.69408 | 10.19425 | 82° | 7km/h | 29038m | 5.7m/s | -42.5°C | 0.7% | 14.5hPa | 2.7V | 00:00:00 | 00:00:00 | 00:00:00 | |
| DM0DOS-11 | 2026-09-04 12:16:42 | 48.69407 | 10.19419 | 85° | 4km/h | 29019m | 5.9m/s | -42.4°C | 2.6% | 14.5hPa | 2.7V | 08:30:00 | 01:47:22 | 00:00:00 | |
| DF8AY | 2026-09-04 12:16:39 | 48.69408 | 10.19417 | 120° | 5km/h | 29008m | 5.7m/s | -42.3°C | 0% | 14.5hPa | 2.6V | 18:12:15 | 01:47:20 | 00:00:00 | |
| DK7TD | 2026-09-04 12:16:38 | 48.69409 | 10.19414 | 103° | 7km/h | 29002m | 5.7m/s | -42.3°C | 0% | 14.5hPa | 2.6V | 18:12:15 | 01:47:19 | 00:00:00 | |
| DG9SBQ-11 | 2026-09-04 12:16:37 | 48.69408 | 10.19414 | 104° | 7km/h | 29003m | 5.7m/s | -42.3°C | 0.7% | 14.5hPa | 2.6V | 00:00:00 | 00:00:00 | 00:00:00 | |
| DL1XH1-15 | 2026-09-04 12:16:36 | 48.69404 | 10.19407 | 242° | 7km/h | 28967m | 5.8m/s | -42.4°C | 2.6% | 14.6hPa | 2.6V | 08:30:00 | 01:47:13 | 00:00:00 | |
| HSKMA3-T | 2026-09-04 12:16:36 | 48.69408 | 10.19408 | 60° | 9km/h | 28990m | 5.8m/s | -42.3°C | 0% | 14.6hPa | 2.7V | 18:12:15 | 01:47:17 | 00:00:00 | |
| DL1XH-west | 2026-09-04 12:16:34 | 48.69405 | 10.19405 | 3° | 5km/h | 28979m | 5.8m/s | -42.3°C | 0% | 14.6hPa | 2.7V | 18:12:15 | 01:47:15 | 00:00:00 | |
| DF8AY | 2026-09-04 12:16:29 | 48.69411 | 10.19411 | 164° | 11km/h | 28950m | 6m/s | -42.6°C | 0% | 14.6hPa | 2.7V | 18:12:15 | 01:47:10 | 00:00:00 | |
| IW2NTF | 2026-09-04 12:16:29 | 48.69413 | 10.19407 | 88° | 7km/h | 28937m | 6m/s | -42.7°C | 2.7% | 14.6hPa | 2.6V | 08:30:00 | 01:47:08 | 00:00:00 | |
| DK7TD | 2026-09-04 12:16:28 | 48.69413 | 10.19409 | 132° | 9km/h | 28944m | 6.1m/s | -42.7°C | 0% | 14.7hPa | 2.6V | 18:12:15 | 01:47:09 | 00:00:00 | |
| OE5MMP-10 | 2026-09-04 12:16:28 | 48.69413 | 10.19409 | 132° | 7km/h | 28944m | 6.0m/s | -42.6°C | 2.7% | 14.6hPa | 2.6V | 00:00:00 | 01:47:09 | 00:00:00 | |
| DL1XH1-15 | 2026-09-04 12:16:27 | 48.69405 | 10.19408 | 303° | 9km/h | 28908m | 5.7m/s | -42.6°C | 2.7% | 14.7hPa | 2.6V | 08:30:00 | 01:47:03 | 00:00:00 | |
| HSKMA3-T | 2026-09-04 12:16:26 | 48.69413 | 10.19404 | 41° | 7km/h | 28932m | 5.8m/s | -42.7°C | 0% | 14.7hPa | 2.7V | 18:12:15 | 01:47:07 | 00:00:00 | |
| DL1XH-west | 2026-09-04 12:16:24 | 48.69405 | 10.19408 | 303° | 9km/h | 28908m | 5.7m/s | -42.6°C | 0% | 14.7hPa | 2.6V | 18:12:15 | 01:47:03 | 00:00:00 | |
| DJ2DS-15 | 2026-09-04 12:16:23 | 48.69407 | 10.19406 | 316° | 9km/h | 28914m | 5.8m/s | -42.6°C | 0.7% | 14.8hPa | 2.7V | 00:00:00 | 00:00:00 | 00:00:00 | |
| DM0DOS-11 | 2026-09-04 12:16:22 | 48.69404 | 10.19411 | 300° | 5km/h | 28902m | 6.3m/s | -42.6°C | 2.8% | 14.8hPa | 2.7V | 08:30:00 | 01:47:02 | 00:00:00 | |
| DF8AY | 2026-09-04 12:16:19 | 48.69403 | 10.19412 | 68° | 2km/h | 28889m | 6.4m/s | -42.7°C | 0% | 14.8hPa | 2.7V | 18:12:15 | 01:47:00 | 00:00:00 | |
| DK7TD | 2026-09-04 12:16:18 | 48.69403 | 10.19411 | 59° | 2km/h | 28883m | 5.8m/s | -42.7°C | 0% | 14.8hPa | 2.6V | 18:12:15 | 01:46:59 | 00:00:00 | |
| OE5MMP-10 | 2026-09-04 12:16:18 | 48.69403 | 10.19411 | 60° | 4km/h | 28883m | 5.8m/s | -42.6°C | 2.7% | 14.8hPa | 2.6V | 00:00:00 | 01:46:59 | 08:30:00 | |
| DL1XH1-15 | 2026-09-04 12:16:17 | 48.69401 | 10.19405 | 114° | 7km/h | 28845m | 5.4m/s | -42.6°C | 2.6% | 14.9hPa | 2.6V | 08:30:00 | 01:46:53 | 00:00:00 | |
| DO3MHA-11 | 2026-09-04 12:16:16 | 48.69402 | 10.19410 | 350° | 5km/h | 28870m | 6.1m/s | -42.5°C | 2.7% | 14.8hPa | 2.6V | 00:00:00 | 01:46:57 | 00:00:00 | |
| DM0DOS-11 | 2026-09-04 12:16:15 | 48.69402 | 10.19403 | 134° | 5km/h | 28839m | 6.4m/s | -42.5°C | 2.6% | 14.9hPa | 2.6V | 08:30:00 | 01:46:52 | 00:00:00 | |
| HSKMA3-T | 2026-09-04 12:16:15 | 48.69401 | 10.19410 | 17° | 4km/h | 28864m | 5.2m/s | -42.6°C | 0% | 14.8hPa | 2.7V | 18:12:15 | 01:46:56 | 00:00:00 | |
| DL1XH-west | 2026-09-04 12:16:12 | 48.69401 | 10.19405 | 115° | 7km/h | 28845m | 5.4m/s | -42.6°C | 0% | 14.9hPa | 2.6V | 18:12:15 | 01:46:53 | 00:00:00 | |
| DK7TD | 2026-09-04 12:16:08 | 48.69406 | 10.19403 | 180° | 7km/h | 28820m | 6m/s | -42.3°C | 0% | 14.9hPa | 2.7V | 18:12:15 | 01:46:49 | 00:00:00 | |
| HSKMA3-T | 2026-09-04 12:16:04 | 48.69414 | 10.19395 | 143° | 9km/h | 28795m | 6.7m/s | -42.3°C | 0% | 14.9hPa | 2.7V | 18:12:15 | 01:46:45 | 00:00:00 | |
| DM0DOS-11 | 2026-09-04 12:16:02 | 48.69418 | 10.19390 | 108° | 7km/h | 28776m | 6.2m/s | -42.4°C | 2.6% | 15hPa | 2.6V | 08:30:00 | 01:46:42 | 00:00:00 | |
| DL1XH-west | 2026-09-04 12:16:02 | 48.69418 | 10.19392 | 137° | 5km/h | 28782m | 5.6m/s | -42.4°C | 0% | 15hPa | 2.7V | 18:12:15 | 01:46:43 | 00:00:00 | |
| DF8AY | 2026-09-04 12:15:58 | 48.69419 | 10.19376 | 83° | 15km/h | 28757m | 5.3m/s | -42.3°C | 0% | 15.1hPa | 2.7V | 18:12:15 | 01:46:39 | 00:00:00 | |
| DK7TD | 2026-09-04 12:15:57 | 48.69418 | 10.19371 | 77° | 13km/h | 28751m | 6.7m/s | -42.4°C | 0% | 15.1hPa | 2.7V | 18:12:15 | 01:46:38 | 00:00:00 | |
| HSKMA3-T | 2026-09-04 12:15:53 | 48.69415 | 10.19358 | 83° | 11km/h | 28727m | 7m/s | -42.3°C | 0% | 15.1hPa | 2.6V | 18:12:15 | 01:46:34 | 00:00:00 | |
| DL1XH-west | 2026-09-04 12:15:52 | 48.69415 | 10.19349 | 91° | 13km/h | 28715m | 5.5m/s | -42.3°C | 0% | 15.2hPa | 2.7V | 18:12:15 | 01:46:32 | 00:00:00 | |
| HARRO8 | 2026-09-04 12:15:51 | 48.69415 | 10.19349 | 91° | 11km/h | 28715m | 5.5m/s | -42.3°C | 0.7% | 15.2hPa | 2.7V | 00:00:00 | 00:00:00 | 00:00:00 | |
| SONDE2-11 | 2026-09-04 12:15:49 | 48.69415 | 10.19339 | 88° | 7km/h | 28696m | 5.4m/s | -42.3°C | 0.7% | 15.2hPa | 2.7V | 00:00:00 | 00:00:00 | 00:00:00 | |
| DL1XH1-15 | 2026-09-04 12:15:48 | 48.69415 | 10.19339 | 88° | 7km/h | 28696m | 5.4m/s | -42.2°C | 2.7% | 15.2hPa | 2.7V | 08:30:00 | 01:46:29 | 00:00:00 | |
| DK7TD | 2026-09-04 12:15:47 | 48.69415 | 10.19335 | 92° | 11km/h | 28690m | 6.4m/s | -42.3°C | 0% | 15.2hPa | 2.7V | 18:12:15 | 01:46:28 | 00:00:00 | |
| DM0DOS-11 | 2026-09-04 12:15:46 | 48.69413 | 10.19303 | 54° | 11km/h | 28652m | 5.5m/s | -42.4°C | 2.6% | 15.3hPa | 2.7V | 08:30:00 | 01:46:22 | 00:00:00 | |
| DF3TZ-5 | 2026-09-04 12:15:45 | 48.69415 | 10.19324 | 92° | 16km/h | 28677m | 6.0m/s | -42.3°C | 0.6% | 15.2hPa | 2.7V | 00:00:00 | 00:00:00 | 00:00:00 | |
| HSKMA3-T | 2026-09-04 12:15:42 | 48.69414 | 10.19306 | 70° | 11km/h | 28659m | 6.7m/s | -42.5°C | 0% | 15.3hPa | 2.7V | 18:12:15 | 01:46:23 | 00:00:00 | |
| DL1XH-west | 2026-09-04 12:15:40 | 48.69411 | 10.19299 | 49° | 13km/h | 28647m | 5.8m/s | -42.4°C | 0% | 15.3hPa | 2.6V | 18:12:15 | 01:46:21 | 00:00:00 | |
| DL1XH1-15 | 2026-09-04 12:15:40 | 48.69407 | 10.19290 | 56° | 18km/h | 28634m | 6.1m/s | -42.4°C | 2.6% | 15.4hPa | 2.6V | 08:30:00 | 01:46:19 | 00:00:00 | |
| DK7TD | 2026-09-04 12:15:37 | 48.69404 | 10.19284 | 56° | 18km/h | 28628m | 5.3m/s | -42.4°C | 0% | 15.4hPa | 2.7V | 18:12:15 | 01:46:18 | 00:00:00 | |
| DO3MHA-11 | 2026-09-04 12:15:36 | 48.69401 | 10.19279 | 53° | 15km/h | 28622m | 6.6m/s | -42.3°C | 2.6% | 15.3hPa | 2.7V | 00:00:00 | 01:46:17 | 00:00:00 | |
| DM0DOS-11 | 2026-09-04 12:15:35 | 48.69393 | 10.19254 | 83° | 18km/h | 28591m | 5.4m/s | -42.6°C | 2.6% | 15.5hPa | 2.6V | 08:30:00 | 01:46:12 | 00:00:00 | |
| DF8AY | 2026-09-04 12:15:35 | 48.69399 | 10.19274 | 47° | 15km/h | 28615m | 6.7m/s | -42.4°C | 0% | 15.4hPa | 2.6V | 18:12:15 | 01:46:16 | 00:00:00 | |
| HSKMA3-T | 2026-09-04 12:15:31 | 48.69393 | 10.19254 | 83° | 18km/h | 28591m | 5.4m/s | -42.7°C | 0% | 15.5hPa | 2.6V | 18:12:15 | 01:46:12 | 00:00:00 | |
| DL1XH-west | 2026-09-04 12:15:30 | 48.69392 | 10.19247 | 84° | 18km/h | 28586m | 4.8m/s | -42.7°C | 0% | 15.5hPa | 2.6V | 18:12:15 | 01:46:11 | 00:00:00 | |
| DK7TD | 2026-09-04 12:15:27 | 48.69389 | 10.19231 | 47° | 13km/h | 28568m | 5.3m/s | -42.8°C | 0% | 15.5hPa | 2.7V | 18:12:15 | 01:46:08 | 00:00:00 | |
| DF8AY | 2026-09-04 12:15:23 | 48.69377 | 10.19215 | 53° | 18km/h | 28545m | 5.8m/s | -43.3°C | 0% | 15.6hPa | 2.6V | 18:12:15 | 01:46:04 | 00:00:00 | |
| HSKMA3-T | 2026-09-04 12:15:20 | 48.69371 | 10.19202 | 42° | 7km/h | 28529m | 7.2m/s | -43.3°C | 0% | 15.6hPa | 2.6V | 18:12:15 | 01:46:01 | 00:00:00 | |
| DL1XH-west | 2026-09-04 12:15:19 | 48.69370 | 10.19201 | 344° | 5km/h | 28522m | 7m/s | -43.2°C | 0% | 15.6hPa | 2.6V | 18:12:15 | 01:46:00 | 00:00:00 | |
| DK7TD | 2026-09-04 12:15:17 | 48.69366 | 10.19206 | 332° | 7km/h | 28503m | 6.6m/s | -43.3°C | 0% | 15.7hPa | 2.6V | 18:12:15 | 01:45:57 | 00:00:00 | |
| DM0DOS-11 | 2026-09-04 12:15:16 | 48.69351 | 10.19209 | 344° | 13km/h | 28473m | 5.8m/s | -43.4°C | 2.7% | 15.7hPa | 2.7V | 08:30:00 | 01:45:52 | 00:00:00 | |
| DF8AY | 2026-09-04 12:15:12 | 48.69354 | 10.19208 | 349° | 13km/h | 28479m | 6.9m/s | -43.4°C | 0% | 15.7hPa | 2.7V | 18:12:15 | 01:45:53 | 00:00:00 | |
| HSKMA3-T | 2026-09-04 12:15:10 | 48.69349 | 10.19209 | 352° | 9km/h | 28467m | 5.1m/s | -43.4°C | 0% | 15.8hPa | 2.6V | 18:12:15 | 01:45:51 | 00:00:00 | |
| DL1XH-west | 2026-09-04 12:15:10 | 48.69346 | 10.19208 | 69° | 5km/h | 28455m | 6.4m/s | -43.5°C | 0% | 15.8hPa | 2.6V | 18:12:15 | 01:45:49 | 00:00:00 | |
| DL1XH1-15 | 2026-09-04 12:15:09 | 48.69346 | 10.19208 | 69° | 5km/h | 28455m | 6.4m/s | -43.5°C | 2.8% | 15.8hPa | 2.6V | 08:30:00 | 01:45:49 | 00:00:00 | |
| PG1ADW-2 | 2026-09-04 12:15:09 | 48.69347 | 10.19209 | 17° | 11km/h | 28462m | 6.8m/s | -43.5°C | 2.8% | 15.7hPa | 2.7V | 00:00:00 | 00:00:00 | 00:00:00 | |
| OE5MMP-10 | 2026-09-04 12:15:08 | 48.69346 | 10.19208 | 70° | 13km/h | 28455m | 6.3m/s | -43.4°C | 2.8% | 15.7hPa | 2.7V | 00:00:00 | 01:45:49 | 00:00:00 | |
| DO3MHA-11 | 2026-09-04 12:15:06 | 48.69347 | 10.19206 | 185° | 13km/h | 28444m | 5.5m/s | -43.3°C | 2.8% | 15.8hPa | 2.7V | 00:00:00 | 01:45:47 | 08:30:00 | |
| DM0DOS-11 | 2026-09-04 12:15:05 | 48.69348 | 10.19234 | 291° | 20km/h | 28415m | 6.1m/s | -43.3°C | 2.7% | 15.9hPa | 2.6V | 08:30:00 | 01:45:42 | 00:00:00 | |
| DK7TD | 2026-09-04 12:15:05 | 48.69348 | 10.19207 | 227° | 9km/h | 28438m | 6.4m/s | -43.4°C | 0% | 15.8hPa | 2.6V | 18:12:15 | 01:45:46 | 00:00:00 | |
| DF8AY | 2026-09-04 12:15:02 | 48.69350 | 10.19226 | 282° | 22km/h | 28420m | 5.1m/s | -43.2°C | 0% | 15.9hPa | 2.7V | 18:12:15 | 01:45:43 | 00:00:00 | |
| HSKMA3-T | 2026-09-04 12:15:00 | 48.69346 | 10.19240 | 304° | 16km/h | 28409m | 6.2m/s | -43.4°C | 0% | 15.9hPa | 2.6V | 18:12:15 | 01:45:41 | 00:00:00 | |
| DO3MHA-12 | 2026-09-04 12:15:00 | 48.69346 | 10.19240 | 305° | 9km/h | 28409m | 6.2m/s | -43.3°C | 2.7% | 15.8hPa | 2.6V | 00:00:00 | 01:45:41 | 00:00:00 | |
| DL1XH1-15 | 2026-09-04 12:14:59 | 48.69342 | 10.19247 | 304° | 7km/h | 28397m | 5.6m/s | -43.5°C | 2.7% | 15.9hPa | 2.7V | 08:30:00 | 01:45:39 | 00:00:00 | |
| DL1XH-west | 2026-09-04 12:14:59 | 48.69342 | 10.19247 | 304° | 7km/h | 28398m | 5.6m/s | -43.5°C | 0% | 15.9hPa | 2.7V | 18:12:15 | 01:45:39 | 00:00:00 | |
| DK5PH-5 | 2026-09-04 12:14:59 | 48.69344 | 10.19244 | 313° | 9km/h | 28403m | 5.3m/s | -43.4°C | 2.7% | 15.9hPa | 2.7V | 00:00:00 | 01:45:40 | 00:00:00 | |
| OE5MMP-10 | 2026-09-04 12:14:58 | 48.69342 | 10.19247 | 305° | 9km/h | 28398m | 5.5m/s | -43.5°C | 2.7% | 15.9hPa | 2.7V | 00:00:00 | 01:45:39 | 00:00:00 | |
| DN1GJH-1 | 2026-09-04 12:14:57 | 48.69342 | 10.19247 | 305° | 7km/h | 28398m | 5.6m/s | -43.5°C | 0.7% | 15.9hPa | 2.7V | 00:00:00 | 00:00:00 | 00:00:00 | |
| DO3MHA-11 | 2026-09-04 12:14:56 | 48.69342 | 10.19251 | 244° | 9km/h | 28385m | 6.3m/s | -43.6°C | 2.8% | 15.9hPa | 2.7V | 00:00:00 | 01:45:37 | 00:00:00 | |
| DM0DOS-11 | 2026-09-04 12:14:55 | 48.69347 | 10.19268 | 294° | 7km/h | 28355m | 5.7m/s | -43.5°C | 2.8% | 16hPa | 2.7V | 08:30:00 | 01:45:32 | 00:00:00 | |
| DK7TD | 2026-09-04 12:14:54 | 48.69345 | 10.19259 | 238° | 11km/h | 28374m | 4.9m/s | -43.5°C | 0% | 16hPa | 2.6V | 18:12:15 | 01:45:35 | 00:00:00 | |
| DF8AY | 2026-09-04 12:14:52 | 48.69344 | 10.19290 | 268° | 11km/h | 28326m | 5.2m/s | -43.5°C | 0% | 16.1hPa | 2.6V | 18:12:15 | 01:45:27 | 00:00:00 | |
| DL1XH1-15 | 2026-09-04 12:14:51 | 48.69344 | 10.19280 | 275° | 13km/h | 28337m | 6.2m/s | -43.6°C | 2.8% | 16.1hPa | 2.7V | 08:30:00 | 01:45:29 | 00:00:00 | |
| HSKMA3-T | 2026-09-04 12:14:49 | 48.69345 | 10.19275 | 288° | 11km/h | 28344m | 6.5m/s | -43.6°C | 0% | 16hPa | 2.6V | 18:12:15 | 01:45:30 | 00:00:00 | |
| DL1XH-west | 2026-09-04 12:14:48 | 48.69344 | 10.19285 | 269° | 13km/h | 28331m | 5.4m/s | -43.6°C | 0% | 16.1hPa | 2.7V | 18:12:15 | 01:45:28 | 00:00:00 | |
| DK7TD | 2026-09-04 12:14:44 | 48.69344 | 10.19294 | 6° | 2km/h | 28313m | 6.4m/s | -43.3°C | 0% | 16.1hPa | 2.6V | 18:12:15 | 01:45:25 | 00:00:00 | |
| DF8AY | 2026-09-04 12:14:42 | 48.69345 | 10.19288 | 135° | 11km/h | 28294m | 7m/s | -43.3°C | 0% | 16.2hPa | 2.7V | 18:12:15 | 01:45:22 | 00:00:00 | |
| DM7RM-13 | 2026-09-04 12:14:41 | 48.69344 | 10.19291 | 119° | 7km/h | 28301m | 6.6m/s | -43.3°C | 0.7% | 16.2hPa | 2.6V | 00:00:00 | 00:00:00 | 00:00:00 | |
| DO3MHA-12 | 2026-09-04 12:14:40 | 48.69347 | 10.19285 | 144° | 9km/h | 28288m | 5.7m/s | -43.2°C | 2.7% | 16.1hPa | 2.6V | 00:00:00 | 01:45:21 | 00:00:00 | |
| DL1XH1-15 | 2026-09-04 12:14:39 | 48.69352 | 10.19280 | 131° | 11km/h | 28276m | 7.1m/s | -43.3°C | 2.7% | 16.2hPa | 2.6V | 08:30:00 | 01:45:19 | 00:00:00 | |
| HSKMA3-T | 2026-09-04 12:14:39 | 48.69350 | 10.19283 | 139° | 13km/h | 28282m | 5.9m/s | -43.3°C | 0% | 16.2hPa | 2.6V | 18:12:15 | 01:45:20 | 00:00:00 | |
| DL1XH-west | 2026-09-04 12:14:37 | 48.69354 | 10.19277 | 127° | 9km/h | 28269m | 5.7m/s | -43.3°C | 0% | 16.2hPa | 2.7V | 18:12:15 | 01:45:18 | 00:00:00 | |
| DK7TD | 2026-09-04 12:14:34 | 48.69358 | 10.19275 | 208° | 9km/h | 28251m | 6.4m/s | -43.5°C | 0% | 16.3hPa | 2.6V | 18:12:15 | 01:45:15 | 00:00:00 | |
| DB0ND-19 | 2026-09-04 12:14:32 | 48.69362 | 10.19279 | 225° | 5km/h | 28239m | 5.6m/s | -43.6°C | 0.7% | 16.3hPa | 2.6V | 00:00:00 | 00:00:00 | 00:00:00 | |
| DF7PN | 2026-09-04 12:14:31 | 48.69362 | 10.19280 | 223° | 2km/h | 28233m | 6.9m/s | -43.6°C | 0.7% | 16.3hPa | 2.6V | 00:00:00 | 00:00:00 | 00:00:00 | |
| DO3MHA-12 | 2026-09-04 12:14:30 | 48.69362 | 10.19280 | 78° | 15km/h | 28227m | 5.4m/s | -43.6°C | 2.7% | 16.3hPa | 2.6V | 00:00:00 | 01:45:11 | 00:00:00 | |
| DF8AY | 2026-09-04 12:14:30 | 48.69370 | 10.19256 | 128° | 22km/h | 28197m | 5.5m/s | -43.6°C | 0% | 16.4hPa | 2.6V | 18:12:15 | 01:45:06 | 00:00:00 | |
| DL1XH1-15 | 2026-09-04 12:14:29 | 48.69363 | 10.19273 | 103° | 13km/h | 28216m | 6.5m/s | -43.5°C | 2.7% | 16.4hPa | 2.7V | 08:30:00 | 01:45:09 | 00:00:00 | |
| HSKMA3-T | 2026-09-04 12:14:28 | 48.69363 | 10.19273 | 104° | 13km/h | 28216m | 6.5m/s | -43.5°C | 0% | 16.4hPa | 2.7V | 18:12:15 | 01:45:09 | 00:00:00 | |
| DL1XH-west | 2026-09-04 12:14:27 | 48.69364 | 10.19268 | 119° | 16km/h | 28209m | 6.9m/s | -43.6°C | 0% | 16.4hPa | 2.7V | 18:12:15 | 01:45:08 | 00:00:00 | |
| DK7TD | 2026-09-04 12:14:23 | 48.69376 | 10.19243 | 117° | 20km/h | 28184m | 6.3m/s | -43.7°C | 0% | 16.4hPa | 2.6V | 18:12:15 | 01:45:04 | 00:00:00 | |
| HSKMA3-T | 2026-09-04 12:14:18 | 48.69385 | 10.19226 | 147° | 5km/h | 28154m | 5.2m/s | -43.8°C | 0% | 16.6hPa | 2.7V | 18:12:15 | 01:44:59 | 00:00:00 | |
| DL1XH-west | 2026-09-04 12:14:17 | 48.69385 | 10.19207 | 93° | 22km/h | 28130m | 5.8m/s | -43.9°C | 0% | 16.6hPa | 2.6V | 18:12:15 | 01:44:55 | 00:00:00 | |
| DF8AY | 2026-09-04 12:14:16 | 48.69385 | 10.19215 | 87° | 18km/h | 28135m | 5.6m/s | -43.9°C | 0% | 16.6hPa | 2.6V | 18:12:15 | 01:44:56 | 00:00:00 | |
| DK7TD | 2026-09-04 12:14:13 | 48.69386 | 10.19199 | 103° | 22km/h | 28124m | 7m/s | -43.9°C | 0% | 16.6hPa | 2.7V | 18:12:15 | 01:44:54 | 00:00:00 | |
| DM0DOS-11 | 2026-09-04 12:14:13 | 48.69390 | 10.19183 | 114° | 24km/h | 28111m | 5.6m/s | -44°C | 2.8% | 16.6hPa | 2.7V | 08:30:00 | 01:44:52 | 00:00:00 | |
| DF3TZ-5 | 2026-09-04 12:14:12 | 48.69388 | 10.19191 | 112° | 22km/h | 28117m | 6.1m/s | -43.9°C | 0.7% | 16.6hPa | 2.6V | 00:00:00 | 00:00:00 | 00:00:00 | |
| NBG1-10 | 2026-09-04 12:14:10 | 48.69392 | 10.19175 | 113° | 11km/h | 28105m | 6.8m/s | -44.2°C | 2.8% | 16.6hPa | 2.6V | 00:00:00 | 01:44:51 | 00:00:00 | |
| PG1ADW-2 | 2026-09-04 12:14:09 | 48.69394 | 10.19168 | 106° | 9km/h | 28099m | 6.1m/s | -44.3°C | 2.8% | 16.6hPa | 2.6V | 00:00:00 | 01:44:50 | 00:00:00 | |
| DJ2DS-15 | 2026-09-04 12:14:08 | 48.69395 | 10.19162 | 99° | 9km/h | 28093m | 5.2m/s | -44.3°C | 2.8% | 16.6hPa | 2.6V | 00:00:00 | 01:44:49 | 00:00:00 | |
| DM0DOS-11 | 2026-09-04 12:14:06 | 48.69396 | 10.19152 | 77° | 15km/h | 28051m | 5.5m/s | -44.2°C | 2.9% | 16.8hPa | 2.6V | 08:30:00 | 01:44:42 | 00:00:00 | |
| DF8AY | 2026-09-04 12:14:05 | 48.69396 | 10.19157 | 206° | 4km/h | 28074m | 5.8m/s | -44.3°C | 0% | 16.7hPa | 2.6V | 18:12:15 | 01:44:46 | 00:00:00 | |
| DL1XH-west | 2026-09-04 12:14:05 | 48.69397 | 10.19157 | 229° | 4km/h | 28069m | 4.8m/s | -44.3°C | 0% | 16.7hPa | 2.6V | 18:12:15 | 01:44:45 | 00:00:00 | |
| HSKMA3-T | 2026-09-04 12:14:03 | 48.69397 | 10.19157 | 68° | 2km/h | 28063m | 6m/s | -44.3°C | 0% | 16.7hPa | 2.7V | 18:12:15 | 01:44:44 | 00:00:00 | |
| DK7TD | 2026-09-04 12:14:02 | 48.69397 | 10.19156 | 70° | 7km/h | 28057m | 6.3m/s | -44.3°C | 0% | 16.7hPa | 2.7V | 18:12:15 | 01:44:43 | 00:00:00 | |
| DB0ND-19 | 2026-09-04 12:14:01 | 48.69396 | 10.19152 | 77° | 13km/h | 28051m | 5.5m/s | -44.2°C | 0.7% | 16.8hPa | 2.7V | 00:00:00 | 00:00:00 | 00:00:00 | |
| DF7PN | 2026-09-04 12:14:00 | 48.69396 | 10.19146 | 88° | 18km/h | 28046m | 5.3m/s | -44.2°C | 0.7% | 16.8hPa | 2.7V | 00:00:00 | 00:00:00 | 00:00:00 | |
| DJ2DS-15 | 2026-09-04 12:13:59 | 48.69396 | 10.19139 | 98° | 20km/h | 28040m | 6.4m/s | -44.2°C | 0.7% | 16.8hPa | 2.7V | 00:00:00 | 00:00:00 | 00:00:00 | |
| DL1ZP-14 | 2026-09-04 12:13:56 | 48.69402 | 10.19120 | 133° | 11km/h | 28022m | 5.1m/s | -44.3°C | 0.7% | 16.9hPa | 2.7V | 00:00:00 | 00:00:00 | 00:00:00 | |
| DM0DOS-11 | 2026-09-04 12:13:55 | 48.69400 | 10.19120 | 321° | 9km/h | 27992m | 7m/s | -44.6°C | 2.9% | 16.9hPa | 2.7V | 08:30:00 | 01:44:32 | 00:00:00 | |
| DL1XH-west | 2026-09-04 12:13:54 | 48.69404 | 10.19117 | 47° | 2km/h | 28010m | 6.6m/s | -44.5°C | 0% | 16.9hPa | 2.6V | 18:12:15 | 01:44:35 | 00:00:00 | |
| DF8AY | 2026-09-04 12:13:54 | 48.69403 | 10.19117 | 340° | 5km/h | 28004m | 5.5m/s | -44.6°C | 0% | 16.9hPa | 2.6V | 18:12:15 | 01:44:34 | 00:00:00 | |
| HSKMA3-T | 2026-09-04 12:13:52 | 48.69401 | 10.19118 | 331° | 9km/h | 27999m | 5.2m/s | -44.7°C | 0% | 16.9hPa | 2.7V | 18:12:15 | 01:44:33 | 00:00:00 | |
| DK7TD | 2026-09-04 12:13:51 | 48.69399 | 10.19120 | 321° | 9km/h | 27993m | 7m/s | -44.7°C | 0% | 16.9hPa | 2.7V | 18:12:15 | 01:44:32 | 00:00:00 | |
| DO3MHA-12 | 2026-09-04 12:13:50 | 48.69398 | 10.19122 | 313° | 13km/h | 27986m | 6.2m/s | -44.6°C | 3.0% | 16.9hPa | 2.6V | 00:00:00 | 01:44:31 | 00:00:00 | |
| DL1XH1-15 | 2026-09-04 12:13:49 | 48.69395 | 10.19124 | 15° | 5km/h | 27975m | 5.7m/s | -44.4°C | 2.9% | 16.9hPa | 2.6V | 08:30:00 | 01:44:29 | 00:00:00 | |
| HARRO8 | 2026-09-04 12:13:47 | 48.69394 | 10.19122 | 36° | 9km/h | 27968m | 7.4m/s | 0°C | -1.0% | 17.0hPa | 2.7V | 00:00:00 | 00:00:00 | 00:00:00 | |
| DO9HM | 2026-09-04 12:13:46 | 48.69393 | 10.19122 | 38° | 11km/h | 27969m | 7.4m/s | -44.5°C | 0.8% | 17.0hPa | 2.7V | 00:00:00 | 00:00:00 | 00:00:00 | |
| DM0DOS-11 | 2026-09-04 12:13:45 | 48.69388 | 10.19093 | 144° | 15km/h | 27932m | 6.4m/s | -44.6°C | 2.8% | 17.1hPa | 2.7V | 08:30:00 | 01:44:22 | 00:00:00 | |
| SONCRA | 2026-09-04 12:13:44 | 48.69386 | 10.19108 | 66° | 16km/h | 27951m | 4.8m/s | -44.8°C | 0.7% | 17.0hPa | 2.6V | 00:00:00 | 00:00:00 | 00:00:00 | |
| DL1XH-west | 2026-09-04 12:13:43 | 48.69385 | 10.19102 | 85° | 15km/h | 27945m | 6.4m/s | -44.8°C | 0% | 17hPa | 2.6V | 18:12:15 | 01:44:24 | 00:00:00 | |
| DF8AY | 2026-09-04 12:13:42 | 48.69386 | 10.19097 | 118° | 13km/h | 27939m | 7m/s | -44.6°C | 0% | 17.1hPa | 2.6V | 18:12:15 | 01:44:23 | 00:00:00 | |
| DK7TD | 2026-09-04 12:13:41 | 48.69388 | 10.19093 | 145° | 15km/h | 27932m | 6.4m/s | -44.6°C | 0% | 17.1hPa | 2.7V | 18:12:15 | 01:44:22 | 00:00:00 | |
| HSKMA3-T | 2026-09-04 12:13:39 | 48.69395 | 10.19089 | 161° | 13km/h | 27920m | 6.5m/s | -44.7°C | 0% | 17.1hPa | 2.6V | 18:12:15 | 01:44:20 | 00:00:00 | |
| DF8AY-15 | 2026-09-04 12:13:38 | 48.69397 | 10.19087 | 158° | 4km/h | 27914m | 6.2m/s | 0°C | 0% | 0hPa | 2.7V | 00:00:00 | 01:44:19 | 00:00:00 | |
| NBG1-10 | 2026-09-04 12:13:37 | 48.69399 | 10.19086 | 147° | 9km/h | 27908m | 5.5m/s | -44.6°C | 2.9% | 17.1hPa | 2.7V | 00:00:00 | 01:44:18 | 00:00:00 | |
| AZAK | 2026-09-04 12:13:36 | 48.69400 | 10.19085 | 143° | 2km/h | 27902m | 5.8m/s | -44.7°C | 0.7% | 17.1hPa | 2.7V | 00:00:00 | 00:00:00 | 00:00:00 | |
| DM0DOS-11 | 2026-09-04 12:13:35 | 48.69394 | 10.19081 | 27° | 15km/h | 27871m | 7.1m/s | -44.6°C | 2.9% | 17.2hPa | 2.7V | 08:30:00 | 01:44:12 | 00:00:00 | |
| DL1XH-west | 2026-09-04 12:13:33 | 48.69399 | 10.19084 | 19° | 5km/h | 27884m | 4.9m/s | -44.8°C | 0% | 17.2hPa | 2.6V | 18:12:15 | 01:44:14 | 00:00:00 | |
| DF8AY | 2026-09-04 12:13:32 | 48.69394 | 10.19081 | 28° | 15km/h | 27872m | 7.1m/s | -44.6°C | 0% | 17.2hPa | 2.7V | 18:12:15 | 01:44:12 | 00:00:00 | |
| DK7TD | 2026-09-04 12:13:30 | 48.69391 | 10.19078 | 33° | 16km/h | 27865m | 5.7m/s | -44.6°C | 0% | 17.2hPa | 2.7V | 18:12:15 | 01:44:11 | 00:00:00 | |
| HSKMA3-T | 2026-09-04 12:13:26 | 48.69386 | 10.19070 | 204° | 4km/h | 27841m | 5.4m/s | -44.8°C | 0% | 17.3hPa | 2.7V | 18:12:15 | 01:44:07 | 00:00:00 | |
| DL1XH-west | 2026-09-04 12:13:22 | 48.69387 | 10.19079 | 284° | 9km/h | 27816m | 6.1m/s | -45°C | 0% | 17.4hPa | 2.6V | 18:12:15 | 01:44:03 | 00:00:00 | |
| DF8AY | 2026-09-04 12:13:21 | 48.69387 | 10.19082 | 288° | 7km/h | 27809m | 6.7m/s | -45.1°C | 0% | 17.4hPa | 2.7V | 18:12:15 | 01:44:02 | 00:00:00 | |
| DK7TD | 2026-09-04 12:13:19 | 48.69384 | 10.19085 | 1° | 7km/h | 27799m | 4.6m/s | -45.2°C | 0% | 17.4hPa | 2.7V | 18:12:15 | 01:44:00 | 00:00:00 | |
| HSKMA3-T | 2026-09-04 12:13:16 | 48.69374 | 10.19077 | 38° | 22km/h | 27779m | 5.6m/s | -45.3°C | 0% | 17.5hPa | 2.6V | 18:12:15 | 01:43:57 | 00:00:00 | |
| DL1XH-west | 2026-09-04 12:13:12 | 48.69365 | 10.19061 | 158° | 2km/h | 27757m | 6.1m/s | -45.4°C | 0% | 17.6hPa | 2.6V | 18:12:15 | 01:43:53 | 00:00:00 | |
| DF8AY | 2026-09-04 12:13:11 | 48.69366 | 10.19062 | 230° | 5km/h | 27751m | 5.3m/s | -45.5°C | 0% | 17.6hPa | 2.7V | 18:12:15 | 01:43:52 | 00:00:00 | |
| DK7TD | 2026-09-04 12:13:08 | 48.69366 | 10.19069 | 327° | 5km/h | 27734m | 4.9m/s | -45.7°C | 0% | 17.6hPa | 2.6V | 18:12:15 | 01:43:49 | 00:00:00 | |
| HSKMA3-T | 2026-09-04 12:13:05 | 48.69362 | 10.19065 | 67° | 11km/h | 27716m | 6.2m/s | -45.5°C | 0.1% | 17.6hPa | 2.7V | 18:12:15 | 01:43:46 | 00:00:00 | |
| NBG1-10 | 2026-09-04 12:13:04 | 48.69361 | 10.19060 | 76° | 9km/h | 27711m | 5.1m/s | -45.4°C | 3.1% | 17.6hPa | 2.7V | 00:00:00 | 01:43:45 | 00:00:00 | |
| DL1XH1-15 | 2026-09-04 12:13:03 | 48.69349 | 10.19039 | 32° | 7km/h | 27677m | 6.1m/s | -45.7°C | 3% | 17.7hPa | 2.7V | 08:30:00 | 01:43:39 | 00:00:00 | |
| DM0DOS-11 | 2026-09-04 12:13:02 | 48.69357 | 10.19047 | 45° | 15km/h | 27693m | 6.5m/s | -45.5°C | 3% | 17.7hPa | 2.6V | 08:30:00 | 01:43:42 | 00:00:00 | |
| DL1XH-west | 2026-09-04 12:13:02 | 48.69359 | 10.19051 | 62° | 15km/h | 27700m | 6.3m/s | -45.5°C | 0.1% | 17.7hPa | 2.6V | 18:12:15 | 01:43:43 | 00:00:00 | |
| DF8AY | 2026-09-04 12:13:00 | 48.69354 | 10.19043 | 33° | 15km/h | 27687m | 5.3m/s | -45.6°C | 0% | 17.7hPa | 2.6V | 18:12:15 | 01:43:41 | 00:00:00 | |
| DK7TD | 2026-09-04 12:12:57 | 48.69348 | 10.19037 | 61° | 4km/h | 27670m | 7m/s | -45.8°C | 0% | 17.8hPa | 2.7V | 18:12:15 | 01:43:38 | 00:00:00 | |
| DM0DOS-11 | 2026-09-04 12:12:56 | 48.69350 | 10.19047 | 300° | 9km/h | 27635m | 5.3m/s | -45.7°C | 3% | 17.9hPa | 2.7V | 08:30:00 | 01:43:32 | 00:00:00 | |
| HSKMA3-T | 2026-09-04 12:12:55 | 48.69349 | 10.19037 | 202° | 5km/h | 27658m | 4.9m/s | -45.8°C | 0% | 17.8hPa | 2.6V | 18:12:15 | 01:43:36 | 00:00:00 | |
| AZAK | 2026-09-04 12:12:54 | 48.69350 | 10.19038 | 225° | 7km/h | 27653m | 6.2m/s | -45.8°C | 0.7% | 17.8hPa | 2.6V | 00:00:00 | 00:00:00 | 00:00:00 | |
| DL1XH1-15 | 2026-09-04 12:12:53 | 48.69348 | 10.19048 | 88° | 7km/h | 27617m | 6.4m/s | -45.8°C | 3.1% | 17.9hPa | 2.6V | 08:30:00 | 01:43:29 | 00:00:00 | |
| DL1XH-west | 2026-09-04 12:12:52 | 48.69351 | 10.19044 | 283° | 9km/h | 27641m | 5.6m/s | -45.7°C | 0.1% | 17.9hPa | 2.7V | 18:12:15 | 01:43:33 | 00:00:00 | |
| DF8AY | 2026-09-04 12:12:50 | 48.69348 | 10.19050 | 21° | 2km/h | 27624m | 6.9m/s | -45.8°C | 0.1% | 17.9hPa | 2.6V | 18:12:15 | 01:43:30 | 00:00:00 | |
| DK7TD | 2026-09-04 12:12:47 | 48.69348 | 10.19044 | 88° | 15km/h | 27611m | 5.4m/s | -45.9°C | 0.1% | 17.9hPa | 2.6V | 18:12:15 | 01:43:28 | 00:00:00 | |
| PETON7-10 | 2026-09-04 12:12:45 | 48.69346 | 10.19031 | 73° | 11km/h | 27600m | 6.9m/s | 0°C | 0% | 0hPa | 2.7V | 00:00:00 | 00:00:00 | 00:00:00 | |
| DO9HM | 2026-09-04 12:12:43 | 48.69344 | 10.19023 | 65° | 22km/h | 27594m | 5.3m/s | -46.1°C | 0.8% | 18.0hPa | 2.7V | 00:00:00 | 00:00:00 | 00:00:00 | |
| DL1XH1-15 | 2026-09-04 12:12:42 | 48.69340 | 10.19005 | 256° | 2km/h | 27560m | 6.3m/s | -46.1°C | 3% | 18.1hPa | 2.7V | 08:30:00 | 01:43:19 | 00:00:00 | |
| DL1XH-west | 2026-09-04 12:12:41 | 48.69339 | 10.19008 | 74° | 9km/h | 27577m | 6.6m/s | -45.9°C | 0% | 18hPa | 2.6V | 18:12:15 | 01:43:22 | 00:00:00 | |
| DK7TD | 2026-09-04 12:12:37 | 48.69339 | 10.19006 | 339° | 4km/h | 27554m | 5.8m/s | -46.1°C | 0.1% | 18.1hPa | 2.6V | 18:12:15 | 01:43:18 | 00:00:00 | |
| OE5MMP-10 | 2026-09-04 12:12:37 | 48.69339 | 10.19006 | 339° | 11km/h | 27554m | 5.8m/s | -46.1°C | 3.1% | 18.0hPa | 2.7V | 00:00:00 | 01:43:18 | 00:00:00 | |
| DM0DOS-11 | 2026-09-04 12:12:35 | 48.69333 | 10.18987 | 68° | 16km/h | 27518m | 7m/s | -46.1°C | 3.1% | 18.2hPa | 2.7V | 08:30:00 | 01:43:12 | 00:00:00 | |
| DL1XH-west | 2026-09-04 12:12:31 | 48.69331 | 10.18982 | 56° | 16km/h | 27512m | 5.9m/s | -46.2°C | 0.1% | 18.2hPa | 2.6V | 18:12:15 | 01:43:11 | 00:00:00 | |
| NBG1-10 | 2026-09-04 12:12:31 | 48.69332 | 10.18987 | 69° | 15km/h | 27518m | 6.9m/s | -46.1°C | 3.1% | 18.1hPa | 2.6V | 00:00:00 | 01:43:12 | 00:00:00 | |
| DL1XH1-15 | 2026-09-04 12:12:30 | 48.69326 | 10.18974 | 49° | 13km/h | 27501m | 5m/s | -46.4°C | 3.1% | 18.2hPa | 2.6V | 08:30:00 | 01:43:09 | 00:00:00 | |
| DK7TD | 2026-09-04 12:12:27 | 48.69324 | 10.18970 | 61° | 11km/h | 27496m | 6.1m/s | -46.5°C | 0.1% | 18.2hPa | 2.7V | 18:12:15 | 01:43:08 | 00:00:00 | |
| HSKMA3-T | 2026-09-04 12:12:25 | 48.69323 | 10.18963 | 79° | 9km/h | 27484m | 5.4m/s | -46.3°C | 0.1% | 18.3hPa | 2.6V | 18:12:15 | 01:43:06 | 00:00:00 | |
| DF8AY | 2026-09-04 12:12:24 | 48.69304 | 10.18943 | 39° | 15km/h | 27443m | 5.2m/s | -46.4°C | 0% | 18.4hPa | 2.7V | 18:12:15 | 01:42:59 | 00:00:00 | |
| DM0DOS-11 | 2026-09-04 12:12:24 | 48.69314 | 10.18951 | 20° | 16km/h | 27460m | 4.6m/s | -46.4°C | 3% | 18.3hPa | 2.6V | 08:30:00 | 01:43:02 | 00:00:00 | |
| DL1ZP-14 | 2026-09-04 12:12:24 | 48.69320 | 10.18956 | 41° | 11km/h | 27472m | 7.1m/s | -46.3°C | 0.8% | 18.3hPa | 2.7V | 00:00:00 | 00:00:00 | 00:00:00 | |
| OE5DRO-10 | 2026-09-04 12:12:22 | 48.69318 | 10.18953 | 24° | 15km/h | 27466m | 5.9m/s | -46.3°C | 3.0% | 18.3hPa | 2.7V | 00:00:00 | 00:00:00 | 08:30:00 | |
| DO3MHA-12 | 2026-09-04 12:12:20 | 48.69310 | 10.18949 | 23° | 16km/h | 27455m | 6.2m/s | -46.3°C | 3.0% | 18.3hPa | 2.7V | 00:00:00 | 01:43:01 | 00:00:00 | |
| DL1XH-west | 2026-09-04 12:12:20 | 48.69311 | 10.18949 | 23° | 16km/h | 27455m | 6.3m/s | -46.4°C | 0% | 18.4hPa | 2.6V | 18:12:15 | 01:43:01 | 00:00:00 | |
| DL1XH1-15 | 2026-09-04 12:12:19 | 48.69304 | 10.18943 | 38° | 15km/h | 27443m | 5.2m/s | -46.4°C | 3% | 18.4hPa | 2.7V | 08:30:00 | 01:42:59 | 00:00:00 | |
| DK7TD | 2026-09-04 12:12:17 | 48.69301 | 10.18940 | 37° | 16km/h | 27437m | 5.4m/s | -46.5°C | 0.1% | 18.4hPa | 2.7V | 18:12:15 | 01:42:58 | 00:00:00 | |
| HSKMA3-T | 2026-09-04 12:12:14 | 48.69288 | 10.18928 | 28° | 18km/h | 27419m | 5.4m/s | -46.5°C | 0.1% | 18.5hPa | 2.6V | 18:12:15 | 01:42:55 | 00:00:00 | |
| DM0DOS-11 | 2026-09-04 12:12:14 | 48.69280 | 10.18919 | 39° | 9km/h | 27401m | 5m/s | -46.5°C | 3.1% | 18.5hPa | 2.7V | 08:30:00 | 01:42:52 | 00:00:00 | |
| DF8AY | 2026-09-04 12:12:14 | 48.69285 | 10.18925 | 33° | 16km/h | 27413m | 6.7m/s | -46.6°C | 0.1% | 18.5hPa | 2.6V | 18:12:15 | 01:42:54 | 00:00:00 | |
| AZAK | 2026-09-04 12:12:12 | 48.69285 | 10.18925 | 34° | 16km/h | 27413m | 6.7m/s | -46.6°C | 0.8% | 18.5hPa | 2.6V | 00:00:00 | 00:00:00 | 00:00:00 | |
| SONCRA | 2026-09-04 12:12:11 | 48.69278 | 10.18917 | 28° | 9km/h | 27396m | 5.2m/s | -46.6°C | 0.8% | 18.5hPa | 2.6V | 00:00:00 | 00:00:00 | 00:00:00 | |
| DJ2DS-15 | 2026-09-04 12:12:10 | 48.69278 | 10.18917 | 29° | 15km/h | 27396m | 5.1m/s | -46.5°C | 3.1% | 18.5hPa | 2.6V | 00:00:00 | 01:42:51 | 00:00:00 | |
| DL1XH1-15 | 2026-09-04 12:12:09 | 48.69272 | 10.18914 | 14° | 15km/h | 27384m | 5.8m/s | -46.8°C | 3.1% | 18.6hPa | 2.6V | 08:30:00 | 01:42:49 | 00:00:00 | |
| DL1XH-west | 2026-09-04 12:12:09 | 48.69254 | 10.18899 | 35° | 20km/h | 27356m | 5.4m/s | -47°C | 0.1% | 18.6hPa | 2.6V | 18:12:15 | 01:42:44 | 00:00:00 | |
| DK7TD | 2026-09-04 12:12:06 | 48.69264 | 10.18911 | 25° | 16km/h | 27372m | 6.7m/s | -46.9°C | 0.1% | 18.6hPa | 2.7V | 18:12:15 | 01:42:47 | 00:00:00 | |
| HSKMA3-T | 2026-09-04 12:12:04 | 48.69258 | 10.18904 | 39° | 18km/h | 27361m | 4.8m/s | -47.1°C | 0.1% | 18.6hPa | 2.6V | 18:12:15 | 01:42:45 | 00:00:00 | |
| DF8AY | 2026-09-04 12:12:03 | 48.69232 | 10.18884 | 15° | 11km/h | 27326m | 6.1m/s | -47.2°C | 0.1% | 18.7hPa | 2.6V | 18:12:15 | 01:42:39 | 00:00:00 | |
| DL1XH-west | 2026-09-04 12:11:59 | 48.69235 | 10.18886 | 19° | 16km/h | 27333m | 6.5m/s | -47.2°C | 0.2% | 18.7hPa | 2.6V | 18:12:15 | 01:42:40 | 00:00:00 | |
| DK7TD | 2026-09-04 12:11:56 | 48.69227 | 10.18884 | 351° | 11km/h | 27315m | 5.5m/s | -47.3°C | 0.2% | 18.8hPa | 2.7V | 18:12:15 | 01:42:37 | 00:00:00 | |
| DF7PN | 2026-09-04 12:11:56 | 48.69227 | 10.18884 | 351° | 9km/h | 27316m | 5.5m/s | -47.3°C | 0.8% | 18.8hPa | 2.6V | 00:00:00 | 00:00:00 | 00:00:00 | |
| DJTTGO | 2026-09-04 12:11:55 | 48.69227 | 10.18884 | 352° | 9km/h | 27316m | 5.5m/s | -47.3°C | 0.8% | 18.8hPa | 2.6V | 00:00:00 | 00:00:00 | 00:00:00 | |
| DM0DOS-11 | 2026-09-04 12:11:54 | 48.69208 | 10.18886 | 6° | 16km/h | 27285m | 5.5m/s | -47.5°C | 3.1% | 18.8hPa | 2.6V | 08:30:00 | 01:42:32 | 00:00:00 | |
| HSKMA3-T | 2026-09-04 12:11:53 | 48.69217 | 10.18887 | 355° | 18km/h | 27298m | 5.6m/s | -47.3°C | 0.1% | 18.8hPa | 2.6V | 18:12:15 | 01:42:34 | 00:00:00 | |
| DF8AY | 2026-09-04 12:11:53 | 48.69187 | 10.18887 | 348° | 22km/h | 27263m | 5.1m/s | -47.6°C | 0.1% | 18.9hPa | 2.6V | 18:12:15 | 01:42:28 | 00:00:00 | |
| DL1ZP-14 | 2026-09-04 12:11:52 | 48.69208 | 10.18886 | 6° | 16km/h | 27285m | 5.5m/s | -47.6°C | 0.8% | 18.8hPa | 2.6V | 00:00:00 | 00:00:00 | 00:00:00 | |
| DG9SBQ-11 | 2026-09-04 12:11:51 | 48.69212 | 10.18887 | 2° | 16km/h | 27292m | 6.8m/s | -47.4°C | 0.8% | 18.8hPa | 2.6V | 00:00:00 | 00:00:00 | 00:00:00 | |
| DO3MHA-12 | 2026-09-04 12:11:50 | 48.69203 | 10.18886 | 5° | 18km/h | 27281m | 5.0m/s | -47.5°C | 3.0% | 18.8hPa | 2.6V | 00:00:00 | 01:42:31 | 00:00:00 | |
| DL1XH1-15 | 2026-09-04 12:11:49 | 48.69193 | 10.18886 | 354° | 24km/h | 27268m | 5.6m/s | -47.5°C | 3% | 18.9hPa | 2.6V | 08:30:00 | 01:42:29 | 00:00:00 | |
| DL1XH-west | 2026-09-04 12:11:49 | 48.69173 | 10.18898 | 320° | 15km/h | 27238m | 6.7m/s | -47.9°C | 0.3% | 19hPa | 2.7V | 18:12:15 | 01:42:24 | 00:00:00 | |
| DK7TD | 2026-09-04 12:11:45 | 48.69179 | 10.18891 | 330° | 15km/h | 27250m | 6.3m/s | -47.7°C | 0.2% | 19hPa | 2.7V | 18:12:15 | 01:42:26 | 00:00:00 | |
| DJ2DS-15 | 2026-09-04 12:11:45 | 48.69179 | 10.18891 | 331° | 13km/h | 27250m | 6.3m/s | -47.7°C | 3.2% | 18.9hPa | 2.6V | 00:00:00 | 01:42:26 | 00:00:00 | |
| DM0DOS-11 | 2026-09-04 12:11:44 | 48.69167 | 10.18905 | 328° | 16km/h | 27226m | 4.8m/s | -48.2°C | 3.4% | 19hPa | 2.6V | 08:30:00 | 01:42:22 | 00:00:00 | |
| HSKMA3-T | 2026-09-04 12:11:42 | 48.69170 | 10.18901 | 324° | 16km/h | 27231m | 5.8m/s | -48.1°C | 0.2% | 19hPa | 2.6V | 18:12:15 | 01:42:23 | 00:00:00 | |
| DO9HM | 2026-09-04 12:11:41 | 48.69170 | 10.18901 | 325° | 16km/h | 27232m | 5.8m/s | -48.1°C | 0.8% | 19.0hPa | 2.7V | 00:00:00 | 00:00:00 | 00:00:00 | |
| DO3MHA-12 | 2026-09-04 12:11:40 | 48.69163 | 10.18908 | 334° | 16km/h | 27221m | 5.3m/s | -48.3°C | 3.4% | 19.0hPa | 2.7V | 00:00:00 | 01:42:21 | 00:00:00 | |
| DL1XH1-15 | 2026-09-04 12:11:39 | 48.69157 | 10.18911 | 347° | 13km/h | 27209m | 5.5m/s | -48.8°C | 3.5% | 19.1hPa | 2.7V | 08:30:00 | 01:42:19 | 00:00:00 | |
| DL1XH-west | 2026-09-04 12:11:38 | 48.69157 | 10.18911 | 347° | 13km/h | 27209m | 5.5m/s | -48.8°C | 0.4% | 19.1hPa | 2.7V | 18:12:15 | 01:42:19 | 00:00:00 | |
| OE5WHR-10 | 2026-09-04 12:11:38 | 48.69157 | 10.18911 | 348° | 16km/h | 27209m | 5.4m/s | -48.7°C | 3.5% | 19.0hPa | 2.6V | 00:00:00 | 00:00:00 | 00:00:00 | |
| OE5MMP-10 | 2026-09-04 12:11:37 | 48.69153 | 10.18912 | 351° | 18km/h | 27204m | 5.0m/s | -48.9°C | 3.5% | 19.0hPa | 2.6V | 00:00:00 | 01:42:18 | 00:00:00 | |
| DM0DOS-11 | 2026-09-04 12:11:36 | 48.69128 | 10.18930 | 284° | 15km/h | 27170m | 6.4m/s | -49.1°C | 3.5% | 19.2hPa | 2.6V | 08:30:00 | 01:42:12 | 00:00:00 | |
| DK7TD | 2026-09-04 12:11:34 | 48.69138 | 10.18918 | 339° | 22km/h | 27187m | 3.9m/s | -49.1°C | 0.3% | 19.1hPa | 2.7V | 18:12:15 | 01:42:15 | 00:00:00 | |
| DG9SBQ-11 | 2026-09-04 12:11:34 | 48.69138 | 10.18918 | 340° | 22km/h | 27187m | 3.9m/s | -49.0°C | 0.9% | 19.1hPa | 2.7V | 00:00:00 | 00:00:00 | 00:00:00 | |
| DL1XH1-15 | 2026-09-04 12:11:33 | 48.69129 | 10.18949 | 262° | 20km/h | 27152m | 6.2m/s | -48.9°C | 3.6% | 19.2hPa | 2.7V | 08:30:00 | 01:42:09 | 00:00:00 | |
| HSKMA3-T | 2026-09-04 12:11:31 | 48.69128 | 10.18930 | 285° | 15km/h | 27170m | 6.4m/s | -49.1°C | 0.4% | 19.2hPa | 2.6V | 18:12:15 | 01:42:12 | 00:00:00 | |
| DL1XH-west | 2026-09-04 12:11:27 | 48.69130 | 10.18956 | 265° | 20km/h | 27146m | 4.8m/s | -48.9°C | 0.5% | 19.3hPa | 2.7V | 18:12:15 | 01:42:08 | 00:00:00 | |
| OE5MMP-10 | 2026-09-04 12:11:27 | 48.69130 | 10.18956 | 265° | 15km/h | 27146m | 4.7m/s | -48.9°C | 3.6% | 19.2hPa | 2.6V | 00:00:00 | 01:42:08 | 00:00:00 | |
| DB0ND-19 | 2026-09-04 12:11:26 | 48.69130 | 10.18964 | 264° | 16km/h | 27141m | 5.1m/s | -49.0°C | 0.9% | 19.3hPa | 2.6V | 00:00:00 | 00:00:00 | 00:00:00 | |
| NBG1-10 | 2026-09-04 12:11:25 | 48.69131 | 10.18970 | 260° | 11km/h | 27136m | 6.3m/s | -49.0°C | 3.6% | 19.2hPa | 2.6V | 00:00:00 | 01:42:06 | 08:30:00 | |
| DM0DOS-11 | 2026-09-04 12:11:24 | 48.69127 | 10.18986 | 323° | 16km/h | 27112m | 6.8m/s | -49.1°C | 3.5% | 19.3hPa | 2.7V | 08:30:00 | 01:42:02 | 00:00:00 | |
| DK7TD | 2026-09-04 12:11:23 | 48.69131 | 10.18979 | 288° | 9km/h | 27124m | 4.9m/s | -49.1°C | 0.4% | 19.3hPa | 2.7V | 18:12:15 | 01:42:04 | 00:00:00 | |
| DF8AY | 2026-09-04 12:11:23 | 48.69123 | 10.18989 | 326° | 18km/h | 27106m | 5.1m/s | -49.2°C | 0.4% | 19.4hPa | 2.6V | 18:12:15 | 01:42:01 | 00:00:00 | |
| DL1XH1-15 | 2026-09-04 12:11:22 | 48.69117 | 10.18997 | 310° | 15km/h | 27095m | 6.5m/s | -48.9°C | 3.4% | 19.4hPa | 2.6V | 08:30:00 | 01:41:59 | 00:00:00 | |
| HSKMA3-T | 2026-09-04 12:11:21 | 48.69127 | 10.18986 | 324° | 16km/h | 27112m | 6.8m/s | -49.1°C | 0.4% | 19.4hPa | 2.7V | 18:12:15 | 01:42:02 | 00:00:00 | |
| DL1XH-west | 2026-09-04 12:11:17 | 48.69116 | 10.19005 | 254° | 11km/h | 27084m | 5.1m/s | -48.7°C | 0.3% | 19.4hPa | 2.7V | 18:12:15 | 01:41:57 | 00:00:00 | |
| DF8AY | 2026-09-04 12:11:13 | 48.69130 | 10.19031 | 289° | 4km/h | 27039m | 6.6m/s | -48.9°C | 0.3% | 19.6hPa | 2.6V | 18:12:15 | 01:41:49 | 00:00:00 | |
| DK7TD | 2026-09-04 12:11:13 | 48.69120 | 10.19019 | 235° | 15km/h | 27067m | 5.1m/s | -48.7°C | 0.4% | 19.5hPa | 2.6V | 18:12:15 | 01:41:54 | 00:00:00 | |
| HSKMA3-T | 2026-09-04 12:11:10 | 48.69128 | 10.19029 | 199° | 11km/h | 27049m | 4.6m/s | -48.8°C | 0.4% | 19.5hPa | 2.7V | 18:12:15 | 01:41:51 | 00:00:00 | |
| DO3MHA-12 | 2026-09-04 12:11:10 | 48.69127 | 10.19029 | 199° | 11km/h | 27050m | 4.6m/s | -48.7°C | 3.5% | 19.5hPa | 2.6V | 00:00:00 | 01:41:51 | 00:00:00 | |
| DL1XH1-15 | 2026-09-04 12:11:09 | 48.69129 | 10.19033 | 319° | 11km/h | 27033m | 6m/s | -48.9°C | 3.4% | 19.6hPa | 2.6V | 08:30:00 | 01:41:48 | 00:00:00 | |
| DL1XH-west | 2026-09-04 12:11:06 | 48.69126 | 10.19036 | 318° | 15km/h | 27028m | 4.6m/s | -49°C | 0.4% | 19.6hPa | 2.7V | 18:12:15 | 01:41:47 | 00:00:00 | |
| DK7TD | 2026-09-04 12:11:03 | 48.69121 | 10.19051 | 267° | 13km/h | 27011m | 5.9m/s | -48.9°C | 0.3% | 19.7hPa | 2.6V | 18:12:15 | 01:41:44 | 00:00:00 | |
| HSKMA3-T | 2026-09-04 12:11:00 | 48.69126 | 10.19064 | 228° | 11km/h | 26994m | 6.3m/s | -49°C | 0.4% | 19.7hPa | 2.7V | 18:12:15 | 01:41:41 | 00:00:00 | |
| DF8AY | 2026-09-04 12:10:56 | 48.69130 | 10.19073 | 227° | 7km/h | 26971m | 6.8m/s | -49.2°C | 0.5% | 19.8hPa | 2.6V | 18:12:15 | 01:41:37 | 00:00:00 | |
| DL1XH-west | 2026-09-04 12:10:55 | 48.69132 | 10.19075 | 213° | 7km/h | 26965m | 6.4m/s | -49.1°C | 0.5% | 19.8hPa | 2.7V | 18:12:15 | 01:41:36 | 00:00:00 | |
| DB0ND-19 | 2026-09-04 12:10:55 | 48.69132 | 10.19075 | 212° | 7km/h | 26965m | 6.4m/s | -49.1°C | 0.9% | 19.8hPa | 2.6V | 00:00:00 | 00:00:00 | 00:00:00 | |
| DB0NH | 2026-09-04 12:10:54 | 48.69133 | 10.19077 | 209° | 7km/h | 26960m | 5.1m/s | -48.9°C | 3.6% | 19.7hPa | 2.6V | 00:00:00 | 01:41:35 | 00:00:00 | |
| DM0DOS-11 | 2026-09-04 12:10:53 | 48.69136 | 10.19079 | 331° | 0km/h | 26942m | 5.4m/s | -49.1°C | 3.5% | 19.9hPa | 2.6V | 08:30:00 | 01:41:32 | 00:00:00 | |
| DK7TD | 2026-09-04 12:10:52 | 48.69136 | 10.19079 | 227° | 2km/h | 26948m | 6.9m/s | -49.1°C | 0.4% | 19.9hPa | 2.6V | 18:12:15 | 01:41:33 | 00:00:00 | |
| DL1ZP-14 | 2026-09-04 12:10:50 | 48.69136 | 10.19079 | 165° | 2km/h | 26932m | 6.4m/s | -49.1°C | 0.9% | 19.9hPa | 2.7V | 00:00:00 | 00:00:00 | 00:00:00 | |
| DL1XH1-15 | 2026-09-04 12:10:49 | 48.69140 | 10.19079 | 190° | 13km/h | 26919m | 5.5m/s | -49.1°C | 3.5% | 19.9hPa | 2.6V | 08:30:00 | 01:41:28 | 00:00:00 | |
| HSKMA3-T | 2026-09-04 12:10:49 | 48.69136 | 10.19079 | 166° | 4km/h | 26932m | 6.4m/s | -49.1°C | 0.4% | 19.9hPa | 2.7V | 18:12:15 | 01:41:30 | 00:00:00 | |
| DF8AY | 2026-09-04 12:10:46 | 48.69143 | 10.19081 | 197° | 15km/h | 26914m | 5.2m/s | -49.1°C | 0.4% | 19.9hPa | 2.6V | 18:12:15 | 01:41:27 | 00:00:00 | |
| DM0DOS-11 | 2026-09-04 12:10:46 | 48.69152 | 10.19088 | 232° | 5km/h | 26886m | 6.3m/s | -49°C | 3.6% | 20hPa | 2.6V | 08:30:00 | 01:41:22 | 00:00:00 | |
| DL1XH-west | 2026-09-04 12:10:45 | 48.69146 | 10.19082 | 203° | 13km/h | 26908m | 5.4m/s | -49°C | 0.4% | 19.9hPa | 2.6V | 18:12:15 | 01:41:26 | 00:00:00 | |
| DK7TD | 2026-09-04 12:10:41 | 48.69152 | 10.19088 | 233° | 5km/h | 26886m | 6.3m/s | -49°C | 0.4% | 20.1hPa | 2.6V | 18:12:15 | 01:41:22 | 00:00:00 | |
| DO3MHA-12 | 2026-09-04 12:10:40 | 48.69153 | 10.19090 | 233° | 7km/h | 26880m | 6.3m/s | -49.0°C | 3.6% | 20.0hPa | 2.7V | 00:00:00 | 01:41:21 | 00:00:00 | |
| DL1XH1-15 | 2026-09-04 12:10:39 | 48.69155 | 10.19097 | 277° | 5km/h | 26862m | 6.8m/s | -49°C | 3.6% | 20.1hPa | 2.7V | 08:30:00 | 01:41:18 | 00:00:00 | |
| HSKMA3-T | 2026-09-04 12:10:39 | 48.69154 | 10.19092 | 237° | 7km/h | 26874m | 5.4m/s | -49°C | 0.4% | 20.1hPa | 2.7V | 18:12:15 | 01:41:20 | 00:00:00 | |
| DL1XH-west | 2026-09-04 12:10:34 | 48.69153 | 10.19104 | 275° | 5km/h | 26845m | 6.5m/s | -48.9°C | 0.4% | 20.2hPa | 2.6V | 18:12:15 | 01:41:15 | 00:00:00 | |
| DM0DOS-11 | 2026-09-04 12:10:33 | 48.69156 | 10.19113 | 242° | 11km/h | 26827m | 5.5m/s | -48.9°C | 3.5% | 20.2hPa | 2.6V | 08:30:00 | 01:41:12 | 00:00:00 | |
| DK7TD | 2026-09-04 12:10:30 | 48.69157 | 10.19116 | 256° | 11km/h | 26821m | 7m/s | -48.9°C | 0.4% | 20.2hPa | 2.6V | 18:12:15 | 01:41:11 | 00:00:00 | |
| DO3MHA-12 | 2026-09-04 12:10:30 | 48.69156 | 10.19116 | 256° | 13km/h | 26821m | 6.9m/s | -48.9°C | 3.5% | 20.2hPa | 2.6V | 00:00:00 | 01:41:11 | 00:00:00 | |
| DL1XH1-15 | 2026-09-04 12:10:29 | 48.69157 | 10.19129 | 263° | 13km/h | 26802m | 6.9m/s | -48.9°C | 3.5% | 20.3hPa | 2.7V | 08:30:00 | 01:41:08 | 00:00:00 | |
| HSKMA3-T | 2026-09-04 12:10:28 | 48.69157 | 10.19125 | 269° | 13km/h | 26809m | 5.6m/s | -48.9°C | 0.4% | 20.3hPa | 2.7V | 18:12:15 | 01:41:09 | 00:00:00 | |
| DF8AY | 2026-09-04 12:10:24 | 48.69158 | 10.19145 | 279° | 13km/h | 26785m | 6.7m/s | -48.8°C | 0.4% | 20.4hPa | 2.6V | 18:12:15 | 01:41:05 | 00:00:00 | |
| DL1XH-west | 2026-09-04 12:10:23 | 48.69157 | 10.19150 | 292° | 13km/h | 26778m | 6.4m/s | -48.8°C | 0.4% | 20.4hPa | 2.6V | 18:12:15 | 01:41:04 | 00:00:00 | |
| DM0DOS-11 | 2026-09-04 12:10:22 | 48.69155 | 10.19158 | 282° | 7km/h | 26767m | 6.3m/s | -48.8°C | 3.5% | 20.4hPa | 2.7V | 08:30:00 | 01:41:02 | 00:00:00 | |
| DG9SBQ-11 | 2026-09-04 12:10:21 | 48.69156 | 10.19154 | 296° | 11km/h | 26773m | 4.7m/s | -48.8°C | 0.9% | 20.4hPa | 2.7V | 00:00:00 | 00:00:00 | 00:00:00 | |
| DO3MHA-12 | 2026-09-04 12:10:20 | 48.69155 | 10.19160 | 243° | 5km/h | 26761m | 6.7m/s | -48.7°C | 3.5% | 20.4hPa | 2.7V | 00:00:00 | 01:41:01 | 00:00:00 | |
| DL1XH1-15 | 2026-09-04 12:10:19 | 48.69159 | 10.19160 | 124° | 5km/h | 26742m | 7m/s | -48.6°C | 3.5% | 20.5hPa | 2.7V | 08:30:00 | 01:40:58 | 00:00:00 | |
| DK7TD | 2026-09-04 12:10:19 | 48.69156 | 10.19161 | 192° | 5km/h | 26754m | 5.8m/s | -48.7°C | 0.4% | 20.4hPa | 2.6V | 18:12:15 | 01:41:00 | 00:00:00 | |
| HSKMA3-T | 2026-09-04 12:10:18 | 48.69157 | 10.19161 | 160° | 5km/h | 26748m | 6.1m/s | -48.7°C | 0.4% | 20.5hPa | 2.6V | 18:12:15 | 01:40:59 | 00:00:00 | |
| OE5MMP-10 | 2026-09-04 12:10:17 | 48.69158 | 10.19160 | 125° | 7km/h | 26742m | 7.0m/s | 0°C | 0% | 0hPa | 2.7V | 00:00:00 | 01:40:58 | 08:30:00 | |
| DM0DOS-11 | 2026-09-04 12:10:16 | 48.69162 | 10.19162 | 273° | 9km/h | 26707m | 6m/s | -48.5°C | 3.4% | 20.6hPa | 2.7V | 08:30:00 | 01:40:52 | 00:00:00 | |
| DL1XH-west | 2026-09-04 12:10:13 | 48.69161 | 10.19157 | 220° | 5km/h | 26718m | 5.9m/s | -48.5°C | 0.3% | 20.6hPa | 2.6V | 18:12:15 | 01:40:54 | 00:00:00 | |
| DK7TD | 2026-09-04 12:10:09 | 48.69159 | 10.19169 | 311° | 13km/h | 26694m | 5.7m/s | -48.5°C | 0.3% | 20.7hPa | 2.6V | 18:12:15 | 01:40:50 | 00:00:00 | |
| HSKMA3-T | 2026-09-04 12:10:07 | 48.69156 | 10.19176 | 296° | 11km/h | 26683m | 6.7m/s | -48.5°C | 0.3% | 20.7hPa | 2.6V | 18:12:15 | 01:40:48 | 00:00:00 | |
| OE5MMP-10 | 2026-09-04 12:10:07 | 48.69156 | 10.19176 | 296° | 11km/h | 26683m | 6.7m/s | -48.5°C | 3.4% | 20.6hPa | 2.6V | 00:00:00 | 01:40:48 | 00:00:00 | |
| DM0DOS-11 | 2026-09-04 12:10:06 | 48.69157 | 10.19181 | 90° | 7km/h | 26647m | 5.1m/s | -48.8°C | 3.5% | 20.8hPa | 2.6V | 08:30:00 | 01:40:42 | 00:00:00 | |
| DL1XH-west | 2026-09-04 12:10:03 | 48.69157 | 10.19183 | 93° | 5km/h | 26652m | 5.9m/s | -48.7°C | 0.4% | 20.8hPa | 2.6V | 18:12:15 | 01:40:43 | 00:00:00 | |
| DO3MHA-12 | 2026-09-04 12:10:00 | 48.69157 | 10.19178 | 107° | 9km/h | 26641m | 6.9m/s | -48.6°C | 3.5% | 20.8hPa | 2.7V | 00:00:00 | 01:40:41 | 00:00:00 | |
| DL1XH1-15 | 2026-09-04 12:09:59 | 48.69159 | 10.19177 | 280° | 4km/h | 26622m | 5.6m/s | -48.6°C | 3.5% | 20.9hPa | 2.6V | 08:30:00 | 01:40:38 | 00:00:00 | |
| DK7TD | 2026-09-04 12:09:58 | 48.69159 | 10.19177 | 192° | 4km/h | 26628m | 5.4m/s | -48.7°C | 0.4% | 20.9hPa | 2.6V | 18:12:15 | 01:40:39 | 00:00:00 | |
| HSKMA3-T | 2026-09-04 12:09:56 | 48.69158 | 10.19179 | 319° | 7km/h | 26616m | 7.5m/s | -48.6°C | 0.4% | 20.9hPa | 2.6V | 18:12:15 | 01:40:37 | 00:00:00 | |
| DL1XH-west | 2026-09-04 12:09:52 | 48.69147 | 10.19192 | 310° | 13km/h | 26591m | 6.5m/s | -48.6°C | 0.4% | 21hPa | 2.6V | 18:12:15 | 01:40:33 | 00:00:00 | |
| DF8AY | 2026-09-04 12:09:51 | 48.69146 | 10.19195 | 304° | 9km/h | 26585m | 5.7m/s | -48.6°C | 0.4% | 21hPa | 2.6V | 18:12:15 | 01:40:32 | 00:00:00 | |
| DK7TD | 2026-09-04 12:09:47 | 48.69141 | 10.19195 | 42° | 9km/h | 26561m | 5m/s | -48.6°C | 0.4% | 21.1hPa | 2.6V | 18:12:15 | 01:40:28 | 00:00:00 | |
| HSKMA3-T | 2026-09-04 12:09:46 | 48.69139 | 10.19192 | 48° | 7km/h | 26556m | 4.8m/s | -48.6°C | 0.4% | 21.1hPa | 2.6V | 18:12:15 | 01:40:27 | 00:00:00 | |
| DL1XH-west | 2026-09-04 12:09:42 | 48.69136 | 10.19190 | 327° | 7km/h | 26533m | 5.7m/s | -48.5°C | 0.3% | 21.1hPa | 2.7V | 18:12:15 | 01:40:23 | 00:00:00 | |
| DF8AY | 2026-09-04 12:09:39 | 48.69127 | 10.19194 | 350° | 18km/h | 26514m | 4.8m/s | -48.5°C | 0.3% | 21.2hPa | 2.6V | 18:12:15 | 01:40:20 | 00:00:00 | |
| DK7TD | 2026-09-04 12:09:37 | 48.69119 | 10.19197 | 343° | 15km/h | 26503m | 6.7m/s | -48.5°C | 0.3% | 21.2hPa | 2.7V | 18:12:15 | 01:40:18 | 00:00:00 | |
| HSKMA3-T | 2026-09-04 12:09:35 | 48.69114 | 10.19199 | 9° | 5km/h | 26490m | 5.8m/s | -48.5°C | 0.3% | 21.3hPa | 2.7V | 18:12:15 | 01:40:16 | 00:00:00 | |
| DL9SK-14 | 2026-09-04 12:09:35 | 48.69114 | 10.19199 | 9° | 4km/h | 26490m | 5.8m/s | -48.5°C | 0.9% | 21.3hPa | 2.7V | 00:00:00 | 00:00:00 | 00:00:00 | |
| OE5MMP-10 | 2026-09-04 12:09:34 | 48.69113 | 10.19197 | 53° | 9km/h | 26485m | 6.3m/s | -48.5°C | 3.4% | 21.3hPa | 2.7V | 00:00:00 | 01:40:15 | 00:00:00 | |
| DM0DOS-11 | 2026-09-04 12:09:33 | 48.69110 | 10.19186 | 62° | 11km/h | 26466m | 5.7m/s | -48.4°C | 3.3% | 21.4hPa | 2.7V | 08:30:00 | 01:40:12 | 00:00:00 | |
| DL1XH-west | 2026-09-04 12:09:32 | 48.69110 | 10.19186 | 63° | 11km/h | 26466m | 5.7m/s | -48.4°C | 0.2% | 21.4hPa | 2.7V | 18:12:15 | 01:40:12 | 00:00:00 | |
| DK7TD | 2026-09-04 12:09:27 | 48.69104 | 10.19181 | 354° | 11km/h | 26441m | 6.6m/s | -48.8°C | 0.3% | 21.5hPa | 2.6V | 18:12:15 | 01:40:08 | 00:00:00 | |
| HSKMA3-T | 2026-09-04 12:09:25 | 48.69097 | 10.19181 | 8° | 15km/h | 26428m | 5.9m/s | -49°C | 0.4% | 21.5hPa | 2.7V | 18:12:15 | 01:40:06 | 00:00:00 | |
| DJ2DS-15 | 2026-09-04 12:09:25 | 48.69097 | 10.19181 | 8° | 15km/h | 26429m | 5.8m/s | -48.9°C | 3.5% | 21.5hPa | 2.6V | 00:00:00 | 01:40:06 | 00:00:00 | |
| OE5MMP-10 | 2026-09-04 12:09:24 | 48.69094 | 10.19180 | 11° | 11km/h | 26422m | 6.8m/s | -48.9°C | 3.5% | 21.5hPa | 2.6V | 00:00:00 | 01:40:05 | 00:00:00 | |
| DB0ND-19 | 2026-09-04 12:09:22 | 48.69088 | 10.19178 | 26° | 9km/h | 26409m | 5.1m/s | -49.1°C | 0.9% | 21.6hPa | 2.6V | 00:00:00 | 00:00:00 | 00:00:00 | |
| DL1XH1-15 | 2026-09-04 12:09:21 | 48.69073 | 10.19164 | 358° | 9km/h | 26372m | 5m/s | -49.2°C | 3.6% | 21.7hPa | 2.6V | 08:30:00 | 01:39:57 | 00:00:00 | |
| DL1XH-west | 2026-09-04 12:09:21 | 48.69086 | 10.19175 | 36° | 13km/h | 26403m | 6.7m/s | -49.2°C | 0.4% | 21.6hPa | 2.6V | 18:12:15 | 01:40:02 | 00:00:00 | |
| DF8AY | 2026-09-04 12:09:19 | 48.69078 | 10.19166 | 35° | 13km/h | 26384m | 6.6m/s | -49.1°C | 0.4% | 21.6hPa | 2.6V | 18:12:15 | 01:39:59 | 00:00:00 | |
| DK7TD | 2026-09-04 12:09:16 | 48.69073 | 10.19164 | 359° | 9km/h | 26372m | 5.1m/s | -49.2°C | 0.5% | 21.7hPa | 2.6V | 18:12:15 | 01:39:57 | 00:00:00 | |
| HSKMA3-T | 2026-09-04 12:09:14 | 48.69067 | 10.19164 | 0° | 15km/h | 26360m | 6.9m/s | -49.1°C | 0.4% | 21.7hPa | 2.7V | 18:12:15 | 01:39:55 | 00:00:00 | |
| DL1XH-west | 2026-09-04 12:09:10 | 48.69051 | 10.19163 | 359° | 16km/h | 26334m | 5.8m/s | -49.2°C | 0.4% | 21.8hPa | 2.6V | 18:12:15 | 01:39:51 | 00:00:00 | |
| DL1XH1-15 | 2026-09-04 12:09:10 | 48.69033 | 10.19158 | 16° | 20km/h | 26311m | 5.2m/s | -49°C | 3.6% | 21.9hPa | 2.6V | 08:30:00 | 01:39:47 | 00:00:00 | |
| DF8AY | 2026-09-04 12:09:09 | 48.69021 | 10.19157 | 342° | 13km/h | 26292m | 5.5m/s | -49.2°C | 0.5% | 22hPa | 2.7V | 18:12:15 | 01:39:44 | 00:00:00 | |
| DK7TD | 2026-09-04 12:09:05 | 48.69028 | 10.19157 | 13° | 16km/h | 26305m | 6.4m/s | -49.1°C | 0.4% | 21.9hPa | 2.6V | 18:12:15 | 01:39:46 | 00:00:00 | |
| HSKMA3-T | 2026-09-04 12:09:02 | 48.69018 | 10.19159 | 335° | 16km/h | 26287m | 5.4m/s | -49.3°C | 0.5% | 22hPa | 2.7V | 18:12:15 | 01:39:43 | 00:00:00 | |
| DL1XH-west | 2026-09-04 12:08:59 | 48.69002 | 10.19170 | 330° | 29km/h | 26269m | 5.2m/s | -49.2°C | 0.4% | 22.1hPa | 2.6V | 18:12:15 | 01:39:40 | 00:00:00 | |
| DK7TD | 2026-09-04 12:08:55 | 48.68979 | 10.19199 | 321° | 26km/h | 26245m | 5.6m/s | -49.2°C | 0.4% | 22.1hPa | 2.7V | 18:12:15 | 01:39:36 | 00:00:00 | |
| DF8AY | 2026-09-04 12:08:53 | 48.68966 | 10.19207 | 356° | 16km/h | 26226m | 5.6m/s | -49°C | 0.4% | 22.2hPa | 2.6V | 18:12:15 | 01:39:33 | 00:00:00 | |
| HSKMA3-T | 2026-09-04 12:08:52 | 48.68962 | 10.19208 | 351° | 13km/h | 26220m | 6.6m/s | -49°C | 0.4% | 22.2hPa | 2.7V | 18:12:15 | 01:39:32 | 00:00:00 | |
| DL1XH-west | 2026-09-04 12:08:49 | 48.68956 | 10.19212 | 325° | 15km/h | 26208m | 5.1m/s | -49.1°C | 0.4% | 22.2hPa | 2.6V | 18:12:15 | 01:39:30 | 00:00:00 | |
| DK7TD | 2026-09-04 12:08:45 | 48.68941 | 10.19226 | 329° | 20km/h | 26184m | 5.3m/s | -49°C | 0.4% | 22.3hPa | 2.7V | 18:12:15 | 01:39:26 | 00:00:00 | |
| DF8AY | 2026-09-04 12:08:40 | 48.68928 | 10.19252 | 297° | 13km/h | 26156m | 6m/s | -48.9°C | 0.5% | 22.4hPa | 2.7V | 18:12:15 | 01:39:21 | 00:00:00 | |
| DL1XH-west | 2026-09-04 12:08:38 | 48.68924 | 10.19257 | 348° | 7km/h | 26143m | 6.2m/s | -48.9°C | 0.4% | 22.5hPa | 2.6V | 18:12:15 | 01:39:19 | 00:00:00 | |
| DK7TD | 2026-09-04 12:08:35 | 48.68921 | 10.19256 | 62° | 2km/h | 26124m | 5.8m/s | -49.1°C | 0.4% | 22.6hPa | 2.7V | 18:12:15 | 01:39:16 | 00:00:00 | |
| SONCRA | 2026-09-04 12:08:34 | 48.68921 | 10.19257 | 317° | 4km/h | 26113m | 6.7m/s | -48.9°C | 0.9% | 22.5hPa | 2.6V | 00:00:00 | 00:00:00 | 00:00:00 | |
| OE5MMP-10 | 2026-09-04 12:08:33 | 48.68921 | 10.19257 | 318° | 15km/h | 26114m | 6.7m/s | -48.9°C | 3.5% | 22.5hPa | 2.6V | 00:00:00 | 01:39:14 | 00:00:00 | |
| OE5DRO-10 | 2026-09-04 12:08:32 | 48.68919 | 10.19259 | 320° | 13km/h | 26107m | 5.9m/s | -48.9°C | 3.5% | 22.5hPa | 2.6V | 00:00:00 | 00:00:00 | 00:00:00 | |
| DM7RM-13 | 2026-09-04 12:08:31 | 48.68919 | 10.19259 | 320° | 11km/h | 26107m | 6.0m/s | -49.0°C | 1.0% | 22.6hPa | 2.7V | 00:00:00 | 00:00:00 | 00:00:00 | |
| DL1XH1-15 | 2026-09-04 12:08:30 | 48.68909 | 10.19296 | 286° | 20km/h | 26074m | 5.3m/s | -48.9°C | 3.5% | 22.7hPa | 2.7V | 08:30:00 | 01:39:07 | 00:00:00 | |
| HSKMA3-T | 2026-09-04 12:08:30 | 48.68914 | 10.19268 | 300° | 16km/h | 26096m | 5.9m/s | -49°C | 0.4% | 22.6hPa | 2.6V | 18:12:15 | 01:39:11 | 00:00:00 | |
| DL1XH-west | 2026-09-04 12:08:28 | 48.68911 | 10.19281 | 280° | 20km/h | 26084m | 5.6m/s | -48.8°C | 0.4% | 22.7hPa | 2.7V | 18:12:15 | 01:39:09 | 00:00:00 | |
| DK7TD | 2026-09-04 12:08:25 | 48.68907 | 10.19302 | 297° | 18km/h | 26068m | 6.4m/s | -48.9°C | 0.4% | 22.8hPa | 2.6V | 18:12:15 | 01:39:06 | 00:00:00 | |
| DJ2DS-15 | 2026-09-04 12:08:25 | 48.68907 | 10.19302 | 298° | 11km/h | 26068m | 6.4m/s | 0°C | 0% | 0hPa | 2.6V | 00:00:00 | 01:39:06 | 00:00:00 | |
| DB0NH | 2026-09-04 12:08:24 | 48.68905 | 10.19308 | 311° | 11km/h | 26062m | 5.4m/s | -48.6°C | 3.5% | 22.7hPa | 2.6V | 00:00:00 | 01:39:05 | 00:00:00 | |
| OE5MMP-10 | 2026-09-04 12:08:23 | 48.68902 | 10.19312 | 317° | 9km/h | 26057m | 4.6m/s | -48.6°C | 3.5% | 22.7hPa | 2.7V | 00:00:00 | 01:39:04 | 00:00:00 | |
| DM0DOS-11 | 2026-09-04 12:08:22 | 48.68899 | 10.19319 | 289° | 7km/h | 26045m | 6.4m/s | -48.7°C | 3.5% | 22.8hPa | 2.7V | 08:30:00 | 01:39:02 | 00:00:00 | |
| DL1XH1-15 | 2026-09-04 12:08:20 | 48.68901 | 10.19324 | 229° | 5km/h | 26015m | 5.4m/s | -48.7°C | 3.4% | 22.9hPa | 2.7V | 08:30:00 | 01:38:57 | 00:00:00 | |
| HSKMA3-T | 2026-09-04 12:08:20 | 48.68899 | 10.19321 | 236° | 5km/h | 26039m | 5.7m/s | -48.7°C | 0.3% | 22.8hPa | 2.6V | 18:12:15 | 01:39:01 | 00:00:00 | |
| DF8AY | 2026-09-04 12:08:19 | 48.68903 | 10.19326 | 233° | 7km/h | 26009m | 7.1m/s | -48.7°C | 0.4% | 23hPa | 2.7V | 18:12:15 | 01:38:56 | 00:00:00 | |
| DL1XH-west | 2026-09-04 12:08:17 | 48.68901 | 10.19323 | 221° | 2km/h | 26021m | 5.4m/s | -48.8°C | 0.4% | 22.9hPa | 2.7V | 18:12:15 | 01:38:58 | 00:00:00 | |
| DK7TD | 2026-09-04 12:08:14 | 48.68904 | 10.19329 | 243° | 11km/h | 26002m | 5.7m/s | -48.8°C | 0.4% | 23hPa | 2.6V | 18:12:15 | 01:38:55 | 00:00:00 | |
| OE5DRO-10 | 2026-09-04 12:08:13 | 48.68905 | 10.19334 | 261° | 18km/h | 25997m | 5.5m/s | -48.9°C | 3.5% | 22.9hPa | 2.7V | 00:00:00 | 00:00:00 | 00:00:00 | |
| DM0DOS-11 | 2026-09-04 12:08:12 | 48.68904 | 10.19345 | 289° | 15km/h | 25984m | 5.6m/s | -48.9°C | 3.5% | 23hPa | 2.7V | 08:30:00 | 01:38:52 | 00:00:00 | |
| OE5MMP-10 | 2026-09-04 12:08:11 | 48.68904 | 10.19345 | 290° | 11km/h | 25984m | 5.5m/s | -48.8°C | 3.5% | 23.0hPa | 2.7V | 00:00:00 | 01:38:52 | 00:00:00 | |
| DL1XH1-15 | 2026-09-04 12:08:10 | 48.68904 | 10.19363 | 198° | 9km/h | 25956m | 5.7m/s | -48.8°C | 3.5% | 23.1hPa | 2.7V | 08:30:00 | 01:38:47 | 00:00:00 | |
| HSKMA3-T | 2026-09-04 12:08:09 | 48.68901 | 10.19355 | 288° | 11km/h | 25974m | 5.7m/s | -48.8°C | 0.4% | 23.1hPa | 2.6V | 18:12:15 | 01:38:50 | 00:00:00 | |
| DF8AY | 2026-09-04 12:08:09 | 48.68901 | 10.19358 | 262° | 9km/h | 25967m | 6.4m/s | -48.7°C | 0.4% | 23.1hPa | 2.6V | 18:12:15 | 01:38:49 | 00:00:00 | |
| DL1XH-west | 2026-09-04 12:08:07 | 48.68902 | 10.19361 | 223° | 9km/h | 25962m | 5.7m/s | -48.7°C | 0.4% | 23.1hPa | 2.6V | 18:12:15 | 01:38:48 | 00:00:00 | |
| DF8AY | 2026-09-04 12:08:03 | 48.68917 | 10.19391 | 267° | 18km/h | 25908m | 6.5m/s | 0°C | 0% | 23.3hPa | 2.7V | 18:12:15 | 01:38:39 | 00:00:00 | |
| DK7TD | 2026-09-04 12:08:03 | 48.68909 | 10.19365 | 217° | 7km/h | 25938m | 5m/s | -48.8°C | 0.3% | 23.2hPa | 2.6V | 18:12:15 | 01:38:44 | 00:00:00 | |
| HSKMA3-T | 2026-09-04 12:07:59 | 48.68916 | 10.19383 | 256° | 20km/h | 25914m | 6.3m/s | -48.9°C | 0.3% | 23.3hPa | 2.7V | 18:12:15 | 01:38:40 | 00:00:00 | |
| DL1XH1-15 | 2026-09-04 12:07:58 | 48.68917 | 10.19404 | 262° | 15km/h | 25897m | 5m/s | -48.8°C | 3.5% | 23.4hPa | 2.6V | 08:30:00 | 01:38:37 | 00:00:00 | |
| DL1XH-west | 2026-09-04 12:07:56 | 48.68918 | 10.19404 | 263° | 15km/h | 25897m | 5m/s | -48.8°C | 0.4% | 23.4hPa | 2.6V | 18:12:15 | 01:38:37 | 00:00:00 | |
| DK7TD | 2026-09-04 12:07:53 | 48.68923 | 10.19415 | 194° | 11km/h | 25880m | 5.2m/s | -48.9°C | 0.4% | 23.4hPa | 2.7V | 18:12:15 | 01:38:34 | 00:00:00 | |
| DM0DOS-11 | 2026-09-04 12:07:52 | 48.68932 | 10.19416 | 200° | 7km/h | 25857m | 5.3m/s | -49°C | 3.4% | 23.5hPa | 2.6V | 08:30:00 | 01:38:30 | 00:00:00 | |
| DL1XH1-15 | 2026-09-04 12:07:51 | 48.68940 | 10.19423 | 213° | 16km/h | 25840m | 4.8m/s | -49°C | 3.5% | 23.6hPa | 2.7V | 08:30:00 | 01:38:27 | 00:00:00 | |
| HSKMA3-T | 2026-09-04 12:07:48 | 48.68934 | 10.19417 | 204° | 11km/h | 25852m | 6.2m/s | -49.1°C | 0.4% | 23.5hPa | 2.7V | 18:12:15 | 01:38:29 | 00:00:00 | |
| DF8AY | 2026-09-04 12:07:47 | 48.68937 | 10.19420 | 207° | 15km/h | 25846m | 6.3m/s | 0°C | 0% | 23.6hPa | 2.7V | 18:12:15 | 01:38:28 | 00:00:00 | |
| DL1XH-west | 2026-09-04 12:07:45 | 48.68944 | 10.19426 | 223° | 16km/h | 25835m | 5m/s | -49°C | 0.4% | 23.5hPa | 2.6V | 18:12:15 | 01:38:26 | 00:00:00 | |
| DK7TD | 2026-09-04 12:07:43 | 48.68948 | 10.19436 | 254° | 13km/h | 25823m | 5.5m/s | -48.9°C | 0.4% | 23.6hPa | 2.6V | 18:12:15 | 01:38:24 | 00:00:00 | |
| DF8AY | 2026-09-04 12:07:41 | 48.68959 | 10.19441 | 144° | 5km/h | 25784m | 6.2m/s | 0°C | 0% | 0hPa | 2.6V | 18:12:15 | 01:38:17 | 00:00:00 | |
| DM0DOS-11 | 2026-09-04 12:07:41 | 48.68953 | 10.19446 | 173° | 9km/h | 25800m | 5.3m/s | -49°C | 3.6% | 23.7hPa | 2.7V | 08:30:00 | 01:38:20 | 00:00:00 | |
| OE5MMP-10 | 2026-09-04 12:07:41 | 48.68949 | 10.19443 | 246° | 7km/h | 25813m | 5.7m/s | -48.9°C | 3.6% | 23.6hPa | 2.7V | 00:00:00 | 01:38:22 | 00:00:00 | |
| DO3MHA-12 | 2026-09-04 12:07:40 | 48.68950 | 10.19445 | 208° | 9km/h | 25807m | 6.2m/s | -49.0°C | 3.6% | 23.6hPa | 2.6V | 00:00:00 | 01:38:21 | 00:00:00 | |
| DL1XH1-15 | 2026-09-04 12:07:38 | 48.68959 | 10.19441 | 144° | 5km/h | 25784m | 6.2m/s | -49.2°C | 3.6% | 23.7hPa | 2.6V | 08:30:00 | 01:38:17 | 00:00:00 | |
| HSKMA3-T | 2026-09-04 12:07:37 | 48.68957 | 10.19443 | 149° | 9km/h | 25790m | 6.3m/s | -49.2°C | 0.4% | 23.7hPa | 2.6V | 18:12:15 | 01:38:18 | 00:00:00 | |
| DL1XH-west | 2026-09-04 12:07:35 | 48.68960 | 10.19440 | 158° | 4km/h | 25778m | 5.1m/s | -49.2°C | 0.5% | 23.7hPa | 2.7V | 18:12:15 | 01:38:16 | 00:00:00 | |
| DK7TD | 2026-09-04 12:07:32 | 48.68965 | 10.19443 | 215° | 13km/h | 25760m | 5.9m/s | -48.9°C | 0.4% | 23.9hPa | 2.6V | 18:12:15 | 01:38:13 | 00:00:00 | |
| DL1XH1-15 | 2026-09-04 12:07:31 | 48.68977 | 10.19463 | 192° | 9km/h | 25725m | 5.4m/s | -48.9°C | 3.5% | 24hPa | 2.6V | 08:30:00 | 01:38:07 | 00:00:00 | |
| HSKMA3-T | 2026-09-04 12:07:26 | 48.68977 | 10.19463 | 193° | 11km/h | 25725m | 5.4m/s | -48.9°C | 0.4% | 24hPa | 2.6V | 18:12:15 | 01:38:07 | 00:00:00 | |
| DL1XH-west | 2026-09-04 12:07:25 | 48.68979 | 10.19463 | 170° | 9km/h | 25720m | 5.3m/s | -48.9°C | 0.4% | 24hPa | 2.6V | 18:12:15 | 01:38:06 | 00:00:00 | |
| DK7TD | 2026-09-04 12:07:22 | 48.68983 | 10.19459 | 127° | 5km/h | 25702m | 5.1m/s | -48.7°C | 0.4% | 24.1hPa | 2.7V | 18:12:15 | 01:38:03 | 00:00:00 | |
| DJ2DS-15 | 2026-09-04 12:07:22 | 48.68983 | 10.19459 | 126° | 4km/h | 25702m | 5.1m/s | 0°C | -1.0% | -1.0hPa | 2.6V | 00:00:00 | 00:00:00 | 00:00:00 | |
| DM0DOS-11 | 2026-09-04 12:07:21 | 48.68988 | 10.19459 | 213° | 11km/h | 25685m | 5.1m/s | -48.8°C | 3.5% | 24.1hPa | 2.6V | 08:30:00 | 01:38:00 | 00:00:00 | |
| HSKMA3-T | 2026-09-04 12:07:16 | 48.68993 | 10.19472 | 258° | 15km/h | 25668m | 4.9m/s | -49°C | 0.4% | 24.2hPa | 2.7V | 18:12:15 | 01:37:57 | 00:00:00 | |
| DL1XH-west | 2026-09-04 12:07:15 | 48.68995 | 10.19480 | 234° | 9km/h | 25657m | 6.3m/s | -48.9°C | 0.4% | 24.2hPa | 2.6V | 18:12:15 | 01:37:55 | 00:00:00 | |
| DM0DOS-11 | 2026-09-04 12:07:15 | 48.69003 | 10.19479 | 134° | 4km/h | 25628m | 5.3m/s | -48.8°C | 3.6% | 24.3hPa | 2.6V | 08:30:00 | 01:37:50 | 00:00:00 | |
| DF8AY | 2026-09-04 12:07:13 | 48.68997 | 10.19482 | 200° | 9km/h | 25651m | 5.8m/s | 0°C | 0% | 0hPa | 2.6V | 18:12:15 | 01:37:54 | 00:00:00 | |
| DK7TD | 2026-09-04 12:07:11 | 48.69000 | 10.19482 | 150° | 7km/h | 25640m | 6.2m/s | -48.8°C | 0.5% | 24.3hPa | 2.7V | 18:12:15 | 01:37:52 | 00:00:00 | |
| HSKMA3-T | 2026-09-04 12:07:06 | 48.69006 | 10.19479 | 196° | 7km/h | 25611m | 4.7m/s | -48.8°C | 0.4% | 24.4hPa | 2.6V | 18:12:15 | 01:37:47 | 00:00:00 | |
| DL1XH-west | 2026-09-04 12:07:04 | 48.69008 | 10.19482 | 263° | 5km/h | 25600m | 6.9m/s | -48.9°C | 0.4% | 24.5hPa | 2.7V | 18:12:15 | 01:37:45 | 00:00:00 | |
| DM0DOS-11 | 2026-09-04 12:07:04 | 48.69008 | 10.19498 | 255° | 9km/h | 25571m | 5m/s | -48.5°C | 3.5% | 24.5hPa | 2.7V | 08:30:00 | 01:37:40 | 00:00:00 | |
| DF8AY | 2026-09-04 12:07:02 | 48.69007 | 10.19488 | 282° | 9km/h | 25588m | 5.2m/s | 0°C | 0% | 0hPa | 2.6V | 18:12:15 | 01:37:43 | 00:00:00 | |
| DK7TD | 2026-09-04 12:07:00 | 48.69007 | 10.19495 | 255° | 9km/h | 25576m | 4.9m/s | -48.6°C | 0.4% | 24.5hPa | 2.6V | 18:12:15 | 01:37:41 | 00:00:00 | |
| DL9SK-14 | 2026-09-04 12:07:00 | 48.69008 | 10.19498 | 255° | 9km/h | 25572m | 5.0m/s | -48.6°C | 0.9% | 24.5hPa | 2.6V | 00:00:00 | 00:00:00 | 00:00:00 | |
| DL1XH1-15 | 2026-09-04 12:06:58 | 48.69009 | 10.19508 | 254° | 5km/h | 25554m | 5.2m/s | -48.6°C | 3.5% | 24.6hPa | 2.6V | 08:30:00 | 01:37:37 | 00:00:00 | |
| HSKMA3-T | 2026-09-04 12:06:55 | 48.69010 | 10.19509 | 211° | 5km/h | 25548m | 6.7m/s | -48.6°C | 0.4% | 24.6hPa | 2.6V | 18:12:15 | 01:37:36 | 00:00:00 | |
| DL1XH-west | 2026-09-04 12:06:54 | 48.69011 | 10.19509 | 175° | 9km/h | 25542m | 6.2m/s | -48.6°C | 0.4% | 24.6hPa | 2.7V | 18:12:15 | 01:37:35 | 00:00:00 | |
| DF8AY | 2026-09-04 12:06:52 | 48.69016 | 10.19507 | 152° | 9km/h | 25531m | 5m/s | 0°C | 0% | 0hPa | 2.7V | 18:12:15 | 01:37:33 | 00:00:00 | |
| DL1XH1-15 | 2026-09-04 12:06:51 | 48.69019 | 10.19507 | 258° | 5km/h | 25496m | 5.3m/s | -48.7°C | 3.4% | 0hPa | 2.7V | 08:30:00 | 01:37:27 | 00:00:00 | |
| DK7TD | 2026-09-04 12:06:50 | 48.69018 | 10.19504 | 101° | 2km/h | 25519m | 5.8m/s | -48.5°C | 0.3% | 24.8hPa | 2.6V | 18:12:15 | 01:37:31 | 00:00:00 | |
| DL1XH-west | 2026-09-04 12:06:44 | 48.69018 | 10.19511 | 285° | 5km/h | 25484m | 5.4m/s | -48.5°C | 0.3% | 24.9hPa | 2.6V | 18:12:15 | 01:37:25 | 00:00:00 | |
| DF8AY | 2026-09-04 12:06:41 | 48.69021 | 10.19513 | 171° | 11km/h | 25468m | 6.6m/s | 0°C | 0% | 0hPa | 2.7V | 18:12:15 | 01:37:22 | 00:00:00 | |
| DL1ZP-14 | 2026-09-04 12:06:41 | 48.69021 | 10.19513 | 170° | 9km/h | 25468m | 6.6m/s | -48.6°C | 0.9% | 24.9hPa | 2.7V | 00:00:00 | 00:00:00 | 00:00:00 | |
| DL1XH1-15 | 2026-09-04 12:06:40 | 48.69035 | 10.19502 | 116° | 7km/h | 25439m | 5.8m/s | -48.8°C | 3.4% | 0hPa | 2.7V | 08:30:00 | 01:37:17 | 00:00:00 | |
| DK7TD | 2026-09-04 12:06:40 | 48.69028 | 10.19510 | 157° | 16km/h | 25457m | 4.7m/s | -48.7°C | 0.4% | 24.9hPa | 2.6V | 18:12:15 | 01:37:20 | 00:00:00 | |
| DL1XH-west | 2026-09-04 12:06:34 | 48.69036 | 10.19498 | 126° | 4km/h | 25428m | 6.3m/s | -48.9°C | 0.4% | 25.1hPa | 2.7V | 18:12:15 | 01:37:15 | 00:00:00 | |
| HSKMA3-T | 2026-09-04 12:06:33 | 48.69037 | 10.19497 | 110° | 2km/h | 25422m | 4.8m/s | -49°C | 0.4% | 25.1hPa | 2.6V | 18:12:15 | 01:37:14 | 00:00:00 | |
| DG9SBQ-11 | 2026-09-04 12:06:32 | 48.69037 | 10.19497 | 0° | 0km/h | 25422m | 4.8m/s | -49.0°C | 0.9% | 25.1hPa | 2.6V | 00:00:00 | 00:00:00 | 00:00:00 | |
| SONDE2-11 | 2026-09-04 12:06:30 | 48.69034 | 10.19493 | 62° | 4km/h | 25399m | 5.6m/s | -48.9°C | 0.9% | 25.2hPa | 2.6V | 00:00:00 | 00:00:00 | 00:00:00 | |
| DL1XH1-15 | 2026-09-04 12:06:29 | 48.69037 | 10.19485 | 126° | 13km/h | 25381m | 5.2m/s | -48.9°C | 0% | 0hPa | 2.6V | 08:30:00 | 01:37:07 | 00:00:00 | |
| DK7TD | 2026-09-04 12:06:29 | 48.69034 | 10.19493 | 63° | 5km/h | 25399m | 5.6m/s | -48.9°C | 0.4% | 25.2hPa | 2.7V | 18:12:15 | 01:37:10 | 00:00:00 | |
| DL1XH-west | 2026-09-04 12:06:23 | 48.69042 | 10.19470 | 117° | 15km/h | 25364m | 5.3m/s | -49°C | 0.4% | 25.4hPa | 2.7V | 18:12:15 | 01:37:04 | 00:00:00 | |
| DM0DOS-11 | 2026-09-04 12:06:23 | 48.69048 | 10.19455 | 46° | 5km/h | 25334m | 5.4m/s | -48.9°C | 3.4% | 25.4hPa | 2.7V | 08:30:00 | 01:36:59 | 00:00:00 | |
| HSKMA3-T | 2026-09-04 12:06:23 | 48.69044 | 10.19466 | 124° | 13km/h | 25358m | 6.8m/s | -49°C | 0.4% | 25.4hPa | 2.7V | 18:12:15 | 01:37:03 | 00:00:00 | |
| DK7TD | 2026-09-04 12:06:19 | 48.69048 | 10.19457 | 98° | 5km/h | 25340m | 6.9m/s | -48.9°C | 0.4% | 25.4hPa | 2.6V | 18:12:15 | 01:37:00 | 00:00:00 | |
| DL1XH1-15 | 2026-09-04 12:06:18 | 48.69045 | 10.19452 | 35° | 5km/h | 25324m | 5.6m/s | 0°C | 0% | 0hPa | 2.7V | 08:30:00 | 01:36:57 | 00:00:00 | |
| DL1XH-west | 2026-09-04 12:06:13 | 48.69045 | 10.19449 | 122° | 5km/h | 25306m | 5.7m/s | -49.1°C | 0.4% | 25.6hPa | 2.6V | 18:12:15 | 01:36:54 | 00:00:00 | |
| HSKMA3-T | 2026-09-04 12:06:12 | 48.69046 | 10.19447 | 106° | 7km/h | 25301m | 6.2m/s | -49°C | 0.4% | 25.6hPa | 2.6V | 18:12:15 | 01:36:53 | 00:00:00 | |
| DM0DOS-11 | 2026-09-04 12:06:12 | 48.69044 | 10.19433 | 84° | 11km/h | 25279m | 6.1m/s | -49°C | 3.5% | 25.7hPa | 2.6V | 08:30:00 | 01:36:49 | 00:00:00 | |
| DK7TD | 2026-09-04 12:06:08 | 48.69044 | 10.19433 | 85° | 11km/h | 25279m | 6.1m/s | -49°C | 0.4% | 25.7hPa | 2.6V | 18:12:15 | 01:36:49 | 00:00:00 | |
| DL1XH-west | 2026-09-04 12:06:03 | 48.69043 | 10.19408 | 79° | 11km/h | 25251m | 5.2m/s | -49.2°C | 0.3% | 25.8hPa | 2.6V | 18:12:15 | 01:36:44 | 00:00:00 | |
| HSKMA3-T | 2026-09-04 12:06:01 | 48.69044 | 10.19402 | 142° | 5km/h | 25239m | 5.9m/s | -49.2°C | 0.3% | 25.8hPa | 2.6V | 18:12:15 | 01:36:42 | 00:00:00 | |
| DM0DOS-11 | 2026-09-04 12:06:01 | 48.69048 | 10.19404 | 233° | 5km/h | 25222m | 6m/s | -49.2°C | 3.6% | 25.9hPa | 2.7V | 08:30:00 | 01:36:39 | 00:00:00 | |
| DK7TD | 2026-09-04 12:05:58 | 48.69047 | 10.19404 | 233° | 5km/h | 25222m | 6m/s | -49.2°C | 0.5% | 25.9hPa | 2.7V | 18:12:15 | 01:36:39 | 00:00:00 | |
| DL9SK-14 | 2026-09-04 12:05:57 | 48.69048 | 10.19406 | 233° | 5km/h | 25216m | 5.0m/s | -49.2°C | 0.9% | 25.9hPa | 2.6V | 00:00:00 | 00:00:00 | 00:00:00 | |
| DF2AP-13 | 2026-09-04 12:05:56 | 48.69049 | 10.19408 | 223° | 7km/h | 25211m | 6.1m/s | -49.2°C | 3.6% | 25.9hPa | 2.6V | 00:00:00 | 01:36:37 | 08:30:00 | |
| DL1XH1-15 | 2026-09-04 12:05:55 | 48.69054 | 10.19409 | 41° | 9km/h | 25176m | 5.6m/s | 0°C | 0% | 0hPa | 2.6V | 08:30:00 | 01:36:31 | 00:00:00 | |
| DL1XH-west | 2026-09-04 12:05:51 | 48.69056 | 10.19411 | 48° | 7km/h | 25183m | 6.2m/s | -49.4°C | 0.4% | 26.1hPa | 2.7V | 18:12:15 | 01:36:32 | 00:00:00 | |
| HSKMA3-T | 2026-09-04 12:05:50 | 48.69054 | 10.19409 | 42° | 9km/h | 25176m | 5.6m/s | -49.4°C | 0.5% | 26.1hPa | 2.6V | 18:12:15 | 01:36:31 | 00:00:00 | |
| DO3MHA-12 | 2026-09-04 12:05:50 | 48.69054 | 10.19408 | 42° | 4km/h | 25177m | 5.6m/s | -49.4°C | 3.6% | 26.0hPa | 2.6V | 00:00:00 | 01:36:31 | 00:00:00 | |
| DM0DOS-11 | 2026-09-04 12:05:49 | 48.69051 | 10.19404 | 54° | 7km/h | 25165m | 6.7m/s | -49.2°C | 3.5% | 26.1hPa | 2.6V | 08:30:00 | 01:36:29 | 00:00:00 | |
| DK7TD | 2026-09-04 12:05:47 | 48.69050 | 10.19402 | 78° | 4km/h | 25159m | 5.6m/s | -49.2°C | 0.4% | 26.1hPa | 2.7V | 18:12:15 | 01:36:28 | 00:00:00 | |
| DB0ND-19 | 2026-09-04 12:05:45 | 48.69050 | 10.19399 | 81° | 2km/h | 25148m | 6.4m/s | -49.3°C | 0.9% | 26.2hPa | 2.6V | 00:00:00 | 00:00:00 | 00:00:00 | |
| DL1XH1-15 | 2026-09-04 12:05:44 | 48.69050 | 10.19395 | 64° | 5km/h | 25113m | 5.9m/s | 0°C | 0% | 0hPa | 2.6V | 08:30:00 | 01:36:20 | 00:00:00 | |
| DM0DOS-11 | 2026-09-04 12:05:44 | 48.69047 | 10.19390 | 40° | 13km/h | 25101m | 4.9m/s | -49.2°C | 3.5% | 26.4hPa | 2.6V | 08:30:00 | 01:36:18 | 00:00:00 | |
| DL1XH-west | 2026-09-04 12:05:41 | 48.69050 | 10.19397 | 168° | 2km/h | 25124m | 6m/s | -49.3°C | 0.5% | 26.3hPa | 2.7V | 18:12:15 | 01:36:22 | 00:00:00 | |
| HSKMA3-T | 2026-09-04 12:05:40 | 48.69050 | 10.19397 | 120° | 2km/h | 25119m | 4.7m/s | -49.3°C | 0.5% | 26.3hPa | 2.7V | 18:12:15 | 01:36:21 | 00:00:00 | |
| DK7TD | 2026-09-04 12:05:37 | 48.69045 | 10.19387 | 40° | 13km/h | 25096m | 5.2m/s | -49.2°C | 0.4% | 26.4hPa | 2.6V | 18:12:15 | 01:36:17 | 00:00:00 | |
| DG9SBQ-11 | 2026-09-04 12:05:36 | 48.69047 | 10.19390 | 42° | 13km/h | 25101m | 4.9m/s | -49.2°C | 0.9% | 26.4hPa | 2.7V | 00:00:00 | 00:00:00 | 00:00:00 | |
| DL1XH1-15 | 2026-09-04 12:05:33 | 48.69034 | 10.19368 | 37° | 9km/h | 25056m | 5.4m/s | 0°C | 0% | 0hPa | 2.7V | 08:30:00 | 01:36:10 | 00:00:00 | |
| DM0DOS-11 | 2026-09-04 12:05:32 | 48.69032 | 10.19365 | 60° | 4km/h | 25045m | 6.5m/s | -49.4°C | 3.5% | 26.7hPa | 2.6V | 08:30:00 | 01:36:08 | 00:00:00 | |
| HSKMA3-T | 2026-09-04 12:05:30 | 48.69036 | 10.19371 | 37° | 9km/h | 25062m | 5.8m/s | -49.2°C | 0.4% | 26.5hPa | 2.6V | 18:12:15 | 01:36:11 | 00:00:00 | |
| DK7TD | 2026-09-04 12:05:26 | 48.69031 | 10.19364 | 81° | 4km/h | 25039m | 5.4m/s | -49.4°C | 0.4% | 26.6hPa | 2.6V | 18:12:15 | 01:36:07 | 00:00:00 | |
| DF2AP-13 | 2026-09-04 12:05:26 | 48.69031 | 10.19364 | 81° | 5km/h | 25039m | 5.3m/s | -49.3°C | 3.6% | 26.6hPa | 2.6V | 00:00:00 | 01:36:07 | 00:00:00 | |
| DK5PH-5 | 2026-09-04 12:05:25 | 48.69031 | 10.19362 | 63° | 7km/h | 25034m | 5.4m/s | -49.2°C | 3.6% | 26.6hPa | 2.6V | 00:00:00 | 01:36:06 | 00:00:00 | |
| DB0NH | 2026-09-04 12:05:24 | 48.69030 | 10.19360 | 49° | 7km/h | 25027m | 6.5m/s | -49.2°C | 3.6% | 26.7hPa | 2.7V | 00:00:00 | 01:36:05 | 00:00:00 | |
| DL1XH1-15 | 2026-09-04 12:05:23 | 48.69023 | 10.19345 | 67° | 7km/h | 24991m | 6.7m/s | 0°C | 0% | 0hPa | 2.6V | 08:30:00 | 01:35:59 | 00:00:00 | |
| DM0DOS-11 | 2026-09-04 12:05:22 | 48.69022 | 10.19342 | 61° | 7km/h | 24985m | 5.5m/s | -49.7°C | 3.6% | 26.9hPa | 2.7V | 08:30:00 | 01:35:58 | 00:00:00 | |
| HSKMA3-T | 2026-09-04 12:05:20 | 48.69024 | 10.19349 | 70° | 7km/h | 25003m | 6.3m/s | -49.4°C | 0.4% | 26.8hPa | 2.6V | 18:12:15 | 01:36:01 | 00:00:00 | |
| DK7TD | 2026-09-04 12:05:15 | 48.69021 | 10.19338 | 86° | 2km/h | 24974m | 6.8m/s | -49.6°C | 0.4% | 26.9hPa | 2.7V | 18:12:15 | 01:35:56 | 00:00:00 | |
| DB0ND-19 | 2026-09-04 12:05:14 | 48.69022 | 10.19339 | 225° | 4km/h | 24962m | 5.3m/s | -49.5°C | 0.9% | 26.9hPa | 2.7V | 00:00:00 | 00:00:00 | 00:00:00 | |
| DL1XH1-15 | 2026-09-04 12:05:13 | 48.69016 | 10.19342 | 349° | 7km/h | 24933m | 6.5m/s | 0°C | 0% | 0hPa | 2.7V | 08:30:00 | 01:35:49 | 00:00:00 | |
| DM0DOS-11 | 2026-09-04 12:05:12 | 48.69014 | 10.19342 | 352° | 5km/h | 24927m | 5.6m/s | -49.8°C | 3.6% | 27.1hPa | 2.6V | 08:30:00 | 01:35:48 | 00:00:00 | |
| HSKMA3-T | 2026-09-04 12:05:09 | 48.69018 | 10.19341 | 353° | 9km/h | 24939m | 5.8m/s | -49.7°C | 0.4% | 27.1hPa | 2.7V | 18:12:15 | 01:35:50 | 00:00:00 | |
| DK7TD | 2026-09-04 12:05:05 | 48.69011 | 10.19341 | 34° | 7km/h | 24915m | 6.7m/s | -49.7°C | 0.4% | 27.1hPa | 2.6V | 18:12:15 | 01:35:46 | 00:00:00 | |
| DL1XH1-15 | 2026-09-04 12:05:03 | 48.69018 | 10.19339 | 221° | 4km/h | 24876m | 6.4m/s | 0°C | 0% | 0hPa | 2.7V | 08:30:00 | 01:35:39 | 00:00:00 | |
| DM0DOS-11 | 2026-09-04 12:05:01 | 48.69018 | 10.19340 | 301° | 5km/h | 24870m | 5.2m/s | -50.2°C | 3.7% | 27.4hPa | 2.7V | 08:30:00 | 01:35:38 | 00:00:00 | |
| HSKMA3-T | 2026-09-04 12:04:58 | 48.69018 | 10.19339 | 222° | 4km/h | 24876m | 6.4m/s | -50.2°C | 0.5% | 27.3hPa | 2.7V | 18:12:15 | 01:35:39 | 00:00:00 | |
| DK7TD | 2026-09-04 12:04:54 | 48.69013 | 10.19349 | 294° | 13km/h | 24853m | 6m/s | -50.2°C | 0.4% | 27.4hPa | 2.6V | 18:12:15 | 01:35:35 | 00:00:00 | |
| DF3TZ-5 | 2026-09-04 12:04:53 | 48.69013 | 10.19354 | 279° | 13km/h | 24847m | 5.8m/s | -50.2°C | 0.9% | 27.4hPa | 2.6V | 00:00:00 | 00:00:00 | 00:00:00 | |
| DM0DOS-11 | 2026-09-04 12:04:51 | 48.69024 | 10.19363 | 182° | 18km/h | 24810m | 5.7m/s | -50.1°C | 3.6% | 27.6hPa | 2.6V | 08:30:00 | 01:35:28 | 00:00:00 | |
| HSKMA3-T | 2026-09-04 12:04:47 | 48.69024 | 10.19363 | 183° | 18km/h | 24810m | 5.7m/s | -50.1°C | 0.5% | 27.6hPa | 2.6V | 18:12:15 | 01:35:28 | 00:00:00 | |
| DK7TD | 2026-09-04 12:04:44 | 48.69038 | 10.19363 | 189° | 7km/h | 24787m | 5.8m/s | -50.2°C | 0.5% | 27.7hPa | 2.7V | 18:12:15 | 01:35:24 | 00:00:00 | |
| DM7RM-13 | 2026-09-04 12:04:42 | 48.69038 | 10.19363 | 190° | 7km/h | 24788m | 5.8m/s | -50.2°C | 1.0% | 27.7hPa | 2.6V | 00:00:00 | 00:00:00 | 00:00:00 | |
| DF7PN | 2026-09-04 12:04:41 | 48.69040 | 10.19367 | 244° | 7km/h | 24775m | 6.1m/s | -50.1°C | 1.0% | 27.8hPa | 2.6V | 00:00:00 | 00:00:00 | 00:00:00 | |
| AZAK | 2026-09-04 12:04:40 | 48.69041 | 10.19369 | 248° | 9km/h | 24770m | 4.8m/s | -50.1°C | 1.0% | 27.7hPa | 2.6V | 00:00:00 | 00:00:00 | 00:00:00 | |
| DM0DOS-11 | 2026-09-04 12:04:38 | 48.69043 | 10.19374 | 156° | 2km/h | 24752m | 5.6m/s | -50.2°C | 3.6% | 27.8hPa | 2.6V | 08:30:00 | 01:35:18 | 00:00:00 | |
| HSKMA3-T | 2026-09-04 12:04:37 | 48.69043 | 10.19374 | 157° | 2km/h | 24752m | 5.6m/s | -50.2°C | 0.4% | 27.8hPa | 2.6V | 18:12:15 | 01:35:18 | 00:00:00 | |
| DL1XH-west | 2026-09-04 12:04:36 | 48.69044 | 10.19373 | 155° | 4km/h | 24746m | 5.6m/s | -50.4°C | 0.4% | 27.8hPa | 2.6V | 18:12:15 | 01:35:17 | 00:00:00 | |
| DN1GJH-1 | 2026-09-04 12:04:35 | 48.69044 | 10.19373 | 156° | 4km/h | 24746m | 5.6m/s | -50.4°C | 1.0% | 27.8hPa | 2.6V | 00:00:00 | 00:00:00 | 00:00:00 | |
| DL1XH1-15 | 2026-09-04 12:04:33 | 48.69069 | 10.19366 | 193° | 20km/h | 24699m | 6.1m/s | 0°C | 0% | 0hPa | 2.6V | 08:30:00 | 01:35:09 | 00:00:00 | |
| DK7TD | 2026-09-04 12:04:32 | 48.69053 | 10.19371 | 162° | 15km/h | 24724m | 6.4m/s | -50.4°C | 0.5% | 28hPa | 2.7V | 18:12:15 | 01:35:13 | 00:00:00 | |
| HSKMA3-T | 2026-09-04 12:04:26 | 48.69078 | 10.19372 | 211° | 15km/h | 24689m | 5.2m/s | -50.6°C | 0.5% | 28.1hPa | 2.7V | 18:12:15 | 01:35:07 | 00:00:00 | |
| DL1XH-west | 2026-09-04 12:04:25 | 48.69080 | 10.19374 | 213° | 11km/h | 24683m | 6.9m/s | -50.7°C | 0.5% | 28.2hPa | 2.7V | 18:12:15 | 01:35:06 | 00:00:00 | |
| DK7TD | 2026-09-04 12:04:22 | 48.69083 | 10.19377 | 237° | 0km/h | 24665m | 6.3m/s | -50.9°C | 0.6% | 28.2hPa | 2.6V | 18:12:15 | 01:35:03 | 00:00:00 | |
| DL1XH-west | 2026-09-04 12:04:15 | 48.69089 | 10.19370 | 164° | 9km/h | 24625m | 6.8m/s | -50.9°C | 0.7% | 28.4hPa | 2.7V | 18:12:15 | 01:34:56 | 00:00:00 | |
| DK7TD | 2026-09-04 12:04:11 | 48.69101 | 10.19371 | 181° | 11km/h | 24603m | 6.4m/s | -50.8°C | 0.6% | 28.5hPa | 2.7V | 18:12:15 | 01:34:52 | 00:00:00 | |
| HSKMA3-T | 2026-09-04 12:04:06 | 48.69117 | 10.19366 | 158° | 16km/h | 24569m | 5.4m/s | -50.5°C | 0.5% | 28.6hPa | 2.6V | 18:12:15 | 01:34:46 | 00:00:00 | |
| DL1XH-west | 2026-09-04 12:04:04 | 48.69120 | 10.19363 | 147° | 16km/h | 24563m | 7m/s | -50.4°C | 0.4% | 28.7hPa | 2.6V | 18:12:15 | 01:34:45 | 00:00:00 | |
| OE5MMP-10 | 2026-09-04 12:04:03 | 48.69124 | 10.19359 | 142° | 20km/h | 24557m | 5.4m/s | 0°C | 0% | 0hPa | 2.6V | 00:00:00 | 01:34:44 | 00:00:00 | |
| DG9SBQ-11 | 2026-09-04 12:04:02 | 48.69124 | 10.19358 | 142° | 18km/h | 24557m | 5.5m/s | -50.4°C | 0.9% | 28.7hPa | 2.6V | 00:00:00 | 00:00:00 | 00:00:00 | |
| DM0DOS-11 | 2026-09-04 12:04:01 | 48.69151 | 10.19328 | 134° | 20km/h | 24521m | 5.6m/s | -50.3°C | 3.7% | 28.8hPa | 2.6V | 08:30:00 | 01:34:38 | 00:00:00 | |
| DK7TD | 2026-09-04 12:04:01 | 48.69133 | 10.19349 | 148° | 24km/h | 24544m | 6.6m/s | -50.4°C | 0.5% | 28.8hPa | 2.7V | 18:12:15 | 01:34:42 | 00:00:00 | |
| HSKMA3-T | 2026-09-04 12:03:54 | 48.69163 | 10.19316 | 154° | 16km/h | 24503m | 5.2m/s | -50.4°C | 0.5% | 28.9hPa | 2.7V | 18:12:15 | 01:34:35 | 00:00:00 | |
| DB0NH | 2026-09-04 12:03:54 | 48.69162 | 10.19316 | 155° | 20km/h | 24503m | 5.1m/s | -50.3°C | 3.6% | 28.9hPa | 2.7V | 00:00:00 | 01:34:35 | 00:00:00 | |
| DL1XH1-15 | 2026-09-04 12:03:53 | 48.69171 | 10.19307 | 133° | 11km/h | 24485m | 5.4m/s | 0°C | 0% | 0hPa | 2.6V | 08:30:00 | 01:34:32 | 00:00:00 | |
| DL1XH-west | 2026-09-04 12:03:53 | 48.69166 | 10.19313 | 152° | 15km/h | 24497m | 5.6m/s | -50.5°C | 0.4% | 29hPa | 2.7V | 18:12:15 | 01:34:34 | 00:00:00 | |
| DK7TD | 2026-09-04 12:03:51 | 48.69171 | 10.19307 | 134° | 11km/h | 24485m | 5.4m/s | -50.7°C | 0.4% | 29hPa | 2.6V | 18:12:15 | 01:34:32 | 00:00:00 | |
| DF3TZ-5 | 2026-09-04 12:03:51 | 48.69171 | 10.19307 | 133° | 11km/h | 24485m | 5.4m/s | -50.7°C | 0.9% | 29.0hPa | 2.7V | 00:00:00 | 00:00:00 | 00:00:00 | |
| DM0DOS-11 | 2026-09-04 12:03:50 | 48.69183 | 10.19290 | 131° | 24km/h | 24462m | 6.2m/s | -50.7°C | 3.7% | 29.1hPa | 2.7V | 08:30:00 | 01:34:28 | 00:00:00 | |
| HSKMA3-T | 2026-09-04 12:03:44 | 48.69195 | 10.19263 | 122° | 31km/h | 24444m | 4.9m/s | -51.1°C | 0.6% | 29.2hPa | 2.6V | 18:12:15 | 01:34:25 | 00:00:00 | |
| DL1XH-west | 2026-09-04 12:03:43 | 48.69200 | 10.19254 | 127° | 29km/h | 24439m | 6.6m/s | 0°C | 0% | 29.2hPa | 2.6V | 18:12:15 | 01:34:24 | 00:00:00 | |
| DK7TD | 2026-09-04 12:03:40 | 48.69212 | 10.19234 | 134° | 20km/h | 24420m | 7m/s | -51°C | 0.5% | 29.3hPa | 2.6V | 18:12:15 | 01:34:21 | 00:00:00 | |
| DO3MHA-12 | 2026-09-04 12:03:40 | 48.69212 | 10.19234 | 134° | 18km/h | 24421m | 7.0m/s | -50.9°C | 3.8% | 29.3hPa | 2.7V | 00:00:00 | 01:34:21 | 00:00:00 | |
| DG9SBQ-11 | 2026-09-04 12:03:39 | 48.69212 | 10.19234 | 135° | 20km/h | 24421m | 7.0m/s | -51.0°C | 1.0% | 29.3hPa | 2.7V | 00:00:00 | 00:00:00 | 00:00:00 | |
| DM0DOS-11 | 2026-09-04 12:03:38 | 48.69221 | 10.19220 | 139° | 15km/h | 24403m | 6.8m/s | -50.9°C | 3.8% | 29.4hPa | 2.7V | 08:30:00 | 01:34:18 | 00:00:00 | |
| HSKMA3-T | 2026-09-04 12:03:33 | 48.69234 | 10.19200 | 121° | 22km/h | 24379m | 5.4m/s | -50.8°C | 0.5% | 29.5hPa | 2.6V | 18:12:15 | 01:34:14 | 00:00:00 | |
| DL1XH-west | 2026-09-04 12:03:32 | 48.69237 | 10.19192 | 119° | 24km/h | 24375m | 4.5m/s | 0°C | 0% | 29.6hPa | 2.6V | 18:12:15 | 01:34:13 | 00:00:00 | |
| DK7TD | 2026-09-04 12:03:29 | 48.69248 | 10.19173 | 147° | 22km/h | 24357m | 5.6m/s | -51.1°C | 0.6% | 29.6hPa | 2.7V | 18:12:15 | 01:34:10 | 00:00:00 | |
| HSKMA3-T | 2026-09-04 12:03:23 | 48.69273 | 10.19141 | 125° | 18km/h | 24324m | 5.9m/s | -51.3°C | 0.6% | 29.8hPa | 2.7V | 18:12:15 | 01:34:04 | 00:00:00 | |
| DL1XH-west | 2026-09-04 12:03:22 | 48.69275 | 10.19136 | 127° | 15km/h | 24318m | 6.3m/s | 0°C | 0% | 0hPa | 2.7V | 18:12:15 | 01:34:03 | 00:00:00 | |
| DK7TD | 2026-09-04 12:03:18 | 48.69280 | 10.19119 | 99° | 15km/h | 24296m | 5.7m/s | -51.2°C | 0.6% | 29.9hPa | 2.6V | 18:12:15 | 01:33:59 | 00:00:00 | |
| HSKMA3-T | 2026-09-04 12:03:12 | 48.69290 | 10.19091 | 115° | 13km/h | 24261m | 4.6m/s | -51.4°C | 0.6% | 30.1hPa | 2.7V | 18:12:15 | 01:33:53 | 00:00:00 | |
| DL1XH-west | 2026-09-04 12:03:11 | 48.69291 | 10.19087 | 117° | 11km/h | 24256m | 6m/s | 0°C | 0% | 0hPa | 2.7V | 18:12:15 | 01:33:52 | 00:00:00 | |
| DK7TD | 2026-09-04 12:03:08 | 48.69294 | 10.19081 | 110° | 4km/h | 24237m | 6.8m/s | -51.6°C | 0.6% | 30.1hPa | 2.7V | 18:12:15 | 01:33:49 | 00:00:00 | |
| HSKMA3-T | 2026-09-04 12:03:02 | 48.69302 | 10.19072 | 151° | 13km/h | 24203m | 5.8m/s | -51.4°C | 0.6% | 30.3hPa | 2.7V | 18:12:15 | 01:33:43 | 00:00:00 | |
| DL1XH-west | 2026-09-04 12:03:00 | 48.69308 | 10.19064 | 129° | 18km/h | 24191m | 6m/s | 0°C | 0% | 0hPa | 2.6V | 18:12:15 | 01:33:41 | 00:00:00 | |
| DM7RM-13 | 2026-09-04 12:03:00 | 48.69308 | 10.19064 | 130° | 18km/h | 24191m | 6.0m/s | -51.4°C | 1.1% | 30.3hPa | 2.7V | 00:00:00 | 00:00:00 | 00:00:00 | |
| DO3MHA-11 | 2026-09-04 12:02:58 | 48.69314 | 10.19053 | 132° | 16km/h | 24180m | 6.1m/s | -51.4°C | 3.8% | 30.4hPa | 2.7V | 00:00:00 | 01:33:39 | 08:30:00 | |
| DM0DOS-11 | 2026-09-04 12:02:57 | 48.69321 | 10.19043 | 132° | 18km/h | 24169m | 4.7m/s | -51.5°C | 3.8% | 30.5hPa | 2.7V | 08:30:00 | 01:33:37 | 00:00:00 | |
| DK7TD | 2026-09-04 12:02:57 | 48.69317 | 10.19048 | 136° | 18km/h | 24174m | 5.1m/s | -51.4°C | 0.5% | 30.5hPa | 2.7V | 18:12:15 | 01:33:38 | 00:00:00 | |
| HSKMA3-T | 2026-09-04 12:02:51 | 48.69330 | 10.19017 | 123° | 11km/h | 24140m | 5.4m/s | -51.7°C | 0.6% | 30.6hPa | 2.7V | 18:12:15 | 01:33:32 | 00:00:00 | |
| DL1XH-west | 2026-09-04 12:02:50 | 48.69332 | 10.19013 | 122° | 11km/h | 24134m | 5.1m/s | 0°C | 0% | 0hPa | 2.7V | 18:12:15 | 01:33:31 | 00:00:00 | |
| DK7TD | 2026-09-04 12:02:47 | 48.69336 | 10.18997 | 108° | 18km/h | 24117m | 5.5m/s | -51.9°C | 0.6% | 30.7hPa | 2.6V | 18:12:15 | 01:33:28 | 00:00:00 | |
| DM0DOS-11 | 2026-09-04 12:02:46 | 48.69337 | 10.18990 | 114° | 20km/h | 24111m | 6.8m/s | -51.9°C | 3.9% | 30.8hPa | 2.6V | 08:30:00 | 01:33:27 | 00:00:00 | |
| OE9MKV-15 | 2026-09-04 12:02:45 | 48.69340 | 10.18983 | 123° | 27km/h | 24105m | 5.5m/s | -51.9°C | 3.9% | 30.8hPa | 2.6V | 00:00:00 | 01:33:26 | 00:00:00 | |
| DG9SBQ-11 | 2026-09-04 12:02:43 | 48.69343 | 10.18976 | 124° | 24km/h | 24100m | 4.5m/s | -52.0°C | 1.0% | 30.8hPa | 2.6V | 00:00:00 | 00:00:00 | 00:00:00 | |
| DM0DOS-11 | 2026-09-04 12:02:41 | 48.69364 | 10.18899 | 107° | 26km/h | 24055m | 6.6m/s | -52.2°C | 3.9% | 31hPa | 2.6V | 08:30:00 | 01:33:17 | 00:00:00 | |
| HSKMA3-T | 2026-09-04 12:02:41 | 48.69353 | 10.18948 | 111° | 31km/h | 24082m | 5.8m/s | -52.1°C | 0.6% | 30.9hPa | 2.6V | 18:12:15 | 01:33:22 | 00:00:00 | |
| DK7TD | 2026-09-04 12:02:36 | 48.69364 | 10.18899 | 108° | 26km/h | 24055m | 6.6m/s | -52.2°C | 0.6% | 31hPa | 2.6V | 18:12:15 | 01:33:17 | 00:00:00 | |
| DJ2DS-15 | 2026-09-04 12:02:36 | 48.69364 | 10.18899 | 108° | 27km/h | 24055m | 6.6m/s | 0°C | 0% | 0hPa | 2.6V | 00:00:00 | 01:33:17 | 00:00:00 | |
| AZAK | 2026-09-04 12:02:35 | 48.69364 | 10.18899 | 109° | 26km/h | 24055m | 6.6m/s | -52.2°C | 1.0% | 31.0hPa | 2.6V | 00:00:00 | 00:00:00 | 00:00:00 | |
| DO9HM | 2026-09-04 12:02:33 | 48.69368 | 10.18879 | 109° | 27km/h | 24044m | 5.3m/s | -52.3°C | 1.1% | 31.1hPa | 2.6V | 00:00:00 | 00:00:00 | 00:00:00 | |
| DL1ZP-14 | 2026-09-04 12:02:32 | 48.69372 | 10.18861 | 105° | 22km/h | 24033m | 4.6m/s | -52.4°C | 1.1% | 31.1hPa | 2.6V | 00:00:00 | 00:00:00 | 00:00:00 | |
| OE5WHR-10 | 2026-09-04 12:02:31 | 48.69373 | 10.18852 | 102° | 29km/h | 24028m | 4.6m/s | -52.4°C | 4.0% | 31.1hPa | 2.6V | 00:00:00 | 00:00:00 | 00:00:00 | |
| DJ8HS-15 | 2026-09-04 12:02:30 | 48.69375 | 10.18842 | 97° | 29km/h | 24023m | 6.4m/s | -52.3°C | 4.0% | 31.1hPa | 2.7V | 00:00:00 | 01:33:11 | 00:00:00 | |
| IW2NTF | 2026-09-04 12:02:29 | 48.69375 | 10.18818 | 89° | 33km/h | 24011m | 4.6m/s | -52.4°C | 4% | 31.2hPa | 2.7V | 08:30:00 | 01:33:09 | 00:00:00 | |
| HSKMA3-T | 2026-09-04 12:02:28 | 48.69375 | 10.18818 | 89° | 33km/h | 24011m | 4.6m/s | -52.4°C | 0.7% | 31.2hPa | 2.7V | 18:12:15 | 01:33:09 | 00:00:00 | |
| DO3MHA-11 | 2026-09-04 12:02:28 | 48.69375 | 10.18818 | 90° | 27km/h | 24012m | 4.6m/s | -52.3°C | 4.0% | 31.2hPa | 2.7V | 00:00:00 | 01:33:09 | 00:00:00 | |
| DM0DOS-11 | 2026-09-04 12:02:27 | 48.69375 | 10.18795 | 88° | 27km/h | 24000m | 6.1m/s | -52.5°C | 4% | 31.3hPa | 2.7V | 08:30:00 | 01:33:07 | 00:00:00 | |
| DK7TD | 2026-09-04 12:02:26 | 48.69375 | 10.18795 | 89° | 29km/h | 24000m | 6.1m/s | -52.5°C | 0.7% | 31.3hPa | 2.7V | 18:12:15 | 01:33:07 | 00:00:00 | |
| DF8AY | 2026-09-04 12:02:24 | 48.69374 | 10.18774 | 86° | 27km/h | 23990m | 5.8m/s | 0°C | 0% | 0hPa | 2.6V | 18:12:15 | 01:33:05 | 00:00:00 | |
| DB0NH | 2026-09-04 12:02:24 | 48.69374 | 10.18774 | 86° | 27km/h | 23990m | 5.8m/s | -52.7°C | 4.1% | 31.3hPa | 2.6V | 00:00:00 | 01:33:05 | 08:30:00 | |
| DF2AP-13 | 2026-09-04 12:02:21 | 48.69372 | 10.18743 | 87° | 26km/h | 23972m | 6.2m/s | -52.7°C | 4.1% | 31.4hPa | 2.6V | 00:00:00 | 01:33:02 | 00:00:00 | |
| DB0UT-7 | 2026-09-04 12:02:20 | 48.69372 | 10.18734 | 91° | 26km/h | 23966m | 5.7m/s | -52.6°C | 4.0% | 31.4hPa | 2.6V | 00:00:00 | 01:33:01 | 08:30:00 | |
| OE5MMP-10 | 2026-09-04 12:02:19 | 48.69372 | 10.18725 | 92° | 27km/h | 23961m | 4.6m/s | 0°C | 0% | 0hPa | 2.7V | 00:00:00 | 01:33:00 | 08:30:00 | |
| IW2NTF | 2026-09-04 12:02:18 | 48.69371 | 10.18691 | 85° | 35km/h | 23944m | 4.9m/s | -52.9°C | 4% | 31.6hPa | 2.7V | 08:30:00 | 01:32:57 | 00:00:00 | |
| HSKMA3-T | 2026-09-04 12:02:18 | 48.69372 | 10.18715 | 90° | 27km/h | 23956m | 5.4m/s | -52.7°C | 0.6% | 31.5hPa | 2.6V | 18:12:15 | 01:32:59 | 00:00:00 | |
| DK7TD | 2026-09-04 12:02:16 | 48.69371 | 10.18678 | 85° | 35km/h | 23940m | 4.7m/s | -52.9°C | 0.7% | 31.6hPa | 2.6V | 18:12:15 | 01:32:56 | 00:00:00 | |
| DF8AY | 2026-09-04 12:02:13 | 48.69369 | 10.18653 | 86° | 31km/h | 23928m | 5.6m/s | 0°C | 0% | 0hPa | 2.6V | 18:12:15 | 01:32:54 | 00:00:00 | |
| DM0DOS-11 | 2026-09-04 12:02:10 | 48.69353 | 10.18573 | 66° | 26km/h | 23885m | 6.2m/s | -53.1°C | 4.3% | 31.8hPa | 2.7V | 08:30:00 | 01:32:46 | 00:00:00 | |
| DK7TD | 2026-09-04 12:02:04 | 48.69351 | 10.18564 | 72° | 29km/h | 23879m | 5.8m/s | -53.1°C | 0.8% | 31.9hPa | 2.7V | 18:12:15 | 01:32:45 | 00:00:00 | |
| DF8AY | 2026-09-04 12:02:02 | 48.69348 | 10.18541 | 81° | 29km/h | 23868m | 5.3m/s | 0°C | 0% | 0hPa | 2.6V | 18:12:15 | 01:32:43 | 00:00:00 | |
| HSKMA3-T | 2026-09-04 12:02:01 | 48.69347 | 10.18531 | 84° | 27km/h | 23862m | 5.8m/s | -53°C | 0.8% | 32hPa | 2.6V | 18:12:15 | 01:32:42 | 00:00:00 | |
| DM0DOS-11 | 2026-09-04 12:02:00 | 48.69333 | 10.18490 | 31° | 18km/h | 23830m | 6.7m/s | -53.1°C | 4.1% | 32.1hPa | 2.6V | 08:30:00 | 01:32:36 | 00:00:00 | |
| IW2NTF | 2026-09-04 12:01:59 | 48.69329 | 10.18486 | 25° | 16km/h | 23823m | 5.5m/s | -53°C | 4.1% | 32.2hPa | 2.6V | 08:30:00 | 01:32:35 | 00:00:00 | |
| DK7TD | 2026-09-04 12:01:54 | 48.69329 | 10.18486 | 26° | 16km/h | 23823m | 5.5m/s | -53°C | 0.7% | 32.2hPa | 2.6V | 18:12:15 | 01:32:35 | 00:00:00 | |
| HSKMA3-T | 2026-09-04 12:01:50 | 48.69316 | 10.18471 | 61° | 15km/h | 23801m | 6.2m/s | -53.2°C | 0.8% | 32.3hPa | 2.6V | 18:12:15 | 01:32:31 | 00:00:00 | |
| DM0DOS-11 | 2026-09-04 12:01:50 | 48.69306 | 10.18441 | 52° | 22km/h | 23774m | 4m/s | -53.1°C | 4.1% | 32.4hPa | 2.6V | 08:30:00 | 01:32:26 | 00:00:00 | |
| DO3MHA-12 | 2026-09-04 12:01:50 | 48.69316 | 10.18471 | 61° | 18km/h | 23802m | 6.2m/s | -53.1°C | 4.2% | 32.2hPa | 2.7V | 00:00:00 | 01:32:31 | 00:00:00 | |
| OE5WHR-10 | 2026-09-04 12:01:49 | 48.69315 | 10.18466 | 68° | 16km/h | 23795m | 5.7m/s | -53.1°C | 4.2% | 32.3hPa | 2.7V | 00:00:00 | 01:32:30 | 00:00:00 | |
| DO3MHA-11 | 2026-09-04 12:01:48 | 48.69313 | 10.18460 | 70° | 18km/h | 23790m | 4.6m/s | -53.0°C | 4.1% | 32.3hPa | 2.7V | 00:00:00 | 01:32:29 | 00:00:00 | |
| IW2NTF | 2026-09-04 12:01:47 | 48.69296 | 10.18425 | 37° | 15km/h | 23758m | 4.5m/s | -52.9°C | 4.1% | 32.5hPa | 2.7V | 08:30:00 | 01:32:23 | 00:00:00 | |
| DF3TZ-5 | 2026-09-04 12:01:47 | 48.69309 | 10.18447 | 58° | 22km/h | 23779m | 5.3m/s | -53.1°C | 1.1% | 32.4hPa | 2.6V | 00:00:00 | 00:00:00 | 00:00:00 | |
| DK7TD | 2026-09-04 12:01:43 | 48.69299 | 10.18429 | 44° | 18km/h | 23763m | 5.6m/s | -53°C | 0.8% | 32.5hPa | 2.6V | 18:12:15 | 01:32:24 | 00:00:00 | |
| DM0DOS-11 | 2026-09-04 12:01:40 | 48.69277 | 10.18393 | 64° | 11km/h | 23722m | 4.8m/s | -53.2°C | 4% | 32.7hPa | 2.7V | 08:30:00 | 01:32:16 | 00:00:00 | |
| HSKMA3-T | 2026-09-04 12:01:35 | 48.69277 | 10.18393 | 65° | 11km/h | 23723m | 4.8m/s | -53.2°C | 0.7% | 32.7hPa | 2.7V | 18:12:15 | 01:32:16 | 00:00:00 | |
| DG9SBQ-11 | 2026-09-04 12:01:34 | 48.69277 | 10.18393 | 66° | 11km/h | 23723m | 4.8m/s | -53.2°C | 1.1% | 32.7hPa | 2.6V | 00:00:00 | 00:00:00 | 00:00:00 | |
| IW2NTF | 2026-09-04 12:01:33 | 48.69273 | 10.18379 | 61° | 16km/h | 23707m | 5m/s | -53.4°C | 4.2% | 32.8hPa | 2.6V | 08:30:00 | 01:32:13 | 00:00:00 | |
| DK7TD | 2026-09-04 12:01:33 | 48.69274 | 10.18384 | 66° | 15km/h | 23713m | 6.4m/s | -53.4°C | 0.8% | 32.7hPa | 2.7V | 18:12:15 | 01:32:14 | 00:00:00 | |
| NBG1-10 | 2026-09-04 12:01:31 | 48.69270 | 10.18374 | 54° | 11km/h | 23702m | 4.8m/s | -53.3°C | 4.2% | 32.7hPa | 2.6V | 00:00:00 | 01:32:12 | 08:30:00 | |
| DM0DOS-11 | 2026-09-04 12:01:30 | 48.69252 | 10.18360 | 20° | 18km/h | 23669m | 5.5m/s | -53.8°C | 4.3% | 32.9hPa | 2.6V | 08:30:00 | 01:32:06 | 00:00:00 | |
| DJ8HS-15 | 2026-09-04 12:01:30 | 48.69268 | 10.18370 | 45° | 11km/h | 23697m | 6.0m/s | -53.3°C | 4.2% | 32.8hPa | 2.7V | 00:00:00 | 01:32:11 | 00:00:00 | |
| PG1ADW-2 | 2026-09-04 12:01:29 | 48.69265 | 10.18367 | 30° | 16km/h | 23691m | 5.9m/s | -53.3°C | 4.2% | 32.8hPa | 2.7V | 00:00:00 | 00:00:00 | 00:00:00 | |
| DO3MHA-11 | 2026-09-04 12:01:28 | 48.69262 | 10.18365 | 15° | 15km/h | 23685m | 4.9m/s | -53.4°C | 4.2% | 32.8hPa | 2.7V | 00:00:00 | 01:32:09 | 08:30:00 | |
| OE5MMP-10 | 2026-09-04 12:01:27 | 48.69259 | 10.18364 | 13° | 15km/h | 23680m | 5.0m/s | 0°C | 0% | 0hPa | 2.7V | 00:00:00 | 01:32:08 | 00:00:00 | |
| DK5PH-5 | 2026-09-04 12:01:25 | 48.69251 | 10.18360 | 21° | 11km/h | 23669m | 5.4m/s | -53.8°C | 4.3% | 32.9hPa | 2.7V | 00:00:00 | 01:32:06 | 00:00:00 | |
| DB0NH | 2026-09-04 12:01:24 | 48.69247 | 10.18358 | 18° | 11km/h | 23663m | 5.3m/s | -53.8°C | 4.3% | 32.9hPa | 2.7V | 00:00:00 | 01:32:05 | 00:00:00 | |
| IW2NTF | 2026-09-04 12:01:23 | 48.69239 | 10.18355 | 7° | 15km/h | 23652m | 4.9m/s | -53.6°C | 4.2% | 33hPa | 2.7V | 08:30:00 | 01:32:03 | 00:00:00 | |
| HSKMA3-T | 2026-09-04 12:01:23 | 48.69243 | 10.18356 | 12° | 16km/h | 23658m | 5.9m/s | -53.7°C | 0.8% | 33hPa | 2.6V | 18:12:15 | 01:32:04 | 00:00:00 | |
| DK7TD | 2026-09-04 12:01:22 | 48.69239 | 10.18355 | 8° | 15km/h | 23652m | 4.9m/s | -53.6°C | 0.8% | 33hPa | 2.7V | 18:12:15 | 01:32:03 | 00:00:00 | |
| DB0UT-7 | 2026-09-04 12:01:20 | 48.69232 | 10.18353 | 27° | 9km/h | 23643m | 6.2m/s | -53.6°C | 4.2% | 33.1hPa | 2.6V | 00:00:00 | 01:32:01 | 00:00:00 | |
| OE5DRO-10 | 2026-09-04 12:01:19 | 48.69230 | 10.18350 | 46° | 7km/h | 23637m | 5.2m/s | -53.6°C | 4.3% | 33.1hPa | 2.6V | 00:00:00 | 00:00:00 | 00:00:00 | |
| DO3MHA-11 | 2026-09-04 12:01:18 | 48.69228 | 10.18346 | 59° | 7km/h | 23632m | 4.9m/s | -53.6°C | 4.3% | 33.1hPa | 2.6V | 00:00:00 | 01:31:59 | 00:00:00 | |
| DM0DOS-11 | 2026-09-04 12:01:17 | 48.69226 | 10.18339 | 83° | 4km/h | 23614m | 4.8m/s | -53.7°C | 4.4% | 33.2hPa | 2.6V | 08:30:00 | 01:31:56 | 00:00:00 | |
| HSKMA3-T | 2026-09-04 12:01:12 | 48.69225 | 10.18332 | 62° | 7km/h | 23598m | 5m/s | -53.7°C | 0.9% | 33.4hPa | 2.7V | 18:12:15 | 01:31:53 | 00:00:00 | |
| DM0DOS-11 | 2026-09-04 12:01:10 | 48.69216 | 10.18319 | 72° | 5km/h | 23559m | 6.3m/s | -53.6°C | 4.3% | 33.5hPa | 2.7V | 08:30:00 | 01:31:46 | 00:00:00 | |
| HSKMA3-T | 2026-09-04 12:01:02 | 48.69215 | 10.18313 | 89° | 7km/h | 23543m | 6.5m/s | -53.6°C | 0.8% | 33.6hPa | 2.6V | 18:12:15 | 01:31:43 | 00:00:00 | |
| DK7TD | 2026-09-04 12:01:01 | 48.69215 | 10.18310 | 82° | 11km/h | 23537m | 5.6m/s | -53.5°C | 0.8% | 33.6hPa | 2.6V | 18:12:15 | 01:31:42 | 00:00:00 | |
| DL1ZP-14 | 2026-09-04 12:00:59 | 48.69213 | 10.18301 | 54° | 11km/h | 23526m | 6.1m/s | -53.5°C | 1.1% | 33.7hPa | 2.6V | 00:00:00 | 00:00:00 | 00:00:00 | |
| NBG1-10 | 2026-09-04 12:00:58 | 48.69211 | 10.18297 | 44° | 20km/h | 23521m | 4.9m/s | -53.4°C | 4.2% | 33.7hPa | 2.6V | 00:00:00 | 01:31:39 | 00:00:00 | |
| DM0DOS-11 | 2026-09-04 12:00:57 | 48.69202 | 10.18283 | 57° | 18km/h | 23504m | 5.6m/s | -53.5°C | 4.2% | 33.8hPa | 2.6V | 08:30:00 | 01:31:36 | 00:00:00 | |
| HSKMA3-T | 2026-09-04 12:00:52 | 48.69197 | 10.18268 | 64° | 11km/h | 23488m | 4.7m/s | -53.5°C | 0.8% | 33.9hPa | 2.6V | 18:12:15 | 01:31:33 | 00:00:00 | |
| DK7TD | 2026-09-04 12:00:51 | 48.69196 | 10.18264 | 72° | 11km/h | 23484m | 4m/s | -53.5°C | 0.8% | 33.9hPa | 2.7V | 18:12:15 | 01:31:32 | 00:00:00 | |
| DM0DOS-11 | 2026-09-04 12:00:50 | 48.69188 | 10.18232 | 46° | 16km/h | 23451m | 4.3m/s | -53.6°C | 4.4% | 34.1hPa | 2.7V | 08:30:00 | 01:31:26 | 00:00:00 | |
| DJ8HS-15 | 2026-09-04 12:00:50 | 48.69195 | 10.18259 | 80° | 20km/h | 23479m | 6.1m/s | -53.5°C | 4.3% | 33.9hPa | 2.6V | 00:00:00 | 01:31:31 | 00:00:00 | |
| IW2NTF | 2026-09-04 12:00:48 | 48.69181 | 10.18221 | 50° | 24km/h | 23441m | 6.2m/s | -53.6°C | 4.3% | 34.2hPa | 2.6V | 08:30:00 | 01:31:24 | 00:00:00 | |
| SONCRA | 2026-09-04 12:00:48 | 48.69192 | 10.18242 | 68° | 15km/h | 23462m | 6.3m/s | -53.7°C | 1.2% | 34.0hPa | 2.6V | 00:00:00 | 00:00:00 | 00:00:00 | |
| DL9SK-14 | 2026-09-04 12:00:47 | 48.69191 | 10.18237 | 55° | 15km/h | 23456m | 5.3m/s | -53.7°C | 1.2% | 34.1hPa | 2.6V | 00:00:00 | 00:00:00 | 00:00:00 | |
| DF3TZ-5 | 2026-09-04 12:00:45 | 48.69185 | 10.18227 | 46° | 20km/h | 23446m | 4.8m/s | -53.6°C | 1.1% | 34.1hPa | 2.6V | 00:00:00 | 00:00:00 | 00:00:00 | |
| HSKMA3-T | 2026-09-04 12:00:41 | 48.69173 | 10.18205 | 57° | 27km/h | 23430m | 4.4m/s | -53.7°C | 0.8% | 34.2hPa | 2.6V | 18:12:15 | 01:31:22 | 00:00:00 | |
| DK7TD | 2026-09-04 12:00:40 | 48.69170 | 10.18196 | 57° | 26km/h | 23425m | 6m/s | -53.8°C | 0.9% | 34.2hPa | 2.7V | 18:12:15 | 01:31:21 | 00:00:00 | |
| DO3MHA-12 | 2026-09-04 12:00:40 | 48.69170 | 10.18196 | 57° | 22km/h | 23425m | 6.0m/s | -53.7°C | 4.3% | 34.2hPa | 2.7V | 00:00:00 | 01:31:21 | 00:00:00 | |
| DG9SBQ-11 | 2026-09-04 12:00:39 | 48.69169 | 10.18196 | 58° | 26km/h | 23425m | 6.0m/s | -53.7°C | 1.2% | 34.2hPa | 2.7V | 00:00:00 | 00:00:00 | 00:00:00 | |
| DO3MHA-11 | 2026-09-04 12:00:37 | 48.69160 | 10.18175 | 55° | 22km/h | 23409m | 6.2m/s | -53.5°C | 4.2% | 34.3hPa | 2.7V | 00:00:00 | 01:31:18 | 00:00:00 | |
| DF1GD-15 | 2026-09-04 12:00:36 | 48.69160 | 10.18175 | 56° | 22km/h | 23409m | 6.2m/s | -53.6°C | 1.2% | 34.3hPa | 2.7V | 00:00:00 | 00:00:00 | 00:00:00 | |
| DM7RM-13 | 2026-09-04 12:00:35 | 48.69156 | 10.18168 | 53° | 24km/h | 23403m | 5.8m/s | -53.6°C | 1.2% | 34.3hPa | 2.7V | 00:00:00 | 00:00:00 | 00:00:00 | |
| DG9SBQ-11 | 2026-09-04 12:00:34 | 48.69153 | 10.18161 | 46° | 22km/h | 23398m | 4.9m/s | -53.6°C | 1.2% | 34.4hPa | 2.7V | 00:00:00 | 00:00:00 | 00:00:00 | |
| IW2NTF | 2026-09-04 12:00:33 | 48.69144 | 10.18152 | 24° | 20km/h | 23386m | 5.1m/s | -53.5°C | 4.3% | 34.4hPa | 2.7V | 08:30:00 | 01:31:14 | 00:00:00 | |
| HSKMA3-T | 2026-09-04 12:00:31 | 48.69135 | 10.18146 | 28° | 22km/h | 23376m | 6m/s | -53.6°C | 0.8% | 34.5hPa | 2.6V | 18:12:15 | 01:31:12 | 00:00:00 | |
| DK7TD | 2026-09-04 12:00:30 | 48.69130 | 10.18142 | 37° | 24km/h | 23370m | 5.5m/s | -53.6°C | 0.9% | 34.5hPa | 2.6V | 18:12:15 | 01:31:11 | 00:00:00 | |
| DO3MHA-12 | 2026-09-04 12:00:30 | 48.69130 | 10.18142 | 37° | 26km/h | 23370m | 5.5m/s | -53.5°C | 4.4% | 34.5hPa | 2.6V | 00:00:00 | 01:31:11 | 08:30:00 | |
| DL1ZP-14 | 2026-09-04 12:00:28 | 48.69121 | 10.18129 | 44° | 24km/h | 23360m | 4.4m/s | -53.5°C | 1.2% | 34.6hPa | 2.7V | 00:00:00 | 00:00:00 | 00:00:00 | |
| DO3MHA-11 | 2026-09-04 12:00:27 | 48.69117 | 10.18123 | 41° | 24km/h | 23356m | 5.6m/s | -53.5°C | 4.4% | 34.5hPa | 2.7V | 00:00:00 | 01:31:08 | 00:00:00 | |
| DK5PH-5 | 2026-09-04 12:00:25 | 48.69107 | 10.18113 | 30° | 22km/h | 23345m | 4.9m/s | -53.4°C | 4.3% | 34.6hPa | 2.7V | 00:00:00 | 01:31:06 | 00:00:00 | |
| IW2NTF | 2026-09-04 12:00:24 | 48.69085 | 10.18092 | 34° | 27km/h | 23323m | 5m/s | -53.4°C | 4.2% | 34.8hPa | 2.7V | 08:30:00 | 01:31:02 | 00:00:00 | |
| HSKMA3-T | 2026-09-04 12:00:21 | 48.69085 | 10.18092 | 34° | 27km/h | 23323m | 5m/s | -53.4°C | 0.8% | 34.8hPa | 2.7V | 18:12:15 | 01:31:02 | 00:00:00 | |
| DK7TD | 2026-09-04 12:00:19 | 48.69074 | 10.18083 | 22° | 22km/h | 23311m | 5.6m/s | -53.4°C | 0.8% | 34.8hPa | 2.7V | 18:12:15 | 01:31:00 | 00:00:00 | |
| DF2AP-13 | 2026-09-04 12:00:17 | 48.69062 | 10.18074 | 30° | 20km/h | 23295m | 5.2m/s | -53.3°C | 4.2% | 34.9hPa | 2.6V | 00:00:00 | 01:30:57 | 00:00:00 | |
| DF1GD-15 | 2026-09-04 12:00:16 | 48.69062 | 10.18074 | 31° | 18km/h | 23295m | 5.2m/s | -53.3°C | 1.1% | 34.9hPa | 2.6V | 00:00:00 | 00:00:00 | 00:00:00 | |
| DF3TZ-5 | 2026-09-04 12:00:14 | 48.69048 | 10.18066 | 12° | 22km/h | 23278m | 5.7m/s | -53.3°C | 1.1% | 35.0hPa | 2.6V | 00:00:00 | 00:00:00 | 00:00:00 | |
| IW2NTF | 2026-09-04 12:00:13 | 48.69035 | 10.18061 | 18° | 27km/h | 23267m | 6.5m/s | -53.2°C | 4.1% | 35.1hPa | 2.6V | 08:30:00 | 01:30:52 | 00:00:00 | |
| HSKMA3-T | 2026-09-04 12:00:10 | 48.69029 | 10.18058 | 19° | 27km/h | 23261m | 4.8m/s | -53.3°C | 0.8% | 35.1hPa | 2.6V | 18:12:15 | 01:30:51 | 00:00:00 | |
| DM0DOS-11 | 2026-09-04 12:00:10 | 48.69001 | 10.18047 | 20° | 20km/h | 23234m | 5.9m/s | -53.4°C | 4.2% | 35.2hPa | 2.6V | 08:30:00 | 01:30:46 | 00:00:00 | |
| DK7TD | 2026-09-04 12:00:09 | 48.69023 | 10.18055 | 16° | 26km/h | 23256m | 5.6m/s | -53.4°C | 0.7% | 35.1hPa | 2.6V | 18:12:15 | 01:30:50 | 00:00:00 | |
| DO3MHA-11 | 2026-09-04 12:00:07 | 48.69011 | 10.18051 | 10° | 18km/h | 23245m | 4.6m/s | -53.4°C | 4.1% | 35.2hPa | 2.7V | 00:00:00 | 01:30:48 | 00:00:00 | |
| DN1GJH-1 | 2026-09-04 12:00:06 | 48.69011 | 10.18051 | 11° | 22km/h | 23245m | 4.6m/s | -53.5°C | 1.1% | 35.2hPa | 2.7V | 00:00:00 | 00:00:00 | 00:00:00 | |
| DG9SBQ-11 | 2026-09-04 12:00:05 | 48.69006 | 10.18049 | 15° | 20km/h | 23240m | 5.9m/s | -53.6°C | 1.1% | 35.2hPa | 2.7V | 00:00:00 | 00:00:00 | 00:00:00 | |
| OE5WHR-10 | 2026-09-04 12:00:03 | 48.68992 | 10.18042 | 17° | 18km/h | 23223m | 5.6m/s | -53.6°C | 4.3% | 35.3hPa | 2.7V | 00:00:00 | 00:00:00 | 00:00:00 | |
| IW2NTF | 2026-09-04 12:00:02 | 48.68966 | 10.18043 | 353° | 16km/h | 23190m | 5.5m/s | -53.6°C | 4.3% | 35.5hPa | 2.7V | 08:30:00 | 01:30:38 | 00:00:00 | |
| HSKMA3-T | 2026-09-04 11:59:59 | 48.68975 | 10.18042 | 360° | 18km/h | 23200m | 6m/s | -53.7°C | 0.8% | 35.4hPa | 2.6V | 18:12:15 | 01:30:40 | 00:00:00 | |
| DK7TD | 2026-09-04 11:59:58 | 48.68970 | 10.18042 | 1° | 16km/h | 23195m | 4.8m/s | -53.6°C | 0.8% | 35.5hPa | 2.7V | 18:12:15 | 01:30:39 | 00:00:00 | |
| DK7TD | 2026-09-04 11:59:48 | 48.68926 | 10.18065 | 314° | 18km/h | 23140m | 5.4m/s | -53.7°C | 0.8% | 35.8hPa | 2.6V | 18:12:15 | 01:30:29 | 00:00:00 | |
| DO3MHA-11 | 2026-09-04 11:59:47 | 48.68923 | 10.18070 | 312° | 16km/h | 23136m | 4.8m/s | -53.6°C | 4.3% | 35.8hPa | 2.6V | 00:00:00 | 01:30:28 | 00:00:00 | |
| DM0DOS-11 | 2026-09-04 11:59:46 | 48.68917 | 10.18078 | 324° | 16km/h | 23124m | 5.1m/s | -53.4°C | 4.3% | 35.9hPa | 2.6V | 08:30:00 | 01:30:26 | 00:00:00 | |
| SONCRA | 2026-09-04 11:59:46 | 48.68917 | 10.18078 | 324° | 16km/h | 23124m | 5.1m/s | -53.4°C | 1.1% | 35.9hPa | 2.6V | 00:00:00 | 00:00:00 | 00:00:00 | |
| DL9SK-14 | 2026-09-04 11:59:45 | 48.68914 | 10.18082 | 325° | 16km/h | 23119m | 4.7m/s | -53.4°C | 1.2% | 35.9hPa | 2.6V | 00:00:00 | 00:00:00 | 00:00:00 | |
| HSKMA3-T | 2026-09-04 11:59:39 | 48.68898 | 10.18107 | 312° | 15km/h | 23091m | 6.1m/s | -53.6°C | 0.8% | 36.1hPa | 2.6V | 18:12:15 | 01:30:20 | 00:00:00 | |
| DK7TD | 2026-09-04 11:59:37 | 48.68893 | 10.18115 | 314° | 16km/h | 23081m | 5.6m/s | -53.6°C | 0.8% | 36.1hPa | 2.7V | 18:12:15 | 01:30:18 | 00:00:00 | |
| DO3MHA-11 | 2026-09-04 11:59:37 | 48.68893 | 10.18115 | 314° | 18km/h | 23082m | 5.6m/s | -53.6°C | 4.2% | 36.1hPa | 2.7V | 00:00:00 | 01:30:18 | 00:00:00 | |
| DM0DOS-11 | 2026-09-04 11:59:36 | 48.68887 | 10.18126 | 313° | 20km/h | 23070m | 5m/s | -53.7°C | 4.1% | 36.2hPa | 2.7V | 08:30:00 | 01:30:16 | 00:00:00 | |
| HSKMA3-T | 2026-09-04 11:59:27 | 48.68868 | 10.18168 | 268° | 11km/h | 23024m | 5.8m/s | -53.7°C | 0.9% | 36.5hPa | 2.6V | 18:12:15 | 01:30:08 | 00:00:00 | |
| DK7TD | 2026-09-04 11:59:26 | 48.68868 | 10.18172 | 263° | 11km/h | 23018m | 5.3m/s | -53.7°C | 0.9% | 36.5hPa | 2.6V | 18:12:15 | 01:30:07 | 00:00:00 | |
| DM0DOS-11 | 2026-09-04 11:59:26 | 48.68868 | 10.18177 | 257° | 13km/h | 23012m | 6.8m/s | -53.7°C | 4.5% | 36.5hPa | 2.6V | 08:30:00 | 01:30:06 | 00:00:00 | |
| DO3MHA-11 | 2026-09-04 11:59:26 | 48.68868 | 10.18172 | 263° | 13km/h | 23018m | 5.3m/s | -53.6°C | 4.4% | 36.4hPa | 2.6V | 00:00:00 | 01:30:07 | 00:00:00 | |
| DK5PH-5 | 2026-09-04 11:59:25 | 48.68868 | 10.18177 | 258° | 11km/h | 23012m | 6.7m/s | -53.7°C | 4.5% | 36.5hPa | 2.6V | 00:00:00 | 01:30:06 | 08:30:00 | |
| DB0NH | 2026-09-04 11:59:24 | 48.68869 | 10.18182 | 259° | 11km/h | 23006m | 5.9m/s | -53.7°C | 4.4% | 36.5hPa | 2.7V | 00:00:00 | 01:30:05 | 00:00:00 | |
| OE3JTB-15 | 2026-09-04 11:59:22 | 48.68869 | 10.18192 | 279° | 13km/h | 22995m | 6.4m/s | -53.8°C | 4.3% | 36.5hPa | 2.6V | 00:00:00 | 00:00:00 | 00:00:00 | |
| DM0DOS-11 | 2026-09-04 11:59:21 | 48.68862 | 10.18225 | 297° | 9km/h | 22954m | 6.1m/s | -53.5°C | 4.3% | 36.8hPa | 2.6V | 08:30:00 | 01:29:56 | 00:00:00 | |
| DK7TD | 2026-09-04 11:59:16 | 48.68863 | 10.18221 | 287° | 11km/h | 22960m | 6.3m/s | -53.6°C | 0.8% | 36.8hPa | 2.6V | 18:12:15 | 01:29:57 | 00:00:00 | |
| SONCRA | 2026-09-04 11:59:15 | 48.68861 | 10.18228 | 296° | 9km/h | 22949m | 5.2m/s | -53.5°C | 1.2% | 36.9hPa | 2.7V | 00:00:00 | 00:00:00 | 00:00:00 | |
| DL9SK-14 | 2026-09-04 11:59:14 | 48.68860 | 10.18232 | 285° | 9km/h | 22943m | 6.5m/s | -53.5°C | 1.2% | 36.9hPa | 2.7V | 00:00:00 | 00:00:00 | 00:00:00 | |
| OE9MKV-15 | 2026-09-04 11:59:13 | 48.68860 | 10.18232 | 286° | 13km/h | 22943m | 6.4m/s | -53.5°C | 4.4% | 36.9hPa | 2.7V | 00:00:00 | 01:29:54 | 00:00:00 | |
| DF3TZ-5 | 2026-09-04 11:59:12 | 48.68859 | 10.18240 | 280° | 11km/h | 22932m | 4.6m/s | -53.5°C | 1.2% | 37.0hPa | 2.7V | 00:00:00 | 00:00:00 | 00:00:00 | |
| DM0DOS-11 | 2026-09-04 11:59:10 | 48.68851 | 10.18259 | 318° | 9km/h | 22898m | 5.6m/s | -53.5°C | 4.4% | 37.2hPa | 2.7V | 08:30:00 | 01:29:46 | 00:00:00 | |
| HSKMA3-T | 2026-09-04 11:59:05 | 48.68851 | 10.18259 | 318° | 9km/h | 22898m | 5.6m/s | -53.6°C | 0.9% | 37.2hPa | 2.7V | 18:12:15 | 01:29:46 | 00:00:00 | |
| DK7TD | 2026-09-04 11:58:55 | 48.68829 | 10.18283 | 315° | 15km/h | 22840m | 5.1m/s | -53.3°C | 0.7% | 37.5hPa | 2.6V | 18:12:15 | 01:29:36 | 00:00:00 | |
| DL1ZP-14 | 2026-09-04 11:58:55 | 48.68829 | 10.18283 | 315° | 15km/h | 22840m | 5.1m/s | -53.3°C | 1.1% | 37.5hPa | 2.6V | 00:00:00 | 00:00:00 | 00:00:00 | |
| DB0NH | 2026-09-04 11:58:54 | 48.68826 | 10.18287 | 323° | 13km/h | 22835m | 4.8m/s | -53.2°C | 4.2% | 37.5hPa | 2.7V | 00:00:00 | 01:29:35 | 00:00:00 | |
| DK5PH-5 | 2026-09-04 11:58:53 | 48.68823 | 10.18290 | 336° | 13km/h | 22830m | 6.5m/s | -53.0°C | 4.2% | 37.5hPa | 2.7V | 00:00:00 | 01:29:34 | 00:00:00 | |
| DM7RM-13 | 2026-09-04 11:58:52 | 48.68823 | 10.18290 | 336° | 15km/h | 22830m | 6.5m/s | -53.1°C | 1.2% | 37.6hPa | 2.7V | 00:00:00 | 00:00:00 | 00:00:00 | |
| DO9HM | 2026-09-04 11:58:51 | 48.68820 | 10.18291 | 349° | 13km/h | 22824m | 4.9m/s | -52.9°C | 1.2% | 37.6hPa | 2.7V | 00:00:00 | 00:00:00 | 00:00:00 | |
| DM0DOS-11 | 2026-09-04 11:58:50 | 48.68803 | 10.18292 | 352° | 11km/h | 22784m | 6.4m/s | -52.9°C | 4.1% | 37.8hPa | 2.7V | 08:30:00 | 01:29:26 | 00:00:00 | |
| HSKMA3-T | 2026-09-04 11:58:50 | 48.68814 | 10.18293 | 348° | 7km/h | 22812m | 6m/s | -52.9°C | 0.8% | 37.7hPa | 2.6V | 18:12:15 | 01:29:31 | 00:00:00 | |
| DK7TD | 2026-09-04 11:58:44 | 48.68801 | 10.18293 | 338° | 11km/h | 22778m | 5.6m/s | -52.9°C | 0.7% | 37.9hPa | 2.7V | 18:12:15 | 01:29:25 | 00:00:00 | |
| HSKMA3-T | 2026-09-04 11:58:39 | 48.68782 | 10.18300 | 358° | 15km/h | 22750m | 6.2m/s | -52.9°C | 0.8% | 38.1hPa | 2.7V | 18:12:15 | 01:29:20 | 00:00:00 | |
| DM0DOS-11 | 2026-09-04 11:58:39 | 48.68768 | 10.18289 | 41° | 15km/h | 22722m | 5.1m/s | -52.7°C | 4.2% | 38.2hPa | 2.6V | 08:30:00 | 01:29:15 | 00:00:00 | |
| OE5WHR-10 | 2026-09-04 11:58:39 | 48.68782 | 10.18300 | 359° | 15km/h | 22750m | 6.2m/s | -52.8°C | 4.2% | 38.0hPa | 2.7V | 00:00:00 | 01:29:20 | 00:00:00 | |
| HARRO8 | 2026-09-04 11:58:37 | 48.68774 | 10.18296 | 39° | 13km/h | 22734m | 6.7m/s | -52.8°C | 1.1% | 38.2hPa | 2.7V | 00:00:00 | 00:00:00 | 00:00:00 | |
| DO3MHA-11 | 2026-09-04 11:58:34 | 48.68768 | 10.18288 | 42° | 15km/h | 22722m | 5.0m/s | -52.7°C | 4.2% | 38.2hPa | 2.7V | 00:00:00 | 01:29:15 | 00:00:00 | |
| DK7TD | 2026-09-04 11:58:34 | 48.68768 | 10.18289 | 42° | 15km/h | 22722m | 5.1m/s | -52.7°C | 0.8% | 38.2hPa | 2.6V | 18:12:15 | 01:29:15 | 00:00:00 | |
| DF1GD-15 | 2026-09-04 11:58:32 | 48.68766 | 10.18286 | 34° | 11km/h | 22717m | 6.1m/s | -52.7°C | 1.2% | 38.2hPa | 2.7V | 00:00:00 | 00:00:00 | 00:00:00 | |
| PG1ADW-2 | 2026-09-04 11:58:31 | 48.68760 | 10.18283 | 12° | 11km/h | 22706m | 5.9m/s | -52.7°C | 4.2% | 38.3hPa | 2.7V | 00:00:00 | 01:29:12 | 00:00:00 | |
| IW2NTF | 2026-09-04 11:58:30 | 48.68744 | 10.18283 | 349° | 16km/h | 22683m | 4.6m/s | -52.5°C | 4.1% | 38.5hPa | 2.6V | 08:30:00 | 01:29:08 | 00:00:00 | |
| DO9HM | 2026-09-04 11:58:30 | 48.68757 | 10.18282 | 7° | 16km/h | 22700m | 6.1m/s | -52.7°C | 1.2% | 38.3hPa | 2.7V | 00:00:00 | 00:00:00 | 00:00:00 | |
| DM0DOS-11 | 2026-09-04 11:58:28 | 48.68727 | 10.18277 | 38° | 20km/h | 22662m | 5.4m/s | -52.7°C | 4.1% | 38.6hPa | 2.7V | 08:30:00 | 01:29:04 | 00:00:00 | |
| HSKMA3-T | 2026-09-04 11:58:28 | 48.68748 | 10.18282 | 354° | 18km/h | 22689m | 6.2m/s | -52.7°C | 0.7% | 38.4hPa | 2.6V | 18:12:15 | 01:29:09 | 00:00:00 | |
| DK7TD | 2026-09-04 11:58:23 | 48.68727 | 10.18277 | 38° | 20km/h | 22662m | 5.4m/s | -52.7°C | 0.7% | 38.6hPa | 2.7V | 18:12:15 | 01:29:04 | 00:00:00 | |
| DK5PH-5 | 2026-09-04 11:58:23 | 48.68727 | 10.18277 | 39° | 13km/h | 22663m | 5.4m/s | -52.6°C | 4.1% | 38.5hPa | 2.6V | 00:00:00 | 01:29:04 | 00:00:00 | |
| DN1GJH-1 | 2026-09-04 11:58:22 | 48.68727 | 10.18277 | 39° | 20km/h | 22663m | 5.4m/s | -52.7°C | 1.1% | 38.6hPa | 2.6V | 00:00:00 | 00:00:00 | 00:00:00 | |
| DO3MHA-12 | 2026-09-04 11:58:20 | 48.68718 | 10.18262 | 54° | 15km/h | 22646m | 4.3m/s | -52.5°C | 4.0% | 38.6hPa | 2.6V | 00:00:00 | 01:29:01 | 00:00:00 | |
| DM0DOS-11 | 2026-09-04 11:58:18 | 48.68699 | 10.18244 | 6° | 15km/h | 22610m | 4.9m/s | -52.5°C | 4.2% | 38.9hPa | 2.6V | 08:30:00 | 01:28:54 | 00:00:00 | |
| HSKMA3-T | 2026-09-04 11:58:18 | 48.68711 | 10.18251 | 38° | 15km/h | 22630m | 4.9m/s | -52.6°C | 0.7% | 38.8hPa | 2.7V | 18:12:15 | 01:28:58 | 00:00:00 | |
| DK7TD | 2026-09-04 11:58:13 | 48.68699 | 10.18244 | 7° | 15km/h | 22610m | 4.9m/s | -52.5°C | 0.8% | 38.9hPa | 2.6V | 18:12:15 | 01:28:54 | 00:00:00 | |
| NBG1-10 | 2026-09-04 11:58:13 | 48.68699 | 10.18244 | 7° | 11km/h | 22610m | 4.8m/s | -52.5°C | 4.2% | 38.8hPa | 2.6V | 00:00:00 | 01:28:54 | 00:00:00 | |
| SONCRA | 2026-09-04 11:58:12 | 48.68694 | 10.18243 | 10° | 18km/h | 22604m | 6.4m/s | -52.6°C | 1.1% | 38.9hPa | 2.7V | 00:00:00 | 00:00:00 | 00:00:00 | |
| DL9SK-14 | 2026-09-04 11:58:11 | 48.68689 | 10.18241 | 15° | 20km/h | 22598m | 5.3m/s | -52.6°C | 1.1% | 39.0hPa | 2.7V | 00:00:00 | 00:00:00 | 00:00:00 | |
| DF3TZ-5 | 2026-09-04 11:58:10 | 48.68680 | 10.18236 | 20° | 18km/h | 22588m | 6.1m/s | -52.7°C | 1.1% | 39.0hPa | 2.7V | 00:00:00 | 00:00:00 | 00:00:00 | |
| OE5DRO-10 | 2026-09-04 11:58:09 | 48.68680 | 10.18236 | 21° | 11km/h | 22588m | 6.0m/s | -52.7°C | 4.1% | 39.0hPa | 2.7V | 00:00:00 | 00:00:00 | 08:30:00 | |
| AZAK | 2026-09-04 11:58:08 | 48.68675 | 10.18234 | 28° | 16km/h | 22582m | 5.3m/s | -52.8°C | 1.1% | 39.1hPa | 2.7V | 00:00:00 | 00:00:00 | 00:00:00 | |
| DM0DOS-11 | 2026-09-04 11:58:07 | 48.68661 | 10.18219 | 38° | 7km/h | 22554m | 6.2m/s | -52.6°C | 3.9% | 39.2hPa | 2.7V | 08:30:00 | 01:28:44 | 00:00:00 | |
| HSKMA3-T | 2026-09-04 11:58:04 | 48.68663 | 10.18221 | 38° | 11km/h | 22560m | 5.7m/s | -52.6°C | 0.6% | 39.2hPa | 2.7V | 18:12:15 | 01:28:45 | 00:00:00 | |
| DK7TD | 2026-09-04 11:58:02 | 48.68660 | 10.18217 | 28° | 5km/h | 22549m | 4.8m/s | -52.6°C | 0.6% | 39.2hPa | 2.7V | 18:12:15 | 01:28:43 | 00:00:00 | |
| DB0ND-19 | 2026-09-04 11:57:59 | 48.68654 | 10.18214 | 8° | 11km/h | 22533m | 4.9m/s | -52.5°C | 1.0% | 39.3hPa | 2.6V | 00:00:00 | 00:00:00 | 00:00:00 | |
| OE5WHR-10 | 2026-09-04 11:57:57 | 48.68648 | 10.18214 | 345° | 7km/h | 22522m | 5.5m/s | -52.6°C | 3.9% | 39.3hPa | 2.6V | 00:00:00 | 00:00:00 | 00:00:00 | |
| DM0DOS-11 | 2026-09-04 11:57:55 | 48.68639 | 10.18215 | 21° | 11km/h | 22501m | 5.2m/s | -52.9°C | 4% | 39.5hPa | 2.6V | 08:30:00 | 01:28:34 | 00:00:00 | |
| HSKMA3-T | 2026-09-04 11:57:53 | 48.68639 | 10.18215 | 21° | 11km/h | 22501m | 5.2m/s | -52.9°C | 0.7% | 39.5hPa | 2.6V | 18:12:15 | 01:28:34 | 00:00:00 | |
| DK7TD | 2026-09-04 11:57:51 | 48.68635 | 10.18211 | 56° | 7km/h | 22490m | 6.4m/s | -53.3°C | 0.7% | 39.6hPa | 2.6V | 18:12:15 | 01:28:32 | 00:00:00 | |
| DO9HM | 2026-09-04 11:57:50 | 48.68634 | 10.18209 | 99° | 5km/h | 22485m | 5.1m/s | -53.3°C | 1.1% | 39.6hPa | 2.7V | 00:00:00 | 00:00:00 | 00:00:00 | |
| DM7RM-13 | 2026-09-04 11:57:49 | 48.68634 | 10.18209 | 99° | 5km/h | 22485m | 5.1m/s | -53.3°C | 1.1% | 39.6hPa | 2.7V | 00:00:00 | 00:00:00 | 00:00:00 | |
| AZAK | 2026-09-04 11:57:48 | 48.68636 | 10.18205 | 115° | 5km/h | 22474m | 6.3m/s | -53.5°C | 1.1% | 39.7hPa | 2.7V | 00:00:00 | 00:00:00 | 00:00:00 | |
| DM0DOS-11 | 2026-09-04 11:57:47 | 48.68642 | 10.18201 | 179° | 5km/h | 22447m | 5m/s | -53.7°C | 4.2% | 39.9hPa | 2.7V | 08:30:00 | 01:28:24 | 00:00:00 | |
| DL6DJ-15 | 2026-09-04 11:57:46 | 48.68637 | 10.18202 | 149° | 5km/h | 22463m | 5.5m/s | -53.6°C | 1.1% | 39.8hPa | 2.7V | 00:00:00 | 00:00:00 | 00:00:00 | |
| DK7TD | 2026-09-04 11:57:41 | 48.68644 | 10.18199 | 100° | 4km/h | 22436m | 4.7m/s | -53.9°C | 0.8% | 40hPa | 2.7V | 18:12:15 | 01:28:22 | 00:00:00 | |
| DK7TD | 2026-09-04 11:57:30 | 48.68644 | 10.18157 | 110° | 7km/h | 22383m | 4.4m/s | -54.5°C | 0.8% | 40.3hPa | 2.6V | 18:12:15 | 01:28:11 | 00:00:00 | |
| DO3MHA-12 | 2026-09-04 11:57:30 | 48.68644 | 10.18157 | 111° | 13km/h | 22383m | 4.3m/s | -54.4°C | 4.3% | 40.2hPa | 2.6V | 00:00:00 | 01:28:11 | 08:30:00 | |
| DM7RM-13 | 2026-09-04 11:57:29 | 48.68644 | 10.18157 | 111° | 7km/h | 22383m | 4.4m/s | -54.4°C | 1.2% | 40.3hPa | 2.6V | 00:00:00 | 00:00:00 | 00:00:00 | |
| DM0DOS-11 | 2026-09-04 11:57:28 | 48.68643 | 10.18125 | 76° | 16km/h | 22346m | 6.2m/s | -54.6°C | 4.5% | 40.5hPa | 2.6V | 08:30:00 | 01:28:04 | 00:00:00 | |
| DK7TD | 2026-09-04 11:57:19 | 48.68638 | 10.18103 | 79° | 11km/h | 22325m | 5m/s | -54.8°C | 0.9% | 40.7hPa | 2.6V | 18:12:15 | 01:28:00 | 00:00:00 | |
| HSKMA3-T | 2026-09-04 11:57:17 | 48.68637 | 10.18095 | 68° | 11km/h | 22314m | 5.9m/s | -55°C | 0.9% | 40.8hPa | 2.6V | 18:12:15 | 01:27:58 | 00:00:00 | |
| DK7TD | 2026-09-04 11:57:10 | 48.68623 | 10.18080 | 35° | 13km/h | 22272m | 5.5m/s | -55°C | 1% | 41hPa | 2.6V | 18:12:15 | 01:27:50 | 00:00:00 | |
| HSKMA3-T | 2026-09-04 11:57:06 | 48.68619 | 10.18070 | 70° | 13km/h | 22256m | 4.5m/s | -55°C | 1% | 41.1hPa | 2.7V | 18:12:15 | 01:27:47 | 00:00:00 | |
| DM0DOS-11 | 2026-09-04 11:57:05 | 48.68603 | 10.18057 | 343° | 13km/h | 22225m | 4.4m/s | -54.7°C | 4.6% | 41.3hPa | 2.7V | 08:30:00 | 01:27:41 | 00:00:00 | |
| DK7TD | 2026-09-04 11:56:58 | 48.68596 | 10.18060 | 338° | 18km/h | 22215m | 5.6m/s | -54.8°C | 1% | 41.4hPa | 2.6V | 18:12:15 | 01:27:39 | 00:00:00 | |
| HSKMA3-T | 2026-09-04 11:56:54 | 48.68583 | 10.18069 | 343° | 5km/h | 22195m | 5m/s | -54.6°C | 1% | 41.5hPa | 2.7V | 18:12:15 | 01:27:35 | 00:00:00 | |
| OE5WHR-10 | 2026-09-04 11:56:54 | 48.68583 | 10.18069 | 344° | 9km/h | 22195m | 4.9m/s | -54.5°C | 4.5% | 41.5hPa | 2.6V | 00:00:00 | 00:00:00 | 00:00:00 | |
| OE5DRO-10 | 2026-09-04 11:56:53 | 48.68582 | 10.18069 | 6° | 9km/h | 22189m | 5.7m/s | -54.6°C | 4.5% | 41.5hPa | 2.6V | 00:00:00 | 00:00:00 | 00:00:00 | |
| DM0DOS-11 | 2026-09-04 11:56:51 | 48.68577 | 10.18067 | 16° | 5km/h | 22174m | 5.5m/s | -54.4°C | 4.4% | 41.6hPa | 2.6V | 08:30:00 | 01:27:31 | 00:00:00 | |
| DK7TD | 2026-09-04 11:56:47 | 48.68574 | 10.18070 | 316° | 9km/h | 22158m | 4.8m/s | -54.4°C | 0.9% | 41.7hPa | 2.7V | 18:12:15 | 01:27:28 | 00:00:00 | |
| DL6DJ-15 | 2026-09-04 11:56:44 | 48.68565 | 10.18077 | 336° | 15km/h | 22143m | 4.7m/s | -54.4°C | 1.2% | 41.8hPa | 2.6V | 00:00:00 | 00:00:00 | 00:00:00 | |
| HSKMA3-T | 2026-09-04 11:56:43 | 48.68560 | 10.18082 | 317° | 9km/h | 22132m | 5.7m/s | -54.3°C | 0.9% | 41.9hPa | 2.6V | 18:12:15 | 01:27:23 | 00:00:00 | |
| DM0DOS-11 | 2026-09-04 11:56:40 | 48.68558 | 10.18092 | 277° | 9km/h | 22116m | 6.3m/s | -54.2°C | 4.4% | 42hPa | 2.7V | 08:30:00 | 01:27:20 | 00:00:00 | |
| IW2NTF | 2026-09-04 11:56:40 | 48.68556 | 10.18109 | 261° | 9km/h | 22088m | 4.5m/s | -54.3°C | 4.4% | 42.2hPa | 2.6V | 08:30:00 | 01:27:15 | 00:00:00 | |
| DK7TD | 2026-09-04 11:56:36 | 48.68556 | 10.18102 | 275° | 9km/h | 22099m | 6.4m/s | -54.4°C | 0.8% | 42.1hPa | 2.6V | 18:12:15 | 01:27:17 | 00:00:00 | |
| HSKMA3-T | 2026-09-04 11:56:32 | 48.68556 | 10.18115 | 301° | 7km/h | 22076m | 6.4m/s | -54.3°C | 0.9% | 42.3hPa | 2.7V | 18:12:15 | 01:27:13 | 00:00:00 | |
| DM0DOS-11 | 2026-09-04 11:56:30 | 48.68553 | 10.18124 | 265° | 9km/h | 22061m | 6m/s | -54.2°C | 4.4% | 42.4hPa | 2.6V | 08:30:00 | 01:27:10 | 00:00:00 | |
| DK7TD | 2026-09-04 11:56:25 | 48.68563 | 10.18137 | 209° | 15km/h | 22039m | 6m/s | -54.3°C | 0.9% | 42.5hPa | 2.7V | 18:12:15 | 01:27:06 | 00:00:00 | |
| DB0NH | 2026-09-04 11:56:24 | 48.68566 | 10.18139 | 214° | 15km/h | 22034m | 5.5m/s | -54.1°C | 4.5% | 42.6hPa | 2.7V | 00:00:00 | 01:27:05 | 00:00:00 | |
| DM0DOS-11 | 2026-09-04 11:56:23 | 48.68575 | 10.18164 | 250° | 16km/h | 22005m | 6.4m/s | -54.1°C | 4.4% | 42.7hPa | 2.7V | 08:30:00 | 01:27:00 | 00:00:00 | |
| HSKMA3-T | 2026-09-04 11:56:22 | 48.68570 | 10.18146 | 238° | 15km/h | 22022m | 6.6m/s | -54.2°C | 1% | 42.7hPa | 2.6V | 18:12:15 | 01:27:03 | 00:00:00 | |
| BIOWL1-15 | 2026-09-04 11:56:21 | 48.68572 | 10.18152 | 246° | 18km/h | 22016m | 5.7m/s | 0°C | 0% | 0hPa | 2.6V | 18:12:15 | 01:27:02 | 00:00:00 | |
| DK7TD | 2026-09-04 11:56:15 | 48.68585 | 10.18180 | 201° | 18km/h | 21982m | 5.4m/s | -54.1°C | 0.8% | 42.9hPa | 2.6V | 18:12:15 | 01:26:56 | 00:00:00 | |
| DK7TD | 2026-09-04 11:56:04 | 48.68625 | 10.18200 | 207° | 16km/h | 21920m | 6m/s | -54.4°C | 0.9% | 43.3hPa | 2.7V | 18:12:15 | 01:26:45 | 00:00:00 | |
| DM0DOS-11 | 2026-09-04 11:56:03 | 48.68645 | 10.18204 | 162° | 15km/h | 21892m | 5.3m/s | -54.4°C | 4.4% | 43.5hPa | 2.6V | 08:30:00 | 01:26:40 | 00:00:00 | |
| HARRO8 | 2026-09-04 11:56:01 | 48.68638 | 10.18206 | 185° | 15km/h | 21904m | 6.6m/s | -54.4°C | 1.2% | 43.4hPa | 2.6V | 00:00:00 | 00:00:00 | 00:00:00 | |
| DB0ND-19 | 2026-09-04 11:55:55 | 48.68660 | 10.18196 | 150° | 15km/h | 21870m | 6.7m/s | -54.3°C | 1.2% | 43.6hPa | 2.6V | 00:00:00 | 00:00:00 | 00:00:00 | |
| DO3MHA-11 | 2026-09-04 11:55:54 | 48.68662 | 10.18193 | 147° | 13km/h | 21864m | 5.6m/s | -54.2°C | 4.4% | 43.7hPa | 2.6V | 00:00:00 | 01:26:35 | 00:00:00 | |
| DM0DOS-11 | 2026-09-04 11:55:53 | 48.68679 | 10.18186 | 158° | 13km/h | 21835m | 6.2m/s | -54.4°C | 4.4% | 43.9hPa | 2.7V | 08:30:00 | 01:26:30 | 00:00:00 | |
| HSKMA3-T | 2026-09-04 11:55:53 | 48.68666 | 10.18191 | 154° | 13km/h | 21858m | 5.7m/s | -54.3°C | 0.8% | 43.8hPa | 2.6V | 18:12:15 | 01:26:34 | 00:00:00 | |
| DF7PN | 2026-09-04 11:55:53 | 48.68669 | 10.18189 | 168° | 13km/h | 21852m | 6.3m/s | -54.3°C | 1.2% | 43.8hPa | 2.6V | 00:00:00 | 00:00:00 | 00:00:00 | |
| DL1ZP-14 | 2026-09-04 11:55:48 | 48.68682 | 10.18184 | 153° | 13km/h | 21829m | 5.1m/s | -54.5°C | 1.2% | 43.9hPa | 2.6V | 00:00:00 | 00:00:00 | 00:00:00 | |
| DG9SBQ-11 | 2026-09-04 11:55:47 | 48.68682 | 10.18184 | 154° | 13km/h | 21829m | 5.1m/s | -54.5°C | 1.2% | 43.9hPa | 2.7V | 00:00:00 | 00:00:00 | 00:00:00 | |
| IW2NTF | 2026-09-04 11:55:46 | 48.68693 | 10.18174 | 99° | 9km/h | 21801m | 5.8m/s | -54.3°C | 4.3% | 44.1hPa | 2.7V | 08:30:00 | 01:26:24 | 00:00:00 | |
| DF2AP-13 | 2026-09-04 11:55:46 | 48.68688 | 10.18180 | 161° | 9km/h | 21818m | 5.3m/s | -54.3°C | 4.3% | 43.9hPa | 2.7V | 00:00:00 | 01:26:27 | 00:00:00 | |
| AZAK | 2026-09-04 11:55:45 | 48.68690 | 10.18179 | 153° | 9km/h | 21813m | 4.7m/s | -54.3°C | 1.2% | 44.1hPa | 2.7V | 00:00:00 | 00:00:00 | 00:00:00 | |
| PG1ADW-2 | 2026-09-04 11:55:44 | 48.68692 | 10.18177 | 130° | 9km/h | 21808m | 6.3m/s | -54.3°C | 4.3% | 44.1hPa | 2.7V | 00:00:00 | 00:00:00 | 08:30:00 | |
| DM0DOS-11 | 2026-09-04 11:55:43 | 48.68693 | 10.18163 | 116° | 5km/h | 21780m | 4.8m/s | -54.5°C | 4.5% | 44.3hPa | 2.6V | 08:30:00 | 01:26:20 | 00:00:00 | |
| HSKMA3-T | 2026-09-04 11:55:42 | 48.68693 | 10.18170 | 88° | 9km/h | 21796m | 4.3m/s | -54.3°C | 0.8% | 44.2hPa | 2.7V | 18:12:15 | 01:26:23 | 00:00:00 | |
| HSKMA3-T | 2026-09-04 11:55:32 | 48.68701 | 10.18147 | 115° | 11km/h | 21743m | 5.9m/s | -54.8°C | 1% | 44.6hPa | 2.6V | 18:12:15 | 01:26:13 | 00:00:00 | |
| IW2NTF | 2026-09-04 11:55:31 | 48.68704 | 10.18131 | 111° | 9km/h | 21722m | 5m/s | -54.6°C | 4.6% | 44.7hPa | 2.7V | 08:30:00 | 01:26:09 | 00:00:00 | |
| DM0DOS-11 | 2026-09-04 11:55:31 | 48.68703 | 10.18135 | 104° | 11km/h | 21727m | 5.9m/s | -54.7°C | 4.6% | 44.6hPa | 2.7V | 08:30:00 | 01:26:10 | 00:00:00 | |
| DO3MHA-12 | 2026-09-04 11:55:30 | 48.68703 | 10.18139 | 101° | 9km/h | 21733m | 4.6m/s | -54.7°C | 4.6% | 44.6hPa | 2.7V | 00:00:00 | 01:26:11 | 00:00:00 | |
| NBG1-10 | 2026-09-04 11:55:28 | 48.68704 | 10.18131 | 112° | 7km/h | 21722m | 5.0m/s | -54.6°C | 4.6% | 44.7hPa | 2.6V | 00:00:00 | 01:26:09 | 00:00:00 | |
| DF1GD-15 | 2026-09-04 11:55:26 | 48.68705 | 10.18128 | 106° | 7km/h | 21717m | 4.9m/s | -54.6°C | 1.3% | 44.7hPa | 2.6V | 00:00:00 | 00:00:00 | 00:00:00 | |
| PG1ADW-2 | 2026-09-04 11:55:24 | 48.68703 | 10.18119 | 45° | 9km/h | 21701m | 4.5m/s | -54.5°C | 4.5% | 44.8hPa | 2.6V | 00:00:00 | 00:00:00 | 00:00:00 | |
| IW2NTF | 2026-09-04 11:55:23 | 48.68691 | 10.18109 | 55° | 7km/h | 21669m | 5.2m/s | -54.2°C | 4.5% | 45.1hPa | 2.6V | 08:30:00 | 01:25:59 | 00:00:00 | |
| HSKMA3-T | 2026-09-04 11:55:21 | 48.68697 | 10.18115 | 16° | 9km/h | 21684m | 5m/s | -54.4°C | 0.9% | 45hPa | 2.7V | 18:12:15 | 01:26:02 | 00:00:00 | |
| DM0DOS-11 | 2026-09-04 11:55:20 | 48.68692 | 10.18111 | 43° | 9km/h | 21673m | 4.3m/s | -54.2°C | 4.5% | 45hPa | 2.6V | 08:30:00 | 01:26:00 | 00:00:00 | |
| DB0UT-7 | 2026-09-04 11:55:20 | 48.68695 | 10.18113 | 29° | 7km/h | 21679m | 5.9m/s | -54.3°C | 4.5% | 45.0hPa | 2.6V | 00:00:00 | 01:26:01 | 00:00:00 | |
| OE5DRO-10 | 2026-09-04 11:55:18 | 48.68691 | 10.18109 | 56° | 7km/h | 21669m | 5.2m/s | -54.1°C | 4.5% | 45.0hPa | 2.6V | 00:00:00 | 00:00:00 | 08:30:00 | |
| DL1ZP-14 | 2026-09-04 11:55:17 | 48.68691 | 10.18107 | 82° | 4km/h | 21663m | 5.9m/s | -54.2°C | 1.2% | 45.1hPa | 2.6V | 00:00:00 | 00:00:00 | 00:00:00 | |
| DF2AP-13 | 2026-09-04 11:55:16 | 48.68691 | 10.18105 | 123° | 9km/h | 21658m | 5.1m/s | -54.2°C | 4.6% | 45.1hPa | 2.7V | 00:00:00 | 01:25:57 | 00:00:00 | |
| OE3JTB-15 | 2026-09-04 11:55:15 | 48.68692 | 10.18103 | 122° | 9km/h | 21652m | 5.7m/s | -54.2°C | 4.5% | 45.1hPa | 2.7V | 00:00:00 | 01:25:56 | 00:00:00 | |
| DO3MHA-11 | 2026-09-04 11:55:14 | 48.68692 | 10.18101 | 108° | 7km/h | 21647m | 5.7m/s | -54.2°C | 4.6% | 45.2hPa | 2.7V | 00:00:00 | 01:25:55 | 00:00:00 | |
| DM0DOS-11 | 2026-09-04 11:55:13 | 48.68693 | 10.18090 | 51° | 7km/h | 21620m | 6.5m/s | -54°C | 4.4% | 45.4hPa | 2.7V | 08:30:00 | 01:25:50 | 00:00:00 | |
| IW2NTF | 2026-09-04 11:55:11 | 48.68691 | 10.18087 | 39° | 11km/h | 21614m | 5.6m/s | -54.1°C | 4.3% | 45.5hPa | 2.7V | 08:30:00 | 01:25:49 | 00:00:00 | |
| DK7TD | 2026-09-04 11:55:10 | 48.68693 | 10.18092 | 75° | 5km/h | 21626m | 4.1m/s | -54.1°C | 0.9% | 45.4hPa | 2.6V | 18:12:15 | 01:25:51 | 00:00:00 | |
| HSKMA3-T | 2026-09-04 11:55:09 | 48.68693 | 10.18090 | 52° | 7km/h | 21620m | 6.5m/s | -54.1°C | 0.9% | 45.4hPa | 2.7V | 18:12:15 | 01:25:50 | 00:00:00 | |
| OE5WHR-10 | 2026-09-04 11:55:09 | 48.68692 | 10.18090 | 52° | 9km/h | 21621m | 6.5m/s | -54.0°C | 4.4% | 45.4hPa | 2.7V | 00:00:00 | 00:00:00 | 00:00:00 | |
| SONCRA | 2026-09-04 11:55:06 | 48.68687 | 10.18084 | 23° | 7km/h | 21603m | 6.1m/s | -54.0°C | 0% | 45.5hPa | 2.6V | 00:00:00 | 00:00:00 | 00:00:00 | |
| DL9SK-14 | 2026-09-04 11:55:05 | 48.68685 | 10.18082 | 23° | 7km/h | 21598m | 4.2m/s | -53.9°C | 1.2% | 45.6hPa | 2.6V | 00:00:00 | 00:00:00 | 00:00:00 | |
| PG1ADW-2 | 2026-09-04 11:55:04 | 48.68683 | 10.18081 | 33° | 9km/h | 21593m | 5.9m/s | -53.8°C | 4.3% | 45.6hPa | 2.6V | 00:00:00 | 01:25:45 | 00:00:00 | |
| DF3TZ-5 | 2026-09-04 11:55:03 | 48.68681 | 10.18079 | 44° | 7km/h | 21587m | 5.1m/s | -53.7°C | 1.2% | 45.6hPa | 2.6V | 00:00:00 | 00:00:00 | 00:00:00 | |
| DM0DOS-11 | 2026-09-04 11:55:00 | 48.68679 | 10.18072 | 95° | 4km/h | 21567m | 4.4m/s | -53.5°C | 4.2% | 45.8hPa | 2.6V | 08:30:00 | 01:25:40 | 00:00:00 | |
| DK7TD | 2026-09-04 11:54:59 | 48.68679 | 10.18072 | 96° | 4km/h | 21567m | 4.4m/s | -53.5°C | 0.8% | 45.8hPa | 2.6V | 18:12:15 | 01:25:40 | 00:00:00 | |
| HSKMA3-T | 2026-09-04 11:54:58 | 48.68678 | 10.18068 | 51° | 9km/h | 21557m | 4.7m/s | -53.5°C | 0.8% | 45.9hPa | 2.6V | 18:12:15 | 01:25:38 | 00:00:00 | |
| OE9MKV-15 | 2026-09-04 11:54:58 | 48.68679 | 10.18070 | 72° | 11km/h | 21562m | 5.7m/s | -53.4°C | 4.2% | 45.8hPa | 2.6V | 00:00:00 | 01:25:39 | 00:00:00 | |
| NBG1-10 | 2026-09-04 11:54:55 | 48.68674 | 10.18064 | 24° | 11km/h | 21548m | 5.9m/s | -53.6°C | 4.2% | 45.9hPa | 2.7V | 00:00:00 | 01:25:36 | 00:00:00 | |
| DB0NH | 2026-09-04 11:54:54 | 48.68671 | 10.18062 | 12° | 11km/h | 21542m | 4.8m/s | -53.7°C | 4.3% | 45.9hPa | 2.7V | 00:00:00 | 01:25:35 | 00:00:00 | |
| DM0DOS-11 | 2026-09-04 11:54:53 | 48.68660 | 10.18048 | 72° | 11km/h | 21517m | 5.6m/s | -53.7°C | 4.2% | 46.1hPa | 2.6V | 08:30:00 | 01:25:30 | 00:00:00 | |
| DK7TD | 2026-09-04 11:54:49 | 48.68660 | 10.18047 | 72° | 11km/h | 21517m | 5.6m/s | -53.7°C | 0.8% | 46.1hPa | 2.6V | 18:12:15 | 01:25:30 | 00:00:00 | |
| HSKMA3-T | 2026-09-04 11:54:46 | 48.68660 | 10.18037 | 99° | 11km/h | 21502m | 6.2m/s | -53.8°C | 0.8% | 46.3hPa | 2.7V | 18:12:15 | 01:25:27 | 00:00:00 | |
| DF2AP-13 | 2026-09-04 11:54:46 | 48.68660 | 10.18037 | 99° | 11km/h | 21502m | 6.2m/s | -53.7°C | 4.3% | 46.3hPa | 2.6V | 00:00:00 | 01:25:27 | 00:00:00 | |
| DM7RM-13 | 2026-09-04 11:54:45 | 48.68660 | 10.18037 | 100° | 11km/h | 21502m | 6.2m/s | -53.7°C | 1.2% | 46.3hPa | 2.6V | 00:00:00 | 00:00:00 | 00:00:00 | |
| DO3MHA-11 | 2026-09-04 11:54:44 | 48.68661 | 10.18029 | 101° | 11km/h | 21492m | 4.4m/s | -53.7°C | 4.3% | 46.3hPa | 2.6V | 00:00:00 | 01:25:25 | 00:00:00 | |
| IW2NTF | 2026-09-04 11:54:43 | 48.68659 | 10.18005 | 73° | 15km/h | 21462m | 4.8m/s | -53.9°C | 4.3% | 46.5hPa | 2.6V | 08:30:00 | 01:25:19 | 00:00:00 | |
| DM0DOS-11 | 2026-09-04 11:54:40 | 48.68660 | 10.18011 | 74° | 15km/h | 21466m | 4.1m/s | -53.8°C | 4.3% | 46.5hPa | 2.7V | 08:30:00 | 01:25:20 | 00:00:00 | |
| DK7TD | 2026-09-04 11:54:38 | 48.68659 | 10.18005 | 73° | 15km/h | 21462m | 4.8m/s | -53.9°C | 0.8% | 46.5hPa | 2.6V | 18:12:15 | 01:25:19 | 00:00:00 | |
| HSKMA3-T | 2026-09-04 11:54:36 | 48.68658 | 10.17996 | 78° | 11km/h | 21452m | 4.6m/s | -54°C | 0.8% | 46.6hPa | 2.6V | 18:12:15 | 01:25:17 | 00:00:00 | |
| SONCRA | 2026-09-04 11:54:35 | 48.68657 | 10.17992 | 75° | 9km/h | 21447m | 4.2m/s | -53.9°C | 1.2% | 46.6hPa | 2.6V | 00:00:00 | 00:00:00 | 00:00:00 | |
| DO3MHA-11 | 2026-09-04 11:54:34 | 48.68656 | 10.17988 | 72° | 11km/h | 21443m | 5.5m/s | -53.9°C | 4.4% | 46.6hPa | 2.6V | 00:00:00 | 01:25:15 | 00:00:00 | |
| DF3TZ-5 | 2026-09-04 11:54:32 | 48.68654 | 10.17979 | 72° | 11km/h | 21433m | 4.6m/s | -54.1°C | 1.2% | 46.8hPa | 2.6V | 00:00:00 | 00:00:00 | 00:00:00 | |
| IW2NTF | 2026-09-04 11:54:31 | 48.68652 | 10.17965 | 75° | 11km/h | 21412m | 5.9m/s | -54°C | 4.3% | 46.9hPa | 2.6V | 08:30:00 | 01:25:09 | 00:00:00 | |
| DK7TD | 2026-09-04 11:54:28 | 48.68652 | 10.17965 | 76° | 11km/h | 21412m | 5.9m/s | -54°C | 0.8% | 46.9hPa | 2.6V | 18:12:15 | 01:25:09 | 00:00:00 | |
| OE9MKV-15 | 2026-09-04 11:54:28 | 48.68652 | 10.17965 | 76° | 7km/h | 21412m | 5.9m/s | -53.9°C | 4.3% | 46.9hPa | 2.6V | 00:00:00 | 01:25:09 | 00:00:00 | |
| OE5WHR-10 | 2026-09-04 11:54:27 | 48.68651 | 10.17960 | 72° | 9km/h | 21407m | 4.9m/s | -53.9°C | 4.3% | 46.9hPa | 2.6V | 00:00:00 | 01:25:08 | 00:00:00 | |
| DM7RM-13 | 2026-09-04 11:54:25 | 48.68650 | 10.17955 | 69° | 15km/h | 21402m | 3.9m/s | -54.0°C | 1.2% | 47.0hPa | 2.6V | 00:00:00 | 00:00:00 | 00:00:00 | |
| DO3MHA-11 | 2026-09-04 11:54:24 | 48.68647 | 10.17947 | 51° | 9km/h | 21392m | 5.7m/s | -53.9°C | 4.3% | 47.0hPa | 2.6V | 00:00:00 | 01:25:05 | 00:00:00 | |
| DK5PH-5 | 2026-09-04 11:54:23 | 48.68645 | 10.17944 | 38° | 7km/h | 21387m | 5.1m/s | -53.9°C | 4.3% | 47.1hPa | 2.6V | 00:00:00 | 01:25:04 | 00:00:00 | |
| NBG1-10 | 2026-09-04 11:54:22 | 48.68643 | 10.17942 | 37° | 7km/h | 21382m | 4.8m/s | -53.9°C | 4.3% | 47.1hPa | 2.6V | 00:00:00 | 01:25:03 | 00:00:00 | |
| IW2NTF | 2026-09-04 11:54:21 | 48.68633 | 10.17928 | 347° | 2km/h | 21350m | 4.3m/s | -53.8°C | 4.4% | 47.4hPa | 2.6V | 08:30:00 | 01:24:57 | 00:00:00 | |
| HSKMA3-T | 2026-09-04 11:54:19 | 48.68637 | 10.17932 | 52° | 11km/h | 21366m | 4m/s | -54°C | 0.8% | 47.3hPa | 2.7V | 18:12:15 | 01:25:00 | 00:00:00 | |
| DM0DOS-11 | 2026-09-04 11:54:17 | 48.68633 | 10.17928 | 307° | 0km/h | 21345m | 6.1m/s | -53.9°C | 4.4% | 47.4hPa | 2.6V | 08:30:00 | 01:24:56 | 00:00:00 | |
| DK7TD | 2026-09-04 11:54:17 | 48.68634 | 10.17928 | 23° | 5km/h | 21355m | 5.9m/s | -53.9°C | 0.9% | 47.3hPa | 2.6V | 18:12:15 | 01:24:58 | 00:00:00 | |
| DF2AP-13 | 2026-09-04 11:54:16 | 48.68633 | 10.17927 | 348° | 7km/h | 21350m | 4.3m/s | -53.8°C | 4.4% | 47.3hPa | 2.6V | 00:00:00 | 01:24:57 | 00:00:00 | |
| DL1ZP-14 | 2026-09-04 11:54:15 | 48.68633 | 10.17928 | 307° | 0km/h | 21345m | 6.1m/s | -53.9°C | 1.2% | 47.4hPa | 2.6V | 00:00:00 | 00:00:00 | 00:00:00 | |
| DO3MHA-11 | 2026-09-04 11:54:14 | 48.68633 | 10.17928 | 208° | 7km/h | 21339m | 5.2m/s | -53.9°C | 4.5% | 47.4hPa | 2.7V | 00:00:00 | 01:24:55 | 00:00:00 | |
| IW2NTF | 2026-09-04 11:54:11 | 48.68623 | 10.17931 | 16° | 13km/h | 21299m | 5.8m/s | -53.9°C | 4.3% | 47.7hPa | 2.7V | 08:30:00 | 01:24:47 | 00:00:00 | |
| DO3MHA-12 | 2026-09-04 11:54:10 | 48.68632 | 10.17934 | 324° | 9km/h | 21319m | 4.3m/s | -53.8°C | 4.4% | 47.6hPa | 2.6V | 00:00:00 | 01:24:51 | 00:00:00 | |
| DL6DJ-15 | 2026-09-04 11:54:09 | 48.68628 | 10.17934 | 25° | 9km/h | 21308m | 4.8m/s | -54.1°C | 1.2% | 47.7hPa | 2.6V | 00:00:00 | 00:00:00 | 00:00:00 | |
| DM0DOS-11 | 2026-09-04 11:54:07 | 48.68616 | 10.17932 | 322° | 7km/h | 21284m | 4.9m/s | -53.6°C | 4.2% | 47.8hPa | 2.6V | 08:30:00 | 01:24:44 | 00:00:00 | |
| DK7TD | 2026-09-04 11:54:07 | 48.68626 | 10.17932 | 26° | 11km/h | 21303m | 4m/s | -54°C | 0.8% | 47.7hPa | 2.6V | 18:12:15 | 01:24:48 | 00:00:00 | |
| HSKMA3-T | 2026-09-04 11:54:03 | 48.68616 | 10.17932 | 322° | 7km/h | 21284m | 4.9m/s | -53.6°C | 0.8% | 47.8hPa | 2.6V | 18:12:15 | 01:24:44 | 00:00:00 | |
| PG1ADW-2 | 2026-09-04 11:54:03 | 48.68616 | 10.17932 | 323° | 24km/h | 21284m | 4.9m/s | -53.6°C | 4.2% | 47.8hPa | 2.6V | 00:00:00 | 00:00:00 | 00:00:00 | |
| OE5DRO-10 | 2026-09-04 11:54:02 | 48.68615 | 10.17934 | 298° | 7km/h | 21279m | 6.0m/s | -53.5°C | 4.3% | 47.9hPa | 2.6V | 00:00:00 | 00:00:00 | 00:00:00 | |
| IW2NTF | 2026-09-04 11:54:01 | 48.68618 | 10.17951 | 245° | 7km/h | 21248m | 5.4m/s | -53.4°C | 4.3% | 48.1hPa | 2.6V | 08:30:00 | 01:24:37 | 00:00:00 | |
| DF3TZ-5 | 2026-09-04 11:54:01 | 48.68615 | 10.17935 | 256° | 4km/h | 21273m | 5.0m/s | -53.5°C | 1.2% | 47.9hPa | 2.6V | 00:00:00 | 00:00:00 | 00:00:00 | |
| DO3MHA-12 | 2026-09-04 11:54:00 | 48.68615 | 10.17938 | 249° | 7km/h | 21268m | 4.8m/s | -53.5°C | 4.3% | 47.9hPa | 2.6V | 00:00:00 | 01:24:41 | 00:00:00 | |
| DM0DOS-11 | 2026-09-04 11:53:57 | 48.68620 | 10.17956 | 252° | 5km/h | 21232m | 6.1m/s | -53.4°C | 4.3% | 48.3hPa | 2.6V | 08:30:00 | 01:24:34 | 00:00:00 | |
| DK7TD | 2026-09-04 11:53:56 | 48.68618 | 10.17951 | 245° | 7km/h | 21248m | 5.4m/s | -53.4°C | 0.8% | 48.1hPa | 2.6V | 18:12:15 | 01:24:37 | 00:00:00 | |
| DB0NH | 2026-09-04 11:53:54 | 48.68619 | 10.17954 | 227° | 13km/h | 21238m | 4.6m/s | -53.3°C | 4.3% | 48.2hPa | 2.6V | 00:00:00 | 01:24:35 | 00:00:00 | |
| DK5PH-5 | 2026-09-04 11:53:53 | 48.68620 | 10.17956 | 253° | 15km/h | 21233m | 6.1m/s | -53.4°C | 4.3% | 48.2hPa | 2.6V | 00:00:00 | 01:24:34 | 00:00:00 | |
| IW2NTF | 2026-09-04 11:53:52 | 48.68621 | 10.17977 | 266° | 9km/h | 21196m | 4m/s | -53.2°C | 4.1% | 48.6hPa | 2.6V | 08:30:00 | 01:24:27 | 00:00:00 | |
| DB0ND-19 | 2026-09-04 11:53:51 | 48.68620 | 10.17967 | 256° | 7km/h | 21211m | 5.0m/s | -53.3°C | 1.2% | 48.4hPa | 2.7V | 00:00:00 | 00:00:00 | 00:00:00 | |
| DF7PN | 2026-09-04 11:53:48 | 48.68621 | 10.17970 | 263° | 7km/h | 21206m | 5.3m/s | -53.3°C | 1.2% | 48.5hPa | 2.7V | 00:00:00 | 00:00:00 | 00:00:00 | |
| DM0DOS-11 | 2026-09-04 11:53:47 | 48.68624 | 10.17985 | 210° | 11km/h | 21180m | 4.2m/s | -53.3°C | 4.2% | 48.6hPa | 2.7V | 08:30:00 | 01:24:24 | 00:00:00 | |
| DK7TD | 2026-09-04 11:53:46 | 48.68621 | 10.17977 | 267° | 9km/h | 21196m | 4m/s | -53.2°C | 0.7% | 48.6hPa | 2.6V | 18:12:15 | 01:24:27 | 00:00:00 | |
| DF2AP-13 | 2026-09-04 11:53:46 | 48.68621 | 10.17977 | 267° | 15km/h | 21196m | 3.9m/s | -53.1°C | 4.1% | 48.5hPa | 2.6V | 00:00:00 | 01:24:27 | 00:00:00 | |
| OE5WHR-10 | 2026-09-04 11:53:45 | 48.68621 | 10.17980 | 248° | 15km/h | 21191m | 5.6m/s | -53.2°C | 4.1% | 48.5hPa | 2.7V | 00:00:00 | 00:00:00 | 00:00:00 | |
| DO3MHA-11 | 2026-09-04 11:53:44 | 48.68622 | 10.17983 | 220° | 13km/h | 21185m | 5.8m/s | -53.2°C | 4.2% | 48.6hPa | 2.7V | 00:00:00 | 01:24:25 | 00:00:00 | |
| OE5DRO-10 | 2026-09-04 11:53:43 | 48.68624 | 10.17985 | 211° | 15km/h | 21181m | 4.2m/s | -53.2°C | 4.2% | 48.6hPa | 2.7V | 00:00:00 | 00:00:00 | 00:00:00 | |
| DN1GJH-1 | 2026-09-04 11:53:42 | 48.68624 | 10.17985 | 211° | 11km/h | 21181m | 4.2m/s | -53.3°C | 1.2% | 48.7hPa | 2.7V | 00:00:00 | 00:00:00 | 00:00:00 | |
| IW2NTF | 2026-09-04 11:53:41 | 48.68645 | 10.18007 | 239° | 15km/h | 21144m | 5.6m/s | -53.2°C | 4% | 48.9hPa | 2.7V | 08:30:00 | 01:24:17 | 00:00:00 | |
| HSKMA3-T | 2026-09-04 11:53:39 | 48.68636 | 10.17997 | 205° | 16km/h | 21158m | 5.5m/s | -53.1°C | 0.8% | 48.8hPa | 2.6V | 18:12:15 | 01:24:20 | 00:00:00 | |
| DL6DJ-15 | 2026-09-04 11:53:38 | 48.68643 | 10.18002 | 220° | 13km/h | 21149m | 5.6m/s | -53.1°C | 1.1% | 48.9hPa | 2.6V | 00:00:00 | 00:00:00 | 00:00:00 | |
| DM0DOS-11 | 2026-09-04 11:53:37 | 48.68649 | 10.18020 | 236° | 11km/h | 21128m | 5.6m/s | -53.5°C | 4.1% | 49hPa | 2.6V | 08:30:00 | 01:24:14 | 00:00:00 | |
| DK7TD | 2026-09-04 11:53:35 | 48.68647 | 10.18011 | 250° | 15km/h | 21138m | 4.7m/s | -53.3°C | 0.7% | 49hPa | 2.6V | 18:12:15 | 01:24:16 | 00:00:00 | |
| DO3MHA-11 | 2026-09-04 11:53:34 | 48.68648 | 10.18016 | 252° | 16km/h | 21134m | 5.2m/s | -53.3°C | 4.1% | 48.9hPa | 2.6V | 00:00:00 | 01:24:15 | 00:00:00 | |
| SONCRA | 2026-09-04 11:53:33 | 48.68649 | 10.18020 | 236° | 11km/h | 21128m | 5.6m/s | -53.5°C | 1.1% | 49.0hPa | 2.6V | 00:00:00 | 00:00:00 | 00:00:00 | |
| DL9SK-14 | 2026-09-04 11:53:32 | 48.68654 | 10.18026 | 199° | 13km/h | 21118m | 4.4m/s | -53.4°C | 1.2% | 49.1hPa | 2.6V | 00:00:00 | 00:00:00 | 00:00:00 | |
| IW2NTF | 2026-09-04 11:53:31 | 48.68676 | 10.18031 | 179° | 22km/h | 21090m | 5.2m/s | -53.7°C | 4.1% | 49.3hPa | 2.6V | 08:30:00 | 01:24:07 | 00:00:00 | |
| HSKMA3-T | 2026-09-04 11:53:28 | 48.68666 | 10.18031 | 189° | 18km/h | 21102m | 4.9m/s | -53.6°C | 0.7% | 49.2hPa | 2.6V | 18:12:15 | 01:24:09 | 00:00:00 | |
| DK7TD | 2026-09-04 11:53:25 | 48.68681 | 10.18032 | 183° | 22km/h | 21085m | 5.7m/s | -53.8°C | 0.8% | 49.4hPa | 2.6V | 18:12:15 | 01:24:06 | 00:00:00 | |
| OE5WHR-10 | 2026-09-04 11:53:24 | 48.68686 | 10.18032 | 190° | 15km/h | 21079m | 5.2m/s | -53.8°C | 4.2% | 49.4hPa | 2.7V | 00:00:00 | 01:24:05 | 00:00:00 | |
| DK5PH-5 | 2026-09-04 11:53:23 | 48.68691 | 10.18034 | 190° | 13km/h | 21074m | 3.8m/s | -53.8°C | 4.3% | 49.4hPa | 2.7V | 00:00:00 | 01:24:04 | 00:00:00 | |
| DN1GJH-1 | 2026-09-04 11:53:22 | 48.68691 | 10.18034 | 191° | 20km/h | 21074m | 3.9m/s | -53.8°C | 1.2% | 49.5hPa | 2.6V | 00:00:00 | 00:00:00 | 00:00:00 | |
| IW2NTF | 2026-09-04 11:53:21 | 48.68725 | 10.18036 | 171° | 16km/h | 21037m | 5.5m/s | -53.9°C | 4.3% | 49.7hPa | 2.6V | 08:30:00 | 01:23:57 | 00:00:00 | |
| HSKMA3-T | 2026-09-04 11:53:18 | 48.68717 | 10.18036 | 185° | 18km/h | 21048m | 5m/s | -53.8°C | 0.8% | 49.7hPa | 2.7V | 18:12:15 | 01:23:59 | 00:00:00 | |
| DF7PN | 2026-09-04 11:53:17 | 48.68721 | 10.18036 | 178° | 16km/h | 21042m | 5.6m/s | -53.9°C | 1.2% | 49.7hPa | 2.7V | 00:00:00 | 00:00:00 | 00:00:00 | |
| DM0DOS-11 | 2026-09-04 11:53:16 | 48.68736 | 10.18034 | 176° | 11km/h | 21021m | 5m/s | -54.1°C | 4.3% | 49.9hPa | 2.7V | 08:30:00 | 01:23:54 | 00:00:00 | |
| DK7TD | 2026-09-04 11:53:14 | 48.68733 | 10.18034 | 173° | 13km/h | 21027m | 6.1m/s | -54.1°C | 0.8% | 49.9hPa | 2.6V | 18:12:15 | 01:23:55 | 00:00:00 | |
| DO3MHA-11 | 2026-09-04 11:53:14 | 48.68732 | 10.18034 | 173° | 13km/h | 21027m | 6.0m/s | -54.0°C | 4.3% | 49.8hPa | 2.7V | 00:00:00 | 01:23:55 | 00:00:00 | |
| DL1ZP-14 | 2026-09-04 11:53:13 | 48.68735 | 10.18034 | 176° | 9km/h | 21021m | 5.0m/s | -54.1°C | 1.2% | 49.9hPa | 2.7V | 00:00:00 | 00:00:00 | 00:00:00 | |
| IW2NTF | 2026-09-04 11:53:11 | 48.68755 | 10.18028 | 177° | 13km/h | 20985m | 6.1m/s | -54.2°C | 4.4% | 50.1hPa | 2.6V | 08:30:00 | 01:23:47 | 00:00:00 | |
| HSKMA3-T | 2026-09-04 11:53:07 | 48.68752 | 10.18028 | 180° | 13km/h | 20990m | 4.2m/s | -54.3°C | 1% | 50.1hPa | 2.7V | 18:12:15 | 01:23:48 | 00:00:00 | |
| DM0DOS-11 | 2026-09-04 11:53:06 | 48.68766 | 10.18028 | 191° | 13km/h | 20968m | 5.8m/s | -54.1°C | 4.4% | 50.3hPa | 2.7V | 08:30:00 | 01:23:44 | 00:00:00 | |
| DK7TD | 2026-09-04 11:53:03 | 48.68766 | 10.18028 | 192° | 13km/h | 20968m | 5.8m/s | -54.1°C | 0.9% | 50.3hPa | 2.7V | 18:12:15 | 01:23:44 | 00:00:00 | |
| OE5WHR-10 | 2026-09-04 11:53:03 | 48.68766 | 10.18028 | 192° | 13km/h | 20968m | 5.7m/s | -54.0°C | 4.4% | 50.2hPa | 2.7V | 00:00:00 | 00:00:00 | 00:00:00 | |
| SONCRA | 2026-09-04 11:53:02 | 48.68769 | 10.18029 | 192° | 11km/h | 20963m | 4.4m/s | -54.1°C | 1.2% | 50.3hPa | 2.6V | 00:00:00 | 00:00:00 | 00:00:00 | |
| DL9SK-14 | 2026-09-04 11:53:01 | 48.68775 | 10.18030 | 168° | 11km/h | 20953m | 5.8m/s | -54.2°C | 1.2% | 50.4hPa | 2.6V | 00:00:00 | 00:00:00 | 00:00:00 | |
| IW2NTF | 2026-09-04 11:53:00 | 48.68786 | 10.18025 | 161° | 11km/h | 20927m | 6.1m/s | -54.1°C | 4.2% | 50.6hPa | 2.6V | 08:30:00 | 01:23:36 | 00:00:00 | |
| DF3TZ-5 | 2026-09-04 11:52:59 | 48.68777 | 10.18029 | 163° | 11km/h | 20948m | 4.4m/s | -54.2°C | 1.2% | 50.5hPa | 2.6V | 00:00:00 | 00:00:00 | 00:00:00 | |
| DM0DOS-11 | 2026-09-04 11:52:57 | 48.68793 | 10.18022 | 173° | 15km/h | 20917m | 5.2m/s | -54.2°C | 4.2% | 50.7hPa | 2.6V | 08:30:00 | 01:23:34 | 00:00:00 | |
| HSKMA3-T | 2026-09-04 11:52:56 | 48.68784 | 10.18026 | 166° | 9km/h | 20932m | 4.5m/s | -54.1°C | 0.8% | 50.5hPa | 2.7V | 18:12:15 | 01:23:37 | 00:00:00 | |
| DK7TD | 2026-09-04 11:52:53 | 48.68793 | 10.18022 | 174° | 15km/h | 20917m | 5.2m/s | -54.2°C | 0.8% | 50.7hPa | 2.6V | 18:12:15 | 01:23:34 | 00:00:00 | |
| DK5PH-5 | 2026-09-04 11:52:53 | 48.68793 | 10.18022 | 174° | 18km/h | 20917m | 5.1m/s | -54.2°C | 4.2% | 50.6hPa | 2.6V | 00:00:00 | 01:23:34 | 00:00:00 | |
| DJ8HS-15 | 2026-09-04 11:52:50 | 48.68803 | 10.18023 | 183° | 16km/h | 20902m | 5.9m/s | -54.3°C | 4.4% | 50.8hPa | 2.6V | 00:00:00 | 01:23:31 | 00:00:00 | |
| OE9MKV-15 | 2026-09-04 11:52:49 | 48.68807 | 10.18023 | 177° | 20km/h | 20896m | 5.2m/s | -54.2°C | 4.3% | 50.8hPa | 2.6V | 00:00:00 | 01:23:30 | 00:00:00 | |
| DM0DOS-11 | 2026-09-04 11:52:47 | 48.68829 | 10.18020 | 163° | 16km/h | 20864m | 3.9m/s | -54.2°C | 4.3% | 51.1hPa | 2.6V | 08:30:00 | 01:23:24 | 00:00:00 | |
| IW2NTF | 2026-09-04 11:52:46 | 48.68821 | 10.18023 | 172° | 15km/h | 20875m | 5.6m/s | -54.2°C | 4.3% | 51hPa | 2.7V | 08:30:00 | 01:23:26 | 00:00:00 | |
| HSKMA3-T | 2026-09-04 11:52:44 | 48.68825 | 10.18021 | 165° | 16km/h | 20869m | 5.8m/s | -54.2°C | 0.8% | 51.1hPa | 2.7V | 18:12:15 | 01:23:25 | 00:00:00 | |
| DK7TD | 2026-09-04 11:52:42 | 48.68833 | 10.18018 | 168° | 15km/h | 20859m | 6.1m/s | -54.3°C | 0.8% | 51.1hPa | 2.6V | 18:12:15 | 01:23:23 | 00:00:00 | |
| OE5WHR-10 | 2026-09-04 11:52:42 | 48.68833 | 10.18018 | 169° | 20km/h | 20860m | 6.1m/s | -54.2°C | 4.3% | 51.1hPa | 2.6V | 00:00:00 | 00:00:00 | 00:00:00 | |
| DN1GJH-1 | 2026-09-04 11:52:41 | 48.68833 | 10.18018 | 169° | 15km/h | 20860m | 6.1m/s | -54.3°C | 1.2% | 51.1hPa | 2.6V | 00:00:00 | 00:00:00 | 00:00:00 | |
| DO3MHA-12 | 2026-09-04 11:52:40 | 48.68840 | 10.18016 | 167° | 16km/h | 20850m | 5.0m/s | -54.4°C | 4.4% | 51.2hPa | 2.6V | 00:00:00 | 01:23:21 | 00:00:00 | |
| DM0DOS-11 | 2026-09-04 11:52:37 | 48.68869 | 10.18002 | 158° | 18km/h | 20812m | 4.8m/s | -54.7°C | 4.5% | 51.5hPa | 2.6V | 08:30:00 | 01:23:14 | 00:00:00 | |
| IW2NTF | 2026-09-04 11:52:36 | 48.68860 | 10.18006 | 166° | 16km/h | 20823m | 4.6m/s | -54.7°C | 4.5% | 51.4hPa | 2.7V | 08:30:00 | 01:23:16 | 00:00:00 | |
| DK7TD | 2026-09-04 11:52:32 | 48.68873 | 10.18000 | 161° | 18km/h | 20807m | 4.7m/s | -54.8°C | 0.9% | 51.5hPa | 2.6V | 18:12:15 | 01:23:13 | 00:00:00 | |
| SONCRA | 2026-09-04 11:52:31 | 48.68882 | 10.17996 | 167° | 18km/h | 20797m | 4.3m/s | -54.8°C | 1.2% | 51.7hPa | 2.6V | 00:00:00 | 00:00:00 | 00:00:00 | |
| DL9SK-14 | 2026-09-04 11:52:30 | 48.68887 | 10.17994 | 161° | 20km/h | 20793m | 5.0m/s | -55.0°C | 1.3% | 51.7hPa | 2.6V | 00:00:00 | 00:00:00 | 00:00:00 | |
| DF3TZ-5 | 2026-09-04 11:52:28 | 48.68892 | 10.17991 | 152° | 22km/h | 20787m | 6.0m/s | -55.0°C | 1.3% | 51.8hPa | 2.6V | 00:00:00 | 00:00:00 | 00:00:00 | |
| OE5DRO-10 | 2026-09-04 11:52:27 | 48.68897 | 10.17986 | 147° | 27km/h | 20782m | 4.8m/s | -54.9°C | 4.5% | 51.7hPa | 2.6V | 00:00:00 | 00:00:00 | 08:30:00 | |
| DM0DOS-11 | 2026-09-04 11:52:26 | 48.68921 | 10.17963 | 148° | 29km/h | 20761m | 4.8m/s | -54.7°C | 4.4% | 51.9hPa | 2.7V | 08:30:00 | 01:23:04 | 00:00:00 | |
| DK7TD | 2026-09-04 11:52:21 | 48.68933 | 10.17950 | 144° | 31km/h | 20751m | 5m/s | -54.8°C | 0.9% | 52hPa | 2.6V | 18:12:15 | 01:23:02 | 00:00:00 | |
| OE5WHR-10 | 2026-09-04 11:52:21 | 48.68933 | 10.17950 | 144° | 26km/h | 20751m | 5.0m/s | -54.7°C | 4.4% | 52.0hPa | 2.6V | 00:00:00 | 01:23:02 | 00:00:00 | |
| DO3MHA-12 | 2026-09-04 11:52:20 | 48.68940 | 10.17943 | 145° | 27km/h | 20746m | 4.5m/s | -54.7°C | 4.3% | 52.0hPa | 2.6V | 00:00:00 | 01:23:01 | 00:00:00 | |
| OE9MKV-15 | 2026-09-04 11:52:19 | 48.68946 | 10.17937 | 148° | 27km/h | 20741m | 5.8m/s | -54.7°C | 4.4% | 52.1hPa | 2.6V | 00:00:00 | 01:23:00 | 00:00:00 | |
| DB0ND-19 | 2026-09-04 11:52:18 | 48.68952 | 10.17931 | 148° | 27km/h | 20736m | 4.5m/s | -54.8°C | 1.2% | 52.1hPa | 2.6V | 00:00:00 | 00:00:00 | 00:00:00 | |
| DM0DOS-11 | 2026-09-04 11:52:16 | 48.68977 | 10.17893 | 127° | 29km/h | 20710m | 5.5m/s | -54.8°C | 4.4% | 52.4hPa | 2.6V | 08:30:00 | 01:22:54 | 00:00:00 | |
| DF2AP-13 | 2026-09-04 11:52:16 | 48.68963 | 10.17919 | 138° | 27km/h | 20726m | 6.1m/s | -54.8°C | 4.4% | 52.2hPa | 2.7V | 00:00:00 | 01:22:57 | 08:30:00 | |
| DF7PN | 2026-09-04 11:52:15 | 48.68968 | 10.17911 | 130° | 29km/h | 20721m | 5.3m/s | -54.8°C | 1.2% | 52.3hPa | 2.7V | 00:00:00 | 00:00:00 | 00:00:00 | |
| DO3MHA-11 | 2026-09-04 11:52:14 | 48.68973 | 10.17902 | 127° | 26km/h | 20715m | 4.8m/s | -54.7°C | 4.4% | 52.3hPa | 2.7V | 00:00:00 | 01:22:55 | 00:00:00 | |
| DL1ZP-14 | 2026-09-04 11:52:11 | 48.68986 | 10.17878 | 134° | 24km/h | 20700m | 4.2m/s | -54.9°C | 1.2% | 52.4hPa | 2.7V | 00:00:00 | 00:00:00 | 00:00:00 | |
| HSKMA3-T | 2026-09-04 11:52:11 | 48.68986 | 10.17878 | 135° | 24km/h | 20700m | 4.2m/s | -54.9°C | 0.9% | 0hPa | 2.7V | 18:12:15 | 01:22:52 | 00:00:00 | |
| DJ8HS-15 | 2026-09-04 11:52:10 | 48.68990 | 10.17871 | 135° | 26km/h | 20696m | 4.5m/s | -54.9°C | 4.5% | 52.4hPa | 2.7V | 00:00:00 | 01:22:51 | 08:30:00 | |
| OE5DRO-10 | 2026-09-04 11:52:08 | 48.68999 | 10.17858 | 132° | 26km/h | 20685m | 4.9m/s | -54.9°C | 4.5% | 52.5hPa | 2.7V | 00:00:00 | 00:00:00 | 00:00:00 | |
| IW2NTF | 2026-09-04 11:52:06 | 48.69019 | 10.17828 | 130° | 24km/h | 20659m | 5.7m/s | -55.2°C | 4.5% | 52.8hPa | 2.7V | 08:30:00 | 01:22:44 | 00:00:00 | |
| DK7TD | 2026-09-04 11:52:00 | 48.69032 | 10.17807 | 139° | 24km/h | 20644m | 5.4m/s | -55.4°C | 0.9% | 52.9hPa | 2.6V | 18:12:15 | 01:22:41 | 00:00:00 | |
| SONCRA | 2026-09-04 11:52:00 | 48.69036 | 10.17801 | 143° | 24km/h | 20639m | 4.0m/s | -55.3°C | 1.3% | 52.9hPa | 2.6V | 00:00:00 | 00:00:00 | 00:00:00 | |
| DL9SK-14 | 2026-09-04 11:51:59 | 48.69041 | 10.17796 | 142° | 24km/h | 20634m | 5.2m/s | -55.3°C | 1.3% | 53.0hPa | 2.6V | 00:00:00 | 00:00:00 | 00:00:00 | |
| DF3TZ-5 | 2026-09-04 11:51:57 | 48.69046 | 10.17789 | 138° | 27km/h | 20629m | 5.6m/s | -55.3°C | 1.3% | 53.0hPa | 2.6V | 00:00:00 | 00:00:00 | 00:00:00 | |
| IW2NTF | 2026-09-04 11:51:56 | 48.69064 | 10.17755 | 124° | 29km/h | 20609m | 5m/s | -55.2°C | 4.5% | 53.2hPa | 2.6V | 08:30:00 | 01:22:34 | 00:00:00 | |
| DK7TD | 2026-09-04 11:51:50 | 48.69078 | 10.17725 | 127° | 33km/h | 20593m | 4.8m/s | -55.1°C | 0.8% | 53.3hPa | 2.7V | 18:12:15 | 01:22:31 | 00:00:00 | |
| HSKMA3-T | 2026-09-04 11:51:49 | 48.69083 | 10.17715 | 129° | 33km/h | 20587m | 6.3m/s | 0°C | 0% | 0hPa | 2.7V | 18:12:15 | 01:22:30 | 00:00:00 | |
| DM0DOS-11 | 2026-09-04 11:51:47 | 48.69109 | 10.17656 | 116° | 29km/h | 20558m | 5.2m/s | -55.5°C | 4.6% | 53.6hPa | 2.7V | 08:30:00 | 01:22:24 | 00:00:00 | |
| DB0ND-19 | 2026-09-04 11:51:47 | 48.69093 | 10.17697 | 128° | 29km/h | 20577m | 4.4m/s | -55.2°C | 1.2% | 53.5hPa | 2.6V | 00:00:00 | 00:00:00 | 00:00:00 | |
| DF7PN | 2026-09-04 11:51:44 | 48.69106 | 10.17666 | 116° | 31km/h | 20562m | 4.2m/s | -55.4°C | 1.3% | 53.5hPa | 2.6V | 00:00:00 | 00:00:00 | 00:00:00 | |
| DK7TD | 2026-09-04 11:51:39 | 48.69121 | 10.17621 | 113° | 26km/h | 20537m | 5.9m/s | -55.6°C | 1% | 53.8hPa | 2.6V | 18:12:15 | 01:22:20 | 00:00:00 | |
| DN1GJH-1 | 2026-09-04 11:51:38 | 48.69121 | 10.17621 | 114° | 26km/h | 20537m | 5.9m/s | -55.6°C | 1.3% | 53.8hPa | 2.7V | 00:00:00 | 00:00:00 | 00:00:00 | |
| NBG1-10 | 2026-09-04 11:51:37 | 48.69127 | 10.17603 | 116° | 18km/h | 20526m | 6.1m/s | -55.6°C | 4.6% | 53.8hPa | 2.7V | 00:00:00 | 01:22:18 | 08:30:00 | |
| IW2NTF | 2026-09-04 11:51:36 | 48.69138 | 10.17566 | 111° | 29km/h | 20505m | 4.6m/s | -55.6°C | 4.6% | 54.1hPa | 2.6V | 08:30:00 | 01:22:14 | 00:00:00 | |
| HSKMA3-T | 2026-09-04 11:51:36 | 48.69129 | 10.17595 | 116° | 24km/h | 20521m | 4.7m/s | 0°C | 0% | 0hPa | 2.7V | 18:12:15 | 01:22:17 | 00:00:00 | |
| DO9HM | 2026-09-04 11:51:36 | 48.69129 | 10.17595 | 117° | 24km/h | 20521m | 4.7m/s | -55.6°C | 1.3% | 53.9hPa | 2.7V | 00:00:00 | 00:00:00 | 00:00:00 | |
| DO3MHA-11 | 2026-09-04 11:51:34 | 48.69135 | 10.17576 | 113° | 26km/h | 20511m | 5.6m/s | -55.6°C | 4.6% | 54.0hPa | 2.7V | 00:00:00 | 01:22:15 | 00:00:00 | |
| DM0DOS-11 | 2026-09-04 11:51:33 | 48.69153 | 10.17511 | 105° | 24km/h | 20474m | 4.8m/s | -55.8°C | 4.7% | 54.3hPa | 2.7V | 08:30:00 | 01:22:08 | 00:00:00 | |
| DK7TD | 2026-09-04 11:51:29 | 48.69149 | 10.17529 | 115° | 26km/h | 20485m | 5.6m/s | -55.9°C | 1% | 54.2hPa | 2.6V | 18:12:15 | 01:22:10 | 00:00:00 | |
| SONCRA | 2026-09-04 11:51:29 | 48.69151 | 10.17520 | 110° | 26km/h | 20479m | 5.5m/s | -55.9°C | 1.3% | 54.3hPa | 2.7V | 00:00:00 | 00:00:00 | 00:00:00 | |
| IW2NTF | 2026-09-04 11:51:28 | 48.69154 | 10.17482 | 81° | 18km/h | 20453m | 6.1m/s | -56°C | 4.7% | 54.5hPa | 2.7V | 08:30:00 | 01:22:04 | 00:00:00 | |
| HSKMA3-T | 2026-09-04 11:51:24 | 48.69155 | 10.17489 | 84° | 16km/h | 20458m | 4.2m/s | 0°C | 0% | 0hPa | 2.6V | 18:12:15 | 01:22:05 | 00:00:00 | |
| DM0DOS-11 | 2026-09-04 11:51:22 | 48.69151 | 10.17441 | 91° | 20km/h | 20420m | 5m/s | -56.1°C | 4.7% | 54.8hPa | 2.7V | 08:30:00 | 01:21:58 | 00:00:00 | |
| DK7TD | 2026-09-04 11:51:19 | 48.69151 | 10.17455 | 84° | 16km/h | 20431m | 4.9m/s | -56°C | 1% | 54.7hPa | 2.6V | 18:12:15 | 01:22:00 | 00:00:00 | |
| DN1GJH-1 | 2026-09-04 11:51:18 | 48.69151 | 10.17455 | 85° | 16km/h | 20432m | 4.9m/s | -56.0°C | 1.4% | 54.7hPa | 2.6V | 00:00:00 | 00:00:00 | 00:00:00 | |
| AZAK | 2026-09-04 11:51:17 | 48.69151 | 10.17449 | 90° | 18km/h | 20426m | 6.0m/s | -56.1°C | 1.3% | 54.7hPa | 2.6V | 00:00:00 | 00:00:00 | 00:00:00 | |
| IW2NTF | 2026-09-04 11:51:16 | 48.69152 | 10.17414 | 88° | 15km/h | 20401m | 4.9m/s | -56.1°C | 4.7% | 55hPa | 2.6V | 08:30:00 | 01:21:54 | 00:00:00 | |
| DO9HM | 2026-09-04 11:51:16 | 48.69151 | 10.17434 | 96° | 20km/h | 20416m | 3.8m/s | -56.1°C | 1.4% | 54.8hPa | 2.6V | 00:00:00 | 00:00:00 | 00:00:00 | |
| DO3MHA-11 | 2026-09-04 11:51:14 | 48.69152 | 10.17420 | 93° | 11km/h | 20406m | 4.7m/s | -56.0°C | 4.7% | 54.9hPa | 2.6V | 00:00:00 | 01:21:55 | 00:00:00 | |
| DF7PN | 2026-09-04 11:51:13 | 48.69152 | 10.17414 | 88° | 15km/h | 20401m | 4.9m/s | -56.1°C | 1.3% | 55.0hPa | 2.6V | 00:00:00 | 00:00:00 | 00:00:00 | |
| DM0DOS-11 | 2026-09-04 11:51:12 | 48.69148 | 10.17389 | 83° | 5km/h | 20371m | 6m/s | -55.9°C | 4.8% | 55.2hPa | 2.6V | 08:30:00 | 01:21:48 | 00:00:00 | |
| DK7TD | 2026-09-04 11:51:09 | 48.69150 | 10.17394 | 58° | 9km/h | 20381m | 5.7m/s | -55.9°C | 1% | 55.2hPa | 2.7V | 18:12:15 | 01:21:50 | 00:00:00 | |
| HSKMA3-T | 2026-09-04 11:51:03 | 48.69147 | 10.17379 | 66° | 9km/h | 20351m | 4.5m/s | 0°C | 0% | 0hPa | 2.7V | 18:12:15 | 01:21:44 | 00:00:00 | |
| DK7TD | 2026-09-04 11:50:58 | 48.69141 | 10.17356 | 47° | 13km/h | 20325m | 5.2m/s | -55.9°C | 1% | 55.7hPa | 2.6V | 18:12:15 | 01:21:39 | 00:00:00 | |
| SONCRA | 2026-09-04 11:50:58 | 48.69139 | 10.17353 | 39° | 9km/h | 20320m | 4.5m/s | -56.0°C | 1.3% | 55.7hPa | 2.7V | 00:00:00 | 00:00:00 | 00:00:00 | |
| DM0DOS-11 | 2026-09-04 11:50:57 | 48.69137 | 10.17351 | 45° | 7km/h | 20315m | 5.8m/s | -56°C | 4.6% | 55.7hPa | 2.7V | 08:30:00 | 01:21:37 | 00:00:00 | |
| DK7TD | 2026-09-04 11:50:47 | 48.69128 | 10.17343 | 76° | 9km/h | 20269m | 5.6m/s | -56.1°C | 1.1% | 56.1hPa | 2.7V | 18:12:15 | 01:21:28 | 00:00:00 | |
| DM0DOS-11 | 2026-09-04 11:50:47 | 48.69127 | 10.17340 | 77° | 7km/h | 20263m | 5.1m/s | -56°C | 4.8% | 56.2hPa | 2.6V | 08:30:00 | 01:21:27 | 00:00:00 | |
| DB0ND-19 | 2026-09-04 11:50:45 | 48.69127 | 10.17333 | 99° | 9km/h | 20253m | 6.4m/s | -56.1°C | 1.4% | 56.3hPa | 2.6V | 00:00:00 | 00:00:00 | 00:00:00 | |
| DO3MHA-11 | 2026-09-04 11:50:44 | 48.69127 | 10.17333 | 100° | 7km/h | 20254m | 6.3m/s | -56.1°C | 4.8% | 56.2hPa | 2.6V | 00:00:00 | 01:21:25 | 00:00:00 | |
| DF7PN | 2026-09-04 11:50:42 | 48.69129 | 10.17326 | 109° | 7km/h | 20243m | 5.7m/s | -56.1°C | 1.3% | 56.4hPa | 2.6V | 00:00:00 | 00:00:00 | 00:00:00 | |
| DO3MHA-12 | 2026-09-04 11:50:40 | 48.69129 | 10.17323 | 98° | 9km/h | 20233m | 3.7m/s | -56.0°C | 4.7% | 56.4hPa | 2.6V | 00:00:00 | 01:21:21 | 00:00:00 | |
| DM0DOS-11 | 2026-09-04 11:50:37 | 48.69129 | 10.17315 | 67° | 7km/h | 20211m | 5.8m/s | -56.1°C | 4.6% | 56.6hPa | 2.6V | 08:30:00 | 01:21:17 | 00:00:00 | |
| DK7TD | 2026-09-04 11:50:37 | 48.69129 | 10.17317 | 79° | 7km/h | 20216m | 5.2m/s | -56.2°C | 0.9% | 56.6hPa | 2.6V | 18:12:15 | 01:21:18 | 00:00:00 | |
| IW2NTF | 2026-09-04 11:50:36 | 48.69130 | 10.17292 | 114° | 15km/h | 20185m | 6.3m/s | -56°C | 4.6% | 56.9hPa | 2.6V | 08:30:00 | 01:21:12 | 00:00:00 | |
| AZAK | 2026-09-04 11:50:35 | 48.69129 | 10.17314 | 69° | 7km/h | 20211m | 5.8m/s | -56.1°C | 1.3% | 56.7hPa | 2.7V | 00:00:00 | 00:00:00 | 00:00:00 | |
| DO3MHA-11 | 2026-09-04 11:50:34 | 48.69127 | 10.17308 | 85° | 13km/h | 20202m | 5.2m/s | -56.1°C | 4.6% | 56.7hPa | 2.7V | 00:00:00 | 01:21:15 | 00:00:00 | |
| OE5DRO-10 | 2026-09-04 11:50:33 | 48.69127 | 10.17303 | 98° | 18km/h | 20196m | 6.0m/s | -55.9°C | 4.6% | 56.7hPa | 2.7V | 00:00:00 | 00:00:00 | 00:00:00 | |
| NBG1-10 | 2026-09-04 11:50:31 | 48.69130 | 10.17292 | 115° | 22km/h | 20185m | 6.2m/s | -56.0°C | 4.6% | 56.8hPa | 2.6V | 00:00:00 | 01:21:12 | 00:00:00 | |
| DO3MHA-12 | 2026-09-04 11:50:30 | 48.69131 | 10.17287 | 122° | 15km/h | 20179m | 5.3m/s | -56.1°C | 4.7% | 56.9hPa | 2.6V | 00:00:00 | 01:21:11 | 00:00:00 | |
| DM0DOS-11 | 2026-09-04 11:50:27 | 48.69138 | 10.17270 | 113° | 13km/h | 20157m | 6m/s | -56°C | 4.7% | 57.1hPa | 2.7V | 08:30:00 | 01:21:07 | 00:00:00 | |
| DK7TD | 2026-09-04 11:50:26 | 48.69138 | 10.17270 | 114° | 13km/h | 20157m | 6m/s | -56°C | 1% | 57.1hPa | 2.7V | 18:12:15 | 01:21:07 | 00:00:00 | |
| OE3JTB-15 | 2026-09-04 11:50:26 | 48.69138 | 10.17270 | 114° | 24km/h | 20158m | 5.9m/s | -55.9°C | 4.7% | 57.1hPa | 2.6V | 00:00:00 | 01:21:07 | 00:00:00 | |
| DL9SK-14 | 2026-09-04 11:50:25 | 48.69139 | 10.17266 | 103° | 11km/h | 20152m | 5.2m/s | -56.0°C | 1.3% | 57.1hPa | 2.6V | 00:00:00 | 00:00:00 | 00:00:00 | |
| DF3TZ-5 | 2026-09-04 11:50:24 | 48.69140 | 10.17255 | 95° | 16km/h | 20141m | 6.7m/s | -56.3°C | 1.4% | 57.2hPa | 2.6V | 00:00:00 | 00:00:00 | 00:00:00 | |
| DO3MHA-12 | 2026-09-04 11:50:20 | 48.69143 | 10.17231 | 102° | 27km/h | 20125m | 6.0m/s | -56.5°C | 5.0% | 57.4hPa | 2.6V | 00:00:00 | 01:21:01 | 00:00:00 | |
| OE9MKV-15 | 2026-09-04 11:50:18 | 48.69147 | 10.17213 | 114° | 26km/h | 20115m | 5.5m/s | -56.4°C | 4.9% | 57.4hPa | 2.6V | 00:00:00 | 01:20:59 | 00:00:00 | |
| DM0DOS-11 | 2026-09-04 11:50:17 | 48.69154 | 10.17193 | 123° | 31km/h | 20104m | 4.6m/s | -56.5°C | 4.9% | 57.6hPa | 2.7V | 08:30:00 | 01:20:57 | 00:00:00 | |
| DK7TD | 2026-09-04 11:50:16 | 48.69154 | 10.17193 | 124° | 31km/h | 20104m | 4.6m/s | -56.5°C | 1.1% | 57.6hPa | 2.7V | 18:12:15 | 01:20:57 | 00:00:00 | |
| OE5DRO-10 | 2026-09-04 11:50:14 | 48.69163 | 10.17175 | 132° | 26km/h | 20095m | 4.3m/s | -56.2°C | 4.9% | 57.7hPa | 2.6V | 00:00:00 | 00:00:00 | 00:00:00 | |
| OE5WHR-10 | 2026-09-04 11:50:13 | 48.69168 | 10.17167 | 132° | 24km/h | 20090m | 4.7m/s | -56.2°C | 4.8% | 57.7hPa | 2.6V | 00:00:00 | 01:20:54 | 00:00:00 | |
| DF7PN | 2026-09-04 11:50:11 | 48.69177 | 10.17151 | 129° | 27km/h | 20080m | 4.3m/s | -56.2°C | 1.4% | 57.8hPa | 2.6V | 00:00:00 | 00:00:00 | 00:00:00 | |
| DO3MHA-12 | 2026-09-04 11:50:10 | 48.69181 | 10.17143 | 129° | 26km/h | 20075m | 5.1m/s | -56.1°C | 4.8% | 57.8hPa | 2.6V | 00:00:00 | 01:20:51 | 00:00:00 | |
| DM0DOS-11 | 2026-09-04 11:50:07 | 48.69189 | 10.17110 | 88° | 27km/h | 20054m | 5.1m/s | -56°C | 4.7% | 58.1hPa | 2.6V | 08:30:00 | 01:20:47 | 00:00:00 | |
| HSKMA3-T | 2026-09-04 11:50:06 | 48.69189 | 10.17110 | 89° | 27km/h | 20054m | 5.1m/s | 0°C | 0% | 0hPa | 2.6V | 18:12:15 | 01:20:47 | 00:00:00 | |
| DK7TD | 2026-09-04 11:50:05 | 48.69189 | 10.17099 | 85° | 27km/h | 20050m | 4.4m/s | -56.1°C | 1% | 58.1hPa | 2.6V | 18:12:15 | 01:20:46 | 00:00:00 | |
| DO3MHA-11 | 2026-09-04 11:50:04 | 48.69188 | 10.17089 | 86° | 24km/h | 20045m | 5.5m/s | -55.9°C | 4.7% | 58.1hPa | 2.7V | 00:00:00 | 01:20:45 | 00:00:00 | |
| DH7VM-15 | 2026-09-04 11:50:01 | 48.69189 | 10.17069 | 99° | 26km/h | 20035m | 5.0m/s | -56.0°C | 1.4% | 58.2hPa | 2.7V | 00:00:00 | 00:00:00 | 00:00:00 | |
| DO3MHA-12 | 2026-09-04 11:50:00 | 48.69192 | 10.17049 | 112° | 24km/h | 20026m | 4.0m/s | -55.9°C | 4.7% | 58.3hPa | 2.7V | 00:00:00 | 01:20:41 | 08:30:00 | |
| NBG1-10 | 2026-09-04 11:49:58 | 48.69197 | 10.17032 | 120° | 29km/h | 20017m | 5.7m/s | -55.9°C | 4.7% | 58.3hPa | 2.6V | 00:00:00 | 01:20:39 | 00:00:00 | |
| DM0DOS-11 | 2026-09-04 11:49:57 | 48.69202 | 10.17020 | 115° | 16km/h | 20008m | 3.6m/s | -55.9°C | 4.8% | 58.5hPa | 2.7V | 08:30:00 | 01:20:37 | 00:00:00 | |
| HSKMA3-T | 2026-09-04 11:49:56 | 48.69202 | 10.17020 | 116° | 16km/h | 20008m | 3.7m/s | 0°C | 0% | 0hPa | 2.7V | 18:12:15 | 01:20:37 | 00:00:00 | |
| DK7TD | 2026-09-04 11:49:55 | 48.69204 | 10.17014 | 112° | 18km/h | 20003m | 5.1m/s | -55.9°C | 1% | 58.5hPa | 2.7V | 18:12:15 | 01:20:36 | 00:00:00 | |
| OE5DRO-10 | 2026-09-04 11:49:55 | 48.69204 | 10.17014 | 112° | 27km/h | 20003m | 5.1m/s | -55.8°C | 4.7% | 58.5hPa | 2.7V | 00:00:00 | 00:00:00 | 00:00:00 | |
| AZAK | 2026-09-04 11:49:54 | 48.69205 | 10.17007 | 107° | 22km/h | 19999m | 5.0m/s | -55.9°C | 1.3% | 58.6hPa | 2.7V | 00:00:00 | 00:00:00 | 00:00:00 | |
| DO9HM | 2026-09-04 11:49:53 | 48.69205 | 10.17007 | 107° | 22km/h | 19999m | 5.0m/s | -55.9°C | 1.4% | 58.6hPa | 2.7V | 00:00:00 | 00:00:00 | 00:00:00 | |
| IW2NTF | 2026-09-04 11:49:51 | 48.69207 | 10.16977 | 87° | 27km/h | 19985m | 5.1m/s | -55.7°C | 4.7% | 58.7hPa | 2.7V | 08:30:00 | 01:20:32 | 00:00:00 | |
| DO3MHA-12 | 2026-09-04 11:49:50 | 48.69207 | 10.16967 | 87° | 29km/h | 19980m | 4.5m/s | -55.7°C | 4.6% | 58.7hPa | 2.7V | 00:00:00 | 01:20:31 | 00:00:00 | |
| DK5PH-5 | 2026-09-04 11:49:49 | 48.69206 | 10.16955 | 88° | 33km/h | 19975m | 4.6m/s | -55.7°C | 4.6% | 58.8hPa | 2.7V | 00:00:00 | 01:20:30 | 00:00:00 | |
| DM0DOS-11 | 2026-09-04 11:49:47 | 48.69209 | 10.16920 | 98° | 29km/h | 19960m | 5.9m/s | -55.7°C | 4.6% | 58.9hPa | 2.7V | 08:30:00 | 01:20:27 | 00:00:00 | |
| DK7TD | 2026-09-04 11:49:45 | 48.69210 | 10.16909 | 100° | 27km/h | 19955m | 5m/s | -55.7°C | 0.9% | 59hPa | 2.7V | 18:12:15 | 01:20:26 | 00:00:00 | |
| BIOWL1-15 | 2026-09-04 11:49:41 | 48.69217 | 10.16848 | 91° | 27km/h | 19925m | 4.1m/s | 0°C | 0% | 0hPa | 2.6V | 18:12:15 | 01:20:20 | 00:00:00 | |
| DO3MHA-12 | 2026-09-04 11:49:40 | 48.69216 | 10.16859 | 94° | 33km/h | 19930m | 4.6m/s | -55.9°C | 4.7% | 59.1hPa | 2.7V | 00:00:00 | 01:20:21 | 00:00:00 | |
| DM0DOS-11 | 2026-09-04 11:49:37 | 48.69218 | 10.16812 | 93° | 35km/h | 19911m | 3.9m/s | -56°C | 4.7% | 59.4hPa | 2.7V | 08:30:00 | 01:20:17 | 00:00:00 | |
| DK7TD | 2026-09-04 11:49:34 | 48.69218 | 10.16785 | 90° | 33km/h | 19902m | 4.7m/s | -55.9°C | 1% | 59.5hPa | 2.7V | 18:12:15 | 01:20:15 | 00:00:00 | |
| HSKMA3-T | 2026-09-04 11:49:32 | 48.69218 | 10.16759 | 91° | 35km/h | 19894m | 4.4m/s | 0°C | 0% | 0hPa | 2.6V | 18:12:15 | 01:20:13 | 00:00:00 | |
| IW2NTF | 2026-09-04 11:49:31 | 48.69220 | 10.16716 | 94° | 38km/h | 19880m | 4.4m/s | -55.8°C | 4.7% | 59.7hPa | 2.7V | 08:30:00 | 01:20:10 | 00:00:00 | |
| OE5WHR-10 | 2026-09-04 11:49:31 | 48.69219 | 10.16745 | 95° | 33km/h | 19889m | 5.2m/s | -55.8°C | 4.7% | 59.5hPa | 2.6V | 00:00:00 | 00:00:00 | 00:00:00 | |
| DJ8HS-15 | 2026-09-04 11:49:30 | 48.69219 | 10.16731 | 96° | 33km/h | 19884m | 4.0m/s | -55.7°C | 4.7% | 59.6hPa | 2.6V | 00:00:00 | 01:20:11 | 00:00:00 | |
| DL6DJ-15 | 2026-09-04 11:49:29 | 48.69220 | 10.16716 | 94° | 37km/h | 19880m | 4.4m/s | -55.8°C | 1.3% | 59.7hPa | 2.6V | 00:00:00 | 00:00:00 | 00:00:00 | |
| DM0DOS-11 | 2026-09-04 11:49:27 | 48.69221 | 10.16676 | 91° | 35km/h | 19865m | 5.5m/s | -55.7°C | 4.6% | 59.8hPa | 2.6V | 08:30:00 | 01:20:07 | 00:00:00 | |
| DK7TD | 2026-09-04 11:49:23 | 48.69221 | 10.16638 | 85° | 29km/h | 19852m | 5m/s | -55.6°C | 0.9% | 60hPa | 2.7V | 18:12:15 | 01:20:04 | 00:00:00 | |
| DF3TZ-5 | 2026-09-04 11:49:22 | 48.69219 | 10.16617 | 76° | 27km/h | 19843m | 3.6m/s | -55.5°C | 1.3% | 60.0hPa | 2.6V | 00:00:00 | 00:00:00 | 00:00:00 | |
| IW2NTF | 2026-09-04 11:49:21 | 48.69216 | 10.16595 | 82° | 33km/h | 19833m | 4.6m/s | -55.6°C | 4.5% | 60.1hPa | 2.6V | 08:30:00 | 01:20:00 | 00:00:00 | |
| BIOWL1-15 | 2026-09-04 11:49:19 | 48.69216 | 10.16594 | 83° | 33km/h | 19833m | 4.6m/s | 0°C | 0% | 0hPa | 2.6V | 18:12:15 | 01:20:00 | 00:00:00 | |
| DM0DOS-11 | 2026-09-04 11:49:17 | 48.69214 | 10.16556 | 88° | 33km/h | 19819m | 4.7m/s | -55.9°C | 4.6% | 60.3hPa | 2.6V | 08:30:00 | 01:19:57 | 00:00:00 | |
| DK7TD | 2026-09-04 11:49:12 | 48.69216 | 10.16503 | 95° | 35km/h | 19801m | 3.4m/s | -55.9°C | 1% | 60.5hPa | 2.7V | 18:12:15 | 01:19:53 | 00:00:00 | |
| IW2NTF | 2026-09-04 11:49:11 | 48.69215 | 10.16468 | 79° | 27km/h | 19788m | 3.6m/s | -56°C | 4.8% | 60.5hPa | 2.7V | 08:30:00 | 01:19:50 | 00:00:00 | |
| BIOWL1-15 | 2026-09-04 11:49:06 | 48.69210 | 10.16435 | 73° | 31km/h | 19774m | 4.1m/s | 0°C | 0% | 0hPa | 2.6V | 18:12:15 | 01:19:47 | 00:00:00 | |
| DL1ZP-14 | 2026-09-04 11:49:05 | 48.69206 | 10.16413 | 74° | 29km/h | 19764m | 4.2m/s | -56.1°C | 1.4% | 60.8hPa | 2.6V | 00:00:00 | 00:00:00 | 00:00:00 | |
| DO3MHA-11 | 2026-09-04 11:49:04 | 48.69206 | 10.16413 | 75° | 31km/h | 19765m | 4.1m/s | -56.1°C | 4.8% | 60.7hPa | 2.6V | 00:00:00 | 01:19:45 | 00:00:00 | |
| IW2NTF | 2026-09-04 11:49:01 | 48.69198 | 10.16352 | 80° | 31km/h | 19741m | 5.5m/s | -55.9°C | 4.7% | 61hPa | 2.6V | 08:30:00 | 01:19:40 | 00:00:00 | |
| DK7TD | 2026-09-04 11:49:01 | 48.69201 | 10.16377 | 82° | 35km/h | 19750m | 4.8m/s | -55.9°C | 1% | 60.9hPa | 2.7V | 18:12:15 | 01:19:42 | 00:00:00 | |
| DL6DJ-15 | 2026-09-04 11:48:58 | 48.69197 | 10.16340 | 78° | 27km/h | 19736m | 5.0m/s | -55.9°C | 1.3% | 61.0hPa | 2.7V | 00:00:00 | 00:00:00 | 00:00:00 | |
| SONDE2-11 | 2026-09-04 11:48:54 | 48.69186 | 10.16281 | 61° | 20km/h | 19703m | 3.9m/s | 0°C | -1.0% | -1.0hPa | 2.7V | 00:00:00 | 00:00:00 | 00:00:00 | |
| SONCRA | 2026-09-04 11:48:53 | 48.69176 | 10.16222 | 86° | 29km/h | 19673m | 5.2m/s | -56.2°C | 1.3% | 61.7hPa | 2.7V | 00:00:00 | 00:00:00 | 00:00:00 | |
| NBG1-10 | 2026-09-04 11:48:52 | 48.69188 | 10.16287 | 65° | 24km/h | 19707m | 3.9m/s | -55.7°C | 4.5% | 61.3hPa | 2.7V | 00:00:00 | 01:19:33 | 00:00:00 | |
| IW2NTF | 2026-09-04 11:48:51 | 48.69181 | 10.16264 | 71° | 27km/h | 19693m | 5.3m/s | -55.9°C | 4.6% | 61.5hPa | 2.7V | 08:30:00 | 01:19:30 | 00:00:00 | |
| DK7TD | 2026-09-04 11:48:50 | 48.69184 | 10.16273 | 66° | 24km/h | 19699m | 4.9m/s | -55.9°C | 0.9% | 61.4hPa | 2.6V | 18:12:15 | 01:19:31 | 00:00:00 | |
| DB0UT-7 | 2026-09-04 11:48:50 | 48.69184 | 10.16273 | 66° | 26km/h | 19699m | 4.8m/s | -55.9°C | 4.6% | 61.4hPa | 2.6V | 00:00:00 | 00:00:00 | 08:30:00 | |
| OE5WHR-10 | 2026-09-04 11:48:49 | 48.69182 | 10.16264 | 72° | 27km/h | 19694m | 5.2m/s | -55.9°C | 4.6% | 61.4hPa | 2.7V | 00:00:00 | 00:00:00 | 00:00:00 | |
| DM0DOS-11 | 2026-09-04 11:48:47 | 48.69176 | 10.16233 | 82° | 27km/h | 19678m | 5m/s | -56°C | 4.6% | 61.6hPa | 2.6V | 08:30:00 | 01:19:27 | 00:00:00 | |
| DK5PH-5 | 2026-09-04 11:48:46 | 48.69177 | 10.16233 | 83° | 24km/h | 19678m | 5.0m/s | -56.0°C | 4.6% | 61.5hPa | 2.6V | 00:00:00 | 01:19:27 | 00:00:00 | |
| DO3MHA-11 | 2026-09-04 11:48:45 | 48.69175 | 10.16210 | 89° | 27km/h | 19668m | 5.6m/s | -56.2°C | 4.8% | 61.6hPa | 2.6V | 00:00:00 | 01:19:25 | 00:00:00 | |
| IW2NTF | 2026-09-04 11:48:41 | 48.69170 | 10.16156 | 70° | 27km/h | 19643m | 5.5m/s | -56.1°C | 4.7% | 61.9hPa | 2.6V | 08:30:00 | 01:19:20 | 00:00:00 | |
| DK7TD | 2026-09-04 11:48:40 | 48.69172 | 10.16167 | 75° | 27km/h | 19648m | 4.8m/s | -56.1°C | 1% | 61.9hPa | 2.7V | 18:12:15 | 01:19:21 | 00:00:00 | |
| DO3MHA-12 | 2026-09-04 11:48:40 | 48.69172 | 10.16167 | 76° | 27km/h | 19648m | 4.7m/s | -56.1°C | 4.8% | 61.9hPa | 2.6V | 00:00:00 | 01:19:21 | 00:00:00 | |
| DM0DOS-11 | 2026-09-04 11:48:37 | 48.69162 | 10.16127 | 68° | 26km/h | 19627m | 4.2m/s | -56.2°C | 4.7% | 62.1hPa | 2.6V | 08:30:00 | 01:19:17 | 00:00:00 | |
| DF1GD-15 | 2026-09-04 11:48:34 | 48.69158 | 10.16108 | 80° | 27km/h | 19618m | 5.4m/s | -56.4°C | 1.4% | 62.2hPa | 2.6V | 00:00:00 | 00:00:00 | 00:00:00 | |
| DM7RM-13 | 2026-09-04 11:48:33 | 48.69158 | 10.16108 | 80° | 27km/h | 19618m | 5.4m/s | -56.4°C | 1.4% | 62.2hPa | 2.6V | 00:00:00 | 00:00:00 | 00:00:00 | |
| IW2NTF | 2026-09-04 11:48:31 | 48.69160 | 10.16061 | 99° | 24km/h | 19592m | 5.8m/s | -56.2°C | 4.8% | 62.4hPa | 2.6V | 08:30:00 | 01:19:10 | 00:00:00 | |
| DK7TD | 2026-09-04 11:48:29 | 48.69160 | 10.16061 | 100° | 24km/h | 19592m | 5.9m/s | -56.3°C | 1% | 62.4hPa | 2.6V | 18:12:15 | 01:19:10 | 00:00:00 | |
| OE5WHR-10 | 2026-09-04 11:48:28 | 48.69161 | 10.16052 | 98° | 22km/h | 19588m | 4.1m/s | -56.2°C | 4.8% | 62.5hPa | 2.7V | 00:00:00 | 00:00:00 | 00:00:00 | |
| DM0DOS-11 | 2026-09-04 11:48:27 | 48.69162 | 10.16037 | 92° | 16km/h | 19577m | 4.8m/s | -56°C | 4.7% | 62.6hPa | 2.7V | 08:30:00 | 01:19:07 | 00:00:00 | |
| DO3MHA-11 | 2026-09-04 11:48:24 | 48.69161 | 10.16024 | 84° | 20km/h | 19567m | 6.0m/s | -56.0°C | 4.7% | 62.7hPa | 2.6V | 00:00:00 | 01:19:05 | 00:00:00 | |
| SONCRA | 2026-09-04 11:48:22 | 48.69160 | 10.16008 | 81° | 20km/h | 19558m | 4.0m/s | -56.0°C | 1.3% | 62.8hPa | 2.6V | 00:00:00 | 00:00:00 | 00:00:00 | |
| IW2NTF | 2026-09-04 11:48:21 | 48.69160 | 10.15987 | 99° | 16km/h | 19543m | 4.4m/s | -56.2°C | 4.7% | 62.9hPa | 2.6V | 08:30:00 | 01:19:00 | 00:00:00 | |
| DK7TD | 2026-09-04 11:48:19 | 48.69160 | 10.15987 | 99° | 16km/h | 19543m | 4.4m/s | -56.2°C | 1% | 62.9hPa | 2.6V | 18:12:15 | 01:19:00 | 00:00:00 | |
| NBG1-10 | 2026-09-04 11:48:19 | 48.69160 | 10.15987 | 100° | 24km/h | 19543m | 4.4m/s | -56.1°C | 4.7% | 62.9hPa | 2.6V | 00:00:00 | 01:19:00 | 00:00:00 | |
| DM0DOS-11 | 2026-09-04 11:48:17 | 48.69163 | 10.15965 | 104° | 24km/h | 19528m | 4m/s | -56°C | 4.7% | 63.1hPa | 2.7V | 08:30:00 | 01:18:57 | 00:00:00 | |
| DF2AP-13 | 2026-09-04 11:48:16 | 48.69163 | 10.15964 | 105° | 26km/h | 19529m | 3.9m/s | -56.0°C | 4.7% | 63.1hPa | 2.6V | 00:00:00 | 01:18:57 | 00:00:00 | |
| DF1GD-15 | 2026-09-04 11:48:14 | 48.69167 | 10.15947 | 111° | 24km/h | 19519m | 5.3m/s | -56.1°C | 1.4% | 63.2hPa | 2.6V | 00:00:00 | 00:00:00 | 00:00:00 | |
| OE5DRO-10 | 2026-09-04 11:48:12 | 48.69171 | 10.15930 | 110° | 20km/h | 19510m | 4.9m/s | -56.1°C | 4.8% | 63.2hPa | 2.6V | 00:00:00 | 00:00:00 | 00:00:00 | |
| DO9HM | 2026-09-04 11:48:11 | 48.69171 | 10.15930 | 111° | 24km/h | 19510m | 5.0m/s | -56.2°C | 1.4% | 63.2hPa | 2.6V | 00:00:00 | 00:00:00 | 00:00:00 | |
| DB0ND-19 | 2026-09-04 11:48:10 | 48.69175 | 10.15902 | 97° | 24km/h | 19494m | 5.4m/s | -56.2°C | 1.4% | 63.4hPa | 2.6V | 00:00:00 | 00:00:00 | 00:00:00 | |
| DM0DOS-11 | 2026-09-04 11:48:08 | 48.69175 | 10.15877 | 82° | 22km/h | 19478m | 6m/s | -56.2°C | 4.8% | 63.5hPa | 2.6V | 08:30:00 | 01:18:47 | 00:00:00 | |
| DK7TD | 2026-09-04 11:48:08 | 48.69176 | 10.15894 | 90° | 22km/h | 19489m | 5.9m/s | -56.1°C | 1% | 63.5hPa | 2.6V | 18:12:15 | 01:18:49 | 00:00:00 | |
| HSKMA3-T | 2026-09-04 11:48:05 | 48.69174 | 10.15868 | 83° | 24km/h | 19473m | 4.6m/s | 0°C | 0% | 0hPa | 2.7V | 18:12:15 | 01:18:46 | 00:00:00 | |
| DO3MHA-11 | 2026-09-04 11:48:04 | 48.69173 | 10.15860 | 85° | 24km/h | 19468m | 5.2m/s | -56.1°C | 4.8% | 63.6hPa | 2.6V | 00:00:00 | 01:18:45 | 00:00:00 | |
| DL1ZP-14 | 2026-09-04 11:48:02 | 48.69174 | 10.15844 | 100° | 20km/h | 19458m | 4.5m/s | -56.1°C | 1.3% | 63.8hPa | 2.6V | 00:00:00 | 00:00:00 | 00:00:00 | |
| IW2NTF | 2026-09-04 11:48:01 | 48.69180 | 10.15817 | 112° | 29km/h | 19443m | 3.3m/s | -56°C | 4.8% | 63.9hPa | 2.7V | 08:30:00 | 01:18:40 | 00:00:00 | |
| DO3MHA-12 | 2026-09-04 11:48:00 | 48.69177 | 10.15827 | 112° | 26km/h | 19447m | 5.0m/s | -56.0°C | 4.8% | 63.8hPa | 2.7V | 00:00:00 | 01:18:41 | 00:00:00 | |
| DM0DOS-11 | 2026-09-04 11:47:57 | 48.69189 | 10.15779 | 98° | 22km/h | 19422m | 5m/s | -55.9°C | 4.8% | 64.1hPa | 2.7V | 08:30:00 | 01:18:36 | 00:00:00 | |
| DK7TD | 2026-09-04 11:47:57 | 48.69185 | 10.15797 | 111° | 26km/h | 19433m | 6m/s | -56°C | 1% | 64hPa | 2.6V | 18:12:15 | 01:18:38 | 00:00:00 | |
| HSKMA3-T | 2026-09-04 11:47:53 | 48.69189 | 10.15761 | 87° | 26km/h | 19412m | 4.9m/s | 0°C | 0% | 0hPa | 2.6V | 18:12:15 | 01:18:34 | 00:00:00 | |
| IW2NTF | 2026-09-04 11:47:52 | 48.69186 | 10.15722 | 84° | 26km/h | 19391m | 4.7m/s | -55.8°C | 4.7% | 64.5hPa | 2.7V | 08:30:00 | 01:18:30 | 00:00:00 | |
| DK7TD | 2026-09-04 11:47:47 | 48.69185 | 10.15699 | 93° | 35km/h | 19380m | 4.8m/s | -55.8°C | 1% | 64.6hPa | 2.6V | 18:12:15 | 01:18:28 | 00:00:00 | |
| DM0DOS-11 | 2026-09-04 11:47:46 | 48.69186 | 10.15673 | 94° | 33km/h | 19370m | 5.9m/s | -55.7°C | 4.7% | 64.7hPa | 2.6V | 08:30:00 | 01:18:26 | 00:00:00 | |
| OE5WHR-10 | 2026-09-04 11:47:46 | 48.69186 | 10.15686 | 95° | 35km/h | 19376m | 4.4m/s | -55.8°C | 4.7% | 64.6hPa | 2.6V | 00:00:00 | 00:00:00 | 08:30:00 | |
| DO3MHA-11 | 2026-09-04 11:47:44 | 48.69187 | 10.15661 | 93° | 33km/h | 19365m | 5.2m/s | -55.6°C | 4.7% | 64.7hPa | 2.6V | 00:00:00 | 01:18:25 | 00:00:00 | |
| IW2NTF | 2026-09-04 11:47:41 | 48.69180 | 10.15597 | 73° | 35km/h | 19338m | 5.2m/s | -55.6°C | 4.6% | 65hPa | 2.6V | 08:30:00 | 01:18:20 | 00:00:00 | |
| HSKMA3-T | 2026-09-04 11:47:41 | 48.69184 | 10.15624 | 78° | 37km/h | 19349m | 5.9m/s | 0°C | 0% | 0hPa | 2.7V | 18:12:15 | 01:18:22 | 00:00:00 | |
| DK7TD | 2026-09-04 11:47:36 | 48.69173 | 10.15562 | 77° | 31km/h | 19322m | 5.7m/s | -55.5°C | 1% | 65.2hPa | 2.7V | 18:12:15 | 01:18:17 | 00:00:00 | |
| DM0DOS-11 | 2026-09-04 11:47:36 | 48.69172 | 10.15550 | 80° | 33km/h | 19316m | 5.5m/s | -55.5°C | 4.7% | 65.2hPa | 2.6V | 08:30:00 | 01:18:16 | 00:00:00 | |
| DF7PN | 2026-09-04 11:47:36 | 48.69172 | 10.15550 | 80° | 33km/h | 19317m | 5.5m/s | -55.5°C | 1.3% | 65.2hPa | 2.7V | 00:00:00 | 00:00:00 | 00:00:00 | |
| DO3MHA-11 | 2026-09-04 11:47:34 | 48.69170 | 10.15537 | 81° | 37km/h | 19312m | 3.8m/s | -55.4°C | 4.7% | 65.2hPa | 2.7V | 00:00:00 | 01:18:15 | 00:00:00 | |
| DF1GD-15 | 2026-09-04 11:47:33 | 48.69170 | 10.15537 | 81° | 35km/h | 19312m | 3.8m/s | -55.4°C | 1.4% | 65.3hPa | 2.7V | 00:00:00 | 00:00:00 | 00:00:00 | |
| IW2NTF | 2026-09-04 11:47:31 | 48.69161 | 10.15476 | 75° | 37km/h | 19286m | 5.7m/s | -55.4°C | 4.6% | 65.5hPa | 2.7V | 08:30:00 | 01:18:10 | 00:00:00 | |
| HSKMA3-T | 2026-09-04 11:47:30 | 48.69163 | 10.15489 | 74° | 33km/h | 19292m | 4.9m/s | 0°C | 0% | 0hPa | 2.7V | 18:12:15 | 01:18:11 | 00:00:00 | |
| DJ8HS-15 | 2026-09-04 11:47:30 | 48.69163 | 10.15489 | 75° | 35km/h | 19292m | 4.8m/s | -55.4°C | 4.6% | 65.4hPa | 2.6V | 00:00:00 | 01:18:11 | 00:00:00 | |
| AZAK | 2026-09-04 11:47:28 | 48.69158 | 10.15462 | 79° | 40km/h | 19281m | 5.4m/s | -55.3°C | 1.3% | 65.6hPa | 2.6V | 00:00:00 | 00:00:00 | 00:00:00 | |
| DM0DOS-11 | 2026-09-04 11:47:26 | 48.69151 | 10.15415 | 74° | 40km/h | 19266m | 5.8m/s | -55.2°C | 4.4% | 65.7hPa | 2.6V | 08:30:00 | 01:18:06 | 00:00:00 | |
| DK7TD | 2026-09-04 11:47:26 | 48.69154 | 10.15430 | 77° | 42km/h | 19271m | 4.7m/s | -55.2°C | 0.8% | 65.7hPa | 2.6V | 18:12:15 | 01:18:07 | 00:00:00 | |
| OE5WHR-10 | 2026-09-04 11:47:25 | 48.69151 | 10.15414 | 75° | 31km/h | 19266m | 5.8m/s | -55.2°C | 4.4% | 65.7hPa | 2.7V | 00:00:00 | 00:00:00 | 00:00:00 | |
| DO3MHA-11 | 2026-09-04 11:47:24 | 48.69149 | 10.15400 | 73° | 35km/h | 19261m | 4.7m/s | -55.2°C | 4.4% | 65.8hPa | 2.7V | 00:00:00 | 01:18:05 | 00:00:00 | |
| IW2NTF | 2026-09-04 11:47:20 | 48.69136 | 10.15335 | 71° | 35km/h | 19233m | 6.9m/s | -55.4°C | 4.7% | 66hPa | 2.6V | 08:30:00 | 01:18:00 | 00:00:00 | |
| DO3MHA-12 | 2026-09-04 11:47:20 | 48.69139 | 10.15348 | 76° | 31km/h | 19240m | 5.2m/s | -55.4°C | 4.7% | 66.0hPa | 2.6V | 00:00:00 | 01:18:01 | 00:00:00 | |
| DL9SK-14 | 2026-09-04 11:47:19 | 48.69137 | 10.15335 | 71° | 33km/h | 19234m | 6.9m/s | -55.4°C | 1.3% | 66.0hPa | 2.6V | 00:00:00 | 00:00:00 | 00:00:00 | |
| DF3TZ-5 | 2026-09-04 11:47:17 | 48.69130 | 10.15312 | 67° | 31km/h | 19223m | 4.7m/s | -55.4°C | 1.3% | 66.2hPa | 2.6V | 00:00:00 | 00:00:00 | 00:00:00 | |
| DK5PH-5 | 2026-09-04 11:47:16 | 48.69127 | 10.15300 | 72° | 22km/h | 19217m | 6.3m/s | -55.4°C | 4.6% | 66.2hPa | 2.6V | 00:00:00 | 01:17:57 | 00:00:00 | |
| DM0DOS-11 | 2026-09-04 11:47:15 | 48.69123 | 10.15276 | 80° | 31km/h | 19206m | 4.8m/s | -55.5°C | 4.7% | 66.3hPa | 2.6V | 08:30:00 | 01:17:55 | 00:00:00 | |
| DK7TD | 2026-09-04 11:47:15 | 48.69125 | 10.15288 | 78° | 33km/h | 19211m | 5.3m/s | -55.5°C | 0.9% | 66.3hPa | 2.6V | 18:12:15 | 01:17:56 | 00:00:00 | |
| DO3MHA-11 | 2026-09-04 11:47:14 | 48.69123 | 10.15276 | 81° | 26km/h | 19206m | 4.7m/s | -55.4°C | 4.7% | 66.3hPa | 2.6V | 00:00:00 | 01:17:55 | 00:00:00 | |
| HARRO8 | 2026-09-04 11:47:13 | 48.69121 | 10.15256 | 76° | 24km/h | 19194m | 5.5m/s | -55.4°C | 1.4% | 66.5hPa | 2.6V | 00:00:00 | 00:00:00 | 00:00:00 | |
| IW2NTF | 2026-09-04 11:47:12 | 48.69116 | 10.15229 | 75° | 26km/h | 19180m | 5.8m/s | -55.3°C | 4.6% | 66.7hPa | 2.6V | 08:30:00 | 01:17:50 | 00:00:00 | |
| DJTTGO | 2026-09-04 11:47:12 | 48.69119 | 10.15247 | 74° | 24km/h | 19190m | 4.4m/s | -55.3°C | 1.4% | 66.5hPa | 2.7V | 00:00:00 | 00:00:00 | 00:00:00 | |
| DM7RM-13 | 2026-09-04 11:47:11 | 48.69119 | 10.15247 | 74° | 24km/h | 19190m | 4.4m/s | -55.3°C | 1.4% | 66.5hPa | 2.7V | 00:00:00 | 00:00:00 | 00:00:00 | |
| DM0DOS-11 | 2026-09-04 11:47:08 | 48.69109 | 10.15186 | 77° | 22km/h | 19155m | 5.3m/s | -55.2°C | 4.6% | 66.9hPa | 2.7V | 08:30:00 | 01:17:45 | 00:00:00 | |
| DK7TD | 2026-09-04 11:47:05 | 48.69110 | 10.15193 | 76° | 20km/h | 19159m | 4.1m/s | -55.3°C | 1% | 66.8hPa | 2.7V | 18:12:15 | 01:17:46 | 00:00:00 | |
| DF7PN | 2026-09-04 11:47:05 | 48.69109 | 10.15186 | 77° | 20km/h | 19155m | 5.3m/s | -55.2°C | 1.3% | 66.9hPa | 2.7V | 00:00:00 | 00:00:00 | 00:00:00 | |
| OE5WHR-10 | 2026-09-04 11:47:04 | 48.69109 | 10.15186 | 78° | 18km/h | 19155m | 5.2m/s | -55.2°C | 4.6% | 66.9hPa | 2.7V | 00:00:00 | 01:17:45 | 00:00:00 | |
| IW2NTF | 2026-09-04 11:47:00 | 48.69100 | 10.15145 | 63° | 18km/h | 19128m | 4.8m/s | -55.2°C | 4.6% | 67.2hPa | 2.7V | 08:30:00 | 01:17:40 | 00:00:00 | |
| DO3MHA-12 | 2026-09-04 11:47:00 | 48.69103 | 10.15152 | 66° | 18km/h | 19134m | 6.0m/s | -55.2°C | 4.6% | 67.1hPa | 2.6V | 00:00:00 | 01:17:41 | 08:30:00 | |
| DM0DOS-11 | 2026-09-04 11:46:56 | 48.69094 | 10.15095 | 89° | 18km/h | 19086m | 5m/s | -55.1°C | 4.4% | 67.6hPa | 2.7V | 08:30:00 | 01:17:32 | 00:00:00 | |
| DK7TD | 2026-09-04 11:46:55 | 48.69095 | 10.15119 | 83° | 16km/h | 19108m | 4.8m/s | -55°C | 0.8% | 67.4hPa | 2.6V | 18:12:15 | 01:17:36 | 00:00:00 | |
| DL6DJ-15 | 2026-09-04 11:46:54 | 48.69094 | 10.15107 | 88° | 13km/h | 19097m | 5.1m/s | -55.0°C | 1.2% | 67.5hPa | 2.6V | 00:00:00 | 00:00:00 | 00:00:00 | |
| DN1GJH-1 | 2026-09-04 11:46:52 | 48.69094 | 10.15107 | 90° | 13km/h | 19097m | 5.1m/s | -55.0°C | 1.3% | 67.5hPa | 2.6V | 00:00:00 | 00:00:00 | 00:00:00 | |
| IW2NTF | 2026-09-04 11:46:50 | 48.69093 | 10.15081 | 82° | 18km/h | 19077m | 5.7m/s | -54.9°C | 4.4% | 67.7hPa | 2.6V | 08:30:00 | 01:17:30 | 00:00:00 | |
| DK7TD | 2026-09-04 11:46:44 | 48.69086 | 10.15047 | 66° | 18km/h | 19051m | 4.5m/s | -55.1°C | 0.9% | 68hPa | 2.6V | 18:12:15 | 01:17:25 | 00:00:00 | |
| DO3MHA-11 | 2026-09-04 11:46:44 | 48.69086 | 10.15047 | 67° | 13km/h | 19051m | 4.4m/s | -55.0°C | 4.6% | 68.0hPa | 2.6V | 00:00:00 | 01:17:25 | 00:00:00 | |
| OE5WHR-10 | 2026-09-04 11:46:43 | 48.69084 | 10.15041 | 61° | 13km/h | 19046m | 5.8m/s | -55.1°C | 4.6% | 68.0hPa | 2.6V | 00:00:00 | 00:00:00 | 00:00:00 | |
| DM0DOS-11 | 2026-09-04 11:46:41 | 48.69081 | 10.15033 | 69° | 9km/h | 19036m | 4.6m/s | -55.2°C | 4.6% | 68.2hPa | 2.7V | 08:30:00 | 01:17:22 | 00:00:00 | |
| OE5DRO-10 | 2026-09-04 11:46:41 | 48.69081 | 10.15033 | 70° | 13km/h | 19036m | 4.6m/s | -55.2°C | 4.6% | 68.1hPa | 2.6V | 00:00:00 | 00:00:00 | 00:00:00 | |
| DO3MHA-12 | 2026-09-04 11:46:40 | 48.69081 | 10.15029 | 80° | 13km/h | 19031m | 5.6m/s | -55.3°C | 4.6% | 68.2hPa | 2.6V | 00:00:00 | 01:17:21 | 00:00:00 | |
| DB0ND-19 | 2026-09-04 11:46:37 | 48.69080 | 10.15012 | 79° | 9km/h | 19010m | 5.0m/s | -55.4°C | 1.3% | 68.5hPa | 2.6V | 00:00:00 | 00:00:00 | 00:00:00 | |
| DM0DOS-11 | 2026-09-04 11:46:35 | 48.69078 | 10.14985 | 81° | 13km/h | 18982m | 5.9m/s | -55.5°C | 4.6% | 68.8hPa | 2.6V | 08:30:00 | 01:17:12 | 00:00:00 | |
| DK7TD | 2026-09-04 11:46:34 | 48.69079 | 10.15003 | 85° | 15km/h | 18999m | 6.7m/s | -55.4°C | 0.8% | 68.5hPa | 2.6V | 18:12:15 | 01:17:15 | 00:00:00 | |
| DF7PN | 2026-09-04 11:46:34 | 48.69079 | 10.14997 | 86° | 15km/h | 18993m | 4.8m/s | -55.4°C | 1.3% | 68.6hPa | 2.6V | 00:00:00 | 00:00:00 | 00:00:00 | |
| DN1GJH-1 | 2026-09-04 11:46:32 | 48.69079 | 10.14997 | 88° | 16km/h | 18993m | 4.8m/s | -55.4°C | 1.3% | 68.6hPa | 2.6V | 00:00:00 | 00:00:00 | 00:00:00 | |
| DF1GD-15 | 2026-09-04 11:46:31 | 48.69078 | 10.14991 | 87° | 16km/h | 18988m | 5.5m/s | -55.4°C | 1.3% | 68.7hPa | 2.6V | 00:00:00 | 00:00:00 | 00:00:00 | |
| IW2NTF | 2026-09-04 11:46:30 | 48.69078 | 10.14976 | 100° | 13km/h | 18973m | 5.3m/s | -55.5°C | 4.6% | 68.9hPa | 2.6V | 08:30:00 | 01:17:10 | 00:00:00 | |
| DJ8HS-15 | 2026-09-04 11:46:30 | 48.69078 | 10.14980 | 90° | 15km/h | 18977m | 3.9m/s | -55.4°C | 4.5% | 68.7hPa | 2.6V | 00:00:00 | 01:17:11 | 00:00:00 | |
| DL1ZP-14 | 2026-09-04 11:46:29 | 48.69078 | 10.14976 | 100° | 11km/h | 18973m | 5.4m/s | -55.5°C | 1.3% | 68.9hPa | 2.6V | 00:00:00 | 00:00:00 | 00:00:00 | |
| DO9HM | 2026-09-04 11:46:28 | 48.69078 | 10.14976 | 101° | 13km/h | 18973m | 5.4m/s | -55.5°C | 1.4% | 68.9hPa | 2.7V | 00:00:00 | 00:00:00 | 00:00:00 | |
| AZAK | 2026-09-04 11:46:26 | 48.69081 | 10.14967 | 134° | 15km/h | 18961m | 5.3m/s | -55.4°C | 1.3% | 69.0hPa | 2.7V | 00:00:00 | 00:00:00 | 00:00:00 | |
| IW2NTF | 2026-09-04 11:46:24 | 48.69109 | 10.14938 | 133° | 16km/h | 18919m | 4.2m/s | -55.5°C | 4.6% | 69.4hPa | 2.7V | 08:30:00 | 01:17:00 | 00:00:00 | |
| DB0NH | 2026-09-04 11:46:24 | 48.69090 | 10.14958 | 154° | 16km/h | 18945m | 4.5m/s | -55.3°C | 4.5% | 69.1hPa | 2.6V | 00:00:00 | 01:17:05 | 00:00:00 | |
| DM0DOS-11 | 2026-09-04 11:46:23 | 48.69103 | 10.14947 | 142° | 20km/h | 18929m | 5.5m/s | -55.5°C | 4.7% | 69.3hPa | 2.6V | 08:30:00 | 01:17:02 | 00:00:00 | |
| DK7TD | 2026-09-04 11:46:23 | 48.69094 | 10.14955 | 150° | 18km/h | 18940m | 6.3m/s | -55.4°C | 0.9% | 69.2hPa | 2.6V | 18:12:15 | 01:17:04 | 00:00:00 | |
| DL6DJ-15 | 2026-09-04 11:46:23 | 48.69099 | 10.14951 | 144° | 20km/h | 18934m | 5.2m/s | -55.5°C | 1.3% | 69.2hPa | 2.6V | 00:00:00 | 00:00:00 | 00:00:00 | |
| OE5DRO-10 | 2026-09-04 11:46:22 | 48.69099 | 10.14951 | 145° | 15km/h | 18934m | 5.1m/s | -55.4°C | 4.6% | 69.2hPa | 2.6V | 00:00:00 | 00:00:00 | 00:00:00 | |
| OE5WHR-10 | 2026-09-04 11:46:21 | 48.69103 | 10.14947 | 143° | 16km/h | 18929m | 5.5m/s | -55.5°C | 4.7% | 69.3hPa | 2.6V | 00:00:00 | 00:00:00 | 00:00:00 | |
| DO3MHA-12 | 2026-09-04 11:46:20 | 48.69106 | 10.14942 | 140° | 15km/h | 18924m | 5.0m/s | -55.5°C | 4.7% | 69.3hPa | 2.6V | 00:00:00 | 01:17:01 | 00:00:00 | |
| SONCRA | 2026-09-04 11:46:18 | 48.69112 | 10.14933 | 128° | 16km/h | 18913m | 5.9m/s | -55.4°C | 1.3% | 69.5hPa | 2.6V | 00:00:00 | 00:00:00 | 00:00:00 | |
| DL9SK-14 | 2026-09-04 11:46:17 | 48.69115 | 10.14928 | 127° | 16km/h | 18908m | 5.1m/s | -55.5°C | 1.3% | 69.5hPa | 2.6V | 00:00:00 | 00:00:00 | 00:00:00 | |
| DK5PH-5 | 2026-09-04 11:46:16 | 48.69117 | 10.14923 | 131° | 18km/h | 18903m | 4.5m/s | -55.5°C | 4.7% | 69.5hPa | 2.6V | 00:00:00 | 01:16:57 | 00:00:00 | |
| DF2AP-13 | 2026-09-04 11:46:15 | 48.69120 | 10.14919 | 138° | 18km/h | 18898m | 6.1m/s | -55.6°C | 4.6% | 69.6hPa | 2.6V | 00:00:00 | 01:16:56 | 00:00:00 | |
| DM0DOS-11 | 2026-09-04 11:46:13 | 48.69130 | 10.14909 | 134° | 13km/h | 18876m | 4.5m/s | -55.6°C | 4.6% | 69.9hPa | 2.6V | 08:30:00 | 01:16:52 | 00:00:00 | |
| DK7TD | 2026-09-04 11:46:13 | 48.69127 | 10.14912 | 144° | 13km/h | 18881m | 5.6m/s | -55.6°C | 0.9% | 69.8hPa | 2.6V | 18:12:15 | 01:16:53 | 00:00:00 | |
| IW2NTF | 2026-09-04 11:46:11 | 48.69133 | 10.14902 | 122° | 9km/h | 18866m | 5.2m/s | -55.7°C | 4.7% | 70hPa | 2.6V | 08:30:00 | 01:16:50 | 00:00:00 | |
| DJ8HS-15 | 2026-09-04 11:46:10 | 48.69132 | 10.14906 | 129° | 18km/h | 18871m | 5.9m/s | -55.6°C | 4.6% | 69.9hPa | 2.6V | 00:00:00 | 01:16:51 | 08:30:00 | |
| DM7RM-13 | 2026-09-04 11:46:09 | 48.69131 | 10.14906 | 129° | 11km/h | 18871m | 6.0m/s | -55.7°C | 1.4% | 70.0hPa | 2.7V | 00:00:00 | 00:00:00 | 00:00:00 | |
| DO9HM | 2026-09-04 11:46:08 | 48.69133 | 10.14902 | 123° | 11km/h | 18866m | 5.2m/s | -55.7°C | 1.4% | 70.0hPa | 2.7V | 00:00:00 | 00:00:00 | 00:00:00 | |
| NBG1-10 | 2026-09-04 11:46:07 | 48.69136 | 10.14894 | 119° | 22km/h | 18856m | 6.0m/s | -55.4°C | 4.7% | 70.1hPa | 2.7V | 00:00:00 | 01:16:48 | 00:00:00 | |
| DF9NV-10 | 2026-09-04 11:46:06 | 48.69136 | 10.14894 | 120° | 15km/h | 18856m | 6.0m/s | 0°C | 0% | 0hPa | 2.7V | 00:00:00 | 00:00:00 | 00:00:00 | |
| AZAK | 2026-09-04 11:46:05 | 48.69138 | 10.14889 | 122° | 18km/h | 18850m | 4.8m/s | -55.5°C | 1.4% | 70.2hPa | 2.7V | 00:00:00 | 00:00:00 | 00:00:00 | |
| IW2NTF | 2026-09-04 11:46:04 | 48.69160 | 10.14848 | 135° | 18km/h | 18815m | 5.7m/s | -55.3°C | 4.6% | 70.6hPa | 2.7V | 08:30:00 | 01:16:40 | 00:00:00 | |
| DK7TD | 2026-09-04 11:46:02 | 48.69150 | 10.14865 | 129° | 20km/h | 18831m | 5m/s | -55.4°C | 1% | 70.4hPa | 2.6V | 18:12:15 | 01:16:43 | 00:00:00 | |
| DL1ZP-14 | 2026-09-04 11:45:58 | 48.69163 | 10.14844 | 142° | 16km/h | 18810m | 5.3m/s | -55.3°C | 1.4% | 70.6hPa | 2.6V | 00:00:00 | 00:00:00 | 00:00:00 | |
| DM0DOS-11 | 2026-09-04 11:45:57 | 48.69170 | 10.14836 | 139° | 18km/h | 18800m | 6m/s | -55.3°C | 4.6% | 70.7hPa | 2.6V | 08:30:00 | 01:16:37 | 00:00:00 | |
| DK7TD | 2026-09-04 11:45:52 | 48.69182 | 10.14812 | 124° | 20km/h | 18778m | 4.2m/s | -55.2°C | 1% | 70.9hPa | 2.6V | 18:12:15 | 01:16:33 | 00:00:00 | |
| DL6DJ-15 | 2026-09-04 11:45:52 | 48.69185 | 10.14806 | 128° | 20km/h | 18775m | 3.3m/s | -55.2°C | 1.3% | 71.0hPa | 2.7V | 00:00:00 | 00:00:00 | 00:00:00 | |
| IW2NTF | 2026-09-04 11:45:51 | 48.69193 | 10.14793 | 134° | 26km/h | 18765m | 6.3m/s | -55°C | 4.4% | 71.2hPa | 2.7V | 08:30:00 | 01:16:30 | 00:00:00 | |
| DO3MHA-12 | 2026-09-04 11:45:50 | 48.69188 | 10.14800 | 132° | 26km/h | 18770m | 5.2m/s | -55.0°C | 4.4% | 71.0hPa | 2.6V | 00:00:00 | 01:16:31 | 00:00:00 | |
| DM7RM-13 | 2026-09-04 11:45:49 | 48.69189 | 10.14800 | 132° | 22km/h | 18770m | 5.3m/s | -55.1°C | 1.3% | 71.1hPa | 2.6V | 00:00:00 | 00:00:00 | 00:00:00 | |
| DM0DOS-11 | 2026-09-04 11:45:47 | 48.69208 | 10.14774 | 143° | 24km/h | 18748m | 5.7m/s | -55°C | 4.5% | 71.3hPa | 2.6V | 08:30:00 | 01:16:27 | 00:00:00 | |
| SONCRA | 2026-09-04 11:45:47 | 48.69203 | 10.14779 | 141° | 26km/h | 18754m | 5.7m/s | -55.0°C | 1.3% | 71.2hPa | 2.6V | 00:00:00 | 00:00:00 | 00:00:00 | |
| DK5PH-5 | 2026-09-04 11:45:46 | 48.69208 | 10.14773 | 144° | 33km/h | 18748m | 5.7m/s | -55.0°C | 4.5% | 71.3hPa | 2.6V | 00:00:00 | 01:16:27 | 08:30:00 | |
| DF2AP-13 | 2026-09-04 11:45:45 | 48.69212 | 10.14768 | 148° | 33km/h | 18743m | 4.2m/s | -54.8°C | 4.5% | 71.3hPa | 2.6V | 00:00:00 | 01:16:26 | 00:00:00 | |
| IW2NTF | 2026-09-04 11:45:44 | 48.69245 | 10.14734 | 141° | 22km/h | 18710m | 4.6m/s | -54.7°C | 4.5% | 71.8hPa | 2.6V | 00:00:00 | 01:16:20 | 00:00:00 | |
| DK7TD | 2026-09-04 11:45:41 | 48.69235 | 10.14745 | 143° | 27km/h | 18722m | 6m/s | -54.9°C | 0.9% | 71.6hPa | 2.7V | 18:12:15 | 01:16:22 | 00:00:00 | |
| DO3MHA-12 | 2026-09-04 11:45:40 | 48.69240 | 10.14739 | 141° | 29km/h | 18716m | 6.5m/s | -54.8°C | 4.5% | 71.6hPa | 2.6V | 00:00:00 | 01:16:21 | 00:00:00 | |
| OE5WHR-10 | 2026-09-04 11:45:39 | 48.69245 | 10.14734 | 142° | 35km/h | 18710m | 4.6m/s | -54.7°C | 4.5% | 71.7hPa | 2.6V | 00:00:00 | 00:00:00 | 00:00:00 | |
| DO3MHA-11 | 2026-09-04 11:45:37 | 48.69255 | 10.14722 | 142° | 33km/h | 18700m | 6.1m/s | -54.7°C | 4.4% | 71.8hPa | 2.7V | 00:00:00 | 01:16:18 | 00:00:00 | |
| NBG1-10 | 2026-09-04 11:45:34 | 48.69275 | 10.14699 | 145° | 42km/h | 18684m | 6.1m/s | -54.7°C | 4.3% | 72.0hPa | 2.7V | 00:00:00 | 01:16:15 | 00:00:00 | |
| IW2NTF | 2026-09-04 11:45:31 | 48.69308 | 10.14663 | 140° | 33km/h | 18654m | 5m/s | -54.9°C | 4.4% | 72.4hPa | 2.7V | 00:00:00 | 01:16:10 | 00:00:00 | |
| DK7TD | 2026-09-04 11:45:31 | 48.69295 | 10.14678 | 144° | 31km/h | 18666m | 5.2m/s | -54.7°C | 0.8% | 72.2hPa | 2.6V | 18:12:15 | 01:16:12 | 00:00:00 | |
| DN1GJH-1 | 2026-09-04 11:45:30 | 48.69295 | 10.14678 | 145° | 31km/h | 18667m | 5.2m/s | -54.7°C | 1.3% | 72.2hPa | 2.6V | 00:00:00 | 00:00:00 | 00:00:00 | |
| DM0DOS-11 | 2026-09-04 11:45:28 | 48.69326 | 10.14638 | 134° | 35km/h | 18638m | 4.2m/s | -55°C | 4.4% | 72.5hPa | 2.6V | 08:30:00 | 01:16:07 | 00:00:00 | |
| DO3MHA-11 | 2026-09-04 11:45:27 | 48.69320 | 10.14647 | 137° | 38km/h | 18643m | 4.6m/s | -54.8°C | 4.3% | 72.5hPa | 2.6V | 00:00:00 | 01:16:08 | 00:00:00 | |
| IW2NTF | 2026-09-04 11:45:25 | 48.69373 | 10.14560 | 134° | 42km/h | 18600m | 6.3m/s | -55.4°C | 4.5% | 73hPa | 2.6V | 00:00:00 | 01:16:00 | 00:00:00 | |
| DK7TD | 2026-09-04 11:45:20 | 48.69366 | 10.14571 | 133° | 38km/h | 18606m | 5m/s | -55.3°C | 0.9% | 72.9hPa | 2.6V | 18:12:15 | 01:16:01 | 00:00:00 | |
| DM0DOS-11 | 2026-09-04 11:45:18 | 48.69397 | 10.14528 | 139° | 40km/h | 18585m | 6m/s | -55.7°C | 4.6% | 73.1hPa | 2.7V | 08:30:00 | 01:15:57 | 00:00:00 | |
| OE5WHR-10 | 2026-09-04 11:45:17 | 48.69396 | 10.14528 | 140° | 46km/h | 18585m | 5.9m/s | -55.6°C | 4.6% | 73.1hPa | 2.6V | 00:00:00 | 00:00:00 | 00:00:00 | |
| DK5PH-5 | 2026-09-04 11:45:16 | 48.69396 | 10.14528 | 140° | 47km/h | 18585m | 5.9m/s | -55.6°C | 4.6% | 73.1hPa | 2.6V | 00:00:00 | 01:15:57 | 00:00:00 | |
| DF2AP-13 | 2026-09-04 11:45:15 | 48.69404 | 10.14518 | 140° | 47km/h | 18580m | 4.1m/s | -55.6°C | 4.6% | 73.2hPa | 2.6V | 00:00:00 | 01:15:56 | 00:00:00 | |
| OE3JTB-15 | 2026-09-04 11:45:14 | 48.69412 | 10.14508 | 141° | 47km/h | 18575m | 5.1m/s | -55.6°C | 4.6% | 73.2hPa | 2.6V | 00:00:00 | 00:00:00 | 00:00:00 | |
| DF3TZ-5 | 2026-09-04 11:45:13 | 48.69421 | 10.14497 | 140° | 46km/h | 18570m | 5.1m/s | -55.6°C | 1.3% | 73.4hPa | 2.7V | 00:00:00 | 00:00:00 | 00:00:00 | |
| IW2NTF | 2026-09-04 11:45:11 | 48.69454 | 10.14443 | 124° | 49km/h | 18551m | 4.5m/s | -55.6°C | 0% | 73.6hPa | 2.7V | 00:00:00 | 01:15:50 | 00:00:00 | |
| DK7TD | 2026-09-04 11:45:09 | 48.69454 | 10.14443 | 124° | 49km/h | 18551m | 4.5m/s | -55.6°C | 0.9% | 73.6hPa | 2.7V | 18:12:15 | 01:15:50 | 00:00:00 | |
| DJTTGO | 2026-09-04 11:45:08 | 48.69461 | 10.14427 | 123° | 49km/h | 18546m | 4.3m/s | -55.6°C | 1.4% | 73.6hPa | 2.6V | 00:00:00 | 00:00:00 | 00:00:00 | |
| DM0DOS-11 | 2026-09-04 11:45:07 | 48.69475 | 10.14394 | 123° | 53km/h | 18536m | 4.9m/s | -55.6°C | 4.6% | 73.7hPa | 2.6V | 08:30:00 | 01:15:47 | 00:00:00 | |
| DO3MHA-11 | 2026-09-04 11:45:07 | 48.69468 | 10.14410 | 122° | 49km/h | 18541m | 5.9m/s | -55.6°C | 4.5% | 73.6hPa | 2.6V | 00:00:00 | 01:15:48 | 00:00:00 | |
| OE5DRO-10 | 2026-09-04 11:45:06 | 48.69475 | 10.14393 | 124° | 47km/h | 18536m | 4.9m/s | -55.6°C | 4.6% | 73.7hPa | 2.6V | 00:00:00 | 00:00:00 | 00:00:00 | |
| IW2NTF | 2026-09-04 11:45:04 | 48.69521 | 10.14282 | 117° | 47km/h | 18502m | 4.8m/s | 0°C | 0% | 0hPa | 2.6V | 00:00:00 | 01:15:40 | 00:00:00 | |
| DK7TD | 2026-09-04 11:44:59 | 48.69520 | 10.14282 | 117° | 47km/h | 18502m | 4.8m/s | -55.6°C | 0.9% | 74.1hPa | 2.6V | 18:12:15 | 01:15:40 | 00:00:00 | |
| DM0DOS-11 | 2026-09-04 11:44:57 | 48.69534 | 10.14235 | 110° | 44km/h | 18487m | 4.1m/s | -55.6°C | 4.5% | 74.3hPa | 2.6V | 08:30:00 | 01:15:37 | 00:00:00 | |
| DL1ZP-14 | 2026-09-04 11:44:56 | 48.69534 | 10.14235 | 110° | 44km/h | 18487m | 4.1m/s | -55.6°C | 1.4% | 74.3hPa | 2.6V | 00:00:00 | 00:00:00 | 00:00:00 | |
| OE5WHR-10 | 2026-09-04 11:44:55 | 48.69538 | 10.14219 | 112° | 44km/h | 18482m | 5.6m/s | -55.6°C | 4.6% | 74.3hPa | 2.6V | 00:00:00 | 01:15:36 | 00:00:00 | |
| DB0NH | 2026-09-04 11:44:54 | 48.69543 | 10.14203 | 115° | 44km/h | 18477m | 4.7m/s | -55.6°C | 4.5% | 74.4hPa | 2.6V | 00:00:00 | 01:15:35 | 00:00:00 | |
| IW2NTF | 2026-09-04 11:44:51 | 48.69570 | 10.14127 | 118° | 47km/h | 18452m | 4.6m/s | 0°C | 0% | 0hPa | 2.6V | 00:00:00 | 01:15:30 | 00:00:00 | |
| DK7TD | 2026-09-04 11:44:48 | 48.69575 | 10.14111 | 116° | 46km/h | 18448m | 4.1m/s | -56°C | 0.9% | 74.8hPa | 2.6V | 18:12:15 | 01:15:29 | 00:00:00 | |
| DM0DOS-11 | 2026-09-04 11:44:47 | 48.69584 | 10.14080 | 110° | 44km/h | 18438m | 4.4m/s | -56.2°C | 4.6% | 74.9hPa | 2.6V | 08:30:00 | 01:15:27 | 00:00:00 | |
| DO3MHA-11 | 2026-09-04 11:44:47 | 48.69580 | 10.14095 | 114° | 44km/h | 18443m | 5.3m/s | -56.1°C | 4.6% | 74.8hPa | 2.6V | 00:00:00 | 01:15:28 | 08:30:00 | |
| DK5PH-5 | 2026-09-04 11:44:46 | 48.69584 | 10.14080 | 111° | 42km/h | 18439m | 4.4m/s | -56.1°C | 4.6% | 74.9hPa | 2.7V | 00:00:00 | 01:15:27 | 00:00:00 | |
| DF2AP-13 | 2026-09-04 11:44:45 | 48.69588 | 10.14064 | 110° | 31km/h | 18433m | 5.3m/s | -56.2°C | 4.5% | 74.9hPa | 2.7V | 00:00:00 | 01:15:26 | 00:00:00 | |
| IW2NTF | 2026-09-04 11:44:44 | 48.69607 | 10.13966 | 107° | 44km/h | 18404m | 5.8m/s | 0°C | 0% | 0hPa | 2.7V | 00:00:00 | 01:15:20 | 00:00:00 | |
| DK7TD | 2026-09-04 11:44:37 | 48.69615 | 10.13934 | 112° | 46km/h | 18394m | 4.3m/s | -57°C | 1.1% | 75.4hPa | 2.6V | 18:12:15 | 01:15:18 | 00:00:00 | |
| DM0DOS-11 | 2026-09-04 11:44:37 | 48.69619 | 10.13918 | 112° | 44km/h | 18389m | 5.7m/s | -57.1°C | 4.9% | 75.5hPa | 2.6V | 08:30:00 | 01:15:17 | 00:00:00 | |
| DO3MHA-11 | 2026-09-04 11:44:37 | 48.69615 | 10.13934 | 112° | 42km/h | 18394m | 4.3m/s | -57.0°C | 4.9% | 75.3hPa | 2.6V | 00:00:00 | 01:15:18 | 00:00:00 | |
| OE5WHR-10 | 2026-09-04 11:44:34 | 48.69627 | 10.13889 | 113° | 42km/h | 18379m | 4.2m/s | -57.1°C | 5.0% | 75.5hPa | 2.6V | 00:00:00 | 00:00:00 | 08:30:00 | |
| DB0ND-19 | 2026-09-04 11:44:32 | 48.69635 | 10.13859 | 108° | 42km/h | 18369m | 4.2m/s | -57.2°C | 1.5% | 75.7hPa | 2.6V | 00:00:00 | 00:00:00 | 00:00:00 | |
| IW2NTF | 2026-09-04 11:44:31 | 48.69641 | 10.13813 | 92° | 38km/h | 18354m | 4.5m/s | 0°C | 0% | 0hPa | 2.6V | 00:00:00 | 01:15:10 | 00:00:00 | |
| DO3MHA-12 | 2026-09-04 11:44:30 | 48.69640 | 10.13828 | 98° | 42km/h | 18360m | 5.6m/s | -57.2°C | 5.0% | 75.7hPa | 2.6V | 00:00:00 | 01:15:11 | 00:00:00 | |
| DF7PN | 2026-09-04 11:44:29 | 48.69641 | 10.13813 | 92° | 38km/h | 18354m | 4.5m/s | -57.3°C | 1.5% | 75.8hPa | 2.7V | 00:00:00 | 00:00:00 | 00:00:00 | |
| NBG1-10 | 2026-09-04 11:44:28 | 48.69641 | 10.13797 | 91° | 37km/h | 18350m | 5.4m/s | -57.3°C | 5.0% | 75.9hPa | 2.7V | 00:00:00 | 01:15:09 | 00:00:00 | |
| DM0DOS-11 | 2026-09-04 11:44:27 | 48.69640 | 10.13764 | 87° | 46km/h | 18340m | 3.7m/s | -57.3°C | 5% | 76.1hPa | 2.7V | 08:30:00 | 01:15:07 | 00:00:00 | |
| DO3MHA-11 | 2026-09-04 11:44:27 | 48.69641 | 10.13781 | 89° | 42km/h | 18344m | 5.2m/s | -57.2°C | 5.0% | 75.9hPa | 2.7V | 00:00:00 | 01:15:08 | 00:00:00 | |
| DK7TD | 2026-09-04 11:44:27 | 48.69641 | 10.13781 | 89° | 44km/h | 18344m | 5.2m/s | -57.3°C | 1.2% | 76hPa | 2.6V | 18:12:15 | 01:15:08 | 00:00:00 | |
| DL1ZP-14 | 2026-09-04 11:44:25 | 48.69640 | 10.13747 | 86° | 44km/h | 18335m | 5.5m/s | -57.4°C | 1.5% | 76.1hPa | 2.7V | 00:00:00 | 00:00:00 | 00:00:00 | |
| DB0NH | 2026-09-04 11:44:24 | 48.69639 | 10.13730 | 89° | 37km/h | 18330m | 4.5m/s | -57.4°C | 5.0% | 76.1hPa | 2.7V | 00:00:00 | 01:15:05 | 08:30:00 | |
| AZAK | 2026-09-04 11:44:22 | 48.69641 | 10.13698 | 102° | 42km/h | 18321m | 5.7m/s | -57.4°C | 1.5% | 76.3hPa | 2.7V | 00:00:00 | 00:00:00 | 00:00:00 | |
| IW2NTF | 2026-09-04 11:44:21 | 48.69651 | 10.13653 | 112° | 38km/h | 18307m | 4.9m/s | 0°C | 0% | 0hPa | 2.7V | 00:00:00 | 01:15:00 | 00:00:00 | |
| DO3MHA-12 | 2026-09-04 11:44:20 | 48.69647 | 10.13667 | 112° | 38km/h | 18312m | 4.1m/s | -57.3°C | 4.9% | 76.3hPa | 2.6V | 00:00:00 | 01:15:01 | 00:00:00 | |
| DL6DJ-15 | 2026-09-04 11:44:18 | 48.69655 | 10.13640 | 108° | 37km/h | 18302m | 4.7m/s | -57.4°C | 1.5% | 76.5hPa | 2.6V | 00:00:00 | 00:00:00 | 00:00:00 | |
| DM0DOS-11 | 2026-09-04 11:44:17 | 48.69659 | 10.13612 | 100° | 38km/h | 18293m | 5.1m/s | -57.3°C | 5% | 76.6hPa | 2.6V | 08:30:00 | 01:14:57 | 00:00:00 | |
| DK7TD | 2026-09-04 11:44:16 | 48.69659 | 10.13612 | 100° | 38km/h | 18293m | 5.1m/s | -57.3°C | 1.2% | 76.6hPa | 2.6V | 18:12:15 | 01:14:57 | 00:00:00 | |
| OE3JTB-15 | 2026-09-04 11:44:16 | 48.69659 | 10.13612 | 101° | 47km/h | 18294m | 5.1m/s | -57.2°C | 5.0% | 76.6hPa | 2.6V | 00:00:00 | 01:14:57 | 00:00:00 | |
| SONCRA | 2026-09-04 11:44:14 | 48.69662 | 10.13566 | 91° | 38km/h | 18280m | 5.7m/s | -57.3°C | 1.5% | 76.8hPa | 2.6V | 00:00:00 | 00:00:00 | 00:00:00 | |
| DL9SK-14 | 2026-09-04 11:44:13 | 48.69662 | 10.13552 | 88° | 35km/h | 18275m | 4.6m/s | -57.4°C | 1.5% | 76.8hPa | 2.6V | 00:00:00 | 00:00:00 | 00:00:00 | |
| IW2NTF | 2026-09-04 11:44:11 | 48.69661 | 10.13510 | 85° | 37km/h | 18260m | 5.1m/s | 0°C | 0% | 0hPa | 2.6V | 00:00:00 | 01:14:50 | 00:00:00 | |
| DO3MHA-12 | 2026-09-04 11:44:10 | 48.69661 | 10.13524 | 87° | 33km/h | 18266m | 5.2m/s | -57.4°C | 5.1% | 76.9hPa | 2.7V | 00:00:00 | 01:14:51 | 00:00:00 | |
| OE5DRO-10 | 2026-09-04 11:44:09 | 48.69660 | 10.13510 | 86° | 31km/h | 18261m | 5.0m/s | -57.5°C | 5.1% | 77.0hPa | 2.7V | 00:00:00 | 00:00:00 | 00:00:00 | |
| DM0DOS-11 | 2026-09-04 11:44:07 | 48.69658 | 10.13471 | 83° | 31km/h | 18245m | 4.1m/s | -57.7°C | 5.2% | 77.2hPa | 2.7V | 08:30:00 | 01:14:47 | 00:00:00 | |
| DK7TD | 2026-09-04 11:44:05 | 48.69657 | 10.13459 | 88° | 31km/h | 18240m | 5.2m/s | -57.8°C | 1.3% | 77.3hPa | 2.7V | 18:12:15 | 01:14:46 | 00:00:00 | |
| DO9HM | 2026-09-04 11:44:04 | 48.69657 | 10.13459 | 89° | 31km/h | 18240m | 5.2m/s | -57.8°C | 1.6% | 77.3hPa | 2.6V | 00:00:00 | 00:00:00 | 00:00:00 | |
| IW2NTF | 2026-09-04 11:44:01 | 48.69662 | 10.13386 | 93° | 31km/h | 18211m | 5.1m/s | 0°C | 0% | 0hPa | 2.6V | 00:00:00 | 01:14:40 | 00:00:00 | |
| DK7TD | 2026-09-04 11:43:55 | 48.69662 | 10.13338 | 82° | 29km/h | 18192m | 5.8m/s | -57.7°C | 1.3% | 77.8hPa | 2.7V | 18:12:15 | 01:14:36 | 00:00:00 | |
| NBG1-10 | 2026-09-04 11:43:55 | 48.69662 | 10.13338 | 82° | 24km/h | 18193m | 5.8m/s | -57.6°C | 5.2% | 77.8hPa | 2.6V | 00:00:00 | 01:14:36 | 00:00:00 | |
| DB0NH | 2026-09-04 11:43:54 | 48.69660 | 10.13327 | 76° | 24km/h | 18187m | 4.4m/s | -57.6°C | 5.2% | 77.9hPa | 2.6V | 00:00:00 | 01:14:35 | 00:00:00 | |
| DM0DOS-11 | 2026-09-04 11:43:52 | 48.69653 | 10.13295 | 67° | 27km/h | 18173m | 4.8m/s | -57.5°C | 5.1% | 78.1hPa | 2.6V | 08:30:00 | 01:14:32 | 00:00:00 | |
| DK7TD | 2026-09-04 11:43:44 | 48.69648 | 10.13230 | 104° | 26km/h | 18139m | 5.9m/s | -57.4°C | 1.2% | 78.5hPa | 2.6V | 18:12:15 | 01:14:25 | 00:00:00 | |
| DO9HM | 2026-09-04 11:43:44 | 48.69648 | 10.13230 | 105° | 26km/h | 18139m | 5.9m/s | -57.4°C | 1.6% | 78.5hPa | 2.7V | 00:00:00 | 00:00:00 | 00:00:00 | |
| DM0DOS-11 | 2026-09-04 11:43:42 | 48.69653 | 10.13201 | 97° | 26km/h | 18123m | 4.3m/s | -57.4°C | 5.1% | 78.7hPa | 2.7V | 08:30:00 | 01:14:22 | 00:00:00 | |
| DK7TD | 2026-09-04 11:43:33 | 48.69641 | 10.13134 | 78° | 20km/h | 18087m | 4.5m/s | -57.5°C | 1.3% | 79.2hPa | 2.6V | 18:12:15 | 01:14:14 | 00:00:00 | |
| DF2AP-13 | 2026-09-04 11:43:33 | 48.69641 | 10.13134 | 79° | 27km/h | 18087m | 4.4m/s | -57.5°C | 5.1% | 79.1hPa | 2.6V | 00:00:00 | 01:14:14 | 00:00:00 | |
| DM0DOS-11 | 2026-09-04 11:43:32 | 48.69640 | 10.13120 | 92° | 20km/h | 18079m | 4.7m/s | -57.4°C | 5% | 79.2hPa | 2.6V | 08:30:00 | 01:14:12 | 00:00:00 | |
| IW2NTF | 2026-09-04 11:43:31 | 48.69641 | 10.13103 | 96° | 26km/h | 18068m | 4.1m/s | 0°C | 0% | 0hPa | 2.7V | 00:00:00 | 01:14:10 | 00:00:00 | |
| DK7TD | 2026-09-04 11:43:23 | 48.69646 | 10.13053 | 89° | 20km/h | 18041m | 5.2m/s | -57.9°C | 1.2% | 79.8hPa | 2.7V | 18:12:15 | 01:14:04 | 00:00:00 | |
| DM0DOS-11 | 2026-09-04 11:43:22 | 48.69645 | 10.13037 | 85° | 22km/h | 18033m | 4.4m/s | -58.1°C | 5% | 79.9hPa | 2.6V | 08:30:00 | 01:14:02 | 00:00:00 | |
| NBG1-10 | 2026-09-04 11:43:22 | 48.69645 | 10.13045 | 86° | 31km/h | 18037m | 4.0m/s | -57.9°C | 5.0% | 79.7hPa | 2.7V | 00:00:00 | 01:14:03 | 00:00:00 | |
| AZAK | 2026-09-04 11:43:20 | 48.69645 | 10.13029 | 88° | 20km/h | 18028m | 5.8m/s | -58.2°C | 1.6% | 79.9hPa | 2.7V | 00:00:00 | 00:00:00 | 00:00:00 | |
| DO3MHA-11 | 2026-09-04 11:43:17 | 48.69646 | 10.13007 | 100° | 31km/h | 18015m | 3.7m/s | -58.1°C | 5.3% | 80.1hPa | 2.7V | 00:00:00 | 01:13:58 | 08:30:00 | |
| DM0DOS-11 | 2026-09-04 11:43:16 | 48.69660 | 10.12938 | 113° | 33km/h | 17986m | 4.5m/s | -58.3°C | 5.5% | 80.5hPa | 2.6V | 08:30:00 | 01:13:52 | 00:00:00 | |
| DK7TD | 2026-09-04 11:43:12 | 48.69657 | 10.12950 | 114° | 35km/h | 17990m | 4.2m/s | -58.3°C | 1.6% | 80.4hPa | 2.6V | 18:12:15 | 01:13:53 | 00:00:00 | |
| DO3MHA-12 | 2026-09-04 11:43:10 | 48.69663 | 10.12926 | 111° | 33km/h | 17981m | 5.5m/s | -58.3°C | 5.4% | 80.5hPa | 2.7V | 00:00:00 | 01:13:51 | 00:00:00 | |
| OE5WHR-10 | 2026-09-04 11:43:09 | 48.69666 | 10.12915 | 110° | 35km/h | 17976m | 4.7m/s | 0°C | 0% | 0hPa | 2.7V | 00:00:00 | 00:00:00 | 00:00:00 | |
| DO3MHA-11 | 2026-09-04 11:43:07 | 48.69671 | 10.12894 | 109° | 37km/h | 17966m | 3.9m/s | -58.3°C | 5.4% | 80.7hPa | 2.7V | 00:00:00 | 01:13:48 | 00:00:00 | |
| DM0DOS-11 | 2026-09-04 11:43:06 | 48.69679 | 10.12816 | 99° | 40km/h | 17938m | 3.9m/s | -58.1°C | 5% | 81hPa | 2.7V | 08:30:00 | 01:13:42 | 00:00:00 | |
| DK7TD | 2026-09-04 11:43:02 | 48.69677 | 10.12831 | 99° | 38km/h | 17943m | 5m/s | -58.1°C | 1.3% | 81hPa | 2.7V | 18:12:15 | 01:13:43 | 00:00:00 | |
| DB0ND-19 | 2026-09-04 11:42:59 | 48.69682 | 10.12785 | 99° | 38km/h | 17929m | 4.4m/s | -58.1°C | 1.6% | 81.2hPa | 2.7V | 00:00:00 | 00:00:00 | 00:00:00 | |
| DJTTGO | 2026-09-04 11:42:58 | 48.69682 | 10.12785 | 101° | 40km/h | 17929m | 4.4m/s | -58.1°C | 1.6% | 81.2hPa | 2.7V | 00:00:00 | 00:00:00 | 00:00:00 | |
| DO3MHA-11 | 2026-09-04 11:42:57 | 48.69687 | 10.12757 | 108° | 31km/h | 17919m | 4.7m/s | -58.1°C | 5.2% | 81.2hPa | 2.7V | 00:00:00 | 01:13:38 | 00:00:00 | |
| DM0DOS-11 | 2026-09-04 11:42:56 | 48.69697 | 10.12689 | 101° | 29km/h | 17892m | 4.9m/s | -58.4°C | 5.4% | 81.6hPa | 2.7V | 08:30:00 | 01:13:32 | 00:00:00 | |
| DK7TD | 2026-09-04 11:42:51 | 48.69697 | 10.12690 | 101° | 29km/h | 17892m | 4.9m/s | -58.5°C | 1.5% | 81.6hPa | 2.7V | 18:12:15 | 01:13:32 | 00:00:00 | |
| DB0UT-7 | 2026-09-04 11:42:50 | 48.69699 | 10.12678 | 106° | 35km/h | 17887m | 4.9m/s | -58.5°C | 5.4% | 81.7hPa | 2.7V | 00:00:00 | 00:00:00 | 00:00:00 | |
| NBG1-10 | 2026-09-04 11:42:49 | 48.69701 | 10.12667 | 106° | 37km/h | 17883m | 3.8m/s | -58.6°C | 5.4% | 81.7hPa | 2.6V | 00:00:00 | 01:13:30 | 00:00:00 | |
| OE5WHR-10 | 2026-09-04 11:42:48 | 48.69703 | 10.12655 | 104° | 33km/h | 17878m | 5.7m/s | 0°C | 0% | 0hPa | 2.6V | 00:00:00 | 01:13:29 | 00:00:00 | |
| DO3MHA-11 | 2026-09-04 11:42:47 | 48.69705 | 10.12643 | 103° | 33km/h | 17873m | 4.4m/s | -58.6°C | 5.4% | 81.9hPa | 2.6V | 00:00:00 | 01:13:28 | 00:00:00 | |
| DM0DOS-11 | 2026-09-04 11:42:46 | 48.69722 | 10.12568 | 115° | 33km/h | 17842m | 5.9m/s | -58.8°C | 5.3% | 82.3hPa | 2.6V | 08:30:00 | 01:13:22 | 00:00:00 | |
| DL6DJ-15 | 2026-09-04 11:42:45 | 48.69710 | 10.12617 | 108° | 35km/h | 17863m | 4.6m/s | -58.7°C | 1.7% | 82.0hPa | 2.6V | 00:00:00 | 00:00:00 | 00:00:00 | |
| DK7TD | 2026-09-04 11:42:40 | 48.69726 | 10.12557 | 120° | 31km/h | 17837m | 4.4m/s | -58.9°C | 1.4% | 82.4hPa | 2.6V | 18:12:15 | 01:13:21 | 00:00:00 | |
| DO3MHA-12 | 2026-09-04 11:42:40 | 48.69725 | 10.12557 | 121° | 31km/h | 17837m | 4.3m/s | -58.8°C | 5.4% | 82.3hPa | 2.7V | 00:00:00 | 01:13:21 | 00:00:00 | |
| DL9SK-14 | 2026-09-04 11:42:39 | 48.69730 | 10.12547 | 120° | 29km/h | 17833m | 4.6m/s | -58.9°C | 1.7% | 82.4hPa | 2.7V | 00:00:00 | 00:00:00 | 00:00:00 | |
| DF3TZ-5 | 2026-09-04 11:42:38 | 48.69733 | 10.12537 | 119° | 29km/h | 17828m | 5.2m/s | -59.1°C | 1.7% | 82.5hPa | 2.7V | 00:00:00 | 00:00:00 | 00:00:00 | |
| DO3MHA-11 | 2026-09-04 11:42:37 | 48.69737 | 10.12527 | 120° | 33km/h | 17823m | 3.7m/s | -59.0°C | 5.5% | 82.5hPa | 2.7V | 00:00:00 | 01:13:18 | 00:00:00 | |
| DM0DOS-11 | 2026-09-04 11:42:36 | 48.69764 | 10.12467 | 120° | 33km/h | 17796m | 4.8m/s | -59.4°C | 5.8% | 82.9hPa | 2.7V | 08:30:00 | 01:13:12 | 00:00:00 | |
| DK7TD | 2026-09-04 11:42:30 | 48.69768 | 10.12456 | 121° | 35km/h | 17791m | 4.6m/s | -59.3°C | 1.5% | 83hPa | 2.7V | 18:12:15 | 01:13:11 | 00:00:00 | |
| DO3MHA-12 | 2026-09-04 11:42:30 | 48.69768 | 10.12456 | 121° | 38km/h | 17791m | 4.6m/s | -59.2°C | 5.7% | 82.9hPa | 2.7V | 00:00:00 | 01:13:11 | 08:30:00 | |
| DB0ND-19 | 2026-09-04 11:42:28 | 48.69778 | 10.12433 | 125° | 37km/h | 17782m | 3.9m/s | -59.3°C | 1.8% | 83.1hPa | 2.7V | 00:00:00 | 00:00:00 | 00:00:00 | |
| DO3MHA-11 | 2026-09-04 11:42:27 | 48.69784 | 10.12422 | 126° | 40km/h | 17778m | 4.7m/s | -59.2°C | 5.7% | 83.1hPa | 2.7V | 00:00:00 | 01:13:08 | 00:00:00 | |
| OE5WHR-10 | 2026-09-04 11:42:25 | 48.69794 | 10.12400 | 128° | 44km/h | 17768m | 4.1m/s | 0°C | 0% | 0hPa | 2.7V | 00:00:00 | 00:00:00 | 00:00:00 | |
| DM0DOS-11 | 2026-09-04 11:42:24 | 48.69821 | 10.12355 | 131° | 46km/h | 17750m | 4.5m/s | -58.9°C | 5.6% | 83.5hPa | 2.7V | 08:30:00 | 01:13:02 | 00:00:00 | |
| DK7TD | 2026-09-04 11:42:20 | 48.69828 | 10.12341 | 127° | 47km/h | 17745m | 5.6m/s | -59°C | 1.5% | 83.6hPa | 2.7V | 18:12:15 | 01:13:01 | 00:00:00 | |
| DO3MHA-12 | 2026-09-04 11:42:20 | 48.69828 | 10.12341 | 128° | 40km/h | 17745m | 5.5m/s | -58.9°C | 5.6% | 83.6hPa | 2.6V | 00:00:00 | 01:13:01 | 00:00:00 | |
| AZAK | 2026-09-04 11:42:18 | 48.69835 | 10.12326 | 124° | 46km/h | 17740m | 4.7m/s | -59.0°C | 1.8% | 83.6hPa | 2.6V | 00:00:00 | 00:00:00 | 00:00:00 | |
| DO3MHA-11 | 2026-09-04 11:42:17 | 48.69847 | 10.12298 | 123° | 38km/h | 17731m | 5.0m/s | -58.7°C | 5.7% | 83.7hPa | 2.6V | 00:00:00 | 01:12:58 | 00:00:00 | |
| DM0DOS-11 | 2026-09-04 11:42:16 | 48.69878 | 10.12223 | 127° | 37km/h | 17700m | 3.9m/s | -58.8°C | 5.6% | 84.2hPa | 2.7V | 08:30:00 | 01:12:52 | 00:00:00 | |
| DK7TD | 2026-09-04 11:42:09 | 48.69890 | 10.12199 | 125° | 40km/h | 17690m | 6.3m/s | -58.7°C | 1.5% | 84.3hPa | 2.6V | 18:12:15 | 01:12:50 | 00:00:00 | |
| DL9SK-14 | 2026-09-04 11:42:08 | 48.69896 | 10.12187 | 125° | 42km/h | 17685m | 4.6m/s | -58.7°C | 1.7% | 84.3hPa | 2.6V | 00:00:00 | 00:00:00 | 00:00:00 | |
| DO3MHA-11 | 2026-09-04 11:42:07 | 48.69902 | 10.12173 | 128° | 44km/h | 17679m | 6.9m/s | -58.7°C | 5.6% | 84.4hPa | 2.6V | 00:00:00 | 01:12:48 | 00:00:00 | |
| DM0DOS-11 | 2026-09-04 11:42:06 | 48.69939 | 10.12086 | 119° | 42km/h | 17648m | 4.4m/s | -58.5°C | 5.5% | 84.9hPa | 2.6V | 08:30:00 | 01:12:42 | 00:00:00 | |
| DK7TD | 2026-09-04 11:41:58 | 48.69951 | 10.12045 | 107° | 38km/h | 17633m | 5.1m/s | -58.3°C | 1.4% | 85.1hPa | 2.7V | 18:12:15 | 01:12:39 | 00:00:00 | |
| DO3MHA-11 | 2026-09-04 11:41:57 | 48.69954 | 10.12031 | 109° | 47km/h | 17628m | 4.1m/s | -58.3°C | 5.4% | 85.1hPa | 2.6V | 00:00:00 | 01:12:38 | 00:00:00 | |
| OE5DRO-10 | 2026-09-04 11:41:56 | 48.69958 | 10.12016 | 112° | 46km/h | 17624m | 5.4m/s | -58.3°C | 5.4% | 85.2hPa | 2.6V | 00:00:00 | 00:00:00 | 00:00:00 | |
| DM0DOS-11 | 2026-09-04 11:41:55 | 48.69985 | 10.11931 | 120° | 51km/h | 17599m | 4.8m/s | -58.1°C | 5.4% | 85.5hPa | 2.6V | 08:30:00 | 01:12:32 | 00:00:00 | |
| DK7TD | 2026-09-04 11:41:48 | 48.70002 | 10.11884 | 113° | 44km/h | 17585m | 5.2m/s | -58.1°C | 1.5% | 85.7hPa | 2.6V | 18:12:15 | 01:12:29 | 00:00:00 | |
| DO3MHA-11 | 2026-09-04 11:41:47 | 48.70006 | 10.11869 | 108° | 44km/h | 17581m | 4.5m/s | -58.0°C | 5.5% | 85.8hPa | 2.7V | 00:00:00 | 01:12:28 | 08:30:00 | |
| DK5PH-5 | 2026-09-04 11:41:46 | 48.70009 | 10.11854 | 105° | 46km/h | 17577m | 4.1m/s | -58.1°C | 5.5% | 85.8hPa | 2.7V | 00:00:00 | 01:12:27 | 00:00:00 | |
| DM0DOS-11 | 2026-09-04 11:41:44 | 48.70022 | 10.11780 | 103° | 47km/h | 17553m | 5.1m/s | -57.9°C | 5.4% | 86.2hPa | 2.7V | 08:30:00 | 01:12:22 | 00:00:00 | |
| DK7TD | 2026-09-04 11:41:38 | 48.70032 | 10.11725 | 109° | 51km/h | 17538m | 4.8m/s | -58°C | 1.5% | 86.4hPa | 2.6V | 18:12:15 | 01:12:19 | 00:00:00 | |
| AZAK | 2026-09-04 11:41:37 | 48.70037 | 10.11706 | 111° | 49km/h | 17534m | 3.9m/s | -57.9°C | 1.7% | 86.5hPa | 2.7V | 00:00:00 | 00:00:00 | 00:00:00 | |
| DM0DOS-11 | 2026-09-04 11:41:36 | 48.70055 | 10.11609 | 101° | 40km/h | 17506m | 4.4m/s | -57.8°C | 5.4% | 86.8hPa | 2.7V | 08:30:00 | 01:12:12 | 00:00:00 | |
| DK7TD | 2026-09-04 11:41:27 | 48.70061 | 10.11547 | 102° | 44km/h | 17487m | 4.7m/s | -57.6°C | 1.5% | 87.1hPa | 2.7V | 18:12:15 | 01:12:08 | 00:00:00 | |
| DO3MHA-11 | 2026-09-04 11:41:27 | 48.70061 | 10.11547 | 102° | 49km/h | 17488m | 4.7m/s | -57.5°C | 5.2% | 87.0hPa | 2.7V | 00:00:00 | 01:12:08 | 00:00:00 | |
| Es werden nur die letzten 3500 von 4260 Frames angezeigt. GPX/KML und Diagramme bleiben verfügbar. | |||||||||||||||